<?xml version="1.0" encoding="UTF-8" standalone="no" ?>
<gpx xmlns="http://www.topografix.com/GPX/1/1" xmlns:xsi="http://www.w3.org/2001/XMLSchema-instance" xsi:schemaLocation="http://www.topografix.com/GPX/1/1 http://www.topografix.com/GPX/1/1/gpx.xsd" version="1.1" creator="VisuGPX - https://www.visugpx.com">
  <metadata>
    <name>Entre terre et mer.</name>
  </metadata>
  <trk>
    <name><![CDATA[Entre terre et mer.]]></name>
    <trkseg>
      <trkpt lat="49.2971" lon="-0.3164">
        <ele>10.9</ele>
        <time>2020-12-20T08:10:00Z</time>
      </trkpt>
      <trkpt lat="49.29668" lon="-0.31626">
        <ele>10.9</ele>
        <time>2020-12-20T08:10:02Z</time>
      </trkpt>
      <trkpt lat="49.29673" lon="-0.31627">
        <ele>11</ele>
        <time>2020-12-20T08:10:04Z</time>
      </trkpt>
      <trkpt lat="49.29675" lon="-0.31626">
        <ele>11</ele>
        <time>2020-12-20T08:10:05Z</time>
      </trkpt>
      <trkpt lat="49.29676" lon="-0.31627">
        <ele>11</ele>
        <time>2020-12-20T08:10:06Z</time>
      </trkpt>
      <trkpt lat="49.29676" lon="-0.31627">
        <ele>11</ele>
        <time>2020-12-20T08:10:08Z</time>
      </trkpt>
      <trkpt lat="49.29676" lon="-0.31628">
        <ele>11</ele>
        <time>2020-12-20T08:10:09Z</time>
      </trkpt>
      <trkpt lat="49.29679" lon="-0.31632">
        <ele>11</ele>
        <time>2020-12-20T08:10:10Z</time>
      </trkpt>
      <trkpt lat="49.29683" lon="-0.31634">
        <ele>11</ele>
        <time>2020-12-20T08:10:12Z</time>
      </trkpt>
      <trkpt lat="49.29686" lon="-0.31634">
        <ele>11</ele>
        <time>2020-12-20T08:10:13Z</time>
      </trkpt>
      <trkpt lat="49.29688" lon="-0.31635">
        <ele>11</ele>
        <time>2020-12-20T08:10:14Z</time>
      </trkpt>
      <trkpt lat="49.29694" lon="-0.31641">
        <ele>11</ele>
        <time>2020-12-20T08:10:16Z</time>
      </trkpt>
      <trkpt lat="49.29695" lon="-0.31639">
        <ele>11</ele>
        <time>2020-12-20T08:10:17Z</time>
      </trkpt>
      <trkpt lat="49.29698" lon="-0.31639">
        <ele>11</ele>
        <time>2020-12-20T08:10:19Z</time>
      </trkpt>
      <trkpt lat="49.297" lon="-0.31636">
        <ele>11.1</ele>
        <time>2020-12-20T08:10:21Z</time>
      </trkpt>
      <trkpt lat="49.29701" lon="-0.31634">
        <ele>11.1</ele>
        <time>2020-12-20T08:10:22Z</time>
      </trkpt>
      <trkpt lat="49.29704" lon="-0.31631">
        <ele>11.2</ele>
        <time>2020-12-20T08:10:24Z</time>
      </trkpt>
      <trkpt lat="49.29704" lon="-0.3163">
        <ele>11.2</ele>
        <time>2020-12-20T08:10:25Z</time>
      </trkpt>
      <trkpt lat="49.29706" lon="-0.31626">
        <ele>11.3</ele>
        <time>2020-12-20T08:10:27Z</time>
      </trkpt>
      <trkpt lat="49.29707" lon="-0.31624">
        <ele>11.4</ele>
        <time>2020-12-20T08:10:28Z</time>
      </trkpt>
      <trkpt lat="49.29707" lon="-0.31622">
        <ele>11.4</ele>
        <time>2020-12-20T08:10:29Z</time>
      </trkpt>
      <trkpt lat="49.29709" lon="-0.31618">
        <ele>11.4</ele>
        <time>2020-12-20T08:10:31Z</time>
      </trkpt>
      <trkpt lat="49.29711" lon="-0.31615">
        <ele>11.5</ele>
        <time>2020-12-20T08:10:32Z</time>
      </trkpt>
      <trkpt lat="49.29712" lon="-0.31612">
        <ele>11.5</ele>
        <time>2020-12-20T08:10:34Z</time>
      </trkpt>
      <trkpt lat="49.29714" lon="-0.31609">
        <ele>11.5</ele>
        <time>2020-12-20T08:10:35Z</time>
      </trkpt>
      <trkpt lat="49.29716" lon="-0.31606">
        <ele>11.5</ele>
        <time>2020-12-20T08:10:36Z</time>
      </trkpt>
      <trkpt lat="49.29717" lon="-0.31605">
        <ele>11.5</ele>
        <time>2020-12-20T08:10:37Z</time>
      </trkpt>
      <trkpt lat="49.29719" lon="-0.31604">
        <ele>11.5</ele>
        <time>2020-12-20T08:10:38Z</time>
      </trkpt>
      <trkpt lat="49.29721" lon="-0.31601">
        <ele>11.4</ele>
        <time>2020-12-20T08:10:40Z</time>
      </trkpt>
      <trkpt lat="49.29723" lon="-0.31598">
        <ele>11.4</ele>
        <time>2020-12-20T08:10:41Z</time>
      </trkpt>
      <trkpt lat="49.29724" lon="-0.31597">
        <ele>11.3</ele>
        <time>2020-12-20T08:10:42Z</time>
      </trkpt>
      <trkpt lat="49.29725" lon="-0.31593">
        <ele>11.3</ele>
        <time>2020-12-20T08:10:44Z</time>
      </trkpt>
      <trkpt lat="49.29727" lon="-0.31589">
        <ele>11.2</ele>
        <time>2020-12-20T08:10:46Z</time>
      </trkpt>
      <trkpt lat="49.29728" lon="-0.31585">
        <ele>11.1</ele>
        <time>2020-12-20T08:10:47Z</time>
      </trkpt>
      <trkpt lat="49.2973" lon="-0.31582">
        <ele>11</ele>
        <time>2020-12-20T08:10:48Z</time>
      </trkpt>
      <trkpt lat="49.29731" lon="-0.31579">
        <ele>11</ele>
        <time>2020-12-20T08:10:49Z</time>
      </trkpt>
      <trkpt lat="49.29733" lon="-0.31575">
        <ele>10.9</ele>
        <time>2020-12-20T08:10:51Z</time>
      </trkpt>
      <trkpt lat="49.29735" lon="-0.31571">
        <ele>10.9</ele>
        <time>2020-12-20T08:10:52Z</time>
      </trkpt>
      <trkpt lat="49.29736" lon="-0.31568">
        <ele>10.8</ele>
        <time>2020-12-20T08:10:53Z</time>
      </trkpt>
      <trkpt lat="49.29739" lon="-0.31564">
        <ele>10.8</ele>
        <time>2020-12-20T08:10:55Z</time>
      </trkpt>
      <trkpt lat="49.29741" lon="-0.31561">
        <ele>10.7</ele>
        <time>2020-12-20T08:10:56Z</time>
      </trkpt>
      <trkpt lat="49.29743" lon="-0.31557">
        <ele>10.6</ele>
        <time>2020-12-20T08:10:58Z</time>
      </trkpt>
      <trkpt lat="49.29744" lon="-0.31556">
        <ele>10.6</ele>
        <time>2020-12-20T08:10:59Z</time>
      </trkpt>
      <trkpt lat="49.29746" lon="-0.31553">
        <ele>10.6</ele>
        <time>2020-12-20T08:11:00Z</time>
      </trkpt>
      <trkpt lat="49.29748" lon="-0.3155">
        <ele>10.5</ele>
        <time>2020-12-20T08:11:02Z</time>
      </trkpt>
      <trkpt lat="49.29749" lon="-0.31548">
        <ele>10.5</ele>
        <time>2020-12-20T08:11:03Z</time>
      </trkpt>
      <trkpt lat="49.29751" lon="-0.31546">
        <ele>10.5</ele>
        <time>2020-12-20T08:11:05Z</time>
      </trkpt>
      <trkpt lat="49.29753" lon="-0.31543">
        <ele>10.4</ele>
        <time>2020-12-20T08:11:06Z</time>
      </trkpt>
      <trkpt lat="49.29755" lon="-0.3154">
        <ele>10.4</ele>
        <time>2020-12-20T08:11:08Z</time>
      </trkpt>
      <trkpt lat="49.29758" lon="-0.31534">
        <ele>10.3</ele>
        <time>2020-12-20T08:11:10Z</time>
      </trkpt>
      <trkpt lat="49.2976" lon="-0.31532">
        <ele>10.3</ele>
        <time>2020-12-20T08:11:11Z</time>
      </trkpt>
      <trkpt lat="49.29761" lon="-0.3153">
        <ele>10.2</ele>
        <time>2020-12-20T08:11:12Z</time>
      </trkpt>
      <trkpt lat="49.29762" lon="-0.31528">
        <ele>10.2</ele>
        <time>2020-12-20T08:11:13Z</time>
      </trkpt>
      <trkpt lat="49.29764" lon="-0.31526">
        <ele>10.1</ele>
        <time>2020-12-20T08:11:15Z</time>
      </trkpt>
      <trkpt lat="49.29766" lon="-0.31522">
        <ele>10.1</ele>
        <time>2020-12-20T08:11:16Z</time>
      </trkpt>
      <trkpt lat="49.29767" lon="-0.31521">
        <ele>10.1</ele>
        <time>2020-12-20T08:11:17Z</time>
      </trkpt>
      <trkpt lat="49.29769" lon="-0.31517">
        <ele>10</ele>
        <time>2020-12-20T08:11:19Z</time>
      </trkpt>
      <trkpt lat="49.2977" lon="-0.31515">
        <ele>10</ele>
        <time>2020-12-20T08:11:20Z</time>
      </trkpt>
      <trkpt lat="49.29771" lon="-0.31512">
        <ele>9.9</ele>
        <time>2020-12-20T08:11:22Z</time>
      </trkpt>
      <trkpt lat="49.29773" lon="-0.31509">
        <ele>9.9</ele>
        <time>2020-12-20T08:11:23Z</time>
      </trkpt>
      <trkpt lat="49.29774" lon="-0.31506">
        <ele>9.8</ele>
        <time>2020-12-20T08:11:25Z</time>
      </trkpt>
      <trkpt lat="49.29776" lon="-0.31502">
        <ele>9.8</ele>
        <time>2020-12-20T08:11:26Z</time>
      </trkpt>
      <trkpt lat="49.29776" lon="-0.31501">
        <ele>9.8</ele>
        <time>2020-12-20T08:11:27Z</time>
      </trkpt>
      <trkpt lat="49.29777" lon="-0.31499">
        <ele>9.8</ele>
        <time>2020-12-20T08:11:28Z</time>
      </trkpt>
      <trkpt lat="49.29779" lon="-0.31497">
        <ele>9.8</ele>
        <time>2020-12-20T08:11:29Z</time>
      </trkpt>
      <trkpt lat="49.29781" lon="-0.31492">
        <ele>9.7</ele>
        <time>2020-12-20T08:11:31Z</time>
      </trkpt>
      <trkpt lat="49.29782" lon="-0.3149">
        <ele>9.7</ele>
        <time>2020-12-20T08:11:32Z</time>
      </trkpt>
      <trkpt lat="49.29784" lon="-0.31485">
        <ele>9.7</ele>
        <time>2020-12-20T08:11:34Z</time>
      </trkpt>
      <trkpt lat="49.29785" lon="-0.31484">
        <ele>9.7</ele>
        <time>2020-12-20T08:11:35Z</time>
      </trkpt>
      <trkpt lat="49.29786" lon="-0.31482">
        <ele>9.6</ele>
        <time>2020-12-20T08:11:36Z</time>
      </trkpt>
      <trkpt lat="49.29788" lon="-0.31478">
        <ele>9.6</ele>
        <time>2020-12-20T08:11:38Z</time>
      </trkpt>
      <trkpt lat="49.29789" lon="-0.31477">
        <ele>9.5</ele>
        <time>2020-12-20T08:11:39Z</time>
      </trkpt>
      <trkpt lat="49.29791" lon="-0.31473">
        <ele>9.4</ele>
        <time>2020-12-20T08:11:41Z</time>
      </trkpt>
      <trkpt lat="49.29792" lon="-0.31471">
        <ele>9.4</ele>
        <time>2020-12-20T08:11:42Z</time>
      </trkpt>
      <trkpt lat="49.29794" lon="-0.31467">
        <ele>9.3</ele>
        <time>2020-12-20T08:11:44Z</time>
      </trkpt>
      <trkpt lat="49.29794" lon="-0.31465">
        <ele>9.3</ele>
        <time>2020-12-20T08:11:45Z</time>
      </trkpt>
      <trkpt lat="49.29796" lon="-0.31462">
        <ele>9.2</ele>
        <time>2020-12-20T08:11:46Z</time>
      </trkpt>
      <trkpt lat="49.29797" lon="-0.3146">
        <ele>9.2</ele>
        <time>2020-12-20T08:11:47Z</time>
      </trkpt>
      <trkpt lat="49.29799" lon="-0.31456">
        <ele>9.1</ele>
        <time>2020-12-20T08:11:49Z</time>
      </trkpt>
      <trkpt lat="49.29801" lon="-0.31449">
        <ele>9</ele>
        <time>2020-12-20T08:11:51Z</time>
      </trkpt>
      <trkpt lat="49.29802" lon="-0.31448">
        <ele>9</ele>
        <time>2020-12-20T08:11:52Z</time>
      </trkpt>
      <trkpt lat="49.29802" lon="-0.31446">
        <ele>8.9</ele>
        <time>2020-12-20T08:11:53Z</time>
      </trkpt>
      <trkpt lat="49.29804" lon="-0.31442">
        <ele>8.8</ele>
        <time>2020-12-20T08:11:54Z</time>
      </trkpt>
      <trkpt lat="49.29805" lon="-0.31441">
        <ele>8.8</ele>
        <time>2020-12-20T08:11:55Z</time>
      </trkpt>
      <trkpt lat="49.29807" lon="-0.31438">
        <ele>8.7</ele>
        <time>2020-12-20T08:11:57Z</time>
      </trkpt>
      <trkpt lat="49.29808" lon="-0.31437">
        <ele>8.7</ele>
        <time>2020-12-20T08:11:58Z</time>
      </trkpt>
      <trkpt lat="49.2981" lon="-0.31433">
        <ele>8.6</ele>
        <time>2020-12-20T08:11:59Z</time>
      </trkpt>
      <trkpt lat="49.29813" lon="-0.31429">
        <ele>8.6</ele>
        <time>2020-12-20T08:12:01Z</time>
      </trkpt>
      <trkpt lat="49.29815" lon="-0.31425">
        <ele>8.5</ele>
        <time>2020-12-20T08:12:03Z</time>
      </trkpt>
      <trkpt lat="49.29816" lon="-0.31424">
        <ele>8.5</ele>
        <time>2020-12-20T08:12:04Z</time>
      </trkpt>
      <trkpt lat="49.29817" lon="-0.31422">
        <ele>8.5</ele>
        <time>2020-12-20T08:12:05Z</time>
      </trkpt>
      <trkpt lat="49.29819" lon="-0.31419">
        <ele>8.5</ele>
        <time>2020-12-20T08:12:07Z</time>
      </trkpt>
      <trkpt lat="49.29821" lon="-0.31415">
        <ele>8.5</ele>
        <time>2020-12-20T08:12:08Z</time>
      </trkpt>
      <trkpt lat="49.29823" lon="-0.31412">
        <ele>8.5</ele>
        <time>2020-12-20T08:12:09Z</time>
      </trkpt>
      <trkpt lat="49.29824" lon="-0.31411">
        <ele>8.5</ele>
        <time>2020-12-20T08:12:10Z</time>
      </trkpt>
      <trkpt lat="49.29825" lon="-0.31409">
        <ele>8.5</ele>
        <time>2020-12-20T08:12:11Z</time>
      </trkpt>
      <trkpt lat="49.29827" lon="-0.31406">
        <ele>8.5</ele>
        <time>2020-12-20T08:12:13Z</time>
      </trkpt>
      <trkpt lat="49.29829" lon="-0.31402">
        <ele>8.6</ele>
        <time>2020-12-20T08:12:14Z</time>
      </trkpt>
      <trkpt lat="49.29829" lon="-0.314">
        <ele>8.6</ele>
        <time>2020-12-20T08:12:15Z</time>
      </trkpt>
      <trkpt lat="49.29831" lon="-0.31397">
        <ele>8.6</ele>
        <time>2020-12-20T08:12:16Z</time>
      </trkpt>
      <trkpt lat="49.29833" lon="-0.31394">
        <ele>8.7</ele>
        <time>2020-12-20T08:12:18Z</time>
      </trkpt>
      <trkpt lat="49.29835" lon="-0.3139">
        <ele>8.7</ele>
        <time>2020-12-20T08:12:19Z</time>
      </trkpt>
      <trkpt lat="49.29836" lon="-0.31389">
        <ele>8.7</ele>
        <time>2020-12-20T08:12:20Z</time>
      </trkpt>
      <trkpt lat="49.29837" lon="-0.31387">
        <ele>8.8</ele>
        <time>2020-12-20T08:12:21Z</time>
      </trkpt>
      <trkpt lat="49.29839" lon="-0.31384">
        <ele>8.8</ele>
        <time>2020-12-20T08:12:23Z</time>
      </trkpt>
      <trkpt lat="49.29841" lon="-0.31381">
        <ele>8.8</ele>
        <time>2020-12-20T08:12:24Z</time>
      </trkpt>
      <trkpt lat="49.29842" lon="-0.31378">
        <ele>8.8</ele>
        <time>2020-12-20T08:12:26Z</time>
      </trkpt>
      <trkpt lat="49.29844" lon="-0.31375">
        <ele>8.7</ele>
        <time>2020-12-20T08:12:27Z</time>
      </trkpt>
      <trkpt lat="49.29845" lon="-0.31374">
        <ele>8.7</ele>
        <time>2020-12-20T08:12:28Z</time>
      </trkpt>
      <trkpt lat="49.29848" lon="-0.3137">
        <ele>8.7</ele>
        <time>2020-12-20T08:12:30Z</time>
      </trkpt>
      <trkpt lat="49.29849" lon="-0.31368">
        <ele>8.6</ele>
        <time>2020-12-20T08:12:31Z</time>
      </trkpt>
      <trkpt lat="49.2985" lon="-0.31367">
        <ele>8.6</ele>
        <time>2020-12-20T08:12:32Z</time>
      </trkpt>
      <trkpt lat="49.29852" lon="-0.31364">
        <ele>8.6</ele>
        <time>2020-12-20T08:12:33Z</time>
      </trkpt>
      <trkpt lat="49.29854" lon="-0.31362">
        <ele>8.5</ele>
        <time>2020-12-20T08:12:35Z</time>
      </trkpt>
      <trkpt lat="49.29855" lon="-0.31358">
        <ele>8.4</ele>
        <time>2020-12-20T08:12:36Z</time>
      </trkpt>
      <trkpt lat="49.29858" lon="-0.31353">
        <ele>8.4</ele>
        <time>2020-12-20T08:12:38Z</time>
      </trkpt>
      <trkpt lat="49.29859" lon="-0.31352">
        <ele>8.4</ele>
        <time>2020-12-20T08:12:39Z</time>
      </trkpt>
      <trkpt lat="49.2986" lon="-0.31348">
        <ele>8.4</ele>
        <time>2020-12-20T08:12:40Z</time>
      </trkpt>
      <trkpt lat="49.29862" lon="-0.31345">
        <ele>8.4</ele>
        <time>2020-12-20T08:12:42Z</time>
      </trkpt>
      <trkpt lat="49.29864" lon="-0.31342">
        <ele>8.4</ele>
        <time>2020-12-20T08:12:43Z</time>
      </trkpt>
      <trkpt lat="49.29866" lon="-0.31338">
        <ele>8.4</ele>
        <time>2020-12-20T08:12:45Z</time>
      </trkpt>
      <trkpt lat="49.29868" lon="-0.31334">
        <ele>8.4</ele>
        <time>2020-12-20T08:12:46Z</time>
      </trkpt>
      <trkpt lat="49.29868" lon="-0.31333">
        <ele>8.3</ele>
        <time>2020-12-20T08:12:47Z</time>
      </trkpt>
      <trkpt lat="49.2987" lon="-0.3133">
        <ele>8.3</ele>
        <time>2020-12-20T08:12:48Z</time>
      </trkpt>
      <trkpt lat="49.29871" lon="-0.31327">
        <ele>8.3</ele>
        <time>2020-12-20T08:12:50Z</time>
      </trkpt>
      <trkpt lat="49.29873" lon="-0.31324">
        <ele>8.3</ele>
        <time>2020-12-20T08:12:51Z</time>
      </trkpt>
      <trkpt lat="49.29875" lon="-0.3132">
        <ele>8.2</ele>
        <time>2020-12-20T08:12:53Z</time>
      </trkpt>
      <trkpt lat="49.29877" lon="-0.31317">
        <ele>8.2</ele>
        <time>2020-12-20T08:12:54Z</time>
      </trkpt>
      <trkpt lat="49.29878" lon="-0.31314">
        <ele>8.2</ele>
        <time>2020-12-20T08:12:55Z</time>
      </trkpt>
      <trkpt lat="49.29879" lon="-0.31312">
        <ele>8.2</ele>
        <time>2020-12-20T08:12:57Z</time>
      </trkpt>
      <trkpt lat="49.29882" lon="-0.31308">
        <ele>8.1</ele>
        <time>2020-12-20T08:12:58Z</time>
      </trkpt>
      <trkpt lat="49.29883" lon="-0.31306">
        <ele>8.1</ele>
        <time>2020-12-20T08:12:59Z</time>
      </trkpt>
      <trkpt lat="49.29884" lon="-0.31304">
        <ele>8.1</ele>
        <time>2020-12-20T08:13:00Z</time>
      </trkpt>
      <trkpt lat="49.29885" lon="-0.31301">
        <ele>8</ele>
        <time>2020-12-20T08:13:02Z</time>
      </trkpt>
      <trkpt lat="49.29887" lon="-0.31297">
        <ele>8</ele>
        <time>2020-12-20T08:13:03Z</time>
      </trkpt>
      <trkpt lat="49.29888" lon="-0.31296">
        <ele>8</ele>
        <time>2020-12-20T08:13:04Z</time>
      </trkpt>
      <trkpt lat="49.29889" lon="-0.31291">
        <ele>7.9</ele>
        <time>2020-12-20T08:13:05Z</time>
      </trkpt>
      <trkpt lat="49.29889" lon="-0.3129">
        <ele>7.9</ele>
        <time>2020-12-20T08:13:06Z</time>
      </trkpt>
      <trkpt lat="49.2989" lon="-0.31285">
        <ele>7.9</ele>
        <time>2020-12-20T08:13:08Z</time>
      </trkpt>
      <trkpt lat="49.2989" lon="-0.31283">
        <ele>7.9</ele>
        <time>2020-12-20T08:13:09Z</time>
      </trkpt>
      <trkpt lat="49.29891" lon="-0.3128">
        <ele>7.9</ele>
        <time>2020-12-20T08:13:10Z</time>
      </trkpt>
      <trkpt lat="49.29891" lon="-0.31276">
        <ele>7.8</ele>
        <time>2020-12-20T08:13:12Z</time>
      </trkpt>
      <trkpt lat="49.29891" lon="-0.31268">
        <ele>7.8</ele>
        <time>2020-12-20T08:13:14Z</time>
      </trkpt>
      <trkpt lat="49.29891" lon="-0.31265">
        <ele>7.8</ele>
        <time>2020-12-20T08:13:15Z</time>
      </trkpt>
      <trkpt lat="49.29891" lon="-0.31263">
        <ele>7.8</ele>
        <time>2020-12-20T08:13:16Z</time>
      </trkpt>
      <trkpt lat="49.29891" lon="-0.31255">
        <ele>7.7</ele>
        <time>2020-12-20T08:13:18Z</time>
      </trkpt>
      <trkpt lat="49.2989" lon="-0.31253">
        <ele>7.7</ele>
        <time>2020-12-20T08:13:20Z</time>
      </trkpt>
      <trkpt lat="49.2989" lon="-0.3125">
        <ele>7.7</ele>
        <time>2020-12-20T08:13:21Z</time>
      </trkpt>
      <trkpt lat="49.29889" lon="-0.31247">
        <ele>7.7</ele>
        <time>2020-12-20T08:13:22Z</time>
      </trkpt>
      <trkpt lat="49.29889" lon="-0.31243">
        <ele>7.6</ele>
        <time>2020-12-20T08:13:24Z</time>
      </trkpt>
      <trkpt lat="49.29888" lon="-0.31238">
        <ele>7.6</ele>
        <time>2020-12-20T08:13:25Z</time>
      </trkpt>
      <trkpt lat="49.29888" lon="-0.31236">
        <ele>7.6</ele>
        <time>2020-12-20T08:13:26Z</time>
      </trkpt>
      <trkpt lat="49.29887" lon="-0.31232">
        <ele>7.5</ele>
        <time>2020-12-20T08:13:28Z</time>
      </trkpt>
      <trkpt lat="49.29887" lon="-0.31229">
        <ele>7.5</ele>
        <time>2020-12-20T08:13:29Z</time>
      </trkpt>
      <trkpt lat="49.29886" lon="-0.31226">
        <ele>7.5</ele>
        <time>2020-12-20T08:13:31Z</time>
      </trkpt>
      <trkpt lat="49.29885" lon="-0.31221">
        <ele>7.5</ele>
        <time>2020-12-20T08:13:32Z</time>
      </trkpt>
      <trkpt lat="49.29885" lon="-0.3122">
        <ele>7.4</ele>
        <time>2020-12-20T08:13:33Z</time>
      </trkpt>
      <trkpt lat="49.29884" lon="-0.31218">
        <ele>7.4</ele>
        <time>2020-12-20T08:13:34Z</time>
      </trkpt>
      <trkpt lat="49.29883" lon="-0.31212">
        <ele>7.4</ele>
        <time>2020-12-20T08:13:36Z</time>
      </trkpt>
      <trkpt lat="49.29883" lon="-0.31209">
        <ele>7.3</ele>
        <time>2020-12-20T08:13:37Z</time>
      </trkpt>
      <trkpt lat="49.29882" lon="-0.31205">
        <ele>7.3</ele>
        <time>2020-12-20T08:13:39Z</time>
      </trkpt>
      <trkpt lat="49.29881" lon="-0.31203">
        <ele>7.3</ele>
        <time>2020-12-20T08:13:40Z</time>
      </trkpt>
      <trkpt lat="49.29881" lon="-0.312">
        <ele>7.3</ele>
        <time>2020-12-20T08:13:41Z</time>
      </trkpt>
      <trkpt lat="49.29881" lon="-0.31193">
        <ele>7.2</ele>
        <time>2020-12-20T08:13:43Z</time>
      </trkpt>
      <trkpt lat="49.2988" lon="-0.31191">
        <ele>7.2</ele>
        <time>2020-12-20T08:13:45Z</time>
      </trkpt>
      <trkpt lat="49.2988" lon="-0.31188">
        <ele>7.2</ele>
        <time>2020-12-20T08:13:46Z</time>
      </trkpt>
      <trkpt lat="49.29879" lon="-0.31185">
        <ele>7.1</ele>
        <time>2020-12-20T08:13:47Z</time>
      </trkpt>
      <trkpt lat="49.29878" lon="-0.3118">
        <ele>7.1</ele>
        <time>2020-12-20T08:13:49Z</time>
      </trkpt>
      <trkpt lat="49.29878" lon="-0.31176">
        <ele>7</ele>
        <time>2020-12-20T08:13:50Z</time>
      </trkpt>
      <trkpt lat="49.29877" lon="-0.31172">
        <ele>7</ele>
        <time>2020-12-20T08:13:52Z</time>
      </trkpt>
      <trkpt lat="49.29877" lon="-0.31169">
        <ele>7</ele>
        <time>2020-12-20T08:13:53Z</time>
      </trkpt>
      <trkpt lat="49.29877" lon="-0.31166">
        <ele>6.9</ele>
        <time>2020-12-20T08:13:55Z</time>
      </trkpt>
      <trkpt lat="49.29877" lon="-0.31161">
        <ele>6.9</ele>
        <time>2020-12-20T08:13:56Z</time>
      </trkpt>
      <trkpt lat="49.29876" lon="-0.31158">
        <ele>6.9</ele>
        <time>2020-12-20T08:13:57Z</time>
      </trkpt>
      <trkpt lat="49.29876" lon="-0.31155">
        <ele>6.8</ele>
        <time>2020-12-20T08:13:59Z</time>
      </trkpt>
      <trkpt lat="49.29875" lon="-0.31151">
        <ele>6.8</ele>
        <time>2020-12-20T08:14:00Z</time>
      </trkpt>
      <trkpt lat="49.29875" lon="-0.31146">
        <ele>6.7</ele>
        <time>2020-12-20T08:14:02Z</time>
      </trkpt>
      <trkpt lat="49.29874" lon="-0.3114">
        <ele>6.7</ele>
        <time>2020-12-20T08:14:03Z</time>
      </trkpt>
      <trkpt lat="49.29874" lon="-0.31139">
        <ele>6.7</ele>
        <time>2020-12-20T08:14:04Z</time>
      </trkpt>
      <trkpt lat="49.29873" lon="-0.31133">
        <ele>6.6</ele>
        <time>2020-12-20T08:14:06Z</time>
      </trkpt>
      <trkpt lat="49.29873" lon="-0.31126">
        <ele>6.5</ele>
        <time>2020-12-20T08:14:08Z</time>
      </trkpt>
      <trkpt lat="49.29873" lon="-0.31124">
        <ele>6.5</ele>
        <time>2020-12-20T08:14:09Z</time>
      </trkpt>
      <trkpt lat="49.29873" lon="-0.31122">
        <ele>6.5</ele>
        <time>2020-12-20T08:14:10Z</time>
      </trkpt>
      <trkpt lat="49.29875" lon="-0.31116">
        <ele>6.5</ele>
        <time>2020-12-20T08:14:12Z</time>
      </trkpt>
      <trkpt lat="49.29876" lon="-0.31115">
        <ele>6.5</ele>
        <time>2020-12-20T08:14:14Z</time>
      </trkpt>
      <trkpt lat="49.29878" lon="-0.31113">
        <ele>6.5</ele>
        <time>2020-12-20T08:14:15Z</time>
      </trkpt>
      <trkpt lat="49.2988" lon="-0.3111">
        <ele>6.5</ele>
        <time>2020-12-20T08:14:16Z</time>
      </trkpt>
      <trkpt lat="49.29881" lon="-0.31108">
        <ele>6.5</ele>
        <time>2020-12-20T08:14:17Z</time>
      </trkpt>
      <trkpt lat="49.29882" lon="-0.31106">
        <ele>6.5</ele>
        <time>2020-12-20T08:14:18Z</time>
      </trkpt>
      <trkpt lat="49.29884" lon="-0.31104">
        <ele>6.5</ele>
        <time>2020-12-20T08:14:20Z</time>
      </trkpt>
      <trkpt lat="49.29887" lon="-0.311">
        <ele>6.6</ele>
        <time>2020-12-20T08:14:21Z</time>
      </trkpt>
      <trkpt lat="49.29888" lon="-0.31099">
        <ele>6.6</ele>
        <time>2020-12-20T08:14:22Z</time>
      </trkpt>
      <trkpt lat="49.29891" lon="-0.31094">
        <ele>6.6</ele>
        <time>2020-12-20T08:14:24Z</time>
      </trkpt>
      <trkpt lat="49.29892" lon="-0.31093">
        <ele>6.6</ele>
        <time>2020-12-20T08:14:25Z</time>
      </trkpt>
      <trkpt lat="49.29893" lon="-0.31092">
        <ele>6.6</ele>
        <time>2020-12-20T08:14:26Z</time>
      </trkpt>
      <trkpt lat="49.29896" lon="-0.31088">
        <ele>6.6</ele>
        <time>2020-12-20T08:14:28Z</time>
      </trkpt>
      <trkpt lat="49.29896" lon="-0.31087">
        <ele>6.6</ele>
        <time>2020-12-20T08:14:29Z</time>
      </trkpt>
      <trkpt lat="49.29899" lon="-0.31084">
        <ele>6.6</ele>
        <time>2020-12-20T08:14:31Z</time>
      </trkpt>
      <trkpt lat="49.299" lon="-0.31083">
        <ele>6.6</ele>
        <time>2020-12-20T08:14:32Z</time>
      </trkpt>
      <trkpt lat="49.29902" lon="-0.31082">
        <ele>6.6</ele>
        <time>2020-12-20T08:14:33Z</time>
      </trkpt>
      <trkpt lat="49.29904" lon="-0.3108">
        <ele>6.7</ele>
        <time>2020-12-20T08:14:35Z</time>
      </trkpt>
      <trkpt lat="49.29908" lon="-0.31075">
        <ele>6.7</ele>
        <time>2020-12-20T08:14:37Z</time>
      </trkpt>
      <trkpt lat="49.29909" lon="-0.31073">
        <ele>6.7</ele>
        <time>2020-12-20T08:14:38Z</time>
      </trkpt>
      <trkpt lat="49.2991" lon="-0.31072">
        <ele>6.7</ele>
        <time>2020-12-20T08:14:39Z</time>
      </trkpt>
      <trkpt lat="49.29912" lon="-0.31069">
        <ele>6.7</ele>
        <time>2020-12-20T08:14:40Z</time>
      </trkpt>
      <trkpt lat="49.29914" lon="-0.31065">
        <ele>6.7</ele>
        <time>2020-12-20T08:14:42Z</time>
      </trkpt>
      <trkpt lat="49.29917" lon="-0.31061">
        <ele>6.7</ele>
        <time>2020-12-20T08:14:44Z</time>
      </trkpt>
      <trkpt lat="49.2992" lon="-0.31058">
        <ele>6.7</ele>
        <time>2020-12-20T08:14:45Z</time>
      </trkpt>
      <trkpt lat="49.29922" lon="-0.31055">
        <ele>6.7</ele>
        <time>2020-12-20T08:14:47Z</time>
      </trkpt>
      <trkpt lat="49.29924" lon="-0.31052">
        <ele>6.7</ele>
        <time>2020-12-20T08:14:48Z</time>
      </trkpt>
      <trkpt lat="49.29926" lon="-0.31049">
        <ele>6.7</ele>
        <time>2020-12-20T08:14:50Z</time>
      </trkpt>
      <trkpt lat="49.29928" lon="-0.31046">
        <ele>6.8</ele>
        <time>2020-12-20T08:14:51Z</time>
      </trkpt>
      <trkpt lat="49.29929" lon="-0.31045">
        <ele>6.8</ele>
        <time>2020-12-20T08:14:52Z</time>
      </trkpt>
      <trkpt lat="49.29931" lon="-0.31043">
        <ele>6.8</ele>
        <time>2020-12-20T08:14:53Z</time>
      </trkpt>
      <trkpt lat="49.29933" lon="-0.31041">
        <ele>6.8</ele>
        <time>2020-12-20T08:14:55Z</time>
      </trkpt>
      <trkpt lat="49.29935" lon="-0.31038">
        <ele>6.8</ele>
        <time>2020-12-20T08:14:56Z</time>
      </trkpt>
      <trkpt lat="49.29937" lon="-0.31037">
        <ele>6.8</ele>
        <time>2020-12-20T08:14:57Z</time>
      </trkpt>
      <trkpt lat="49.29938" lon="-0.31035">
        <ele>6.7</ele>
        <time>2020-12-20T08:14:58Z</time>
      </trkpt>
      <trkpt lat="49.29941" lon="-0.31032">
        <ele>6.7</ele>
        <time>2020-12-20T08:15:00Z</time>
      </trkpt>
      <trkpt lat="49.29941" lon="-0.31031">
        <ele>6.7</ele>
        <time>2020-12-20T08:15:01Z</time>
      </trkpt>
      <trkpt lat="49.29944" lon="-0.31027">
        <ele>6.7</ele>
        <time>2020-12-20T08:15:02Z</time>
      </trkpt>
      <trkpt lat="49.29945" lon="-0.31027">
        <ele>6.7</ele>
        <time>2020-12-20T08:15:03Z</time>
      </trkpt>
      <trkpt lat="49.29946" lon="-0.31026">
        <ele>6.7</ele>
        <time>2020-12-20T08:15:04Z</time>
      </trkpt>
      <trkpt lat="49.29949" lon="-0.31025">
        <ele>6.7</ele>
        <time>2020-12-20T08:15:06Z</time>
      </trkpt>
      <trkpt lat="49.29952" lon="-0.31025">
        <ele>6.7</ele>
        <time>2020-12-20T08:15:07Z</time>
      </trkpt>
      <trkpt lat="49.29953" lon="-0.31026">
        <ele>6.7</ele>
        <time>2020-12-20T08:15:08Z</time>
      </trkpt>
      <trkpt lat="49.29953" lon="-0.31027">
        <ele>6.7</ele>
        <time>2020-12-20T08:15:10Z</time>
      </trkpt>
      <trkpt lat="49.29953" lon="-0.31028">
        <ele>6.7</ele>
        <time>2020-12-20T08:15:12Z</time>
      </trkpt>
      <trkpt lat="49.29953" lon="-0.31028">
        <ele>6.7</ele>
        <time>2020-12-20T08:15:13Z</time>
      </trkpt>
      <trkpt lat="49.29951" lon="-0.31028">
        <ele>6.7</ele>
        <time>2020-12-20T08:15:15Z</time>
      </trkpt>
      <trkpt lat="49.29952" lon="-0.31029">
        <ele>6.7</ele>
        <time>2020-12-20T08:15:16Z</time>
      </trkpt>
      <trkpt lat="49.29951" lon="-0.3103">
        <ele>6.7</ele>
        <time>2020-12-20T08:15:20Z</time>
      </trkpt>
      <trkpt lat="49.29951" lon="-0.3103">
        <ele>6.7</ele>
        <time>2020-12-20T08:15:21Z</time>
      </trkpt>
      <trkpt lat="49.29951" lon="-0.3103">
        <ele>6.7</ele>
        <time>2020-12-20T08:15:23Z</time>
      </trkpt>
      <trkpt lat="49.2995" lon="-0.31031">
        <ele>6.7</ele>
        <time>2020-12-20T08:15:24Z</time>
      </trkpt>
      <trkpt lat="49.2995" lon="-0.31031">
        <ele>6.7</ele>
        <time>2020-12-20T08:15:26Z</time>
      </trkpt>
      <trkpt lat="49.29948" lon="-0.31032">
        <ele>6.6</ele>
        <time>2020-12-20T08:15:28Z</time>
      </trkpt>
      <trkpt lat="49.29948" lon="-0.31032">
        <ele>6.6</ele>
        <time>2020-12-20T08:15:30Z</time>
      </trkpt>
      <trkpt lat="49.29948" lon="-0.31032">
        <ele>6.6</ele>
        <time>2020-12-20T08:15:32Z</time>
      </trkpt>
      <trkpt lat="49.29948" lon="-0.31032">
        <ele>6.6</ele>
        <time>2020-12-20T08:15:33Z</time>
      </trkpt>
      <trkpt lat="49.29948" lon="-0.31032">
        <ele>6.6</ele>
        <time>2020-12-20T08:15:34Z</time>
      </trkpt>
      <trkpt lat="49.29948" lon="-0.31032">
        <ele>6.6</ele>
        <time>2020-12-20T08:15:36Z</time>
      </trkpt>
      <trkpt lat="49.29948" lon="-0.31032">
        <ele>6.6</ele>
        <time>2020-12-20T08:15:37Z</time>
      </trkpt>
      <trkpt lat="49.29948" lon="-0.31032">
        <ele>6.6</ele>
        <time>2020-12-20T08:15:39Z</time>
      </trkpt>
      <trkpt lat="49.29948" lon="-0.31032">
        <ele>6.6</ele>
        <time>2020-12-20T08:15:40Z</time>
      </trkpt>
      <trkpt lat="49.29948" lon="-0.3103">
        <ele>6.6</ele>
        <time>2020-12-20T08:15:42Z</time>
      </trkpt>
      <trkpt lat="49.29949" lon="-0.3103">
        <ele>6.6</ele>
        <time>2020-12-20T08:15:43Z</time>
      </trkpt>
      <trkpt lat="49.29949" lon="-0.31029">
        <ele>6.6</ele>
        <time>2020-12-20T08:15:45Z</time>
      </trkpt>
      <trkpt lat="49.2995" lon="-0.31028">
        <ele>6.6</ele>
        <time>2020-12-20T08:15:46Z</time>
      </trkpt>
      <trkpt lat="49.29963" lon="-0.31">
        <ele>6.5</ele>
        <time>2020-12-20T08:15:48Z</time>
      </trkpt>
      <trkpt lat="49.29952" lon="-0.31022">
        <ele>6.4</ele>
        <time>2020-12-20T08:15:49Z</time>
      </trkpt>
      <trkpt lat="49.29952" lon="-0.31022">
        <ele>6.4</ele>
        <time>2020-12-20T08:15:51Z</time>
      </trkpt>
      <trkpt lat="49.29954" lon="-0.31019">
        <ele>6.4</ele>
        <time>2020-12-20T08:15:52Z</time>
      </trkpt>
      <trkpt lat="49.29957" lon="-0.31017">
        <ele>6.4</ele>
        <time>2020-12-20T08:15:53Z</time>
      </trkpt>
      <trkpt lat="49.29958" lon="-0.31016">
        <ele>6.4</ele>
        <time>2020-12-20T08:15:54Z</time>
      </trkpt>
      <trkpt lat="49.29961" lon="-0.31014">
        <ele>6.4</ele>
        <time>2020-12-20T08:15:56Z</time>
      </trkpt>
      <trkpt lat="49.29965" lon="-0.31013">
        <ele>6.4</ele>
        <time>2020-12-20T08:15:58Z</time>
      </trkpt>
      <trkpt lat="49.29966" lon="-0.31012">
        <ele>6.5</ele>
        <time>2020-12-20T08:15:59Z</time>
      </trkpt>
      <trkpt lat="49.29969" lon="-0.31011">
        <ele>6.5</ele>
        <time>2020-12-20T08:16:00Z</time>
      </trkpt>
      <trkpt lat="49.29973" lon="-0.31009">
        <ele>6.5</ele>
        <time>2020-12-20T08:16:01Z</time>
      </trkpt>
      <trkpt lat="49.29977" lon="-0.31005">
        <ele>6.5</ele>
        <time>2020-12-20T08:16:03Z</time>
      </trkpt>
      <trkpt lat="49.29981" lon="-0.31003">
        <ele>6.5</ele>
        <time>2020-12-20T08:16:04Z</time>
      </trkpt>
      <trkpt lat="49.29985" lon="-0.30999">
        <ele>6.5</ele>
        <time>2020-12-20T08:16:06Z</time>
      </trkpt>
      <trkpt lat="49.29987" lon="-0.30997">
        <ele>6.5</ele>
        <time>2020-12-20T08:16:07Z</time>
      </trkpt>
      <trkpt lat="49.29991" lon="-0.30994">
        <ele>6.5</ele>
        <time>2020-12-20T08:16:09Z</time>
      </trkpt>
      <trkpt lat="49.29992" lon="-0.30993">
        <ele>6.5</ele>
        <time>2020-12-20T08:16:10Z</time>
      </trkpt>
      <trkpt lat="49.29994" lon="-0.30991">
        <ele>6.6</ele>
        <time>2020-12-20T08:16:11Z</time>
      </trkpt>
      <trkpt lat="49.29996" lon="-0.30988">
        <ele>6.6</ele>
        <time>2020-12-20T08:16:12Z</time>
      </trkpt>
      <trkpt lat="49.29997" lon="-0.30987">
        <ele>6.6</ele>
        <time>2020-12-20T08:16:13Z</time>
      </trkpt>
      <trkpt lat="49.3" lon="-0.30984">
        <ele>6.6</ele>
        <time>2020-12-20T08:16:15Z</time>
      </trkpt>
      <trkpt lat="49.3" lon="-0.30983">
        <ele>6.6</ele>
        <time>2020-12-20T08:16:16Z</time>
      </trkpt>
      <trkpt lat="49.30002" lon="-0.30977">
        <ele>6.7</ele>
        <time>2020-12-20T08:16:17Z</time>
      </trkpt>
      <trkpt lat="49.30003" lon="-0.30974">
        <ele>6.7</ele>
        <time>2020-12-20T08:16:18Z</time>
      </trkpt>
      <trkpt lat="49.30003" lon="-0.3097">
        <ele>6.7</ele>
        <time>2020-12-20T08:16:19Z</time>
      </trkpt>
      <trkpt lat="49.30004" lon="-0.30967">
        <ele>6.7</ele>
        <time>2020-12-20T08:16:20Z</time>
      </trkpt>
      <trkpt lat="49.30004" lon="-0.30965">
        <ele>6.7</ele>
        <time>2020-12-20T08:16:21Z</time>
      </trkpt>
      <trkpt lat="49.30006" lon="-0.3096">
        <ele>6.9</ele>
        <time>2020-12-20T08:16:23Z</time>
      </trkpt>
      <trkpt lat="49.30006" lon="-0.30959">
        <ele>7</ele>
        <time>2020-12-20T08:16:24Z</time>
      </trkpt>
      <trkpt lat="49.30009" lon="-0.30956">
        <ele>6.9</ele>
        <time>2020-12-20T08:16:25Z</time>
      </trkpt>
      <trkpt lat="49.30009" lon="-0.30955">
        <ele>6.8</ele>
        <time>2020-12-20T08:16:26Z</time>
      </trkpt>
      <trkpt lat="49.30012" lon="-0.3095">
        <ele>6.7</ele>
        <time>2020-12-20T08:16:28Z</time>
      </trkpt>
      <trkpt lat="49.30014" lon="-0.30947">
        <ele>6.6</ele>
        <time>2020-12-20T08:16:30Z</time>
      </trkpt>
      <trkpt lat="49.30016" lon="-0.30945">
        <ele>6.5</ele>
        <time>2020-12-20T08:16:31Z</time>
      </trkpt>
      <trkpt lat="49.30017" lon="-0.30944">
        <ele>6.4</ele>
        <time>2020-12-20T08:16:32Z</time>
      </trkpt>
      <trkpt lat="49.30019" lon="-0.30941">
        <ele>6.3</ele>
        <time>2020-12-20T08:16:34Z</time>
      </trkpt>
      <trkpt lat="49.30022" lon="-0.30937">
        <ele>6.2</ele>
        <time>2020-12-20T08:16:35Z</time>
      </trkpt>
      <trkpt lat="49.30026" lon="-0.30933">
        <ele>6</ele>
        <time>2020-12-20T08:16:37Z</time>
      </trkpt>
      <trkpt lat="49.30028" lon="-0.30931">
        <ele>5.9</ele>
        <time>2020-12-20T08:16:39Z</time>
      </trkpt>
      <trkpt lat="49.30029" lon="-0.30929">
        <ele>5.8</ele>
        <time>2020-12-20T08:16:40Z</time>
      </trkpt>
      <trkpt lat="49.30031" lon="-0.30928">
        <ele>5.7</ele>
        <time>2020-12-20T08:16:41Z</time>
      </trkpt>
      <trkpt lat="49.30033" lon="-0.30925">
        <ele>5.6</ele>
        <time>2020-12-20T08:16:42Z</time>
      </trkpt>
      <trkpt lat="49.30034" lon="-0.30924">
        <ele>5.6</ele>
        <time>2020-12-20T08:16:43Z</time>
      </trkpt>
      <trkpt lat="49.30037" lon="-0.30921">
        <ele>5.4</ele>
        <time>2020-12-20T08:16:45Z</time>
      </trkpt>
      <trkpt lat="49.30038" lon="-0.3092">
        <ele>5.4</ele>
        <time>2020-12-20T08:16:46Z</time>
      </trkpt>
      <trkpt lat="49.30042" lon="-0.30918">
        <ele>5.2</ele>
        <time>2020-12-20T08:16:47Z</time>
      </trkpt>
      <trkpt lat="49.30043" lon="-0.30917">
        <ele>5.2</ele>
        <time>2020-12-20T08:16:48Z</time>
      </trkpt>
      <trkpt lat="49.30045" lon="-0.30915">
        <ele>5.1</ele>
        <time>2020-12-20T08:16:49Z</time>
      </trkpt>
      <trkpt lat="49.30048" lon="-0.30913">
        <ele>4.9</ele>
        <time>2020-12-20T08:16:51Z</time>
      </trkpt>
      <trkpt lat="49.3005" lon="-0.30911">
        <ele>4.8</ele>
        <time>2020-12-20T08:16:52Z</time>
      </trkpt>
      <trkpt lat="49.30052" lon="-0.30907">
        <ele>4.5</ele>
        <time>2020-12-20T08:16:53Z</time>
      </trkpt>
      <trkpt lat="49.30053" lon="-0.30906">
        <ele>4.5</ele>
        <time>2020-12-20T08:16:54Z</time>
      </trkpt>
      <trkpt lat="49.30054" lon="-0.30903">
        <ele>4.4</ele>
        <time>2020-12-20T08:16:55Z</time>
      </trkpt>
      <trkpt lat="49.30056" lon="-0.30901">
        <ele>4.3</ele>
        <time>2020-12-20T08:16:58Z</time>
      </trkpt>
      <trkpt lat="49.30058" lon="-0.30899">
        <ele>4.2</ele>
        <time>2020-12-20T08:16:59Z</time>
      </trkpt>
      <trkpt lat="49.30059" lon="-0.30897">
        <ele>4.2</ele>
        <time>2020-12-20T08:17:01Z</time>
      </trkpt>
      <trkpt lat="49.3006" lon="-0.30896">
        <ele>4.1</ele>
        <time>2020-12-20T08:17:02Z</time>
      </trkpt>
      <trkpt lat="49.30063" lon="-0.30901">
        <ele>4</ele>
        <time>2020-12-20T08:17:04Z</time>
      </trkpt>
      <trkpt lat="49.30064" lon="-0.309">
        <ele>4</ele>
        <time>2020-12-20T08:17:05Z</time>
      </trkpt>
      <trkpt lat="49.30066" lon="-0.30898">
        <ele>3.9</ele>
        <time>2020-12-20T08:17:07Z</time>
      </trkpt>
      <trkpt lat="49.30067" lon="-0.30896">
        <ele>3.8</ele>
        <time>2020-12-20T08:17:08Z</time>
      </trkpt>
      <trkpt lat="49.30068" lon="-0.30895">
        <ele>3.8</ele>
        <time>2020-12-20T08:17:09Z</time>
      </trkpt>
      <trkpt lat="49.3007" lon="-0.30894">
        <ele>3.7</ele>
        <time>2020-12-20T08:17:11Z</time>
      </trkpt>
      <trkpt lat="49.30071" lon="-0.30893">
        <ele>3.6</ele>
        <time>2020-12-20T08:17:12Z</time>
      </trkpt>
      <trkpt lat="49.30072" lon="-0.30892">
        <ele>3.6</ele>
        <time>2020-12-20T08:17:13Z</time>
      </trkpt>
      <trkpt lat="49.30074" lon="-0.30889">
        <ele>3.5</ele>
        <time>2020-12-20T08:17:15Z</time>
      </trkpt>
      <trkpt lat="49.30075" lon="-0.30888">
        <ele>3.5</ele>
        <time>2020-12-20T08:17:16Z</time>
      </trkpt>
      <trkpt lat="49.30077" lon="-0.30886">
        <ele>3.5</ele>
        <time>2020-12-20T08:17:18Z</time>
      </trkpt>
      <trkpt lat="49.30077" lon="-0.30886">
        <ele>3.5</ele>
        <time>2020-12-20T08:17:20Z</time>
      </trkpt>
      <trkpt lat="49.30077" lon="-0.30886">
        <ele>3.5</ele>
        <time>2020-12-20T08:17:22Z</time>
      </trkpt>
      <trkpt lat="49.30076" lon="-0.30886">
        <ele>3.5</ele>
        <time>2020-12-20T08:17:23Z</time>
      </trkpt>
      <trkpt lat="49.30076" lon="-0.30886">
        <ele>3.5</ele>
        <time>2020-12-20T08:17:25Z</time>
      </trkpt>
      <trkpt lat="49.30075" lon="-0.30887">
        <ele>3.5</ele>
        <time>2020-12-20T08:17:27Z</time>
      </trkpt>
      <trkpt lat="49.30075" lon="-0.30887">
        <ele>3.5</ele>
        <time>2020-12-20T08:17:28Z</time>
      </trkpt>
      <trkpt lat="49.30075" lon="-0.30887">
        <ele>3.5</ele>
        <time>2020-12-20T08:17:29Z</time>
      </trkpt>
      <trkpt lat="49.30074" lon="-0.30887">
        <ele>3.5</ele>
        <time>2020-12-20T08:17:32Z</time>
      </trkpt>
      <trkpt lat="49.30074" lon="-0.30887">
        <ele>3.5</ele>
        <time>2020-12-20T08:17:33Z</time>
      </trkpt>
      <trkpt lat="49.30073" lon="-0.30888">
        <ele>3.5</ele>
        <time>2020-12-20T08:17:34Z</time>
      </trkpt>
      <trkpt lat="49.30073" lon="-0.30888">
        <ele>3.5</ele>
        <time>2020-12-20T08:17:36Z</time>
      </trkpt>
      <trkpt lat="49.30073" lon="-0.30888">
        <ele>3.5</ele>
        <time>2020-12-20T08:17:37Z</time>
      </trkpt>
      <trkpt lat="49.30072" lon="-0.30888">
        <ele>3.5</ele>
        <time>2020-12-20T08:17:38Z</time>
      </trkpt>
      <trkpt lat="49.30069" lon="-0.3089">
        <ele>3.4</ele>
        <time>2020-12-20T08:17:39Z</time>
      </trkpt>
      <trkpt lat="49.30068" lon="-0.3089">
        <ele>3.4</ele>
        <time>2020-12-20T08:17:40Z</time>
      </trkpt>
      <trkpt lat="49.30065" lon="-0.30892">
        <ele>3.4</ele>
        <time>2020-12-20T08:17:41Z</time>
      </trkpt>
      <trkpt lat="49.30064" lon="-0.30892">
        <ele>3.4</ele>
        <time>2020-12-20T08:17:43Z</time>
      </trkpt>
      <trkpt lat="49.30063" lon="-0.30892">
        <ele>3.4</ele>
        <time>2020-12-20T08:17:44Z</time>
      </trkpt>
      <trkpt lat="49.30061" lon="-0.30892">
        <ele>3.4</ele>
        <time>2020-12-20T08:17:45Z</time>
      </trkpt>
      <trkpt lat="49.30059" lon="-0.30888">
        <ele>3.4</ele>
        <time>2020-12-20T08:17:46Z</time>
      </trkpt>
      <trkpt lat="49.30057" lon="-0.30883">
        <ele>3.4</ele>
        <time>2020-12-20T08:17:48Z</time>
      </trkpt>
      <trkpt lat="49.30057" lon="-0.30882">
        <ele>3.4</ele>
        <time>2020-12-20T08:17:49Z</time>
      </trkpt>
      <trkpt lat="49.30055" lon="-0.30878">
        <ele>3.4</ele>
        <time>2020-12-20T08:17:50Z</time>
      </trkpt>
      <trkpt lat="49.30053" lon="-0.30875">
        <ele>3.3</ele>
        <time>2020-12-20T08:17:51Z</time>
      </trkpt>
      <trkpt lat="49.30052" lon="-0.30873">
        <ele>3.3</ele>
        <time>2020-12-20T08:17:52Z</time>
      </trkpt>
      <trkpt lat="49.3005" lon="-0.30871">
        <ele>3.3</ele>
        <time>2020-12-20T08:17:54Z</time>
      </trkpt>
      <trkpt lat="49.30048" lon="-0.30867">
        <ele>3.3</ele>
        <time>2020-12-20T08:17:55Z</time>
      </trkpt>
      <trkpt lat="49.30047" lon="-0.30865">
        <ele>3.3</ele>
        <time>2020-12-20T08:17:56Z</time>
      </trkpt>
      <trkpt lat="49.30045" lon="-0.30861">
        <ele>3.3</ele>
        <time>2020-12-20T08:17:57Z</time>
      </trkpt>
      <trkpt lat="49.30044" lon="-0.30859">
        <ele>3.3</ele>
        <time>2020-12-20T08:17:58Z</time>
      </trkpt>
      <trkpt lat="49.30042" lon="-0.30856">
        <ele>3.3</ele>
        <time>2020-12-20T08:18:00Z</time>
      </trkpt>
      <trkpt lat="49.3004" lon="-0.30853">
        <ele>3.3</ele>
        <time>2020-12-20T08:18:01Z</time>
      </trkpt>
      <trkpt lat="49.30037" lon="-0.30849">
        <ele>3.2</ele>
        <time>2020-12-20T08:18:02Z</time>
      </trkpt>
      <trkpt lat="49.30034" lon="-0.30843">
        <ele>3.2</ele>
        <time>2020-12-20T08:18:04Z</time>
      </trkpt>
      <trkpt lat="49.30032" lon="-0.3084">
        <ele>3.2</ele>
        <time>2020-12-20T08:18:05Z</time>
      </trkpt>
      <trkpt lat="49.3003" lon="-0.30836">
        <ele>3.2</ele>
        <time>2020-12-20T08:18:06Z</time>
      </trkpt>
      <trkpt lat="49.3003" lon="-0.30835">
        <ele>3.2</ele>
        <time>2020-12-20T08:18:07Z</time>
      </trkpt>
      <trkpt lat="49.30028" lon="-0.30831">
        <ele>3.2</ele>
        <time>2020-12-20T08:18:09Z</time>
      </trkpt>
      <trkpt lat="49.30027" lon="-0.30829">
        <ele>3.2</ele>
        <time>2020-12-20T08:18:10Z</time>
      </trkpt>
      <trkpt lat="49.30026" lon="-0.30825">
        <ele>3.2</ele>
        <time>2020-12-20T08:18:11Z</time>
      </trkpt>
      <trkpt lat="49.30026" lon="-0.30824">
        <ele>3.2</ele>
        <time>2020-12-20T08:18:12Z</time>
      </trkpt>
      <trkpt lat="49.30025" lon="-0.30822">
        <ele>3.2</ele>
        <time>2020-12-20T08:18:13Z</time>
      </trkpt>
      <trkpt lat="49.30024" lon="-0.3082">
        <ele>3.1</ele>
        <time>2020-12-20T08:18:15Z</time>
      </trkpt>
      <trkpt lat="49.30024" lon="-0.30817">
        <ele>3.1</ele>
        <time>2020-12-20T08:18:16Z</time>
      </trkpt>
      <trkpt lat="49.30023" lon="-0.30815">
        <ele>3.1</ele>
        <time>2020-12-20T08:18:17Z</time>
      </trkpt>
      <trkpt lat="49.30022" lon="-0.30813">
        <ele>3.1</ele>
        <time>2020-12-20T08:18:18Z</time>
      </trkpt>
      <trkpt lat="49.30021" lon="-0.30811">
        <ele>3.1</ele>
        <time>2020-12-20T08:18:19Z</time>
      </trkpt>
      <trkpt lat="49.30021" lon="-0.30809">
        <ele>3.1</ele>
        <time>2020-12-20T08:18:21Z</time>
      </trkpt>
      <trkpt lat="49.3002" lon="-0.30807">
        <ele>3.1</ele>
        <time>2020-12-20T08:18:22Z</time>
      </trkpt>
      <trkpt lat="49.30019" lon="-0.30801">
        <ele>3.1</ele>
        <time>2020-12-20T08:18:23Z</time>
      </trkpt>
      <trkpt lat="49.30018" lon="-0.30799">
        <ele>3.1</ele>
        <time>2020-12-20T08:18:24Z</time>
      </trkpt>
      <trkpt lat="49.30016" lon="-0.30795">
        <ele>3.1</ele>
        <time>2020-12-20T08:18:26Z</time>
      </trkpt>
      <trkpt lat="49.30014" lon="-0.3079">
        <ele>3.1</ele>
        <time>2020-12-20T08:18:28Z</time>
      </trkpt>
      <trkpt lat="49.30013" lon="-0.30788">
        <ele>3.1</ele>
        <time>2020-12-20T08:18:29Z</time>
      </trkpt>
      <trkpt lat="49.30012" lon="-0.30784">
        <ele>3.1</ele>
        <time>2020-12-20T08:18:30Z</time>
      </trkpt>
      <trkpt lat="49.30011" lon="-0.30782">
        <ele>3.1</ele>
        <time>2020-12-20T08:18:31Z</time>
      </trkpt>
      <trkpt lat="49.3001" lon="-0.30778">
        <ele>3.1</ele>
        <time>2020-12-20T08:18:33Z</time>
      </trkpt>
      <trkpt lat="49.30008" lon="-0.30773">
        <ele>3.1</ele>
        <time>2020-12-20T08:18:35Z</time>
      </trkpt>
      <trkpt lat="49.30007" lon="-0.30771">
        <ele>3.1</ele>
        <time>2020-12-20T08:18:36Z</time>
      </trkpt>
      <trkpt lat="49.30006" lon="-0.30766">
        <ele>3.1</ele>
        <time>2020-12-20T08:18:37Z</time>
      </trkpt>
      <trkpt lat="49.30005" lon="-0.30765">
        <ele>3.1</ele>
        <time>2020-12-20T08:18:38Z</time>
      </trkpt>
      <trkpt lat="49.30004" lon="-0.3076">
        <ele>3.1</ele>
        <time>2020-12-20T08:18:40Z</time>
      </trkpt>
      <trkpt lat="49.30003" lon="-0.30759">
        <ele>3.1</ele>
        <time>2020-12-20T08:18:41Z</time>
      </trkpt>
      <trkpt lat="49.30002" lon="-0.30755">
        <ele>3.1</ele>
        <time>2020-12-20T08:18:42Z</time>
      </trkpt>
      <trkpt lat="49.3" lon="-0.30751">
        <ele>3.1</ele>
        <time>2020-12-20T08:18:44Z</time>
      </trkpt>
      <trkpt lat="49.29998" lon="-0.30747">
        <ele>3.1</ele>
        <time>2020-12-20T08:18:46Z</time>
      </trkpt>
      <trkpt lat="49.29998" lon="-0.30745">
        <ele>3.1</ele>
        <time>2020-12-20T08:18:47Z</time>
      </trkpt>
      <trkpt lat="49.29997" lon="-0.30743">
        <ele>3.1</ele>
        <time>2020-12-20T08:18:48Z</time>
      </trkpt>
      <trkpt lat="49.29996" lon="-0.30741">
        <ele>3.1</ele>
        <time>2020-12-20T08:18:49Z</time>
      </trkpt>
      <trkpt lat="49.29995" lon="-0.30737">
        <ele>3.1</ele>
        <time>2020-12-20T08:18:50Z</time>
      </trkpt>
      <trkpt lat="49.29995" lon="-0.30736">
        <ele>3.1</ele>
        <time>2020-12-20T08:18:51Z</time>
      </trkpt>
      <trkpt lat="49.29993" lon="-0.30731">
        <ele>3.1</ele>
        <time>2020-12-20T08:18:53Z</time>
      </trkpt>
      <trkpt lat="49.29992" lon="-0.3073">
        <ele>3.1</ele>
        <time>2020-12-20T08:18:54Z</time>
      </trkpt>
      <trkpt lat="49.29991" lon="-0.30728">
        <ele>3.1</ele>
        <time>2020-12-20T08:18:55Z</time>
      </trkpt>
      <trkpt lat="49.2999" lon="-0.30724">
        <ele>3.1</ele>
        <time>2020-12-20T08:18:57Z</time>
      </trkpt>
      <trkpt lat="49.29988" lon="-0.30719">
        <ele>3.1</ele>
        <time>2020-12-20T08:18:58Z</time>
      </trkpt>
      <trkpt lat="49.29988" lon="-0.30718">
        <ele>3.1</ele>
        <time>2020-12-20T08:18:59Z</time>
      </trkpt>
      <trkpt lat="49.29985" lon="-0.30712">
        <ele>3.1</ele>
        <time>2020-12-20T08:19:01Z</time>
      </trkpt>
      <trkpt lat="49.29983" lon="-0.30709">
        <ele>3.1</ele>
        <time>2020-12-20T08:19:02Z</time>
      </trkpt>
      <trkpt lat="49.29981" lon="-0.30705">
        <ele>3.1</ele>
        <time>2020-12-20T08:19:04Z</time>
      </trkpt>
      <trkpt lat="49.29981" lon="-0.30702">
        <ele>3.1</ele>
        <time>2020-12-20T08:19:05Z</time>
      </trkpt>
      <trkpt lat="49.2998" lon="-0.307">
        <ele>3.1</ele>
        <time>2020-12-20T08:19:06Z</time>
      </trkpt>
      <trkpt lat="49.29978" lon="-0.30691">
        <ele>3.1</ele>
        <time>2020-12-20T08:19:08Z</time>
      </trkpt>
      <trkpt lat="49.29977" lon="-0.30687">
        <ele>3.1</ele>
        <time>2020-12-20T08:19:09Z</time>
      </trkpt>
      <trkpt lat="49.29976" lon="-0.30682">
        <ele>3.2</ele>
        <time>2020-12-20T08:19:10Z</time>
      </trkpt>
      <trkpt lat="49.29976" lon="-0.30681">
        <ele>3.2</ele>
        <time>2020-12-20T08:19:11Z</time>
      </trkpt>
      <trkpt lat="49.29974" lon="-0.30674">
        <ele>3.2</ele>
        <time>2020-12-20T08:19:13Z</time>
      </trkpt>
      <trkpt lat="49.29972" lon="-0.30668">
        <ele>3.2</ele>
        <time>2020-12-20T08:19:15Z</time>
      </trkpt>
      <trkpt lat="49.29971" lon="-0.30665">
        <ele>3.2</ele>
        <time>2020-12-20T08:19:16Z</time>
      </trkpt>
      <trkpt lat="49.2997" lon="-0.3066">
        <ele>3.2</ele>
        <time>2020-12-20T08:19:18Z</time>
      </trkpt>
      <trkpt lat="49.29969" lon="-0.30658">
        <ele>3.2</ele>
        <time>2020-12-20T08:19:19Z</time>
      </trkpt>
      <trkpt lat="49.29967" lon="-0.30655">
        <ele>3.2</ele>
        <time>2020-12-20T08:19:21Z</time>
      </trkpt>
      <trkpt lat="49.29964" lon="-0.30653">
        <ele>3.2</ele>
        <time>2020-12-20T08:19:22Z</time>
      </trkpt>
      <trkpt lat="49.2996" lon="-0.30649">
        <ele>3.2</ele>
        <time>2020-12-20T08:19:24Z</time>
      </trkpt>
      <trkpt lat="49.29959" lon="-0.30648">
        <ele>3.2</ele>
        <time>2020-12-20T08:19:26Z</time>
      </trkpt>
      <trkpt lat="49.29957" lon="-0.30647">
        <ele>3.2</ele>
        <time>2020-12-20T08:19:27Z</time>
      </trkpt>
      <trkpt lat="49.29955" lon="-0.30643">
        <ele>3.2</ele>
        <time>2020-12-20T08:19:29Z</time>
      </trkpt>
      <trkpt lat="49.29955" lon="-0.30642">
        <ele>3.2</ele>
        <time>2020-12-20T08:19:30Z</time>
      </trkpt>
      <trkpt lat="49.29955" lon="-0.3064">
        <ele>3.2</ele>
        <time>2020-12-20T08:19:31Z</time>
      </trkpt>
      <trkpt lat="49.29955" lon="-0.30634">
        <ele>3.2</ele>
        <time>2020-12-20T08:19:33Z</time>
      </trkpt>
      <trkpt lat="49.29954" lon="-0.30632">
        <ele>3.2</ele>
        <time>2020-12-20T08:19:34Z</time>
      </trkpt>
      <trkpt lat="49.29953" lon="-0.3063">
        <ele>3.1</ele>
        <time>2020-12-20T08:19:35Z</time>
      </trkpt>
      <trkpt lat="49.29952" lon="-0.30624">
        <ele>3.1</ele>
        <time>2020-12-20T08:19:37Z</time>
      </trkpt>
      <trkpt lat="49.2995" lon="-0.30618">
        <ele>3.1</ele>
        <time>2020-12-20T08:19:39Z</time>
      </trkpt>
      <trkpt lat="49.29949" lon="-0.30615">
        <ele>3.1</ele>
        <time>2020-12-20T08:19:40Z</time>
      </trkpt>
      <trkpt lat="49.29948" lon="-0.30609">
        <ele>3.1</ele>
        <time>2020-12-20T08:19:43Z</time>
      </trkpt>
      <trkpt lat="49.29946" lon="-0.30604">
        <ele>3.1</ele>
        <time>2020-12-20T08:19:44Z</time>
      </trkpt>
      <trkpt lat="49.29944" lon="-0.30599">
        <ele>3.1</ele>
        <time>2020-12-20T08:19:46Z</time>
      </trkpt>
      <trkpt lat="49.29942" lon="-0.30594">
        <ele>3.1</ele>
        <time>2020-12-20T08:19:48Z</time>
      </trkpt>
      <trkpt lat="49.29941" lon="-0.30591">
        <ele>3.1</ele>
        <time>2020-12-20T08:19:50Z</time>
      </trkpt>
      <trkpt lat="49.2994" lon="-0.3059">
        <ele>3.1</ele>
        <time>2020-12-20T08:19:51Z</time>
      </trkpt>
      <trkpt lat="49.2994" lon="-0.30588">
        <ele>3.1</ele>
        <time>2020-12-20T08:19:52Z</time>
      </trkpt>
      <trkpt lat="49.29939" lon="-0.30586">
        <ele>3.1</ele>
        <time>2020-12-20T08:19:54Z</time>
      </trkpt>
      <trkpt lat="49.29939" lon="-0.30584">
        <ele>3.1</ele>
        <time>2020-12-20T08:19:55Z</time>
      </trkpt>
      <trkpt lat="49.29938" lon="-0.30581">
        <ele>3.1</ele>
        <time>2020-12-20T08:19:57Z</time>
      </trkpt>
      <trkpt lat="49.29938" lon="-0.30579">
        <ele>3.1</ele>
        <time>2020-12-20T08:19:59Z</time>
      </trkpt>
      <trkpt lat="49.29937" lon="-0.30577">
        <ele>3.1</ele>
        <time>2020-12-20T08:20:00Z</time>
      </trkpt>
      <trkpt lat="49.29936" lon="-0.30574">
        <ele>3.1</ele>
        <time>2020-12-20T08:20:01Z</time>
      </trkpt>
      <trkpt lat="49.29934" lon="-0.30571">
        <ele>3.1</ele>
        <time>2020-12-20T08:20:03Z</time>
      </trkpt>
      <trkpt lat="49.29933" lon="-0.30568">
        <ele>3</ele>
        <time>2020-12-20T08:20:04Z</time>
      </trkpt>
      <trkpt lat="49.29932" lon="-0.30565">
        <ele>3</ele>
        <time>2020-12-20T08:20:06Z</time>
      </trkpt>
      <trkpt lat="49.29931" lon="-0.30561">
        <ele>3</ele>
        <time>2020-12-20T08:20:07Z</time>
      </trkpt>
      <trkpt lat="49.29929" lon="-0.30557">
        <ele>3</ele>
        <time>2020-12-20T08:20:08Z</time>
      </trkpt>
      <trkpt lat="49.29928" lon="-0.30551">
        <ele>3</ele>
        <time>2020-12-20T08:20:09Z</time>
      </trkpt>
      <trkpt lat="49.29928" lon="-0.3055">
        <ele>3</ele>
        <time>2020-12-20T08:20:10Z</time>
      </trkpt>
      <trkpt lat="49.29925" lon="-0.30544">
        <ele>3</ele>
        <time>2020-12-20T08:20:12Z</time>
      </trkpt>
      <trkpt lat="49.29925" lon="-0.30543">
        <ele>3</ele>
        <time>2020-12-20T08:20:13Z</time>
      </trkpt>
      <trkpt lat="49.29924" lon="-0.30541">
        <ele>3</ele>
        <time>2020-12-20T08:20:14Z</time>
      </trkpt>
      <trkpt lat="49.29923" lon="-0.30537">
        <ele>3</ele>
        <time>2020-12-20T08:20:15Z</time>
      </trkpt>
      <trkpt lat="49.29922" lon="-0.30536">
        <ele>3</ele>
        <time>2020-12-20T08:20:16Z</time>
      </trkpt>
      <trkpt lat="49.29921" lon="-0.30531">
        <ele>3</ele>
        <time>2020-12-20T08:20:18Z</time>
      </trkpt>
      <trkpt lat="49.29919" lon="-0.30526">
        <ele>3</ele>
        <time>2020-12-20T08:20:20Z</time>
      </trkpt>
      <trkpt lat="49.29917" lon="-0.30521">
        <ele>3</ele>
        <time>2020-12-20T08:20:21Z</time>
      </trkpt>
      <trkpt lat="49.29915" lon="-0.30515">
        <ele>3</ele>
        <time>2020-12-20T08:20:23Z</time>
      </trkpt>
      <trkpt lat="49.29913" lon="-0.3051">
        <ele>3</ele>
        <time>2020-12-20T08:20:24Z</time>
      </trkpt>
      <trkpt lat="49.29911" lon="-0.30503">
        <ele>3</ele>
        <time>2020-12-20T08:20:26Z</time>
      </trkpt>
      <trkpt lat="49.2991" lon="-0.30501">
        <ele>3</ele>
        <time>2020-12-20T08:20:27Z</time>
      </trkpt>
      <trkpt lat="49.29909" lon="-0.30499">
        <ele>3</ele>
        <time>2020-12-20T08:20:28Z</time>
      </trkpt>
      <trkpt lat="49.29908" lon="-0.30495">
        <ele>3</ele>
        <time>2020-12-20T08:20:29Z</time>
      </trkpt>
      <trkpt lat="49.29907" lon="-0.30491">
        <ele>3</ele>
        <time>2020-12-20T08:20:31Z</time>
      </trkpt>
      <trkpt lat="49.29906" lon="-0.30488">
        <ele>3</ele>
        <time>2020-12-20T08:20:32Z</time>
      </trkpt>
      <trkpt lat="49.29905" lon="-0.30483">
        <ele>3</ele>
        <time>2020-12-20T08:20:34Z</time>
      </trkpt>
      <trkpt lat="49.29904" lon="-0.3048">
        <ele>3</ele>
        <time>2020-12-20T08:20:35Z</time>
      </trkpt>
      <trkpt lat="49.29903" lon="-0.30477">
        <ele>3</ele>
        <time>2020-12-20T08:20:37Z</time>
      </trkpt>
      <trkpt lat="49.29902" lon="-0.30472">
        <ele>3</ele>
        <time>2020-12-20T08:20:38Z</time>
      </trkpt>
      <trkpt lat="49.29899" lon="-0.30466">
        <ele>3</ele>
        <time>2020-12-20T08:20:40Z</time>
      </trkpt>
      <trkpt lat="49.29898" lon="-0.30462">
        <ele>3</ele>
        <time>2020-12-20T08:20:41Z</time>
      </trkpt>
      <trkpt lat="49.29896" lon="-0.30459">
        <ele>3</ele>
        <time>2020-12-20T08:20:42Z</time>
      </trkpt>
      <trkpt lat="49.29896" lon="-0.30457">
        <ele>3</ele>
        <time>2020-12-20T08:20:43Z</time>
      </trkpt>
      <trkpt lat="49.29894" lon="-0.30453">
        <ele>3</ele>
        <time>2020-12-20T08:20:45Z</time>
      </trkpt>
      <trkpt lat="49.29894" lon="-0.30451">
        <ele>3</ele>
        <time>2020-12-20T08:20:46Z</time>
      </trkpt>
      <trkpt lat="49.29893" lon="-0.30449">
        <ele>3</ele>
        <time>2020-12-20T08:20:47Z</time>
      </trkpt>
      <trkpt lat="49.29892" lon="-0.30445">
        <ele>3</ele>
        <time>2020-12-20T08:20:49Z</time>
      </trkpt>
      <trkpt lat="49.29891" lon="-0.30441">
        <ele>3</ele>
        <time>2020-12-20T08:20:50Z</time>
      </trkpt>
      <trkpt lat="49.29891" lon="-0.30439">
        <ele>3</ele>
        <time>2020-12-20T08:20:52Z</time>
      </trkpt>
      <trkpt lat="49.2989" lon="-0.30435">
        <ele>3</ele>
        <time>2020-12-20T08:20:53Z</time>
      </trkpt>
      <trkpt lat="49.29889" lon="-0.30433">
        <ele>3</ele>
        <time>2020-12-20T08:20:54Z</time>
      </trkpt>
      <trkpt lat="49.29888" lon="-0.30428">
        <ele>3</ele>
        <time>2020-12-20T08:20:55Z</time>
      </trkpt>
      <trkpt lat="49.29887" lon="-0.30427">
        <ele>3</ele>
        <time>2020-12-20T08:20:56Z</time>
      </trkpt>
      <trkpt lat="49.29886" lon="-0.30422">
        <ele>3</ele>
        <time>2020-12-20T08:20:58Z</time>
      </trkpt>
      <trkpt lat="49.29885" lon="-0.30421">
        <ele>3</ele>
        <time>2020-12-20T08:20:59Z</time>
      </trkpt>
      <trkpt lat="49.29884" lon="-0.30416">
        <ele>3</ele>
        <time>2020-12-20T08:21:00Z</time>
      </trkpt>
      <trkpt lat="49.29882" lon="-0.30411">
        <ele>3</ele>
        <time>2020-12-20T08:21:01Z</time>
      </trkpt>
      <trkpt lat="49.2988" lon="-0.30405">
        <ele>3</ele>
        <time>2020-12-20T08:21:03Z</time>
      </trkpt>
      <trkpt lat="49.29879" lon="-0.30402">
        <ele>3</ele>
        <time>2020-12-20T08:21:04Z</time>
      </trkpt>
      <trkpt lat="49.29879" lon="-0.304">
        <ele>3</ele>
        <time>2020-12-20T08:21:05Z</time>
      </trkpt>
      <trkpt lat="49.29877" lon="-0.30395">
        <ele>3</ele>
        <time>2020-12-20T08:21:06Z</time>
      </trkpt>
      <trkpt lat="49.29877" lon="-0.30394">
        <ele>3</ele>
        <time>2020-12-20T08:21:07Z</time>
      </trkpt>
      <trkpt lat="49.29876" lon="-0.30389">
        <ele>3</ele>
        <time>2020-12-20T08:21:09Z</time>
      </trkpt>
      <trkpt lat="49.29875" lon="-0.30388">
        <ele>3</ele>
        <time>2020-12-20T08:21:10Z</time>
      </trkpt>
      <trkpt lat="49.29874" lon="-0.30383">
        <ele>3</ele>
        <time>2020-12-20T08:21:11Z</time>
      </trkpt>
      <trkpt lat="49.29873" lon="-0.30381">
        <ele>3</ele>
        <time>2020-12-20T08:21:12Z</time>
      </trkpt>
      <trkpt lat="49.29872" lon="-0.30376">
        <ele>2.9</ele>
        <time>2020-12-20T08:21:13Z</time>
      </trkpt>
      <trkpt lat="49.29871" lon="-0.30374">
        <ele>2.9</ele>
        <time>2020-12-20T08:21:14Z</time>
      </trkpt>
      <trkpt lat="49.2987" lon="-0.3037">
        <ele>2.9</ele>
        <time>2020-12-20T08:21:16Z</time>
      </trkpt>
      <trkpt lat="49.2987" lon="-0.30368">
        <ele>2.9</ele>
        <time>2020-12-20T08:21:17Z</time>
      </trkpt>
      <trkpt lat="49.29869" lon="-0.30363">
        <ele>2.9</ele>
        <time>2020-12-20T08:21:18Z</time>
      </trkpt>
      <trkpt lat="49.29869" lon="-0.30362">
        <ele>2.9</ele>
        <time>2020-12-20T08:21:19Z</time>
      </trkpt>
      <trkpt lat="49.29868" lon="-0.30359">
        <ele>2.9</ele>
        <time>2020-12-20T08:21:21Z</time>
      </trkpt>
      <trkpt lat="49.29868" lon="-0.30357">
        <ele>2.9</ele>
        <time>2020-12-20T08:21:22Z</time>
      </trkpt>
      <trkpt lat="49.29867" lon="-0.30353">
        <ele>2.9</ele>
        <time>2020-12-20T08:21:23Z</time>
      </trkpt>
      <trkpt lat="49.29867" lon="-0.30351">
        <ele>2.9</ele>
        <time>2020-12-20T08:21:24Z</time>
      </trkpt>
      <trkpt lat="49.29866" lon="-0.30349">
        <ele>2.9</ele>
        <time>2020-12-20T08:21:25Z</time>
      </trkpt>
      <trkpt lat="49.29865" lon="-0.30345">
        <ele>2.9</ele>
        <time>2020-12-20T08:21:27Z</time>
      </trkpt>
      <trkpt lat="49.29864" lon="-0.3034">
        <ele>2.9</ele>
        <time>2020-12-20T08:21:28Z</time>
      </trkpt>
      <trkpt lat="49.29864" lon="-0.30338">
        <ele>2.9</ele>
        <time>2020-12-20T08:21:29Z</time>
      </trkpt>
      <trkpt lat="49.29862" lon="-0.30333">
        <ele>2.9</ele>
        <time>2020-12-20T08:21:31Z</time>
      </trkpt>
      <trkpt lat="49.29862" lon="-0.3033">
        <ele>2.9</ele>
        <time>2020-12-20T08:21:32Z</time>
      </trkpt>
      <trkpt lat="49.29861" lon="-0.30326">
        <ele>2.9</ele>
        <time>2020-12-20T08:21:34Z</time>
      </trkpt>
      <trkpt lat="49.29859" lon="-0.30321">
        <ele>2.9</ele>
        <time>2020-12-20T08:21:35Z</time>
      </trkpt>
      <trkpt lat="49.29859" lon="-0.30319">
        <ele>2.9</ele>
        <time>2020-12-20T08:21:36Z</time>
      </trkpt>
      <trkpt lat="49.29858" lon="-0.30315">
        <ele>2.9</ele>
        <time>2020-12-20T08:21:37Z</time>
      </trkpt>
      <trkpt lat="49.29857" lon="-0.30314">
        <ele>2.9</ele>
        <time>2020-12-20T08:21:38Z</time>
      </trkpt>
      <trkpt lat="49.29856" lon="-0.30313">
        <ele>2.9</ele>
        <time>2020-12-20T08:21:40Z</time>
      </trkpt>
      <trkpt lat="49.29856" lon="-0.30311">
        <ele>2.9</ele>
        <time>2020-12-20T08:21:41Z</time>
      </trkpt>
      <trkpt lat="49.29854" lon="-0.30305">
        <ele>2.9</ele>
        <time>2020-12-20T08:21:42Z</time>
      </trkpt>
      <trkpt lat="49.29854" lon="-0.30303">
        <ele>2.9</ele>
        <time>2020-12-20T08:21:43Z</time>
      </trkpt>
      <trkpt lat="49.29852" lon="-0.30298">
        <ele>2.9</ele>
        <time>2020-12-20T08:21:45Z</time>
      </trkpt>
      <trkpt lat="49.29849" lon="-0.30292">
        <ele>3</ele>
        <time>2020-12-20T08:21:47Z</time>
      </trkpt>
      <trkpt lat="49.29847" lon="-0.30288">
        <ele>3</ele>
        <time>2020-12-20T08:21:48Z</time>
      </trkpt>
      <trkpt lat="49.29846" lon="-0.30287">
        <ele>3</ele>
        <time>2020-12-20T08:21:49Z</time>
      </trkpt>
      <trkpt lat="49.29844" lon="-0.30283">
        <ele>3</ele>
        <time>2020-12-20T08:21:51Z</time>
      </trkpt>
      <trkpt lat="49.29843" lon="-0.30281">
        <ele>3</ele>
        <time>2020-12-20T08:21:52Z</time>
      </trkpt>
      <trkpt lat="49.29843" lon="-0.30277">
        <ele>3</ele>
        <time>2020-12-20T08:21:54Z</time>
      </trkpt>
      <trkpt lat="49.29841" lon="-0.30272">
        <ele>3</ele>
        <time>2020-12-20T08:21:56Z</time>
      </trkpt>
      <trkpt lat="49.2984" lon="-0.30268">
        <ele>3</ele>
        <time>2020-12-20T08:21:57Z</time>
      </trkpt>
      <trkpt lat="49.29838" lon="-0.30265">
        <ele>3</ele>
        <time>2020-12-20T08:21:58Z</time>
      </trkpt>
      <trkpt lat="49.29837" lon="-0.30263">
        <ele>3</ele>
        <time>2020-12-20T08:22:00Z</time>
      </trkpt>
      <trkpt lat="49.29836" lon="-0.30261">
        <ele>3.1</ele>
        <time>2020-12-20T08:22:01Z</time>
      </trkpt>
      <trkpt lat="49.29835" lon="-0.3026">
        <ele>3.1</ele>
        <time>2020-12-20T08:22:03Z</time>
      </trkpt>
      <trkpt lat="49.29834" lon="-0.30258">
        <ele>3.1</ele>
        <time>2020-12-20T08:22:05Z</time>
      </trkpt>
      <trkpt lat="49.29833" lon="-0.30256">
        <ele>3.1</ele>
        <time>2020-12-20T08:22:06Z</time>
      </trkpt>
      <trkpt lat="49.2983" lon="-0.30253">
        <ele>3.1</ele>
        <time>2020-12-20T08:22:07Z</time>
      </trkpt>
      <trkpt lat="49.29826" lon="-0.3025">
        <ele>3.9</ele>
        <time>2020-12-20T08:22:09Z</time>
      </trkpt>
      <trkpt lat="49.29824" lon="-0.3025">
        <ele>3.9</ele>
        <time>2020-12-20T08:22:10Z</time>
      </trkpt>
      <trkpt lat="49.29822" lon="-0.30249">
        <ele>3.9</ele>
        <time>2020-12-20T08:22:11Z</time>
      </trkpt>
      <trkpt lat="49.29819" lon="-0.30248">
        <ele>3.9</ele>
        <time>2020-12-20T08:22:13Z</time>
      </trkpt>
      <trkpt lat="49.29817" lon="-0.30248">
        <ele>4.4</ele>
        <time>2020-12-20T08:22:14Z</time>
      </trkpt>
      <trkpt lat="49.29815" lon="-0.30248">
        <ele>4.4</ele>
        <time>2020-12-20T08:22:15Z</time>
      </trkpt>
      <trkpt lat="49.29813" lon="-0.30249">
        <ele>4.5</ele>
        <time>2020-12-20T08:22:17Z</time>
      </trkpt>
      <trkpt lat="49.29809" lon="-0.3025">
        <ele>4.7</ele>
        <time>2020-12-20T08:22:18Z</time>
      </trkpt>
      <trkpt lat="49.29805" lon="-0.30252">
        <ele>4.8</ele>
        <time>2020-12-20T08:22:20Z</time>
      </trkpt>
      <trkpt lat="49.29802" lon="-0.30255">
        <ele>5</ele>
        <time>2020-12-20T08:22:21Z</time>
      </trkpt>
      <trkpt lat="49.298" lon="-0.30257">
        <ele>5.1</ele>
        <time>2020-12-20T08:22:22Z</time>
      </trkpt>
      <trkpt lat="49.29797" lon="-0.30258">
        <ele>5.2</ele>
        <time>2020-12-20T08:22:24Z</time>
      </trkpt>
      <trkpt lat="49.29793" lon="-0.30258">
        <ele>5.2</ele>
        <time>2020-12-20T08:22:25Z</time>
      </trkpt>
      <trkpt lat="49.29789" lon="-0.30258">
        <ele>5.2</ele>
        <time>2020-12-20T08:22:27Z</time>
      </trkpt>
      <trkpt lat="49.29787" lon="-0.30259">
        <ele>5.2</ele>
        <time>2020-12-20T08:22:28Z</time>
      </trkpt>
      <trkpt lat="49.29785" lon="-0.30261">
        <ele>5.2</ele>
        <time>2020-12-20T08:22:30Z</time>
      </trkpt>
      <trkpt lat="49.29783" lon="-0.30263">
        <ele>5.2</ele>
        <time>2020-12-20T08:22:31Z</time>
      </trkpt>
      <trkpt lat="49.2978" lon="-0.30265">
        <ele>5.2</ele>
        <time>2020-12-20T08:22:33Z</time>
      </trkpt>
      <trkpt lat="49.29778" lon="-0.30267">
        <ele>5.2</ele>
        <time>2020-12-20T08:22:34Z</time>
      </trkpt>
      <trkpt lat="49.29776" lon="-0.30269">
        <ele>5.2</ele>
        <time>2020-12-20T08:22:36Z</time>
      </trkpt>
      <trkpt lat="49.29773" lon="-0.30272">
        <ele>5.3</ele>
        <time>2020-12-20T08:22:37Z</time>
      </trkpt>
      <trkpt lat="49.29769" lon="-0.30274">
        <ele>5.3</ele>
        <time>2020-12-20T08:22:39Z</time>
      </trkpt>
      <trkpt lat="49.29768" lon="-0.30275">
        <ele>5.3</ele>
        <time>2020-12-20T08:22:40Z</time>
      </trkpt>
      <trkpt lat="49.29767" lon="-0.30276">
        <ele>5.3</ele>
        <time>2020-12-20T08:22:41Z</time>
      </trkpt>
      <trkpt lat="49.29763" lon="-0.30278">
        <ele>5.3</ele>
        <time>2020-12-20T08:22:43Z</time>
      </trkpt>
      <trkpt lat="49.29762" lon="-0.30279">
        <ele>5.3</ele>
        <time>2020-12-20T08:22:44Z</time>
      </trkpt>
      <trkpt lat="49.2976" lon="-0.30281">
        <ele>5.4</ele>
        <time>2020-12-20T08:22:46Z</time>
      </trkpt>
      <trkpt lat="49.29757" lon="-0.30283">
        <ele>5.4</ele>
        <time>2020-12-20T08:22:48Z</time>
      </trkpt>
      <trkpt lat="49.29755" lon="-0.30285">
        <ele>5.4</ele>
        <time>2020-12-20T08:22:49Z</time>
      </trkpt>
      <trkpt lat="49.29753" lon="-0.30289">
        <ele>5.4</ele>
        <time>2020-12-20T08:22:51Z</time>
      </trkpt>
      <trkpt lat="49.2975" lon="-0.30293">
        <ele>5.4</ele>
        <time>2020-12-20T08:22:52Z</time>
      </trkpt>
      <trkpt lat="49.29749" lon="-0.30298">
        <ele>5.5</ele>
        <time>2020-12-20T08:22:54Z</time>
      </trkpt>
      <trkpt lat="49.29748" lon="-0.303">
        <ele>5.5</ele>
        <time>2020-12-20T08:22:55Z</time>
      </trkpt>
      <trkpt lat="49.29747" lon="-0.30304">
        <ele>5.5</ele>
        <time>2020-12-20T08:22:56Z</time>
      </trkpt>
      <trkpt lat="49.29746" lon="-0.30309">
        <ele>5.5</ele>
        <time>2020-12-20T08:22:58Z</time>
      </trkpt>
      <trkpt lat="49.29746" lon="-0.30312">
        <ele>5.6</ele>
        <time>2020-12-20T08:22:59Z</time>
      </trkpt>
      <trkpt lat="49.29745" lon="-0.30316">
        <ele>5.6</ele>
        <time>2020-12-20T08:23:01Z</time>
      </trkpt>
      <trkpt lat="49.29744" lon="-0.3032">
        <ele>5.6</ele>
        <time>2020-12-20T08:23:02Z</time>
      </trkpt>
      <trkpt lat="49.29743" lon="-0.30322">
        <ele>5.6</ele>
        <time>2020-12-20T08:23:03Z</time>
      </trkpt>
      <trkpt lat="49.29742" lon="-0.30323">
        <ele>5.6</ele>
        <time>2020-12-20T08:23:04Z</time>
      </trkpt>
      <trkpt lat="49.29741" lon="-0.30323">
        <ele>5.6</ele>
        <time>2020-12-20T08:23:05Z</time>
      </trkpt>
      <trkpt lat="49.2974" lon="-0.30324">
        <ele>5.6</ele>
        <time>2020-12-20T08:23:07Z</time>
      </trkpt>
      <trkpt lat="49.29739" lon="-0.30325">
        <ele>5.6</ele>
        <time>2020-12-20T08:23:08Z</time>
      </trkpt>
      <trkpt lat="49.29739" lon="-0.30326">
        <ele>5.6</ele>
        <time>2020-12-20T08:23:09Z</time>
      </trkpt>
      <trkpt lat="49.29738" lon="-0.30326">
        <ele>5.6</ele>
        <time>2020-12-20T08:23:10Z</time>
      </trkpt>
      <trkpt lat="49.29738" lon="-0.30325">
        <ele>5.6</ele>
        <time>2020-12-20T08:23:11Z</time>
      </trkpt>
      <trkpt lat="49.29737" lon="-0.30325">
        <ele>5.6</ele>
        <time>2020-12-20T08:23:12Z</time>
      </trkpt>
      <trkpt lat="49.29738" lon="-0.30324">
        <ele>5.6</ele>
        <time>2020-12-20T08:23:14Z</time>
      </trkpt>
      <trkpt lat="49.29738" lon="-0.30324">
        <ele>5.6</ele>
        <time>2020-12-20T08:23:15Z</time>
      </trkpt>
      <trkpt lat="49.29739" lon="-0.30324">
        <ele>5.6</ele>
        <time>2020-12-20T08:23:17Z</time>
      </trkpt>
      <trkpt lat="49.2974" lon="-0.30323">
        <ele>5.6</ele>
        <time>2020-12-20T08:23:19Z</time>
      </trkpt>
      <trkpt lat="49.2974" lon="-0.30323">
        <ele>5.6</ele>
        <time>2020-12-20T08:23:21Z</time>
      </trkpt>
      <trkpt lat="49.29741" lon="-0.30323">
        <ele>5.6</ele>
        <time>2020-12-20T08:23:22Z</time>
      </trkpt>
      <trkpt lat="49.29741" lon="-0.30323">
        <ele>5.6</ele>
        <time>2020-12-20T08:23:24Z</time>
      </trkpt>
      <trkpt lat="49.29742" lon="-0.30322">
        <ele>5.6</ele>
        <time>2020-12-20T08:23:25Z</time>
      </trkpt>
      <trkpt lat="49.29742" lon="-0.30322">
        <ele>5.6</ele>
        <time>2020-12-20T08:23:26Z</time>
      </trkpt>
      <trkpt lat="49.29743" lon="-0.30322">
        <ele>5.6</ele>
        <time>2020-12-20T08:23:28Z</time>
      </trkpt>
      <trkpt lat="49.29743" lon="-0.30321">
        <ele>5.6</ele>
        <time>2020-12-20T08:23:29Z</time>
      </trkpt>
      <trkpt lat="49.29744" lon="-0.30321">
        <ele>5.6</ele>
        <time>2020-12-20T08:23:30Z</time>
      </trkpt>
      <trkpt lat="49.29744" lon="-0.30321">
        <ele>5.6</ele>
        <time>2020-12-20T08:23:31Z</time>
      </trkpt>
      <trkpt lat="49.29745" lon="-0.30321">
        <ele>5.6</ele>
        <time>2020-12-20T08:23:33Z</time>
      </trkpt>
      <trkpt lat="49.29745" lon="-0.3032">
        <ele>5.6</ele>
        <time>2020-12-20T08:23:34Z</time>
      </trkpt>
      <trkpt lat="49.29745" lon="-0.3032">
        <ele>5.6</ele>
        <time>2020-12-20T08:23:36Z</time>
      </trkpt>
      <trkpt lat="49.29745" lon="-0.3032">
        <ele>5.6</ele>
        <time>2020-12-20T08:23:38Z</time>
      </trkpt>
      <trkpt lat="49.29745" lon="-0.3032">
        <ele>5.6</ele>
        <time>2020-12-20T08:23:39Z</time>
      </trkpt>
      <trkpt lat="49.29745" lon="-0.3032">
        <ele>5.6</ele>
        <time>2020-12-20T08:23:41Z</time>
      </trkpt>
      <trkpt lat="49.29745" lon="-0.3032">
        <ele>5.6</ele>
        <time>2020-12-20T08:23:43Z</time>
      </trkpt>
      <trkpt lat="49.29746" lon="-0.3032">
        <ele>5.6</ele>
        <time>2020-12-20T08:23:45Z</time>
      </trkpt>
      <trkpt lat="49.29746" lon="-0.3032">
        <ele>5.6</ele>
        <time>2020-12-20T08:23:46Z</time>
      </trkpt>
      <trkpt lat="49.29746" lon="-0.3032">
        <ele>5.6</ele>
        <time>2020-12-20T08:23:47Z</time>
      </trkpt>
      <trkpt lat="49.29746" lon="-0.3032">
        <ele>5.6</ele>
        <time>2020-12-20T08:23:49Z</time>
      </trkpt>
      <trkpt lat="49.29746" lon="-0.3032">
        <ele>5.6</ele>
        <time>2020-12-20T08:23:50Z</time>
      </trkpt>
      <trkpt lat="49.29746" lon="-0.3032">
        <ele>5.6</ele>
        <time>2020-12-20T08:23:52Z</time>
      </trkpt>
      <trkpt lat="49.29746" lon="-0.3032">
        <ele>5.6</ele>
        <time>2020-12-20T08:23:54Z</time>
      </trkpt>
      <trkpt lat="49.29745" lon="-0.3032">
        <ele>5.6</ele>
        <time>2020-12-20T08:23:55Z</time>
      </trkpt>
      <trkpt lat="49.29744" lon="-0.3032">
        <ele>5.6</ele>
        <time>2020-12-20T08:23:59Z</time>
      </trkpt>
      <trkpt lat="49.29744" lon="-0.3032">
        <ele>5.6</ele>
        <time>2020-12-20T08:24:04Z</time>
      </trkpt>
      <trkpt lat="49.29744" lon="-0.3032">
        <ele>5.6</ele>
        <time>2020-12-20T08:24:09Z</time>
      </trkpt>
      <trkpt lat="49.29745" lon="-0.3032">
        <ele>5.6</ele>
        <time>2020-12-20T08:24:14Z</time>
      </trkpt>
      <trkpt lat="49.29745" lon="-0.3032">
        <ele>5.6</ele>
        <time>2020-12-20T08:24:19Z</time>
      </trkpt>
      <trkpt lat="49.29745" lon="-0.3032">
        <ele>5.6</ele>
        <time>2020-12-20T08:24:22Z</time>
      </trkpt>
      <trkpt lat="49.29745" lon="-0.3032">
        <ele>5.6</ele>
        <time>2020-12-20T08:24:23Z</time>
      </trkpt>
      <trkpt lat="49.29745" lon="-0.3032">
        <ele>5.6</ele>
        <time>2020-12-20T08:24:24Z</time>
      </trkpt>
      <trkpt lat="49.29745" lon="-0.3032">
        <ele>5.6</ele>
        <time>2020-12-20T08:24:25Z</time>
      </trkpt>
      <trkpt lat="49.29745" lon="-0.3032">
        <ele>5.6</ele>
        <time>2020-12-20T08:24:26Z</time>
      </trkpt>
      <trkpt lat="49.29745" lon="-0.3032">
        <ele>5.6</ele>
        <time>2020-12-20T08:24:28Z</time>
      </trkpt>
      <trkpt lat="49.29746" lon="-0.30321">
        <ele>5.6</ele>
        <time>2020-12-20T08:24:30Z</time>
      </trkpt>
      <trkpt lat="49.29746" lon="-0.30321">
        <ele>5.6</ele>
        <time>2020-12-20T08:24:31Z</time>
      </trkpt>
      <trkpt lat="49.29746" lon="-0.30321">
        <ele>5.6</ele>
        <time>2020-12-20T08:24:33Z</time>
      </trkpt>
      <trkpt lat="49.29746" lon="-0.30321">
        <ele>5.6</ele>
        <time>2020-12-20T08:24:35Z</time>
      </trkpt>
      <trkpt lat="49.29746" lon="-0.30321">
        <ele>5.6</ele>
        <time>2020-12-20T08:24:36Z</time>
      </trkpt>
      <trkpt lat="49.29746" lon="-0.30321">
        <ele>5.6</ele>
        <time>2020-12-20T08:24:38Z</time>
      </trkpt>
      <trkpt lat="49.29746" lon="-0.3032">
        <ele>5.6</ele>
        <time>2020-12-20T08:24:40Z</time>
      </trkpt>
      <trkpt lat="49.29746" lon="-0.30319">
        <ele>5.6</ele>
        <time>2020-12-20T08:24:42Z</time>
      </trkpt>
      <trkpt lat="49.29746" lon="-0.30319">
        <ele>5.6</ele>
        <time>2020-12-20T08:24:43Z</time>
      </trkpt>
      <trkpt lat="49.29746" lon="-0.30319">
        <ele>5.6</ele>
        <time>2020-12-20T08:24:44Z</time>
      </trkpt>
      <trkpt lat="49.29747" lon="-0.30319">
        <ele>5.6</ele>
        <time>2020-12-20T08:24:46Z</time>
      </trkpt>
      <trkpt lat="49.29747" lon="-0.30319">
        <ele>5.6</ele>
        <time>2020-12-20T08:24:47Z</time>
      </trkpt>
      <trkpt lat="49.29747" lon="-0.30319">
        <ele>5.6</ele>
        <time>2020-12-20T08:24:49Z</time>
      </trkpt>
      <trkpt lat="49.29747" lon="-0.30319">
        <ele>5.6</ele>
        <time>2020-12-20T08:24:50Z</time>
      </trkpt>
      <trkpt lat="49.29747" lon="-0.30319">
        <ele>5.6</ele>
        <time>2020-12-20T08:24:51Z</time>
      </trkpt>
      <trkpt lat="49.29748" lon="-0.30319">
        <ele>5.6</ele>
        <time>2020-12-20T08:24:53Z</time>
      </trkpt>
      <trkpt lat="49.29747" lon="-0.30314">
        <ele>5.6</ele>
        <time>2020-12-20T08:24:55Z</time>
      </trkpt>
      <trkpt lat="49.29747" lon="-0.30311">
        <ele>5.6</ele>
        <time>2020-12-20T08:24:56Z</time>
      </trkpt>
      <trkpt lat="49.29747" lon="-0.30309">
        <ele>5.5</ele>
        <time>2020-12-20T08:24:57Z</time>
      </trkpt>
      <trkpt lat="49.29747" lon="-0.30303">
        <ele>5.5</ele>
        <time>2020-12-20T08:24:58Z</time>
      </trkpt>
      <trkpt lat="49.29746" lon="-0.303">
        <ele>5.5</ele>
        <time>2020-12-20T08:24:59Z</time>
      </trkpt>
      <trkpt lat="49.29745" lon="-0.30299">
        <ele>5.5</ele>
        <time>2020-12-20T08:25:00Z</time>
      </trkpt>
      <trkpt lat="49.29745" lon="-0.30297">
        <ele>5.5</ele>
        <time>2020-12-20T08:25:01Z</time>
      </trkpt>
      <trkpt lat="49.29746" lon="-0.30296">
        <ele>5.5</ele>
        <time>2020-12-20T08:25:03Z</time>
      </trkpt>
      <trkpt lat="49.29744" lon="-0.30292">
        <ele>5.5</ele>
        <time>2020-12-20T08:25:04Z</time>
      </trkpt>
      <trkpt lat="49.29745" lon="-0.30289">
        <ele>5.5</ele>
        <time>2020-12-20T08:25:06Z</time>
      </trkpt>
      <trkpt lat="49.29746" lon="-0.30287">
        <ele>5.5</ele>
        <time>2020-12-20T08:25:07Z</time>
      </trkpt>
      <trkpt lat="49.29749" lon="-0.30288">
        <ele>5.4</ele>
        <time>2020-12-20T08:25:09Z</time>
      </trkpt>
      <trkpt lat="49.2975" lon="-0.30288">
        <ele>5.4</ele>
        <time>2020-12-20T08:25:10Z</time>
      </trkpt>
      <trkpt lat="49.29754" lon="-0.30287">
        <ele>5.4</ele>
        <time>2020-12-20T08:25:11Z</time>
      </trkpt>
      <trkpt lat="49.29754" lon="-0.30286">
        <ele>5.4</ele>
        <time>2020-12-20T08:25:12Z</time>
      </trkpt>
      <trkpt lat="49.29759" lon="-0.30282">
        <ele>5.4</ele>
        <time>2020-12-20T08:25:14Z</time>
      </trkpt>
      <trkpt lat="49.2976" lon="-0.3028">
        <ele>5.3</ele>
        <time>2020-12-20T08:25:15Z</time>
      </trkpt>
      <trkpt lat="49.29762" lon="-0.30278">
        <ele>5.3</ele>
        <time>2020-12-20T08:25:16Z</time>
      </trkpt>
      <trkpt lat="49.29763" lon="-0.30276">
        <ele>5.3</ele>
        <time>2020-12-20T08:25:17Z</time>
      </trkpt>
      <trkpt lat="49.29765" lon="-0.30273">
        <ele>5.3</ele>
        <time>2020-12-20T08:25:19Z</time>
      </trkpt>
      <trkpt lat="49.29767" lon="-0.3027">
        <ele>5.3</ele>
        <time>2020-12-20T08:25:20Z</time>
      </trkpt>
      <trkpt lat="49.2977" lon="-0.30267">
        <ele>5.3</ele>
        <time>2020-12-20T08:25:22Z</time>
      </trkpt>
      <trkpt lat="49.29772" lon="-0.30264">
        <ele>5.2</ele>
        <time>2020-12-20T08:25:23Z</time>
      </trkpt>
      <trkpt lat="49.29774" lon="-0.30262">
        <ele>5.2</ele>
        <time>2020-12-20T08:25:25Z</time>
      </trkpt>
      <trkpt lat="49.29777" lon="-0.30258">
        <ele>5.2</ele>
        <time>2020-12-20T08:25:26Z</time>
      </trkpt>
      <trkpt lat="49.29777" lon="-0.30257">
        <ele>5.2</ele>
        <time>2020-12-20T08:25:27Z</time>
      </trkpt>
      <trkpt lat="49.29778" lon="-0.30255">
        <ele>5.2</ele>
        <time>2020-12-20T08:25:28Z</time>
      </trkpt>
      <trkpt lat="49.2978" lon="-0.30252">
        <ele>5.2</ele>
        <time>2020-12-20T08:25:30Z</time>
      </trkpt>
      <trkpt lat="49.29782" lon="-0.3025">
        <ele>5.2</ele>
        <time>2020-12-20T08:25:31Z</time>
      </trkpt>
      <trkpt lat="49.29784" lon="-0.30247">
        <ele>5.2</ele>
        <time>2020-12-20T08:25:33Z</time>
      </trkpt>
      <trkpt lat="49.29787" lon="-0.30244">
        <ele>5.2</ele>
        <time>2020-12-20T08:25:34Z</time>
      </trkpt>
      <trkpt lat="49.29788" lon="-0.30244">
        <ele>5.2</ele>
        <time>2020-12-20T08:25:35Z</time>
      </trkpt>
      <trkpt lat="49.29791" lon="-0.30241">
        <ele>5.2</ele>
        <time>2020-12-20T08:25:37Z</time>
      </trkpt>
      <trkpt lat="49.29795" lon="-0.30237">
        <ele>5.1</ele>
        <time>2020-12-20T08:25:39Z</time>
      </trkpt>
      <trkpt lat="49.29796" lon="-0.30236">
        <ele>5</ele>
        <time>2020-12-20T08:25:40Z</time>
      </trkpt>
      <trkpt lat="49.29797" lon="-0.30234">
        <ele>5</ele>
        <time>2020-12-20T08:25:41Z</time>
      </trkpt>
      <trkpt lat="49.29799" lon="-0.30232">
        <ele>4.9</ele>
        <time>2020-12-20T08:25:42Z</time>
      </trkpt>
      <trkpt lat="49.29802" lon="-0.3023">
        <ele>4.8</ele>
        <time>2020-12-20T08:25:44Z</time>
      </trkpt>
      <trkpt lat="49.29806" lon="-0.30226">
        <ele>4.6</ele>
        <time>2020-12-20T08:25:46Z</time>
      </trkpt>
      <trkpt lat="49.29807" lon="-0.30224">
        <ele>4.5</ele>
        <time>2020-12-20T08:25:47Z</time>
      </trkpt>
      <trkpt lat="49.29808" lon="-0.30223">
        <ele>4.5</ele>
        <time>2020-12-20T08:25:48Z</time>
      </trkpt>
      <trkpt lat="49.29811" lon="-0.30221">
        <ele>4.4</ele>
        <time>2020-12-20T08:25:50Z</time>
      </trkpt>
      <trkpt lat="49.29812" lon="-0.3022">
        <ele>4.3</ele>
        <time>2020-12-20T08:25:51Z</time>
      </trkpt>
      <trkpt lat="49.29815" lon="-0.30218">
        <ele>4.2</ele>
        <time>2020-12-20T08:25:53Z</time>
      </trkpt>
      <trkpt lat="49.29816" lon="-0.30217">
        <ele>4.2</ele>
        <time>2020-12-20T08:25:54Z</time>
      </trkpt>
      <trkpt lat="49.29817" lon="-0.30216">
        <ele>4.1</ele>
        <time>2020-12-20T08:25:55Z</time>
      </trkpt>
      <trkpt lat="49.2982" lon="-0.30214">
        <ele>4</ele>
        <time>2020-12-20T08:25:57Z</time>
      </trkpt>
      <trkpt lat="49.29821" lon="-0.30212">
        <ele>4</ele>
        <time>2020-12-20T08:25:58Z</time>
      </trkpt>
      <trkpt lat="49.29823" lon="-0.30209">
        <ele>4</ele>
        <time>2020-12-20T08:26:00Z</time>
      </trkpt>
      <trkpt lat="49.29824" lon="-0.30206">
        <ele>4</ele>
        <time>2020-12-20T08:26:01Z</time>
      </trkpt>
      <trkpt lat="49.29825" lon="-0.30202">
        <ele>4</ele>
        <time>2020-12-20T08:26:03Z</time>
      </trkpt>
      <trkpt lat="49.29825" lon="-0.30199">
        <ele>4</ele>
        <time>2020-12-20T08:26:05Z</time>
      </trkpt>
      <trkpt lat="49.29825" lon="-0.30197">
        <ele>4</ele>
        <time>2020-12-20T08:26:06Z</time>
      </trkpt>
      <trkpt lat="49.29826" lon="-0.30195">
        <ele>4</ele>
        <time>2020-12-20T08:26:07Z</time>
      </trkpt>
      <trkpt lat="49.29827" lon="-0.30193">
        <ele>4</ele>
        <time>2020-12-20T08:26:08Z</time>
      </trkpt>
      <trkpt lat="49.29828" lon="-0.30191">
        <ele>4</ele>
        <time>2020-12-20T08:26:09Z</time>
      </trkpt>
      <trkpt lat="49.29827" lon="-0.30188">
        <ele>4</ele>
        <time>2020-12-20T08:26:11Z</time>
      </trkpt>
      <trkpt lat="49.29827" lon="-0.30184">
        <ele>4</ele>
        <time>2020-12-20T08:26:12Z</time>
      </trkpt>
      <trkpt lat="49.29826" lon="-0.3018">
        <ele>4</ele>
        <time>2020-12-20T08:26:14Z</time>
      </trkpt>
      <trkpt lat="49.29825" lon="-0.30177">
        <ele>4</ele>
        <time>2020-12-20T08:26:15Z</time>
      </trkpt>
      <trkpt lat="49.29824" lon="-0.30174">
        <ele>4</ele>
        <time>2020-12-20T08:26:17Z</time>
      </trkpt>
      <trkpt lat="49.29823" lon="-0.30172">
        <ele>4</ele>
        <time>2020-12-20T08:26:18Z</time>
      </trkpt>
      <trkpt lat="49.29822" lon="-0.30168">
        <ele>4</ele>
        <time>2020-12-20T08:26:20Z</time>
      </trkpt>
      <trkpt lat="49.2982" lon="-0.30166">
        <ele>4</ele>
        <time>2020-12-20T08:26:21Z</time>
      </trkpt>
      <trkpt lat="49.29819" lon="-0.30163">
        <ele>4</ele>
        <time>2020-12-20T08:26:23Z</time>
      </trkpt>
      <trkpt lat="49.29818" lon="-0.3016">
        <ele>4.1</ele>
        <time>2020-12-20T08:26:24Z</time>
      </trkpt>
      <trkpt lat="49.29817" lon="-0.30158">
        <ele>4.1</ele>
        <time>2020-12-20T08:26:25Z</time>
      </trkpt>
      <trkpt lat="49.29816" lon="-0.30156">
        <ele>4.1</ele>
        <time>2020-12-20T08:26:26Z</time>
      </trkpt>
      <trkpt lat="49.29815" lon="-0.30152">
        <ele>4.1</ele>
        <time>2020-12-20T08:26:28Z</time>
      </trkpt>
      <trkpt lat="49.29813" lon="-0.30147">
        <ele>4.1</ele>
        <time>2020-12-20T08:26:30Z</time>
      </trkpt>
      <trkpt lat="49.29813" lon="-0.30145">
        <ele>4.1</ele>
        <time>2020-12-20T08:26:31Z</time>
      </trkpt>
      <trkpt lat="49.29812" lon="-0.30142">
        <ele>4.1</ele>
        <time>2020-12-20T08:26:32Z</time>
      </trkpt>
      <trkpt lat="49.29811" lon="-0.30138">
        <ele>4.1</ele>
        <time>2020-12-20T08:26:34Z</time>
      </trkpt>
      <trkpt lat="49.2981" lon="-0.30134">
        <ele>4.1</ele>
        <time>2020-12-20T08:26:35Z</time>
      </trkpt>
      <trkpt lat="49.29809" lon="-0.30131">
        <ele>4.1</ele>
        <time>2020-12-20T08:26:37Z</time>
      </trkpt>
      <trkpt lat="49.29808" lon="-0.30127">
        <ele>4.1</ele>
        <time>2020-12-20T08:26:38Z</time>
      </trkpt>
      <trkpt lat="49.29807" lon="-0.30121">
        <ele>4.1</ele>
        <time>2020-12-20T08:26:40Z</time>
      </trkpt>
      <trkpt lat="49.29806" lon="-0.3012">
        <ele>4.1</ele>
        <time>2020-12-20T08:26:41Z</time>
      </trkpt>
      <trkpt lat="49.29805" lon="-0.30114">
        <ele>4.1</ele>
        <time>2020-12-20T08:26:43Z</time>
      </trkpt>
      <trkpt lat="49.29804" lon="-0.30113">
        <ele>4.1</ele>
        <time>2020-12-20T08:26:44Z</time>
      </trkpt>
      <trkpt lat="49.29803" lon="-0.30106">
        <ele>4.1</ele>
        <time>2020-12-20T08:26:46Z</time>
      </trkpt>
      <trkpt lat="49.29802" lon="-0.30104">
        <ele>4.1</ele>
        <time>2020-12-20T08:26:47Z</time>
      </trkpt>
      <trkpt lat="49.29801" lon="-0.30102">
        <ele>4.1</ele>
        <time>2020-12-20T08:26:48Z</time>
      </trkpt>
      <trkpt lat="49.298" lon="-0.30097">
        <ele>4.1</ele>
        <time>2020-12-20T08:26:50Z</time>
      </trkpt>
      <trkpt lat="49.298" lon="-0.30095">
        <ele>4.2</ele>
        <time>2020-12-20T08:26:51Z</time>
      </trkpt>
      <trkpt lat="49.29799" lon="-0.30093">
        <ele>4.2</ele>
        <time>2020-12-20T08:26:52Z</time>
      </trkpt>
      <trkpt lat="49.29798" lon="-0.30091">
        <ele>4.2</ele>
        <time>2020-12-20T08:26:54Z</time>
      </trkpt>
      <trkpt lat="49.29798" lon="-0.30087">
        <ele>4.2</ele>
        <time>2020-12-20T08:26:55Z</time>
      </trkpt>
      <trkpt lat="49.29797" lon="-0.30084">
        <ele>4.2</ele>
        <time>2020-12-20T08:26:57Z</time>
      </trkpt>
      <trkpt lat="49.29796" lon="-0.30079">
        <ele>4.2</ele>
        <time>2020-12-20T08:26:58Z</time>
      </trkpt>
      <trkpt lat="49.29796" lon="-0.30077">
        <ele>4.2</ele>
        <time>2020-12-20T08:26:59Z</time>
      </trkpt>
      <trkpt lat="49.29794" lon="-0.30069">
        <ele>4.2</ele>
        <time>2020-12-20T08:27:01Z</time>
      </trkpt>
      <trkpt lat="49.29794" lon="-0.30066">
        <ele>4.2</ele>
        <time>2020-12-20T08:27:03Z</time>
      </trkpt>
      <trkpt lat="49.29793" lon="-0.30064">
        <ele>4.2</ele>
        <time>2020-12-20T08:27:04Z</time>
      </trkpt>
      <trkpt lat="49.29793" lon="-0.30061">
        <ele>4.2</ele>
        <time>2020-12-20T08:27:05Z</time>
      </trkpt>
      <trkpt lat="49.29792" lon="-0.30059">
        <ele>4.2</ele>
        <time>2020-12-20T08:27:06Z</time>
      </trkpt>
      <trkpt lat="49.2979" lon="-0.30054">
        <ele>4.2</ele>
        <time>2020-12-20T08:27:08Z</time>
      </trkpt>
      <trkpt lat="49.29789" lon="-0.30048">
        <ele>4.2</ele>
        <time>2020-12-20T08:27:10Z</time>
      </trkpt>
      <trkpt lat="49.29789" lon="-0.30047">
        <ele>4.2</ele>
        <time>2020-12-20T08:27:11Z</time>
      </trkpt>
      <trkpt lat="49.29787" lon="-0.30041">
        <ele>4.2</ele>
        <time>2020-12-20T08:27:13Z</time>
      </trkpt>
      <trkpt lat="49.29787" lon="-0.30039">
        <ele>4.2</ele>
        <time>2020-12-20T08:27:14Z</time>
      </trkpt>
      <trkpt lat="49.29786" lon="-0.30037">
        <ele>4.2</ele>
        <time>2020-12-20T08:27:15Z</time>
      </trkpt>
      <trkpt lat="49.29785" lon="-0.30031">
        <ele>4.2</ele>
        <time>2020-12-20T08:27:17Z</time>
      </trkpt>
      <trkpt lat="49.29784" lon="-0.30029">
        <ele>4.2</ele>
        <time>2020-12-20T08:27:18Z</time>
      </trkpt>
      <trkpt lat="49.29783" lon="-0.30024">
        <ele>4.2</ele>
        <time>2020-12-20T08:27:19Z</time>
      </trkpt>
      <trkpt lat="49.29782" lon="-0.30022">
        <ele>4.2</ele>
        <time>2020-12-20T08:27:21Z</time>
      </trkpt>
      <trkpt lat="49.29782" lon="-0.3002">
        <ele>4.2</ele>
        <time>2020-12-20T08:27:22Z</time>
      </trkpt>
      <trkpt lat="49.29781" lon="-0.30017">
        <ele>4.2</ele>
        <time>2020-12-20T08:27:23Z</time>
      </trkpt>
      <trkpt lat="49.2978" lon="-0.30015">
        <ele>4.2</ele>
        <time>2020-12-20T08:27:24Z</time>
      </trkpt>
      <trkpt lat="49.2978" lon="-0.30012">
        <ele>4.2</ele>
        <time>2020-12-20T08:27:26Z</time>
      </trkpt>
      <trkpt lat="49.29778" lon="-0.30007">
        <ele>4.3</ele>
        <time>2020-12-20T08:27:27Z</time>
      </trkpt>
      <trkpt lat="49.29777" lon="-0.30006">
        <ele>4.3</ele>
        <time>2020-12-20T08:27:28Z</time>
      </trkpt>
      <trkpt lat="49.29775" lon="-0.3">
        <ele>4.3</ele>
        <time>2020-12-20T08:27:30Z</time>
      </trkpt>
      <trkpt lat="49.29774" lon="-0.29998">
        <ele>4.3</ele>
        <time>2020-12-20T08:27:32Z</time>
      </trkpt>
      <trkpt lat="49.29774" lon="-0.29996">
        <ele>4.3</ele>
        <time>2020-12-20T08:27:33Z</time>
      </trkpt>
      <trkpt lat="49.29773" lon="-0.29991">
        <ele>4.3</ele>
        <time>2020-12-20T08:27:34Z</time>
      </trkpt>
      <trkpt lat="49.29773" lon="-0.29989">
        <ele>4.3</ele>
        <time>2020-12-20T08:27:35Z</time>
      </trkpt>
      <trkpt lat="49.29771" lon="-0.29985">
        <ele>4.3</ele>
        <time>2020-12-20T08:27:37Z</time>
      </trkpt>
      <trkpt lat="49.29771" lon="-0.29983">
        <ele>4.3</ele>
        <time>2020-12-20T08:27:38Z</time>
      </trkpt>
      <trkpt lat="49.2977" lon="-0.29981">
        <ele>4.3</ele>
        <time>2020-12-20T08:27:39Z</time>
      </trkpt>
      <trkpt lat="49.29769" lon="-0.29979">
        <ele>4.3</ele>
        <time>2020-12-20T08:27:40Z</time>
      </trkpt>
      <trkpt lat="49.29767" lon="-0.29973">
        <ele>4.3</ele>
        <time>2020-12-20T08:27:42Z</time>
      </trkpt>
      <trkpt lat="49.29766" lon="-0.29971">
        <ele>4.3</ele>
        <time>2020-12-20T08:27:44Z</time>
      </trkpt>
      <trkpt lat="49.29766" lon="-0.29969">
        <ele>4.3</ele>
        <time>2020-12-20T08:27:45Z</time>
      </trkpt>
      <trkpt lat="49.29765" lon="-0.29966">
        <ele>4.3</ele>
        <time>2020-12-20T08:27:46Z</time>
      </trkpt>
      <trkpt lat="49.29765" lon="-0.29964">
        <ele>4.3</ele>
        <time>2020-12-20T08:27:47Z</time>
      </trkpt>
      <trkpt lat="49.29764" lon="-0.29963">
        <ele>4.4</ele>
        <time>2020-12-20T08:27:48Z</time>
      </trkpt>
      <trkpt lat="49.29764" lon="-0.29961">
        <ele>4.4</ele>
        <time>2020-12-20T08:27:49Z</time>
      </trkpt>
      <trkpt lat="49.29764" lon="-0.29958">
        <ele>4.4</ele>
        <time>2020-12-20T08:27:51Z</time>
      </trkpt>
      <trkpt lat="49.29763" lon="-0.29956">
        <ele>4.4</ele>
        <time>2020-12-20T08:27:52Z</time>
      </trkpt>
      <trkpt lat="49.29763" lon="-0.29953">
        <ele>4.4</ele>
        <time>2020-12-20T08:27:53Z</time>
      </trkpt>
      <trkpt lat="49.29762" lon="-0.29948">
        <ele>4.4</ele>
        <time>2020-12-20T08:27:54Z</time>
      </trkpt>
      <trkpt lat="49.29762" lon="-0.29946">
        <ele>4.4</ele>
        <time>2020-12-20T08:27:56Z</time>
      </trkpt>
      <trkpt lat="49.29761" lon="-0.29944">
        <ele>4.4</ele>
        <time>2020-12-20T08:27:57Z</time>
      </trkpt>
      <trkpt lat="49.29761" lon="-0.29941">
        <ele>4.4</ele>
        <time>2020-12-20T08:27:58Z</time>
      </trkpt>
      <trkpt lat="49.2976" lon="-0.29939">
        <ele>4.4</ele>
        <time>2020-12-20T08:27:59Z</time>
      </trkpt>
      <trkpt lat="49.29759" lon="-0.29934">
        <ele>4.4</ele>
        <time>2020-12-20T08:28:01Z</time>
      </trkpt>
      <trkpt lat="49.29758" lon="-0.2993">
        <ele>4.4</ele>
        <time>2020-12-20T08:28:03Z</time>
      </trkpt>
      <trkpt lat="49.29757" lon="-0.29928">
        <ele>4.4</ele>
        <time>2020-12-20T08:28:04Z</time>
      </trkpt>
      <trkpt lat="49.29757" lon="-0.29926">
        <ele>4.5</ele>
        <time>2020-12-20T08:28:05Z</time>
      </trkpt>
      <trkpt lat="49.29756" lon="-0.29922">
        <ele>4.5</ele>
        <time>2020-12-20T08:28:07Z</time>
      </trkpt>
      <trkpt lat="49.29755" lon="-0.2992">
        <ele>4.5</ele>
        <time>2020-12-20T08:28:08Z</time>
      </trkpt>
      <trkpt lat="49.29754" lon="-0.29915">
        <ele>4.5</ele>
        <time>2020-12-20T08:28:10Z</time>
      </trkpt>
      <trkpt lat="49.29753" lon="-0.29914">
        <ele>4.5</ele>
        <time>2020-12-20T08:28:11Z</time>
      </trkpt>
      <trkpt lat="49.29753" lon="-0.29911">
        <ele>4.5</ele>
        <time>2020-12-20T08:28:12Z</time>
      </trkpt>
      <trkpt lat="49.29752" lon="-0.29908">
        <ele>4.5</ele>
        <time>2020-12-20T08:28:14Z</time>
      </trkpt>
      <trkpt lat="49.29751" lon="-0.29904">
        <ele>4.5</ele>
        <time>2020-12-20T08:28:15Z</time>
      </trkpt>
      <trkpt lat="49.29749" lon="-0.29899">
        <ele>4.5</ele>
        <time>2020-12-20T08:28:17Z</time>
      </trkpt>
      <trkpt lat="49.29748" lon="-0.29894">
        <ele>4.5</ele>
        <time>2020-12-20T08:28:18Z</time>
      </trkpt>
      <trkpt lat="49.29747" lon="-0.29888">
        <ele>4.5</ele>
        <time>2020-12-20T08:28:20Z</time>
      </trkpt>
      <trkpt lat="49.29746" lon="-0.29886">
        <ele>4.5</ele>
        <time>2020-12-20T08:28:21Z</time>
      </trkpt>
      <trkpt lat="49.29745" lon="-0.29881">
        <ele>4.5</ele>
        <time>2020-12-20T08:28:22Z</time>
      </trkpt>
      <trkpt lat="49.29745" lon="-0.2988">
        <ele>4.5</ele>
        <time>2020-12-20T08:28:23Z</time>
      </trkpt>
      <trkpt lat="49.29744" lon="-0.29875">
        <ele>4.5</ele>
        <time>2020-12-20T08:28:25Z</time>
      </trkpt>
      <trkpt lat="49.29743" lon="-0.29874">
        <ele>4.5</ele>
        <time>2020-12-20T08:28:26Z</time>
      </trkpt>
      <trkpt lat="49.29742" lon="-0.2987">
        <ele>4.5</ele>
        <time>2020-12-20T08:28:27Z</time>
      </trkpt>
      <trkpt lat="49.29741" lon="-0.29867">
        <ele>4.5</ele>
        <time>2020-12-20T08:28:28Z</time>
      </trkpt>
      <trkpt lat="49.2974" lon="-0.29863">
        <ele>4.5</ele>
        <time>2020-12-20T08:28:30Z</time>
      </trkpt>
      <trkpt lat="49.29738" lon="-0.29857">
        <ele>4.5</ele>
        <time>2020-12-20T08:28:32Z</time>
      </trkpt>
      <trkpt lat="49.29738" lon="-0.29856">
        <ele>4.5</ele>
        <time>2020-12-20T08:28:33Z</time>
      </trkpt>
      <trkpt lat="49.29737" lon="-0.29854">
        <ele>4.5</ele>
        <time>2020-12-20T08:28:34Z</time>
      </trkpt>
      <trkpt lat="49.29736" lon="-0.29849">
        <ele>4.5</ele>
        <time>2020-12-20T08:28:36Z</time>
      </trkpt>
      <trkpt lat="49.29735" lon="-0.29847">
        <ele>4.5</ele>
        <time>2020-12-20T08:28:37Z</time>
      </trkpt>
      <trkpt lat="49.29734" lon="-0.29841">
        <ele>4.5</ele>
        <time>2020-12-20T08:28:39Z</time>
      </trkpt>
      <trkpt lat="49.29733" lon="-0.2984">
        <ele>4.5</ele>
        <time>2020-12-20T08:28:40Z</time>
      </trkpt>
      <trkpt lat="49.29732" lon="-0.29834">
        <ele>4.5</ele>
        <time>2020-12-20T08:28:42Z</time>
      </trkpt>
      <trkpt lat="49.29731" lon="-0.29832">
        <ele>4.5</ele>
        <time>2020-12-20T08:28:43Z</time>
      </trkpt>
      <trkpt lat="49.2973" lon="-0.29828">
        <ele>4.5</ele>
        <time>2020-12-20T08:28:44Z</time>
      </trkpt>
      <trkpt lat="49.29729" lon="-0.29823">
        <ele>4.5</ele>
        <time>2020-12-20T08:28:45Z</time>
      </trkpt>
      <trkpt lat="49.29728" lon="-0.29821">
        <ele>4.5</ele>
        <time>2020-12-20T08:28:46Z</time>
      </trkpt>
      <trkpt lat="49.29727" lon="-0.29817">
        <ele>4.5</ele>
        <time>2020-12-20T08:28:48Z</time>
      </trkpt>
      <trkpt lat="49.29726" lon="-0.29815">
        <ele>4.5</ele>
        <time>2020-12-20T08:28:49Z</time>
      </trkpt>
      <trkpt lat="49.29725" lon="-0.29811">
        <ele>4.5</ele>
        <time>2020-12-20T08:28:50Z</time>
      </trkpt>
      <trkpt lat="49.29724" lon="-0.29808">
        <ele>4.5</ele>
        <time>2020-12-20T08:28:51Z</time>
      </trkpt>
      <trkpt lat="49.29724" lon="-0.29805">
        <ele>4.5</ele>
        <time>2020-12-20T08:28:53Z</time>
      </trkpt>
      <trkpt lat="49.29723" lon="-0.298">
        <ele>4.5</ele>
        <time>2020-12-20T08:28:54Z</time>
      </trkpt>
      <trkpt lat="49.29722" lon="-0.29798">
        <ele>4.5</ele>
        <time>2020-12-20T08:28:55Z</time>
      </trkpt>
      <trkpt lat="49.29721" lon="-0.29794">
        <ele>4.5</ele>
        <time>2020-12-20T08:28:56Z</time>
      </trkpt>
      <trkpt lat="49.29721" lon="-0.29792">
        <ele>4.5</ele>
        <time>2020-12-20T08:28:57Z</time>
      </trkpt>
      <trkpt lat="49.2972" lon="-0.2979">
        <ele>4.5</ele>
        <time>2020-12-20T08:28:59Z</time>
      </trkpt>
      <trkpt lat="49.29719" lon="-0.29788">
        <ele>4.5</ele>
        <time>2020-12-20T08:29:00Z</time>
      </trkpt>
      <trkpt lat="49.29717" lon="-0.29783">
        <ele>4.5</ele>
        <time>2020-12-20T08:29:02Z</time>
      </trkpt>
      <trkpt lat="49.29717" lon="-0.29781">
        <ele>4.5</ele>
        <time>2020-12-20T08:29:03Z</time>
      </trkpt>
      <trkpt lat="49.29716" lon="-0.29779">
        <ele>4.5</ele>
        <time>2020-12-20T08:29:05Z</time>
      </trkpt>
      <trkpt lat="49.29715" lon="-0.29778">
        <ele>4.5</ele>
        <time>2020-12-20T08:29:06Z</time>
      </trkpt>
      <trkpt lat="49.29713" lon="-0.29775">
        <ele>4.5</ele>
        <time>2020-12-20T08:29:07Z</time>
      </trkpt>
      <trkpt lat="49.29712" lon="-0.29774">
        <ele>4.5</ele>
        <time>2020-12-20T08:29:08Z</time>
      </trkpt>
      <trkpt lat="49.29711" lon="-0.29772">
        <ele>4.5</ele>
        <time>2020-12-20T08:29:09Z</time>
      </trkpt>
      <trkpt lat="49.29711" lon="-0.29769">
        <ele>4.5</ele>
        <time>2020-12-20T08:29:10Z</time>
      </trkpt>
      <trkpt lat="49.2971" lon="-0.29765">
        <ele>4.5</ele>
        <time>2020-12-20T08:29:11Z</time>
      </trkpt>
      <trkpt lat="49.2971" lon="-0.29764">
        <ele>4.5</ele>
        <time>2020-12-20T08:29:13Z</time>
      </trkpt>
      <trkpt lat="49.29709" lon="-0.29763">
        <ele>4.5</ele>
        <time>2020-12-20T08:29:14Z</time>
      </trkpt>
      <trkpt lat="49.29709" lon="-0.29763">
        <ele>4.5</ele>
        <time>2020-12-20T08:29:15Z</time>
      </trkpt>
      <trkpt lat="49.29709" lon="-0.29762">
        <ele>4.5</ele>
        <time>2020-12-20T08:29:17Z</time>
      </trkpt>
      <trkpt lat="49.29708" lon="-0.29761">
        <ele>4.5</ele>
        <time>2020-12-20T08:29:19Z</time>
      </trkpt>
      <trkpt lat="49.29708" lon="-0.29762">
        <ele>4.5</ele>
        <time>2020-12-20T08:29:21Z</time>
      </trkpt>
      <trkpt lat="49.29708" lon="-0.29761">
        <ele>4.5</ele>
        <time>2020-12-20T08:29:22Z</time>
      </trkpt>
      <trkpt lat="49.29708" lon="-0.29759">
        <ele>4.4</ele>
        <time>2020-12-20T08:29:23Z</time>
      </trkpt>
      <trkpt lat="49.29707" lon="-0.29755">
        <ele>3.8</ele>
        <time>2020-12-20T08:29:24Z</time>
      </trkpt>
      <trkpt lat="49.29707" lon="-0.29753">
        <ele>3.8</ele>
        <time>2020-12-20T08:29:26Z</time>
      </trkpt>
      <trkpt lat="49.29706" lon="-0.29751">
        <ele>3.8</ele>
        <time>2020-12-20T08:29:27Z</time>
      </trkpt>
      <trkpt lat="49.29706" lon="-0.29749">
        <ele>3.8</ele>
        <time>2020-12-20T08:29:28Z</time>
      </trkpt>
      <trkpt lat="49.29705" lon="-0.29744">
        <ele>3.8</ele>
        <time>2020-12-20T08:29:30Z</time>
      </trkpt>
      <trkpt lat="49.29704" lon="-0.29743">
        <ele>3.8</ele>
        <time>2020-12-20T08:29:32Z</time>
      </trkpt>
      <trkpt lat="49.29704" lon="-0.29741">
        <ele>3.7</ele>
        <time>2020-12-20T08:29:33Z</time>
      </trkpt>
      <trkpt lat="49.29703" lon="-0.29739">
        <ele>3.7</ele>
        <time>2020-12-20T08:29:34Z</time>
      </trkpt>
      <trkpt lat="49.29702" lon="-0.29735">
        <ele>3.7</ele>
        <time>2020-12-20T08:29:36Z</time>
      </trkpt>
      <trkpt lat="49.29702" lon="-0.29731">
        <ele>3.7</ele>
        <time>2020-12-20T08:29:38Z</time>
      </trkpt>
      <trkpt lat="49.29701" lon="-0.29729">
        <ele>3.7</ele>
        <time>2020-12-20T08:29:39Z</time>
      </trkpt>
      <trkpt lat="49.297" lon="-0.29724">
        <ele>3.7</ele>
        <time>2020-12-20T08:29:41Z</time>
      </trkpt>
      <trkpt lat="49.29698" lon="-0.29719">
        <ele>3.6</ele>
        <time>2020-12-20T08:29:42Z</time>
      </trkpt>
      <trkpt lat="49.29698" lon="-0.29715">
        <ele>3.6</ele>
        <time>2020-12-20T08:29:43Z</time>
      </trkpt>
      <trkpt lat="49.29697" lon="-0.29711">
        <ele>3.6</ele>
        <time>2020-12-20T08:29:45Z</time>
      </trkpt>
      <trkpt lat="49.29696" lon="-0.29705">
        <ele>3.6</ele>
        <time>2020-12-20T08:29:46Z</time>
      </trkpt>
      <trkpt lat="49.29696" lon="-0.29703">
        <ele>3.6</ele>
        <time>2020-12-20T08:29:47Z</time>
      </trkpt>
      <trkpt lat="49.29695" lon="-0.29698">
        <ele>3.5</ele>
        <time>2020-12-20T08:29:48Z</time>
      </trkpt>
      <trkpt lat="49.29694" lon="-0.29696">
        <ele>3.5</ele>
        <time>2020-12-20T08:29:49Z</time>
      </trkpt>
      <trkpt lat="49.29693" lon="-0.2969">
        <ele>3.5</ele>
        <time>2020-12-20T08:29:51Z</time>
      </trkpt>
      <trkpt lat="49.29692" lon="-0.29687">
        <ele>3.5</ele>
        <time>2020-12-20T08:29:52Z</time>
      </trkpt>
      <trkpt lat="49.29692" lon="-0.29685">
        <ele>3.5</ele>
        <time>2020-12-20T08:29:55Z</time>
      </trkpt>
      <trkpt lat="49.29691" lon="-0.29682">
        <ele>3.5</ele>
        <time>2020-12-20T08:29:56Z</time>
      </trkpt>
      <trkpt lat="49.2969" lon="-0.2968">
        <ele>3.5</ele>
        <time>2020-12-20T08:29:58Z</time>
      </trkpt>
      <trkpt lat="49.29689" lon="-0.29678">
        <ele>3.4</ele>
        <time>2020-12-20T08:29:59Z</time>
      </trkpt>
      <trkpt lat="49.29688" lon="-0.29673">
        <ele>3.4</ele>
        <time>2020-12-20T08:30:01Z</time>
      </trkpt>
      <trkpt lat="49.29688" lon="-0.29671">
        <ele>3.4</ele>
        <time>2020-12-20T08:30:02Z</time>
      </trkpt>
      <trkpt lat="49.29688" lon="-0.29669">
        <ele>3.4</ele>
        <time>2020-12-20T08:30:03Z</time>
      </trkpt>
      <trkpt lat="49.29687" lon="-0.29665">
        <ele>3.4</ele>
        <time>2020-12-20T08:30:05Z</time>
      </trkpt>
      <trkpt lat="49.29686" lon="-0.2966">
        <ele>3.4</ele>
        <time>2020-12-20T08:30:07Z</time>
      </trkpt>
      <trkpt lat="49.29685" lon="-0.29658">
        <ele>3.4</ele>
        <time>2020-12-20T08:30:08Z</time>
      </trkpt>
      <trkpt lat="49.29684" lon="-0.29656">
        <ele>3.4</ele>
        <time>2020-12-20T08:30:09Z</time>
      </trkpt>
      <trkpt lat="49.29683" lon="-0.2965">
        <ele>3.4</ele>
        <time>2020-12-20T08:30:11Z</time>
      </trkpt>
      <trkpt lat="49.2968" lon="-0.29642">
        <ele>3.4</ele>
        <time>2020-12-20T08:30:13Z</time>
      </trkpt>
      <trkpt lat="49.29679" lon="-0.29639">
        <ele>3.4</ele>
        <time>2020-12-20T08:30:14Z</time>
      </trkpt>
      <trkpt lat="49.29677" lon="-0.29634">
        <ele>3.4</ele>
        <time>2020-12-20T08:30:16Z</time>
      </trkpt>
      <trkpt lat="49.29676" lon="-0.29629">
        <ele>3.4</ele>
        <time>2020-12-20T08:30:17Z</time>
      </trkpt>
      <trkpt lat="49.29675" lon="-0.29628">
        <ele>3.4</ele>
        <time>2020-12-20T08:30:18Z</time>
      </trkpt>
      <trkpt lat="49.29674" lon="-0.29625">
        <ele>3.4</ele>
        <time>2020-12-20T08:30:19Z</time>
      </trkpt>
      <trkpt lat="49.29672" lon="-0.2962">
        <ele>3.3</ele>
        <time>2020-12-20T08:30:21Z</time>
      </trkpt>
      <trkpt lat="49.29671" lon="-0.29615">
        <ele>3.3</ele>
        <time>2020-12-20T08:30:23Z</time>
      </trkpt>
      <trkpt lat="49.2967" lon="-0.29612">
        <ele>3.3</ele>
        <time>2020-12-20T08:30:24Z</time>
      </trkpt>
      <trkpt lat="49.29668" lon="-0.29606">
        <ele>3.3</ele>
        <time>2020-12-20T08:30:26Z</time>
      </trkpt>
      <trkpt lat="49.29668" lon="-0.29603">
        <ele>3.3</ele>
        <time>2020-12-20T08:30:27Z</time>
      </trkpt>
      <trkpt lat="49.29666" lon="-0.29597">
        <ele>3.3</ele>
        <time>2020-12-20T08:30:29Z</time>
      </trkpt>
      <trkpt lat="49.29665" lon="-0.29595">
        <ele>3.3</ele>
        <time>2020-12-20T08:30:30Z</time>
      </trkpt>
      <trkpt lat="49.29664" lon="-0.29592">
        <ele>3.3</ele>
        <time>2020-12-20T08:30:31Z</time>
      </trkpt>
      <trkpt lat="49.29648" lon="-0.29579">
        <ele>3.3</ele>
        <time>2020-12-20T08:30:33Z</time>
      </trkpt>
      <trkpt lat="49.29661" lon="-0.29586">
        <ele>3.3</ele>
        <time>2020-12-20T08:30:35Z</time>
      </trkpt>
      <trkpt lat="49.29661" lon="-0.29584">
        <ele>3.3</ele>
        <time>2020-12-20T08:30:36Z</time>
      </trkpt>
      <trkpt lat="49.29661" lon="-0.29583">
        <ele>3.3</ele>
        <time>2020-12-20T08:30:38Z</time>
      </trkpt>
      <trkpt lat="49.2966" lon="-0.29581">
        <ele>3.3</ele>
        <time>2020-12-20T08:30:39Z</time>
      </trkpt>
      <trkpt lat="49.29659" lon="-0.29579">
        <ele>3.3</ele>
        <time>2020-12-20T08:30:40Z</time>
      </trkpt>
      <trkpt lat="49.29659" lon="-0.29577">
        <ele>3.3</ele>
        <time>2020-12-20T08:30:41Z</time>
      </trkpt>
      <trkpt lat="49.29658" lon="-0.29572">
        <ele>3.3</ele>
        <time>2020-12-20T08:30:43Z</time>
      </trkpt>
      <trkpt lat="49.29657" lon="-0.29571">
        <ele>3.3</ele>
        <time>2020-12-20T08:30:44Z</time>
      </trkpt>
      <trkpt lat="49.29656" lon="-0.29566">
        <ele>3.3</ele>
        <time>2020-12-20T08:30:45Z</time>
      </trkpt>
      <trkpt lat="49.29655" lon="-0.29564">
        <ele>3.3</ele>
        <time>2020-12-20T08:30:46Z</time>
      </trkpt>
      <trkpt lat="49.29653" lon="-0.29558">
        <ele>3.3</ele>
        <time>2020-12-20T08:30:48Z</time>
      </trkpt>
      <trkpt lat="49.29651" lon="-0.29551">
        <ele>3.3</ele>
        <time>2020-12-20T08:30:50Z</time>
      </trkpt>
      <trkpt lat="49.2965" lon="-0.29549">
        <ele>3.3</ele>
        <time>2020-12-20T08:30:51Z</time>
      </trkpt>
      <trkpt lat="49.29649" lon="-0.29546">
        <ele>3.3</ele>
        <time>2020-12-20T08:30:52Z</time>
      </trkpt>
      <trkpt lat="49.29647" lon="-0.29541">
        <ele>3.3</ele>
        <time>2020-12-20T08:30:54Z</time>
      </trkpt>
      <trkpt lat="49.29645" lon="-0.29536">
        <ele>3.3</ele>
        <time>2020-12-20T08:30:55Z</time>
      </trkpt>
      <trkpt lat="49.29643" lon="-0.2953">
        <ele>3.3</ele>
        <time>2020-12-20T08:30:57Z</time>
      </trkpt>
      <trkpt lat="49.29641" lon="-0.29526">
        <ele>3.3</ele>
        <time>2020-12-20T08:30:58Z</time>
      </trkpt>
      <trkpt lat="49.2964" lon="-0.29521">
        <ele>3.3</ele>
        <time>2020-12-20T08:31:00Z</time>
      </trkpt>
      <trkpt lat="49.29638" lon="-0.29515">
        <ele>3.3</ele>
        <time>2020-12-20T08:31:02Z</time>
      </trkpt>
      <trkpt lat="49.29637" lon="-0.29513">
        <ele>3.3</ele>
        <time>2020-12-20T08:31:03Z</time>
      </trkpt>
      <trkpt lat="49.29636" lon="-0.29509">
        <ele>3.3</ele>
        <time>2020-12-20T08:31:04Z</time>
      </trkpt>
      <trkpt lat="49.29635" lon="-0.29503">
        <ele>3.3</ele>
        <time>2020-12-20T08:31:06Z</time>
      </trkpt>
      <trkpt lat="49.29634" lon="-0.29501">
        <ele>3.3</ele>
        <time>2020-12-20T08:31:08Z</time>
      </trkpt>
      <trkpt lat="49.29633" lon="-0.295">
        <ele>3.3</ele>
        <time>2020-12-20T08:31:09Z</time>
      </trkpt>
      <trkpt lat="49.29632" lon="-0.29496">
        <ele>3.3</ele>
        <time>2020-12-20T08:31:10Z</time>
      </trkpt>
      <trkpt lat="49.29632" lon="-0.29494">
        <ele>3.3</ele>
        <time>2020-12-20T08:31:12Z</time>
      </trkpt>
      <trkpt lat="49.2963" lon="-0.29489">
        <ele>3.3</ele>
        <time>2020-12-20T08:31:13Z</time>
      </trkpt>
      <trkpt lat="49.2963" lon="-0.29487">
        <ele>3.3</ele>
        <time>2020-12-20T08:31:14Z</time>
      </trkpt>
      <trkpt lat="49.29629" lon="-0.29482">
        <ele>3.3</ele>
        <time>2020-12-20T08:31:15Z</time>
      </trkpt>
      <trkpt lat="49.29628" lon="-0.29478">
        <ele>3.3</ele>
        <time>2020-12-20T08:31:16Z</time>
      </trkpt>
      <trkpt lat="49.29627" lon="-0.29473">
        <ele>3.3</ele>
        <time>2020-12-20T08:31:18Z</time>
      </trkpt>
      <trkpt lat="49.29626" lon="-0.29467">
        <ele>3.3</ele>
        <time>2020-12-20T08:31:20Z</time>
      </trkpt>
      <trkpt lat="49.29625" lon="-0.29465">
        <ele>3.3</ele>
        <time>2020-12-20T08:31:21Z</time>
      </trkpt>
      <trkpt lat="49.29625" lon="-0.29462">
        <ele>3.3</ele>
        <time>2020-12-20T08:31:22Z</time>
      </trkpt>
      <trkpt lat="49.29624" lon="-0.29457">
        <ele>3.3</ele>
        <time>2020-12-20T08:31:24Z</time>
      </trkpt>
      <trkpt lat="49.29623" lon="-0.29456">
        <ele>3.3</ele>
        <time>2020-12-20T08:31:25Z</time>
      </trkpt>
      <trkpt lat="49.29623" lon="-0.29454">
        <ele>3.3</ele>
        <time>2020-12-20T08:31:26Z</time>
      </trkpt>
      <trkpt lat="49.29622" lon="-0.29451">
        <ele>3.3</ele>
        <time>2020-12-20T08:31:28Z</time>
      </trkpt>
      <trkpt lat="49.29622" lon="-0.29448">
        <ele>3.3</ele>
        <time>2020-12-20T08:31:29Z</time>
      </trkpt>
      <trkpt lat="49.2962" lon="-0.29445">
        <ele>3.3</ele>
        <time>2020-12-20T08:31:31Z</time>
      </trkpt>
      <trkpt lat="49.29619" lon="-0.29439">
        <ele>3.3</ele>
        <time>2020-12-20T08:31:32Z</time>
      </trkpt>
      <trkpt lat="49.29619" lon="-0.29438">
        <ele>3.3</ele>
        <time>2020-12-20T08:31:33Z</time>
      </trkpt>
      <trkpt lat="49.29618" lon="-0.29432">
        <ele>3.3</ele>
        <time>2020-12-20T08:31:35Z</time>
      </trkpt>
      <trkpt lat="49.29616" lon="-0.29427">
        <ele>3.3</ele>
        <time>2020-12-20T08:31:37Z</time>
      </trkpt>
      <trkpt lat="49.29615" lon="-0.29422">
        <ele>3.3</ele>
        <time>2020-12-20T08:31:38Z</time>
      </trkpt>
      <trkpt lat="49.29614" lon="-0.29421">
        <ele>3.3</ele>
        <time>2020-12-20T08:31:39Z</time>
      </trkpt>
      <trkpt lat="49.29613" lon="-0.29414">
        <ele>3.3</ele>
        <time>2020-12-20T08:31:41Z</time>
      </trkpt>
      <trkpt lat="49.29612" lon="-0.29412">
        <ele>3.3</ele>
        <time>2020-12-20T08:31:43Z</time>
      </trkpt>
      <trkpt lat="49.29611" lon="-0.2941">
        <ele>3.3</ele>
        <time>2020-12-20T08:31:44Z</time>
      </trkpt>
      <trkpt lat="49.29611" lon="-0.29407">
        <ele>3.3</ele>
        <time>2020-12-20T08:31:45Z</time>
      </trkpt>
      <trkpt lat="49.2961" lon="-0.29405">
        <ele>3.3</ele>
        <time>2020-12-20T08:31:46Z</time>
      </trkpt>
      <trkpt lat="49.29609" lon="-0.294">
        <ele>3.3</ele>
        <time>2020-12-20T08:31:48Z</time>
      </trkpt>
      <trkpt lat="49.29608" lon="-0.29398">
        <ele>3.3</ele>
        <time>2020-12-20T08:31:49Z</time>
      </trkpt>
      <trkpt lat="49.29607" lon="-0.29393">
        <ele>3.3</ele>
        <time>2020-12-20T08:31:50Z</time>
      </trkpt>
      <trkpt lat="49.29606" lon="-0.29388">
        <ele>3.3</ele>
        <time>2020-12-20T08:31:52Z</time>
      </trkpt>
      <trkpt lat="49.29605" lon="-0.29384">
        <ele>3.3</ele>
        <time>2020-12-20T08:31:53Z</time>
      </trkpt>
      <trkpt lat="49.29603" lon="-0.29378">
        <ele>3.3</ele>
        <time>2020-12-20T08:31:54Z</time>
      </trkpt>
      <trkpt lat="49.29602" lon="-0.29374">
        <ele>3.3</ele>
        <time>2020-12-20T08:31:56Z</time>
      </trkpt>
      <trkpt lat="49.29602" lon="-0.29372">
        <ele>3.3</ele>
        <time>2020-12-20T08:31:57Z</time>
      </trkpt>
      <trkpt lat="49.296" lon="-0.29366">
        <ele>3.3</ele>
        <time>2020-12-20T08:31:59Z</time>
      </trkpt>
      <trkpt lat="49.296" lon="-0.29365">
        <ele>3.3</ele>
        <time>2020-12-20T08:32:00Z</time>
      </trkpt>
      <trkpt lat="49.29598" lon="-0.29361">
        <ele>3.4</ele>
        <time>2020-12-20T08:32:02Z</time>
      </trkpt>
      <trkpt lat="49.29598" lon="-0.2936">
        <ele>3.4</ele>
        <time>2020-12-20T08:32:03Z</time>
      </trkpt>
      <trkpt lat="49.29596" lon="-0.29356">
        <ele>3.4</ele>
        <time>2020-12-20T08:32:04Z</time>
      </trkpt>
      <trkpt lat="49.29596" lon="-0.29354">
        <ele>3.4</ele>
        <time>2020-12-20T08:32:05Z</time>
      </trkpt>
      <trkpt lat="49.29595" lon="-0.29352">
        <ele>3.4</ele>
        <time>2020-12-20T08:32:07Z</time>
      </trkpt>
      <trkpt lat="49.29595" lon="-0.2935">
        <ele>3.4</ele>
        <time>2020-12-20T08:32:08Z</time>
      </trkpt>
      <trkpt lat="49.29593" lon="-0.29346">
        <ele>3.4</ele>
        <time>2020-12-20T08:32:09Z</time>
      </trkpt>
      <trkpt lat="49.29593" lon="-0.29345">
        <ele>3.4</ele>
        <time>2020-12-20T08:32:10Z</time>
      </trkpt>
      <trkpt lat="49.29592" lon="-0.29342">
        <ele>3.4</ele>
        <time>2020-12-20T08:32:11Z</time>
      </trkpt>
      <trkpt lat="49.29591" lon="-0.2934">
        <ele>3.4</ele>
        <time>2020-12-20T08:32:12Z</time>
      </trkpt>
      <trkpt lat="49.2959" lon="-0.29338">
        <ele>3.4</ele>
        <time>2020-12-20T08:32:14Z</time>
      </trkpt>
      <trkpt lat="49.29589" lon="-0.29336">
        <ele>3.4</ele>
        <time>2020-12-20T08:32:15Z</time>
      </trkpt>
      <trkpt lat="49.29586" lon="-0.29333">
        <ele>3.4</ele>
        <time>2020-12-20T08:32:16Z</time>
      </trkpt>
      <trkpt lat="49.29585" lon="-0.29332">
        <ele>3.4</ele>
        <time>2020-12-20T08:32:17Z</time>
      </trkpt>
      <trkpt lat="49.29585" lon="-0.2933">
        <ele>3.4</ele>
        <time>2020-12-20T08:32:18Z</time>
      </trkpt>
      <trkpt lat="49.29587" lon="-0.29325">
        <ele>3.4</ele>
        <time>2020-12-20T08:32:20Z</time>
      </trkpt>
      <trkpt lat="49.29588" lon="-0.29318">
        <ele>3.4</ele>
        <time>2020-12-20T08:32:22Z</time>
      </trkpt>
      <trkpt lat="49.29589" lon="-0.29316">
        <ele>3.4</ele>
        <time>2020-12-20T08:32:23Z</time>
      </trkpt>
      <trkpt lat="49.29589" lon="-0.29314">
        <ele>3.4</ele>
        <time>2020-12-20T08:32:24Z</time>
      </trkpt>
      <trkpt lat="49.29589" lon="-0.29311">
        <ele>3.4</ele>
        <time>2020-12-20T08:32:25Z</time>
      </trkpt>
      <trkpt lat="49.29589" lon="-0.29309">
        <ele>3.4</ele>
        <time>2020-12-20T08:32:27Z</time>
      </trkpt>
      <trkpt lat="49.29589" lon="-0.29306">
        <ele>3.4</ele>
        <time>2020-12-20T08:32:28Z</time>
      </trkpt>
      <trkpt lat="49.29589" lon="-0.29304">
        <ele>3.4</ele>
        <time>2020-12-20T08:32:29Z</time>
      </trkpt>
      <trkpt lat="49.29588" lon="-0.29301">
        <ele>3.4</ele>
        <time>2020-12-20T08:32:30Z</time>
      </trkpt>
      <trkpt lat="49.29588" lon="-0.29298">
        <ele>3.4</ele>
        <time>2020-12-20T08:32:32Z</time>
      </trkpt>
      <trkpt lat="49.29587" lon="-0.29293">
        <ele>3.4</ele>
        <time>2020-12-20T08:32:34Z</time>
      </trkpt>
      <trkpt lat="49.29586" lon="-0.29289">
        <ele>3.4</ele>
        <time>2020-12-20T08:32:35Z</time>
      </trkpt>
      <trkpt lat="49.29586" lon="-0.29286">
        <ele>3.4</ele>
        <time>2020-12-20T08:32:36Z</time>
      </trkpt>
      <trkpt lat="49.29585" lon="-0.2928">
        <ele>3.4</ele>
        <time>2020-12-20T08:32:38Z</time>
      </trkpt>
      <trkpt lat="49.29583" lon="-0.29275">
        <ele>3.4</ele>
        <time>2020-12-20T08:32:40Z</time>
      </trkpt>
      <trkpt lat="49.29581" lon="-0.2927">
        <ele>3.4</ele>
        <time>2020-12-20T08:32:42Z</time>
      </trkpt>
      <trkpt lat="49.29581" lon="-0.29268">
        <ele>3.4</ele>
        <time>2020-12-20T08:32:43Z</time>
      </trkpt>
      <trkpt lat="49.29579" lon="-0.29263">
        <ele>3.4</ele>
        <time>2020-12-20T08:32:44Z</time>
      </trkpt>
      <trkpt lat="49.29577" lon="-0.29256">
        <ele>3.4</ele>
        <time>2020-12-20T08:32:46Z</time>
      </trkpt>
      <trkpt lat="49.29576" lon="-0.29254">
        <ele>3.4</ele>
        <time>2020-12-20T08:32:47Z</time>
      </trkpt>
      <trkpt lat="49.29575" lon="-0.29251">
        <ele>3.4</ele>
        <time>2020-12-20T08:32:48Z</time>
      </trkpt>
      <trkpt lat="49.29573" lon="-0.29244">
        <ele>3.4</ele>
        <time>2020-12-20T08:32:50Z</time>
      </trkpt>
      <trkpt lat="49.29572" lon="-0.2924">
        <ele>3.4</ele>
        <time>2020-12-20T08:32:51Z</time>
      </trkpt>
      <trkpt lat="49.2957" lon="-0.29235">
        <ele>3.4</ele>
        <time>2020-12-20T08:32:53Z</time>
      </trkpt>
      <trkpt lat="49.29569" lon="-0.29231">
        <ele>3.4</ele>
        <time>2020-12-20T08:32:54Z</time>
      </trkpt>
      <trkpt lat="49.29568" lon="-0.29226">
        <ele>3.4</ele>
        <time>2020-12-20T08:32:56Z</time>
      </trkpt>
      <trkpt lat="49.29567" lon="-0.29221">
        <ele>3.4</ele>
        <time>2020-12-20T08:32:57Z</time>
      </trkpt>
      <trkpt lat="49.29567" lon="-0.2922">
        <ele>3.4</ele>
        <time>2020-12-20T08:32:58Z</time>
      </trkpt>
      <trkpt lat="49.29566" lon="-0.29217">
        <ele>3.4</ele>
        <time>2020-12-20T08:32:59Z</time>
      </trkpt>
      <trkpt lat="49.29565" lon="-0.29214">
        <ele>3.4</ele>
        <time>2020-12-20T08:33:01Z</time>
      </trkpt>
      <trkpt lat="49.29564" lon="-0.29209">
        <ele>3.4</ele>
        <time>2020-12-20T08:33:02Z</time>
      </trkpt>
      <trkpt lat="49.29563" lon="-0.29207">
        <ele>3.4</ele>
        <time>2020-12-20T08:33:03Z</time>
      </trkpt>
      <trkpt lat="49.29561" lon="-0.29201">
        <ele>3.4</ele>
        <time>2020-12-20T08:33:05Z</time>
      </trkpt>
      <trkpt lat="49.2956" lon="-0.29195">
        <ele>3.4</ele>
        <time>2020-12-20T08:33:07Z</time>
      </trkpt>
      <trkpt lat="49.29558" lon="-0.2919">
        <ele>3.4</ele>
        <time>2020-12-20T08:33:09Z</time>
      </trkpt>
      <trkpt lat="49.29557" lon="-0.29185">
        <ele>3.4</ele>
        <time>2020-12-20T08:33:10Z</time>
      </trkpt>
      <trkpt lat="49.29556" lon="-0.29182">
        <ele>3.4</ele>
        <time>2020-12-20T08:33:11Z</time>
      </trkpt>
      <trkpt lat="49.29555" lon="-0.29176">
        <ele>3.4</ele>
        <time>2020-12-20T08:33:13Z</time>
      </trkpt>
      <trkpt lat="49.29554" lon="-0.29172">
        <ele>3.4</ele>
        <time>2020-12-20T08:33:14Z</time>
      </trkpt>
      <trkpt lat="49.29553" lon="-0.29167">
        <ele>3.4</ele>
        <time>2020-12-20T08:33:16Z</time>
      </trkpt>
      <trkpt lat="49.29552" lon="-0.29165">
        <ele>3.4</ele>
        <time>2020-12-20T08:33:17Z</time>
      </trkpt>
      <trkpt lat="49.29551" lon="-0.29161">
        <ele>3.4</ele>
        <time>2020-12-20T08:33:18Z</time>
      </trkpt>
      <trkpt lat="49.2955" lon="-0.29158">
        <ele>3.4</ele>
        <time>2020-12-20T08:33:19Z</time>
      </trkpt>
      <trkpt lat="49.29549" lon="-0.29155">
        <ele>3.4</ele>
        <time>2020-12-20T08:33:21Z</time>
      </trkpt>
      <trkpt lat="49.29548" lon="-0.29151">
        <ele>3.3</ele>
        <time>2020-12-20T08:33:22Z</time>
      </trkpt>
      <trkpt lat="49.29546" lon="-0.29146">
        <ele>3.3</ele>
        <time>2020-12-20T08:33:23Z</time>
      </trkpt>
      <trkpt lat="49.29546" lon="-0.29144">
        <ele>3.3</ele>
        <time>2020-12-20T08:33:24Z</time>
      </trkpt>
      <trkpt lat="49.29545" lon="-0.29141">
        <ele>3.3</ele>
        <time>2020-12-20T08:33:25Z</time>
      </trkpt>
      <trkpt lat="49.29543" lon="-0.29136">
        <ele>3.3</ele>
        <time>2020-12-20T08:33:27Z</time>
      </trkpt>
      <trkpt lat="49.29542" lon="-0.29132">
        <ele>3.3</ele>
        <time>2020-12-20T08:33:28Z</time>
      </trkpt>
      <trkpt lat="49.29541" lon="-0.29128">
        <ele>3.3</ele>
        <time>2020-12-20T08:33:29Z</time>
      </trkpt>
      <trkpt lat="49.29539" lon="-0.29124">
        <ele>3.3</ele>
        <time>2020-12-20T08:33:30Z</time>
      </trkpt>
      <trkpt lat="49.29538" lon="-0.29118">
        <ele>3.3</ele>
        <time>2020-12-20T08:33:32Z</time>
      </trkpt>
      <trkpt lat="49.29537" lon="-0.29116">
        <ele>3.3</ele>
        <time>2020-12-20T08:33:33Z</time>
      </trkpt>
      <trkpt lat="49.29536" lon="-0.29112">
        <ele>3.3</ele>
        <time>2020-12-20T08:33:34Z</time>
      </trkpt>
      <trkpt lat="49.29535" lon="-0.2911">
        <ele>3.3</ele>
        <time>2020-12-20T08:33:35Z</time>
      </trkpt>
      <trkpt lat="49.29534" lon="-0.29103">
        <ele>3.3</ele>
        <time>2020-12-20T08:33:37Z</time>
      </trkpt>
      <trkpt lat="49.29533" lon="-0.29101">
        <ele>3.3</ele>
        <time>2020-12-20T08:33:39Z</time>
      </trkpt>
      <trkpt lat="49.29532" lon="-0.29099">
        <ele>3.3</ele>
        <time>2020-12-20T08:33:40Z</time>
      </trkpt>
      <trkpt lat="49.29532" lon="-0.29096">
        <ele>3.3</ele>
        <time>2020-12-20T08:33:41Z</time>
      </trkpt>
      <trkpt lat="49.2953" lon="-0.29091">
        <ele>3.3</ele>
        <time>2020-12-20T08:33:43Z</time>
      </trkpt>
      <trkpt lat="49.29529" lon="-0.29087">
        <ele>3.3</ele>
        <time>2020-12-20T08:33:45Z</time>
      </trkpt>
      <trkpt lat="49.29528" lon="-0.29083">
        <ele>3.3</ele>
        <time>2020-12-20T08:33:47Z</time>
      </trkpt>
      <trkpt lat="49.29527" lon="-0.29077">
        <ele>3.3</ele>
        <time>2020-12-20T08:33:48Z</time>
      </trkpt>
      <trkpt lat="49.29526" lon="-0.29072">
        <ele>3.3</ele>
        <time>2020-12-20T08:33:49Z</time>
      </trkpt>
      <trkpt lat="49.29526" lon="-0.29071">
        <ele>3.3</ele>
        <time>2020-12-20T08:33:50Z</time>
      </trkpt>
      <trkpt lat="49.29525" lon="-0.29065">
        <ele>3.3</ele>
        <time>2020-12-20T08:33:52Z</time>
      </trkpt>
      <trkpt lat="49.29524" lon="-0.29064">
        <ele>3.3</ele>
        <time>2020-12-20T08:33:53Z</time>
      </trkpt>
      <trkpt lat="49.29523" lon="-0.29058">
        <ele>3.3</ele>
        <time>2020-12-20T08:33:54Z</time>
      </trkpt>
      <trkpt lat="49.29523" lon="-0.29056">
        <ele>3.3</ele>
        <time>2020-12-20T08:33:55Z</time>
      </trkpt>
      <trkpt lat="49.29522" lon="-0.29053">
        <ele>3.3</ele>
        <time>2020-12-20T08:33:56Z</time>
      </trkpt>
      <trkpt lat="49.29521" lon="-0.29049">
        <ele>3.3</ele>
        <time>2020-12-20T08:33:58Z</time>
      </trkpt>
      <trkpt lat="49.2952" lon="-0.29044">
        <ele>3.3</ele>
        <time>2020-12-20T08:33:59Z</time>
      </trkpt>
      <trkpt lat="49.29519" lon="-0.29039">
        <ele>3.3</ele>
        <time>2020-12-20T08:34:00Z</time>
      </trkpt>
      <trkpt lat="49.29518" lon="-0.29033">
        <ele>3.3</ele>
        <time>2020-12-20T08:34:02Z</time>
      </trkpt>
      <trkpt lat="49.29516" lon="-0.2903">
        <ele>3.3</ele>
        <time>2020-12-20T08:34:04Z</time>
      </trkpt>
      <trkpt lat="49.29515" lon="-0.29026">
        <ele>3.3</ele>
        <time>2020-12-20T08:34:05Z</time>
      </trkpt>
      <trkpt lat="49.29515" lon="-0.29024">
        <ele>3.3</ele>
        <time>2020-12-20T08:34:07Z</time>
      </trkpt>
      <trkpt lat="49.29514" lon="-0.29019">
        <ele>3.3</ele>
        <time>2020-12-20T08:34:08Z</time>
      </trkpt>
      <trkpt lat="49.29513" lon="-0.29017">
        <ele>3.3</ele>
        <time>2020-12-20T08:34:09Z</time>
      </trkpt>
      <trkpt lat="49.29512" lon="-0.29012">
        <ele>3.3</ele>
        <time>2020-12-20T08:34:10Z</time>
      </trkpt>
      <trkpt lat="49.29511" lon="-0.29008">
        <ele>3.3</ele>
        <time>2020-12-20T08:34:12Z</time>
      </trkpt>
      <trkpt lat="49.2951" lon="-0.29004">
        <ele>3.3</ele>
        <time>2020-12-20T08:34:13Z</time>
      </trkpt>
      <trkpt lat="49.29509" lon="-0.28999">
        <ele>3.3</ele>
        <time>2020-12-20T08:34:15Z</time>
      </trkpt>
      <trkpt lat="49.29509" lon="-0.28996">
        <ele>3.3</ele>
        <time>2020-12-20T08:34:16Z</time>
      </trkpt>
      <trkpt lat="49.29508" lon="-0.28992">
        <ele>3.3</ele>
        <time>2020-12-20T08:34:18Z</time>
      </trkpt>
      <trkpt lat="49.29507" lon="-0.28986">
        <ele>3.3</ele>
        <time>2020-12-20T08:34:20Z</time>
      </trkpt>
      <trkpt lat="49.29507" lon="-0.28983">
        <ele>3.3</ele>
        <time>2020-12-20T08:34:21Z</time>
      </trkpt>
      <trkpt lat="49.29506" lon="-0.28979">
        <ele>3.3</ele>
        <time>2020-12-20T08:34:23Z</time>
      </trkpt>
      <trkpt lat="49.29505" lon="-0.28974">
        <ele>3.3</ele>
        <time>2020-12-20T08:34:25Z</time>
      </trkpt>
      <trkpt lat="49.29504" lon="-0.2897">
        <ele>3.3</ele>
        <time>2020-12-20T08:34:26Z</time>
      </trkpt>
      <trkpt lat="49.29503" lon="-0.28964">
        <ele>3.4</ele>
        <time>2020-12-20T08:34:27Z</time>
      </trkpt>
      <trkpt lat="49.295" lon="-0.28958">
        <ele>3.4</ele>
        <time>2020-12-20T08:34:29Z</time>
      </trkpt>
      <trkpt lat="49.29499" lon="-0.28956">
        <ele>3.4</ele>
        <time>2020-12-20T08:34:30Z</time>
      </trkpt>
      <trkpt lat="49.29498" lon="-0.28955">
        <ele>3.4</ele>
        <time>2020-12-20T08:34:31Z</time>
      </trkpt>
      <trkpt lat="49.29497" lon="-0.28951">
        <ele>3.4</ele>
        <time>2020-12-20T08:34:33Z</time>
      </trkpt>
      <trkpt lat="49.29496" lon="-0.2895">
        <ele>3.4</ele>
        <time>2020-12-20T08:34:34Z</time>
      </trkpt>
      <trkpt lat="49.29496" lon="-0.28946">
        <ele>3.4</ele>
        <time>2020-12-20T08:34:35Z</time>
      </trkpt>
      <trkpt lat="49.29496" lon="-0.28944">
        <ele>3.4</ele>
        <time>2020-12-20T08:34:36Z</time>
      </trkpt>
      <trkpt lat="49.29497" lon="-0.2894">
        <ele>3.4</ele>
        <time>2020-12-20T08:34:38Z</time>
      </trkpt>
      <trkpt lat="49.29497" lon="-0.28939">
        <ele>3.4</ele>
        <time>2020-12-20T08:34:39Z</time>
      </trkpt>
      <trkpt lat="49.29497" lon="-0.28934">
        <ele>3.4</ele>
        <time>2020-12-20T08:34:41Z</time>
      </trkpt>
      <trkpt lat="49.29496" lon="-0.28933">
        <ele>3.4</ele>
        <time>2020-12-20T08:34:42Z</time>
      </trkpt>
      <trkpt lat="49.29496" lon="-0.2893">
        <ele>3.4</ele>
        <time>2020-12-20T08:34:43Z</time>
      </trkpt>
      <trkpt lat="49.29495" lon="-0.28927">
        <ele>3.4</ele>
        <time>2020-12-20T08:34:45Z</time>
      </trkpt>
      <trkpt lat="49.29495" lon="-0.28925">
        <ele>3.4</ele>
        <time>2020-12-20T08:34:46Z</time>
      </trkpt>
      <trkpt lat="49.29494" lon="-0.28922">
        <ele>3.4</ele>
        <time>2020-12-20T08:34:47Z</time>
      </trkpt>
      <trkpt lat="49.29494" lon="-0.28918">
        <ele>3.4</ele>
        <time>2020-12-20T08:34:48Z</time>
      </trkpt>
      <trkpt lat="49.29494" lon="-0.28916">
        <ele>3.4</ele>
        <time>2020-12-20T08:34:49Z</time>
      </trkpt>
      <trkpt lat="49.29493" lon="-0.28914">
        <ele>3.4</ele>
        <time>2020-12-20T08:34:51Z</time>
      </trkpt>
      <trkpt lat="49.29493" lon="-0.28911">
        <ele>3.4</ele>
        <time>2020-12-20T08:34:52Z</time>
      </trkpt>
      <trkpt lat="49.29493" lon="-0.28906">
        <ele>3.4</ele>
        <time>2020-12-20T08:34:53Z</time>
      </trkpt>
      <trkpt lat="49.29492" lon="-0.28904">
        <ele>3.4</ele>
        <time>2020-12-20T08:34:54Z</time>
      </trkpt>
      <trkpt lat="49.29492" lon="-0.289">
        <ele>3.4</ele>
        <time>2020-12-20T08:34:56Z</time>
      </trkpt>
      <trkpt lat="49.29492" lon="-0.28899">
        <ele>3.4</ele>
        <time>2020-12-20T08:34:57Z</time>
      </trkpt>
      <trkpt lat="49.29491" lon="-0.28894">
        <ele>3.4</ele>
        <time>2020-12-20T08:34:58Z</time>
      </trkpt>
      <trkpt lat="49.29491" lon="-0.28892">
        <ele>3.4</ele>
        <time>2020-12-20T08:34:59Z</time>
      </trkpt>
      <trkpt lat="49.2949" lon="-0.28887">
        <ele>3.4</ele>
        <time>2020-12-20T08:35:01Z</time>
      </trkpt>
      <trkpt lat="49.2949" lon="-0.28885">
        <ele>3.4</ele>
        <time>2020-12-20T08:35:02Z</time>
      </trkpt>
      <trkpt lat="49.29488" lon="-0.28879">
        <ele>3.4</ele>
        <time>2020-12-20T08:35:03Z</time>
      </trkpt>
      <trkpt lat="49.29488" lon="-0.28877">
        <ele>3.4</ele>
        <time>2020-12-20T08:35:04Z</time>
      </trkpt>
      <trkpt lat="49.29487" lon="-0.28874">
        <ele>3.4</ele>
        <time>2020-12-20T08:35:05Z</time>
      </trkpt>
      <trkpt lat="49.29486" lon="-0.28869">
        <ele>3.4</ele>
        <time>2020-12-20T08:35:07Z</time>
      </trkpt>
      <trkpt lat="49.29485" lon="-0.28865">
        <ele>3.4</ele>
        <time>2020-12-20T08:35:08Z</time>
      </trkpt>
      <trkpt lat="49.29485" lon="-0.28863">
        <ele>3.4</ele>
        <time>2020-12-20T08:35:09Z</time>
      </trkpt>
      <trkpt lat="49.29483" lon="-0.28857">
        <ele>3.4</ele>
        <time>2020-12-20T08:35:11Z</time>
      </trkpt>
      <trkpt lat="49.29483" lon="-0.28855">
        <ele>3.4</ele>
        <time>2020-12-20T08:35:12Z</time>
      </trkpt>
      <trkpt lat="49.29483" lon="-0.28854">
        <ele>3.4</ele>
        <time>2020-12-20T08:35:13Z</time>
      </trkpt>
      <trkpt lat="49.29482" lon="-0.28851">
        <ele>3.4</ele>
        <time>2020-12-20T08:35:14Z</time>
      </trkpt>
      <trkpt lat="49.29481" lon="-0.28846">
        <ele>3.4</ele>
        <time>2020-12-20T08:35:16Z</time>
      </trkpt>
      <trkpt lat="49.29479" lon="-0.28841">
        <ele>3.5</ele>
        <time>2020-12-20T08:35:17Z</time>
      </trkpt>
      <trkpt lat="49.29479" lon="-0.28839">
        <ele>3.5</ele>
        <time>2020-12-20T08:35:18Z</time>
      </trkpt>
      <trkpt lat="49.29478" lon="-0.28835">
        <ele>3.5</ele>
        <time>2020-12-20T08:35:19Z</time>
      </trkpt>
      <trkpt lat="49.29477" lon="-0.2883">
        <ele>3.5</ele>
        <time>2020-12-20T08:35:21Z</time>
      </trkpt>
      <trkpt lat="49.29475" lon="-0.28824">
        <ele>3.5</ele>
        <time>2020-12-20T08:35:22Z</time>
      </trkpt>
      <trkpt lat="49.29475" lon="-0.28822">
        <ele>3.5</ele>
        <time>2020-12-20T08:35:23Z</time>
      </trkpt>
      <trkpt lat="49.29474" lon="-0.28817">
        <ele>3.5</ele>
        <time>2020-12-20T08:35:25Z</time>
      </trkpt>
      <trkpt lat="49.29473" lon="-0.28813">
        <ele>3.5</ele>
        <time>2020-12-20T08:35:26Z</time>
      </trkpt>
      <trkpt lat="49.29472" lon="-0.28809">
        <ele>3.5</ele>
        <time>2020-12-20T08:35:27Z</time>
      </trkpt>
      <trkpt lat="49.29471" lon="-0.28805">
        <ele>3.5</ele>
        <time>2020-12-20T08:35:28Z</time>
      </trkpt>
      <trkpt lat="49.2947" lon="-0.28801">
        <ele>3.5</ele>
        <time>2020-12-20T08:35:30Z</time>
      </trkpt>
      <trkpt lat="49.29469" lon="-0.28796">
        <ele>3.5</ele>
        <time>2020-12-20T08:35:31Z</time>
      </trkpt>
      <trkpt lat="49.29468" lon="-0.28793">
        <ele>3.5</ele>
        <time>2020-12-20T08:35:32Z</time>
      </trkpt>
      <trkpt lat="49.29467" lon="-0.28787">
        <ele>3.5</ele>
        <time>2020-12-20T08:35:34Z</time>
      </trkpt>
      <trkpt lat="49.29466" lon="-0.28782">
        <ele>3.5</ele>
        <time>2020-12-20T08:35:35Z</time>
      </trkpt>
      <trkpt lat="49.29465" lon="-0.2878">
        <ele>3.5</ele>
        <time>2020-12-20T08:35:36Z</time>
      </trkpt>
      <trkpt lat="49.29464" lon="-0.28776">
        <ele>3.5</ele>
        <time>2020-12-20T08:35:38Z</time>
      </trkpt>
      <trkpt lat="49.29464" lon="-0.28774">
        <ele>3.5</ele>
        <time>2020-12-20T08:35:39Z</time>
      </trkpt>
      <trkpt lat="49.29463" lon="-0.2877">
        <ele>3.6</ele>
        <time>2020-12-20T08:35:40Z</time>
      </trkpt>
      <trkpt lat="49.29462" lon="-0.28765">
        <ele>3.6</ele>
        <time>2020-12-20T08:35:42Z</time>
      </trkpt>
      <trkpt lat="49.29461" lon="-0.2876">
        <ele>3.6</ele>
        <time>2020-12-20T08:35:44Z</time>
      </trkpt>
      <trkpt lat="49.29459" lon="-0.28756">
        <ele>3.6</ele>
        <time>2020-12-20T08:35:45Z</time>
      </trkpt>
      <trkpt lat="49.29458" lon="-0.28752">
        <ele>3.6</ele>
        <time>2020-12-20T08:35:47Z</time>
      </trkpt>
      <trkpt lat="49.29457" lon="-0.28747">
        <ele>3.7</ele>
        <time>2020-12-20T08:35:48Z</time>
      </trkpt>
      <trkpt lat="49.29455" lon="-0.28744">
        <ele>3.7</ele>
        <time>2020-12-20T08:35:50Z</time>
      </trkpt>
      <trkpt lat="49.29455" lon="-0.28742">
        <ele>3.7</ele>
        <time>2020-12-20T08:35:51Z</time>
      </trkpt>
      <trkpt lat="49.29453" lon="-0.28738">
        <ele>3.7</ele>
        <time>2020-12-20T08:35:52Z</time>
      </trkpt>
      <trkpt lat="49.29452" lon="-0.28734">
        <ele>3.8</ele>
        <time>2020-12-20T08:35:53Z</time>
      </trkpt>
      <trkpt lat="49.29451" lon="-0.28731">
        <ele>3.8</ele>
        <time>2020-12-20T08:35:54Z</time>
      </trkpt>
      <trkpt lat="49.29449" lon="-0.28727">
        <ele>3.8</ele>
        <time>2020-12-20T08:35:55Z</time>
      </trkpt>
      <trkpt lat="49.29447" lon="-0.28723">
        <ele>3.9</ele>
        <time>2020-12-20T08:35:57Z</time>
      </trkpt>
      <trkpt lat="49.29446" lon="-0.28717">
        <ele>3.9</ele>
        <time>2020-12-20T08:35:58Z</time>
      </trkpt>
      <trkpt lat="49.29445" lon="-0.28716">
        <ele>3.9</ele>
        <time>2020-12-20T08:35:59Z</time>
      </trkpt>
      <trkpt lat="49.29443" lon="-0.28711">
        <ele>3.9</ele>
        <time>2020-12-20T08:36:01Z</time>
      </trkpt>
      <trkpt lat="49.29442" lon="-0.28708">
        <ele>4</ele>
        <time>2020-12-20T08:36:02Z</time>
      </trkpt>
      <trkpt lat="49.29441" lon="-0.28705">
        <ele>4</ele>
        <time>2020-12-20T08:36:04Z</time>
      </trkpt>
      <trkpt lat="49.2944" lon="-0.28701">
        <ele>4</ele>
        <time>2020-12-20T08:36:05Z</time>
      </trkpt>
      <trkpt lat="49.29439" lon="-0.287">
        <ele>4</ele>
        <time>2020-12-20T08:36:06Z</time>
      </trkpt>
      <trkpt lat="49.29438" lon="-0.28696">
        <ele>4</ele>
        <time>2020-12-20T08:36:07Z</time>
      </trkpt>
      <trkpt lat="49.29437" lon="-0.28694">
        <ele>4</ele>
        <time>2020-12-20T08:36:08Z</time>
      </trkpt>
      <trkpt lat="49.29436" lon="-0.28689">
        <ele>4.1</ele>
        <time>2020-12-20T08:36:10Z</time>
      </trkpt>
      <trkpt lat="49.29435" lon="-0.28687">
        <ele>4.1</ele>
        <time>2020-12-20T08:36:11Z</time>
      </trkpt>
      <trkpt lat="49.29433" lon="-0.28683">
        <ele>4.1</ele>
        <time>2020-12-20T08:36:12Z</time>
      </trkpt>
      <trkpt lat="49.29432" lon="-0.28678">
        <ele>4.1</ele>
        <time>2020-12-20T08:36:14Z</time>
      </trkpt>
      <trkpt lat="49.29431" lon="-0.28673">
        <ele>4.2</ele>
        <time>2020-12-20T08:36:16Z</time>
      </trkpt>
      <trkpt lat="49.2943" lon="-0.28668">
        <ele>4.2</ele>
        <time>2020-12-20T08:36:17Z</time>
      </trkpt>
      <trkpt lat="49.29429" lon="-0.28664">
        <ele>4.2</ele>
        <time>2020-12-20T08:36:19Z</time>
      </trkpt>
      <trkpt lat="49.29429" lon="-0.28662">
        <ele>4.2</ele>
        <time>2020-12-20T08:36:20Z</time>
      </trkpt>
      <trkpt lat="49.29427" lon="-0.28658">
        <ele>4.2</ele>
        <time>2020-12-20T08:36:22Z</time>
      </trkpt>
      <trkpt lat="49.29427" lon="-0.28657">
        <ele>4.2</ele>
        <time>2020-12-20T08:36:23Z</time>
      </trkpt>
      <trkpt lat="49.29426" lon="-0.28653">
        <ele>4.2</ele>
        <time>2020-12-20T08:36:24Z</time>
      </trkpt>
      <trkpt lat="49.29424" lon="-0.28648">
        <ele>4.3</ele>
        <time>2020-12-20T08:36:25Z</time>
      </trkpt>
      <trkpt lat="49.29424" lon="-0.28646">
        <ele>4.3</ele>
        <time>2020-12-20T08:36:26Z</time>
      </trkpt>
      <trkpt lat="49.29424" lon="-0.28641">
        <ele>4.3</ele>
        <time>2020-12-20T08:36:28Z</time>
      </trkpt>
      <trkpt lat="49.29422" lon="-0.28636">
        <ele>4.3</ele>
        <time>2020-12-20T08:36:30Z</time>
      </trkpt>
      <trkpt lat="49.29421" lon="-0.28631">
        <ele>4.3</ele>
        <time>2020-12-20T08:36:31Z</time>
      </trkpt>
      <trkpt lat="49.2942" lon="-0.28626">
        <ele>4.3</ele>
        <time>2020-12-20T08:36:33Z</time>
      </trkpt>
      <trkpt lat="49.29419" lon="-0.2862">
        <ele>4.3</ele>
        <time>2020-12-20T08:36:35Z</time>
      </trkpt>
      <trkpt lat="49.29418" lon="-0.28616">
        <ele>4.2</ele>
        <time>2020-12-20T08:36:36Z</time>
      </trkpt>
      <trkpt lat="49.29416" lon="-0.2861">
        <ele>4.2</ele>
        <time>2020-12-20T08:36:38Z</time>
      </trkpt>
      <trkpt lat="49.29415" lon="-0.28605">
        <ele>4.2</ele>
        <time>2020-12-20T08:36:40Z</time>
      </trkpt>
      <trkpt lat="49.29414" lon="-0.286">
        <ele>4.2</ele>
        <time>2020-12-20T08:36:42Z</time>
      </trkpt>
      <trkpt lat="49.29413" lon="-0.28596">
        <ele>4.2</ele>
        <time>2020-12-20T08:36:43Z</time>
      </trkpt>
      <trkpt lat="49.29412" lon="-0.28591">
        <ele>4.2</ele>
        <time>2020-12-20T08:36:45Z</time>
      </trkpt>
      <trkpt lat="49.29411" lon="-0.28586">
        <ele>4.2</ele>
        <time>2020-12-20T08:36:46Z</time>
      </trkpt>
      <trkpt lat="49.2941" lon="-0.28581">
        <ele>4.2</ele>
        <time>2020-12-20T08:36:48Z</time>
      </trkpt>
      <trkpt lat="49.2941" lon="-0.28577">
        <ele>4.2</ele>
        <time>2020-12-20T08:36:49Z</time>
      </trkpt>
      <trkpt lat="49.2941" lon="-0.28574">
        <ele>4.2</ele>
        <time>2020-12-20T08:36:51Z</time>
      </trkpt>
      <trkpt lat="49.29409" lon="-0.28572">
        <ele>4.2</ele>
        <time>2020-12-20T08:36:52Z</time>
      </trkpt>
      <trkpt lat="49.29408" lon="-0.28567">
        <ele>4.2</ele>
        <time>2020-12-20T08:36:53Z</time>
      </trkpt>
      <trkpt lat="49.29408" lon="-0.28565">
        <ele>4.2</ele>
        <time>2020-12-20T08:36:54Z</time>
      </trkpt>
      <trkpt lat="49.29407" lon="-0.28562">
        <ele>4.2</ele>
        <time>2020-12-20T08:36:55Z</time>
      </trkpt>
      <trkpt lat="49.29407" lon="-0.28559">
        <ele>4.2</ele>
        <time>2020-12-20T08:36:57Z</time>
      </trkpt>
      <trkpt lat="49.29405" lon="-0.28554">
        <ele>4.1</ele>
        <time>2020-12-20T08:36:58Z</time>
      </trkpt>
      <trkpt lat="49.29405" lon="-0.28552">
        <ele>4.1</ele>
        <time>2020-12-20T08:36:59Z</time>
      </trkpt>
      <trkpt lat="49.29404" lon="-0.28548">
        <ele>4.1</ele>
        <time>2020-12-20T08:37:00Z</time>
      </trkpt>
      <trkpt lat="49.29403" lon="-0.28543">
        <ele>4.1</ele>
        <time>2020-12-20T08:37:02Z</time>
      </trkpt>
      <trkpt lat="49.29401" lon="-0.28536">
        <ele>4.1</ele>
        <time>2020-12-20T08:37:04Z</time>
      </trkpt>
      <trkpt lat="49.29401" lon="-0.28534">
        <ele>4.1</ele>
        <time>2020-12-20T08:37:05Z</time>
      </trkpt>
      <trkpt lat="49.294" lon="-0.28532">
        <ele>4.1</ele>
        <time>2020-12-20T08:37:06Z</time>
      </trkpt>
      <trkpt lat="49.294" lon="-0.28528">
        <ele>4.1</ele>
        <time>2020-12-20T08:37:07Z</time>
      </trkpt>
      <trkpt lat="49.29399" lon="-0.28524">
        <ele>4.1</ele>
        <time>2020-12-20T08:37:09Z</time>
      </trkpt>
      <trkpt lat="49.29398" lon="-0.28519">
        <ele>4.1</ele>
        <time>2020-12-20T08:37:10Z</time>
      </trkpt>
      <trkpt lat="49.29397" lon="-0.28517">
        <ele>4.1</ele>
        <time>2020-12-20T08:37:11Z</time>
      </trkpt>
      <trkpt lat="49.29396" lon="-0.28514">
        <ele>4.1</ele>
        <time>2020-12-20T08:37:12Z</time>
      </trkpt>
      <trkpt lat="49.29395" lon="-0.2851">
        <ele>4.1</ele>
        <time>2020-12-20T08:37:14Z</time>
      </trkpt>
      <trkpt lat="49.29394" lon="-0.28505">
        <ele>4.1</ele>
        <time>2020-12-20T08:37:15Z</time>
      </trkpt>
      <trkpt lat="49.29393" lon="-0.285">
        <ele>4.1</ele>
        <time>2020-12-20T08:37:17Z</time>
      </trkpt>
      <trkpt lat="49.29392" lon="-0.28499">
        <ele>4.1</ele>
        <time>2020-12-20T08:37:18Z</time>
      </trkpt>
      <trkpt lat="49.29392" lon="-0.28495">
        <ele>4.1</ele>
        <time>2020-12-20T08:37:19Z</time>
      </trkpt>
      <trkpt lat="49.2939" lon="-0.2849">
        <ele>4.2</ele>
        <time>2020-12-20T08:37:21Z</time>
      </trkpt>
      <trkpt lat="49.2939" lon="-0.28488">
        <ele>4.2</ele>
        <time>2020-12-20T08:37:22Z</time>
      </trkpt>
      <trkpt lat="49.29388" lon="-0.28483">
        <ele>4.2</ele>
        <time>2020-12-20T08:37:23Z</time>
      </trkpt>
      <trkpt lat="49.29387" lon="-0.2848">
        <ele>4.2</ele>
        <time>2020-12-20T08:37:24Z</time>
      </trkpt>
      <trkpt lat="49.29386" lon="-0.28475">
        <ele>4.2</ele>
        <time>2020-12-20T08:37:25Z</time>
      </trkpt>
      <trkpt lat="49.29385" lon="-0.28471">
        <ele>4.2</ele>
        <time>2020-12-20T08:37:26Z</time>
      </trkpt>
      <trkpt lat="49.29384" lon="-0.28467">
        <ele>4.2</ele>
        <time>2020-12-20T08:37:28Z</time>
      </trkpt>
      <trkpt lat="49.29383" lon="-0.28462">
        <ele>4.2</ele>
        <time>2020-12-20T08:37:29Z</time>
      </trkpt>
      <trkpt lat="49.29382" lon="-0.2846">
        <ele>4.2</ele>
        <time>2020-12-20T08:37:30Z</time>
      </trkpt>
      <trkpt lat="49.29381" lon="-0.28456">
        <ele>4.2</ele>
        <time>2020-12-20T08:37:32Z</time>
      </trkpt>
      <trkpt lat="49.2938" lon="-0.28453">
        <ele>4.3</ele>
        <time>2020-12-20T08:37:34Z</time>
      </trkpt>
      <trkpt lat="49.29379" lon="-0.28449">
        <ele>4.3</ele>
        <time>2020-12-20T08:37:36Z</time>
      </trkpt>
      <trkpt lat="49.29379" lon="-0.28445">
        <ele>4.3</ele>
        <time>2020-12-20T08:37:37Z</time>
      </trkpt>
      <trkpt lat="49.29378" lon="-0.28443">
        <ele>4.3</ele>
        <time>2020-12-20T08:37:38Z</time>
      </trkpt>
      <trkpt lat="49.29377" lon="-0.28439">
        <ele>4.3</ele>
        <time>2020-12-20T08:37:39Z</time>
      </trkpt>
      <trkpt lat="49.29377" lon="-0.28437">
        <ele>4.3</ele>
        <time>2020-12-20T08:37:40Z</time>
      </trkpt>
      <trkpt lat="49.29376" lon="-0.28431">
        <ele>4.3</ele>
        <time>2020-12-20T08:37:42Z</time>
      </trkpt>
      <trkpt lat="49.29375" lon="-0.28429">
        <ele>4.3</ele>
        <time>2020-12-20T08:37:43Z</time>
      </trkpt>
      <trkpt lat="49.29374" lon="-0.28424">
        <ele>4.4</ele>
        <time>2020-12-20T08:37:45Z</time>
      </trkpt>
      <trkpt lat="49.29374" lon="-0.28423">
        <ele>4.4</ele>
        <time>2020-12-20T08:37:46Z</time>
      </trkpt>
      <trkpt lat="49.29373" lon="-0.28418">
        <ele>4.4</ele>
        <time>2020-12-20T08:37:47Z</time>
      </trkpt>
      <trkpt lat="49.29372" lon="-0.28417">
        <ele>4.4</ele>
        <time>2020-12-20T08:37:48Z</time>
      </trkpt>
      <trkpt lat="49.29371" lon="-0.28411">
        <ele>4.4</ele>
        <time>2020-12-20T08:37:50Z</time>
      </trkpt>
      <trkpt lat="49.29371" lon="-0.28408">
        <ele>4.4</ele>
        <time>2020-12-20T08:37:51Z</time>
      </trkpt>
      <trkpt lat="49.2937" lon="-0.28405">
        <ele>4.4</ele>
        <time>2020-12-20T08:37:53Z</time>
      </trkpt>
      <trkpt lat="49.29368" lon="-0.284">
        <ele>4.4</ele>
        <time>2020-12-20T08:37:54Z</time>
      </trkpt>
      <trkpt lat="49.29368" lon="-0.28398">
        <ele>4.4</ele>
        <time>2020-12-20T08:37:55Z</time>
      </trkpt>
      <trkpt lat="49.29367" lon="-0.28394">
        <ele>4.4</ele>
        <time>2020-12-20T08:37:56Z</time>
      </trkpt>
      <trkpt lat="49.29366" lon="-0.28392">
        <ele>4.4</ele>
        <time>2020-12-20T08:37:57Z</time>
      </trkpt>
      <trkpt lat="49.29365" lon="-0.28387">
        <ele>4.5</ele>
        <time>2020-12-20T08:37:59Z</time>
      </trkpt>
      <trkpt lat="49.29364" lon="-0.28383">
        <ele>4.5</ele>
        <time>2020-12-20T08:38:00Z</time>
      </trkpt>
      <trkpt lat="49.29363" lon="-0.28379">
        <ele>4.5</ele>
        <time>2020-12-20T08:38:01Z</time>
      </trkpt>
      <trkpt lat="49.29361" lon="-0.28373">
        <ele>4.5</ele>
        <time>2020-12-20T08:38:03Z</time>
      </trkpt>
      <trkpt lat="49.2936" lon="-0.28369">
        <ele>4.5</ele>
        <time>2020-12-20T08:38:04Z</time>
      </trkpt>
      <trkpt lat="49.29359" lon="-0.28362">
        <ele>4.6</ele>
        <time>2020-12-20T08:38:06Z</time>
      </trkpt>
      <trkpt lat="49.29358" lon="-0.28358">
        <ele>4.6</ele>
        <time>2020-12-20T08:38:08Z</time>
      </trkpt>
      <trkpt lat="49.29357" lon="-0.28354">
        <ele>4.6</ele>
        <time>2020-12-20T08:38:09Z</time>
      </trkpt>
      <trkpt lat="49.29355" lon="-0.28346">
        <ele>4.6</ele>
        <time>2020-12-20T08:38:11Z</time>
      </trkpt>
      <trkpt lat="49.29355" lon="-0.28343">
        <ele>4.6</ele>
        <time>2020-12-20T08:38:13Z</time>
      </trkpt>
      <trkpt lat="49.29354" lon="-0.2834">
        <ele>4.6</ele>
        <time>2020-12-20T08:38:14Z</time>
      </trkpt>
      <trkpt lat="49.29354" lon="-0.28337">
        <ele>4.6</ele>
        <time>2020-12-20T08:38:15Z</time>
      </trkpt>
      <trkpt lat="49.29353" lon="-0.28331">
        <ele>4.6</ele>
        <time>2020-12-20T08:38:17Z</time>
      </trkpt>
      <trkpt lat="49.29352" lon="-0.28327">
        <ele>4.6</ele>
        <time>2020-12-20T08:38:18Z</time>
      </trkpt>
      <trkpt lat="49.29351" lon="-0.28323">
        <ele>4.6</ele>
        <time>2020-12-20T08:38:20Z</time>
      </trkpt>
      <trkpt lat="49.29351" lon="-0.28319">
        <ele>4.6</ele>
        <time>2020-12-20T08:38:21Z</time>
      </trkpt>
      <trkpt lat="49.29349" lon="-0.28315">
        <ele>4.6</ele>
        <time>2020-12-20T08:38:23Z</time>
      </trkpt>
      <trkpt lat="49.29348" lon="-0.2831">
        <ele>4.6</ele>
        <time>2020-12-20T08:38:24Z</time>
      </trkpt>
      <trkpt lat="49.29347" lon="-0.28306">
        <ele>4.7</ele>
        <time>2020-12-20T08:38:26Z</time>
      </trkpt>
      <trkpt lat="49.29346" lon="-0.28303">
        <ele>4.7</ele>
        <time>2020-12-20T08:38:27Z</time>
      </trkpt>
      <trkpt lat="49.29345" lon="-0.28299">
        <ele>4.8</ele>
        <time>2020-12-20T08:38:29Z</time>
      </trkpt>
      <trkpt lat="49.29343" lon="-0.28295">
        <ele>4.9</ele>
        <time>2020-12-20T08:38:31Z</time>
      </trkpt>
      <trkpt lat="49.29342" lon="-0.28291">
        <ele>4.9</ele>
        <time>2020-12-20T08:38:32Z</time>
      </trkpt>
      <trkpt lat="49.29341" lon="-0.28287">
        <ele>5</ele>
        <time>2020-12-20T08:38:34Z</time>
      </trkpt>
      <trkpt lat="49.29339" lon="-0.28284">
        <ele>5.1</ele>
        <time>2020-12-20T08:38:36Z</time>
      </trkpt>
      <trkpt lat="49.29338" lon="-0.2828">
        <ele>5.1</ele>
        <time>2020-12-20T08:38:37Z</time>
      </trkpt>
      <trkpt lat="49.29337" lon="-0.28274">
        <ele>5.1</ele>
        <time>2020-12-20T08:38:39Z</time>
      </trkpt>
      <trkpt lat="49.29336" lon="-0.2827">
        <ele>5.1</ele>
        <time>2020-12-20T08:38:41Z</time>
      </trkpt>
      <trkpt lat="49.29336" lon="-0.28263">
        <ele>5.1</ele>
        <time>2020-12-20T08:38:43Z</time>
      </trkpt>
      <trkpt lat="49.29336" lon="-0.28259">
        <ele>5.1</ele>
        <time>2020-12-20T08:38:44Z</time>
      </trkpt>
      <trkpt lat="49.29335" lon="-0.28257">
        <ele>5.1</ele>
        <time>2020-12-20T08:38:45Z</time>
      </trkpt>
      <trkpt lat="49.29335" lon="-0.28255">
        <ele>5.1</ele>
        <time>2020-12-20T08:38:46Z</time>
      </trkpt>
      <trkpt lat="49.29334" lon="-0.2825">
        <ele>5.1</ele>
        <time>2020-12-20T08:38:49Z</time>
      </trkpt>
      <trkpt lat="49.29333" lon="-0.28245">
        <ele>5.1</ele>
        <time>2020-12-20T08:38:50Z</time>
      </trkpt>
      <trkpt lat="49.29332" lon="-0.28239">
        <ele>5.1</ele>
        <time>2020-12-20T08:38:52Z</time>
      </trkpt>
      <trkpt lat="49.29331" lon="-0.28232">
        <ele>5</ele>
        <time>2020-12-20T08:38:54Z</time>
      </trkpt>
      <trkpt lat="49.2933" lon="-0.28229">
        <ele>5</ele>
        <time>2020-12-20T08:38:55Z</time>
      </trkpt>
      <trkpt lat="49.29329" lon="-0.28223">
        <ele>5</ele>
        <time>2020-12-20T08:38:57Z</time>
      </trkpt>
      <trkpt lat="49.29328" lon="-0.28219">
        <ele>5</ele>
        <time>2020-12-20T08:38:58Z</time>
      </trkpt>
      <trkpt lat="49.29327" lon="-0.28209">
        <ele>5</ele>
        <time>2020-12-20T08:39:00Z</time>
      </trkpt>
      <trkpt lat="49.29326" lon="-0.28206">
        <ele>5</ele>
        <time>2020-12-20T08:39:01Z</time>
      </trkpt>
      <trkpt lat="49.29325" lon="-0.282">
        <ele>5</ele>
        <time>2020-12-20T08:39:03Z</time>
      </trkpt>
      <trkpt lat="49.29325" lon="-0.28197">
        <ele>5</ele>
        <time>2020-12-20T08:39:04Z</time>
      </trkpt>
      <trkpt lat="49.29324" lon="-0.28191">
        <ele>5</ele>
        <time>2020-12-20T08:39:06Z</time>
      </trkpt>
      <trkpt lat="49.29323" lon="-0.28184">
        <ele>5</ele>
        <time>2020-12-20T08:39:08Z</time>
      </trkpt>
      <trkpt lat="49.29322" lon="-0.28178">
        <ele>5</ele>
        <time>2020-12-20T08:39:11Z</time>
      </trkpt>
      <trkpt lat="49.29321" lon="-0.28173">
        <ele>5</ele>
        <time>2020-12-20T08:39:12Z</time>
      </trkpt>
      <trkpt lat="49.2932" lon="-0.28166">
        <ele>5</ele>
        <time>2020-12-20T08:39:14Z</time>
      </trkpt>
      <trkpt lat="49.2932" lon="-0.28163">
        <ele>5</ele>
        <time>2020-12-20T08:39:15Z</time>
      </trkpt>
      <trkpt lat="49.2932" lon="-0.28161">
        <ele>5</ele>
        <time>2020-12-20T08:39:16Z</time>
      </trkpt>
      <trkpt lat="49.29319" lon="-0.28153">
        <ele>5</ele>
        <time>2020-12-20T08:39:18Z</time>
      </trkpt>
      <trkpt lat="49.29319" lon="-0.2815">
        <ele>5</ele>
        <time>2020-12-20T08:39:19Z</time>
      </trkpt>
      <trkpt lat="49.29319" lon="-0.28142">
        <ele>5</ele>
        <time>2020-12-20T08:39:21Z</time>
      </trkpt>
      <trkpt lat="49.29318" lon="-0.28135">
        <ele>5</ele>
        <time>2020-12-20T08:39:23Z</time>
      </trkpt>
      <trkpt lat="49.29318" lon="-0.28132">
        <ele>5</ele>
        <time>2020-12-20T08:39:24Z</time>
      </trkpt>
      <trkpt lat="49.29317" lon="-0.28125">
        <ele>5</ele>
        <time>2020-12-20T08:39:26Z</time>
      </trkpt>
      <trkpt lat="49.29316" lon="-0.28122">
        <ele>5</ele>
        <time>2020-12-20T08:39:27Z</time>
      </trkpt>
      <trkpt lat="49.29315" lon="-0.28115">
        <ele>5</ele>
        <time>2020-12-20T08:39:29Z</time>
      </trkpt>
      <trkpt lat="49.29314" lon="-0.28112">
        <ele>5</ele>
        <time>2020-12-20T08:39:30Z</time>
      </trkpt>
      <trkpt lat="49.29313" lon="-0.28106">
        <ele>4.9</ele>
        <time>2020-12-20T08:39:32Z</time>
      </trkpt>
      <trkpt lat="49.29313" lon="-0.28104">
        <ele>4.9</ele>
        <time>2020-12-20T08:39:33Z</time>
      </trkpt>
      <trkpt lat="49.29312" lon="-0.28103">
        <ele>4.9</ele>
        <time>2020-12-20T08:39:34Z</time>
      </trkpt>
      <trkpt lat="49.29312" lon="-0.28101">
        <ele>4.9</ele>
        <time>2020-12-20T08:39:36Z</time>
      </trkpt>
      <trkpt lat="49.29311" lon="-0.28098">
        <ele>4.9</ele>
        <time>2020-12-20T08:39:37Z</time>
      </trkpt>
      <trkpt lat="49.2931" lon="-0.28097">
        <ele>4.9</ele>
        <time>2020-12-20T08:39:38Z</time>
      </trkpt>
      <trkpt lat="49.29309" lon="-0.28094">
        <ele>4.9</ele>
        <time>2020-12-20T08:39:40Z</time>
      </trkpt>
      <trkpt lat="49.29308" lon="-0.28093">
        <ele>4.9</ele>
        <time>2020-12-20T08:39:42Z</time>
      </trkpt>
      <trkpt lat="49.29308" lon="-0.28091">
        <ele>4.9</ele>
        <time>2020-12-20T08:39:43Z</time>
      </trkpt>
      <trkpt lat="49.29307" lon="-0.28088">
        <ele>4.9</ele>
        <time>2020-12-20T08:39:45Z</time>
      </trkpt>
      <trkpt lat="49.29306" lon="-0.28083">
        <ele>4.9</ele>
        <time>2020-12-20T08:39:47Z</time>
      </trkpt>
      <trkpt lat="49.29306" lon="-0.2808">
        <ele>4.9</ele>
        <time>2020-12-20T08:39:49Z</time>
      </trkpt>
      <trkpt lat="49.29305" lon="-0.28077">
        <ele>4.9</ele>
        <time>2020-12-20T08:39:50Z</time>
      </trkpt>
      <trkpt lat="49.29304" lon="-0.28072">
        <ele>4.9</ele>
        <time>2020-12-20T08:39:52Z</time>
      </trkpt>
      <trkpt lat="49.29302" lon="-0.28065">
        <ele>4.9</ele>
        <time>2020-12-20T08:39:53Z</time>
      </trkpt>
      <trkpt lat="49.29301" lon="-0.2806">
        <ele>4.9</ele>
        <time>2020-12-20T08:39:54Z</time>
      </trkpt>
      <trkpt lat="49.29299" lon="-0.28053">
        <ele>4.9</ele>
        <time>2020-12-20T08:39:56Z</time>
      </trkpt>
      <trkpt lat="49.29299" lon="-0.2805">
        <ele>4.9</ele>
        <time>2020-12-20T08:39:57Z</time>
      </trkpt>
      <trkpt lat="49.29298" lon="-0.28047">
        <ele>5</ele>
        <time>2020-12-20T08:39:58Z</time>
      </trkpt>
      <trkpt lat="49.29297" lon="-0.28042">
        <ele>5</ele>
        <time>2020-12-20T08:40:00Z</time>
      </trkpt>
      <trkpt lat="49.29295" lon="-0.28036">
        <ele>5</ele>
        <time>2020-12-20T08:40:01Z</time>
      </trkpt>
      <trkpt lat="49.29294" lon="-0.2803">
        <ele>5</ele>
        <time>2020-12-20T08:40:03Z</time>
      </trkpt>
      <trkpt lat="49.29292" lon="-0.28024">
        <ele>4.9</ele>
        <time>2020-12-20T08:40:04Z</time>
      </trkpt>
      <trkpt lat="49.29291" lon="-0.28017">
        <ele>4.9</ele>
        <time>2020-12-20T08:40:06Z</time>
      </trkpt>
      <trkpt lat="49.29289" lon="-0.28011">
        <ele>4.9</ele>
        <time>2020-12-20T08:40:08Z</time>
      </trkpt>
      <trkpt lat="49.29287" lon="-0.28007">
        <ele>4.9</ele>
        <time>2020-12-20T08:40:09Z</time>
      </trkpt>
      <trkpt lat="49.29286" lon="-0.28002">
        <ele>4.9</ele>
        <time>2020-12-20T08:40:11Z</time>
      </trkpt>
      <trkpt lat="49.29286" lon="-0.27998">
        <ele>4.9</ele>
        <time>2020-12-20T08:40:12Z</time>
      </trkpt>
      <trkpt lat="49.29285" lon="-0.27992">
        <ele>4.9</ele>
        <time>2020-12-20T08:40:14Z</time>
      </trkpt>
      <trkpt lat="49.29284" lon="-0.27989">
        <ele>4.9</ele>
        <time>2020-12-20T08:40:15Z</time>
      </trkpt>
      <trkpt lat="49.29282" lon="-0.27983">
        <ele>4.9</ele>
        <time>2020-12-20T08:40:17Z</time>
      </trkpt>
      <trkpt lat="49.29282" lon="-0.27978">
        <ele>4.9</ele>
        <time>2020-12-20T08:40:18Z</time>
      </trkpt>
      <trkpt lat="49.29281" lon="-0.27973">
        <ele>4.9</ele>
        <time>2020-12-20T08:40:19Z</time>
      </trkpt>
      <trkpt lat="49.2928" lon="-0.27968">
        <ele>4.8</ele>
        <time>2020-12-20T08:40:20Z</time>
      </trkpt>
      <trkpt lat="49.29279" lon="-0.27966">
        <ele>4.8</ele>
        <time>2020-12-20T08:40:21Z</time>
      </trkpt>
      <trkpt lat="49.29278" lon="-0.2796">
        <ele>4.8</ele>
        <time>2020-12-20T08:40:23Z</time>
      </trkpt>
      <trkpt lat="49.29278" lon="-0.27957">
        <ele>4.8</ele>
        <time>2020-12-20T08:40:25Z</time>
      </trkpt>
      <trkpt lat="49.29278" lon="-0.27954">
        <ele>4.8</ele>
        <time>2020-12-20T08:40:26Z</time>
      </trkpt>
      <trkpt lat="49.29277" lon="-0.2795">
        <ele>4.9</ele>
        <time>2020-12-20T08:40:28Z</time>
      </trkpt>
      <trkpt lat="49.29276" lon="-0.27947">
        <ele>4.9</ele>
        <time>2020-12-20T08:40:29Z</time>
      </trkpt>
      <trkpt lat="49.29275" lon="-0.27943">
        <ele>4.9</ele>
        <time>2020-12-20T08:40:31Z</time>
      </trkpt>
      <trkpt lat="49.29274" lon="-0.2794">
        <ele>4.9</ele>
        <time>2020-12-20T08:40:32Z</time>
      </trkpt>
      <trkpt lat="49.29274" lon="-0.27937">
        <ele>4.9</ele>
        <time>2020-12-20T08:40:34Z</time>
      </trkpt>
      <trkpt lat="49.29273" lon="-0.27933">
        <ele>4.9</ele>
        <time>2020-12-20T08:40:35Z</time>
      </trkpt>
      <trkpt lat="49.29273" lon="-0.2793">
        <ele>4.9</ele>
        <time>2020-12-20T08:40:36Z</time>
      </trkpt>
      <trkpt lat="49.29272" lon="-0.27926">
        <ele>4.9</ele>
        <time>2020-12-20T08:40:37Z</time>
      </trkpt>
      <trkpt lat="49.29272" lon="-0.27924">
        <ele>4.9</ele>
        <time>2020-12-20T08:40:38Z</time>
      </trkpt>
      <trkpt lat="49.29272" lon="-0.27922">
        <ele>4.9</ele>
        <time>2020-12-20T08:40:39Z</time>
      </trkpt>
      <trkpt lat="49.2927" lon="-0.27917">
        <ele>4.9</ele>
        <time>2020-12-20T08:40:41Z</time>
      </trkpt>
      <trkpt lat="49.2927" lon="-0.27915">
        <ele>4.9</ele>
        <time>2020-12-20T08:40:42Z</time>
      </trkpt>
      <trkpt lat="49.2927" lon="-0.27913">
        <ele>4.9</ele>
        <time>2020-12-20T08:40:43Z</time>
      </trkpt>
      <trkpt lat="49.2927" lon="-0.27908">
        <ele>5</ele>
        <time>2020-12-20T08:40:45Z</time>
      </trkpt>
      <trkpt lat="49.2927" lon="-0.27902">
        <ele>5</ele>
        <time>2020-12-20T08:40:46Z</time>
      </trkpt>
      <trkpt lat="49.29269" lon="-0.27898">
        <ele>5</ele>
        <time>2020-12-20T08:40:47Z</time>
      </trkpt>
      <trkpt lat="49.29269" lon="-0.27894">
        <ele>5</ele>
        <time>2020-12-20T08:40:49Z</time>
      </trkpt>
      <trkpt lat="49.29268" lon="-0.2789">
        <ele>5</ele>
        <time>2020-12-20T08:40:50Z</time>
      </trkpt>
      <trkpt lat="49.29267" lon="-0.27886">
        <ele>5.1</ele>
        <time>2020-12-20T08:40:51Z</time>
      </trkpt>
      <trkpt lat="49.29266" lon="-0.27882">
        <ele>5.1</ele>
        <time>2020-12-20T08:40:52Z</time>
      </trkpt>
      <trkpt lat="49.29266" lon="-0.27876">
        <ele>5.1</ele>
        <time>2020-12-20T08:40:54Z</time>
      </trkpt>
      <trkpt lat="49.29266" lon="-0.27875">
        <ele>5.1</ele>
        <time>2020-12-20T08:40:55Z</time>
      </trkpt>
      <trkpt lat="49.29266" lon="-0.2787">
        <ele>5.2</ele>
        <time>2020-12-20T08:40:56Z</time>
      </trkpt>
      <trkpt lat="49.29266" lon="-0.27868">
        <ele>5.2</ele>
        <time>2020-12-20T08:40:57Z</time>
      </trkpt>
      <trkpt lat="49.29268" lon="-0.27863">
        <ele>5.2</ele>
        <time>2020-12-20T08:40:59Z</time>
      </trkpt>
      <trkpt lat="49.29269" lon="-0.27859">
        <ele>5.2</ele>
        <time>2020-12-20T08:41:01Z</time>
      </trkpt>
      <trkpt lat="49.2927" lon="-0.27855">
        <ele>5.2</ele>
        <time>2020-12-20T08:41:03Z</time>
      </trkpt>
      <trkpt lat="49.29271" lon="-0.27852">
        <ele>5.2</ele>
        <time>2020-12-20T08:41:04Z</time>
      </trkpt>
      <trkpt lat="49.29271" lon="-0.27848">
        <ele>5.2</ele>
        <time>2020-12-20T08:41:06Z</time>
      </trkpt>
      <trkpt lat="49.29271" lon="-0.27846">
        <ele>5.2</ele>
        <time>2020-12-20T08:41:07Z</time>
      </trkpt>
      <trkpt lat="49.29271" lon="-0.27843">
        <ele>5.2</ele>
        <time>2020-12-20T08:41:08Z</time>
      </trkpt>
      <trkpt lat="49.2927" lon="-0.27839">
        <ele>5.2</ele>
        <time>2020-12-20T08:41:09Z</time>
      </trkpt>
      <trkpt lat="49.2927" lon="-0.27837">
        <ele>5.2</ele>
        <time>2020-12-20T08:41:10Z</time>
      </trkpt>
      <trkpt lat="49.2927" lon="-0.27834">
        <ele>5.2</ele>
        <time>2020-12-20T08:41:11Z</time>
      </trkpt>
      <trkpt lat="49.2927" lon="-0.27828">
        <ele>5.3</ele>
        <time>2020-12-20T08:41:13Z</time>
      </trkpt>
      <trkpt lat="49.29269" lon="-0.27822">
        <ele>5.3</ele>
        <time>2020-12-20T08:41:15Z</time>
      </trkpt>
      <trkpt lat="49.29269" lon="-0.27817">
        <ele>5.3</ele>
        <time>2020-12-20T08:41:16Z</time>
      </trkpt>
      <trkpt lat="49.29268" lon="-0.27811">
        <ele>5.3</ele>
        <time>2020-12-20T08:41:18Z</time>
      </trkpt>
      <trkpt lat="49.29268" lon="-0.27806">
        <ele>5.3</ele>
        <time>2020-12-20T08:41:19Z</time>
      </trkpt>
      <trkpt lat="49.29268" lon="-0.278">
        <ele>5.3</ele>
        <time>2020-12-20T08:41:21Z</time>
      </trkpt>
      <trkpt lat="49.29268" lon="-0.27798">
        <ele>5.3</ele>
        <time>2020-12-20T08:41:22Z</time>
      </trkpt>
      <trkpt lat="49.29267" lon="-0.27793">
        <ele>5.3</ele>
        <time>2020-12-20T08:41:23Z</time>
      </trkpt>
      <trkpt lat="49.29267" lon="-0.27788">
        <ele>5.3</ele>
        <time>2020-12-20T08:41:24Z</time>
      </trkpt>
      <trkpt lat="49.29266" lon="-0.27785">
        <ele>5.3</ele>
        <time>2020-12-20T08:41:25Z</time>
      </trkpt>
      <trkpt lat="49.29266" lon="-0.27782">
        <ele>5.3</ele>
        <time>2020-12-20T08:41:27Z</time>
      </trkpt>
      <trkpt lat="49.29266" lon="-0.27778">
        <ele>5.3</ele>
        <time>2020-12-20T08:41:28Z</time>
      </trkpt>
      <trkpt lat="49.29266" lon="-0.27776">
        <ele>5.3</ele>
        <time>2020-12-20T08:41:29Z</time>
      </trkpt>
      <trkpt lat="49.29265" lon="-0.2777">
        <ele>5.3</ele>
        <time>2020-12-20T08:41:31Z</time>
      </trkpt>
      <trkpt lat="49.29265" lon="-0.27768">
        <ele>5.3</ele>
        <time>2020-12-20T08:41:32Z</time>
      </trkpt>
      <trkpt lat="49.29263" lon="-0.27764">
        <ele>5.3</ele>
        <time>2020-12-20T08:41:33Z</time>
      </trkpt>
      <trkpt lat="49.29263" lon="-0.27758">
        <ele>5.3</ele>
        <time>2020-12-20T08:41:35Z</time>
      </trkpt>
      <trkpt lat="49.29263" lon="-0.27755">
        <ele>5.3</ele>
        <time>2020-12-20T08:41:36Z</time>
      </trkpt>
      <trkpt lat="49.29262" lon="-0.2775">
        <ele>5.3</ele>
        <time>2020-12-20T08:41:38Z</time>
      </trkpt>
      <trkpt lat="49.29262" lon="-0.27745">
        <ele>5.3</ele>
        <time>2020-12-20T08:41:39Z</time>
      </trkpt>
      <trkpt lat="49.29261" lon="-0.2774">
        <ele>5.3</ele>
        <time>2020-12-20T08:41:41Z</time>
      </trkpt>
      <trkpt lat="49.29261" lon="-0.27738">
        <ele>5.3</ele>
        <time>2020-12-20T08:41:42Z</time>
      </trkpt>
      <trkpt lat="49.29261" lon="-0.27731">
        <ele>5.3</ele>
        <time>2020-12-20T08:41:43Z</time>
      </trkpt>
      <trkpt lat="49.2926" lon="-0.27729">
        <ele>5.3</ele>
        <time>2020-12-20T08:41:44Z</time>
      </trkpt>
      <trkpt lat="49.2926" lon="-0.27724">
        <ele>5.3</ele>
        <time>2020-12-20T08:41:46Z</time>
      </trkpt>
      <trkpt lat="49.29259" lon="-0.27719">
        <ele>5.3</ele>
        <time>2020-12-20T08:41:48Z</time>
      </trkpt>
      <trkpt lat="49.29259" lon="-0.27714">
        <ele>5.4</ele>
        <time>2020-12-20T08:41:49Z</time>
      </trkpt>
      <trkpt lat="49.29258" lon="-0.27709">
        <ele>5.4</ele>
        <time>2020-12-20T08:41:51Z</time>
      </trkpt>
      <trkpt lat="49.29258" lon="-0.27704">
        <ele>5.4</ele>
        <time>2020-12-20T08:41:53Z</time>
      </trkpt>
      <trkpt lat="49.29258" lon="-0.277">
        <ele>5.4</ele>
        <time>2020-12-20T08:41:54Z</time>
      </trkpt>
      <trkpt lat="49.29257" lon="-0.27697">
        <ele>5.4</ele>
        <time>2020-12-20T08:41:55Z</time>
      </trkpt>
      <trkpt lat="49.29257" lon="-0.27692">
        <ele>5.4</ele>
        <time>2020-12-20T08:41:57Z</time>
      </trkpt>
      <trkpt lat="49.29258" lon="-0.27686">
        <ele>5.4</ele>
        <time>2020-12-20T08:41:59Z</time>
      </trkpt>
      <trkpt lat="49.29258" lon="-0.27684">
        <ele>5.4</ele>
        <time>2020-12-20T08:42:00Z</time>
      </trkpt>
      <trkpt lat="49.29258" lon="-0.2768">
        <ele>5.4</ele>
        <time>2020-12-20T08:42:02Z</time>
      </trkpt>
      <trkpt lat="49.29258" lon="-0.27675">
        <ele>5.4</ele>
        <time>2020-12-20T08:42:03Z</time>
      </trkpt>
      <trkpt lat="49.29259" lon="-0.27669">
        <ele>5.4</ele>
        <time>2020-12-20T08:42:05Z</time>
      </trkpt>
      <trkpt lat="49.29259" lon="-0.27667">
        <ele>5.4</ele>
        <time>2020-12-20T08:42:06Z</time>
      </trkpt>
      <trkpt lat="49.29258" lon="-0.27662">
        <ele>5.5</ele>
        <time>2020-12-20T08:42:07Z</time>
      </trkpt>
      <trkpt lat="49.29258" lon="-0.27657">
        <ele>5.5</ele>
        <time>2020-12-20T08:42:08Z</time>
      </trkpt>
      <trkpt lat="49.29258" lon="-0.2765">
        <ele>5.5</ele>
        <time>2020-12-20T08:42:10Z</time>
      </trkpt>
      <trkpt lat="49.29257" lon="-0.27645">
        <ele>5.5</ele>
        <time>2020-12-20T08:42:12Z</time>
      </trkpt>
      <trkpt lat="49.29257" lon="-0.27642">
        <ele>5.5</ele>
        <time>2020-12-20T08:42:13Z</time>
      </trkpt>
      <trkpt lat="49.29257" lon="-0.27639">
        <ele>5.5</ele>
        <time>2020-12-20T08:42:15Z</time>
      </trkpt>
      <trkpt lat="49.29256" lon="-0.27633">
        <ele>5.5</ele>
        <time>2020-12-20T08:42:16Z</time>
      </trkpt>
      <trkpt lat="49.29256" lon="-0.27631">
        <ele>5.5</ele>
        <time>2020-12-20T08:42:17Z</time>
      </trkpt>
      <trkpt lat="49.29255" lon="-0.27627">
        <ele>5.5</ele>
        <time>2020-12-20T08:42:18Z</time>
      </trkpt>
      <trkpt lat="49.29254" lon="-0.27624">
        <ele>5.5</ele>
        <time>2020-12-20T08:42:19Z</time>
      </trkpt>
      <trkpt lat="49.29253" lon="-0.27619">
        <ele>5.5</ele>
        <time>2020-12-20T08:42:21Z</time>
      </trkpt>
      <trkpt lat="49.29252" lon="-0.27615">
        <ele>5.5</ele>
        <time>2020-12-20T08:42:22Z</time>
      </trkpt>
      <trkpt lat="49.29251" lon="-0.27611">
        <ele>5.5</ele>
        <time>2020-12-20T08:42:23Z</time>
      </trkpt>
      <trkpt lat="49.2925" lon="-0.27606">
        <ele>5.5</ele>
        <time>2020-12-20T08:42:25Z</time>
      </trkpt>
      <trkpt lat="49.29249" lon="-0.27602">
        <ele>5.5</ele>
        <time>2020-12-20T08:42:26Z</time>
      </trkpt>
      <trkpt lat="49.29248" lon="-0.27598">
        <ele>5.5</ele>
        <time>2020-12-20T08:42:28Z</time>
      </trkpt>
      <trkpt lat="49.29246" lon="-0.27594">
        <ele>5.5</ele>
        <time>2020-12-20T08:42:29Z</time>
      </trkpt>
      <trkpt lat="49.29245" lon="-0.27589">
        <ele>5.5</ele>
        <time>2020-12-20T08:42:31Z</time>
      </trkpt>
      <trkpt lat="49.29244" lon="-0.27587">
        <ele>5.5</ele>
        <time>2020-12-20T08:42:32Z</time>
      </trkpt>
      <trkpt lat="49.29244" lon="-0.27585">
        <ele>5.5</ele>
        <time>2020-12-20T08:42:33Z</time>
      </trkpt>
      <trkpt lat="49.29243" lon="-0.27582">
        <ele>5.5</ele>
        <time>2020-12-20T08:42:34Z</time>
      </trkpt>
      <trkpt lat="49.29243" lon="-0.27579">
        <ele>5.5</ele>
        <time>2020-12-20T08:42:36Z</time>
      </trkpt>
      <trkpt lat="49.29242" lon="-0.27576">
        <ele>5.5</ele>
        <time>2020-12-20T08:42:37Z</time>
      </trkpt>
      <trkpt lat="49.29241" lon="-0.2757">
        <ele>5.5</ele>
        <time>2020-12-20T08:42:39Z</time>
      </trkpt>
      <trkpt lat="49.29241" lon="-0.27565">
        <ele>5.5</ele>
        <time>2020-12-20T08:42:40Z</time>
      </trkpt>
      <trkpt lat="49.2924" lon="-0.2756">
        <ele>5.5</ele>
        <time>2020-12-20T08:42:42Z</time>
      </trkpt>
      <trkpt lat="49.29239" lon="-0.27555">
        <ele>5.5</ele>
        <time>2020-12-20T08:42:43Z</time>
      </trkpt>
      <trkpt lat="49.29239" lon="-0.27549">
        <ele>5.5</ele>
        <time>2020-12-20T08:42:45Z</time>
      </trkpt>
      <trkpt lat="49.29238" lon="-0.27547">
        <ele>5.5</ele>
        <time>2020-12-20T08:42:47Z</time>
      </trkpt>
      <trkpt lat="49.29238" lon="-0.27545">
        <ele>5.5</ele>
        <time>2020-12-20T08:42:48Z</time>
      </trkpt>
      <trkpt lat="49.29237" lon="-0.27541">
        <ele>5.5</ele>
        <time>2020-12-20T08:42:49Z</time>
      </trkpt>
      <trkpt lat="49.29236" lon="-0.27535">
        <ele>5.5</ele>
        <time>2020-12-20T08:42:51Z</time>
      </trkpt>
      <trkpt lat="49.29235" lon="-0.27531">
        <ele>5.5</ele>
        <time>2020-12-20T08:42:52Z</time>
      </trkpt>
      <trkpt lat="49.29234" lon="-0.27527">
        <ele>5.5</ele>
        <time>2020-12-20T08:42:54Z</time>
      </trkpt>
      <trkpt lat="49.29233" lon="-0.27522">
        <ele>5.6</ele>
        <time>2020-12-20T08:42:55Z</time>
      </trkpt>
      <trkpt lat="49.29232" lon="-0.27515">
        <ele>5.6</ele>
        <time>2020-12-20T08:42:57Z</time>
      </trkpt>
      <trkpt lat="49.29231" lon="-0.27513">
        <ele>5.6</ele>
        <time>2020-12-20T08:42:58Z</time>
      </trkpt>
      <trkpt lat="49.29231" lon="-0.27511">
        <ele>5.6</ele>
        <time>2020-12-20T08:42:59Z</time>
      </trkpt>
      <trkpt lat="49.2923" lon="-0.27506">
        <ele>5.6</ele>
        <time>2020-12-20T08:43:01Z</time>
      </trkpt>
      <trkpt lat="49.2923" lon="-0.27505">
        <ele>5.6</ele>
        <time>2020-12-20T08:43:02Z</time>
      </trkpt>
      <trkpt lat="49.29229" lon="-0.27499">
        <ele>5.6</ele>
        <time>2020-12-20T08:43:03Z</time>
      </trkpt>
      <trkpt lat="49.29229" lon="-0.27498">
        <ele>5.6</ele>
        <time>2020-12-20T08:43:04Z</time>
      </trkpt>
      <trkpt lat="49.29229" lon="-0.27495">
        <ele>5.6</ele>
        <time>2020-12-20T08:43:05Z</time>
      </trkpt>
      <trkpt lat="49.29228" lon="-0.2749">
        <ele>5.6</ele>
        <time>2020-12-20T08:43:07Z</time>
      </trkpt>
      <trkpt lat="49.29228" lon="-0.27485">
        <ele>5.6</ele>
        <time>2020-12-20T08:43:08Z</time>
      </trkpt>
      <trkpt lat="49.29228" lon="-0.27483">
        <ele>5.6</ele>
        <time>2020-12-20T08:43:09Z</time>
      </trkpt>
      <trkpt lat="49.29227" lon="-0.27475">
        <ele>5.6</ele>
        <time>2020-12-20T08:43:11Z</time>
      </trkpt>
      <trkpt lat="49.29227" lon="-0.27472">
        <ele>5.6</ele>
        <time>2020-12-20T08:43:13Z</time>
      </trkpt>
      <trkpt lat="49.29227" lon="-0.27469">
        <ele>5.6</ele>
        <time>2020-12-20T08:43:14Z</time>
      </trkpt>
      <trkpt lat="49.29227" lon="-0.27466">
        <ele>5.6</ele>
        <time>2020-12-20T08:43:15Z</time>
      </trkpt>
      <trkpt lat="49.29227" lon="-0.27462">
        <ele>5.6</ele>
        <time>2020-12-20T08:43:17Z</time>
      </trkpt>
      <trkpt lat="49.29227" lon="-0.27458">
        <ele>5.6</ele>
        <time>2020-12-20T08:43:18Z</time>
      </trkpt>
      <trkpt lat="49.29227" lon="-0.27455">
        <ele>5.6</ele>
        <time>2020-12-20T08:43:20Z</time>
      </trkpt>
      <trkpt lat="49.29227" lon="-0.2745">
        <ele>5.6</ele>
        <time>2020-12-20T08:43:21Z</time>
      </trkpt>
      <trkpt lat="49.29227" lon="-0.27448">
        <ele>5.6</ele>
        <time>2020-12-20T08:43:22Z</time>
      </trkpt>
      <trkpt lat="49.29226" lon="-0.27443">
        <ele>5.6</ele>
        <time>2020-12-20T08:43:24Z</time>
      </trkpt>
      <trkpt lat="49.29226" lon="-0.27442">
        <ele>5.6</ele>
        <time>2020-12-20T08:43:25Z</time>
      </trkpt>
      <trkpt lat="49.29225" lon="-0.27437">
        <ele>5.6</ele>
        <time>2020-12-20T08:43:26Z</time>
      </trkpt>
      <trkpt lat="49.29225" lon="-0.27436">
        <ele>5.6</ele>
        <time>2020-12-20T08:43:27Z</time>
      </trkpt>
      <trkpt lat="49.29225" lon="-0.27432">
        <ele>5.6</ele>
        <time>2020-12-20T08:43:28Z</time>
      </trkpt>
      <trkpt lat="49.29225" lon="-0.2743">
        <ele>5.6</ele>
        <time>2020-12-20T08:43:29Z</time>
      </trkpt>
      <trkpt lat="49.29224" lon="-0.27427">
        <ele>5.6</ele>
        <time>2020-12-20T08:43:30Z</time>
      </trkpt>
      <trkpt lat="49.29223" lon="-0.27423">
        <ele>5.6</ele>
        <time>2020-12-20T08:43:32Z</time>
      </trkpt>
      <trkpt lat="49.29222" lon="-0.27418">
        <ele>5.6</ele>
        <time>2020-12-20T08:43:33Z</time>
      </trkpt>
      <trkpt lat="49.29221" lon="-0.27413">
        <ele>5.6</ele>
        <time>2020-12-20T08:43:34Z</time>
      </trkpt>
      <trkpt lat="49.2922" lon="-0.27408">
        <ele>5.6</ele>
        <time>2020-12-20T08:43:36Z</time>
      </trkpt>
      <trkpt lat="49.2922" lon="-0.27406">
        <ele>5.6</ele>
        <time>2020-12-20T08:43:37Z</time>
      </trkpt>
      <trkpt lat="49.29219" lon="-0.27401">
        <ele>5.6</ele>
        <time>2020-12-20T08:43:39Z</time>
      </trkpt>
      <trkpt lat="49.29218" lon="-0.27396">
        <ele>5.6</ele>
        <time>2020-12-20T08:43:40Z</time>
      </trkpt>
      <trkpt lat="49.29217" lon="-0.27389">
        <ele>5.7</ele>
        <time>2020-12-20T08:43:42Z</time>
      </trkpt>
      <trkpt lat="49.29216" lon="-0.27384">
        <ele>5.7</ele>
        <time>2020-12-20T08:43:43Z</time>
      </trkpt>
      <trkpt lat="49.29215" lon="-0.2738">
        <ele>5.7</ele>
        <time>2020-12-20T08:43:45Z</time>
      </trkpt>
      <trkpt lat="49.29214" lon="-0.27375">
        <ele>5.7</ele>
        <time>2020-12-20T08:43:46Z</time>
      </trkpt>
      <trkpt lat="49.29213" lon="-0.2737">
        <ele>5.7</ele>
        <time>2020-12-20T08:43:48Z</time>
      </trkpt>
      <trkpt lat="49.29213" lon="-0.27367">
        <ele>5.7</ele>
        <time>2020-12-20T08:43:49Z</time>
      </trkpt>
      <trkpt lat="49.29211" lon="-0.27362">
        <ele>5.7</ele>
        <time>2020-12-20T08:43:51Z</time>
      </trkpt>
      <trkpt lat="49.2921" lon="-0.27355">
        <ele>5.7</ele>
        <time>2020-12-20T08:43:53Z</time>
      </trkpt>
      <trkpt lat="49.29209" lon="-0.27353">
        <ele>5.7</ele>
        <time>2020-12-20T08:43:54Z</time>
      </trkpt>
      <trkpt lat="49.29209" lon="-0.27351">
        <ele>5.7</ele>
        <time>2020-12-20T08:43:55Z</time>
      </trkpt>
      <trkpt lat="49.29207" lon="-0.27344">
        <ele>5.8</ele>
        <time>2020-12-20T08:43:57Z</time>
      </trkpt>
      <trkpt lat="49.29206" lon="-0.27338">
        <ele>5.8</ele>
        <time>2020-12-20T08:43:59Z</time>
      </trkpt>
      <trkpt lat="49.29205" lon="-0.27334">
        <ele>5.7</ele>
        <time>2020-12-20T08:44:00Z</time>
      </trkpt>
      <trkpt lat="49.29205" lon="-0.27329">
        <ele>5.7</ele>
        <time>2020-12-20T08:44:02Z</time>
      </trkpt>
      <trkpt lat="49.29205" lon="-0.27325">
        <ele>5.7</ele>
        <time>2020-12-20T08:44:03Z</time>
      </trkpt>
      <trkpt lat="49.29204" lon="-0.27322">
        <ele>5.7</ele>
        <time>2020-12-20T08:44:05Z</time>
      </trkpt>
      <trkpt lat="49.29203" lon="-0.27317">
        <ele>5.7</ele>
        <time>2020-12-20T08:44:06Z</time>
      </trkpt>
      <trkpt lat="49.29203" lon="-0.27315">
        <ele>5.7</ele>
        <time>2020-12-20T08:44:07Z</time>
      </trkpt>
      <trkpt lat="49.29202" lon="-0.27312">
        <ele>5.7</ele>
        <time>2020-12-20T08:44:08Z</time>
      </trkpt>
      <trkpt lat="49.29202" lon="-0.27307">
        <ele>5.7</ele>
        <time>2020-12-20T08:44:10Z</time>
      </trkpt>
      <trkpt lat="49.29201" lon="-0.27302">
        <ele>5.7</ele>
        <time>2020-12-20T08:44:12Z</time>
      </trkpt>
      <trkpt lat="49.292" lon="-0.27301">
        <ele>5.6</ele>
        <time>2020-12-20T08:44:13Z</time>
      </trkpt>
      <trkpt lat="49.29198" lon="-0.27296">
        <ele>5.6</ele>
        <time>2020-12-20T08:44:14Z</time>
      </trkpt>
      <trkpt lat="49.29198" lon="-0.27294">
        <ele>5.6</ele>
        <time>2020-12-20T08:44:15Z</time>
      </trkpt>
      <trkpt lat="49.29196" lon="-0.27289">
        <ele>5.6</ele>
        <time>2020-12-20T08:44:17Z</time>
      </trkpt>
      <trkpt lat="49.29195" lon="-0.27285">
        <ele>5.6</ele>
        <time>2020-12-20T08:44:19Z</time>
      </trkpt>
      <trkpt lat="49.29194" lon="-0.2728">
        <ele>5.6</ele>
        <time>2020-12-20T08:44:20Z</time>
      </trkpt>
      <trkpt lat="49.29193" lon="-0.27274">
        <ele>5.6</ele>
        <time>2020-12-20T08:44:22Z</time>
      </trkpt>
      <trkpt lat="49.29193" lon="-0.27271">
        <ele>5.7</ele>
        <time>2020-12-20T08:44:23Z</time>
      </trkpt>
      <trkpt lat="49.29192" lon="-0.27267">
        <ele>5.7</ele>
        <time>2020-12-20T08:44:25Z</time>
      </trkpt>
      <trkpt lat="49.29191" lon="-0.27262">
        <ele>5.7</ele>
        <time>2020-12-20T08:44:26Z</time>
      </trkpt>
      <trkpt lat="49.29191" lon="-0.2726">
        <ele>5.7</ele>
        <time>2020-12-20T08:44:27Z</time>
      </trkpt>
      <trkpt lat="49.2919" lon="-0.27255">
        <ele>5.7</ele>
        <time>2020-12-20T08:44:29Z</time>
      </trkpt>
      <trkpt lat="49.2919" lon="-0.27254">
        <ele>5.7</ele>
        <time>2020-12-20T08:44:30Z</time>
      </trkpt>
      <trkpt lat="49.2919" lon="-0.27249">
        <ele>5.7</ele>
        <time>2020-12-20T08:44:31Z</time>
      </trkpt>
      <trkpt lat="49.29189" lon="-0.27248">
        <ele>5.7</ele>
        <time>2020-12-20T08:44:32Z</time>
      </trkpt>
      <trkpt lat="49.29189" lon="-0.27244">
        <ele>5.7</ele>
        <time>2020-12-20T08:44:33Z</time>
      </trkpt>
      <trkpt lat="49.29188" lon="-0.27241">
        <ele>5.7</ele>
        <time>2020-12-20T08:44:35Z</time>
      </trkpt>
      <trkpt lat="49.29187" lon="-0.27236">
        <ele>5.7</ele>
        <time>2020-12-20T08:44:36Z</time>
      </trkpt>
      <trkpt lat="49.29187" lon="-0.27234">
        <ele>5.7</ele>
        <time>2020-12-20T08:44:37Z</time>
      </trkpt>
      <trkpt lat="49.29186" lon="-0.27228">
        <ele>5.8</ele>
        <time>2020-12-20T08:44:38Z</time>
      </trkpt>
      <trkpt lat="49.29185" lon="-0.27225">
        <ele>5.8</ele>
        <time>2020-12-20T08:44:39Z</time>
      </trkpt>
      <trkpt lat="49.29184" lon="-0.2722">
        <ele>5.8</ele>
        <time>2020-12-20T08:44:41Z</time>
      </trkpt>
      <trkpt lat="49.29184" lon="-0.27217">
        <ele>5.8</ele>
        <time>2020-12-20T08:44:42Z</time>
      </trkpt>
      <trkpt lat="49.29183" lon="-0.27213">
        <ele>5.8</ele>
        <time>2020-12-20T08:44:44Z</time>
      </trkpt>
      <trkpt lat="49.29182" lon="-0.2721">
        <ele>5.8</ele>
        <time>2020-12-20T08:44:45Z</time>
      </trkpt>
      <trkpt lat="49.29181" lon="-0.27205">
        <ele>5.8</ele>
        <time>2020-12-20T08:44:47Z</time>
      </trkpt>
      <trkpt lat="49.2918" lon="-0.27201">
        <ele>5.9</ele>
        <time>2020-12-20T08:44:49Z</time>
      </trkpt>
      <trkpt lat="49.2918" lon="-0.27198">
        <ele>5.9</ele>
        <time>2020-12-20T08:44:50Z</time>
      </trkpt>
      <trkpt lat="49.29179" lon="-0.27193">
        <ele>5.9</ele>
        <time>2020-12-20T08:44:52Z</time>
      </trkpt>
      <trkpt lat="49.29178" lon="-0.27188">
        <ele>5.9</ele>
        <time>2020-12-20T08:44:54Z</time>
      </trkpt>
      <trkpt lat="49.29178" lon="-0.27186">
        <ele>5.9</ele>
        <time>2020-12-20T08:44:55Z</time>
      </trkpt>
      <trkpt lat="49.29177" lon="-0.27181">
        <ele>5.9</ele>
        <time>2020-12-20T08:44:56Z</time>
      </trkpt>
      <trkpt lat="49.29176" lon="-0.27175">
        <ele>5.9</ele>
        <time>2020-12-20T08:44:58Z</time>
      </trkpt>
      <trkpt lat="49.29176" lon="-0.27173">
        <ele>5.9</ele>
        <time>2020-12-20T08:44:59Z</time>
      </trkpt>
      <trkpt lat="49.29175" lon="-0.2717">
        <ele>5.9</ele>
        <time>2020-12-20T08:45:00Z</time>
      </trkpt>
      <trkpt lat="49.29175" lon="-0.27168">
        <ele>5.9</ele>
        <time>2020-12-20T08:45:01Z</time>
      </trkpt>
      <trkpt lat="49.29174" lon="-0.27164">
        <ele>5.8</ele>
        <time>2020-12-20T08:45:03Z</time>
      </trkpt>
      <trkpt lat="49.29173" lon="-0.27159">
        <ele>5.8</ele>
        <time>2020-12-20T08:45:04Z</time>
      </trkpt>
      <trkpt lat="49.29172" lon="-0.27153">
        <ele>5.8</ele>
        <time>2020-12-20T08:45:05Z</time>
      </trkpt>
      <trkpt lat="49.29171" lon="-0.27148">
        <ele>5.8</ele>
        <time>2020-12-20T08:45:07Z</time>
      </trkpt>
      <trkpt lat="49.29171" lon="-0.27143">
        <ele>5.8</ele>
        <time>2020-12-20T08:45:09Z</time>
      </trkpt>
      <trkpt lat="49.2917" lon="-0.27138">
        <ele>5.8</ele>
        <time>2020-12-20T08:45:10Z</time>
      </trkpt>
      <trkpt lat="49.2917" lon="-0.27133">
        <ele>5.8</ele>
        <time>2020-12-20T08:45:12Z</time>
      </trkpt>
      <trkpt lat="49.2917" lon="-0.27128">
        <ele>5.8</ele>
        <time>2020-12-20T08:45:14Z</time>
      </trkpt>
      <trkpt lat="49.29169" lon="-0.27124">
        <ele>5.8</ele>
        <time>2020-12-20T08:45:16Z</time>
      </trkpt>
      <trkpt lat="49.29169" lon="-0.27118">
        <ele>5.8</ele>
        <time>2020-12-20T08:45:17Z</time>
      </trkpt>
      <trkpt lat="49.29169" lon="-0.27114">
        <ele>5.8</ele>
        <time>2020-12-20T08:45:19Z</time>
      </trkpt>
      <trkpt lat="49.29169" lon="-0.27112">
        <ele>5.8</ele>
        <time>2020-12-20T08:45:20Z</time>
      </trkpt>
      <trkpt lat="49.29169" lon="-0.27108">
        <ele>5.8</ele>
        <time>2020-12-20T08:45:21Z</time>
      </trkpt>
      <trkpt lat="49.29169" lon="-0.27104">
        <ele>5.8</ele>
        <time>2020-12-20T08:45:23Z</time>
      </trkpt>
      <trkpt lat="49.29169" lon="-0.271">
        <ele>5.8</ele>
        <time>2020-12-20T08:45:24Z</time>
      </trkpt>
      <trkpt lat="49.2917" lon="-0.27095">
        <ele>5.8</ele>
        <time>2020-12-20T08:45:26Z</time>
      </trkpt>
      <trkpt lat="49.2917" lon="-0.2709">
        <ele>5.8</ele>
        <time>2020-12-20T08:45:27Z</time>
      </trkpt>
      <trkpt lat="49.2917" lon="-0.27088">
        <ele>5.8</ele>
        <time>2020-12-20T08:45:28Z</time>
      </trkpt>
      <trkpt lat="49.29171" lon="-0.27084">
        <ele>5.8</ele>
        <time>2020-12-20T08:45:29Z</time>
      </trkpt>
      <trkpt lat="49.29172" lon="-0.27081">
        <ele>5.8</ele>
        <time>2020-12-20T08:45:30Z</time>
      </trkpt>
      <trkpt lat="49.29172" lon="-0.27078">
        <ele>5.8</ele>
        <time>2020-12-20T08:45:32Z</time>
      </trkpt>
      <trkpt lat="49.29172" lon="-0.27072">
        <ele>5.8</ele>
        <time>2020-12-20T08:45:33Z</time>
      </trkpt>
      <trkpt lat="49.29172" lon="-0.2707">
        <ele>5.8</ele>
        <time>2020-12-20T08:45:34Z</time>
      </trkpt>
      <trkpt lat="49.29172" lon="-0.27066">
        <ele>5.8</ele>
        <time>2020-12-20T08:45:35Z</time>
      </trkpt>
      <trkpt lat="49.29172" lon="-0.2706">
        <ele>5.8</ele>
        <time>2020-12-20T08:45:37Z</time>
      </trkpt>
      <trkpt lat="49.29171" lon="-0.27058">
        <ele>5.8</ele>
        <time>2020-12-20T08:45:38Z</time>
      </trkpt>
      <trkpt lat="49.29171" lon="-0.27054">
        <ele>5.8</ele>
        <time>2020-12-20T08:45:39Z</time>
      </trkpt>
      <trkpt lat="49.29171" lon="-0.27049">
        <ele>5.8</ele>
        <time>2020-12-20T08:45:40Z</time>
      </trkpt>
      <trkpt lat="49.29171" lon="-0.27044">
        <ele>4.6</ele>
        <time>2020-12-20T08:45:42Z</time>
      </trkpt>
      <trkpt lat="49.29171" lon="-0.27042">
        <ele>4.6</ele>
        <time>2020-12-20T08:45:43Z</time>
      </trkpt>
      <trkpt lat="49.29171" lon="-0.27038">
        <ele>4.6</ele>
        <time>2020-12-20T08:45:44Z</time>
      </trkpt>
      <trkpt lat="49.29171" lon="-0.27033">
        <ele>4.6</ele>
        <time>2020-12-20T08:45:45Z</time>
      </trkpt>
      <trkpt lat="49.2917" lon="-0.27028">
        <ele>4.6</ele>
        <time>2020-12-20T08:45:47Z</time>
      </trkpt>
      <trkpt lat="49.2917" lon="-0.27026">
        <ele>4.6</ele>
        <time>2020-12-20T08:45:48Z</time>
      </trkpt>
      <trkpt lat="49.29169" lon="-0.27022">
        <ele>4.6</ele>
        <time>2020-12-20T08:45:49Z</time>
      </trkpt>
      <trkpt lat="49.29169" lon="-0.27017">
        <ele>4.6</ele>
        <time>2020-12-20T08:45:51Z</time>
      </trkpt>
      <trkpt lat="49.29168" lon="-0.27011">
        <ele>4.6</ele>
        <time>2020-12-20T08:45:52Z</time>
      </trkpt>
      <trkpt lat="49.29167" lon="-0.27007">
        <ele>4.6</ele>
        <time>2020-12-20T08:45:54Z</time>
      </trkpt>
      <trkpt lat="49.29166" lon="-0.27003">
        <ele>4.6</ele>
        <time>2020-12-20T08:45:55Z</time>
      </trkpt>
      <trkpt lat="49.29165" lon="-0.26997">
        <ele>4.6</ele>
        <time>2020-12-20T08:45:57Z</time>
      </trkpt>
      <trkpt lat="49.29165" lon="-0.26996">
        <ele>4.6</ele>
        <time>2020-12-20T08:45:58Z</time>
      </trkpt>
      <trkpt lat="49.29165" lon="-0.26993">
        <ele>4.6</ele>
        <time>2020-12-20T08:45:59Z</time>
      </trkpt>
      <trkpt lat="49.29165" lon="-0.26989">
        <ele>4.6</ele>
        <time>2020-12-20T08:46:01Z</time>
      </trkpt>
      <trkpt lat="49.29164" lon="-0.26983">
        <ele>4.5</ele>
        <time>2020-12-20T08:46:02Z</time>
      </trkpt>
      <trkpt lat="49.29164" lon="-0.26981">
        <ele>4.5</ele>
        <time>2020-12-20T08:46:03Z</time>
      </trkpt>
      <trkpt lat="49.29164" lon="-0.26977">
        <ele>4.5</ele>
        <time>2020-12-20T08:46:04Z</time>
      </trkpt>
      <trkpt lat="49.29164" lon="-0.26974">
        <ele>4.5</ele>
        <time>2020-12-20T08:46:05Z</time>
      </trkpt>
      <trkpt lat="49.29163" lon="-0.2697">
        <ele>4.5</ele>
        <time>2020-12-20T08:46:07Z</time>
      </trkpt>
      <trkpt lat="49.29163" lon="-0.26965">
        <ele>4.5</ele>
        <time>2020-12-20T08:46:08Z</time>
      </trkpt>
      <trkpt lat="49.29163" lon="-0.26964">
        <ele>4.5</ele>
        <time>2020-12-20T08:46:09Z</time>
      </trkpt>
      <trkpt lat="49.29163" lon="-0.26958">
        <ele>4.5</ele>
        <time>2020-12-20T08:46:11Z</time>
      </trkpt>
      <trkpt lat="49.29162" lon="-0.26956">
        <ele>4.5</ele>
        <time>2020-12-20T08:46:12Z</time>
      </trkpt>
      <trkpt lat="49.29162" lon="-0.26951">
        <ele>4.5</ele>
        <time>2020-12-20T08:46:13Z</time>
      </trkpt>
      <trkpt lat="49.29162" lon="-0.26949">
        <ele>4.5</ele>
        <time>2020-12-20T08:46:14Z</time>
      </trkpt>
      <trkpt lat="49.29161" lon="-0.26943">
        <ele>4.5</ele>
        <time>2020-12-20T08:46:16Z</time>
      </trkpt>
      <trkpt lat="49.29161" lon="-0.26939">
        <ele>4.5</ele>
        <time>2020-12-20T08:46:17Z</time>
      </trkpt>
      <trkpt lat="49.2916" lon="-0.26936">
        <ele>4.5</ele>
        <time>2020-12-20T08:46:18Z</time>
      </trkpt>
      <trkpt lat="49.2916" lon="-0.26933">
        <ele>4.5</ele>
        <time>2020-12-20T08:46:20Z</time>
      </trkpt>
      <trkpt lat="49.29159" lon="-0.26927">
        <ele>4.4</ele>
        <time>2020-12-20T08:46:21Z</time>
      </trkpt>
      <trkpt lat="49.29159" lon="-0.26926">
        <ele>4.4</ele>
        <time>2020-12-20T08:46:22Z</time>
      </trkpt>
      <trkpt lat="49.29158" lon="-0.26921">
        <ele>4.4</ele>
        <time>2020-12-20T08:46:24Z</time>
      </trkpt>
      <trkpt lat="49.29158" lon="-0.26916">
        <ele>4.4</ele>
        <time>2020-12-20T08:46:25Z</time>
      </trkpt>
      <trkpt lat="49.29157" lon="-0.26911">
        <ele>4.4</ele>
        <time>2020-12-20T08:46:27Z</time>
      </trkpt>
      <trkpt lat="49.29157" lon="-0.26906">
        <ele>4.4</ele>
        <time>2020-12-20T08:46:28Z</time>
      </trkpt>
      <trkpt lat="49.29157" lon="-0.26901">
        <ele>4.4</ele>
        <time>2020-12-20T08:46:30Z</time>
      </trkpt>
      <trkpt lat="49.29156" lon="-0.26895">
        <ele>4.4</ele>
        <time>2020-12-20T08:46:31Z</time>
      </trkpt>
      <trkpt lat="49.29155" lon="-0.26891">
        <ele>4.4</ele>
        <time>2020-12-20T08:46:32Z</time>
      </trkpt>
      <trkpt lat="49.29155" lon="-0.26885">
        <ele>4.4</ele>
        <time>2020-12-20T08:46:34Z</time>
      </trkpt>
      <trkpt lat="49.29154" lon="-0.2688">
        <ele>4.4</ele>
        <time>2020-12-20T08:46:35Z</time>
      </trkpt>
      <trkpt lat="49.29154" lon="-0.26879">
        <ele>4.4</ele>
        <time>2020-12-20T08:46:36Z</time>
      </trkpt>
      <trkpt lat="49.29154" lon="-0.26874">
        <ele>4.4</ele>
        <time>2020-12-20T08:46:38Z</time>
      </trkpt>
      <trkpt lat="49.29154" lon="-0.26872">
        <ele>4.4</ele>
        <time>2020-12-20T08:46:39Z</time>
      </trkpt>
      <trkpt lat="49.29153" lon="-0.26868">
        <ele>4.4</ele>
        <time>2020-12-20T08:46:40Z</time>
      </trkpt>
      <trkpt lat="49.29153" lon="-0.26866">
        <ele>4.4</ele>
        <time>2020-12-20T08:46:41Z</time>
      </trkpt>
      <trkpt lat="49.29153" lon="-0.26862">
        <ele>4.4</ele>
        <time>2020-12-20T08:46:43Z</time>
      </trkpt>
      <trkpt lat="49.29152" lon="-0.26857">
        <ele>4.4</ele>
        <time>2020-12-20T08:46:44Z</time>
      </trkpt>
      <trkpt lat="49.29152" lon="-0.2685">
        <ele>4.4</ele>
        <time>2020-12-20T08:46:46Z</time>
      </trkpt>
      <trkpt lat="49.29152" lon="-0.26847">
        <ele>4.4</ele>
        <time>2020-12-20T08:46:47Z</time>
      </trkpt>
      <trkpt lat="49.29151" lon="-0.26845">
        <ele>4.4</ele>
        <time>2020-12-20T08:46:48Z</time>
      </trkpt>
      <trkpt lat="49.29151" lon="-0.26839">
        <ele>4.4</ele>
        <time>2020-12-20T08:46:50Z</time>
      </trkpt>
      <trkpt lat="49.2915" lon="-0.26833">
        <ele>4.4</ele>
        <time>2020-12-20T08:46:51Z</time>
      </trkpt>
      <trkpt lat="49.2915" lon="-0.26829">
        <ele>4.4</ele>
        <time>2020-12-20T08:46:52Z</time>
      </trkpt>
      <trkpt lat="49.2915" lon="-0.26826">
        <ele>4.4</ele>
        <time>2020-12-20T08:46:54Z</time>
      </trkpt>
      <trkpt lat="49.29149" lon="-0.26821">
        <ele>4.4</ele>
        <time>2020-12-20T08:46:55Z</time>
      </trkpt>
      <trkpt lat="49.29149" lon="-0.26819">
        <ele>4.4</ele>
        <time>2020-12-20T08:46:56Z</time>
      </trkpt>
      <trkpt lat="49.29149" lon="-0.26816">
        <ele>4.4</ele>
        <time>2020-12-20T08:46:57Z</time>
      </trkpt>
      <trkpt lat="49.29149" lon="-0.26815">
        <ele>4.4</ele>
        <time>2020-12-20T08:46:59Z</time>
      </trkpt>
      <trkpt lat="49.29149" lon="-0.26813">
        <ele>4.4</ele>
        <time>2020-12-20T08:47:00Z</time>
      </trkpt>
      <trkpt lat="49.29149" lon="-0.2681">
        <ele>4.4</ele>
        <time>2020-12-20T08:47:01Z</time>
      </trkpt>
      <trkpt lat="49.29149" lon="-0.26807">
        <ele>4.4</ele>
        <time>2020-12-20T08:47:02Z</time>
      </trkpt>
      <trkpt lat="49.29148" lon="-0.26802">
        <ele>4.4</ele>
        <time>2020-12-20T08:47:04Z</time>
      </trkpt>
      <trkpt lat="49.29148" lon="-0.26798">
        <ele>4.4</ele>
        <time>2020-12-20T08:47:05Z</time>
      </trkpt>
      <trkpt lat="49.29147" lon="-0.26793">
        <ele>4.4</ele>
        <time>2020-12-20T08:47:07Z</time>
      </trkpt>
      <trkpt lat="49.29147" lon="-0.26791">
        <ele>4.4</ele>
        <time>2020-12-20T08:47:08Z</time>
      </trkpt>
      <trkpt lat="49.29147" lon="-0.26785">
        <ele>4.4</ele>
        <time>2020-12-20T08:47:09Z</time>
      </trkpt>
      <trkpt lat="49.29146" lon="-0.26782">
        <ele>4.4</ele>
        <time>2020-12-20T08:47:10Z</time>
      </trkpt>
      <trkpt lat="49.29146" lon="-0.26776">
        <ele>4.4</ele>
        <time>2020-12-20T08:47:12Z</time>
      </trkpt>
      <trkpt lat="49.29146" lon="-0.2677">
        <ele>4.4</ele>
        <time>2020-12-20T08:47:14Z</time>
      </trkpt>
      <trkpt lat="49.29145" lon="-0.26764">
        <ele>4.4</ele>
        <time>2020-12-20T08:47:15Z</time>
      </trkpt>
      <trkpt lat="49.29145" lon="-0.26762">
        <ele>4.4</ele>
        <time>2020-12-20T08:47:16Z</time>
      </trkpt>
      <trkpt lat="49.29144" lon="-0.26757">
        <ele>4.4</ele>
        <time>2020-12-20T08:47:17Z</time>
      </trkpt>
      <trkpt lat="49.29144" lon="-0.26752">
        <ele>4.4</ele>
        <time>2020-12-20T08:47:19Z</time>
      </trkpt>
      <trkpt lat="49.29144" lon="-0.26751">
        <ele>4.4</ele>
        <time>2020-12-20T08:47:20Z</time>
      </trkpt>
      <trkpt lat="49.29143" lon="-0.26746">
        <ele>4.4</ele>
        <time>2020-12-20T08:47:21Z</time>
      </trkpt>
      <trkpt lat="49.29143" lon="-0.26744">
        <ele>4.4</ele>
        <time>2020-12-20T08:47:22Z</time>
      </trkpt>
      <trkpt lat="49.29143" lon="-0.2674">
        <ele>4.4</ele>
        <time>2020-12-20T08:47:23Z</time>
      </trkpt>
      <trkpt lat="49.29142" lon="-0.26737">
        <ele>4.4</ele>
        <time>2020-12-20T08:47:25Z</time>
      </trkpt>
      <trkpt lat="49.29142" lon="-0.26732">
        <ele>4.4</ele>
        <time>2020-12-20T08:47:26Z</time>
      </trkpt>
      <trkpt lat="49.29141" lon="-0.26731">
        <ele>4.4</ele>
        <time>2020-12-20T08:47:27Z</time>
      </trkpt>
      <trkpt lat="49.29141" lon="-0.26727">
        <ele>4.4</ele>
        <time>2020-12-20T08:47:28Z</time>
      </trkpt>
      <trkpt lat="49.2914" lon="-0.26721">
        <ele>4.4</ele>
        <time>2020-12-20T08:47:30Z</time>
      </trkpt>
      <trkpt lat="49.29139" lon="-0.26715">
        <ele>4.4</ele>
        <time>2020-12-20T08:47:31Z</time>
      </trkpt>
      <trkpt lat="49.29138" lon="-0.26711">
        <ele>4.4</ele>
        <time>2020-12-20T08:47:32Z</time>
      </trkpt>
      <trkpt lat="49.29138" lon="-0.26705">
        <ele>4.4</ele>
        <time>2020-12-20T08:47:34Z</time>
      </trkpt>
      <trkpt lat="49.29137" lon="-0.267">
        <ele>4.4</ele>
        <time>2020-12-20T08:47:35Z</time>
      </trkpt>
      <trkpt lat="49.29136" lon="-0.26694">
        <ele>4.4</ele>
        <time>2020-12-20T08:47:37Z</time>
      </trkpt>
      <trkpt lat="49.29135" lon="-0.2669">
        <ele>4.4</ele>
        <time>2020-12-20T08:47:38Z</time>
      </trkpt>
      <trkpt lat="49.29135" lon="-0.26686">
        <ele>4.4</ele>
        <time>2020-12-20T08:47:40Z</time>
      </trkpt>
      <trkpt lat="49.29134" lon="-0.26681">
        <ele>4.4</ele>
        <time>2020-12-20T08:47:41Z</time>
      </trkpt>
      <trkpt lat="49.29134" lon="-0.26679">
        <ele>4.4</ele>
        <time>2020-12-20T08:47:42Z</time>
      </trkpt>
      <trkpt lat="49.29134" lon="-0.26676">
        <ele>4.4</ele>
        <time>2020-12-20T08:47:43Z</time>
      </trkpt>
      <trkpt lat="49.29134" lon="-0.26673">
        <ele>4.4</ele>
        <time>2020-12-20T08:47:45Z</time>
      </trkpt>
      <trkpt lat="49.29133" lon="-0.26669">
        <ele>4.4</ele>
        <time>2020-12-20T08:47:46Z</time>
      </trkpt>
      <trkpt lat="49.29132" lon="-0.26665">
        <ele>4.4</ele>
        <time>2020-12-20T08:47:48Z</time>
      </trkpt>
      <trkpt lat="49.29132" lon="-0.26663">
        <ele>4.4</ele>
        <time>2020-12-20T08:47:50Z</time>
      </trkpt>
      <trkpt lat="49.29132" lon="-0.26659">
        <ele>4.4</ele>
        <time>2020-12-20T08:47:51Z</time>
      </trkpt>
      <trkpt lat="49.29132" lon="-0.26656">
        <ele>4.4</ele>
        <time>2020-12-20T08:47:52Z</time>
      </trkpt>
      <trkpt lat="49.29131" lon="-0.26652">
        <ele>4.4</ele>
        <time>2020-12-20T08:47:54Z</time>
      </trkpt>
      <trkpt lat="49.2913" lon="-0.26646">
        <ele>4.4</ele>
        <time>2020-12-20T08:47:56Z</time>
      </trkpt>
      <trkpt lat="49.2913" lon="-0.26644">
        <ele>4.4</ele>
        <time>2020-12-20T08:47:58Z</time>
      </trkpt>
      <trkpt lat="49.29129" lon="-0.26642">
        <ele>4.4</ele>
        <time>2020-12-20T08:47:59Z</time>
      </trkpt>
      <trkpt lat="49.29129" lon="-0.26637">
        <ele>4.4</ele>
        <time>2020-12-20T08:48:01Z</time>
      </trkpt>
      <trkpt lat="49.29128" lon="-0.26632">
        <ele>4.4</ele>
        <time>2020-12-20T08:48:03Z</time>
      </trkpt>
      <trkpt lat="49.29127" lon="-0.2663">
        <ele>4.4</ele>
        <time>2020-12-20T08:48:04Z</time>
      </trkpt>
      <trkpt lat="49.29127" lon="-0.26628">
        <ele>4.4</ele>
        <time>2020-12-20T08:48:05Z</time>
      </trkpt>
      <trkpt lat="49.29125" lon="-0.26623">
        <ele>4.4</ele>
        <time>2020-12-20T08:48:07Z</time>
      </trkpt>
      <trkpt lat="49.29125" lon="-0.2662">
        <ele>4.4</ele>
        <time>2020-12-20T08:48:08Z</time>
      </trkpt>
      <trkpt lat="49.29124" lon="-0.26615">
        <ele>4.4</ele>
        <time>2020-12-20T08:48:11Z</time>
      </trkpt>
      <trkpt lat="49.29124" lon="-0.26609">
        <ele>4.3</ele>
        <time>2020-12-20T08:48:12Z</time>
      </trkpt>
      <trkpt lat="49.29123" lon="-0.26605">
        <ele>4.3</ele>
        <time>2020-12-20T08:48:13Z</time>
      </trkpt>
      <trkpt lat="49.29123" lon="-0.26603">
        <ele>4.3</ele>
        <time>2020-12-20T08:48:14Z</time>
      </trkpt>
      <trkpt lat="49.29122" lon="-0.26599">
        <ele>4.3</ele>
        <time>2020-12-20T08:48:15Z</time>
      </trkpt>
      <trkpt lat="49.29121" lon="-0.26597">
        <ele>4.3</ele>
        <time>2020-12-20T08:48:17Z</time>
      </trkpt>
      <trkpt lat="49.2912" lon="-0.26595">
        <ele>4.3</ele>
        <time>2020-12-20T08:48:18Z</time>
      </trkpt>
      <trkpt lat="49.29119" lon="-0.26593">
        <ele>4.3</ele>
        <time>2020-12-20T08:48:19Z</time>
      </trkpt>
      <trkpt lat="49.29118" lon="-0.26589">
        <ele>4.2</ele>
        <time>2020-12-20T08:48:21Z</time>
      </trkpt>
      <trkpt lat="49.29117" lon="-0.26587">
        <ele>4.2</ele>
        <time>2020-12-20T08:48:22Z</time>
      </trkpt>
      <trkpt lat="49.29116" lon="-0.26583">
        <ele>4.2</ele>
        <time>2020-12-20T08:48:24Z</time>
      </trkpt>
      <trkpt lat="49.29116" lon="-0.26581">
        <ele>4.2</ele>
        <time>2020-12-20T08:48:25Z</time>
      </trkpt>
      <trkpt lat="49.29113" lon="-0.26575">
        <ele>4.1</ele>
        <time>2020-12-20T08:48:28Z</time>
      </trkpt>
      <trkpt lat="49.29113" lon="-0.2657">
        <ele>4.1</ele>
        <time>2020-12-20T08:48:30Z</time>
      </trkpt>
      <trkpt lat="49.29113" lon="-0.26566">
        <ele>4.1</ele>
        <time>2020-12-20T08:48:32Z</time>
      </trkpt>
      <trkpt lat="49.29113" lon="-0.26563">
        <ele>4</ele>
        <time>2020-12-20T08:48:33Z</time>
      </trkpt>
      <trkpt lat="49.29112" lon="-0.2656">
        <ele>4</ele>
        <time>2020-12-20T08:48:35Z</time>
      </trkpt>
      <trkpt lat="49.29112" lon="-0.26557">
        <ele>4</ele>
        <time>2020-12-20T08:48:36Z</time>
      </trkpt>
      <trkpt lat="49.29111" lon="-0.26552">
        <ele>4</ele>
        <time>2020-12-20T08:48:38Z</time>
      </trkpt>
      <trkpt lat="49.2911" lon="-0.26546">
        <ele>3.9</ele>
        <time>2020-12-20T08:48:39Z</time>
      </trkpt>
      <trkpt lat="49.2911" lon="-0.26543">
        <ele>3.9</ele>
        <time>2020-12-20T08:48:40Z</time>
      </trkpt>
      <trkpt lat="49.2911" lon="-0.2654">
        <ele>3.9</ele>
        <time>2020-12-20T08:48:42Z</time>
      </trkpt>
      <trkpt lat="49.29109" lon="-0.26536">
        <ele>3.9</ele>
        <time>2020-12-20T08:48:43Z</time>
      </trkpt>
      <trkpt lat="49.29109" lon="-0.26531">
        <ele>3.9</ele>
        <time>2020-12-20T08:48:44Z</time>
      </trkpt>
      <trkpt lat="49.29108" lon="-0.26525">
        <ele>3.8</ele>
        <time>2020-12-20T08:48:46Z</time>
      </trkpt>
      <trkpt lat="49.29108" lon="-0.26523">
        <ele>3.8</ele>
        <time>2020-12-20T08:48:47Z</time>
      </trkpt>
      <trkpt lat="49.29107" lon="-0.26518">
        <ele>3.8</ele>
        <time>2020-12-20T08:48:48Z</time>
      </trkpt>
      <trkpt lat="49.29107" lon="-0.26512">
        <ele>3.8</ele>
        <time>2020-12-20T08:48:49Z</time>
      </trkpt>
      <trkpt lat="49.29106" lon="-0.26507">
        <ele>3.8</ele>
        <time>2020-12-20T08:48:50Z</time>
      </trkpt>
      <trkpt lat="49.29105" lon="-0.265">
        <ele>3.8</ele>
        <time>2020-12-20T08:48:52Z</time>
      </trkpt>
      <trkpt lat="49.29105" lon="-0.26494">
        <ele>3.8</ele>
        <time>2020-12-20T08:48:54Z</time>
      </trkpt>
      <trkpt lat="49.29105" lon="-0.26488">
        <ele>3.8</ele>
        <time>2020-12-20T08:48:55Z</time>
      </trkpt>
      <trkpt lat="49.29104" lon="-0.26486">
        <ele>3.8</ele>
        <time>2020-12-20T08:48:56Z</time>
      </trkpt>
      <trkpt lat="49.29104" lon="-0.2648">
        <ele>3.8</ele>
        <time>2020-12-20T08:48:58Z</time>
      </trkpt>
      <trkpt lat="49.29104" lon="-0.26474">
        <ele>3.8</ele>
        <time>2020-12-20T08:49:00Z</time>
      </trkpt>
      <trkpt lat="49.29103" lon="-0.26469">
        <ele>3.8</ele>
        <time>2020-12-20T08:49:02Z</time>
      </trkpt>
      <trkpt lat="49.29103" lon="-0.26464">
        <ele>3.8</ele>
        <time>2020-12-20T08:49:03Z</time>
      </trkpt>
      <trkpt lat="49.29102" lon="-0.2646">
        <ele>3.8</ele>
        <time>2020-12-20T08:49:04Z</time>
      </trkpt>
      <trkpt lat="49.29102" lon="-0.26457">
        <ele>3.8</ele>
        <time>2020-12-20T08:49:06Z</time>
      </trkpt>
      <trkpt lat="49.29102" lon="-0.26451">
        <ele>3.8</ele>
        <time>2020-12-20T08:49:07Z</time>
      </trkpt>
      <trkpt lat="49.29102" lon="-0.26448">
        <ele>3.8</ele>
        <time>2020-12-20T08:49:08Z</time>
      </trkpt>
      <trkpt lat="49.29101" lon="-0.2644">
        <ele>3.7</ele>
        <time>2020-12-20T08:49:10Z</time>
      </trkpt>
      <trkpt lat="49.29101" lon="-0.26437">
        <ele>3.7</ele>
        <time>2020-12-20T08:49:12Z</time>
      </trkpt>
      <trkpt lat="49.291" lon="-0.26434">
        <ele>3.7</ele>
        <time>2020-12-20T08:49:13Z</time>
      </trkpt>
      <trkpt lat="49.291" lon="-0.26431">
        <ele>3.7</ele>
        <time>2020-12-20T08:49:14Z</time>
      </trkpt>
      <trkpt lat="49.29099" lon="-0.26426">
        <ele>3.7</ele>
        <time>2020-12-20T08:49:16Z</time>
      </trkpt>
      <trkpt lat="49.29099" lon="-0.2642">
        <ele>3.7</ele>
        <time>2020-12-20T08:49:17Z</time>
      </trkpt>
      <trkpt lat="49.29098" lon="-0.26417">
        <ele>3.7</ele>
        <time>2020-12-20T08:49:18Z</time>
      </trkpt>
      <trkpt lat="49.29098" lon="-0.26412">
        <ele>3.7</ele>
        <time>2020-12-20T08:49:20Z</time>
      </trkpt>
      <trkpt lat="49.29098" lon="-0.26409">
        <ele>3.7</ele>
        <time>2020-12-20T08:49:21Z</time>
      </trkpt>
      <trkpt lat="49.29097" lon="-0.26404">
        <ele>3.7</ele>
        <time>2020-12-20T08:49:23Z</time>
      </trkpt>
      <trkpt lat="49.29097" lon="-0.26403">
        <ele>3.7</ele>
        <time>2020-12-20T08:49:25Z</time>
      </trkpt>
      <trkpt lat="49.29097" lon="-0.26399">
        <ele>3.7</ele>
        <time>2020-12-20T08:49:26Z</time>
      </trkpt>
      <trkpt lat="49.29097" lon="-0.26397">
        <ele>3.7</ele>
        <time>2020-12-20T08:49:28Z</time>
      </trkpt>
      <trkpt lat="49.29098" lon="-0.26394">
        <ele>3.7</ele>
        <time>2020-12-20T08:49:29Z</time>
      </trkpt>
      <trkpt lat="49.29097" lon="-0.26392">
        <ele>3.7</ele>
        <time>2020-12-20T08:49:30Z</time>
      </trkpt>
      <trkpt lat="49.29097" lon="-0.26389">
        <ele>3.7</ele>
        <time>2020-12-20T08:49:31Z</time>
      </trkpt>
      <trkpt lat="49.29096" lon="-0.26385">
        <ele>3.7</ele>
        <time>2020-12-20T08:49:33Z</time>
      </trkpt>
      <trkpt lat="49.29095" lon="-0.26383">
        <ele>3.7</ele>
        <time>2020-12-20T08:49:34Z</time>
      </trkpt>
      <trkpt lat="49.29095" lon="-0.2638">
        <ele>3.7</ele>
        <time>2020-12-20T08:49:35Z</time>
      </trkpt>
      <trkpt lat="49.29094" lon="-0.26376">
        <ele>3.7</ele>
        <time>2020-12-20T08:49:36Z</time>
      </trkpt>
      <trkpt lat="49.29094" lon="-0.26373">
        <ele>3.7</ele>
        <time>2020-12-20T08:49:38Z</time>
      </trkpt>
      <trkpt lat="49.29093" lon="-0.26367">
        <ele>3.7</ele>
        <time>2020-12-20T08:49:39Z</time>
      </trkpt>
      <trkpt lat="49.29093" lon="-0.26365">
        <ele>3.7</ele>
        <time>2020-12-20T08:49:40Z</time>
      </trkpt>
      <trkpt lat="49.29092" lon="-0.26359">
        <ele>3.7</ele>
        <time>2020-12-20T08:49:42Z</time>
      </trkpt>
      <trkpt lat="49.29091" lon="-0.26352">
        <ele>3.7</ele>
        <time>2020-12-20T08:49:44Z</time>
      </trkpt>
      <trkpt lat="49.29091" lon="-0.26345">
        <ele>3.7</ele>
        <time>2020-12-20T08:49:45Z</time>
      </trkpt>
      <trkpt lat="49.2909" lon="-0.26339">
        <ele>3.7</ele>
        <time>2020-12-20T08:49:47Z</time>
      </trkpt>
      <trkpt lat="49.29089" lon="-0.26332">
        <ele>3.7</ele>
        <time>2020-12-20T08:49:48Z</time>
      </trkpt>
      <trkpt lat="49.29089" lon="-0.26328">
        <ele>3.7</ele>
        <time>2020-12-20T08:49:49Z</time>
      </trkpt>
      <trkpt lat="49.29089" lon="-0.26324">
        <ele>3.7</ele>
        <time>2020-12-20T08:49:51Z</time>
      </trkpt>
      <trkpt lat="49.29089" lon="-0.26319">
        <ele>3.7</ele>
        <time>2020-12-20T08:49:52Z</time>
      </trkpt>
      <trkpt lat="49.29088" lon="-0.26313">
        <ele>3.7</ele>
        <time>2020-12-20T08:49:53Z</time>
      </trkpt>
      <trkpt lat="49.29087" lon="-0.2631">
        <ele>3.7</ele>
        <time>2020-12-20T08:49:54Z</time>
      </trkpt>
      <trkpt lat="49.29087" lon="-0.26305">
        <ele>3.6</ele>
        <time>2020-12-20T08:49:56Z</time>
      </trkpt>
      <trkpt lat="49.29087" lon="-0.263">
        <ele>3.6</ele>
        <time>2020-12-20T08:49:57Z</time>
      </trkpt>
      <trkpt lat="49.29086" lon="-0.26296">
        <ele>3.6</ele>
        <time>2020-12-20T08:49:59Z</time>
      </trkpt>
      <trkpt lat="49.29085" lon="-0.26292">
        <ele>3.6</ele>
        <time>2020-12-20T08:50:00Z</time>
      </trkpt>
      <trkpt lat="49.29085" lon="-0.26285">
        <ele>3.6</ele>
        <time>2020-12-20T08:50:02Z</time>
      </trkpt>
      <trkpt lat="49.29084" lon="-0.2628">
        <ele>3.6</ele>
        <time>2020-12-20T08:50:04Z</time>
      </trkpt>
      <trkpt lat="49.29084" lon="-0.26276">
        <ele>3.6</ele>
        <time>2020-12-20T08:50:05Z</time>
      </trkpt>
      <trkpt lat="49.29084" lon="-0.26273">
        <ele>3.6</ele>
        <time>2020-12-20T08:50:06Z</time>
      </trkpt>
      <trkpt lat="49.29083" lon="-0.26268">
        <ele>3.6</ele>
        <time>2020-12-20T08:50:08Z</time>
      </trkpt>
      <trkpt lat="49.29083" lon="-0.26262">
        <ele>3.6</ele>
        <time>2020-12-20T08:50:10Z</time>
      </trkpt>
      <trkpt lat="49.29082" lon="-0.26256">
        <ele>3.6</ele>
        <time>2020-12-20T08:50:11Z</time>
      </trkpt>
      <trkpt lat="49.29082" lon="-0.26253">
        <ele>3.5</ele>
        <time>2020-12-20T08:50:12Z</time>
      </trkpt>
      <trkpt lat="49.29081" lon="-0.26245">
        <ele>3.5</ele>
        <time>2020-12-20T08:50:14Z</time>
      </trkpt>
      <trkpt lat="49.29081" lon="-0.26243">
        <ele>3.5</ele>
        <time>2020-12-20T08:50:15Z</time>
      </trkpt>
      <trkpt lat="49.29081" lon="-0.2624">
        <ele>3.5</ele>
        <time>2020-12-20T08:50:16Z</time>
      </trkpt>
      <trkpt lat="49.29081" lon="-0.26236">
        <ele>3.5</ele>
        <time>2020-12-20T08:50:18Z</time>
      </trkpt>
      <trkpt lat="49.29081" lon="-0.26234">
        <ele>3.5</ele>
        <time>2020-12-20T08:50:19Z</time>
      </trkpt>
      <trkpt lat="49.2908" lon="-0.2623">
        <ele>3.5</ele>
        <time>2020-12-20T08:50:20Z</time>
      </trkpt>
      <trkpt lat="49.2908" lon="-0.26228">
        <ele>3.5</ele>
        <time>2020-12-20T08:50:21Z</time>
      </trkpt>
      <trkpt lat="49.2908" lon="-0.26226">
        <ele>3.5</ele>
        <time>2020-12-20T08:50:22Z</time>
      </trkpt>
      <trkpt lat="49.29079" lon="-0.26223">
        <ele>3.5</ele>
        <time>2020-12-20T08:50:23Z</time>
      </trkpt>
      <trkpt lat="49.29079" lon="-0.26218">
        <ele>3.5</ele>
        <time>2020-12-20T08:50:25Z</time>
      </trkpt>
      <trkpt lat="49.29078" lon="-0.26212">
        <ele>3.5</ele>
        <time>2020-12-20T08:50:26Z</time>
      </trkpt>
      <trkpt lat="49.29078" lon="-0.26206">
        <ele>3.4</ele>
        <time>2020-12-20T08:50:28Z</time>
      </trkpt>
      <trkpt lat="49.29078" lon="-0.26202">
        <ele>3.4</ele>
        <time>2020-12-20T08:50:29Z</time>
      </trkpt>
      <trkpt lat="49.29078" lon="-0.26199">
        <ele>3.4</ele>
        <time>2020-12-20T08:50:31Z</time>
      </trkpt>
      <trkpt lat="49.29077" lon="-0.26197">
        <ele>3.4</ele>
        <time>2020-12-20T08:50:32Z</time>
      </trkpt>
      <trkpt lat="49.29077" lon="-0.26194">
        <ele>3.4</ele>
        <time>2020-12-20T08:50:33Z</time>
      </trkpt>
      <trkpt lat="49.29077" lon="-0.2619">
        <ele>3.4</ele>
        <time>2020-12-20T08:50:34Z</time>
      </trkpt>
      <trkpt lat="49.29077" lon="-0.26185">
        <ele>3.4</ele>
        <time>2020-12-20T08:50:36Z</time>
      </trkpt>
      <trkpt lat="49.29076" lon="-0.2618">
        <ele>3.4</ele>
        <time>2020-12-20T08:50:37Z</time>
      </trkpt>
      <trkpt lat="49.29076" lon="-0.26179">
        <ele>3.4</ele>
        <time>2020-12-20T08:50:38Z</time>
      </trkpt>
      <trkpt lat="49.29076" lon="-0.26172">
        <ele>3.4</ele>
        <time>2020-12-20T08:50:40Z</time>
      </trkpt>
      <trkpt lat="49.29075" lon="-0.2617">
        <ele>3.4</ele>
        <time>2020-12-20T08:50:41Z</time>
      </trkpt>
      <trkpt lat="49.29075" lon="-0.26168">
        <ele>3.4</ele>
        <time>2020-12-20T08:50:42Z</time>
      </trkpt>
      <trkpt lat="49.29074" lon="-0.26163">
        <ele>3.4</ele>
        <time>2020-12-20T08:50:44Z</time>
      </trkpt>
      <trkpt lat="49.29074" lon="-0.26162">
        <ele>3.4</ele>
        <time>2020-12-20T08:50:45Z</time>
      </trkpt>
      <trkpt lat="49.29074" lon="-0.26157">
        <ele>3.4</ele>
        <time>2020-12-20T08:50:46Z</time>
      </trkpt>
      <trkpt lat="49.29073" lon="-0.26155">
        <ele>3.4</ele>
        <time>2020-12-20T08:50:47Z</time>
      </trkpt>
      <trkpt lat="49.29072" lon="-0.2615">
        <ele>3.4</ele>
        <time>2020-12-20T08:50:48Z</time>
      </trkpt>
      <trkpt lat="49.29072" lon="-0.26148">
        <ele>3.4</ele>
        <time>2020-12-20T08:50:49Z</time>
      </trkpt>
      <trkpt lat="49.29072" lon="-0.26144">
        <ele>3.4</ele>
        <time>2020-12-20T08:50:51Z</time>
      </trkpt>
      <trkpt lat="49.29071" lon="-0.26139">
        <ele>3.4</ele>
        <time>2020-12-20T08:50:52Z</time>
      </trkpt>
      <trkpt lat="49.2907" lon="-0.26133">
        <ele>3.4</ele>
        <time>2020-12-20T08:50:53Z</time>
      </trkpt>
      <trkpt lat="49.2907" lon="-0.26129">
        <ele>3.4</ele>
        <time>2020-12-20T08:50:54Z</time>
      </trkpt>
      <trkpt lat="49.2907" lon="-0.26121">
        <ele>3.3</ele>
        <time>2020-12-20T08:50:56Z</time>
      </trkpt>
      <trkpt lat="49.29069" lon="-0.26117">
        <ele>3.3</ele>
        <time>2020-12-20T08:50:57Z</time>
      </trkpt>
      <trkpt lat="49.29068" lon="-0.2611">
        <ele>3.3</ele>
        <time>2020-12-20T08:50:59Z</time>
      </trkpt>
      <trkpt lat="49.29068" lon="-0.26104">
        <ele>3.3</ele>
        <time>2020-12-20T08:51:00Z</time>
      </trkpt>
      <trkpt lat="49.29068" lon="-0.26101">
        <ele>3.3</ele>
        <time>2020-12-20T08:51:01Z</time>
      </trkpt>
      <trkpt lat="49.29068" lon="-0.26095">
        <ele>3.3</ele>
        <time>2020-12-20T08:51:02Z</time>
      </trkpt>
      <trkpt lat="49.29068" lon="-0.26093">
        <ele>3.3</ele>
        <time>2020-12-20T08:51:03Z</time>
      </trkpt>
      <trkpt lat="49.29067" lon="-0.26086">
        <ele>3.3</ele>
        <time>2020-12-20T08:51:05Z</time>
      </trkpt>
      <trkpt lat="49.29067" lon="-0.26082">
        <ele>3.3</ele>
        <time>2020-12-20T08:51:06Z</time>
      </trkpt>
      <trkpt lat="49.29067" lon="-0.26078">
        <ele>3.3</ele>
        <time>2020-12-20T08:51:08Z</time>
      </trkpt>
      <trkpt lat="49.29067" lon="-0.26072">
        <ele>3.3</ele>
        <time>2020-12-20T08:51:09Z</time>
      </trkpt>
      <trkpt lat="49.29067" lon="-0.2607">
        <ele>3.3</ele>
        <time>2020-12-20T08:51:10Z</time>
      </trkpt>
      <trkpt lat="49.29067" lon="-0.26064">
        <ele>3.3</ele>
        <time>2020-12-20T08:51:12Z</time>
      </trkpt>
      <trkpt lat="49.29067" lon="-0.26062">
        <ele>3.3</ele>
        <time>2020-12-20T08:51:13Z</time>
      </trkpt>
      <trkpt lat="49.29066" lon="-0.26057">
        <ele>3.3</ele>
        <time>2020-12-20T08:51:15Z</time>
      </trkpt>
      <trkpt lat="49.29066" lon="-0.26051">
        <ele>3.3</ele>
        <time>2020-12-20T08:51:16Z</time>
      </trkpt>
      <trkpt lat="49.29066" lon="-0.26046">
        <ele>3.3</ele>
        <time>2020-12-20T08:51:18Z</time>
      </trkpt>
      <trkpt lat="49.29066" lon="-0.26041">
        <ele>3.3</ele>
        <time>2020-12-20T08:51:19Z</time>
      </trkpt>
      <trkpt lat="49.29066" lon="-0.26033">
        <ele>3.3</ele>
        <time>2020-12-20T08:51:21Z</time>
      </trkpt>
      <trkpt lat="49.29066" lon="-0.2603">
        <ele>3.3</ele>
        <time>2020-12-20T08:51:22Z</time>
      </trkpt>
      <trkpt lat="49.29066" lon="-0.26027">
        <ele>3.3</ele>
        <time>2020-12-20T08:51:23Z</time>
      </trkpt>
      <trkpt lat="49.29066" lon="-0.26019">
        <ele>3.3</ele>
        <time>2020-12-20T08:51:25Z</time>
      </trkpt>
      <trkpt lat="49.29065" lon="-0.26017">
        <ele>3.3</ele>
        <time>2020-12-20T08:51:26Z</time>
      </trkpt>
      <trkpt lat="49.29065" lon="-0.26014">
        <ele>3.3</ele>
        <time>2020-12-20T08:51:27Z</time>
      </trkpt>
      <trkpt lat="49.29064" lon="-0.2601">
        <ele>3.3</ele>
        <time>2020-12-20T08:51:28Z</time>
      </trkpt>
      <trkpt lat="49.29064" lon="-0.26005">
        <ele>3.3</ele>
        <time>2020-12-20T08:51:29Z</time>
      </trkpt>
      <trkpt lat="49.29064" lon="-0.26003">
        <ele>3.3</ele>
        <time>2020-12-20T08:51:30Z</time>
      </trkpt>
      <trkpt lat="49.29063" lon="-0.25998">
        <ele>3.3</ele>
        <time>2020-12-20T08:51:32Z</time>
      </trkpt>
      <trkpt lat="49.29062" lon="-0.25993">
        <ele>3.3</ele>
        <time>2020-12-20T08:51:33Z</time>
      </trkpt>
      <trkpt lat="49.29062" lon="-0.25989">
        <ele>3.3</ele>
        <time>2020-12-20T08:51:34Z</time>
      </trkpt>
      <trkpt lat="49.29061" lon="-0.25984">
        <ele>3.3</ele>
        <time>2020-12-20T08:51:36Z</time>
      </trkpt>
      <trkpt lat="49.2906" lon="-0.2598">
        <ele>3.3</ele>
        <time>2020-12-20T08:51:37Z</time>
      </trkpt>
      <trkpt lat="49.2906" lon="-0.25975">
        <ele>3.3</ele>
        <time>2020-12-20T08:51:39Z</time>
      </trkpt>
      <trkpt lat="49.29059" lon="-0.2597">
        <ele>3.3</ele>
        <time>2020-12-20T08:51:40Z</time>
      </trkpt>
      <trkpt lat="49.29059" lon="-0.25967">
        <ele>3.3</ele>
        <time>2020-12-20T08:51:41Z</time>
      </trkpt>
      <trkpt lat="49.29058" lon="-0.25961">
        <ele>3.3</ele>
        <time>2020-12-20T08:51:43Z</time>
      </trkpt>
      <trkpt lat="49.29058" lon="-0.25955">
        <ele>3.3</ele>
        <time>2020-12-20T08:51:44Z</time>
      </trkpt>
      <trkpt lat="49.29058" lon="-0.25954">
        <ele>3.3</ele>
        <time>2020-12-20T08:51:45Z</time>
      </trkpt>
      <trkpt lat="49.29057" lon="-0.25951">
        <ele>3.3</ele>
        <time>2020-12-20T08:51:47Z</time>
      </trkpt>
      <trkpt lat="49.29057" lon="-0.25948">
        <ele>3.3</ele>
        <time>2020-12-20T08:51:48Z</time>
      </trkpt>
      <trkpt lat="49.29057" lon="-0.25942">
        <ele>3.3</ele>
        <time>2020-12-20T08:51:49Z</time>
      </trkpt>
      <trkpt lat="49.29056" lon="-0.2594">
        <ele>3.3</ele>
        <time>2020-12-20T08:51:50Z</time>
      </trkpt>
      <trkpt lat="49.29056" lon="-0.25932">
        <ele>3.3</ele>
        <time>2020-12-20T08:51:52Z</time>
      </trkpt>
      <trkpt lat="49.29055" lon="-0.25929">
        <ele>3.3</ele>
        <time>2020-12-20T08:51:54Z</time>
      </trkpt>
      <trkpt lat="49.29055" lon="-0.25926">
        <ele>3.3</ele>
        <time>2020-12-20T08:51:55Z</time>
      </trkpt>
      <trkpt lat="49.29055" lon="-0.25922">
        <ele>3.3</ele>
        <time>2020-12-20T08:51:56Z</time>
      </trkpt>
      <trkpt lat="49.29054" lon="-0.25918">
        <ele>3.3</ele>
        <time>2020-12-20T08:51:57Z</time>
      </trkpt>
      <trkpt lat="49.29054" lon="-0.25915">
        <ele>3.3</ele>
        <time>2020-12-20T08:51:59Z</time>
      </trkpt>
      <trkpt lat="49.29053" lon="-0.2591">
        <ele>3.3</ele>
        <time>2020-12-20T08:52:00Z</time>
      </trkpt>
      <trkpt lat="49.29053" lon="-0.25908">
        <ele>3.3</ele>
        <time>2020-12-20T08:52:01Z</time>
      </trkpt>
      <trkpt lat="49.29053" lon="-0.25903">
        <ele>3.3</ele>
        <time>2020-12-20T08:52:02Z</time>
      </trkpt>
      <trkpt lat="49.29052" lon="-0.25898">
        <ele>3.3</ele>
        <time>2020-12-20T08:52:04Z</time>
      </trkpt>
      <trkpt lat="49.29052" lon="-0.25892">
        <ele>3.3</ele>
        <time>2020-12-20T08:52:06Z</time>
      </trkpt>
      <trkpt lat="49.29051" lon="-0.25886">
        <ele>3.3</ele>
        <time>2020-12-20T08:52:07Z</time>
      </trkpt>
      <trkpt lat="49.29051" lon="-0.25884">
        <ele>3.3</ele>
        <time>2020-12-20T08:52:08Z</time>
      </trkpt>
      <trkpt lat="49.2905" lon="-0.2588">
        <ele>3.3</ele>
        <time>2020-12-20T08:52:09Z</time>
      </trkpt>
      <trkpt lat="49.29049" lon="-0.25874">
        <ele>3.3</ele>
        <time>2020-12-20T08:52:11Z</time>
      </trkpt>
      <trkpt lat="49.29049" lon="-0.25869">
        <ele>3.3</ele>
        <time>2020-12-20T08:52:12Z</time>
      </trkpt>
      <trkpt lat="49.29048" lon="-0.25867">
        <ele>3.3</ele>
        <time>2020-12-20T08:52:13Z</time>
      </trkpt>
      <trkpt lat="49.29048" lon="-0.25861">
        <ele>3.3</ele>
        <time>2020-12-20T08:52:15Z</time>
      </trkpt>
      <trkpt lat="49.29047" lon="-0.25856">
        <ele>3.3</ele>
        <time>2020-12-20T08:52:16Z</time>
      </trkpt>
      <trkpt lat="49.29047" lon="-0.2585">
        <ele>3.3</ele>
        <time>2020-12-20T08:52:18Z</time>
      </trkpt>
      <trkpt lat="49.29047" lon="-0.25848">
        <ele>3.3</ele>
        <time>2020-12-20T08:52:19Z</time>
      </trkpt>
      <trkpt lat="49.29046" lon="-0.25842">
        <ele>3.3</ele>
        <time>2020-12-20T08:52:21Z</time>
      </trkpt>
      <trkpt lat="49.29046" lon="-0.2584">
        <ele>3.3</ele>
        <time>2020-12-20T08:52:22Z</time>
      </trkpt>
      <trkpt lat="49.29047" lon="-0.25838">
        <ele>3.3</ele>
        <time>2020-12-20T08:52:23Z</time>
      </trkpt>
      <trkpt lat="49.29046" lon="-0.25836">
        <ele>3.3</ele>
        <time>2020-12-20T08:52:24Z</time>
      </trkpt>
      <trkpt lat="49.29046" lon="-0.25834">
        <ele>3.3</ele>
        <time>2020-12-20T08:52:26Z</time>
      </trkpt>
      <trkpt lat="49.29044" lon="-0.25828">
        <ele>3.3</ele>
        <time>2020-12-20T08:52:28Z</time>
      </trkpt>
      <trkpt lat="49.29044" lon="-0.25826">
        <ele>3.3</ele>
        <time>2020-12-20T08:52:29Z</time>
      </trkpt>
      <trkpt lat="49.29044" lon="-0.25823">
        <ele>3.3</ele>
        <time>2020-12-20T08:52:30Z</time>
      </trkpt>
      <trkpt lat="49.29043" lon="-0.25818">
        <ele>3.3</ele>
        <time>2020-12-20T08:52:31Z</time>
      </trkpt>
      <trkpt lat="49.29042" lon="-0.25816">
        <ele>3.3</ele>
        <time>2020-12-20T08:52:32Z</time>
      </trkpt>
      <trkpt lat="49.29041" lon="-0.2581">
        <ele>3.3</ele>
        <time>2020-12-20T08:52:33Z</time>
      </trkpt>
      <trkpt lat="49.29041" lon="-0.25808">
        <ele>3.3</ele>
        <time>2020-12-20T08:52:34Z</time>
      </trkpt>
      <trkpt lat="49.2904" lon="-0.25804">
        <ele>3.3</ele>
        <time>2020-12-20T08:52:35Z</time>
      </trkpt>
      <trkpt lat="49.29039" lon="-0.25799">
        <ele>3.3</ele>
        <time>2020-12-20T08:52:37Z</time>
      </trkpt>
      <trkpt lat="49.29038" lon="-0.25794">
        <ele>3.3</ele>
        <time>2020-12-20T08:52:38Z</time>
      </trkpt>
      <trkpt lat="49.29038" lon="-0.25789">
        <ele>3.3</ele>
        <time>2020-12-20T08:52:39Z</time>
      </trkpt>
      <trkpt lat="49.29037" lon="-0.25784">
        <ele>3.3</ele>
        <time>2020-12-20T08:52:40Z</time>
      </trkpt>
      <trkpt lat="49.29036" lon="-0.25781">
        <ele>3.3</ele>
        <time>2020-12-20T08:52:41Z</time>
      </trkpt>
      <trkpt lat="49.29036" lon="-0.25777">
        <ele>3.3</ele>
        <time>2020-12-20T08:52:43Z</time>
      </trkpt>
      <trkpt lat="49.29035" lon="-0.25772">
        <ele>3.3</ele>
        <time>2020-12-20T08:52:44Z</time>
      </trkpt>
      <trkpt lat="49.29034" lon="-0.25767">
        <ele>3.3</ele>
        <time>2020-12-20T08:52:45Z</time>
      </trkpt>
      <trkpt lat="49.29033" lon="-0.25762">
        <ele>3.3</ele>
        <time>2020-12-20T08:52:47Z</time>
      </trkpt>
      <trkpt lat="49.29032" lon="-0.25758">
        <ele>3.3</ele>
        <time>2020-12-20T08:52:48Z</time>
      </trkpt>
      <trkpt lat="49.29031" lon="-0.25752">
        <ele>3.3</ele>
        <time>2020-12-20T08:52:50Z</time>
      </trkpt>
      <trkpt lat="49.29031" lon="-0.25748">
        <ele>3.2</ele>
        <time>2020-12-20T08:52:51Z</time>
      </trkpt>
      <trkpt lat="49.2903" lon="-0.25744">
        <ele>3.2</ele>
        <time>2020-12-20T08:52:53Z</time>
      </trkpt>
      <trkpt lat="49.29029" lon="-0.25739">
        <ele>3.2</ele>
        <time>2020-12-20T08:52:54Z</time>
      </trkpt>
      <trkpt lat="49.29029" lon="-0.25737">
        <ele>3.2</ele>
        <time>2020-12-20T08:52:55Z</time>
      </trkpt>
      <trkpt lat="49.29028" lon="-0.25731">
        <ele>3.2</ele>
        <time>2020-12-20T08:52:56Z</time>
      </trkpt>
      <trkpt lat="49.29028" lon="-0.2573">
        <ele>3.2</ele>
        <time>2020-12-20T08:52:57Z</time>
      </trkpt>
      <trkpt lat="49.29027" lon="-0.25725">
        <ele>3.1</ele>
        <time>2020-12-20T08:52:58Z</time>
      </trkpt>
      <trkpt lat="49.29026" lon="-0.25719">
        <ele>3.1</ele>
        <time>2020-12-20T08:53:00Z</time>
      </trkpt>
      <trkpt lat="49.29026" lon="-0.25717">
        <ele>3.1</ele>
        <time>2020-12-20T08:53:01Z</time>
      </trkpt>
      <trkpt lat="49.29025" lon="-0.25711">
        <ele>3</ele>
        <time>2020-12-20T08:53:02Z</time>
      </trkpt>
      <trkpt lat="49.29024" lon="-0.25709">
        <ele>3</ele>
        <time>2020-12-20T08:53:03Z</time>
      </trkpt>
      <trkpt lat="49.29024" lon="-0.25705">
        <ele>3</ele>
        <time>2020-12-20T08:53:04Z</time>
      </trkpt>
      <trkpt lat="49.29024" lon="-0.25702">
        <ele>3</ele>
        <time>2020-12-20T08:53:06Z</time>
      </trkpt>
      <trkpt lat="49.29023" lon="-0.25697">
        <ele>3</ele>
        <time>2020-12-20T08:53:07Z</time>
      </trkpt>
      <trkpt lat="49.29022" lon="-0.25694">
        <ele>3</ele>
        <time>2020-12-20T08:53:08Z</time>
      </trkpt>
      <trkpt lat="49.29021" lon="-0.25689">
        <ele>3</ele>
        <time>2020-12-20T08:53:10Z</time>
      </trkpt>
      <trkpt lat="49.29021" lon="-0.25687">
        <ele>3</ele>
        <time>2020-12-20T08:53:11Z</time>
      </trkpt>
      <trkpt lat="49.29021" lon="-0.25686">
        <ele>3.1</ele>
        <time>2020-12-20T08:53:13Z</time>
      </trkpt>
      <trkpt lat="49.29022" lon="-0.25685">
        <ele>3.1</ele>
        <time>2020-12-20T08:53:15Z</time>
      </trkpt>
      <trkpt lat="49.29022" lon="-0.25682">
        <ele>3.1</ele>
        <time>2020-12-20T08:53:17Z</time>
      </trkpt>
      <trkpt lat="49.29023" lon="-0.25681">
        <ele>3.1</ele>
        <time>2020-12-20T08:53:19Z</time>
      </trkpt>
      <trkpt lat="49.29022" lon="-0.25677">
        <ele>3.1</ele>
        <time>2020-12-20T08:53:20Z</time>
      </trkpt>
      <trkpt lat="49.29021" lon="-0.25674">
        <ele>3.1</ele>
        <time>2020-12-20T08:53:21Z</time>
      </trkpt>
      <trkpt lat="49.2902" lon="-0.25672">
        <ele>3.2</ele>
        <time>2020-12-20T08:53:22Z</time>
      </trkpt>
      <trkpt lat="49.29019" lon="-0.25667">
        <ele>3.2</ele>
        <time>2020-12-20T08:53:24Z</time>
      </trkpt>
      <trkpt lat="49.29017" lon="-0.25663">
        <ele>3.3</ele>
        <time>2020-12-20T08:53:26Z</time>
      </trkpt>
      <trkpt lat="49.29016" lon="-0.25659">
        <ele>3.3</ele>
        <time>2020-12-20T08:53:27Z</time>
      </trkpt>
      <trkpt lat="49.29015" lon="-0.25655">
        <ele>3.4</ele>
        <time>2020-12-20T08:53:29Z</time>
      </trkpt>
      <trkpt lat="49.29014" lon="-0.25652">
        <ele>3.4</ele>
        <time>2020-12-20T08:53:30Z</time>
      </trkpt>
      <trkpt lat="49.29014" lon="-0.25649">
        <ele>3.4</ele>
        <time>2020-12-20T08:53:32Z</time>
      </trkpt>
      <trkpt lat="49.29014" lon="-0.25644">
        <ele>3.5</ele>
        <time>2020-12-20T08:53:33Z</time>
      </trkpt>
      <trkpt lat="49.29013" lon="-0.25639">
        <ele>3.5</ele>
        <time>2020-12-20T08:53:34Z</time>
      </trkpt>
      <trkpt lat="49.29012" lon="-0.25633">
        <ele>3.6</ele>
        <time>2020-12-20T08:53:35Z</time>
      </trkpt>
      <trkpt lat="49.29011" lon="-0.25624">
        <ele>3.6</ele>
        <time>2020-12-20T08:53:37Z</time>
      </trkpt>
      <trkpt lat="49.29011" lon="-0.25616">
        <ele>3.6</ele>
        <time>2020-12-20T08:53:39Z</time>
      </trkpt>
      <trkpt lat="49.2901" lon="-0.25609">
        <ele>3.6</ele>
        <time>2020-12-20T08:53:40Z</time>
      </trkpt>
      <trkpt lat="49.29009" lon="-0.25602">
        <ele>3.6</ele>
        <time>2020-12-20T08:53:42Z</time>
      </trkpt>
      <trkpt lat="49.29009" lon="-0.25597">
        <ele>3.5</ele>
        <time>2020-12-20T08:53:43Z</time>
      </trkpt>
      <trkpt lat="49.29009" lon="-0.25591">
        <ele>3.5</ele>
        <time>2020-12-20T08:53:45Z</time>
      </trkpt>
      <trkpt lat="49.29009" lon="-0.2559">
        <ele>3.5</ele>
        <time>2020-12-20T08:53:46Z</time>
      </trkpt>
      <trkpt lat="49.29009" lon="-0.25586">
        <ele>3.5</ele>
        <time>2020-12-20T08:53:47Z</time>
      </trkpt>
      <trkpt lat="49.29008" lon="-0.25584">
        <ele>3.5</ele>
        <time>2020-12-20T08:53:48Z</time>
      </trkpt>
      <trkpt lat="49.29009" lon="-0.25579">
        <ele>3.6</ele>
        <time>2020-12-20T08:53:49Z</time>
      </trkpt>
      <trkpt lat="49.29009" lon="-0.25577">
        <ele>3.6</ele>
        <time>2020-12-20T08:53:51Z</time>
      </trkpt>
      <trkpt lat="49.29009" lon="-0.25574">
        <ele>3.6</ele>
        <time>2020-12-20T08:53:52Z</time>
      </trkpt>
      <trkpt lat="49.29009" lon="-0.25571">
        <ele>3.6</ele>
        <time>2020-12-20T08:53:53Z</time>
      </trkpt>
      <trkpt lat="49.29008" lon="-0.25565">
        <ele>3.6</ele>
        <time>2020-12-20T08:53:55Z</time>
      </trkpt>
      <trkpt lat="49.29008" lon="-0.25559">
        <ele>3.6</ele>
        <time>2020-12-20T08:53:57Z</time>
      </trkpt>
      <trkpt lat="49.29007" lon="-0.25552">
        <ele>3.6</ele>
        <time>2020-12-20T08:53:58Z</time>
      </trkpt>
      <trkpt lat="49.29006" lon="-0.25546">
        <ele>3.6</ele>
        <time>2020-12-20T08:54:00Z</time>
      </trkpt>
      <trkpt lat="49.29006" lon="-0.25543">
        <ele>3.6</ele>
        <time>2020-12-20T08:54:01Z</time>
      </trkpt>
      <trkpt lat="49.29006" lon="-0.25538">
        <ele>3.6</ele>
        <time>2020-12-20T08:54:03Z</time>
      </trkpt>
      <trkpt lat="49.29005" lon="-0.25532">
        <ele>3.6</ele>
        <time>2020-12-20T08:54:04Z</time>
      </trkpt>
      <trkpt lat="49.29005" lon="-0.2553">
        <ele>3.6</ele>
        <time>2020-12-20T08:54:05Z</time>
      </trkpt>
      <trkpt lat="49.29004" lon="-0.25524">
        <ele>3.6</ele>
        <time>2020-12-20T08:54:07Z</time>
      </trkpt>
      <trkpt lat="49.29004" lon="-0.2552">
        <ele>3.6</ele>
        <time>2020-12-20T08:54:08Z</time>
      </trkpt>
      <trkpt lat="49.29003" lon="-0.25517">
        <ele>3.6</ele>
        <time>2020-12-20T08:54:09Z</time>
      </trkpt>
      <trkpt lat="49.29003" lon="-0.25511">
        <ele>3.6</ele>
        <time>2020-12-20T08:54:11Z</time>
      </trkpt>
      <trkpt lat="49.29002" lon="-0.25508">
        <ele>3.6</ele>
        <time>2020-12-20T08:54:12Z</time>
      </trkpt>
      <trkpt lat="49.29002" lon="-0.25503">
        <ele>3.6</ele>
        <time>2020-12-20T08:54:14Z</time>
      </trkpt>
      <trkpt lat="49.29001" lon="-0.25497">
        <ele>3.5</ele>
        <time>2020-12-20T08:54:15Z</time>
      </trkpt>
      <trkpt lat="49.29001" lon="-0.25495">
        <ele>3.5</ele>
        <time>2020-12-20T08:54:16Z</time>
      </trkpt>
      <trkpt lat="49.29" lon="-0.25492">
        <ele>3.5</ele>
        <time>2020-12-20T08:54:17Z</time>
      </trkpt>
      <trkpt lat="49.28999" lon="-0.25489">
        <ele>3.5</ele>
        <time>2020-12-20T08:54:19Z</time>
      </trkpt>
      <trkpt lat="49.28998" lon="-0.25485">
        <ele>3.5</ele>
        <time>2020-12-20T08:54:20Z</time>
      </trkpt>
      <trkpt lat="49.28996" lon="-0.25482">
        <ele>3.5</ele>
        <time>2020-12-20T08:54:22Z</time>
      </trkpt>
      <trkpt lat="49.28995" lon="-0.2548">
        <ele>3.5</ele>
        <time>2020-12-20T08:54:24Z</time>
      </trkpt>
      <trkpt lat="49.28995" lon="-0.25478">
        <ele>3.5</ele>
        <time>2020-12-20T08:54:26Z</time>
      </trkpt>
      <trkpt lat="49.28994" lon="-0.25476">
        <ele>3.5</ele>
        <time>2020-12-20T08:54:29Z</time>
      </trkpt>
      <trkpt lat="49.28993" lon="-0.25475">
        <ele>3.5</ele>
        <time>2020-12-20T08:54:30Z</time>
      </trkpt>
      <trkpt lat="49.28992" lon="-0.25472">
        <ele>3.5</ele>
        <time>2020-12-20T08:54:31Z</time>
      </trkpt>
      <trkpt lat="49.28992" lon="-0.25467">
        <ele>3.5</ele>
        <time>2020-12-20T08:54:33Z</time>
      </trkpt>
      <trkpt lat="49.28991" lon="-0.25461">
        <ele>3.5</ele>
        <time>2020-12-20T08:54:35Z</time>
      </trkpt>
      <trkpt lat="49.2899" lon="-0.25457">
        <ele>3.5</ele>
        <time>2020-12-20T08:54:36Z</time>
      </trkpt>
      <trkpt lat="49.28989" lon="-0.25449">
        <ele>3.5</ele>
        <time>2020-12-20T08:54:38Z</time>
      </trkpt>
      <trkpt lat="49.28988" lon="-0.25439">
        <ele>3.5</ele>
        <time>2020-12-20T08:54:40Z</time>
      </trkpt>
      <trkpt lat="49.28987" lon="-0.2543">
        <ele>3.5</ele>
        <time>2020-12-20T08:54:42Z</time>
      </trkpt>
      <trkpt lat="49.28987" lon="-0.25428">
        <ele>3.5</ele>
        <time>2020-12-20T08:54:43Z</time>
      </trkpt>
      <trkpt lat="49.28986" lon="-0.25422">
        <ele>3.5</ele>
        <time>2020-12-20T08:54:45Z</time>
      </trkpt>
      <trkpt lat="49.28985" lon="-0.25416">
        <ele>3.6</ele>
        <time>2020-12-20T08:54:47Z</time>
      </trkpt>
      <trkpt lat="49.28984" lon="-0.25414">
        <ele>3.6</ele>
        <time>2020-12-20T08:54:48Z</time>
      </trkpt>
      <trkpt lat="49.28984" lon="-0.25411">
        <ele>3.6</ele>
        <time>2020-12-20T08:54:49Z</time>
      </trkpt>
      <trkpt lat="49.28984" lon="-0.25409">
        <ele>3.6</ele>
        <time>2020-12-20T08:54:50Z</time>
      </trkpt>
      <trkpt lat="49.28983" lon="-0.25405">
        <ele>3.6</ele>
        <time>2020-12-20T08:54:52Z</time>
      </trkpt>
      <trkpt lat="49.28983" lon="-0.25402">
        <ele>3.6</ele>
        <time>2020-12-20T08:54:53Z</time>
      </trkpt>
      <trkpt lat="49.28983" lon="-0.25399">
        <ele>3.6</ele>
        <time>2020-12-20T08:54:55Z</time>
      </trkpt>
      <trkpt lat="49.28983" lon="-0.25397">
        <ele>3.6</ele>
        <time>2020-12-20T08:54:57Z</time>
      </trkpt>
      <trkpt lat="49.28982" lon="-0.25395">
        <ele>3.6</ele>
        <time>2020-12-20T08:54:58Z</time>
      </trkpt>
      <trkpt lat="49.28982" lon="-0.25393">
        <ele>3.6</ele>
        <time>2020-12-20T08:55:00Z</time>
      </trkpt>
      <trkpt lat="49.28981" lon="-0.25391">
        <ele>3.6</ele>
        <time>2020-12-20T08:55:01Z</time>
      </trkpt>
      <trkpt lat="49.28981" lon="-0.25388">
        <ele>3.6</ele>
        <time>2020-12-20T08:55:02Z</time>
      </trkpt>
      <trkpt lat="49.2898" lon="-0.25384">
        <ele>3.6</ele>
        <time>2020-12-20T08:55:04Z</time>
      </trkpt>
      <trkpt lat="49.2898" lon="-0.25383">
        <ele>3.6</ele>
        <time>2020-12-20T08:55:05Z</time>
      </trkpt>
      <trkpt lat="49.2898" lon="-0.25378">
        <ele>3.6</ele>
        <time>2020-12-20T08:55:06Z</time>
      </trkpt>
      <trkpt lat="49.2898" lon="-0.25376">
        <ele>3.6</ele>
        <time>2020-12-20T08:55:07Z</time>
      </trkpt>
      <trkpt lat="49.28979" lon="-0.25371">
        <ele>3.6</ele>
        <time>2020-12-20T08:55:09Z</time>
      </trkpt>
      <trkpt lat="49.28978" lon="-0.25366">
        <ele>3.6</ele>
        <time>2020-12-20T08:55:11Z</time>
      </trkpt>
      <trkpt lat="49.28976" lon="-0.25361">
        <ele>3.5</ele>
        <time>2020-12-20T08:55:12Z</time>
      </trkpt>
      <trkpt lat="49.28975" lon="-0.25356">
        <ele>3.5</ele>
        <time>2020-12-20T08:55:13Z</time>
      </trkpt>
      <trkpt lat="49.28975" lon="-0.25351">
        <ele>3.5</ele>
        <time>2020-12-20T08:55:15Z</time>
      </trkpt>
      <trkpt lat="49.28974" lon="-0.25346">
        <ele>3.5</ele>
        <time>2020-12-20T08:55:16Z</time>
      </trkpt>
      <trkpt lat="49.28973" lon="-0.25341">
        <ele>3.5</ele>
        <time>2020-12-20T08:55:17Z</time>
      </trkpt>
      <trkpt lat="49.28972" lon="-0.25333">
        <ele>3.5</ele>
        <time>2020-12-20T08:55:19Z</time>
      </trkpt>
      <trkpt lat="49.28972" lon="-0.25331">
        <ele>3.5</ele>
        <time>2020-12-20T08:55:20Z</time>
      </trkpt>
      <trkpt lat="49.28971" lon="-0.25328">
        <ele>3.5</ele>
        <time>2020-12-20T08:55:21Z</time>
      </trkpt>
      <trkpt lat="49.28971" lon="-0.25324">
        <ele>3.5</ele>
        <time>2020-12-20T08:55:22Z</time>
      </trkpt>
      <trkpt lat="49.2897" lon="-0.25316">
        <ele>3.5</ele>
        <time>2020-12-20T08:55:24Z</time>
      </trkpt>
      <trkpt lat="49.2897" lon="-0.25311">
        <ele>3.5</ele>
        <time>2020-12-20T08:55:26Z</time>
      </trkpt>
      <trkpt lat="49.2897" lon="-0.25306">
        <ele>3.5</ele>
        <time>2020-12-20T08:55:27Z</time>
      </trkpt>
      <trkpt lat="49.2897" lon="-0.25302">
        <ele>3.5</ele>
        <time>2020-12-20T08:55:28Z</time>
      </trkpt>
      <trkpt lat="49.2897" lon="-0.25297">
        <ele>3.5</ele>
        <time>2020-12-20T08:55:29Z</time>
      </trkpt>
      <trkpt lat="49.28969" lon="-0.25292">
        <ele>3.5</ele>
        <time>2020-12-20T08:55:31Z</time>
      </trkpt>
      <trkpt lat="49.28967" lon="-0.25287">
        <ele>3.5</ele>
        <time>2020-12-20T08:55:33Z</time>
      </trkpt>
      <trkpt lat="49.28966" lon="-0.25285">
        <ele>3.5</ele>
        <time>2020-12-20T08:55:34Z</time>
      </trkpt>
      <trkpt lat="49.28963" lon="-0.25283">
        <ele>3.5</ele>
        <time>2020-12-20T08:55:36Z</time>
      </trkpt>
      <trkpt lat="49.2896" lon="-0.25283">
        <ele>3.5</ele>
        <time>2020-12-20T08:55:38Z</time>
      </trkpt>
      <trkpt lat="49.28959" lon="-0.25283">
        <ele>3.4</ele>
        <time>2020-12-20T08:55:39Z</time>
      </trkpt>
      <trkpt lat="49.28956" lon="-0.25283">
        <ele>3.4</ele>
        <time>2020-12-20T08:55:40Z</time>
      </trkpt>
      <trkpt lat="49.28955" lon="-0.25283">
        <ele>3.4</ele>
        <time>2020-12-20T08:55:41Z</time>
      </trkpt>
      <trkpt lat="49.28953" lon="-0.25283">
        <ele>3.4</ele>
        <time>2020-12-20T08:55:42Z</time>
      </trkpt>
      <trkpt lat="49.2895" lon="-0.25282">
        <ele>3.5</ele>
        <time>2020-12-20T08:55:44Z</time>
      </trkpt>
      <trkpt lat="49.28947" lon="-0.25282">
        <ele>3.5</ele>
        <time>2020-12-20T08:55:45Z</time>
      </trkpt>
      <trkpt lat="49.28943" lon="-0.25281">
        <ele>3.5</ele>
        <time>2020-12-20T08:55:47Z</time>
      </trkpt>
      <trkpt lat="49.28942" lon="-0.25281">
        <ele>3.5</ele>
        <time>2020-12-20T08:55:48Z</time>
      </trkpt>
      <trkpt lat="49.28939" lon="-0.25281">
        <ele>3.5</ele>
        <time>2020-12-20T08:55:49Z</time>
      </trkpt>
      <trkpt lat="49.28938" lon="-0.2528">
        <ele>3.6</ele>
        <time>2020-12-20T08:55:51Z</time>
      </trkpt>
      <trkpt lat="49.28936" lon="-0.25278">
        <ele>3.6</ele>
        <time>2020-12-20T08:55:52Z</time>
      </trkpt>
      <trkpt lat="49.28933" lon="-0.25276">
        <ele>3.7</ele>
        <time>2020-12-20T08:55:54Z</time>
      </trkpt>
      <trkpt lat="49.2893" lon="-0.25272">
        <ele>4</ele>
        <time>2020-12-20T08:55:56Z</time>
      </trkpt>
      <trkpt lat="49.28927" lon="-0.25269">
        <ele>4.1</ele>
        <time>2020-12-20T08:55:57Z</time>
      </trkpt>
      <trkpt lat="49.28924" lon="-0.25265">
        <ele>4.1</ele>
        <time>2020-12-20T08:55:59Z</time>
      </trkpt>
      <trkpt lat="49.28921" lon="-0.25263">
        <ele>4.2</ele>
        <time>2020-12-20T08:56:01Z</time>
      </trkpt>
      <trkpt lat="49.28918" lon="-0.25261">
        <ele>4.3</ele>
        <time>2020-12-20T08:56:02Z</time>
      </trkpt>
      <trkpt lat="49.28916" lon="-0.25257">
        <ele>4.3</ele>
        <time>2020-12-20T08:56:03Z</time>
      </trkpt>
      <trkpt lat="49.28915" lon="-0.25256">
        <ele>4.3</ele>
        <time>2020-12-20T08:56:04Z</time>
      </trkpt>
      <trkpt lat="49.28914" lon="-0.25253">
        <ele>4.4</ele>
        <time>2020-12-20T08:56:05Z</time>
      </trkpt>
      <trkpt lat="49.28912" lon="-0.25251">
        <ele>4.4</ele>
        <time>2020-12-20T08:56:07Z</time>
      </trkpt>
      <trkpt lat="49.2891" lon="-0.25247">
        <ele>4.4</ele>
        <time>2020-12-20T08:56:08Z</time>
      </trkpt>
      <trkpt lat="49.28909" lon="-0.25245">
        <ele>4.4</ele>
        <time>2020-12-20T08:56:09Z</time>
      </trkpt>
      <trkpt lat="49.28908" lon="-0.25243">
        <ele>4.5</ele>
        <time>2020-12-20T08:56:10Z</time>
      </trkpt>
      <trkpt lat="49.28906" lon="-0.25241">
        <ele>4.5</ele>
        <time>2020-12-20T08:56:12Z</time>
      </trkpt>
      <trkpt lat="49.28904" lon="-0.25237">
        <ele>4.5</ele>
        <time>2020-12-20T08:56:13Z</time>
      </trkpt>
      <trkpt lat="49.28904" lon="-0.25236">
        <ele>4.5</ele>
        <time>2020-12-20T08:56:14Z</time>
      </trkpt>
      <trkpt lat="49.28902" lon="-0.25233">
        <ele>4.5</ele>
        <time>2020-12-20T08:56:15Z</time>
      </trkpt>
      <trkpt lat="49.289" lon="-0.25229">
        <ele>4.6</ele>
        <time>2020-12-20T08:56:17Z</time>
      </trkpt>
      <trkpt lat="49.28897" lon="-0.25226">
        <ele>4.6</ele>
        <time>2020-12-20T08:56:18Z</time>
      </trkpt>
      <trkpt lat="49.28893" lon="-0.25222">
        <ele>4.6</ele>
        <time>2020-12-20T08:56:20Z</time>
      </trkpt>
      <trkpt lat="49.28892" lon="-0.2522">
        <ele>4.6</ele>
        <time>2020-12-20T08:56:21Z</time>
      </trkpt>
      <trkpt lat="49.2889" lon="-0.25218">
        <ele>4.6</ele>
        <time>2020-12-20T08:56:22Z</time>
      </trkpt>
      <trkpt lat="49.28888" lon="-0.25215">
        <ele>4.6</ele>
        <time>2020-12-20T08:56:23Z</time>
      </trkpt>
      <trkpt lat="49.28885" lon="-0.25212">
        <ele>4.6</ele>
        <time>2020-12-20T08:56:25Z</time>
      </trkpt>
      <trkpt lat="49.28883" lon="-0.25209">
        <ele>4.6</ele>
        <time>2020-12-20T08:56:26Z</time>
      </trkpt>
      <trkpt lat="49.28882" lon="-0.25207">
        <ele>4.6</ele>
        <time>2020-12-20T08:56:28Z</time>
      </trkpt>
      <trkpt lat="49.28879" lon="-0.25204">
        <ele>4.6</ele>
        <time>2020-12-20T08:56:29Z</time>
      </trkpt>
      <trkpt lat="49.28878" lon="-0.25203">
        <ele>4.6</ele>
        <time>2020-12-20T08:56:30Z</time>
      </trkpt>
      <trkpt lat="49.28876" lon="-0.252">
        <ele>4.6</ele>
        <time>2020-12-20T08:56:31Z</time>
      </trkpt>
      <trkpt lat="49.28873" lon="-0.25198">
        <ele>4.6</ele>
        <time>2020-12-20T08:56:33Z</time>
      </trkpt>
      <trkpt lat="49.28871" lon="-0.25195">
        <ele>4.6</ele>
        <time>2020-12-20T08:56:35Z</time>
      </trkpt>
      <trkpt lat="49.28868" lon="-0.25193">
        <ele>4.7</ele>
        <time>2020-12-20T08:56:37Z</time>
      </trkpt>
      <trkpt lat="49.28866" lon="-0.25192">
        <ele>4.7</ele>
        <time>2020-12-20T08:56:38Z</time>
      </trkpt>
      <trkpt lat="49.28863" lon="-0.2519">
        <ele>4.7</ele>
        <time>2020-12-20T08:56:40Z</time>
      </trkpt>
      <trkpt lat="49.28862" lon="-0.25189">
        <ele>4.7</ele>
        <time>2020-12-20T08:56:41Z</time>
      </trkpt>
      <trkpt lat="49.28858" lon="-0.25186">
        <ele>4.8</ele>
        <time>2020-12-20T08:56:42Z</time>
      </trkpt>
      <trkpt lat="49.28857" lon="-0.25185">
        <ele>4.8</ele>
        <time>2020-12-20T08:56:43Z</time>
      </trkpt>
      <trkpt lat="49.28854" lon="-0.25183">
        <ele>4.9</ele>
        <time>2020-12-20T08:56:45Z</time>
      </trkpt>
      <trkpt lat="49.28851" lon="-0.25179">
        <ele>5</ele>
        <time>2020-12-20T08:56:47Z</time>
      </trkpt>
      <trkpt lat="49.28849" lon="-0.25177">
        <ele>5.1</ele>
        <time>2020-12-20T08:56:48Z</time>
      </trkpt>
      <trkpt lat="49.28847" lon="-0.25174">
        <ele>5.2</ele>
        <time>2020-12-20T08:56:50Z</time>
      </trkpt>
      <trkpt lat="49.28844" lon="-0.25171">
        <ele>5.3</ele>
        <time>2020-12-20T08:56:52Z</time>
      </trkpt>
      <trkpt lat="49.28843" lon="-0.2517">
        <ele>5.4</ele>
        <time>2020-12-20T08:56:53Z</time>
      </trkpt>
      <trkpt lat="49.2884" lon="-0.25167">
        <ele>5.4</ele>
        <time>2020-12-20T08:56:54Z</time>
      </trkpt>
      <trkpt lat="49.2884" lon="-0.25166">
        <ele>5.4</ele>
        <time>2020-12-20T08:56:55Z</time>
      </trkpt>
      <trkpt lat="49.28838" lon="-0.25165">
        <ele>5.4</ele>
        <time>2020-12-20T08:56:57Z</time>
      </trkpt>
      <trkpt lat="49.28837" lon="-0.25164">
        <ele>5.4</ele>
        <time>2020-12-20T08:56:58Z</time>
      </trkpt>
      <trkpt lat="49.28835" lon="-0.25163">
        <ele>5.4</ele>
        <time>2020-12-20T08:56:59Z</time>
      </trkpt>
      <trkpt lat="49.28834" lon="-0.25162">
        <ele>5.4</ele>
        <time>2020-12-20T08:57:00Z</time>
      </trkpt>
      <trkpt lat="49.28833" lon="-0.25159">
        <ele>5.4</ele>
        <time>2020-12-20T08:57:01Z</time>
      </trkpt>
      <trkpt lat="49.28833" lon="-0.25156">
        <ele>5.4</ele>
        <time>2020-12-20T08:57:03Z</time>
      </trkpt>
      <trkpt lat="49.28833" lon="-0.25152">
        <ele>5.4</ele>
        <time>2020-12-20T08:57:04Z</time>
      </trkpt>
      <trkpt lat="49.28833" lon="-0.25151">
        <ele>5.4</ele>
        <time>2020-12-20T08:57:05Z</time>
      </trkpt>
      <trkpt lat="49.28831" lon="-0.25148">
        <ele>5.4</ele>
        <time>2020-12-20T08:57:07Z</time>
      </trkpt>
      <trkpt lat="49.28829" lon="-0.25144">
        <ele>5.4</ele>
        <time>2020-12-20T08:57:09Z</time>
      </trkpt>
      <trkpt lat="49.28828" lon="-0.25142">
        <ele>5.4</ele>
        <time>2020-12-20T08:57:10Z</time>
      </trkpt>
      <trkpt lat="49.28828" lon="-0.25139">
        <ele>5.4</ele>
        <time>2020-12-20T08:57:11Z</time>
      </trkpt>
      <trkpt lat="49.28826" lon="-0.25134">
        <ele>5.4</ele>
        <time>2020-12-20T08:57:12Z</time>
      </trkpt>
      <trkpt lat="49.28826" lon="-0.25132">
        <ele>5.4</ele>
        <time>2020-12-20T08:57:14Z</time>
      </trkpt>
      <trkpt lat="49.28825" lon="-0.2513">
        <ele>5.4</ele>
        <time>2020-12-20T08:57:15Z</time>
      </trkpt>
      <trkpt lat="49.28825" lon="-0.25127">
        <ele>5.4</ele>
        <time>2020-12-20T08:57:16Z</time>
      </trkpt>
      <trkpt lat="49.28825" lon="-0.25123">
        <ele>5.4</ele>
        <time>2020-12-20T08:57:18Z</time>
      </trkpt>
      <trkpt lat="49.28824" lon="-0.25119">
        <ele>5.4</ele>
        <time>2020-12-20T08:57:19Z</time>
      </trkpt>
      <trkpt lat="49.28823" lon="-0.25114">
        <ele>5.4</ele>
        <time>2020-12-20T08:57:21Z</time>
      </trkpt>
      <trkpt lat="49.28821" lon="-0.25108">
        <ele>5.4</ele>
        <time>2020-12-20T08:57:23Z</time>
      </trkpt>
      <trkpt lat="49.2882" lon="-0.25106">
        <ele>5.4</ele>
        <time>2020-12-20T08:57:24Z</time>
      </trkpt>
      <trkpt lat="49.28819" lon="-0.25104">
        <ele>5.4</ele>
        <time>2020-12-20T08:57:25Z</time>
      </trkpt>
      <trkpt lat="49.28819" lon="-0.25102">
        <ele>5.4</ele>
        <time>2020-12-20T08:57:26Z</time>
      </trkpt>
      <trkpt lat="49.28818" lon="-0.25099">
        <ele>5.4</ele>
        <time>2020-12-20T08:57:28Z</time>
      </trkpt>
      <trkpt lat="49.28817" lon="-0.25095">
        <ele>5.4</ele>
        <time>2020-12-20T08:57:29Z</time>
      </trkpt>
      <trkpt lat="49.28816" lon="-0.25094">
        <ele>5.4</ele>
        <time>2020-12-20T08:57:30Z</time>
      </trkpt>
      <trkpt lat="49.28816" lon="-0.25091">
        <ele>5.4</ele>
        <time>2020-12-20T08:57:31Z</time>
      </trkpt>
      <trkpt lat="49.28815" lon="-0.25089">
        <ele>5.4</ele>
        <time>2020-12-20T08:57:32Z</time>
      </trkpt>
      <trkpt lat="49.28813" lon="-0.25083">
        <ele>5.4</ele>
        <time>2020-12-20T08:57:34Z</time>
      </trkpt>
      <trkpt lat="49.28813" lon="-0.25081">
        <ele>5.4</ele>
        <time>2020-12-20T08:57:35Z</time>
      </trkpt>
      <trkpt lat="49.28812" lon="-0.25079">
        <ele>5.4</ele>
        <time>2020-12-20T08:57:36Z</time>
      </trkpt>
      <trkpt lat="49.28809" lon="-0.25073">
        <ele>5.5</ele>
        <time>2020-12-20T08:57:38Z</time>
      </trkpt>
      <trkpt lat="49.28809" lon="-0.25072">
        <ele>5.5</ele>
        <time>2020-12-20T08:57:39Z</time>
      </trkpt>
      <trkpt lat="49.28808" lon="-0.2507">
        <ele>5.5</ele>
        <time>2020-12-20T08:57:40Z</time>
      </trkpt>
      <trkpt lat="49.28806" lon="-0.25065">
        <ele>5.5</ele>
        <time>2020-12-20T08:57:42Z</time>
      </trkpt>
      <trkpt lat="49.28805" lon="-0.25063">
        <ele>5.5</ele>
        <time>2020-12-20T08:57:43Z</time>
      </trkpt>
      <trkpt lat="49.28802" lon="-0.25058">
        <ele>5.5</ele>
        <time>2020-12-20T08:57:45Z</time>
      </trkpt>
      <trkpt lat="49.28801" lon="-0.25056">
        <ele>5.5</ele>
        <time>2020-12-20T08:57:46Z</time>
      </trkpt>
      <trkpt lat="49.288" lon="-0.25055">
        <ele>5.5</ele>
        <time>2020-12-20T08:57:47Z</time>
      </trkpt>
      <trkpt lat="49.28798" lon="-0.25051">
        <ele>5.5</ele>
        <time>2020-12-20T08:57:49Z</time>
      </trkpt>
      <trkpt lat="49.28797" lon="-0.2505">
        <ele>5.5</ele>
        <time>2020-12-20T08:57:50Z</time>
      </trkpt>
      <trkpt lat="49.28795" lon="-0.25047">
        <ele>5.5</ele>
        <time>2020-12-20T08:57:51Z</time>
      </trkpt>
      <trkpt lat="49.28792" lon="-0.25043">
        <ele>5.5</ele>
        <time>2020-12-20T08:57:53Z</time>
      </trkpt>
      <trkpt lat="49.28791" lon="-0.25042">
        <ele>5.5</ele>
        <time>2020-12-20T08:57:54Z</time>
      </trkpt>
      <trkpt lat="49.28788" lon="-0.25039">
        <ele>5.5</ele>
        <time>2020-12-20T08:57:55Z</time>
      </trkpt>
      <trkpt lat="49.28787" lon="-0.25038">
        <ele>5.4</ele>
        <time>2020-12-20T08:57:56Z</time>
      </trkpt>
      <trkpt lat="49.28784" lon="-0.25036">
        <ele>5.4</ele>
        <time>2020-12-20T08:57:58Z</time>
      </trkpt>
      <trkpt lat="49.28783" lon="-0.25036">
        <ele>5.4</ele>
        <time>2020-12-20T08:57:59Z</time>
      </trkpt>
      <trkpt lat="49.28779" lon="-0.25035">
        <ele>5.4</ele>
        <time>2020-12-20T08:58:00Z</time>
      </trkpt>
      <trkpt lat="49.28778" lon="-0.25035">
        <ele>5.4</ele>
        <time>2020-12-20T08:58:01Z</time>
      </trkpt>
      <trkpt lat="49.28775" lon="-0.25036">
        <ele>5.3</ele>
        <time>2020-12-20T08:58:02Z</time>
      </trkpt>
      <trkpt lat="49.28774" lon="-0.25037">
        <ele>5.3</ele>
        <time>2020-12-20T08:58:04Z</time>
      </trkpt>
      <trkpt lat="49.28772" lon="-0.25037">
        <ele>5.3</ele>
        <time>2020-12-20T08:58:05Z</time>
      </trkpt>
      <trkpt lat="49.28771" lon="-0.25038">
        <ele>5.2</ele>
        <time>2020-12-20T08:58:06Z</time>
      </trkpt>
      <trkpt lat="49.28769" lon="-0.25038">
        <ele>5.2</ele>
        <time>2020-12-20T08:58:07Z</time>
      </trkpt>
      <trkpt lat="49.28766" lon="-0.25038">
        <ele>5.1</ele>
        <time>2020-12-20T08:58:09Z</time>
      </trkpt>
      <trkpt lat="49.28762" lon="-0.25035">
        <ele>5.1</ele>
        <time>2020-12-20T08:58:11Z</time>
      </trkpt>
      <trkpt lat="49.28761" lon="-0.25033">
        <ele>5</ele>
        <time>2020-12-20T08:58:12Z</time>
      </trkpt>
      <trkpt lat="49.2876" lon="-0.25032">
        <ele>5</ele>
        <time>2020-12-20T08:58:13Z</time>
      </trkpt>
      <trkpt lat="49.28758" lon="-0.25027">
        <ele>5</ele>
        <time>2020-12-20T08:58:15Z</time>
      </trkpt>
      <trkpt lat="49.28757" lon="-0.25026">
        <ele>5</ele>
        <time>2020-12-20T08:58:16Z</time>
      </trkpt>
      <trkpt lat="49.28755" lon="-0.25021">
        <ele>4.9</ele>
        <time>2020-12-20T08:58:17Z</time>
      </trkpt>
      <trkpt lat="49.28754" lon="-0.25019">
        <ele>4.9</ele>
        <time>2020-12-20T08:58:18Z</time>
      </trkpt>
      <trkpt lat="49.28752" lon="-0.25015">
        <ele>4.9</ele>
        <time>2020-12-20T08:58:19Z</time>
      </trkpt>
      <trkpt lat="49.28751" lon="-0.25013">
        <ele>4.9</ele>
        <time>2020-12-20T08:58:20Z</time>
      </trkpt>
      <trkpt lat="49.28748" lon="-0.25009">
        <ele>4.9</ele>
        <time>2020-12-20T08:58:22Z</time>
      </trkpt>
      <trkpt lat="49.28747" lon="-0.25008">
        <ele>4.9</ele>
        <time>2020-12-20T08:58:23Z</time>
      </trkpt>
      <trkpt lat="49.28745" lon="-0.25005">
        <ele>4.9</ele>
        <time>2020-12-20T08:58:24Z</time>
      </trkpt>
      <trkpt lat="49.28743" lon="-0.25002">
        <ele>4.9</ele>
        <time>2020-12-20T08:58:25Z</time>
      </trkpt>
      <trkpt lat="49.28741" lon="-0.24999">
        <ele>4.9</ele>
        <time>2020-12-20T08:58:26Z</time>
      </trkpt>
      <trkpt lat="49.2874" lon="-0.24998">
        <ele>4.9</ele>
        <time>2020-12-20T08:58:27Z</time>
      </trkpt>
      <trkpt lat="49.28738" lon="-0.24995">
        <ele>4.9</ele>
        <time>2020-12-20T08:58:29Z</time>
      </trkpt>
      <trkpt lat="49.28737" lon="-0.24994">
        <ele>4.9</ele>
        <time>2020-12-20T08:58:30Z</time>
      </trkpt>
      <trkpt lat="49.28735" lon="-0.24992">
        <ele>4.9</ele>
        <time>2020-12-20T08:58:31Z</time>
      </trkpt>
      <trkpt lat="49.28733" lon="-0.24991">
        <ele>4.9</ele>
        <time>2020-12-20T08:58:33Z</time>
      </trkpt>
      <trkpt lat="49.28731" lon="-0.24987">
        <ele>4.9</ele>
        <time>2020-12-20T08:58:34Z</time>
      </trkpt>
      <trkpt lat="49.28728" lon="-0.24984">
        <ele>4.9</ele>
        <time>2020-12-20T08:58:36Z</time>
      </trkpt>
      <trkpt lat="49.28726" lon="-0.24982">
        <ele>5</ele>
        <time>2020-12-20T08:58:38Z</time>
      </trkpt>
      <trkpt lat="49.28724" lon="-0.2498">
        <ele>5</ele>
        <time>2020-12-20T08:58:39Z</time>
      </trkpt>
      <trkpt lat="49.28721" lon="-0.24977">
        <ele>5</ele>
        <time>2020-12-20T08:58:41Z</time>
      </trkpt>
      <trkpt lat="49.28719" lon="-0.24972">
        <ele>5</ele>
        <time>2020-12-20T08:58:42Z</time>
      </trkpt>
      <trkpt lat="49.28718" lon="-0.24971">
        <ele>5</ele>
        <time>2020-12-20T08:58:43Z</time>
      </trkpt>
      <trkpt lat="49.28715" lon="-0.24966">
        <ele>5</ele>
        <time>2020-12-20T08:58:45Z</time>
      </trkpt>
      <trkpt lat="49.28715" lon="-0.24961">
        <ele>5.1</ele>
        <time>2020-12-20T08:58:47Z</time>
      </trkpt>
      <trkpt lat="49.28714" lon="-0.24957">
        <ele>5.1</ele>
        <time>2020-12-20T08:58:48Z</time>
      </trkpt>
      <trkpt lat="49.28711" lon="-0.24954">
        <ele>5.1</ele>
        <time>2020-12-20T08:58:50Z</time>
      </trkpt>
      <trkpt lat="49.28709" lon="-0.24952">
        <ele>5.1</ele>
        <time>2020-12-20T08:58:51Z</time>
      </trkpt>
      <trkpt lat="49.28708" lon="-0.2495">
        <ele>5.1</ele>
        <time>2020-12-20T08:58:52Z</time>
      </trkpt>
      <trkpt lat="49.28706" lon="-0.24948">
        <ele>5.1</ele>
        <time>2020-12-20T08:58:53Z</time>
      </trkpt>
      <trkpt lat="49.28704" lon="-0.24945">
        <ele>5.1</ele>
        <time>2020-12-20T08:58:55Z</time>
      </trkpt>
      <trkpt lat="49.28704" lon="-0.24944">
        <ele>5.1</ele>
        <time>2020-12-20T08:58:56Z</time>
      </trkpt>
      <trkpt lat="49.28702" lon="-0.24942">
        <ele>5.1</ele>
        <time>2020-12-20T08:58:57Z</time>
      </trkpt>
      <trkpt lat="49.287" lon="-0.24939">
        <ele>5.2</ele>
        <time>2020-12-20T08:58:59Z</time>
      </trkpt>
      <trkpt lat="49.28698" lon="-0.24936">
        <ele>5.2</ele>
        <time>2020-12-20T08:59:00Z</time>
      </trkpt>
      <trkpt lat="49.28697" lon="-0.24936">
        <ele>5.2</ele>
        <time>2020-12-20T08:59:01Z</time>
      </trkpt>
      <trkpt lat="49.28695" lon="-0.24935">
        <ele>5.2</ele>
        <time>2020-12-20T08:59:02Z</time>
      </trkpt>
      <trkpt lat="49.28693" lon="-0.24934">
        <ele>5.2</ele>
        <time>2020-12-20T08:59:04Z</time>
      </trkpt>
      <trkpt lat="49.2869" lon="-0.24932">
        <ele>5.3</ele>
        <time>2020-12-20T08:59:05Z</time>
      </trkpt>
      <trkpt lat="49.28689" lon="-0.24932">
        <ele>5.3</ele>
        <time>2020-12-20T08:59:06Z</time>
      </trkpt>
      <trkpt lat="49.28686" lon="-0.24932">
        <ele>5.3</ele>
        <time>2020-12-20T08:59:07Z</time>
      </trkpt>
      <trkpt lat="49.28684" lon="-0.24932">
        <ele>5.4</ele>
        <time>2020-12-20T08:59:08Z</time>
      </trkpt>
      <trkpt lat="49.28682" lon="-0.24933">
        <ele>5.4</ele>
        <time>2020-12-20T08:59:10Z</time>
      </trkpt>
      <trkpt lat="49.28679" lon="-0.24933">
        <ele>5.4</ele>
        <time>2020-12-20T08:59:11Z</time>
      </trkpt>
      <trkpt lat="49.28676" lon="-0.24934">
        <ele>5.4</ele>
        <time>2020-12-20T08:59:12Z</time>
      </trkpt>
      <trkpt lat="49.28672" lon="-0.24934">
        <ele>5.4</ele>
        <time>2020-12-20T08:59:14Z</time>
      </trkpt>
      <trkpt lat="49.2867" lon="-0.24935">
        <ele>5.5</ele>
        <time>2020-12-20T08:59:16Z</time>
      </trkpt>
      <trkpt lat="49.28669" lon="-0.24935">
        <ele>5.5</ele>
        <time>2020-12-20T08:59:17Z</time>
      </trkpt>
      <trkpt lat="49.28666" lon="-0.24935">
        <ele>5.5</ele>
        <time>2020-12-20T08:59:18Z</time>
      </trkpt>
      <trkpt lat="49.28665" lon="-0.24936">
        <ele>5.5</ele>
        <time>2020-12-20T08:59:19Z</time>
      </trkpt>
      <trkpt lat="49.28663" lon="-0.24937">
        <ele>5.5</ele>
        <time>2020-12-20T08:59:20Z</time>
      </trkpt>
      <trkpt lat="49.28661" lon="-0.24937">
        <ele>5.5</ele>
        <time>2020-12-20T08:59:22Z</time>
      </trkpt>
      <trkpt lat="49.28658" lon="-0.24939">
        <ele>5.4</ele>
        <time>2020-12-20T08:59:23Z</time>
      </trkpt>
      <trkpt lat="49.28657" lon="-0.24939">
        <ele>5.4</ele>
        <time>2020-12-20T08:59:24Z</time>
      </trkpt>
      <trkpt lat="49.28653" lon="-0.2494">
        <ele>5.4</ele>
        <time>2020-12-20T08:59:25Z</time>
      </trkpt>
      <trkpt lat="49.28653" lon="-0.24941">
        <ele>5.4</ele>
        <time>2020-12-20T08:59:26Z</time>
      </trkpt>
      <trkpt lat="49.2865" lon="-0.24942">
        <ele>5.4</ele>
        <time>2020-12-20T08:59:28Z</time>
      </trkpt>
      <trkpt lat="49.28649" lon="-0.24942">
        <ele>5.4</ele>
        <time>2020-12-20T08:59:29Z</time>
      </trkpt>
      <trkpt lat="49.28645" lon="-0.24944">
        <ele>5.4</ele>
        <time>2020-12-20T08:59:30Z</time>
      </trkpt>
      <trkpt lat="49.28644" lon="-0.24945">
        <ele>5.4</ele>
        <time>2020-12-20T08:59:31Z</time>
      </trkpt>
      <trkpt lat="49.28639" lon="-0.24948">
        <ele>5.3</ele>
        <time>2020-12-20T08:59:33Z</time>
      </trkpt>
      <trkpt lat="49.28637" lon="-0.24949">
        <ele>5.3</ele>
        <time>2020-12-20T08:59:35Z</time>
      </trkpt>
      <trkpt lat="49.28636" lon="-0.2495">
        <ele>5.3</ele>
        <time>2020-12-20T08:59:36Z</time>
      </trkpt>
      <trkpt lat="49.28633" lon="-0.24952">
        <ele>5.3</ele>
        <time>2020-12-20T08:59:37Z</time>
      </trkpt>
      <trkpt lat="49.28632" lon="-0.24953">
        <ele>5.3</ele>
        <time>2020-12-20T08:59:38Z</time>
      </trkpt>
      <trkpt lat="49.28629" lon="-0.24954">
        <ele>5.2</ele>
        <time>2020-12-20T08:59:39Z</time>
      </trkpt>
      <trkpt lat="49.28627" lon="-0.24955">
        <ele>5.2</ele>
        <time>2020-12-20T08:59:41Z</time>
      </trkpt>
      <trkpt lat="49.28626" lon="-0.24955">
        <ele>5.2</ele>
        <time>2020-12-20T08:59:42Z</time>
      </trkpt>
      <trkpt lat="49.28624" lon="-0.24956">
        <ele>5.2</ele>
        <time>2020-12-20T08:59:43Z</time>
      </trkpt>
      <trkpt lat="49.28621" lon="-0.24958">
        <ele>5.1</ele>
        <time>2020-12-20T08:59:44Z</time>
      </trkpt>
      <trkpt lat="49.28618" lon="-0.24961">
        <ele>5.1</ele>
        <time>2020-12-20T08:59:46Z</time>
      </trkpt>
      <trkpt lat="49.28614" lon="-0.24963">
        <ele>5</ele>
        <time>2020-12-20T08:59:47Z</time>
      </trkpt>
      <trkpt lat="49.28612" lon="-0.24965">
        <ele>5</ele>
        <time>2020-12-20T08:59:49Z</time>
      </trkpt>
      <trkpt lat="49.28609" lon="-0.24967">
        <ele>5</ele>
        <time>2020-12-20T08:59:51Z</time>
      </trkpt>
      <trkpt lat="49.28605" lon="-0.24969">
        <ele>5</ele>
        <time>2020-12-20T08:59:52Z</time>
      </trkpt>
      <trkpt lat="49.28604" lon="-0.24969">
        <ele>5</ele>
        <time>2020-12-20T08:59:53Z</time>
      </trkpt>
      <trkpt lat="49.28602" lon="-0.2497">
        <ele>5</ele>
        <time>2020-12-20T08:59:54Z</time>
      </trkpt>
      <trkpt lat="49.28599" lon="-0.24971">
        <ele>4.9</ele>
        <time>2020-12-20T08:59:56Z</time>
      </trkpt>
      <trkpt lat="49.28597" lon="-0.24972">
        <ele>4.9</ele>
        <time>2020-12-20T08:59:57Z</time>
      </trkpt>
      <trkpt lat="49.28596" lon="-0.24972">
        <ele>4.9</ele>
        <time>2020-12-20T08:59:58Z</time>
      </trkpt>
      <trkpt lat="49.28593" lon="-0.24973">
        <ele>4.9</ele>
        <time>2020-12-20T08:59:59Z</time>
      </trkpt>
      <trkpt lat="49.28591" lon="-0.24974">
        <ele>4.9</ele>
        <time>2020-12-20T09:00:01Z</time>
      </trkpt>
      <trkpt lat="49.28589" lon="-0.24974">
        <ele>4.9</ele>
        <time>2020-12-20T09:00:02Z</time>
      </trkpt>
      <trkpt lat="49.28587" lon="-0.24975">
        <ele>4.8</ele>
        <time>2020-12-20T09:00:04Z</time>
      </trkpt>
      <trkpt lat="49.28583" lon="-0.24977">
        <ele>4.8</ele>
        <time>2020-12-20T09:00:05Z</time>
      </trkpt>
      <trkpt lat="49.28582" lon="-0.24977">
        <ele>4.8</ele>
        <time>2020-12-20T09:00:06Z</time>
      </trkpt>
      <trkpt lat="49.2858" lon="-0.24979">
        <ele>4.7</ele>
        <time>2020-12-20T09:00:08Z</time>
      </trkpt>
      <trkpt lat="49.28579" lon="-0.2498">
        <ele>4.7</ele>
        <time>2020-12-20T09:00:09Z</time>
      </trkpt>
      <trkpt lat="49.28576" lon="-0.24979">
        <ele>4.7</ele>
        <time>2020-12-20T09:00:11Z</time>
      </trkpt>
      <trkpt lat="49.28575" lon="-0.24979">
        <ele>4.7</ele>
        <time>2020-12-20T09:00:12Z</time>
      </trkpt>
      <trkpt lat="49.28572" lon="-0.24981">
        <ele>4.6</ele>
        <time>2020-12-20T09:00:14Z</time>
      </trkpt>
      <trkpt lat="49.28571" lon="-0.24981">
        <ele>4.6</ele>
        <time>2020-12-20T09:00:15Z</time>
      </trkpt>
      <trkpt lat="49.28568" lon="-0.24982">
        <ele>4.6</ele>
        <time>2020-12-20T09:00:17Z</time>
      </trkpt>
      <trkpt lat="49.28566" lon="-0.24982">
        <ele>4.6</ele>
        <time>2020-12-20T09:00:18Z</time>
      </trkpt>
      <trkpt lat="49.28563" lon="-0.24983">
        <ele>4.5</ele>
        <time>2020-12-20T09:00:20Z</time>
      </trkpt>
      <trkpt lat="49.2856" lon="-0.24985">
        <ele>4.5</ele>
        <time>2020-12-20T09:00:22Z</time>
      </trkpt>
      <trkpt lat="49.28558" lon="-0.24985">
        <ele>4.5</ele>
        <time>2020-12-20T09:00:23Z</time>
      </trkpt>
      <trkpt lat="49.28556" lon="-0.24985">
        <ele>4.5</ele>
        <time>2020-12-20T09:00:24Z</time>
      </trkpt>
      <trkpt lat="49.28553" lon="-0.24985">
        <ele>4.5</ele>
        <time>2020-12-20T09:00:26Z</time>
      </trkpt>
      <trkpt lat="49.28552" lon="-0.24984">
        <ele>4.5</ele>
        <time>2020-12-20T09:00:27Z</time>
      </trkpt>
      <trkpt lat="49.28549" lon="-0.24984">
        <ele>4.4</ele>
        <time>2020-12-20T09:00:29Z</time>
      </trkpt>
      <trkpt lat="49.28547" lon="-0.24987">
        <ele>4.4</ele>
        <time>2020-12-20T09:00:31Z</time>
      </trkpt>
      <trkpt lat="49.28546" lon="-0.24989">
        <ele>4.4</ele>
        <time>2020-12-20T09:00:32Z</time>
      </trkpt>
      <trkpt lat="49.28545" lon="-0.24991">
        <ele>4.4</ele>
        <time>2020-12-20T09:00:33Z</time>
      </trkpt>
      <trkpt lat="49.28542" lon="-0.24991">
        <ele>4.4</ele>
        <time>2020-12-20T09:00:35Z</time>
      </trkpt>
      <trkpt lat="49.2854" lon="-0.24991">
        <ele>4.4</ele>
        <time>2020-12-20T09:00:36Z</time>
      </trkpt>
      <trkpt lat="49.28537" lon="-0.24992">
        <ele>4.3</ele>
        <time>2020-12-20T09:00:38Z</time>
      </trkpt>
      <trkpt lat="49.28535" lon="-0.24994">
        <ele>4.3</ele>
        <time>2020-12-20T09:00:39Z</time>
      </trkpt>
      <trkpt lat="49.28533" lon="-0.24995">
        <ele>4.3</ele>
        <time>2020-12-20T09:00:41Z</time>
      </trkpt>
      <trkpt lat="49.28531" lon="-0.24997">
        <ele>4.3</ele>
        <time>2020-12-20T09:00:42Z</time>
      </trkpt>
      <trkpt lat="49.2853" lon="-0.24997">
        <ele>4.3</ele>
        <time>2020-12-20T09:00:43Z</time>
      </trkpt>
      <trkpt lat="49.28526" lon="-0.24999">
        <ele>4.3</ele>
        <time>2020-12-20T09:00:44Z</time>
      </trkpt>
      <trkpt lat="49.28522" lon="-0.25001">
        <ele>4.3</ele>
        <time>2020-12-20T09:00:46Z</time>
      </trkpt>
      <trkpt lat="49.28518" lon="-0.25003">
        <ele>4.3</ele>
        <time>2020-12-20T09:00:48Z</time>
      </trkpt>
      <trkpt lat="49.28516" lon="-0.25003">
        <ele>4.3</ele>
        <time>2020-12-20T09:00:49Z</time>
      </trkpt>
      <trkpt lat="49.28515" lon="-0.25004">
        <ele>4.3</ele>
        <time>2020-12-20T09:00:50Z</time>
      </trkpt>
      <trkpt lat="49.2851" lon="-0.25006">
        <ele>4.4</ele>
        <time>2020-12-20T09:00:52Z</time>
      </trkpt>
      <trkpt lat="49.28506" lon="-0.25007">
        <ele>4.5</ele>
        <time>2020-12-20T09:00:53Z</time>
      </trkpt>
      <trkpt lat="49.28503" lon="-0.25008">
        <ele>4.5</ele>
        <time>2020-12-20T09:00:55Z</time>
      </trkpt>
      <trkpt lat="49.28499" lon="-0.25009">
        <ele>4.6</ele>
        <time>2020-12-20T09:00:56Z</time>
      </trkpt>
      <trkpt lat="49.28498" lon="-0.25009">
        <ele>4.6</ele>
        <time>2020-12-20T09:00:57Z</time>
      </trkpt>
      <trkpt lat="49.28495" lon="-0.25009">
        <ele>4.7</ele>
        <time>2020-12-20T09:00:59Z</time>
      </trkpt>
      <trkpt lat="49.28492" lon="-0.25009">
        <ele>4.7</ele>
        <time>2020-12-20T09:01:00Z</time>
      </trkpt>
      <trkpt lat="49.2849" lon="-0.2501">
        <ele>4.8</ele>
        <time>2020-12-20T09:01:02Z</time>
      </trkpt>
      <trkpt lat="49.28487" lon="-0.2501">
        <ele>4.8</ele>
        <time>2020-12-20T09:01:03Z</time>
      </trkpt>
      <trkpt lat="49.28486" lon="-0.2501">
        <ele>4.8</ele>
        <time>2020-12-20T09:01:04Z</time>
      </trkpt>
      <trkpt lat="49.28484" lon="-0.2501">
        <ele>4.9</ele>
        <time>2020-12-20T09:01:05Z</time>
      </trkpt>
      <trkpt lat="49.28483" lon="-0.25011">
        <ele>4.9</ele>
        <time>2020-12-20T09:01:06Z</time>
      </trkpt>
      <trkpt lat="49.2848" lon="-0.25011">
        <ele>5</ele>
        <time>2020-12-20T09:01:08Z</time>
      </trkpt>
      <trkpt lat="49.28478" lon="-0.25012">
        <ele>5</ele>
        <time>2020-12-20T09:01:10Z</time>
      </trkpt>
      <trkpt lat="49.28474" lon="-0.25013">
        <ele>5.1</ele>
        <time>2020-12-20T09:01:11Z</time>
      </trkpt>
      <trkpt lat="49.28474" lon="-0.25013">
        <ele>5.1</ele>
        <time>2020-12-20T09:01:12Z</time>
      </trkpt>
      <trkpt lat="49.28471" lon="-0.25013">
        <ele>5.1</ele>
        <time>2020-12-20T09:01:13Z</time>
      </trkpt>
      <trkpt lat="49.2847" lon="-0.25013">
        <ele>5.1</ele>
        <time>2020-12-20T09:01:14Z</time>
      </trkpt>
      <trkpt lat="49.28466" lon="-0.25013">
        <ele>5.2</ele>
        <time>2020-12-20T09:01:16Z</time>
      </trkpt>
      <trkpt lat="49.28465" lon="-0.25014">
        <ele>5.2</ele>
        <time>2020-12-20T09:01:17Z</time>
      </trkpt>
      <trkpt lat="49.28462" lon="-0.25014">
        <ele>5.2</ele>
        <time>2020-12-20T09:01:19Z</time>
      </trkpt>
      <trkpt lat="49.28461" lon="-0.25014">
        <ele>5.3</ele>
        <time>2020-12-20T09:01:20Z</time>
      </trkpt>
      <trkpt lat="49.28458" lon="-0.25014">
        <ele>5.3</ele>
        <time>2020-12-20T09:01:22Z</time>
      </trkpt>
      <trkpt lat="49.28457" lon="-0.25014">
        <ele>5.3</ele>
        <time>2020-12-20T09:01:23Z</time>
      </trkpt>
      <trkpt lat="49.28455" lon="-0.25015">
        <ele>5.4</ele>
        <time>2020-12-20T09:01:24Z</time>
      </trkpt>
      <trkpt lat="49.28452" lon="-0.25016">
        <ele>5.4</ele>
        <time>2020-12-20T09:01:26Z</time>
      </trkpt>
      <trkpt lat="49.28451" lon="-0.25016">
        <ele>5.4</ele>
        <time>2020-12-20T09:01:27Z</time>
      </trkpt>
      <trkpt lat="49.28449" lon="-0.25016">
        <ele>5.4</ele>
        <time>2020-12-20T09:01:28Z</time>
      </trkpt>
      <trkpt lat="49.28446" lon="-0.25017">
        <ele>5.5</ele>
        <time>2020-12-20T09:01:30Z</time>
      </trkpt>
      <trkpt lat="49.28444" lon="-0.25017">
        <ele>5.5</ele>
        <time>2020-12-20T09:01:32Z</time>
      </trkpt>
      <trkpt lat="49.28442" lon="-0.25017">
        <ele>5.6</ele>
        <time>2020-12-20T09:01:33Z</time>
      </trkpt>
      <trkpt lat="49.28438" lon="-0.25018">
        <ele>5.6</ele>
        <time>2020-12-20T09:01:34Z</time>
      </trkpt>
      <trkpt lat="49.28437" lon="-0.25018">
        <ele>5.7</ele>
        <time>2020-12-20T09:01:35Z</time>
      </trkpt>
      <trkpt lat="49.28432" lon="-0.2502">
        <ele>5.7</ele>
        <time>2020-12-20T09:01:36Z</time>
      </trkpt>
      <trkpt lat="49.28429" lon="-0.25021">
        <ele>5.8</ele>
        <time>2020-12-20T09:01:38Z</time>
      </trkpt>
      <trkpt lat="49.28428" lon="-0.25021">
        <ele>5.8</ele>
        <time>2020-12-20T09:01:39Z</time>
      </trkpt>
      <trkpt lat="49.28425" lon="-0.25021">
        <ele>5.9</ele>
        <time>2020-12-20T09:01:40Z</time>
      </trkpt>
      <trkpt lat="49.28423" lon="-0.25022">
        <ele>5.9</ele>
        <time>2020-12-20T09:01:41Z</time>
      </trkpt>
      <trkpt lat="49.28421" lon="-0.25022">
        <ele>5.9</ele>
        <time>2020-12-20T09:01:43Z</time>
      </trkpt>
      <trkpt lat="49.28417" lon="-0.25022">
        <ele>6</ele>
        <time>2020-12-20T09:01:44Z</time>
      </trkpt>
      <trkpt lat="49.28416" lon="-0.25023">
        <ele>6</ele>
        <time>2020-12-20T09:01:45Z</time>
      </trkpt>
      <trkpt lat="49.28413" lon="-0.25023">
        <ele>6</ele>
        <time>2020-12-20T09:01:46Z</time>
      </trkpt>
      <trkpt lat="49.2841" lon="-0.25024">
        <ele>6</ele>
        <time>2020-12-20T09:01:47Z</time>
      </trkpt>
      <trkpt lat="49.28406" lon="-0.25026">
        <ele>6</ele>
        <time>2020-12-20T09:01:49Z</time>
      </trkpt>
      <trkpt lat="49.28403" lon="-0.25027">
        <ele>6</ele>
        <time>2020-12-20T09:01:50Z</time>
      </trkpt>
      <trkpt lat="49.284" lon="-0.25028">
        <ele>5.9</ele>
        <time>2020-12-20T09:01:51Z</time>
      </trkpt>
      <trkpt lat="49.28397" lon="-0.25029">
        <ele>5.9</ele>
        <time>2020-12-20T09:01:53Z</time>
      </trkpt>
      <trkpt lat="49.28394" lon="-0.25029">
        <ele>5.9</ele>
        <time>2020-12-20T09:01:54Z</time>
      </trkpt>
      <trkpt lat="49.28393" lon="-0.2503">
        <ele>5.9</ele>
        <time>2020-12-20T09:01:56Z</time>
      </trkpt>
      <trkpt lat="49.28391" lon="-0.25031">
        <ele>5.9</ele>
        <time>2020-12-20T09:01:57Z</time>
      </trkpt>
      <trkpt lat="49.2839" lon="-0.25031">
        <ele>5.9</ele>
        <time>2020-12-20T09:01:58Z</time>
      </trkpt>
      <trkpt lat="49.28387" lon="-0.25032">
        <ele>5.9</ele>
        <time>2020-12-20T09:01:59Z</time>
      </trkpt>
      <trkpt lat="49.28386" lon="-0.25032">
        <ele>5.9</ele>
        <time>2020-12-20T09:02:01Z</time>
      </trkpt>
      <trkpt lat="49.28383" lon="-0.25033">
        <ele>5.9</ele>
        <time>2020-12-20T09:02:02Z</time>
      </trkpt>
      <trkpt lat="49.28382" lon="-0.25032">
        <ele>5.9</ele>
        <time>2020-12-20T09:02:03Z</time>
      </trkpt>
      <trkpt lat="49.28379" lon="-0.25032">
        <ele>5.9</ele>
        <time>2020-12-20T09:02:04Z</time>
      </trkpt>
      <trkpt lat="49.28377" lon="-0.25032">
        <ele>5.9</ele>
        <time>2020-12-20T09:02:06Z</time>
      </trkpt>
      <trkpt lat="49.28374" lon="-0.25032">
        <ele>6</ele>
        <time>2020-12-20T09:02:07Z</time>
      </trkpt>
      <trkpt lat="49.28371" lon="-0.25035">
        <ele>6</ele>
        <time>2020-12-20T09:02:08Z</time>
      </trkpt>
      <trkpt lat="49.28369" lon="-0.25037">
        <ele>6</ele>
        <time>2020-12-20T09:02:09Z</time>
      </trkpt>
      <trkpt lat="49.28365" lon="-0.25039">
        <ele>6.1</ele>
        <time>2020-12-20T09:02:11Z</time>
      </trkpt>
      <trkpt lat="49.28361" lon="-0.25041">
        <ele>6.1</ele>
        <time>2020-12-20T09:02:12Z</time>
      </trkpt>
      <trkpt lat="49.28358" lon="-0.25043">
        <ele>6.1</ele>
        <time>2020-12-20T09:02:14Z</time>
      </trkpt>
      <trkpt lat="49.28354" lon="-0.25044">
        <ele>6.2</ele>
        <time>2020-12-20T09:02:15Z</time>
      </trkpt>
      <trkpt lat="49.2835" lon="-0.25046">
        <ele>6.2</ele>
        <time>2020-12-20T09:02:17Z</time>
      </trkpt>
      <trkpt lat="49.28348" lon="-0.25046">
        <ele>6.2</ele>
        <time>2020-12-20T09:02:18Z</time>
      </trkpt>
      <trkpt lat="49.28344" lon="-0.25047">
        <ele>6.2</ele>
        <time>2020-12-20T09:02:20Z</time>
      </trkpt>
      <trkpt lat="49.28341" lon="-0.25049">
        <ele>6.2</ele>
        <time>2020-12-20T09:02:22Z</time>
      </trkpt>
      <trkpt lat="49.28338" lon="-0.2505">
        <ele>6.2</ele>
        <time>2020-12-20T09:02:23Z</time>
      </trkpt>
      <trkpt lat="49.28337" lon="-0.25051">
        <ele>6.2</ele>
        <time>2020-12-20T09:02:24Z</time>
      </trkpt>
      <trkpt lat="49.28335" lon="-0.25052">
        <ele>6.2</ele>
        <time>2020-12-20T09:02:26Z</time>
      </trkpt>
      <trkpt lat="49.28331" lon="-0.25054">
        <ele>6.2</ele>
        <time>2020-12-20T09:02:27Z</time>
      </trkpt>
      <trkpt lat="49.2833" lon="-0.25054">
        <ele>6.2</ele>
        <time>2020-12-20T09:02:28Z</time>
      </trkpt>
      <trkpt lat="49.28326" lon="-0.25056">
        <ele>6.3</ele>
        <time>2020-12-20T09:02:29Z</time>
      </trkpt>
      <trkpt lat="49.28325" lon="-0.25056">
        <ele>6.3</ele>
        <time>2020-12-20T09:02:30Z</time>
      </trkpt>
      <trkpt lat="49.28322" lon="-0.25056">
        <ele>6.3</ele>
        <time>2020-12-20T09:02:32Z</time>
      </trkpt>
      <trkpt lat="49.2832" lon="-0.25056">
        <ele>6.3</ele>
        <time>2020-12-20T09:02:33Z</time>
      </trkpt>
      <trkpt lat="49.28316" lon="-0.25056">
        <ele>6.2</ele>
        <time>2020-12-20T09:02:35Z</time>
      </trkpt>
      <trkpt lat="49.28313" lon="-0.25055">
        <ele>6.2</ele>
        <time>2020-12-20T09:02:36Z</time>
      </trkpt>
      <trkpt lat="49.2831" lon="-0.25055">
        <ele>6.2</ele>
        <time>2020-12-20T09:02:37Z</time>
      </trkpt>
      <trkpt lat="49.28306" lon="-0.25055">
        <ele>6.2</ele>
        <time>2020-12-20T09:02:39Z</time>
      </trkpt>
      <trkpt lat="49.28303" lon="-0.25056">
        <ele>6.2</ele>
        <time>2020-12-20T09:02:40Z</time>
      </trkpt>
      <trkpt lat="49.28302" lon="-0.25056">
        <ele>6.2</ele>
        <time>2020-12-20T09:02:41Z</time>
      </trkpt>
      <trkpt lat="49.28298" lon="-0.25056">
        <ele>6.2</ele>
        <time>2020-12-20T09:02:43Z</time>
      </trkpt>
      <trkpt lat="49.28297" lon="-0.25056">
        <ele>6.2</ele>
        <time>2020-12-20T09:02:44Z</time>
      </trkpt>
      <trkpt lat="49.28293" lon="-0.25056">
        <ele>6.2</ele>
        <time>2020-12-20T09:02:45Z</time>
      </trkpt>
      <trkpt lat="49.28291" lon="-0.25055">
        <ele>6.1</ele>
        <time>2020-12-20T09:02:46Z</time>
      </trkpt>
      <trkpt lat="49.28287" lon="-0.25053">
        <ele>6.1</ele>
        <time>2020-12-20T09:02:48Z</time>
      </trkpt>
      <trkpt lat="49.28285" lon="-0.25053">
        <ele>6.1</ele>
        <time>2020-12-20T09:02:50Z</time>
      </trkpt>
      <trkpt lat="49.28284" lon="-0.25052">
        <ele>6.1</ele>
        <time>2020-12-20T09:02:51Z</time>
      </trkpt>
      <trkpt lat="49.28281" lon="-0.25051">
        <ele>6.1</ele>
        <time>2020-12-20T09:02:52Z</time>
      </trkpt>
      <trkpt lat="49.28276" lon="-0.25047">
        <ele>6.1</ele>
        <time>2020-12-20T09:02:54Z</time>
      </trkpt>
      <trkpt lat="49.28275" lon="-0.25046">
        <ele>6.1</ele>
        <time>2020-12-20T09:02:56Z</time>
      </trkpt>
      <trkpt lat="49.28274" lon="-0.25045">
        <ele>6.1</ele>
        <time>2020-12-20T09:02:57Z</time>
      </trkpt>
      <trkpt lat="49.28272" lon="-0.25043">
        <ele>6.1</ele>
        <time>2020-12-20T09:02:58Z</time>
      </trkpt>
      <trkpt lat="49.28272" lon="-0.2504">
        <ele>6.1</ele>
        <time>2020-12-20T09:03:00Z</time>
      </trkpt>
      <trkpt lat="49.28271" lon="-0.25038">
        <ele>6.1</ele>
        <time>2020-12-20T09:03:01Z</time>
      </trkpt>
      <trkpt lat="49.28271" lon="-0.25035">
        <ele>6.1</ele>
        <time>2020-12-20T09:03:02Z</time>
      </trkpt>
      <trkpt lat="49.28271" lon="-0.25032">
        <ele>6.1</ele>
        <time>2020-12-20T09:03:03Z</time>
      </trkpt>
      <trkpt lat="49.28271" lon="-0.2503">
        <ele>6.1</ele>
        <time>2020-12-20T09:03:04Z</time>
      </trkpt>
      <trkpt lat="49.28271" lon="-0.25028">
        <ele>6.1</ele>
        <time>2020-12-20T09:03:05Z</time>
      </trkpt>
      <trkpt lat="49.2827" lon="-0.25024">
        <ele>6.1</ele>
        <time>2020-12-20T09:03:07Z</time>
      </trkpt>
      <trkpt lat="49.28269" lon="-0.25021">
        <ele>6.1</ele>
        <time>2020-12-20T09:03:08Z</time>
      </trkpt>
      <trkpt lat="49.28267" lon="-0.25017">
        <ele>6</ele>
        <time>2020-12-20T09:03:10Z</time>
      </trkpt>
      <trkpt lat="49.28265" lon="-0.25013">
        <ele>6</ele>
        <time>2020-12-20T09:03:11Z</time>
      </trkpt>
      <trkpt lat="49.28264" lon="-0.25011">
        <ele>6</ele>
        <time>2020-12-20T09:03:12Z</time>
      </trkpt>
      <trkpt lat="49.28263" lon="-0.25009">
        <ele>5.9</ele>
        <time>2020-12-20T09:03:13Z</time>
      </trkpt>
      <trkpt lat="49.28262" lon="-0.25005">
        <ele>5.9</ele>
        <time>2020-12-20T09:03:15Z</time>
      </trkpt>
      <trkpt lat="49.28261" lon="-0.25001">
        <ele>5.9</ele>
        <time>2020-12-20T09:03:16Z</time>
      </trkpt>
      <trkpt lat="49.28259" lon="-0.24996">
        <ele>5.8</ele>
        <time>2020-12-20T09:03:17Z</time>
      </trkpt>
      <trkpt lat="49.28258" lon="-0.24992">
        <ele>5.8</ele>
        <time>2020-12-20T09:03:18Z</time>
      </trkpt>
      <trkpt lat="49.28257" lon="-0.24986">
        <ele>5.8</ele>
        <time>2020-12-20T09:03:20Z</time>
      </trkpt>
      <trkpt lat="49.28256" lon="-0.24982">
        <ele>5.7</ele>
        <time>2020-12-20T09:03:21Z</time>
      </trkpt>
      <trkpt lat="49.28254" lon="-0.24975">
        <ele>5.7</ele>
        <time>2020-12-20T09:03:23Z</time>
      </trkpt>
      <trkpt lat="49.28253" lon="-0.24973">
        <ele>5.7</ele>
        <time>2020-12-20T09:03:24Z</time>
      </trkpt>
      <trkpt lat="49.28252" lon="-0.24971">
        <ele>5.6</ele>
        <time>2020-12-20T09:03:25Z</time>
      </trkpt>
      <trkpt lat="49.28251" lon="-0.24966">
        <ele>5.6</ele>
        <time>2020-12-20T09:03:27Z</time>
      </trkpt>
      <trkpt lat="49.28251" lon="-0.24965">
        <ele>5.6</ele>
        <time>2020-12-20T09:03:28Z</time>
      </trkpt>
      <trkpt lat="49.2825" lon="-0.24963">
        <ele>5.6</ele>
        <time>2020-12-20T09:03:29Z</time>
      </trkpt>
      <trkpt lat="49.28249" lon="-0.2496">
        <ele>5.6</ele>
        <time>2020-12-20T09:03:31Z</time>
      </trkpt>
      <trkpt lat="49.28248" lon="-0.24958">
        <ele>5.5</ele>
        <time>2020-12-20T09:03:32Z</time>
      </trkpt>
      <trkpt lat="49.28247" lon="-0.24956">
        <ele>5.5</ele>
        <time>2020-12-20T09:03:33Z</time>
      </trkpt>
      <trkpt lat="49.28245" lon="-0.24954">
        <ele>5.5</ele>
        <time>2020-12-20T09:03:34Z</time>
      </trkpt>
      <trkpt lat="49.28242" lon="-0.24952">
        <ele>5.4</ele>
        <time>2020-12-20T09:03:36Z</time>
      </trkpt>
      <trkpt lat="49.2824" lon="-0.2495">
        <ele>5.4</ele>
        <time>2020-12-20T09:03:37Z</time>
      </trkpt>
      <trkpt lat="49.28239" lon="-0.24948">
        <ele>5.4</ele>
        <time>2020-12-20T09:03:39Z</time>
      </trkpt>
      <trkpt lat="49.28236" lon="-0.24944">
        <ele>5.3</ele>
        <time>2020-12-20T09:03:40Z</time>
      </trkpt>
      <trkpt lat="49.28236" lon="-0.24943">
        <ele>5.3</ele>
        <time>2020-12-20T09:03:41Z</time>
      </trkpt>
      <trkpt lat="49.28234" lon="-0.2494">
        <ele>5.2</ele>
        <time>2020-12-20T09:03:42Z</time>
      </trkpt>
      <trkpt lat="49.28232" lon="-0.24937">
        <ele>5.2</ele>
        <time>2020-12-20T09:03:44Z</time>
      </trkpt>
      <trkpt lat="49.2823" lon="-0.24935">
        <ele>5.1</ele>
        <time>2020-12-20T09:03:45Z</time>
      </trkpt>
      <trkpt lat="49.28226" lon="-0.24934">
        <ele>5.1</ele>
        <time>2020-12-20T09:03:46Z</time>
      </trkpt>
      <trkpt lat="49.28225" lon="-0.24934">
        <ele>5</ele>
        <time>2020-12-20T09:03:47Z</time>
      </trkpt>
      <trkpt lat="49.28223" lon="-0.24934">
        <ele>5</ele>
        <time>2020-12-20T09:03:48Z</time>
      </trkpt>
      <trkpt lat="49.28221" lon="-0.24934">
        <ele>5</ele>
        <time>2020-12-20T09:03:50Z</time>
      </trkpt>
      <trkpt lat="49.28217" lon="-0.24935">
        <ele>4.9</ele>
        <time>2020-12-20T09:03:51Z</time>
      </trkpt>
      <trkpt lat="49.28216" lon="-0.24935">
        <ele>4.9</ele>
        <time>2020-12-20T09:03:52Z</time>
      </trkpt>
      <trkpt lat="49.28212" lon="-0.24936">
        <ele>4.9</ele>
        <time>2020-12-20T09:03:54Z</time>
      </trkpt>
      <trkpt lat="49.28211" lon="-0.24936">
        <ele>4.8</ele>
        <time>2020-12-20T09:03:55Z</time>
      </trkpt>
      <trkpt lat="49.28208" lon="-0.24936">
        <ele>4.8</ele>
        <time>2020-12-20T09:03:56Z</time>
      </trkpt>
      <trkpt lat="49.28207" lon="-0.24937">
        <ele>4.8</ele>
        <time>2020-12-20T09:03:58Z</time>
      </trkpt>
      <trkpt lat="49.28205" lon="-0.24937">
        <ele>4.8</ele>
        <time>2020-12-20T09:03:59Z</time>
      </trkpt>
      <trkpt lat="49.28204" lon="-0.24937">
        <ele>4.8</ele>
        <time>2020-12-20T09:04:00Z</time>
      </trkpt>
      <trkpt lat="49.28201" lon="-0.24938">
        <ele>4.7</ele>
        <time>2020-12-20T09:04:01Z</time>
      </trkpt>
      <trkpt lat="49.28198" lon="-0.24939">
        <ele>4.7</ele>
        <time>2020-12-20T09:04:03Z</time>
      </trkpt>
      <trkpt lat="49.28194" lon="-0.24941">
        <ele>4.7</ele>
        <time>2020-12-20T09:04:05Z</time>
      </trkpt>
      <trkpt lat="49.28191" lon="-0.24942">
        <ele>4.7</ele>
        <time>2020-12-20T09:04:07Z</time>
      </trkpt>
      <trkpt lat="49.28188" lon="-0.24943">
        <ele>4.6</ele>
        <time>2020-12-20T09:04:08Z</time>
      </trkpt>
      <trkpt lat="49.28185" lon="-0.24944">
        <ele>4.6</ele>
        <time>2020-12-20T09:04:09Z</time>
      </trkpt>
      <trkpt lat="49.28182" lon="-0.24946">
        <ele>4.6</ele>
        <time>2020-12-20T09:04:11Z</time>
      </trkpt>
      <trkpt lat="49.28181" lon="-0.24946">
        <ele>4.6</ele>
        <time>2020-12-20T09:04:12Z</time>
      </trkpt>
      <trkpt lat="49.28177" lon="-0.24948">
        <ele>4.6</ele>
        <time>2020-12-20T09:04:13Z</time>
      </trkpt>
      <trkpt lat="49.28176" lon="-0.24949">
        <ele>4.5</ele>
        <time>2020-12-20T09:04:14Z</time>
      </trkpt>
      <trkpt lat="49.28174" lon="-0.24949">
        <ele>4.5</ele>
        <time>2020-12-20T09:04:15Z</time>
      </trkpt>
      <trkpt lat="49.28172" lon="-0.24949">
        <ele>4.5</ele>
        <time>2020-12-20T09:04:17Z</time>
      </trkpt>
      <trkpt lat="49.28168" lon="-0.24951">
        <ele>4.5</ele>
        <time>2020-12-20T09:04:18Z</time>
      </trkpt>
      <trkpt lat="49.28167" lon="-0.24951">
        <ele>4.5</ele>
        <time>2020-12-20T09:04:19Z</time>
      </trkpt>
      <trkpt lat="49.28163" lon="-0.24953">
        <ele>4.5</ele>
        <time>2020-12-20T09:04:21Z</time>
      </trkpt>
      <trkpt lat="49.2816" lon="-0.24955">
        <ele>4.4</ele>
        <time>2020-12-20T09:04:23Z</time>
      </trkpt>
      <trkpt lat="49.28157" lon="-0.24956">
        <ele>4.4</ele>
        <time>2020-12-20T09:04:24Z</time>
      </trkpt>
      <trkpt lat="49.28154" lon="-0.24957">
        <ele>4.4</ele>
        <time>2020-12-20T09:04:25Z</time>
      </trkpt>
      <trkpt lat="49.28153" lon="-0.24958">
        <ele>4.4</ele>
        <time>2020-12-20T09:04:26Z</time>
      </trkpt>
      <trkpt lat="49.28149" lon="-0.24959">
        <ele>4.4</ele>
        <time>2020-12-20T09:04:28Z</time>
      </trkpt>
      <trkpt lat="49.28147" lon="-0.2496">
        <ele>4.4</ele>
        <time>2020-12-20T09:04:29Z</time>
      </trkpt>
      <trkpt lat="49.28146" lon="-0.2496">
        <ele>4.4</ele>
        <time>2020-12-20T09:04:30Z</time>
      </trkpt>
      <trkpt lat="49.28142" lon="-0.24961">
        <ele>4.3</ele>
        <time>2020-12-20T09:04:32Z</time>
      </trkpt>
      <trkpt lat="49.28141" lon="-0.24962">
        <ele>4.3</ele>
        <time>2020-12-20T09:04:33Z</time>
      </trkpt>
      <trkpt lat="49.28137" lon="-0.24963">
        <ele>4.3</ele>
        <time>2020-12-20T09:04:35Z</time>
      </trkpt>
      <trkpt lat="49.28134" lon="-0.24964">
        <ele>4.3</ele>
        <time>2020-12-20T09:04:37Z</time>
      </trkpt>
      <trkpt lat="49.28132" lon="-0.24965">
        <ele>4.3</ele>
        <time>2020-12-20T09:04:38Z</time>
      </trkpt>
      <trkpt lat="49.28129" lon="-0.24966">
        <ele>4.3</ele>
        <time>2020-12-20T09:04:39Z</time>
      </trkpt>
      <trkpt lat="49.28127" lon="-0.24967">
        <ele>4.3</ele>
        <time>2020-12-20T09:04:40Z</time>
      </trkpt>
      <trkpt lat="49.28125" lon="-0.24968">
        <ele>4.3</ele>
        <time>2020-12-20T09:04:42Z</time>
      </trkpt>
      <trkpt lat="49.28122" lon="-0.24968">
        <ele>4.3</ele>
        <time>2020-12-20T09:04:43Z</time>
      </trkpt>
      <trkpt lat="49.2812" lon="-0.24967">
        <ele>4.3</ele>
        <time>2020-12-20T09:04:44Z</time>
      </trkpt>
      <trkpt lat="49.28117" lon="-0.24966">
        <ele>4.3</ele>
        <time>2020-12-20T09:04:46Z</time>
      </trkpt>
      <trkpt lat="49.28114" lon="-0.24966">
        <ele>4.3</ele>
        <time>2020-12-20T09:04:48Z</time>
      </trkpt>
      <trkpt lat="49.28111" lon="-0.24965">
        <ele>4.3</ele>
        <time>2020-12-20T09:04:49Z</time>
      </trkpt>
      <trkpt lat="49.28107" lon="-0.24963">
        <ele>4.3</ele>
        <time>2020-12-20T09:04:51Z</time>
      </trkpt>
      <trkpt lat="49.28106" lon="-0.24963">
        <ele>4.3</ele>
        <time>2020-12-20T09:04:52Z</time>
      </trkpt>
      <trkpt lat="49.28102" lon="-0.24961">
        <ele>4.3</ele>
        <time>2020-12-20T09:04:54Z</time>
      </trkpt>
      <trkpt lat="49.281" lon="-0.24961">
        <ele>4.2</ele>
        <time>2020-12-20T09:04:55Z</time>
      </trkpt>
      <trkpt lat="49.28099" lon="-0.2496">
        <ele>4.2</ele>
        <time>2020-12-20T09:04:56Z</time>
      </trkpt>
      <trkpt lat="49.28095" lon="-0.24959">
        <ele>4.2</ele>
        <time>2020-12-20T09:04:57Z</time>
      </trkpt>
      <trkpt lat="49.28093" lon="-0.24958">
        <ele>4.2</ele>
        <time>2020-12-20T09:04:58Z</time>
      </trkpt>
      <trkpt lat="49.28089" lon="-0.24958">
        <ele>4.2</ele>
        <time>2020-12-20T09:05:00Z</time>
      </trkpt>
      <trkpt lat="49.28085" lon="-0.24959">
        <ele>4.2</ele>
        <time>2020-12-20T09:05:02Z</time>
      </trkpt>
      <trkpt lat="49.28083" lon="-0.24959">
        <ele>4.2</ele>
        <time>2020-12-20T09:05:03Z</time>
      </trkpt>
      <trkpt lat="49.28081" lon="-0.24959">
        <ele>4.2</ele>
        <time>2020-12-20T09:05:04Z</time>
      </trkpt>
      <trkpt lat="49.28078" lon="-0.2496">
        <ele>4.2</ele>
        <time>2020-12-20T09:05:06Z</time>
      </trkpt>
      <trkpt lat="49.28077" lon="-0.2496">
        <ele>4.2</ele>
        <time>2020-12-20T09:05:07Z</time>
      </trkpt>
      <trkpt lat="49.28075" lon="-0.24961">
        <ele>4.2</ele>
        <time>2020-12-20T09:05:08Z</time>
      </trkpt>
      <trkpt lat="49.28072" lon="-0.24961">
        <ele>4.2</ele>
        <time>2020-12-20T09:05:10Z</time>
      </trkpt>
      <trkpt lat="49.2807" lon="-0.24961">
        <ele>4.2</ele>
        <time>2020-12-20T09:05:11Z</time>
      </trkpt>
      <trkpt lat="49.28068" lon="-0.24962">
        <ele>4.2</ele>
        <time>2020-12-20T09:05:13Z</time>
      </trkpt>
      <trkpt lat="49.28065" lon="-0.24963">
        <ele>4.2</ele>
        <time>2020-12-20T09:05:14Z</time>
      </trkpt>
      <trkpt lat="49.28062" lon="-0.24964">
        <ele>4.2</ele>
        <time>2020-12-20T09:05:16Z</time>
      </trkpt>
      <trkpt lat="49.28058" lon="-0.24965">
        <ele>4.2</ele>
        <time>2020-12-20T09:05:17Z</time>
      </trkpt>
      <trkpt lat="49.28057" lon="-0.24965">
        <ele>4.2</ele>
        <time>2020-12-20T09:05:18Z</time>
      </trkpt>
      <trkpt lat="49.28055" lon="-0.24963">
        <ele>4.3</ele>
        <time>2020-12-20T09:05:20Z</time>
      </trkpt>
      <trkpt lat="49.28053" lon="-0.2496">
        <ele>4.3</ele>
        <time>2020-12-20T09:05:21Z</time>
      </trkpt>
      <trkpt lat="49.28052" lon="-0.24957">
        <ele>4.3</ele>
        <time>2020-12-20T09:05:23Z</time>
      </trkpt>
      <trkpt lat="49.28051" lon="-0.24954">
        <ele>4.3</ele>
        <time>2020-12-20T09:05:24Z</time>
      </trkpt>
      <trkpt lat="49.28049" lon="-0.24951">
        <ele>4.3</ele>
        <time>2020-12-20T09:05:26Z</time>
      </trkpt>
      <trkpt lat="49.28048" lon="-0.24947">
        <ele>4.3</ele>
        <time>2020-12-20T09:05:27Z</time>
      </trkpt>
      <trkpt lat="49.28045" lon="-0.24943">
        <ele>4.3</ele>
        <time>2020-12-20T09:05:28Z</time>
      </trkpt>
      <trkpt lat="49.28042" lon="-0.24936">
        <ele>4.3</ele>
        <time>2020-12-20T09:05:30Z</time>
      </trkpt>
      <trkpt lat="49.28041" lon="-0.24932">
        <ele>4.3</ele>
        <time>2020-12-20T09:05:31Z</time>
      </trkpt>
      <trkpt lat="49.28039" lon="-0.24929">
        <ele>4.3</ele>
        <time>2020-12-20T09:05:33Z</time>
      </trkpt>
      <trkpt lat="49.28037" lon="-0.24926">
        <ele>4.3</ele>
        <time>2020-12-20T09:05:34Z</time>
      </trkpt>
      <trkpt lat="49.28034" lon="-0.24921">
        <ele>4.3</ele>
        <time>2020-12-20T09:05:36Z</time>
      </trkpt>
      <trkpt lat="49.28033" lon="-0.2492">
        <ele>4.3</ele>
        <time>2020-12-20T09:05:37Z</time>
      </trkpt>
      <trkpt lat="49.28033" lon="-0.24918">
        <ele>4.3</ele>
        <time>2020-12-20T09:05:38Z</time>
      </trkpt>
      <trkpt lat="49.28032" lon="-0.24916">
        <ele>4.3</ele>
        <time>2020-12-20T09:05:40Z</time>
      </trkpt>
      <trkpt lat="49.28032" lon="-0.24913">
        <ele>4.3</ele>
        <time>2020-12-20T09:05:41Z</time>
      </trkpt>
      <trkpt lat="49.28032" lon="-0.24909">
        <ele>4.3</ele>
        <time>2020-12-20T09:05:42Z</time>
      </trkpt>
      <trkpt lat="49.28033" lon="-0.24907">
        <ele>4.3</ele>
        <time>2020-12-20T09:05:43Z</time>
      </trkpt>
      <trkpt lat="49.28033" lon="-0.24901">
        <ele>4.3</ele>
        <time>2020-12-20T09:05:45Z</time>
      </trkpt>
      <trkpt lat="49.28034" lon="-0.24896">
        <ele>4.3</ele>
        <time>2020-12-20T09:05:47Z</time>
      </trkpt>
      <trkpt lat="49.28034" lon="-0.24892">
        <ele>4.3</ele>
        <time>2020-12-20T09:05:48Z</time>
      </trkpt>
      <trkpt lat="49.28035" lon="-0.24887">
        <ele>4.3</ele>
        <time>2020-12-20T09:05:49Z</time>
      </trkpt>
      <trkpt lat="49.28035" lon="-0.24886">
        <ele>4.3</ele>
        <time>2020-12-20T09:05:50Z</time>
      </trkpt>
      <trkpt lat="49.28036" lon="-0.2488">
        <ele>4.3</ele>
        <time>2020-12-20T09:05:52Z</time>
      </trkpt>
      <trkpt lat="49.28036" lon="-0.24877">
        <ele>4.3</ele>
        <time>2020-12-20T09:05:53Z</time>
      </trkpt>
      <trkpt lat="49.28036" lon="-0.24872">
        <ele>4.3</ele>
        <time>2020-12-20T09:05:55Z</time>
      </trkpt>
      <trkpt lat="49.28036" lon="-0.24867">
        <ele>4.3</ele>
        <time>2020-12-20T09:05:56Z</time>
      </trkpt>
      <trkpt lat="49.28036" lon="-0.24865">
        <ele>4.3</ele>
        <time>2020-12-20T09:05:57Z</time>
      </trkpt>
      <trkpt lat="49.28036" lon="-0.24857">
        <ele>4.3</ele>
        <time>2020-12-20T09:05:59Z</time>
      </trkpt>
      <trkpt lat="49.28036" lon="-0.24855">
        <ele>4.3</ele>
        <time>2020-12-20T09:06:00Z</time>
      </trkpt>
      <trkpt lat="49.28036" lon="-0.24853">
        <ele>4.3</ele>
        <time>2020-12-20T09:06:01Z</time>
      </trkpt>
      <trkpt lat="49.28035" lon="-0.24848">
        <ele>4.3</ele>
        <time>2020-12-20T09:06:03Z</time>
      </trkpt>
      <trkpt lat="49.28035" lon="-0.24847">
        <ele>4.3</ele>
        <time>2020-12-20T09:06:04Z</time>
      </trkpt>
      <trkpt lat="49.28035" lon="-0.24843">
        <ele>4.3</ele>
        <time>2020-12-20T09:06:05Z</time>
      </trkpt>
      <trkpt lat="49.28035" lon="-0.24838">
        <ele>4.3</ele>
        <time>2020-12-20T09:06:07Z</time>
      </trkpt>
      <trkpt lat="49.28034" lon="-0.24833">
        <ele>4.3</ele>
        <time>2020-12-20T09:06:08Z</time>
      </trkpt>
      <trkpt lat="49.28034" lon="-0.24828">
        <ele>4.3</ele>
        <time>2020-12-20T09:06:09Z</time>
      </trkpt>
      <trkpt lat="49.28033" lon="-0.24821">
        <ele>4.3</ele>
        <time>2020-12-20T09:06:11Z</time>
      </trkpt>
      <trkpt lat="49.28032" lon="-0.24816">
        <ele>4.3</ele>
        <time>2020-12-20T09:06:12Z</time>
      </trkpt>
      <trkpt lat="49.28031" lon="-0.24815">
        <ele>4.3</ele>
        <time>2020-12-20T09:06:13Z</time>
      </trkpt>
      <trkpt lat="49.2803" lon="-0.2481">
        <ele>4.3</ele>
        <time>2020-12-20T09:06:15Z</time>
      </trkpt>
      <trkpt lat="49.28029" lon="-0.24808">
        <ele>4.3</ele>
        <time>2020-12-20T09:06:16Z</time>
      </trkpt>
      <trkpt lat="49.28028" lon="-0.24804">
        <ele>4.3</ele>
        <time>2020-12-20T09:06:17Z</time>
      </trkpt>
      <trkpt lat="49.28027" lon="-0.24801">
        <ele>4.4</ele>
        <time>2020-12-20T09:06:18Z</time>
      </trkpt>
      <trkpt lat="49.28025" lon="-0.24797">
        <ele>4.4</ele>
        <time>2020-12-20T09:06:20Z</time>
      </trkpt>
      <trkpt lat="49.28023" lon="-0.24793">
        <ele>4.4</ele>
        <time>2020-12-20T09:06:21Z</time>
      </trkpt>
      <trkpt lat="49.28022" lon="-0.24792">
        <ele>4.4</ele>
        <time>2020-12-20T09:06:22Z</time>
      </trkpt>
      <trkpt lat="49.28021" lon="-0.24789">
        <ele>4.5</ele>
        <time>2020-12-20T09:06:23Z</time>
      </trkpt>
      <trkpt lat="49.28018" lon="-0.24785">
        <ele>4.5</ele>
        <time>2020-12-20T09:06:25Z</time>
      </trkpt>
      <trkpt lat="49.28016" lon="-0.24781">
        <ele>4.6</ele>
        <time>2020-12-20T09:06:27Z</time>
      </trkpt>
      <trkpt lat="49.28014" lon="-0.24777">
        <ele>4.6</ele>
        <time>2020-12-20T09:06:28Z</time>
      </trkpt>
      <trkpt lat="49.28013" lon="-0.24776">
        <ele>4.7</ele>
        <time>2020-12-20T09:06:29Z</time>
      </trkpt>
      <trkpt lat="49.28011" lon="-0.24772">
        <ele>4.7</ele>
        <time>2020-12-20T09:06:31Z</time>
      </trkpt>
      <trkpt lat="49.28009" lon="-0.24769">
        <ele>4.8</ele>
        <time>2020-12-20T09:06:32Z</time>
      </trkpt>
      <trkpt lat="49.28008" lon="-0.24764">
        <ele>4.9</ele>
        <time>2020-12-20T09:06:34Z</time>
      </trkpt>
      <trkpt lat="49.28007" lon="-0.24763">
        <ele>4.9</ele>
        <time>2020-12-20T09:06:35Z</time>
      </trkpt>
      <trkpt lat="49.28006" lon="-0.2476">
        <ele>5</ele>
        <time>2020-12-20T09:06:36Z</time>
      </trkpt>
      <trkpt lat="49.28004" lon="-0.24756">
        <ele>5</ele>
        <time>2020-12-20T09:06:38Z</time>
      </trkpt>
      <trkpt lat="49.28003" lon="-0.24754">
        <ele>5.1</ele>
        <time>2020-12-20T09:06:39Z</time>
      </trkpt>
      <trkpt lat="49.28002" lon="-0.24752">
        <ele>5.1</ele>
        <time>2020-12-20T09:06:40Z</time>
      </trkpt>
      <trkpt lat="49.28001" lon="-0.24749">
        <ele>5.2</ele>
        <time>2020-12-20T09:06:43Z</time>
      </trkpt>
      <trkpt lat="49.27999" lon="-0.24745">
        <ele>5.2</ele>
        <time>2020-12-20T09:06:44Z</time>
      </trkpt>
      <trkpt lat="49.27998" lon="-0.24743">
        <ele>5.2</ele>
        <time>2020-12-20T09:06:46Z</time>
      </trkpt>
      <trkpt lat="49.27997" lon="-0.24741">
        <ele>5.2</ele>
        <time>2020-12-20T09:06:48Z</time>
      </trkpt>
      <trkpt lat="49.27997" lon="-0.24744">
        <ele>5.2</ele>
        <time>2020-12-20T09:06:50Z</time>
      </trkpt>
      <trkpt lat="49.27996" lon="-0.24745">
        <ele>5.2</ele>
        <time>2020-12-20T09:06:51Z</time>
      </trkpt>
      <trkpt lat="49.27996" lon="-0.24745">
        <ele>5.2</ele>
        <time>2020-12-20T09:06:52Z</time>
      </trkpt>
      <trkpt lat="49.27997" lon="-0.24745">
        <ele>5.2</ele>
        <time>2020-12-20T09:06:53Z</time>
      </trkpt>
      <trkpt lat="49.27997" lon="-0.24744">
        <ele>5.2</ele>
        <time>2020-12-20T09:06:55Z</time>
      </trkpt>
      <trkpt lat="49.27997" lon="-0.24744">
        <ele>5.2</ele>
        <time>2020-12-20T09:06:57Z</time>
      </trkpt>
      <trkpt lat="49.27997" lon="-0.24744">
        <ele>5.2</ele>
        <time>2020-12-20T09:06:59Z</time>
      </trkpt>
      <trkpt lat="49.27997" lon="-0.24743">
        <ele>5.2</ele>
        <time>2020-12-20T09:07:01Z</time>
      </trkpt>
      <trkpt lat="49.27994" lon="-0.24742">
        <ele>5.2</ele>
        <time>2020-12-20T09:07:03Z</time>
      </trkpt>
      <trkpt lat="49.27993" lon="-0.24742">
        <ele>5.2</ele>
        <time>2020-12-20T09:07:05Z</time>
      </trkpt>
      <trkpt lat="49.27991" lon="-0.24743">
        <ele>5.2</ele>
        <time>2020-12-20T09:07:06Z</time>
      </trkpt>
      <trkpt lat="49.27988" lon="-0.24743">
        <ele>5.2</ele>
        <time>2020-12-20T09:07:07Z</time>
      </trkpt>
      <trkpt lat="49.27986" lon="-0.24744">
        <ele>5.2</ele>
        <time>2020-12-20T09:07:09Z</time>
      </trkpt>
      <trkpt lat="49.27985" lon="-0.24744">
        <ele>5.2</ele>
        <time>2020-12-20T09:07:10Z</time>
      </trkpt>
      <trkpt lat="49.27984" lon="-0.24745">
        <ele>5.2</ele>
        <time>2020-12-20T09:07:11Z</time>
      </trkpt>
      <trkpt lat="49.27981" lon="-0.24745">
        <ele>5.2</ele>
        <time>2020-12-20T09:07:13Z</time>
      </trkpt>
      <trkpt lat="49.27979" lon="-0.24746">
        <ele>5.2</ele>
        <time>2020-12-20T09:07:15Z</time>
      </trkpt>
      <trkpt lat="49.27975" lon="-0.24748">
        <ele>5.3</ele>
        <time>2020-12-20T09:07:17Z</time>
      </trkpt>
      <trkpt lat="49.27971" lon="-0.24749">
        <ele>5.3</ele>
        <time>2020-12-20T09:07:18Z</time>
      </trkpt>
      <trkpt lat="49.2797" lon="-0.24749">
        <ele>5.3</ele>
        <time>2020-12-20T09:07:19Z</time>
      </trkpt>
      <trkpt lat="49.27969" lon="-0.2475">
        <ele>5.3</ele>
        <time>2020-12-20T09:07:20Z</time>
      </trkpt>
      <trkpt lat="49.27965" lon="-0.24751">
        <ele>5.3</ele>
        <time>2020-12-20T09:07:22Z</time>
      </trkpt>
      <trkpt lat="49.27963" lon="-0.24752">
        <ele>5.3</ele>
        <time>2020-12-20T09:07:24Z</time>
      </trkpt>
      <trkpt lat="49.27962" lon="-0.24753">
        <ele>5.3</ele>
        <time>2020-12-20T09:07:25Z</time>
      </trkpt>
      <trkpt lat="49.2796" lon="-0.24753">
        <ele>5.3</ele>
        <time>2020-12-20T09:07:26Z</time>
      </trkpt>
      <trkpt lat="49.27958" lon="-0.24754">
        <ele>5.3</ele>
        <time>2020-12-20T09:07:28Z</time>
      </trkpt>
      <trkpt lat="49.27955" lon="-0.24754">
        <ele>5.3</ele>
        <time>2020-12-20T09:07:29Z</time>
      </trkpt>
      <trkpt lat="49.27954" lon="-0.24755">
        <ele>5.3</ele>
        <time>2020-12-20T09:07:30Z</time>
      </trkpt>
      <trkpt lat="49.2795" lon="-0.24756">
        <ele>5.3</ele>
        <time>2020-12-20T09:07:32Z</time>
      </trkpt>
      <trkpt lat="49.27945" lon="-0.24758">
        <ele>5.4</ele>
        <time>2020-12-20T09:07:35Z</time>
      </trkpt>
      <trkpt lat="49.27941" lon="-0.24759">
        <ele>5.4</ele>
        <time>2020-12-20T09:07:37Z</time>
      </trkpt>
      <trkpt lat="49.27938" lon="-0.24759">
        <ele>5.4</ele>
        <time>2020-12-20T09:07:38Z</time>
      </trkpt>
      <trkpt lat="49.27937" lon="-0.24759">
        <ele>5.4</ele>
        <time>2020-12-20T09:07:39Z</time>
      </trkpt>
      <trkpt lat="49.27935" lon="-0.2476">
        <ele>5.4</ele>
        <time>2020-12-20T09:07:40Z</time>
      </trkpt>
      <trkpt lat="49.27934" lon="-0.2476">
        <ele>5.4</ele>
        <time>2020-12-20T09:07:41Z</time>
      </trkpt>
      <trkpt lat="49.2793" lon="-0.2476">
        <ele>5.4</ele>
        <time>2020-12-20T09:07:43Z</time>
      </trkpt>
      <trkpt lat="49.27929" lon="-0.2476">
        <ele>5.4</ele>
        <time>2020-12-20T09:07:44Z</time>
      </trkpt>
      <trkpt lat="49.27928" lon="-0.2476">
        <ele>5.4</ele>
        <time>2020-12-20T09:07:45Z</time>
      </trkpt>
      <trkpt lat="49.27925" lon="-0.24761">
        <ele>5.4</ele>
        <time>2020-12-20T09:07:47Z</time>
      </trkpt>
      <trkpt lat="49.27923" lon="-0.24762">
        <ele>5.4</ele>
        <time>2020-12-20T09:07:49Z</time>
      </trkpt>
      <trkpt lat="49.27921" lon="-0.24763">
        <ele>5.4</ele>
        <time>2020-12-20T09:07:51Z</time>
      </trkpt>
      <trkpt lat="49.2792" lon="-0.24765">
        <ele>5.4</ele>
        <time>2020-12-20T09:07:52Z</time>
      </trkpt>
      <trkpt lat="49.27918" lon="-0.24765">
        <ele>5.4</ele>
        <time>2020-12-20T09:07:53Z</time>
      </trkpt>
      <trkpt lat="49.27917" lon="-0.24766">
        <ele>5.4</ele>
        <time>2020-12-20T09:07:54Z</time>
      </trkpt>
      <trkpt lat="49.27916" lon="-0.24766">
        <ele>5.4</ele>
        <time>2020-12-20T09:07:56Z</time>
      </trkpt>
      <trkpt lat="49.27914" lon="-0.24766">
        <ele>5.4</ele>
        <time>2020-12-20T09:07:58Z</time>
      </trkpt>
      <trkpt lat="49.27911" lon="-0.24767">
        <ele>5.3</ele>
        <time>2020-12-20T09:07:59Z</time>
      </trkpt>
      <trkpt lat="49.2791" lon="-0.24767">
        <ele>5.3</ele>
        <time>2020-12-20T09:08:00Z</time>
      </trkpt>
      <trkpt lat="49.27908" lon="-0.24768">
        <ele>5.3</ele>
        <time>2020-12-20T09:08:01Z</time>
      </trkpt>
      <trkpt lat="49.27905" lon="-0.24768">
        <ele>5.3</ele>
        <time>2020-12-20T09:08:03Z</time>
      </trkpt>
      <trkpt lat="49.27902" lon="-0.24763">
        <ele>5</ele>
        <time>2020-12-20T09:08:05Z</time>
      </trkpt>
      <trkpt lat="49.27901" lon="-0.24761">
        <ele>5</ele>
        <time>2020-12-20T09:08:06Z</time>
      </trkpt>
      <trkpt lat="49.279" lon="-0.24759">
        <ele>5</ele>
        <time>2020-12-20T09:08:07Z</time>
      </trkpt>
      <trkpt lat="49.27898" lon="-0.24755">
        <ele>4.9</ele>
        <time>2020-12-20T09:08:09Z</time>
      </trkpt>
      <trkpt lat="49.27898" lon="-0.24754">
        <ele>4.9</ele>
        <time>2020-12-20T09:08:10Z</time>
      </trkpt>
      <trkpt lat="49.27896" lon="-0.2475">
        <ele>4.8</ele>
        <time>2020-12-20T09:08:12Z</time>
      </trkpt>
      <trkpt lat="49.27895" lon="-0.24748">
        <ele>4.8</ele>
        <time>2020-12-20T09:08:13Z</time>
      </trkpt>
      <trkpt lat="49.27894" lon="-0.24744">
        <ele>4.7</ele>
        <time>2020-12-20T09:08:15Z</time>
      </trkpt>
      <trkpt lat="49.27893" lon="-0.24741">
        <ele>4.7</ele>
        <time>2020-12-20T09:08:16Z</time>
      </trkpt>
      <trkpt lat="49.27893" lon="-0.24739">
        <ele>4.6</ele>
        <time>2020-12-20T09:08:18Z</time>
      </trkpt>
      <trkpt lat="49.27892" lon="-0.24734">
        <ele>4.6</ele>
        <time>2020-12-20T09:08:19Z</time>
      </trkpt>
      <trkpt lat="49.27891" lon="-0.24728">
        <ele>4.5</ele>
        <time>2020-12-20T09:08:21Z</time>
      </trkpt>
      <trkpt lat="49.27891" lon="-0.24723">
        <ele>4.5</ele>
        <time>2020-12-20T09:08:23Z</time>
      </trkpt>
      <trkpt lat="49.27891" lon="-0.24718">
        <ele>4.4</ele>
        <time>2020-12-20T09:08:24Z</time>
      </trkpt>
      <trkpt lat="49.27891" lon="-0.24712">
        <ele>4.4</ele>
        <time>2020-12-20T09:08:26Z</time>
      </trkpt>
      <trkpt lat="49.27891" lon="-0.24707">
        <ele>4.3</ele>
        <time>2020-12-20T09:08:27Z</time>
      </trkpt>
      <trkpt lat="49.27891" lon="-0.24703">
        <ele>4.3</ele>
        <time>2020-12-20T09:08:29Z</time>
      </trkpt>
      <trkpt lat="49.2789" lon="-0.24698">
        <ele>4.3</ele>
        <time>2020-12-20T09:08:30Z</time>
      </trkpt>
      <trkpt lat="49.2789" lon="-0.24693">
        <ele>4.2</ele>
        <time>2020-12-20T09:08:32Z</time>
      </trkpt>
      <trkpt lat="49.2789" lon="-0.24688">
        <ele>4.2</ele>
        <time>2020-12-20T09:08:33Z</time>
      </trkpt>
      <trkpt lat="49.27889" lon="-0.24683">
        <ele>4.2</ele>
        <time>2020-12-20T09:08:35Z</time>
      </trkpt>
      <trkpt lat="49.27889" lon="-0.24679">
        <ele>4.2</ele>
        <time>2020-12-20T09:08:37Z</time>
      </trkpt>
      <trkpt lat="49.27888" lon="-0.24675">
        <ele>4.2</ele>
        <time>2020-12-20T09:08:38Z</time>
      </trkpt>
      <trkpt lat="49.27888" lon="-0.24671">
        <ele>4.1</ele>
        <time>2020-12-20T09:08:40Z</time>
      </trkpt>
      <trkpt lat="49.27887" lon="-0.24666">
        <ele>4.1</ele>
        <time>2020-12-20T09:08:41Z</time>
      </trkpt>
      <trkpt lat="49.27886" lon="-0.2466">
        <ele>4.1</ele>
        <time>2020-12-20T09:08:43Z</time>
      </trkpt>
      <trkpt lat="49.27886" lon="-0.24658">
        <ele>4.1</ele>
        <time>2020-12-20T09:08:44Z</time>
      </trkpt>
      <trkpt lat="49.27886" lon="-0.24654">
        <ele>4.1</ele>
        <time>2020-12-20T09:08:45Z</time>
      </trkpt>
      <trkpt lat="49.27885" lon="-0.24649">
        <ele>4.1</ele>
        <time>2020-12-20T09:08:47Z</time>
      </trkpt>
      <trkpt lat="49.27884" lon="-0.24647">
        <ele>4.1</ele>
        <time>2020-12-20T09:08:48Z</time>
      </trkpt>
      <trkpt lat="49.27883" lon="-0.24642">
        <ele>4.1</ele>
        <time>2020-12-20T09:08:49Z</time>
      </trkpt>
      <trkpt lat="49.27883" lon="-0.2464">
        <ele>4.1</ele>
        <time>2020-12-20T09:08:50Z</time>
      </trkpt>
      <trkpt lat="49.27882" lon="-0.24635">
        <ele>4.1</ele>
        <time>2020-12-20T09:08:52Z</time>
      </trkpt>
      <trkpt lat="49.27881" lon="-0.2463">
        <ele>4.1</ele>
        <time>2020-12-20T09:08:53Z</time>
      </trkpt>
      <trkpt lat="49.27881" lon="-0.24629">
        <ele>4.1</ele>
        <time>2020-12-20T09:08:54Z</time>
      </trkpt>
      <trkpt lat="49.27881" lon="-0.24623">
        <ele>4</ele>
        <time>2020-12-20T09:08:56Z</time>
      </trkpt>
      <trkpt lat="49.2788" lon="-0.24622">
        <ele>4</ele>
        <time>2020-12-20T09:08:57Z</time>
      </trkpt>
      <trkpt lat="49.2788" lon="-0.24616">
        <ele>4</ele>
        <time>2020-12-20T09:08:59Z</time>
      </trkpt>
      <trkpt lat="49.27879" lon="-0.24613">
        <ele>4</ele>
        <time>2020-12-20T09:09:00Z</time>
      </trkpt>
      <trkpt lat="49.27879" lon="-0.24607">
        <ele>4</ele>
        <time>2020-12-20T09:09:02Z</time>
      </trkpt>
      <trkpt lat="49.27878" lon="-0.24603">
        <ele>3.9</ele>
        <time>2020-12-20T09:09:04Z</time>
      </trkpt>
      <trkpt lat="49.27877" lon="-0.24599">
        <ele>3.9</ele>
        <time>2020-12-20T09:09:05Z</time>
      </trkpt>
      <trkpt lat="49.27877" lon="-0.24596">
        <ele>3.9</ele>
        <time>2020-12-20T09:09:07Z</time>
      </trkpt>
      <trkpt lat="49.27877" lon="-0.24592">
        <ele>3.9</ele>
        <time>2020-12-20T09:09:08Z</time>
      </trkpt>
      <trkpt lat="49.27877" lon="-0.24587">
        <ele>3.9</ele>
        <time>2020-12-20T09:09:10Z</time>
      </trkpt>
      <trkpt lat="49.27877" lon="-0.24583">
        <ele>3.9</ele>
        <time>2020-12-20T09:09:11Z</time>
      </trkpt>
      <trkpt lat="49.27876" lon="-0.24577">
        <ele>3.9</ele>
        <time>2020-12-20T09:09:13Z</time>
      </trkpt>
      <trkpt lat="49.27876" lon="-0.24575">
        <ele>3.9</ele>
        <time>2020-12-20T09:09:14Z</time>
      </trkpt>
      <trkpt lat="49.27875" lon="-0.2457">
        <ele>3.9</ele>
        <time>2020-12-20T09:09:16Z</time>
      </trkpt>
      <trkpt lat="49.27874" lon="-0.24566">
        <ele>3.9</ele>
        <time>2020-12-20T09:09:17Z</time>
      </trkpt>
      <trkpt lat="49.27873" lon="-0.24562">
        <ele>3.9</ele>
        <time>2020-12-20T09:09:18Z</time>
      </trkpt>
      <trkpt lat="49.27872" lon="-0.24556">
        <ele>3.9</ele>
        <time>2020-12-20T09:09:20Z</time>
      </trkpt>
      <trkpt lat="49.27871" lon="-0.24551">
        <ele>3.8</ele>
        <time>2020-12-20T09:09:21Z</time>
      </trkpt>
      <trkpt lat="49.27871" lon="-0.24545">
        <ele>3.8</ele>
        <time>2020-12-20T09:09:23Z</time>
      </trkpt>
      <trkpt lat="49.27871" lon="-0.24543">
        <ele>3.8</ele>
        <time>2020-12-20T09:09:24Z</time>
      </trkpt>
      <trkpt lat="49.2787" lon="-0.24537">
        <ele>3.8</ele>
        <time>2020-12-20T09:09:25Z</time>
      </trkpt>
      <trkpt lat="49.27869" lon="-0.24529">
        <ele>3.8</ele>
        <time>2020-12-20T09:09:27Z</time>
      </trkpt>
      <trkpt lat="49.27869" lon="-0.24527">
        <ele>3.8</ele>
        <time>2020-12-20T09:09:28Z</time>
      </trkpt>
      <trkpt lat="49.27868" lon="-0.24525">
        <ele>3.8</ele>
        <time>2020-12-20T09:09:29Z</time>
      </trkpt>
      <trkpt lat="49.27868" lon="-0.2452">
        <ele>3.8</ele>
        <time>2020-12-20T09:09:31Z</time>
      </trkpt>
      <trkpt lat="49.27867" lon="-0.24516">
        <ele>3.8</ele>
        <time>2020-12-20T09:09:32Z</time>
      </trkpt>
      <trkpt lat="49.27867" lon="-0.24511">
        <ele>3.8</ele>
        <time>2020-12-20T09:09:34Z</time>
      </trkpt>
      <trkpt lat="49.27867" lon="-0.24507">
        <ele>3.8</ele>
        <time>2020-12-20T09:09:35Z</time>
      </trkpt>
      <trkpt lat="49.27866" lon="-0.24501">
        <ele>3.8</ele>
        <time>2020-12-20T09:09:36Z</time>
      </trkpt>
      <trkpt lat="49.27865" lon="-0.24499">
        <ele>3.8</ele>
        <time>2020-12-20T09:09:37Z</time>
      </trkpt>
      <trkpt lat="49.27864" lon="-0.24497">
        <ele>3.8</ele>
        <time>2020-12-20T09:09:38Z</time>
      </trkpt>
      <trkpt lat="49.27863" lon="-0.24494">
        <ele>3.8</ele>
        <time>2020-12-20T09:09:40Z</time>
      </trkpt>
      <trkpt lat="49.27862" lon="-0.2449">
        <ele>3.8</ele>
        <time>2020-12-20T09:09:41Z</time>
      </trkpt>
      <trkpt lat="49.27861" lon="-0.24486">
        <ele>3.8</ele>
        <time>2020-12-20T09:09:43Z</time>
      </trkpt>
      <trkpt lat="49.27859" lon="-0.24482">
        <ele>3.8</ele>
        <time>2020-12-20T09:09:44Z</time>
      </trkpt>
      <trkpt lat="49.27859" lon="-0.2448">
        <ele>3.8</ele>
        <time>2020-12-20T09:09:45Z</time>
      </trkpt>
      <trkpt lat="49.27857" lon="-0.24474">
        <ele>3.8</ele>
        <time>2020-12-20T09:09:47Z</time>
      </trkpt>
      <trkpt lat="49.27856" lon="-0.24472">
        <ele>3.8</ele>
        <time>2020-12-20T09:09:48Z</time>
      </trkpt>
      <trkpt lat="49.27856" lon="-0.24469">
        <ele>3.8</ele>
        <time>2020-12-20T09:09:49Z</time>
      </trkpt>
      <trkpt lat="49.27854" lon="-0.24464">
        <ele>3.8</ele>
        <time>2020-12-20T09:09:50Z</time>
      </trkpt>
      <trkpt lat="49.27853" lon="-0.24461">
        <ele>3.8</ele>
        <time>2020-12-20T09:09:51Z</time>
      </trkpt>
      <trkpt lat="49.27852" lon="-0.24457">
        <ele>3.8</ele>
        <time>2020-12-20T09:09:52Z</time>
      </trkpt>
      <trkpt lat="49.27852" lon="-0.24455">
        <ele>3.8</ele>
        <time>2020-12-20T09:09:54Z</time>
      </trkpt>
      <trkpt lat="49.27851" lon="-0.24453">
        <ele>3.8</ele>
        <time>2020-12-20T09:09:55Z</time>
      </trkpt>
      <trkpt lat="49.27851" lon="-0.2445">
        <ele>3.8</ele>
        <time>2020-12-20T09:09:56Z</time>
      </trkpt>
      <trkpt lat="49.2785" lon="-0.24446">
        <ele>3.8</ele>
        <time>2020-12-20T09:09:58Z</time>
      </trkpt>
      <trkpt lat="49.2785" lon="-0.24441">
        <ele>3.8</ele>
        <time>2020-12-20T09:09:59Z</time>
      </trkpt>
      <trkpt lat="49.2785" lon="-0.24437">
        <ele>3.8</ele>
        <time>2020-12-20T09:10:00Z</time>
      </trkpt>
      <trkpt lat="49.27849" lon="-0.24434">
        <ele>3.8</ele>
        <time>2020-12-20T09:10:01Z</time>
      </trkpt>
      <trkpt lat="49.27849" lon="-0.24432">
        <ele>3.8</ele>
        <time>2020-12-20T09:10:02Z</time>
      </trkpt>
      <trkpt lat="49.27849" lon="-0.24424">
        <ele>3.8</ele>
        <time>2020-12-20T09:10:04Z</time>
      </trkpt>
      <trkpt lat="49.27848" lon="-0.24422">
        <ele>3.8</ele>
        <time>2020-12-20T09:10:06Z</time>
      </trkpt>
      <trkpt lat="49.27848" lon="-0.24419">
        <ele>3.8</ele>
        <time>2020-12-20T09:10:07Z</time>
      </trkpt>
      <trkpt lat="49.27848" lon="-0.24415">
        <ele>3.8</ele>
        <time>2020-12-20T09:10:08Z</time>
      </trkpt>
      <trkpt lat="49.27848" lon="-0.2441">
        <ele>3.8</ele>
        <time>2020-12-20T09:10:09Z</time>
      </trkpt>
      <trkpt lat="49.27847" lon="-0.24406">
        <ele>3.8</ele>
        <time>2020-12-20T09:10:11Z</time>
      </trkpt>
      <trkpt lat="49.27847" lon="-0.24403">
        <ele>3.8</ele>
        <time>2020-12-20T09:10:12Z</time>
      </trkpt>
      <trkpt lat="49.27846" lon="-0.24399">
        <ele>3.7</ele>
        <time>2020-12-20T09:10:14Z</time>
      </trkpt>
      <trkpt lat="49.27846" lon="-0.24396">
        <ele>3.7</ele>
        <time>2020-12-20T09:10:15Z</time>
      </trkpt>
      <trkpt lat="49.27845" lon="-0.24394">
        <ele>3.7</ele>
        <time>2020-12-20T09:10:16Z</time>
      </trkpt>
      <trkpt lat="49.27846" lon="-0.24392">
        <ele>3.7</ele>
        <time>2020-12-20T09:10:17Z</time>
      </trkpt>
      <trkpt lat="49.27846" lon="-0.24391">
        <ele>3.7</ele>
        <time>2020-12-20T09:10:19Z</time>
      </trkpt>
      <trkpt lat="49.27846" lon="-0.24389">
        <ele>3.7</ele>
        <time>2020-12-20T09:10:20Z</time>
      </trkpt>
      <trkpt lat="49.27846" lon="-0.24386">
        <ele>3.7</ele>
        <time>2020-12-20T09:10:21Z</time>
      </trkpt>
      <trkpt lat="49.27846" lon="-0.24384">
        <ele>3.7</ele>
        <time>2020-12-20T09:10:22Z</time>
      </trkpt>
      <trkpt lat="49.27847" lon="-0.24382">
        <ele>3.7</ele>
        <time>2020-12-20T09:10:24Z</time>
      </trkpt>
      <trkpt lat="49.27847" lon="-0.2438">
        <ele>3.7</ele>
        <time>2020-12-20T09:10:26Z</time>
      </trkpt>
      <trkpt lat="49.27847" lon="-0.24377">
        <ele>3.7</ele>
        <time>2020-12-20T09:10:27Z</time>
      </trkpt>
      <trkpt lat="49.27847" lon="-0.24372">
        <ele>3.7</ele>
        <time>2020-12-20T09:10:29Z</time>
      </trkpt>
      <trkpt lat="49.27847" lon="-0.24367">
        <ele>3.7</ele>
        <time>2020-12-20T09:10:31Z</time>
      </trkpt>
      <trkpt lat="49.27846" lon="-0.24362">
        <ele>3.7</ele>
        <time>2020-12-20T09:10:33Z</time>
      </trkpt>
      <trkpt lat="49.27845" lon="-0.24357">
        <ele>3.7</ele>
        <time>2020-12-20T09:10:34Z</time>
      </trkpt>
      <trkpt lat="49.27845" lon="-0.24351">
        <ele>3.7</ele>
        <time>2020-12-20T09:10:36Z</time>
      </trkpt>
      <trkpt lat="49.27844" lon="-0.24346">
        <ele>3.7</ele>
        <time>2020-12-20T09:10:38Z</time>
      </trkpt>
      <trkpt lat="49.27843" lon="-0.2434">
        <ele>3.7</ele>
        <time>2020-12-20T09:10:39Z</time>
      </trkpt>
      <trkpt lat="49.27842" lon="-0.24335">
        <ele>3.7</ele>
        <time>2020-12-20T09:10:40Z</time>
      </trkpt>
      <trkpt lat="49.27842" lon="-0.2433">
        <ele>3.7</ele>
        <time>2020-12-20T09:10:42Z</time>
      </trkpt>
      <trkpt lat="49.27841" lon="-0.24325">
        <ele>3.7</ele>
        <time>2020-12-20T09:10:43Z</time>
      </trkpt>
      <trkpt lat="49.2784" lon="-0.24321">
        <ele>3.7</ele>
        <time>2020-12-20T09:10:44Z</time>
      </trkpt>
      <trkpt lat="49.27839" lon="-0.24316">
        <ele>3.7</ele>
        <time>2020-12-20T09:10:45Z</time>
      </trkpt>
      <trkpt lat="49.27838" lon="-0.24312">
        <ele>3.7</ele>
        <time>2020-12-20T09:10:46Z</time>
      </trkpt>
      <trkpt lat="49.27837" lon="-0.24306">
        <ele>3.6</ele>
        <time>2020-12-20T09:10:48Z</time>
      </trkpt>
      <trkpt lat="49.27836" lon="-0.24302">
        <ele>3.6</ele>
        <time>2020-12-20T09:10:50Z</time>
      </trkpt>
      <trkpt lat="49.27835" lon="-0.24297">
        <ele>3.6</ele>
        <time>2020-12-20T09:10:51Z</time>
      </trkpt>
      <trkpt lat="49.27833" lon="-0.24291">
        <ele>3.6</ele>
        <time>2020-12-20T09:10:53Z</time>
      </trkpt>
      <trkpt lat="49.27832" lon="-0.24288">
        <ele>3.6</ele>
        <time>2020-12-20T09:10:54Z</time>
      </trkpt>
      <trkpt lat="49.27831" lon="-0.24283">
        <ele>3.6</ele>
        <time>2020-12-20T09:10:56Z</time>
      </trkpt>
      <trkpt lat="49.2783" lon="-0.24278">
        <ele>3.6</ele>
        <time>2020-12-20T09:10:58Z</time>
      </trkpt>
      <trkpt lat="49.27829" lon="-0.24274">
        <ele>3.6</ele>
        <time>2020-12-20T09:10:59Z</time>
      </trkpt>
      <trkpt lat="49.27828" lon="-0.24272">
        <ele>3.6</ele>
        <time>2020-12-20T09:11:00Z</time>
      </trkpt>
      <trkpt lat="49.27827" lon="-0.24267">
        <ele>3.7</ele>
        <time>2020-12-20T09:11:02Z</time>
      </trkpt>
      <trkpt lat="49.27826" lon="-0.24263">
        <ele>3.7</ele>
        <time>2020-12-20T09:11:03Z</time>
      </trkpt>
      <trkpt lat="49.27826" lon="-0.24259">
        <ele>3.7</ele>
        <time>2020-12-20T09:11:05Z</time>
      </trkpt>
      <trkpt lat="49.27825" lon="-0.24254">
        <ele>3.7</ele>
        <time>2020-12-20T09:11:06Z</time>
      </trkpt>
      <trkpt lat="49.27824" lon="-0.24249">
        <ele>3.7</ele>
        <time>2020-12-20T09:11:08Z</time>
      </trkpt>
      <trkpt lat="49.27824" lon="-0.24244">
        <ele>3.7</ele>
        <time>2020-12-20T09:11:09Z</time>
      </trkpt>
      <trkpt lat="49.27823" lon="-0.24238">
        <ele>3.7</ele>
        <time>2020-12-20T09:11:11Z</time>
      </trkpt>
      <trkpt lat="49.27822" lon="-0.24234">
        <ele>3.7</ele>
        <time>2020-12-20T09:11:12Z</time>
      </trkpt>
      <trkpt lat="49.27822" lon="-0.2423">
        <ele>3.7</ele>
        <time>2020-12-20T09:11:13Z</time>
      </trkpt>
      <trkpt lat="49.27821" lon="-0.24225">
        <ele>3.7</ele>
        <time>2020-12-20T09:11:15Z</time>
      </trkpt>
      <trkpt lat="49.27821" lon="-0.2422">
        <ele>3.7</ele>
        <time>2020-12-20T09:11:16Z</time>
      </trkpt>
      <trkpt lat="49.27821" lon="-0.24218">
        <ele>3.7</ele>
        <time>2020-12-20T09:11:17Z</time>
      </trkpt>
      <trkpt lat="49.2782" lon="-0.24214">
        <ele>3.8</ele>
        <time>2020-12-20T09:11:19Z</time>
      </trkpt>
      <trkpt lat="49.2782" lon="-0.24213">
        <ele>3.8</ele>
        <time>2020-12-20T09:11:20Z</time>
      </trkpt>
      <trkpt lat="49.27819" lon="-0.24208">
        <ele>3.8</ele>
        <time>2020-12-20T09:11:21Z</time>
      </trkpt>
      <trkpt lat="49.27819" lon="-0.24203">
        <ele>3.8</ele>
        <time>2020-12-20T09:11:22Z</time>
      </trkpt>
      <trkpt lat="49.27817" lon="-0.24197">
        <ele>3.9</ele>
        <time>2020-12-20T09:11:24Z</time>
      </trkpt>
      <trkpt lat="49.27816" lon="-0.24194">
        <ele>4</ele>
        <time>2020-12-20T09:11:25Z</time>
      </trkpt>
      <trkpt lat="49.27816" lon="-0.2419">
        <ele>4.1</ele>
        <time>2020-12-20T09:11:27Z</time>
      </trkpt>
      <trkpt lat="49.27815" lon="-0.24187">
        <ele>4.2</ele>
        <time>2020-12-20T09:11:28Z</time>
      </trkpt>
      <trkpt lat="49.27813" lon="-0.24184">
        <ele>4.3</ele>
        <time>2020-12-20T09:11:30Z</time>
      </trkpt>
      <trkpt lat="49.27812" lon="-0.24181">
        <ele>4.3</ele>
        <time>2020-12-20T09:11:31Z</time>
      </trkpt>
      <trkpt lat="49.27811" lon="-0.24178">
        <ele>4.3</ele>
        <time>2020-12-20T09:11:33Z</time>
      </trkpt>
      <trkpt lat="49.2781" lon="-0.24176">
        <ele>4.3</ele>
        <time>2020-12-20T09:11:34Z</time>
      </trkpt>
      <trkpt lat="49.27811" lon="-0.24173">
        <ele>4.3</ele>
        <time>2020-12-20T09:11:35Z</time>
      </trkpt>
      <trkpt lat="49.27811" lon="-0.24172">
        <ele>4.3</ele>
        <time>2020-12-20T09:11:37Z</time>
      </trkpt>
      <trkpt lat="49.27812" lon="-0.24171">
        <ele>4.3</ele>
        <time>2020-12-20T09:11:38Z</time>
      </trkpt>
      <trkpt lat="49.27812" lon="-0.24169">
        <ele>4.3</ele>
        <time>2020-12-20T09:11:39Z</time>
      </trkpt>
      <trkpt lat="49.27812" lon="-0.24168">
        <ele>4.3</ele>
        <time>2020-12-20T09:11:40Z</time>
      </trkpt>
      <trkpt lat="49.27812" lon="-0.24164">
        <ele>4.3</ele>
        <time>2020-12-20T09:11:42Z</time>
      </trkpt>
      <trkpt lat="49.27812" lon="-0.24161">
        <ele>4.3</ele>
        <time>2020-12-20T09:11:44Z</time>
      </trkpt>
      <trkpt lat="49.27812" lon="-0.24158">
        <ele>4.3</ele>
        <time>2020-12-20T09:11:45Z</time>
      </trkpt>
      <trkpt lat="49.27811" lon="-0.24154">
        <ele>4.3</ele>
        <time>2020-12-20T09:11:47Z</time>
      </trkpt>
      <trkpt lat="49.27811" lon="-0.24149">
        <ele>4.3</ele>
        <time>2020-12-20T09:11:48Z</time>
      </trkpt>
      <trkpt lat="49.27811" lon="-0.24148">
        <ele>4.3</ele>
        <time>2020-12-20T09:11:49Z</time>
      </trkpt>
      <trkpt lat="49.27811" lon="-0.24143">
        <ele>4.3</ele>
        <time>2020-12-20T09:11:51Z</time>
      </trkpt>
      <trkpt lat="49.27811" lon="-0.24142">
        <ele>4.3</ele>
        <time>2020-12-20T09:11:52Z</time>
      </trkpt>
      <trkpt lat="49.27811" lon="-0.24137">
        <ele>4.3</ele>
        <time>2020-12-20T09:11:53Z</time>
      </trkpt>
      <trkpt lat="49.27811" lon="-0.24136">
        <ele>4.3</ele>
        <time>2020-12-20T09:11:54Z</time>
      </trkpt>
      <trkpt lat="49.27811" lon="-0.24131">
        <ele>4.2</ele>
        <time>2020-12-20T09:11:56Z</time>
      </trkpt>
      <trkpt lat="49.2781" lon="-0.24129">
        <ele>4.2</ele>
        <time>2020-12-20T09:11:57Z</time>
      </trkpt>
      <trkpt lat="49.2781" lon="-0.24125">
        <ele>4.2</ele>
        <time>2020-12-20T09:11:58Z</time>
      </trkpt>
      <trkpt lat="49.27809" lon="-0.24121">
        <ele>4.2</ele>
        <time>2020-12-20T09:11:59Z</time>
      </trkpt>
      <trkpt lat="49.27808" lon="-0.24118">
        <ele>4.2</ele>
        <time>2020-12-20T09:12:00Z</time>
      </trkpt>
      <trkpt lat="49.27807" lon="-0.24112">
        <ele>4.2</ele>
        <time>2020-12-20T09:12:02Z</time>
      </trkpt>
      <trkpt lat="49.27806" lon="-0.24107">
        <ele>4.2</ele>
        <time>2020-12-20T09:12:04Z</time>
      </trkpt>
      <trkpt lat="49.27805" lon="-0.24103">
        <ele>4.2</ele>
        <time>2020-12-20T09:12:05Z</time>
      </trkpt>
      <trkpt lat="49.27804" lon="-0.24098">
        <ele>4.2</ele>
        <time>2020-12-20T09:12:07Z</time>
      </trkpt>
      <trkpt lat="49.27803" lon="-0.24092">
        <ele>4.2</ele>
        <time>2020-12-20T09:12:09Z</time>
      </trkpt>
      <trkpt lat="49.27802" lon="-0.24088">
        <ele>4.2</ele>
        <time>2020-12-20T09:12:10Z</time>
      </trkpt>
      <trkpt lat="49.27801" lon="-0.24083">
        <ele>4.2</ele>
        <time>2020-12-20T09:12:12Z</time>
      </trkpt>
      <trkpt lat="49.278" lon="-0.24078">
        <ele>4.2</ele>
        <time>2020-12-20T09:12:13Z</time>
      </trkpt>
      <trkpt lat="49.27799" lon="-0.24073">
        <ele>4.2</ele>
        <time>2020-12-20T09:12:15Z</time>
      </trkpt>
      <trkpt lat="49.27799" lon="-0.24071">
        <ele>4.2</ele>
        <time>2020-12-20T09:12:16Z</time>
      </trkpt>
      <trkpt lat="49.27799" lon="-0.24067">
        <ele>4.2</ele>
        <time>2020-12-20T09:12:17Z</time>
      </trkpt>
      <trkpt lat="49.27799" lon="-0.24062">
        <ele>4.2</ele>
        <time>2020-12-20T09:12:18Z</time>
      </trkpt>
      <trkpt lat="49.27799" lon="-0.24059">
        <ele>4.1</ele>
        <time>2020-12-20T09:12:19Z</time>
      </trkpt>
      <trkpt lat="49.27798" lon="-0.24056">
        <ele>4.1</ele>
        <time>2020-12-20T09:12:21Z</time>
      </trkpt>
      <trkpt lat="49.27798" lon="-0.24051">
        <ele>4.1</ele>
        <time>2020-12-20T09:12:22Z</time>
      </trkpt>
      <trkpt lat="49.27797" lon="-0.24047">
        <ele>4.1</ele>
        <time>2020-12-20T09:12:23Z</time>
      </trkpt>
      <trkpt lat="49.27797" lon="-0.24041">
        <ele>4.1</ele>
        <time>2020-12-20T09:12:25Z</time>
      </trkpt>
      <trkpt lat="49.27796" lon="-0.24036">
        <ele>4.1</ele>
        <time>2020-12-20T09:12:27Z</time>
      </trkpt>
      <trkpt lat="49.27795" lon="-0.2403">
        <ele>4.1</ele>
        <time>2020-12-20T09:12:28Z</time>
      </trkpt>
      <trkpt lat="49.27795" lon="-0.24023">
        <ele>4.1</ele>
        <time>2020-12-20T09:12:30Z</time>
      </trkpt>
      <trkpt lat="49.27794" lon="-0.24017">
        <ele>4.1</ele>
        <time>2020-12-20T09:12:32Z</time>
      </trkpt>
      <trkpt lat="49.27794" lon="-0.24015">
        <ele>4.1</ele>
        <time>2020-12-20T09:12:33Z</time>
      </trkpt>
      <trkpt lat="49.27793" lon="-0.2401">
        <ele>4.1</ele>
        <time>2020-12-20T09:12:34Z</time>
      </trkpt>
      <trkpt lat="49.27793" lon="-0.24008">
        <ele>4.1</ele>
        <time>2020-12-20T09:12:35Z</time>
      </trkpt>
      <trkpt lat="49.27793" lon="-0.24005">
        <ele>4.1</ele>
        <time>2020-12-20T09:12:36Z</time>
      </trkpt>
      <trkpt lat="49.27792" lon="-0.24001">
        <ele>4.1</ele>
        <time>2020-12-20T09:12:38Z</time>
      </trkpt>
      <trkpt lat="49.27792" lon="-0.23997">
        <ele>4.1</ele>
        <time>2020-12-20T09:12:39Z</time>
      </trkpt>
      <trkpt lat="49.27791" lon="-0.23992">
        <ele>4.1</ele>
        <time>2020-12-20T09:12:41Z</time>
      </trkpt>
      <trkpt lat="49.27791" lon="-0.23987">
        <ele>4.1</ele>
        <time>2020-12-20T09:12:42Z</time>
      </trkpt>
      <trkpt lat="49.2779" lon="-0.23982">
        <ele>4.1</ele>
        <time>2020-12-20T09:12:44Z</time>
      </trkpt>
      <trkpt lat="49.27789" lon="-0.2398">
        <ele>4.1</ele>
        <time>2020-12-20T09:12:45Z</time>
      </trkpt>
      <trkpt lat="49.27789" lon="-0.23975">
        <ele>4.1</ele>
        <time>2020-12-20T09:12:46Z</time>
      </trkpt>
      <trkpt lat="49.27788" lon="-0.23973">
        <ele>4.1</ele>
        <time>2020-12-20T09:12:47Z</time>
      </trkpt>
      <trkpt lat="49.27788" lon="-0.2397">
        <ele>4.1</ele>
        <time>2020-12-20T09:12:48Z</time>
      </trkpt>
      <trkpt lat="49.27787" lon="-0.23967">
        <ele>4.1</ele>
        <time>2020-12-20T09:12:50Z</time>
      </trkpt>
      <trkpt lat="49.27786" lon="-0.23962">
        <ele>4.1</ele>
        <time>2020-12-20T09:12:51Z</time>
      </trkpt>
      <trkpt lat="49.27786" lon="-0.23959">
        <ele>4.1</ele>
        <time>2020-12-20T09:12:52Z</time>
      </trkpt>
      <trkpt lat="49.27785" lon="-0.23954">
        <ele>4.1</ele>
        <time>2020-12-20T09:12:54Z</time>
      </trkpt>
      <trkpt lat="49.27784" lon="-0.23951">
        <ele>4.1</ele>
        <time>2020-12-20T09:12:55Z</time>
      </trkpt>
      <trkpt lat="49.27784" lon="-0.23948">
        <ele>4.1</ele>
        <time>2020-12-20T09:12:57Z</time>
      </trkpt>
      <trkpt lat="49.27783" lon="-0.23944">
        <ele>4.1</ele>
        <time>2020-12-20T09:12:58Z</time>
      </trkpt>
      <trkpt lat="49.27783" lon="-0.23942">
        <ele>4.1</ele>
        <time>2020-12-20T09:12:59Z</time>
      </trkpt>
      <trkpt lat="49.27783" lon="-0.23938">
        <ele>4.1</ele>
        <time>2020-12-20T09:13:00Z</time>
      </trkpt>
      <trkpt lat="49.27782" lon="-0.23932">
        <ele>4.1</ele>
        <time>2020-12-20T09:13:02Z</time>
      </trkpt>
      <trkpt lat="49.27781" lon="-0.23928">
        <ele>4.1</ele>
        <time>2020-12-20T09:13:04Z</time>
      </trkpt>
      <trkpt lat="49.27781" lon="-0.23923">
        <ele>4.1</ele>
        <time>2020-12-20T09:13:05Z</time>
      </trkpt>
      <trkpt lat="49.2778" lon="-0.23919">
        <ele>4.1</ele>
        <time>2020-12-20T09:13:07Z</time>
      </trkpt>
      <trkpt lat="49.2778" lon="-0.23916">
        <ele>4.1</ele>
        <time>2020-12-20T09:13:08Z</time>
      </trkpt>
      <trkpt lat="49.27779" lon="-0.23913">
        <ele>4.1</ele>
        <time>2020-12-20T09:13:10Z</time>
      </trkpt>
      <trkpt lat="49.27779" lon="-0.23911">
        <ele>4.1</ele>
        <time>2020-12-20T09:13:11Z</time>
      </trkpt>
      <trkpt lat="49.27778" lon="-0.23908">
        <ele>4.1</ele>
        <time>2020-12-20T09:13:12Z</time>
      </trkpt>
      <trkpt lat="49.27777" lon="-0.23903">
        <ele>4.1</ele>
        <time>2020-12-20T09:13:13Z</time>
      </trkpt>
      <trkpt lat="49.27777" lon="-0.23903">
        <ele>4.1</ele>
        <time>2020-12-20T09:13:14Z</time>
      </trkpt>
      <trkpt lat="49.27777" lon="-0.239">
        <ele>4.1</ele>
        <time>2020-12-20T09:13:16Z</time>
      </trkpt>
      <trkpt lat="49.27777" lon="-0.23897">
        <ele>4.1</ele>
        <time>2020-12-20T09:13:17Z</time>
      </trkpt>
      <trkpt lat="49.27776" lon="-0.23892">
        <ele>4.1</ele>
        <time>2020-12-20T09:13:18Z</time>
      </trkpt>
      <trkpt lat="49.27776" lon="-0.2389">
        <ele>4.1</ele>
        <time>2020-12-20T09:13:19Z</time>
      </trkpt>
      <trkpt lat="49.27776" lon="-0.23884">
        <ele>4.1</ele>
        <time>2020-12-20T09:13:21Z</time>
      </trkpt>
      <trkpt lat="49.27775" lon="-0.23879">
        <ele>4.1</ele>
        <time>2020-12-20T09:13:23Z</time>
      </trkpt>
      <trkpt lat="49.27774" lon="-0.23874">
        <ele>4.1</ele>
        <time>2020-12-20T09:13:24Z</time>
      </trkpt>
      <trkpt lat="49.27774" lon="-0.23868">
        <ele>4.1</ele>
        <time>2020-12-20T09:13:26Z</time>
      </trkpt>
      <trkpt lat="49.27773" lon="-0.23862">
        <ele>4.1</ele>
        <time>2020-12-20T09:13:27Z</time>
      </trkpt>
      <trkpt lat="49.27773" lon="-0.23856">
        <ele>4.1</ele>
        <time>2020-12-20T09:13:29Z</time>
      </trkpt>
      <trkpt lat="49.27772" lon="-0.23853">
        <ele>4.1</ele>
        <time>2020-12-20T09:13:30Z</time>
      </trkpt>
      <trkpt lat="49.27772" lon="-0.23848">
        <ele>4.1</ele>
        <time>2020-12-20T09:13:31Z</time>
      </trkpt>
      <trkpt lat="49.27771" lon="-0.23844">
        <ele>4.1</ele>
        <time>2020-12-20T09:13:32Z</time>
      </trkpt>
      <trkpt lat="49.27771" lon="-0.23842">
        <ele>4.1</ele>
        <time>2020-12-20T09:13:33Z</time>
      </trkpt>
      <trkpt lat="49.27771" lon="-0.23837">
        <ele>4.1</ele>
        <time>2020-12-20T09:13:35Z</time>
      </trkpt>
      <trkpt lat="49.27771" lon="-0.23834">
        <ele>4.1</ele>
        <time>2020-12-20T09:13:36Z</time>
      </trkpt>
      <trkpt lat="49.2777" lon="-0.2383">
        <ele>4.1</ele>
        <time>2020-12-20T09:13:38Z</time>
      </trkpt>
      <trkpt lat="49.2777" lon="-0.23825">
        <ele>4.1</ele>
        <time>2020-12-20T09:13:40Z</time>
      </trkpt>
      <trkpt lat="49.2777" lon="-0.2382">
        <ele>4.1</ele>
        <time>2020-12-20T09:13:41Z</time>
      </trkpt>
      <trkpt lat="49.27769" lon="-0.23815">
        <ele>4</ele>
        <time>2020-12-20T09:13:43Z</time>
      </trkpt>
      <trkpt lat="49.27769" lon="-0.23806">
        <ele>4</ele>
        <time>2020-12-20T09:13:45Z</time>
      </trkpt>
      <trkpt lat="49.27768" lon="-0.23802">
        <ele>4</ele>
        <time>2020-12-20T09:13:47Z</time>
      </trkpt>
      <trkpt lat="49.27768" lon="-0.23797">
        <ele>4</ele>
        <time>2020-12-20T09:13:48Z</time>
      </trkpt>
      <trkpt lat="49.27768" lon="-0.23796">
        <ele>4</ele>
        <time>2020-12-20T09:13:49Z</time>
      </trkpt>
      <trkpt lat="49.27767" lon="-0.23791">
        <ele>4</ele>
        <time>2020-12-20T09:13:51Z</time>
      </trkpt>
      <trkpt lat="49.27767" lon="-0.2379">
        <ele>4</ele>
        <time>2020-12-20T09:13:52Z</time>
      </trkpt>
      <trkpt lat="49.27766" lon="-0.23788">
        <ele>4</ele>
        <time>2020-12-20T09:13:54Z</time>
      </trkpt>
      <trkpt lat="49.27766" lon="-0.23785">
        <ele>4</ele>
        <time>2020-12-20T09:13:55Z</time>
      </trkpt>
      <trkpt lat="49.27765" lon="-0.23779">
        <ele>4</ele>
        <time>2020-12-20T09:13:56Z</time>
      </trkpt>
      <trkpt lat="49.27764" lon="-0.23777">
        <ele>4</ele>
        <time>2020-12-20T09:13:57Z</time>
      </trkpt>
      <trkpt lat="49.27763" lon="-0.23772">
        <ele>4</ele>
        <time>2020-12-20T09:13:59Z</time>
      </trkpt>
      <trkpt lat="49.27762" lon="-0.23765">
        <ele>4.1</ele>
        <time>2020-12-20T09:14:01Z</time>
      </trkpt>
      <trkpt lat="49.27762" lon="-0.23761">
        <ele>4.1</ele>
        <time>2020-12-20T09:14:02Z</time>
      </trkpt>
      <trkpt lat="49.27761" lon="-0.23756">
        <ele>4.1</ele>
        <time>2020-12-20T09:14:03Z</time>
      </trkpt>
      <trkpt lat="49.2776" lon="-0.23752">
        <ele>4.1</ele>
        <time>2020-12-20T09:14:04Z</time>
      </trkpt>
      <trkpt lat="49.2776" lon="-0.23749">
        <ele>4.1</ele>
        <time>2020-12-20T09:14:06Z</time>
      </trkpt>
      <trkpt lat="49.27759" lon="-0.23744">
        <ele>4.1</ele>
        <time>2020-12-20T09:14:07Z</time>
      </trkpt>
      <trkpt lat="49.27759" lon="-0.23742">
        <ele>4.1</ele>
        <time>2020-12-20T09:14:08Z</time>
      </trkpt>
      <trkpt lat="49.27759" lon="-0.23737">
        <ele>4.1</ele>
        <time>2020-12-20T09:14:09Z</time>
      </trkpt>
      <trkpt lat="49.27759" lon="-0.23735">
        <ele>4.1</ele>
        <time>2020-12-20T09:14:10Z</time>
      </trkpt>
      <trkpt lat="49.27758" lon="-0.23731">
        <ele>4.1</ele>
        <time>2020-12-20T09:14:12Z</time>
      </trkpt>
      <trkpt lat="49.27758" lon="-0.23729">
        <ele>4.1</ele>
        <time>2020-12-20T09:14:13Z</time>
      </trkpt>
      <trkpt lat="49.27758" lon="-0.23724">
        <ele>4.1</ele>
        <time>2020-12-20T09:14:14Z</time>
      </trkpt>
      <trkpt lat="49.27757" lon="-0.23722">
        <ele>4.1</ele>
        <time>2020-12-20T09:14:15Z</time>
      </trkpt>
      <trkpt lat="49.27757" lon="-0.23719">
        <ele>4.1</ele>
        <time>2020-12-20T09:14:16Z</time>
      </trkpt>
      <trkpt lat="49.27757" lon="-0.23716">
        <ele>4.1</ele>
        <time>2020-12-20T09:14:18Z</time>
      </trkpt>
      <trkpt lat="49.27757" lon="-0.23713">
        <ele>4.1</ele>
        <time>2020-12-20T09:14:19Z</time>
      </trkpt>
      <trkpt lat="49.27756" lon="-0.2371">
        <ele>4.1</ele>
        <time>2020-12-20T09:14:21Z</time>
      </trkpt>
      <trkpt lat="49.27756" lon="-0.23705">
        <ele>4.1</ele>
        <time>2020-12-20T09:14:22Z</time>
      </trkpt>
      <trkpt lat="49.27755" lon="-0.23701">
        <ele>4.1</ele>
        <time>2020-12-20T09:14:24Z</time>
      </trkpt>
      <trkpt lat="49.27755" lon="-0.23697">
        <ele>4.1</ele>
        <time>2020-12-20T09:14:25Z</time>
      </trkpt>
      <trkpt lat="49.27754" lon="-0.23692">
        <ele>4.1</ele>
        <time>2020-12-20T09:14:27Z</time>
      </trkpt>
      <trkpt lat="49.27754" lon="-0.23688">
        <ele>4.1</ele>
        <time>2020-12-20T09:14:29Z</time>
      </trkpt>
      <trkpt lat="49.27754" lon="-0.23683">
        <ele>4.1</ele>
        <time>2020-12-20T09:14:30Z</time>
      </trkpt>
      <trkpt lat="49.27753" lon="-0.23679">
        <ele>4.1</ele>
        <time>2020-12-20T09:14:32Z</time>
      </trkpt>
      <trkpt lat="49.27753" lon="-0.23675">
        <ele>4.1</ele>
        <time>2020-12-20T09:14:33Z</time>
      </trkpt>
      <trkpt lat="49.27752" lon="-0.23669">
        <ele>4.1</ele>
        <time>2020-12-20T09:14:35Z</time>
      </trkpt>
      <trkpt lat="49.27752" lon="-0.23665">
        <ele>4.1</ele>
        <time>2020-12-20T09:14:37Z</time>
      </trkpt>
      <trkpt lat="49.27751" lon="-0.2366">
        <ele>4.1</ele>
        <time>2020-12-20T09:14:38Z</time>
      </trkpt>
      <trkpt lat="49.27751" lon="-0.23657">
        <ele>4.1</ele>
        <time>2020-12-20T09:14:39Z</time>
      </trkpt>
      <trkpt lat="49.27751" lon="-0.23653">
        <ele>4.1</ele>
        <time>2020-12-20T09:14:41Z</time>
      </trkpt>
      <trkpt lat="49.2775" lon="-0.23647">
        <ele>4</ele>
        <time>2020-12-20T09:14:42Z</time>
      </trkpt>
      <trkpt lat="49.2775" lon="-0.23645">
        <ele>4</ele>
        <time>2020-12-20T09:14:43Z</time>
      </trkpt>
      <trkpt lat="49.2775" lon="-0.2364">
        <ele>4</ele>
        <time>2020-12-20T09:14:44Z</time>
      </trkpt>
      <trkpt lat="49.27749" lon="-0.23635">
        <ele>4</ele>
        <time>2020-12-20T09:14:45Z</time>
      </trkpt>
      <trkpt lat="49.27748" lon="-0.23628">
        <ele>4</ele>
        <time>2020-12-20T09:14:47Z</time>
      </trkpt>
      <trkpt lat="49.27748" lon="-0.23626">
        <ele>4</ele>
        <time>2020-12-20T09:14:48Z</time>
      </trkpt>
      <trkpt lat="49.27748" lon="-0.23623">
        <ele>4</ele>
        <time>2020-12-20T09:14:49Z</time>
      </trkpt>
      <trkpt lat="49.27748" lon="-0.23618">
        <ele>4</ele>
        <time>2020-12-20T09:14:50Z</time>
      </trkpt>
      <trkpt lat="49.27748" lon="-0.23611">
        <ele>4</ele>
        <time>2020-12-20T09:14:52Z</time>
      </trkpt>
      <trkpt lat="49.27748" lon="-0.23607">
        <ele>4</ele>
        <time>2020-12-20T09:14:54Z</time>
      </trkpt>
      <trkpt lat="49.27748" lon="-0.23603">
        <ele>4</ele>
        <time>2020-12-20T09:14:55Z</time>
      </trkpt>
      <trkpt lat="49.27748" lon="-0.23598">
        <ele>4</ele>
        <time>2020-12-20T09:14:57Z</time>
      </trkpt>
      <trkpt lat="49.27748" lon="-0.23594">
        <ele>4</ele>
        <time>2020-12-20T09:14:59Z</time>
      </trkpt>
      <trkpt lat="49.27748" lon="-0.23589">
        <ele>4</ele>
        <time>2020-12-20T09:15:00Z</time>
      </trkpt>
      <trkpt lat="49.27748" lon="-0.23586">
        <ele>4</ele>
        <time>2020-12-20T09:15:01Z</time>
      </trkpt>
      <trkpt lat="49.27748" lon="-0.2358">
        <ele>4</ele>
        <time>2020-12-20T09:15:03Z</time>
      </trkpt>
      <trkpt lat="49.27748" lon="-0.23578">
        <ele>4</ele>
        <time>2020-12-20T09:15:04Z</time>
      </trkpt>
      <trkpt lat="49.27747" lon="-0.23573">
        <ele>4</ele>
        <time>2020-12-20T09:15:06Z</time>
      </trkpt>
      <trkpt lat="49.27746" lon="-0.23567">
        <ele>4</ele>
        <time>2020-12-20T09:15:08Z</time>
      </trkpt>
      <trkpt lat="49.27746" lon="-0.23562">
        <ele>4</ele>
        <time>2020-12-20T09:15:09Z</time>
      </trkpt>
      <trkpt lat="49.27746" lon="-0.23561">
        <ele>4</ele>
        <time>2020-12-20T09:15:10Z</time>
      </trkpt>
      <trkpt lat="49.27745" lon="-0.23555">
        <ele>4</ele>
        <time>2020-12-20T09:15:12Z</time>
      </trkpt>
      <trkpt lat="49.27745" lon="-0.23553">
        <ele>4</ele>
        <time>2020-12-20T09:15:13Z</time>
      </trkpt>
      <trkpt lat="49.27744" lon="-0.2355">
        <ele>4</ele>
        <time>2020-12-20T09:15:14Z</time>
      </trkpt>
      <trkpt lat="49.27744" lon="-0.23544">
        <ele>4</ele>
        <time>2020-12-20T09:15:16Z</time>
      </trkpt>
      <trkpt lat="49.27744" lon="-0.23539">
        <ele>4</ele>
        <time>2020-12-20T09:15:17Z</time>
      </trkpt>
      <trkpt lat="49.27744" lon="-0.23534">
        <ele>4</ele>
        <time>2020-12-20T09:15:19Z</time>
      </trkpt>
      <trkpt lat="49.27744" lon="-0.2353">
        <ele>4</ele>
        <time>2020-12-20T09:15:20Z</time>
      </trkpt>
      <trkpt lat="49.27743" lon="-0.23524">
        <ele>4</ele>
        <time>2020-12-20T09:15:22Z</time>
      </trkpt>
      <trkpt lat="49.27743" lon="-0.23519">
        <ele>3.9</ele>
        <time>2020-12-20T09:15:23Z</time>
      </trkpt>
      <trkpt lat="49.27743" lon="-0.23514">
        <ele>3.9</ele>
        <time>2020-12-20T09:15:25Z</time>
      </trkpt>
      <trkpt lat="49.27743" lon="-0.23512">
        <ele>3.9</ele>
        <time>2020-12-20T09:15:26Z</time>
      </trkpt>
      <trkpt lat="49.27743" lon="-0.23507">
        <ele>3.9</ele>
        <time>2020-12-20T09:15:27Z</time>
      </trkpt>
      <trkpt lat="49.27743" lon="-0.23505">
        <ele>3.9</ele>
        <time>2020-12-20T09:15:28Z</time>
      </trkpt>
      <trkpt lat="49.27742" lon="-0.23501">
        <ele>3.9</ele>
        <time>2020-12-20T09:15:30Z</time>
      </trkpt>
      <trkpt lat="49.27742" lon="-0.23496">
        <ele>3.9</ele>
        <time>2020-12-20T09:15:32Z</time>
      </trkpt>
      <trkpt lat="49.27742" lon="-0.23492">
        <ele>3.9</ele>
        <time>2020-12-20T09:15:33Z</time>
      </trkpt>
      <trkpt lat="49.27742" lon="-0.23487">
        <ele>3.9</ele>
        <time>2020-12-20T09:15:35Z</time>
      </trkpt>
      <trkpt lat="49.27742" lon="-0.23486">
        <ele>3.9</ele>
        <time>2020-12-20T09:15:36Z</time>
      </trkpt>
      <trkpt lat="49.27742" lon="-0.23483">
        <ele>3.9</ele>
        <time>2020-12-20T09:15:37Z</time>
      </trkpt>
      <trkpt lat="49.27742" lon="-0.2348">
        <ele>3.9</ele>
        <time>2020-12-20T09:15:39Z</time>
      </trkpt>
      <trkpt lat="49.27742" lon="-0.23475">
        <ele>3.9</ele>
        <time>2020-12-20T09:15:40Z</time>
      </trkpt>
      <trkpt lat="49.27742" lon="-0.23473">
        <ele>3.9</ele>
        <time>2020-12-20T09:15:41Z</time>
      </trkpt>
      <trkpt lat="49.27742" lon="-0.23469">
        <ele>3.9</ele>
        <time>2020-12-20T09:15:42Z</time>
      </trkpt>
      <trkpt lat="49.27742" lon="-0.23463">
        <ele>3.9</ele>
        <time>2020-12-20T09:15:44Z</time>
      </trkpt>
      <trkpt lat="49.27742" lon="-0.23458">
        <ele>3.9</ele>
        <time>2020-12-20T09:15:45Z</time>
      </trkpt>
      <trkpt lat="49.27742" lon="-0.23452">
        <ele>3.9</ele>
        <time>2020-12-20T09:15:47Z</time>
      </trkpt>
      <trkpt lat="49.27742" lon="-0.23448">
        <ele>3.8</ele>
        <time>2020-12-20T09:15:48Z</time>
      </trkpt>
      <trkpt lat="49.27742" lon="-0.23443">
        <ele>3.8</ele>
        <time>2020-12-20T09:15:50Z</time>
      </trkpt>
      <trkpt lat="49.27742" lon="-0.23441">
        <ele>3.8</ele>
        <time>2020-12-20T09:15:51Z</time>
      </trkpt>
      <trkpt lat="49.27742" lon="-0.23434">
        <ele>3.8</ele>
        <time>2020-12-20T09:15:52Z</time>
      </trkpt>
      <trkpt lat="49.27742" lon="-0.23432">
        <ele>3.8</ele>
        <time>2020-12-20T09:15:53Z</time>
      </trkpt>
      <trkpt lat="49.27741" lon="-0.23425">
        <ele>3.8</ele>
        <time>2020-12-20T09:15:55Z</time>
      </trkpt>
      <trkpt lat="49.27741" lon="-0.2342">
        <ele>3.8</ele>
        <time>2020-12-20T09:15:57Z</time>
      </trkpt>
      <trkpt lat="49.27741" lon="-0.23415">
        <ele>3.8</ele>
        <time>2020-12-20T09:15:58Z</time>
      </trkpt>
      <trkpt lat="49.27741" lon="-0.23411">
        <ele>3.8</ele>
        <time>2020-12-20T09:16:00Z</time>
      </trkpt>
      <trkpt lat="49.27741" lon="-0.23406">
        <ele>3.8</ele>
        <time>2020-12-20T09:16:01Z</time>
      </trkpt>
      <trkpt lat="49.27741" lon="-0.23401">
        <ele>3.8</ele>
        <time>2020-12-20T09:16:03Z</time>
      </trkpt>
      <trkpt lat="49.27741" lon="-0.23399">
        <ele>3.8</ele>
        <time>2020-12-20T09:16:04Z</time>
      </trkpt>
      <trkpt lat="49.27741" lon="-0.23394">
        <ele>3.8</ele>
        <time>2020-12-20T09:16:05Z</time>
      </trkpt>
      <trkpt lat="49.27741" lon="-0.23393">
        <ele>3.8</ele>
        <time>2020-12-20T09:16:06Z</time>
      </trkpt>
      <trkpt lat="49.27741" lon="-0.2339">
        <ele>3.8</ele>
        <time>2020-12-20T09:16:08Z</time>
      </trkpt>
      <trkpt lat="49.27741" lon="-0.23387">
        <ele>3.8</ele>
        <time>2020-12-20T09:16:09Z</time>
      </trkpt>
      <trkpt lat="49.27741" lon="-0.23382">
        <ele>3.8</ele>
        <time>2020-12-20T09:16:10Z</time>
      </trkpt>
      <trkpt lat="49.2774" lon="-0.2338">
        <ele>3.8</ele>
        <time>2020-12-20T09:16:11Z</time>
      </trkpt>
      <trkpt lat="49.2774" lon="-0.23375">
        <ele>3.8</ele>
        <time>2020-12-20T09:16:13Z</time>
      </trkpt>
      <trkpt lat="49.2774" lon="-0.23372">
        <ele>3.8</ele>
        <time>2020-12-20T09:16:14Z</time>
      </trkpt>
      <trkpt lat="49.2774" lon="-0.23368">
        <ele>3.8</ele>
        <time>2020-12-20T09:16:16Z</time>
      </trkpt>
      <trkpt lat="49.2774" lon="-0.23364">
        <ele>3.8</ele>
        <time>2020-12-20T09:16:17Z</time>
      </trkpt>
      <trkpt lat="49.2774" lon="-0.23362">
        <ele>3.9</ele>
        <time>2020-12-20T09:16:18Z</time>
      </trkpt>
      <trkpt lat="49.2774" lon="-0.23358">
        <ele>3.9</ele>
        <time>2020-12-20T09:16:19Z</time>
      </trkpt>
      <trkpt lat="49.2774" lon="-0.23351">
        <ele>3.9</ele>
        <time>2020-12-20T09:16:21Z</time>
      </trkpt>
      <trkpt lat="49.2774" lon="-0.23349">
        <ele>3.9</ele>
        <time>2020-12-20T09:16:22Z</time>
      </trkpt>
      <trkpt lat="49.2774" lon="-0.23346">
        <ele>3.9</ele>
        <time>2020-12-20T09:16:23Z</time>
      </trkpt>
      <trkpt lat="49.2774" lon="-0.23342">
        <ele>3.9</ele>
        <time>2020-12-20T09:16:24Z</time>
      </trkpt>
      <trkpt lat="49.2774" lon="-0.23336">
        <ele>3.9</ele>
        <time>2020-12-20T09:16:26Z</time>
      </trkpt>
      <trkpt lat="49.2774" lon="-0.2333">
        <ele>3.9</ele>
        <time>2020-12-20T09:16:28Z</time>
      </trkpt>
      <trkpt lat="49.2774" lon="-0.23325">
        <ele>3.8</ele>
        <time>2020-12-20T09:16:30Z</time>
      </trkpt>
      <trkpt lat="49.2774" lon="-0.23321">
        <ele>3.8</ele>
        <time>2020-12-20T09:16:31Z</time>
      </trkpt>
      <trkpt lat="49.2774" lon="-0.23316">
        <ele>3.8</ele>
        <time>2020-12-20T09:16:32Z</time>
      </trkpt>
      <trkpt lat="49.27739" lon="-0.23314">
        <ele>3.8</ele>
        <time>2020-12-20T09:16:33Z</time>
      </trkpt>
      <trkpt lat="49.27739" lon="-0.23309">
        <ele>3.8</ele>
        <time>2020-12-20T09:16:35Z</time>
      </trkpt>
      <trkpt lat="49.27739" lon="-0.23308">
        <ele>3.8</ele>
        <time>2020-12-20T09:16:36Z</time>
      </trkpt>
      <trkpt lat="49.27739" lon="-0.23303">
        <ele>3.8</ele>
        <time>2020-12-20T09:16:37Z</time>
      </trkpt>
      <trkpt lat="49.27739" lon="-0.23302">
        <ele>3.8</ele>
        <time>2020-12-20T09:16:38Z</time>
      </trkpt>
      <trkpt lat="49.27739" lon="-0.233">
        <ele>3.8</ele>
        <time>2020-12-20T09:16:39Z</time>
      </trkpt>
      <trkpt lat="49.27739" lon="-0.23297">
        <ele>3.8</ele>
        <time>2020-12-20T09:16:41Z</time>
      </trkpt>
      <trkpt lat="49.27738" lon="-0.23293">
        <ele>3.8</ele>
        <time>2020-12-20T09:16:42Z</time>
      </trkpt>
      <trkpt lat="49.27738" lon="-0.2329">
        <ele>3.8</ele>
        <time>2020-12-20T09:16:43Z</time>
      </trkpt>
      <trkpt lat="49.27738" lon="-0.23286">
        <ele>3.8</ele>
        <time>2020-12-20T09:16:45Z</time>
      </trkpt>
      <trkpt lat="49.27738" lon="-0.23282">
        <ele>3.8</ele>
        <time>2020-12-20T09:16:46Z</time>
      </trkpt>
      <trkpt lat="49.27738" lon="-0.23277">
        <ele>3.8</ele>
        <time>2020-12-20T09:16:48Z</time>
      </trkpt>
      <trkpt lat="49.27738" lon="-0.23272">
        <ele>3.8</ele>
        <time>2020-12-20T09:16:49Z</time>
      </trkpt>
      <trkpt lat="49.27738" lon="-0.2327">
        <ele>3.8</ele>
        <time>2020-12-20T09:16:50Z</time>
      </trkpt>
      <trkpt lat="49.27738" lon="-0.23264">
        <ele>3.8</ele>
        <time>2020-12-20T09:16:52Z</time>
      </trkpt>
      <trkpt lat="49.27738" lon="-0.2326">
        <ele>3.8</ele>
        <time>2020-12-20T09:16:53Z</time>
      </trkpt>
      <trkpt lat="49.27738" lon="-0.23254">
        <ele>3.8</ele>
        <time>2020-12-20T09:16:55Z</time>
      </trkpt>
      <trkpt lat="49.27738" lon="-0.23251">
        <ele>3.8</ele>
        <time>2020-12-20T09:16:56Z</time>
      </trkpt>
      <trkpt lat="49.27738" lon="-0.23247">
        <ele>3.8</ele>
        <time>2020-12-20T09:16:58Z</time>
      </trkpt>
      <trkpt lat="49.27738" lon="-0.23242">
        <ele>3.8</ele>
        <time>2020-12-20T09:16:59Z</time>
      </trkpt>
      <trkpt lat="49.27738" lon="-0.2324">
        <ele>3.8</ele>
        <time>2020-12-20T09:17:00Z</time>
      </trkpt>
      <trkpt lat="49.27738" lon="-0.23235">
        <ele>3.8</ele>
        <time>2020-12-20T09:17:01Z</time>
      </trkpt>
      <trkpt lat="49.27738" lon="-0.23233">
        <ele>3.8</ele>
        <time>2020-12-20T09:17:02Z</time>
      </trkpt>
      <trkpt lat="49.27738" lon="-0.23226">
        <ele>3.8</ele>
        <time>2020-12-20T09:17:04Z</time>
      </trkpt>
      <trkpt lat="49.27738" lon="-0.23223">
        <ele>3.9</ele>
        <time>2020-12-20T09:17:06Z</time>
      </trkpt>
      <trkpt lat="49.27738" lon="-0.2322">
        <ele>3.9</ele>
        <time>2020-12-20T09:17:07Z</time>
      </trkpt>
      <trkpt lat="49.27738" lon="-0.23218">
        <ele>3.9</ele>
        <time>2020-12-20T09:17:08Z</time>
      </trkpt>
      <trkpt lat="49.27738" lon="-0.23215">
        <ele>3.9</ele>
        <time>2020-12-20T09:17:09Z</time>
      </trkpt>
      <trkpt lat="49.27738" lon="-0.23212">
        <ele>3.9</ele>
        <time>2020-12-20T09:17:11Z</time>
      </trkpt>
      <trkpt lat="49.27738" lon="-0.23207">
        <ele>3.9</ele>
        <time>2020-12-20T09:17:12Z</time>
      </trkpt>
      <trkpt lat="49.27738" lon="-0.23202">
        <ele>3.9</ele>
        <time>2020-12-20T09:17:14Z</time>
      </trkpt>
      <trkpt lat="49.27739" lon="-0.23199">
        <ele>4</ele>
        <time>2020-12-20T09:17:15Z</time>
      </trkpt>
      <trkpt lat="49.27739" lon="-0.23194">
        <ele>4</ele>
        <time>2020-12-20T09:17:17Z</time>
      </trkpt>
      <trkpt lat="49.27739" lon="-0.23189">
        <ele>4</ele>
        <time>2020-12-20T09:17:18Z</time>
      </trkpt>
      <trkpt lat="49.27739" lon="-0.23183">
        <ele>4</ele>
        <time>2020-12-20T09:17:20Z</time>
      </trkpt>
      <trkpt lat="49.27739" lon="-0.2318">
        <ele>3.9</ele>
        <time>2020-12-20T09:17:21Z</time>
      </trkpt>
      <trkpt lat="49.27739" lon="-0.23174">
        <ele>3.9</ele>
        <time>2020-12-20T09:17:23Z</time>
      </trkpt>
      <trkpt lat="49.27739" lon="-0.2317">
        <ele>3.9</ele>
        <time>2020-12-20T09:17:24Z</time>
      </trkpt>
      <trkpt lat="49.27739" lon="-0.23167">
        <ele>3.9</ele>
        <time>2020-12-20T09:17:25Z</time>
      </trkpt>
      <trkpt lat="49.2774" lon="-0.23162">
        <ele>3.9</ele>
        <time>2020-12-20T09:17:27Z</time>
      </trkpt>
      <trkpt lat="49.27739" lon="-0.2316">
        <ele>3.9</ele>
        <time>2020-12-20T09:17:28Z</time>
      </trkpt>
      <trkpt lat="49.27739" lon="-0.23157">
        <ele>3.9</ele>
        <time>2020-12-20T09:17:29Z</time>
      </trkpt>
      <trkpt lat="49.27739" lon="-0.23152">
        <ele>3.9</ele>
        <time>2020-12-20T09:17:31Z</time>
      </trkpt>
      <trkpt lat="49.27739" lon="-0.23147">
        <ele>3.9</ele>
        <time>2020-12-20T09:17:33Z</time>
      </trkpt>
      <trkpt lat="49.2774" lon="-0.23142">
        <ele>3.9</ele>
        <time>2020-12-20T09:17:35Z</time>
      </trkpt>
      <trkpt lat="49.27739" lon="-0.2314">
        <ele>3.9</ele>
        <time>2020-12-20T09:17:36Z</time>
      </trkpt>
      <trkpt lat="49.27739" lon="-0.23135">
        <ele>3.9</ele>
        <time>2020-12-20T09:17:38Z</time>
      </trkpt>
      <trkpt lat="49.27738" lon="-0.23128">
        <ele>3.9</ele>
        <time>2020-12-20T09:17:40Z</time>
      </trkpt>
      <trkpt lat="49.27739" lon="-0.23121">
        <ele>3.9</ele>
        <time>2020-12-20T09:17:42Z</time>
      </trkpt>
      <trkpt lat="49.27739" lon="-0.23117">
        <ele>3.9</ele>
        <time>2020-12-20T09:17:43Z</time>
      </trkpt>
      <trkpt lat="49.27739" lon="-0.23114">
        <ele>3.9</ele>
        <time>2020-12-20T09:17:45Z</time>
      </trkpt>
      <trkpt lat="49.27739" lon="-0.23107">
        <ele>3.9</ele>
        <time>2020-12-20T09:17:46Z</time>
      </trkpt>
      <trkpt lat="49.27739" lon="-0.23104">
        <ele>3.9</ele>
        <time>2020-12-20T09:17:47Z</time>
      </trkpt>
      <trkpt lat="49.27739" lon="-0.23097">
        <ele>3.9</ele>
        <time>2020-12-20T09:17:49Z</time>
      </trkpt>
      <trkpt lat="49.2774" lon="-0.23091">
        <ele>3.9</ele>
        <time>2020-12-20T09:17:51Z</time>
      </trkpt>
      <trkpt lat="49.2774" lon="-0.23088">
        <ele>3.9</ele>
        <time>2020-12-20T09:17:52Z</time>
      </trkpt>
      <trkpt lat="49.2774" lon="-0.23086">
        <ele>3.9</ele>
        <time>2020-12-20T09:17:53Z</time>
      </trkpt>
      <trkpt lat="49.2774" lon="-0.23083">
        <ele>3.9</ele>
        <time>2020-12-20T09:17:54Z</time>
      </trkpt>
      <trkpt lat="49.2774" lon="-0.23076">
        <ele>4</ele>
        <time>2020-12-20T09:17:56Z</time>
      </trkpt>
      <trkpt lat="49.2774" lon="-0.23075">
        <ele>4</ele>
        <time>2020-12-20T09:17:57Z</time>
      </trkpt>
      <trkpt lat="49.2774" lon="-0.23071">
        <ele>4</ele>
        <time>2020-12-20T09:17:59Z</time>
      </trkpt>
      <trkpt lat="49.27739" lon="-0.23067">
        <ele>4</ele>
        <time>2020-12-20T09:18:00Z</time>
      </trkpt>
      <trkpt lat="49.2774" lon="-0.23064">
        <ele>4</ele>
        <time>2020-12-20T09:18:02Z</time>
      </trkpt>
      <trkpt lat="49.2774" lon="-0.23063">
        <ele>4</ele>
        <time>2020-12-20T09:18:04Z</time>
      </trkpt>
      <trkpt lat="49.27741" lon="-0.23061">
        <ele>4</ele>
        <time>2020-12-20T09:18:05Z</time>
      </trkpt>
      <trkpt lat="49.2774" lon="-0.2306">
        <ele>4</ele>
        <time>2020-12-20T09:18:06Z</time>
      </trkpt>
      <trkpt lat="49.27739" lon="-0.23058">
        <ele>4</ele>
        <time>2020-12-20T09:18:07Z</time>
      </trkpt>
      <trkpt lat="49.27738" lon="-0.23055">
        <ele>4</ele>
        <time>2020-12-20T09:18:08Z</time>
      </trkpt>
      <trkpt lat="49.27737" lon="-0.23054">
        <ele>4</ele>
        <time>2020-12-20T09:18:10Z</time>
      </trkpt>
      <trkpt lat="49.27737" lon="-0.23053">
        <ele>4</ele>
        <time>2020-12-20T09:18:11Z</time>
      </trkpt>
      <trkpt lat="49.27736" lon="-0.23051">
        <ele>4.1</ele>
        <time>2020-12-20T09:18:12Z</time>
      </trkpt>
      <trkpt lat="49.27736" lon="-0.23049">
        <ele>4.1</ele>
        <time>2020-12-20T09:18:13Z</time>
      </trkpt>
      <trkpt lat="49.27734" lon="-0.23046">
        <ele>4.1</ele>
        <time>2020-12-20T09:18:15Z</time>
      </trkpt>
      <trkpt lat="49.27732" lon="-0.23045">
        <ele>4.1</ele>
        <time>2020-12-20T09:18:16Z</time>
      </trkpt>
      <trkpt lat="49.27731" lon="-0.23044">
        <ele>4.1</ele>
        <time>2020-12-20T09:18:17Z</time>
      </trkpt>
      <trkpt lat="49.2773" lon="-0.23043">
        <ele>4.1</ele>
        <time>2020-12-20T09:18:18Z</time>
      </trkpt>
      <trkpt lat="49.27729" lon="-0.23041">
        <ele>4.2</ele>
        <time>2020-12-20T09:18:19Z</time>
      </trkpt>
      <trkpt lat="49.27728" lon="-0.2304">
        <ele>4.2</ele>
        <time>2020-12-20T09:18:20Z</time>
      </trkpt>
      <trkpt lat="49.27727" lon="-0.23038">
        <ele>4.2</ele>
        <time>2020-12-20T09:18:21Z</time>
      </trkpt>
      <trkpt lat="49.27727" lon="-0.23036">
        <ele>4.2</ele>
        <time>2020-12-20T09:18:23Z</time>
      </trkpt>
      <trkpt lat="49.27726" lon="-0.23033">
        <ele>4.2</ele>
        <time>2020-12-20T09:18:24Z</time>
      </trkpt>
      <trkpt lat="49.27726" lon="-0.23031">
        <ele>4.3</ele>
        <time>2020-12-20T09:18:25Z</time>
      </trkpt>
      <trkpt lat="49.27725" lon="-0.23029">
        <ele>4.3</ele>
        <time>2020-12-20T09:18:26Z</time>
      </trkpt>
      <trkpt lat="49.27723" lon="-0.23025">
        <ele>4.4</ele>
        <time>2020-12-20T09:18:27Z</time>
      </trkpt>
      <trkpt lat="49.27723" lon="-0.23024">
        <ele>4.4</ele>
        <time>2020-12-20T09:18:28Z</time>
      </trkpt>
      <trkpt lat="49.2772" lon="-0.23022">
        <ele>4.6</ele>
        <time>2020-12-20T09:18:31Z</time>
      </trkpt>
      <trkpt lat="49.27718" lon="-0.23019">
        <ele>4.5</ele>
        <time>2020-12-20T09:18:32Z</time>
      </trkpt>
      <trkpt lat="49.27718" lon="-0.23016">
        <ele>4.5</ele>
        <time>2020-12-20T09:18:34Z</time>
      </trkpt>
      <trkpt lat="49.27718" lon="-0.23011">
        <ele>4.4</ele>
        <time>2020-12-20T09:18:36Z</time>
      </trkpt>
      <trkpt lat="49.27719" lon="-0.23006">
        <ele>4.3</ele>
        <time>2020-12-20T09:18:37Z</time>
      </trkpt>
      <trkpt lat="49.27719" lon="-0.23002">
        <ele>4.2</ele>
        <time>2020-12-20T09:18:38Z</time>
      </trkpt>
      <trkpt lat="49.27721" lon="-0.22997">
        <ele>4.2</ele>
        <time>2020-12-20T09:18:40Z</time>
      </trkpt>
      <trkpt lat="49.27721" lon="-0.22996">
        <ele>4.1</ele>
        <time>2020-12-20T09:18:41Z</time>
      </trkpt>
      <trkpt lat="49.27722" lon="-0.22993">
        <ele>4.1</ele>
        <time>2020-12-20T09:18:43Z</time>
      </trkpt>
      <trkpt lat="49.27722" lon="-0.22991">
        <ele>4</ele>
        <time>2020-12-20T09:18:44Z</time>
      </trkpt>
      <trkpt lat="49.27723" lon="-0.22984">
        <ele>3.9</ele>
        <time>2020-12-20T09:18:46Z</time>
      </trkpt>
      <trkpt lat="49.27723" lon="-0.22982">
        <ele>3.9</ele>
        <time>2020-12-20T09:18:47Z</time>
      </trkpt>
      <trkpt lat="49.27723" lon="-0.22979">
        <ele>3.8</ele>
        <time>2020-12-20T09:18:48Z</time>
      </trkpt>
      <trkpt lat="49.27723" lon="-0.22977">
        <ele>3.8</ele>
        <time>2020-12-20T09:18:49Z</time>
      </trkpt>
      <trkpt lat="49.27723" lon="-0.22974">
        <ele>3.8</ele>
        <time>2020-12-20T09:18:51Z</time>
      </trkpt>
      <trkpt lat="49.27724" lon="-0.22967">
        <ele>3.7</ele>
        <time>2020-12-20T09:18:53Z</time>
      </trkpt>
      <trkpt lat="49.27724" lon="-0.2296">
        <ele>3.6</ele>
        <time>2020-12-20T09:18:55Z</time>
      </trkpt>
      <trkpt lat="49.27724" lon="-0.22954">
        <ele>3.5</ele>
        <time>2020-12-20T09:18:57Z</time>
      </trkpt>
      <trkpt lat="49.27724" lon="-0.22949">
        <ele>3.5</ele>
        <time>2020-12-20T09:18:58Z</time>
      </trkpt>
      <trkpt lat="49.27724" lon="-0.22943">
        <ele>3.5</ele>
        <time>2020-12-20T09:19:00Z</time>
      </trkpt>
      <trkpt lat="49.27724" lon="-0.22939">
        <ele>3.5</ele>
        <time>2020-12-20T09:19:01Z</time>
      </trkpt>
      <trkpt lat="49.27724" lon="-0.22932">
        <ele>3.5</ele>
        <time>2020-12-20T09:19:03Z</time>
      </trkpt>
      <trkpt lat="49.27724" lon="-0.22929">
        <ele>3.5</ele>
        <time>2020-12-20T09:19:04Z</time>
      </trkpt>
      <trkpt lat="49.27724" lon="-0.22927">
        <ele>3.5</ele>
        <time>2020-12-20T09:19:05Z</time>
      </trkpt>
      <trkpt lat="49.27724" lon="-0.22923">
        <ele>3.5</ele>
        <time>2020-12-20T09:19:06Z</time>
      </trkpt>
      <trkpt lat="49.27724" lon="-0.22918">
        <ele>3.5</ele>
        <time>2020-12-20T09:19:08Z</time>
      </trkpt>
      <trkpt lat="49.27724" lon="-0.22913">
        <ele>3.6</ele>
        <time>2020-12-20T09:19:09Z</time>
      </trkpt>
      <trkpt lat="49.27724" lon="-0.22909">
        <ele>3.6</ele>
        <time>2020-12-20T09:19:10Z</time>
      </trkpt>
      <trkpt lat="49.27723" lon="-0.22905">
        <ele>3.6</ele>
        <time>2020-12-20T09:19:12Z</time>
      </trkpt>
      <trkpt lat="49.27723" lon="-0.229">
        <ele>3.6</ele>
        <time>2020-12-20T09:19:13Z</time>
      </trkpt>
      <trkpt lat="49.27723" lon="-0.22893">
        <ele>3.6</ele>
        <time>2020-12-20T09:19:15Z</time>
      </trkpt>
      <trkpt lat="49.27723" lon="-0.22891">
        <ele>3.7</ele>
        <time>2020-12-20T09:19:16Z</time>
      </trkpt>
      <trkpt lat="49.27723" lon="-0.22888">
        <ele>3.7</ele>
        <time>2020-12-20T09:19:17Z</time>
      </trkpt>
      <trkpt lat="49.27723" lon="-0.22884">
        <ele>3.7</ele>
        <time>2020-12-20T09:19:19Z</time>
      </trkpt>
      <trkpt lat="49.27723" lon="-0.22879">
        <ele>3.7</ele>
        <time>2020-12-20T09:19:21Z</time>
      </trkpt>
      <trkpt lat="49.27723" lon="-0.22875">
        <ele>3.8</ele>
        <time>2020-12-20T09:19:22Z</time>
      </trkpt>
      <trkpt lat="49.27723" lon="-0.22873">
        <ele>3.8</ele>
        <time>2020-12-20T09:19:23Z</time>
      </trkpt>
      <trkpt lat="49.27723" lon="-0.2287">
        <ele>3.8</ele>
        <time>2020-12-20T09:19:24Z</time>
      </trkpt>
      <trkpt lat="49.27722" lon="-0.22865">
        <ele>3.8</ele>
        <time>2020-12-20T09:19:26Z</time>
      </trkpt>
      <trkpt lat="49.27722" lon="-0.22864">
        <ele>3.8</ele>
        <time>2020-12-20T09:19:27Z</time>
      </trkpt>
      <trkpt lat="49.27722" lon="-0.22858">
        <ele>3.9</ele>
        <time>2020-12-20T09:19:28Z</time>
      </trkpt>
      <trkpt lat="49.27722" lon="-0.22857">
        <ele>3.9</ele>
        <time>2020-12-20T09:19:29Z</time>
      </trkpt>
      <trkpt lat="49.27721" lon="-0.22855">
        <ele>3.9</ele>
        <time>2020-12-20T09:19:30Z</time>
      </trkpt>
      <trkpt lat="49.2772" lon="-0.22853">
        <ele>3.9</ele>
        <time>2020-12-20T09:19:31Z</time>
      </trkpt>
      <trkpt lat="49.27718" lon="-0.2285">
        <ele>4</ele>
        <time>2020-12-20T09:19:33Z</time>
      </trkpt>
      <trkpt lat="49.27717" lon="-0.22849">
        <ele>4</ele>
        <time>2020-12-20T09:19:34Z</time>
      </trkpt>
      <trkpt lat="49.27714" lon="-0.22849">
        <ele>4.1</ele>
        <time>2020-12-20T09:19:36Z</time>
      </trkpt>
      <trkpt lat="49.27713" lon="-0.22848">
        <ele>4.1</ele>
        <time>2020-12-20T09:19:37Z</time>
      </trkpt>
      <trkpt lat="49.2771" lon="-0.22846">
        <ele>4.2</ele>
        <time>2020-12-20T09:19:39Z</time>
      </trkpt>
      <trkpt lat="49.27708" lon="-0.22846">
        <ele>4.2</ele>
        <time>2020-12-20T09:19:40Z</time>
      </trkpt>
      <trkpt lat="49.27705" lon="-0.22845">
        <ele>4.2</ele>
        <time>2020-12-20T09:19:42Z</time>
      </trkpt>
      <trkpt lat="49.27704" lon="-0.22845">
        <ele>4.2</ele>
        <time>2020-12-20T09:19:43Z</time>
      </trkpt>
      <trkpt lat="49.27702" lon="-0.22845">
        <ele>4.2</ele>
        <time>2020-12-20T09:19:45Z</time>
      </trkpt>
      <trkpt lat="49.27699" lon="-0.22845">
        <ele>4.2</ele>
        <time>2020-12-20T09:19:46Z</time>
      </trkpt>
      <trkpt lat="49.27696" lon="-0.22845">
        <ele>4.2</ele>
        <time>2020-12-20T09:19:48Z</time>
      </trkpt>
      <trkpt lat="49.27693" lon="-0.22844">
        <ele>4.2</ele>
        <time>2020-12-20T09:19:49Z</time>
      </trkpt>
      <trkpt lat="49.27691" lon="-0.22845">
        <ele>4.2</ele>
        <time>2020-12-20T09:19:50Z</time>
      </trkpt>
      <trkpt lat="49.27689" lon="-0.22845">
        <ele>4.2</ele>
        <time>2020-12-20T09:19:52Z</time>
      </trkpt>
      <trkpt lat="49.27686" lon="-0.22846">
        <ele>4.2</ele>
        <time>2020-12-20T09:19:53Z</time>
      </trkpt>
      <trkpt lat="49.27685" lon="-0.22848">
        <ele>4.2</ele>
        <time>2020-12-20T09:19:54Z</time>
      </trkpt>
      <trkpt lat="49.27684" lon="-0.2285">
        <ele>4.2</ele>
        <time>2020-12-20T09:19:55Z</time>
      </trkpt>
      <trkpt lat="49.27683" lon="-0.22854">
        <ele>4.2</ele>
        <time>2020-12-20T09:19:57Z</time>
      </trkpt>
      <trkpt lat="49.27683" lon="-0.22856">
        <ele>4.2</ele>
        <time>2020-12-20T09:19:58Z</time>
      </trkpt>
      <trkpt lat="49.27681" lon="-0.22859">
        <ele>4.2</ele>
        <time>2020-12-20T09:19:59Z</time>
      </trkpt>
      <trkpt lat="49.2768" lon="-0.2286">
        <ele>4.2</ele>
        <time>2020-12-20T09:20:00Z</time>
      </trkpt>
      <trkpt lat="49.27679" lon="-0.2286">
        <ele>4.2</ele>
        <time>2020-12-20T09:20:01Z</time>
      </trkpt>
      <trkpt lat="49.27678" lon="-0.2286">
        <ele>4.1</ele>
        <time>2020-12-20T09:20:03Z</time>
      </trkpt>
      <trkpt lat="49.27677" lon="-0.22857">
        <ele>4.1</ele>
        <time>2020-12-20T09:20:04Z</time>
      </trkpt>
      <trkpt lat="49.27677" lon="-0.22854">
        <ele>4.1</ele>
        <time>2020-12-20T09:20:06Z</time>
      </trkpt>
      <trkpt lat="49.27679" lon="-0.22854">
        <ele>4.1</ele>
        <time>2020-12-20T09:20:08Z</time>
      </trkpt>
      <trkpt lat="49.2768" lon="-0.22854">
        <ele>4</ele>
        <time>2020-12-20T09:20:09Z</time>
      </trkpt>
      <trkpt lat="49.2768" lon="-0.22856">
        <ele>4</ele>
        <time>2020-12-20T09:20:10Z</time>
      </trkpt>
      <trkpt lat="49.2768" lon="-0.22856">
        <ele>4</ele>
        <time>2020-12-20T09:20:11Z</time>
      </trkpt>
      <trkpt lat="49.27678" lon="-0.22856">
        <ele>4</ele>
        <time>2020-12-20T09:20:13Z</time>
      </trkpt>
      <trkpt lat="49.27677" lon="-0.22855">
        <ele>3.9</ele>
        <time>2020-12-20T09:20:14Z</time>
      </trkpt>
      <trkpt lat="49.27677" lon="-0.22853">
        <ele>3.9</ele>
        <time>2020-12-20T09:20:15Z</time>
      </trkpt>
      <trkpt lat="49.27676" lon="-0.22853">
        <ele>3.9</ele>
        <time>2020-12-20T09:20:16Z</time>
      </trkpt>
      <trkpt lat="49.27675" lon="-0.22853">
        <ele>3.8</ele>
        <time>2020-12-20T09:20:17Z</time>
      </trkpt>
      <trkpt lat="49.27674" lon="-0.22853">
        <ele>3.8</ele>
        <time>2020-12-20T09:20:19Z</time>
      </trkpt>
      <trkpt lat="49.27674" lon="-0.22853">
        <ele>3.8</ele>
        <time>2020-12-20T09:20:22Z</time>
      </trkpt>
      <trkpt lat="49.27675" lon="-0.22854">
        <ele>3.8</ele>
        <time>2020-12-20T09:20:23Z</time>
      </trkpt>
      <trkpt lat="49.27676" lon="-0.22854">
        <ele>3.8</ele>
        <time>2020-12-20T09:20:24Z</time>
      </trkpt>
      <trkpt lat="49.27676" lon="-0.22853">
        <ele>3.8</ele>
        <time>2020-12-20T09:20:26Z</time>
      </trkpt>
      <trkpt lat="49.27677" lon="-0.22852">
        <ele>3.7</ele>
        <time>2020-12-20T09:20:28Z</time>
      </trkpt>
      <trkpt lat="49.27677" lon="-0.22852">
        <ele>3.7</ele>
        <time>2020-12-20T09:20:29Z</time>
      </trkpt>
      <trkpt lat="49.27677" lon="-0.22852">
        <ele>3.7</ele>
        <time>2020-12-20T09:20:31Z</time>
      </trkpt>
      <trkpt lat="49.27677" lon="-0.22852">
        <ele>3.7</ele>
        <time>2020-12-20T09:20:32Z</time>
      </trkpt>
      <trkpt lat="49.27677" lon="-0.22852">
        <ele>3.7</ele>
        <time>2020-12-20T09:20:34Z</time>
      </trkpt>
      <trkpt lat="49.27676" lon="-0.22853">
        <ele>3.7</ele>
        <time>2020-12-20T09:20:36Z</time>
      </trkpt>
      <trkpt lat="49.27676" lon="-0.22853">
        <ele>3.6</ele>
        <time>2020-12-20T09:20:37Z</time>
      </trkpt>
      <trkpt lat="49.27676" lon="-0.22854">
        <ele>3.6</ele>
        <time>2020-12-20T09:20:38Z</time>
      </trkpt>
      <trkpt lat="49.27676" lon="-0.22855">
        <ele>3.6</ele>
        <time>2020-12-20T09:20:39Z</time>
      </trkpt>
      <trkpt lat="49.27677" lon="-0.22856">
        <ele>3.6</ele>
        <time>2020-12-20T09:20:41Z</time>
      </trkpt>
      <trkpt lat="49.27678" lon="-0.22856">
        <ele>3.6</ele>
        <time>2020-12-20T09:20:42Z</time>
      </trkpt>
      <trkpt lat="49.27679" lon="-0.22856">
        <ele>3.5</ele>
        <time>2020-12-20T09:20:43Z</time>
      </trkpt>
      <trkpt lat="49.27679" lon="-0.22855">
        <ele>3.5</ele>
        <time>2020-12-20T09:20:44Z</time>
      </trkpt>
      <trkpt lat="49.2768" lon="-0.22853">
        <ele>3.4</ele>
        <time>2020-12-20T09:20:46Z</time>
      </trkpt>
      <trkpt lat="49.27679" lon="-0.22852">
        <ele>3.4</ele>
        <time>2020-12-20T09:20:47Z</time>
      </trkpt>
      <trkpt lat="49.27678" lon="-0.22852">
        <ele>3.4</ele>
        <time>2020-12-20T09:20:48Z</time>
      </trkpt>
      <trkpt lat="49.27677" lon="-0.22851">
        <ele>3.4</ele>
        <time>2020-12-20T09:20:50Z</time>
      </trkpt>
      <trkpt lat="49.27675" lon="-0.22852">
        <ele>3.3</ele>
        <time>2020-12-20T09:20:52Z</time>
      </trkpt>
      <trkpt lat="49.27674" lon="-0.22854">
        <ele>3.3</ele>
        <time>2020-12-20T09:20:53Z</time>
      </trkpt>
      <trkpt lat="49.27673" lon="-0.22857">
        <ele>3.2</ele>
        <time>2020-12-20T09:20:54Z</time>
      </trkpt>
      <trkpt lat="49.27674" lon="-0.22861">
        <ele>3.2</ele>
        <time>2020-12-20T09:20:56Z</time>
      </trkpt>
      <trkpt lat="49.27676" lon="-0.22861">
        <ele>3.1</ele>
        <time>2020-12-20T09:20:57Z</time>
      </trkpt>
      <trkpt lat="49.27677" lon="-0.22861">
        <ele>3.1</ele>
        <time>2020-12-20T09:20:58Z</time>
      </trkpt>
      <trkpt lat="49.27679" lon="-0.22861">
        <ele>3.1</ele>
        <time>2020-12-20T09:21:00Z</time>
      </trkpt>
      <trkpt lat="49.2768" lon="-0.22864">
        <ele>3.1</ele>
        <time>2020-12-20T09:21:02Z</time>
      </trkpt>
      <trkpt lat="49.27679" lon="-0.22866">
        <ele>3.1</ele>
        <time>2020-12-20T09:21:03Z</time>
      </trkpt>
      <trkpt lat="49.27678" lon="-0.22867">
        <ele>3.1</ele>
        <time>2020-12-20T09:21:04Z</time>
      </trkpt>
      <trkpt lat="49.27676" lon="-0.22867">
        <ele>3.1</ele>
        <time>2020-12-20T09:21:06Z</time>
      </trkpt>
      <trkpt lat="49.27674" lon="-0.22866">
        <ele>3.1</ele>
        <time>2020-12-20T09:21:07Z</time>
      </trkpt>
      <trkpt lat="49.27671" lon="-0.22862">
        <ele>3.1</ele>
        <time>2020-12-20T09:21:08Z</time>
      </trkpt>
      <trkpt lat="49.27668" lon="-0.22858">
        <ele>3.1</ele>
        <time>2020-12-20T09:21:10Z</time>
      </trkpt>
      <trkpt lat="49.27666" lon="-0.22857">
        <ele>3.1</ele>
        <time>2020-12-20T09:21:11Z</time>
      </trkpt>
      <trkpt lat="49.27664" lon="-0.22853">
        <ele>3.1</ele>
        <time>2020-12-20T09:21:13Z</time>
      </trkpt>
      <trkpt lat="49.27662" lon="-0.22852">
        <ele>3.2</ele>
        <time>2020-12-20T09:21:14Z</time>
      </trkpt>
      <trkpt lat="49.27661" lon="-0.22852">
        <ele>3.2</ele>
        <time>2020-12-20T09:21:15Z</time>
      </trkpt>
      <trkpt lat="49.2766" lon="-0.22852">
        <ele>3.2</ele>
        <time>2020-12-20T09:21:16Z</time>
      </trkpt>
      <trkpt lat="49.27658" lon="-0.22854">
        <ele>3.2</ele>
        <time>2020-12-20T09:21:18Z</time>
      </trkpt>
      <trkpt lat="49.27655" lon="-0.22856">
        <ele>3.2</ele>
        <time>2020-12-20T09:21:19Z</time>
      </trkpt>
      <trkpt lat="49.2765" lon="-0.22858">
        <ele>3.3</ele>
        <time>2020-12-20T09:21:21Z</time>
      </trkpt>
      <trkpt lat="49.27648" lon="-0.22859">
        <ele>3.3</ele>
        <time>2020-12-20T09:21:23Z</time>
      </trkpt>
      <trkpt lat="49.27647" lon="-0.2286">
        <ele>3.3</ele>
        <time>2020-12-20T09:21:24Z</time>
      </trkpt>
      <trkpt lat="49.27645" lon="-0.2286">
        <ele>3.3</ele>
        <time>2020-12-20T09:21:25Z</time>
      </trkpt>
      <trkpt lat="49.27641" lon="-0.22864">
        <ele>3.3</ele>
        <time>2020-12-20T09:21:27Z</time>
      </trkpt>
      <trkpt lat="49.27639" lon="-0.22865">
        <ele>3.3</ele>
        <time>2020-12-20T09:21:29Z</time>
      </trkpt>
      <trkpt lat="49.27638" lon="-0.22866">
        <ele>3.3</ele>
        <time>2020-12-20T09:21:30Z</time>
      </trkpt>
      <trkpt lat="49.27636" lon="-0.22871">
        <ele>3.3</ele>
        <time>2020-12-20T09:21:31Z</time>
      </trkpt>
      <trkpt lat="49.27636" lon="-0.22872">
        <ele>3.3</ele>
        <time>2020-12-20T09:21:32Z</time>
      </trkpt>
      <trkpt lat="49.27633" lon="-0.22879">
        <ele>3.3</ele>
        <time>2020-12-20T09:21:34Z</time>
      </trkpt>
      <trkpt lat="49.27632" lon="-0.22881">
        <ele>3.3</ele>
        <time>2020-12-20T09:21:36Z</time>
      </trkpt>
      <trkpt lat="49.27631" lon="-0.22883">
        <ele>3.2</ele>
        <time>2020-12-20T09:21:37Z</time>
      </trkpt>
      <trkpt lat="49.27631" lon="-0.22885">
        <ele>3.2</ele>
        <time>2020-12-20T09:21:38Z</time>
      </trkpt>
      <trkpt lat="49.27631" lon="-0.22889">
        <ele>3.2</ele>
        <time>2020-12-20T09:21:40Z</time>
      </trkpt>
      <trkpt lat="49.27629" lon="-0.22893">
        <ele>3.2</ele>
        <time>2020-12-20T09:21:42Z</time>
      </trkpt>
      <trkpt lat="49.27629" lon="-0.22894">
        <ele>3.2</ele>
        <time>2020-12-20T09:21:43Z</time>
      </trkpt>
      <trkpt lat="49.27627" lon="-0.22896">
        <ele>3.2</ele>
        <time>2020-12-20T09:21:44Z</time>
      </trkpt>
      <trkpt lat="49.27626" lon="-0.22899">
        <ele>3.2</ele>
        <time>2020-12-20T09:21:46Z</time>
      </trkpt>
      <trkpt lat="49.27625" lon="-0.22903">
        <ele>3.1</ele>
        <time>2020-12-20T09:21:47Z</time>
      </trkpt>
      <trkpt lat="49.27624" lon="-0.22905">
        <ele>3.1</ele>
        <time>2020-12-20T09:21:48Z</time>
      </trkpt>
      <trkpt lat="49.27623" lon="-0.22906">
        <ele>3.1</ele>
        <time>2020-12-20T09:21:49Z</time>
      </trkpt>
      <trkpt lat="49.27622" lon="-0.22911">
        <ele>3.1</ele>
        <time>2020-12-20T09:21:51Z</time>
      </trkpt>
      <trkpt lat="49.27621" lon="-0.22914">
        <ele>3.1</ele>
        <time>2020-12-20T09:21:53Z</time>
      </trkpt>
      <trkpt lat="49.2762" lon="-0.22916">
        <ele>3.1</ele>
        <time>2020-12-20T09:21:54Z</time>
      </trkpt>
      <trkpt lat="49.2762" lon="-0.22919">
        <ele>3.1</ele>
        <time>2020-12-20T09:21:56Z</time>
      </trkpt>
      <trkpt lat="49.27619" lon="-0.22922">
        <ele>3.1</ele>
        <time>2020-12-20T09:21:57Z</time>
      </trkpt>
      <trkpt lat="49.27618" lon="-0.22927">
        <ele>3.1</ele>
        <time>2020-12-20T09:21:58Z</time>
      </trkpt>
      <trkpt lat="49.27617" lon="-0.22932">
        <ele>3.1</ele>
        <time>2020-12-20T09:21:59Z</time>
      </trkpt>
      <trkpt lat="49.27616" lon="-0.22933">
        <ele>3.1</ele>
        <time>2020-12-20T09:22:00Z</time>
      </trkpt>
      <trkpt lat="49.27615" lon="-0.22939">
        <ele>3.1</ele>
        <time>2020-12-20T09:22:02Z</time>
      </trkpt>
      <trkpt lat="49.27615" lon="-0.22941">
        <ele>3.1</ele>
        <time>2020-12-20T09:22:03Z</time>
      </trkpt>
      <trkpt lat="49.27614" lon="-0.22943">
        <ele>3.1</ele>
        <time>2020-12-20T09:22:04Z</time>
      </trkpt>
      <trkpt lat="49.27613" lon="-0.22949">
        <ele>3.1</ele>
        <time>2020-12-20T09:22:06Z</time>
      </trkpt>
      <trkpt lat="49.27613" lon="-0.22952">
        <ele>3.1</ele>
        <time>2020-12-20T09:22:07Z</time>
      </trkpt>
      <trkpt lat="49.27612" lon="-0.22953">
        <ele>3.1</ele>
        <time>2020-12-20T09:22:08Z</time>
      </trkpt>
      <trkpt lat="49.27611" lon="-0.22956">
        <ele>3.1</ele>
        <time>2020-12-20T09:22:10Z</time>
      </trkpt>
      <trkpt lat="49.27609" lon="-0.22962">
        <ele>3.1</ele>
        <time>2020-12-20T09:22:11Z</time>
      </trkpt>
      <trkpt lat="49.27608" lon="-0.22968">
        <ele>3.1</ele>
        <time>2020-12-20T09:22:13Z</time>
      </trkpt>
      <trkpt lat="49.27607" lon="-0.22971">
        <ele>3.1</ele>
        <time>2020-12-20T09:22:14Z</time>
      </trkpt>
      <trkpt lat="49.27606" lon="-0.22972">
        <ele>3</ele>
        <time>2020-12-20T09:22:16Z</time>
      </trkpt>
      <trkpt lat="49.27605" lon="-0.22975">
        <ele>3</ele>
        <time>2020-12-20T09:22:17Z</time>
      </trkpt>
      <trkpt lat="49.27605" lon="-0.22978">
        <ele>3</ele>
        <time>2020-12-20T09:22:19Z</time>
      </trkpt>
      <trkpt lat="49.27603" lon="-0.22982">
        <ele>3</ele>
        <time>2020-12-20T09:22:20Z</time>
      </trkpt>
      <trkpt lat="49.27604" lon="-0.22984">
        <ele>3</ele>
        <time>2020-12-20T09:22:21Z</time>
      </trkpt>
      <trkpt lat="49.27604" lon="-0.22986">
        <ele>3</ele>
        <time>2020-12-20T09:22:22Z</time>
      </trkpt>
      <trkpt lat="49.27604" lon="-0.22987">
        <ele>3</ele>
        <time>2020-12-20T09:22:23Z</time>
      </trkpt>
      <trkpt lat="49.27604" lon="-0.22989">
        <ele>3</ele>
        <time>2020-12-20T09:22:25Z</time>
      </trkpt>
      <trkpt lat="49.27603" lon="-0.22991">
        <ele>3</ele>
        <time>2020-12-20T09:22:26Z</time>
      </trkpt>
      <trkpt lat="49.27602" lon="-0.22993">
        <ele>3</ele>
        <time>2020-12-20T09:22:27Z</time>
      </trkpt>
      <trkpt lat="49.27601" lon="-0.22996">
        <ele>3</ele>
        <time>2020-12-20T09:22:28Z</time>
      </trkpt>
      <trkpt lat="49.27599" lon="-0.22998">
        <ele>2.9</ele>
        <time>2020-12-20T09:22:30Z</time>
      </trkpt>
      <trkpt lat="49.27599" lon="-0.23">
        <ele>2.9</ele>
        <time>2020-12-20T09:22:32Z</time>
      </trkpt>
      <trkpt lat="49.27599" lon="-0.23002">
        <ele>2.9</ele>
        <time>2020-12-20T09:22:33Z</time>
      </trkpt>
      <trkpt lat="49.27598" lon="-0.23006">
        <ele>2.9</ele>
        <time>2020-12-20T09:22:35Z</time>
      </trkpt>
      <trkpt lat="49.27597" lon="-0.23011">
        <ele>2.8</ele>
        <time>2020-12-20T09:22:37Z</time>
      </trkpt>
      <trkpt lat="49.27595" lon="-0.23015">
        <ele>2.8</ele>
        <time>2020-12-20T09:22:38Z</time>
      </trkpt>
      <trkpt lat="49.27594" lon="-0.2302">
        <ele>2.8</ele>
        <time>2020-12-20T09:22:39Z</time>
      </trkpt>
      <trkpt lat="49.27593" lon="-0.23026">
        <ele>2.7</ele>
        <time>2020-12-20T09:22:40Z</time>
      </trkpt>
      <trkpt lat="49.27591" lon="-0.23031">
        <ele>2.7</ele>
        <time>2020-12-20T09:22:42Z</time>
      </trkpt>
      <trkpt lat="49.2759" lon="-0.23034">
        <ele>2.6</ele>
        <time>2020-12-20T09:22:43Z</time>
      </trkpt>
      <trkpt lat="49.27588" lon="-0.23038">
        <ele>2.6</ele>
        <time>2020-12-20T09:22:44Z</time>
      </trkpt>
      <trkpt lat="49.27587" lon="-0.23042">
        <ele>2.5</ele>
        <time>2020-12-20T09:22:46Z</time>
      </trkpt>
      <trkpt lat="49.27586" lon="-0.23045">
        <ele>2.5</ele>
        <time>2020-12-20T09:22:47Z</time>
      </trkpt>
      <trkpt lat="49.27585" lon="-0.2305">
        <ele>2.5</ele>
        <time>2020-12-20T09:22:49Z</time>
      </trkpt>
      <trkpt lat="49.27583" lon="-0.23055">
        <ele>2.4</ele>
        <time>2020-12-20T09:22:50Z</time>
      </trkpt>
      <trkpt lat="49.27581" lon="-0.23061">
        <ele>2.4</ele>
        <time>2020-12-20T09:22:52Z</time>
      </trkpt>
      <trkpt lat="49.2758" lon="-0.23064">
        <ele>2.3</ele>
        <time>2020-12-20T09:22:54Z</time>
      </trkpt>
      <trkpt lat="49.27579" lon="-0.23067">
        <ele>2.3</ele>
        <time>2020-12-20T09:22:55Z</time>
      </trkpt>
      <trkpt lat="49.27578" lon="-0.23069">
        <ele>2.3</ele>
        <time>2020-12-20T09:22:56Z</time>
      </trkpt>
      <trkpt lat="49.27577" lon="-0.23073">
        <ele>2.3</ele>
        <time>2020-12-20T09:22:57Z</time>
      </trkpt>
      <trkpt lat="49.27576" lon="-0.23078">
        <ele>2.2</ele>
        <time>2020-12-20T09:22:58Z</time>
      </trkpt>
      <trkpt lat="49.27574" lon="-0.23082">
        <ele>2.2</ele>
        <time>2020-12-20T09:23:00Z</time>
      </trkpt>
      <trkpt lat="49.27574" lon="-0.23084">
        <ele>2.2</ele>
        <time>2020-12-20T09:23:01Z</time>
      </trkpt>
      <trkpt lat="49.27573" lon="-0.23088">
        <ele>2.2</ele>
        <time>2020-12-20T09:23:03Z</time>
      </trkpt>
      <trkpt lat="49.27571" lon="-0.23093">
        <ele>2.2</ele>
        <time>2020-12-20T09:23:04Z</time>
      </trkpt>
      <trkpt lat="49.2757" lon="-0.23097">
        <ele>2.2</ele>
        <time>2020-12-20T09:23:06Z</time>
      </trkpt>
      <trkpt lat="49.27569" lon="-0.23099">
        <ele>2.2</ele>
        <time>2020-12-20T09:23:07Z</time>
      </trkpt>
      <trkpt lat="49.27568" lon="-0.23103">
        <ele>2.2</ele>
        <time>2020-12-20T09:23:08Z</time>
      </trkpt>
      <trkpt lat="49.27567" lon="-0.23105">
        <ele>2.2</ele>
        <time>2020-12-20T09:23:09Z</time>
      </trkpt>
      <trkpt lat="49.27566" lon="-0.23109">
        <ele>2.2</ele>
        <time>2020-12-20T09:23:11Z</time>
      </trkpt>
      <trkpt lat="49.27564" lon="-0.23113">
        <ele>2.2</ele>
        <time>2020-12-20T09:23:12Z</time>
      </trkpt>
      <trkpt lat="49.27563" lon="-0.23119">
        <ele>2.2</ele>
        <time>2020-12-20T09:23:14Z</time>
      </trkpt>
      <trkpt lat="49.27562" lon="-0.23121">
        <ele>2.2</ele>
        <time>2020-12-20T09:23:15Z</time>
      </trkpt>
      <trkpt lat="49.2756" lon="-0.23126">
        <ele>2.3</ele>
        <time>2020-12-20T09:23:16Z</time>
      </trkpt>
      <trkpt lat="49.27558" lon="-0.2313">
        <ele>2.3</ele>
        <time>2020-12-20T09:23:17Z</time>
      </trkpt>
      <trkpt lat="49.27555" lon="-0.23135">
        <ele>2.3</ele>
        <time>2020-12-20T09:23:19Z</time>
      </trkpt>
      <trkpt lat="49.27552" lon="-0.23141">
        <ele>2.4</ele>
        <time>2020-12-20T09:23:22Z</time>
      </trkpt>
      <trkpt lat="49.27551" lon="-0.23145">
        <ele>2.4</ele>
        <time>2020-12-20T09:23:23Z</time>
      </trkpt>
      <trkpt lat="49.27548" lon="-0.23151">
        <ele>2.5</ele>
        <time>2020-12-20T09:23:26Z</time>
      </trkpt>
      <trkpt lat="49.27548" lon="-0.23153">
        <ele>2.5</ele>
        <time>2020-12-20T09:23:27Z</time>
      </trkpt>
      <trkpt lat="49.27547" lon="-0.23155">
        <ele>2.5</ele>
        <time>2020-12-20T09:23:28Z</time>
      </trkpt>
      <trkpt lat="49.27546" lon="-0.23157">
        <ele>2.6</ele>
        <time>2020-12-20T09:23:29Z</time>
      </trkpt>
      <trkpt lat="49.27544" lon="-0.23161">
        <ele>2.6</ele>
        <time>2020-12-20T09:23:31Z</time>
      </trkpt>
      <trkpt lat="49.27543" lon="-0.23166">
        <ele>2.7</ele>
        <time>2020-12-20T09:23:33Z</time>
      </trkpt>
      <trkpt lat="49.27542" lon="-0.23168">
        <ele>2.7</ele>
        <time>2020-12-20T09:23:34Z</time>
      </trkpt>
      <trkpt lat="49.27541" lon="-0.2317">
        <ele>2.7</ele>
        <time>2020-12-20T09:23:35Z</time>
      </trkpt>
      <trkpt lat="49.2754" lon="-0.23175">
        <ele>2.8</ele>
        <time>2020-12-20T09:23:37Z</time>
      </trkpt>
      <trkpt lat="49.27538" lon="-0.2318">
        <ele>2.8</ele>
        <time>2020-12-20T09:23:39Z</time>
      </trkpt>
      <trkpt lat="49.27538" lon="-0.23187">
        <ele>2.9</ele>
        <time>2020-12-20T09:23:40Z</time>
      </trkpt>
      <trkpt lat="49.27537" lon="-0.23189">
        <ele>2.9</ele>
        <time>2020-12-20T09:23:41Z</time>
      </trkpt>
      <trkpt lat="49.27537" lon="-0.23193">
        <ele>2.9</ele>
        <time>2020-12-20T09:23:42Z</time>
      </trkpt>
      <trkpt lat="49.27536" lon="-0.23201">
        <ele>3</ele>
        <time>2020-12-20T09:23:44Z</time>
      </trkpt>
      <trkpt lat="49.27535" lon="-0.23207">
        <ele>3</ele>
        <time>2020-12-20T09:23:46Z</time>
      </trkpt>
      <trkpt lat="49.27534" lon="-0.2321">
        <ele>3</ele>
        <time>2020-12-20T09:23:47Z</time>
      </trkpt>
      <trkpt lat="49.27533" lon="-0.23218">
        <ele>3</ele>
        <time>2020-12-20T09:23:49Z</time>
      </trkpt>
      <trkpt lat="49.27533" lon="-0.23223">
        <ele>3</ele>
        <time>2020-12-20T09:23:51Z</time>
      </trkpt>
      <trkpt lat="49.27532" lon="-0.2323">
        <ele>3</ele>
        <time>2020-12-20T09:23:53Z</time>
      </trkpt>
      <trkpt lat="49.27532" lon="-0.23234">
        <ele>3</ele>
        <time>2020-12-20T09:23:55Z</time>
      </trkpt>
      <trkpt lat="49.27532" lon="-0.23238">
        <ele>3</ele>
        <time>2020-12-20T09:23:57Z</time>
      </trkpt>
      <trkpt lat="49.27532" lon="-0.23242">
        <ele>3</ele>
        <time>2020-12-20T09:23:58Z</time>
      </trkpt>
      <trkpt lat="49.27532" lon="-0.23243">
        <ele>3</ele>
        <time>2020-12-20T09:23:59Z</time>
      </trkpt>
      <trkpt lat="49.27532" lon="-0.2325">
        <ele>3</ele>
        <time>2020-12-20T09:24:01Z</time>
      </trkpt>
      <trkpt lat="49.27532" lon="-0.23252">
        <ele>3</ele>
        <time>2020-12-20T09:24:02Z</time>
      </trkpt>
      <trkpt lat="49.27532" lon="-0.23254">
        <ele>3</ele>
        <time>2020-12-20T09:24:03Z</time>
      </trkpt>
      <trkpt lat="49.27532" lon="-0.23257">
        <ele>3</ele>
        <time>2020-12-20T09:24:05Z</time>
      </trkpt>
      <trkpt lat="49.27533" lon="-0.23259">
        <ele>3</ele>
        <time>2020-12-20T09:24:06Z</time>
      </trkpt>
      <trkpt lat="49.27533" lon="-0.23265">
        <ele>3</ele>
        <time>2020-12-20T09:24:08Z</time>
      </trkpt>
      <trkpt lat="49.27533" lon="-0.23266">
        <ele>3</ele>
        <time>2020-12-20T09:24:09Z</time>
      </trkpt>
      <trkpt lat="49.27533" lon="-0.23268">
        <ele>3</ele>
        <time>2020-12-20T09:24:10Z</time>
      </trkpt>
      <trkpt lat="49.27533" lon="-0.23271">
        <ele>3</ele>
        <time>2020-12-20T09:24:12Z</time>
      </trkpt>
      <trkpt lat="49.27534" lon="-0.23276">
        <ele>3</ele>
        <time>2020-12-20T09:24:13Z</time>
      </trkpt>
      <trkpt lat="49.27534" lon="-0.2328">
        <ele>3</ele>
        <time>2020-12-20T09:24:15Z</time>
      </trkpt>
      <trkpt lat="49.27534" lon="-0.23282">
        <ele>2.9</ele>
        <time>2020-12-20T09:24:16Z</time>
      </trkpt>
      <trkpt lat="49.27534" lon="-0.23284">
        <ele>2.9</ele>
        <time>2020-12-20T09:24:17Z</time>
      </trkpt>
      <trkpt lat="49.27534" lon="-0.23287">
        <ele>2.9</ele>
        <time>2020-12-20T09:24:18Z</time>
      </trkpt>
      <trkpt lat="49.27534" lon="-0.23291">
        <ele>2.9</ele>
        <time>2020-12-20T09:24:20Z</time>
      </trkpt>
      <trkpt lat="49.27534" lon="-0.23299">
        <ele>2.9</ele>
        <time>2020-12-20T09:24:22Z</time>
      </trkpt>
      <trkpt lat="49.27534" lon="-0.23302">
        <ele>2.9</ele>
        <time>2020-12-20T09:24:24Z</time>
      </trkpt>
      <trkpt lat="49.27534" lon="-0.23305">
        <ele>2.9</ele>
        <time>2020-12-20T09:24:26Z</time>
      </trkpt>
      <trkpt lat="49.27534" lon="-0.23308">
        <ele>2.9</ele>
        <time>2020-12-20T09:24:28Z</time>
      </trkpt>
      <trkpt lat="49.27534" lon="-0.23311">
        <ele>2.9</ele>
        <time>2020-12-20T09:24:29Z</time>
      </trkpt>
      <trkpt lat="49.27534" lon="-0.23314">
        <ele>2.9</ele>
        <time>2020-12-20T09:24:30Z</time>
      </trkpt>
      <trkpt lat="49.27534" lon="-0.23318">
        <ele>2.9</ele>
        <time>2020-12-20T09:24:32Z</time>
      </trkpt>
      <trkpt lat="49.27535" lon="-0.23322">
        <ele>2.9</ele>
        <time>2020-12-20T09:24:34Z</time>
      </trkpt>
      <trkpt lat="49.27535" lon="-0.23325">
        <ele>2.8</ele>
        <time>2020-12-20T09:24:37Z</time>
      </trkpt>
      <trkpt lat="49.27535" lon="-0.2333">
        <ele>2.8</ele>
        <time>2020-12-20T09:24:38Z</time>
      </trkpt>
      <trkpt lat="49.27535" lon="-0.23333">
        <ele>2.8</ele>
        <time>2020-12-20T09:24:40Z</time>
      </trkpt>
      <trkpt lat="49.27536" lon="-0.23337">
        <ele>2.8</ele>
        <time>2020-12-20T09:24:42Z</time>
      </trkpt>
      <trkpt lat="49.27536" lon="-0.2334">
        <ele>2.8</ele>
        <time>2020-12-20T09:24:43Z</time>
      </trkpt>
      <trkpt lat="49.27536" lon="-0.23341">
        <ele>2.8</ele>
        <time>2020-12-20T09:24:44Z</time>
      </trkpt>
      <trkpt lat="49.27536" lon="-0.23343">
        <ele>2.8</ele>
        <time>2020-12-20T09:24:46Z</time>
      </trkpt>
      <trkpt lat="49.27536" lon="-0.23346">
        <ele>2.8</ele>
        <time>2020-12-20T09:24:47Z</time>
      </trkpt>
      <trkpt lat="49.27537" lon="-0.2335">
        <ele>2.8</ele>
        <time>2020-12-20T09:24:49Z</time>
      </trkpt>
      <trkpt lat="49.27537" lon="-0.23352">
        <ele>2.8</ele>
        <time>2020-12-20T09:24:51Z</time>
      </trkpt>
      <trkpt lat="49.27538" lon="-0.23355">
        <ele>2.8</ele>
        <time>2020-12-20T09:24:52Z</time>
      </trkpt>
      <trkpt lat="49.27538" lon="-0.23358">
        <ele>2.8</ele>
        <time>2020-12-20T09:24:54Z</time>
      </trkpt>
      <trkpt lat="49.27539" lon="-0.23362">
        <ele>2.8</ele>
        <time>2020-12-20T09:24:55Z</time>
      </trkpt>
      <trkpt lat="49.2754" lon="-0.23365">
        <ele>2.8</ele>
        <time>2020-12-20T09:24:56Z</time>
      </trkpt>
      <trkpt lat="49.2754" lon="-0.23367">
        <ele>2.7</ele>
        <time>2020-12-20T09:24:57Z</time>
      </trkpt>
      <trkpt lat="49.27541" lon="-0.2337">
        <ele>2.7</ele>
        <time>2020-12-20T09:24:58Z</time>
      </trkpt>
      <trkpt lat="49.27542" lon="-0.23374">
        <ele>2.7</ele>
        <time>2020-12-20T09:25:00Z</time>
      </trkpt>
      <trkpt lat="49.27542" lon="-0.23378">
        <ele>2.7</ele>
        <time>2020-12-20T09:25:02Z</time>
      </trkpt>
      <trkpt lat="49.27543" lon="-0.23383">
        <ele>2.7</ele>
        <time>2020-12-20T09:25:04Z</time>
      </trkpt>
      <trkpt lat="49.27543" lon="-0.23385">
        <ele>2.7</ele>
        <time>2020-12-20T09:25:05Z</time>
      </trkpt>
      <trkpt lat="49.27543" lon="-0.23388">
        <ele>2.7</ele>
        <time>2020-12-20T09:25:06Z</time>
      </trkpt>
      <trkpt lat="49.27543" lon="-0.23393">
        <ele>2.7</ele>
        <time>2020-12-20T09:25:09Z</time>
      </trkpt>
      <trkpt lat="49.27543" lon="-0.23399">
        <ele>2.7</ele>
        <time>2020-12-20T09:25:10Z</time>
      </trkpt>
      <trkpt lat="49.27542" lon="-0.23407">
        <ele>2.7</ele>
        <time>2020-12-20T09:25:12Z</time>
      </trkpt>
      <trkpt lat="49.27541" lon="-0.23411">
        <ele>2.7</ele>
        <time>2020-12-20T09:25:13Z</time>
      </trkpt>
      <trkpt lat="49.27541" lon="-0.23415">
        <ele>2.7</ele>
        <time>2020-12-20T09:25:15Z</time>
      </trkpt>
      <trkpt lat="49.2754" lon="-0.23421">
        <ele>2.7</ele>
        <time>2020-12-20T09:25:16Z</time>
      </trkpt>
      <trkpt lat="49.2754" lon="-0.23425">
        <ele>2.7</ele>
        <time>2020-12-20T09:25:18Z</time>
      </trkpt>
      <trkpt lat="49.27539" lon="-0.23426">
        <ele>2.7</ele>
        <time>2020-12-20T09:25:19Z</time>
      </trkpt>
      <trkpt lat="49.2754" lon="-0.2343">
        <ele>2.7</ele>
        <time>2020-12-20T09:25:20Z</time>
      </trkpt>
      <trkpt lat="49.2754" lon="-0.23432">
        <ele>2.7</ele>
        <time>2020-12-20T09:25:21Z</time>
      </trkpt>
      <trkpt lat="49.2754" lon="-0.23434">
        <ele>2.7</ele>
        <time>2020-12-20T09:25:22Z</time>
      </trkpt>
      <trkpt lat="49.2754" lon="-0.23437">
        <ele>2.7</ele>
        <time>2020-12-20T09:25:23Z</time>
      </trkpt>
      <trkpt lat="49.27541" lon="-0.23444">
        <ele>2.7</ele>
        <time>2020-12-20T09:25:25Z</time>
      </trkpt>
      <trkpt lat="49.27541" lon="-0.23447">
        <ele>2.7</ele>
        <time>2020-12-20T09:25:26Z</time>
      </trkpt>
      <trkpt lat="49.27541" lon="-0.23449">
        <ele>2.7</ele>
        <time>2020-12-20T09:25:27Z</time>
      </trkpt>
      <trkpt lat="49.27541" lon="-0.23455">
        <ele>2.7</ele>
        <time>2020-12-20T09:25:29Z</time>
      </trkpt>
      <trkpt lat="49.27541" lon="-0.23456">
        <ele>2.7</ele>
        <time>2020-12-20T09:25:30Z</time>
      </trkpt>
      <trkpt lat="49.27541" lon="-0.23459">
        <ele>2.7</ele>
        <time>2020-12-20T09:25:31Z</time>
      </trkpt>
      <trkpt lat="49.27542" lon="-0.23461">
        <ele>2.7</ele>
        <time>2020-12-20T09:25:32Z</time>
      </trkpt>
      <trkpt lat="49.27542" lon="-0.23467">
        <ele>2.7</ele>
        <time>2020-12-20T09:25:34Z</time>
      </trkpt>
      <trkpt lat="49.27542" lon="-0.23468">
        <ele>2.7</ele>
        <time>2020-12-20T09:25:35Z</time>
      </trkpt>
      <trkpt lat="49.27542" lon="-0.23475">
        <ele>2.8</ele>
        <time>2020-12-20T09:25:37Z</time>
      </trkpt>
      <trkpt lat="49.27543" lon="-0.23477">
        <ele>2.8</ele>
        <time>2020-12-20T09:25:38Z</time>
      </trkpt>
      <trkpt lat="49.27543" lon="-0.23483">
        <ele>2.8</ele>
        <time>2020-12-20T09:25:39Z</time>
      </trkpt>
      <trkpt lat="49.27545" lon="-0.2349">
        <ele>2.9</ele>
        <time>2020-12-20T09:25:40Z</time>
      </trkpt>
      <trkpt lat="49.27546" lon="-0.23497">
        <ele>2.9</ele>
        <time>2020-12-20T09:25:42Z</time>
      </trkpt>
      <trkpt lat="49.27547" lon="-0.23502">
        <ele>3</ele>
        <time>2020-12-20T09:25:43Z</time>
      </trkpt>
      <trkpt lat="49.27549" lon="-0.23507">
        <ele>3</ele>
        <time>2020-12-20T09:25:45Z</time>
      </trkpt>
      <trkpt lat="49.2755" lon="-0.23511">
        <ele>3</ele>
        <time>2020-12-20T09:25:46Z</time>
      </trkpt>
      <trkpt lat="49.27551" lon="-0.23513">
        <ele>3</ele>
        <time>2020-12-20T09:25:47Z</time>
      </trkpt>
      <trkpt lat="49.27551" lon="-0.23516">
        <ele>3.1</ele>
        <time>2020-12-20T09:25:48Z</time>
      </trkpt>
      <trkpt lat="49.27552" lon="-0.2352">
        <ele>3.1</ele>
        <time>2020-12-20T09:25:50Z</time>
      </trkpt>
      <trkpt lat="49.27551" lon="-0.23526">
        <ele>3.1</ele>
        <time>2020-12-20T09:25:52Z</time>
      </trkpt>
      <trkpt lat="49.2755" lon="-0.23528">
        <ele>3.2</ele>
        <time>2020-12-20T09:25:55Z</time>
      </trkpt>
      <trkpt lat="49.2755" lon="-0.23529">
        <ele>3.2</ele>
        <time>2020-12-20T09:25:56Z</time>
      </trkpt>
      <trkpt lat="49.27549" lon="-0.23531">
        <ele>3.2</ele>
        <time>2020-12-20T09:25:58Z</time>
      </trkpt>
      <trkpt lat="49.27549" lon="-0.23534">
        <ele>3.2</ele>
        <time>2020-12-20T09:25:59Z</time>
      </trkpt>
      <trkpt lat="49.27549" lon="-0.23536">
        <ele>3.2</ele>
        <time>2020-12-20T09:26:00Z</time>
      </trkpt>
      <trkpt lat="49.27548" lon="-0.23539">
        <ele>3.2</ele>
        <time>2020-12-20T09:26:02Z</time>
      </trkpt>
      <trkpt lat="49.27548" lon="-0.23544">
        <ele>3.3</ele>
        <time>2020-12-20T09:26:03Z</time>
      </trkpt>
      <trkpt lat="49.27548" lon="-0.23547">
        <ele>3.3</ele>
        <time>2020-12-20T09:26:04Z</time>
      </trkpt>
      <trkpt lat="49.27546" lon="-0.23553">
        <ele>3.3</ele>
        <time>2020-12-20T09:26:06Z</time>
      </trkpt>
      <trkpt lat="49.27546" lon="-0.23557">
        <ele>3.4</ele>
        <time>2020-12-20T09:26:07Z</time>
      </trkpt>
      <trkpt lat="49.27547" lon="-0.23559">
        <ele>3.4</ele>
        <time>2020-12-20T09:26:08Z</time>
      </trkpt>
      <trkpt lat="49.27547" lon="-0.23563">
        <ele>3.4</ele>
        <time>2020-12-20T09:26:09Z</time>
      </trkpt>
      <trkpt lat="49.27547" lon="-0.23564">
        <ele>3.4</ele>
        <time>2020-12-20T09:26:11Z</time>
      </trkpt>
      <trkpt lat="49.27547" lon="-0.23566">
        <ele>3.4</ele>
        <time>2020-12-20T09:26:12Z</time>
      </trkpt>
      <trkpt lat="49.27547" lon="-0.23569">
        <ele>3.4</ele>
        <time>2020-12-20T09:26:13Z</time>
      </trkpt>
      <trkpt lat="49.27548" lon="-0.23573">
        <ele>3.4</ele>
        <time>2020-12-20T09:26:15Z</time>
      </trkpt>
      <trkpt lat="49.27549" lon="-0.23579">
        <ele>3.4</ele>
        <time>2020-12-20T09:26:16Z</time>
      </trkpt>
      <trkpt lat="49.2755" lon="-0.23585">
        <ele>3.4</ele>
        <time>2020-12-20T09:26:18Z</time>
      </trkpt>
      <trkpt lat="49.27551" lon="-0.23587">
        <ele>3.4</ele>
        <time>2020-12-20T09:26:19Z</time>
      </trkpt>
      <trkpt lat="49.27551" lon="-0.23592">
        <ele>3.4</ele>
        <time>2020-12-20T09:26:21Z</time>
      </trkpt>
      <trkpt lat="49.27552" lon="-0.23597">
        <ele>3.4</ele>
        <time>2020-12-20T09:26:22Z</time>
      </trkpt>
      <trkpt lat="49.27553" lon="-0.23601">
        <ele>3.4</ele>
        <time>2020-12-20T09:26:24Z</time>
      </trkpt>
      <trkpt lat="49.27553" lon="-0.23605">
        <ele>3.4</ele>
        <time>2020-12-20T09:26:25Z</time>
      </trkpt>
      <trkpt lat="49.27555" lon="-0.23612">
        <ele>3.4</ele>
        <time>2020-12-20T09:26:27Z</time>
      </trkpt>
      <trkpt lat="49.27555" lon="-0.23614">
        <ele>3.4</ele>
        <time>2020-12-20T09:26:29Z</time>
      </trkpt>
      <trkpt lat="49.27556" lon="-0.23615">
        <ele>3.4</ele>
        <time>2020-12-20T09:26:30Z</time>
      </trkpt>
      <trkpt lat="49.27558" lon="-0.2362">
        <ele>3.4</ele>
        <time>2020-12-20T09:26:31Z</time>
      </trkpt>
      <trkpt lat="49.27559" lon="-0.23622">
        <ele>3.4</ele>
        <time>2020-12-20T09:26:32Z</time>
      </trkpt>
      <trkpt lat="49.27561" lon="-0.23627">
        <ele>3.3</ele>
        <time>2020-12-20T09:26:34Z</time>
      </trkpt>
      <trkpt lat="49.27563" lon="-0.23631">
        <ele>3.3</ele>
        <time>2020-12-20T09:26:35Z</time>
      </trkpt>
      <trkpt lat="49.27565" lon="-0.23636">
        <ele>3.3</ele>
        <time>2020-12-20T09:26:37Z</time>
      </trkpt>
      <trkpt lat="49.27567" lon="-0.2364">
        <ele>3.3</ele>
        <time>2020-12-20T09:26:38Z</time>
      </trkpt>
      <trkpt lat="49.27569" lon="-0.23644">
        <ele>3.3</ele>
        <time>2020-12-20T09:26:39Z</time>
      </trkpt>
      <trkpt lat="49.2757" lon="-0.23646">
        <ele>3.3</ele>
        <time>2020-12-20T09:26:40Z</time>
      </trkpt>
      <trkpt lat="49.27572" lon="-0.23652">
        <ele>3.2</ele>
        <time>2020-12-20T09:26:42Z</time>
      </trkpt>
      <trkpt lat="49.27573" lon="-0.23655">
        <ele>3.2</ele>
        <time>2020-12-20T09:26:43Z</time>
      </trkpt>
      <trkpt lat="49.27574" lon="-0.23657">
        <ele>3.2</ele>
        <time>2020-12-20T09:26:44Z</time>
      </trkpt>
      <trkpt lat="49.27577" lon="-0.23663">
        <ele>3.2</ele>
        <time>2020-12-20T09:26:46Z</time>
      </trkpt>
      <trkpt lat="49.27578" lon="-0.23665">
        <ele>3.2</ele>
        <time>2020-12-20T09:26:47Z</time>
      </trkpt>
      <trkpt lat="49.2758" lon="-0.23669">
        <ele>3.2</ele>
        <time>2020-12-20T09:26:48Z</time>
      </trkpt>
      <trkpt lat="49.27582" lon="-0.23674">
        <ele>3.2</ele>
        <time>2020-12-20T09:26:50Z</time>
      </trkpt>
      <trkpt lat="49.27583" lon="-0.23676">
        <ele>3.2</ele>
        <time>2020-12-20T09:26:51Z</time>
      </trkpt>
      <trkpt lat="49.27584" lon="-0.23681">
        <ele>3.2</ele>
        <time>2020-12-20T09:26:53Z</time>
      </trkpt>
      <trkpt lat="49.27586" lon="-0.23688">
        <ele>3.1</ele>
        <time>2020-12-20T09:26:55Z</time>
      </trkpt>
      <trkpt lat="49.27587" lon="-0.2369">
        <ele>3.1</ele>
        <time>2020-12-20T09:26:57Z</time>
      </trkpt>
      <trkpt lat="49.27587" lon="-0.23692">
        <ele>3.1</ele>
        <time>2020-12-20T09:26:58Z</time>
      </trkpt>
      <trkpt lat="49.27588" lon="-0.23694">
        <ele>3.1</ele>
        <time>2020-12-20T09:26:59Z</time>
      </trkpt>
      <trkpt lat="49.2759" lon="-0.23698">
        <ele>3.1</ele>
        <time>2020-12-20T09:27:01Z</time>
      </trkpt>
      <trkpt lat="49.27591" lon="-0.23702">
        <ele>3.1</ele>
        <time>2020-12-20T09:27:03Z</time>
      </trkpt>
      <trkpt lat="49.27593" lon="-0.23707">
        <ele>3.1</ele>
        <time>2020-12-20T09:27:04Z</time>
      </trkpt>
      <trkpt lat="49.27595" lon="-0.23712">
        <ele>3.1</ele>
        <time>2020-12-20T09:27:06Z</time>
      </trkpt>
      <trkpt lat="49.27597" lon="-0.23716">
        <ele>3.1</ele>
        <time>2020-12-20T09:27:07Z</time>
      </trkpt>
      <trkpt lat="49.27599" lon="-0.2372">
        <ele>3.1</ele>
        <time>2020-12-20T09:27:09Z</time>
      </trkpt>
      <trkpt lat="49.27599" lon="-0.23721">
        <ele>3.1</ele>
        <time>2020-12-20T09:27:10Z</time>
      </trkpt>
      <trkpt lat="49.27601" lon="-0.23725">
        <ele>3.1</ele>
        <time>2020-12-20T09:27:11Z</time>
      </trkpt>
      <trkpt lat="49.27602" lon="-0.23729">
        <ele>3.1</ele>
        <time>2020-12-20T09:27:12Z</time>
      </trkpt>
      <trkpt lat="49.27603" lon="-0.2373">
        <ele>3.1</ele>
        <time>2020-12-20T09:27:13Z</time>
      </trkpt>
      <trkpt lat="49.27606" lon="-0.23736">
        <ele>3.1</ele>
        <time>2020-12-20T09:27:15Z</time>
      </trkpt>
      <trkpt lat="49.27607" lon="-0.23738">
        <ele>3.1</ele>
        <time>2020-12-20T09:27:17Z</time>
      </trkpt>
      <trkpt lat="49.27608" lon="-0.23741">
        <ele>3.1</ele>
        <time>2020-12-20T09:27:18Z</time>
      </trkpt>
      <trkpt lat="49.27611" lon="-0.23745">
        <ele>3.1</ele>
        <time>2020-12-20T09:27:20Z</time>
      </trkpt>
      <trkpt lat="49.27612" lon="-0.23746">
        <ele>3.1</ele>
        <time>2020-12-20T09:27:21Z</time>
      </trkpt>
      <trkpt lat="49.27614" lon="-0.23749">
        <ele>3.1</ele>
        <time>2020-12-20T09:27:23Z</time>
      </trkpt>
      <trkpt lat="49.27614" lon="-0.2375">
        <ele>3.2</ele>
        <time>2020-12-20T09:27:24Z</time>
      </trkpt>
      <trkpt lat="49.27617" lon="-0.23754">
        <ele>3.2</ele>
        <time>2020-12-20T09:27:25Z</time>
      </trkpt>
      <trkpt lat="49.27618" lon="-0.23756">
        <ele>3.2</ele>
        <time>2020-12-20T09:27:26Z</time>
      </trkpt>
      <trkpt lat="49.27621" lon="-0.23762">
        <ele>3.2</ele>
        <time>2020-12-20T09:27:28Z</time>
      </trkpt>
      <trkpt lat="49.27622" lon="-0.23764">
        <ele>3.2</ele>
        <time>2020-12-20T09:27:30Z</time>
      </trkpt>
      <trkpt lat="49.27623" lon="-0.23766">
        <ele>3.2</ele>
        <time>2020-12-20T09:27:31Z</time>
      </trkpt>
      <trkpt lat="49.27624" lon="-0.23768">
        <ele>3.2</ele>
        <time>2020-12-20T09:27:32Z</time>
      </trkpt>
      <trkpt lat="49.27626" lon="-0.23772">
        <ele>3.2</ele>
        <time>2020-12-20T09:27:34Z</time>
      </trkpt>
      <trkpt lat="49.27628" lon="-0.23776">
        <ele>3.2</ele>
        <time>2020-12-20T09:27:36Z</time>
      </trkpt>
      <trkpt lat="49.27631" lon="-0.2378">
        <ele>3.2</ele>
        <time>2020-12-20T09:27:37Z</time>
      </trkpt>
      <trkpt lat="49.27635" lon="-0.23784">
        <ele>3.2</ele>
        <time>2020-12-20T09:27:39Z</time>
      </trkpt>
      <trkpt lat="49.27637" lon="-0.23786">
        <ele>3.2</ele>
        <time>2020-12-20T09:27:40Z</time>
      </trkpt>
      <trkpt lat="49.27639" lon="-0.23787">
        <ele>3.3</ele>
        <time>2020-12-20T09:27:41Z</time>
      </trkpt>
      <trkpt lat="49.27641" lon="-0.2379">
        <ele>3.3</ele>
        <time>2020-12-20T09:27:43Z</time>
      </trkpt>
      <trkpt lat="49.27644" lon="-0.23793">
        <ele>3.3</ele>
        <time>2020-12-20T09:27:44Z</time>
      </trkpt>
      <trkpt lat="49.27646" lon="-0.23794">
        <ele>3.3</ele>
        <time>2020-12-20T09:27:45Z</time>
      </trkpt>
      <trkpt lat="49.27648" lon="-0.23796">
        <ele>3.3</ele>
        <time>2020-12-20T09:27:47Z</time>
      </trkpt>
      <trkpt lat="49.27651" lon="-0.23798">
        <ele>3.3</ele>
        <time>2020-12-20T09:27:48Z</time>
      </trkpt>
      <trkpt lat="49.27654" lon="-0.238">
        <ele>3.3</ele>
        <time>2020-12-20T09:27:50Z</time>
      </trkpt>
      <trkpt lat="49.27655" lon="-0.23801">
        <ele>3.3</ele>
        <time>2020-12-20T09:27:51Z</time>
      </trkpt>
      <trkpt lat="49.27659" lon="-0.23804">
        <ele>3.3</ele>
        <time>2020-12-20T09:27:52Z</time>
      </trkpt>
      <trkpt lat="49.2766" lon="-0.23805">
        <ele>3.3</ele>
        <time>2020-12-20T09:27:53Z</time>
      </trkpt>
      <trkpt lat="49.27663" lon="-0.23807">
        <ele>3.3</ele>
        <time>2020-12-20T09:27:55Z</time>
      </trkpt>
      <trkpt lat="49.27664" lon="-0.23808">
        <ele>3.3</ele>
        <time>2020-12-20T09:27:56Z</time>
      </trkpt>
      <trkpt lat="49.27666" lon="-0.2381">
        <ele>3.3</ele>
        <time>2020-12-20T09:27:57Z</time>
      </trkpt>
      <trkpt lat="49.27667" lon="-0.23811">
        <ele>3.3</ele>
        <time>2020-12-20T09:27:58Z</time>
      </trkpt>
      <trkpt lat="49.27669" lon="-0.23814">
        <ele>3.3</ele>
        <time>2020-12-20T09:28:00Z</time>
      </trkpt>
      <trkpt lat="49.27671" lon="-0.23816">
        <ele>3.3</ele>
        <time>2020-12-20T09:28:02Z</time>
      </trkpt>
      <trkpt lat="49.27673" lon="-0.23817">
        <ele>3.3</ele>
        <time>2020-12-20T09:28:03Z</time>
      </trkpt>
      <trkpt lat="49.27676" lon="-0.23819">
        <ele>3.2</ele>
        <time>2020-12-20T09:28:05Z</time>
      </trkpt>
      <trkpt lat="49.27678" lon="-0.23821">
        <ele>3.2</ele>
        <time>2020-12-20T09:28:06Z</time>
      </trkpt>
      <trkpt lat="49.2768" lon="-0.23823">
        <ele>3.2</ele>
        <time>2020-12-20T09:28:07Z</time>
      </trkpt>
      <trkpt lat="49.27682" lon="-0.23825">
        <ele>3.2</ele>
        <time>2020-12-20T09:28:09Z</time>
      </trkpt>
      <trkpt lat="49.27684" lon="-0.23827">
        <ele>3.2</ele>
        <time>2020-12-20T09:28:10Z</time>
      </trkpt>
      <trkpt lat="49.27687" lon="-0.2383">
        <ele>3.2</ele>
        <time>2020-12-20T09:28:12Z</time>
      </trkpt>
      <trkpt lat="49.2769" lon="-0.23833">
        <ele>3.2</ele>
        <time>2020-12-20T09:28:13Z</time>
      </trkpt>
      <trkpt lat="49.27692" lon="-0.23836">
        <ele>3.2</ele>
        <time>2020-12-20T09:28:14Z</time>
      </trkpt>
      <trkpt lat="49.27696" lon="-0.23839">
        <ele>3.2</ele>
        <time>2020-12-20T09:28:16Z</time>
      </trkpt>
      <trkpt lat="49.27697" lon="-0.2384">
        <ele>3.2</ele>
        <time>2020-12-20T09:28:17Z</time>
      </trkpt>
      <trkpt lat="49.27699" lon="-0.23843">
        <ele>3.3</ele>
        <time>2020-12-20T09:28:18Z</time>
      </trkpt>
      <trkpt lat="49.27702" lon="-0.23845">
        <ele>3.3</ele>
        <time>2020-12-20T09:28:19Z</time>
      </trkpt>
      <trkpt lat="49.27704" lon="-0.23848">
        <ele>3.3</ele>
        <time>2020-12-20T09:28:20Z</time>
      </trkpt>
      <trkpt lat="49.27707" lon="-0.23852">
        <ele>3.3</ele>
        <time>2020-12-20T09:28:22Z</time>
      </trkpt>
      <trkpt lat="49.27709" lon="-0.23856">
        <ele>3.3</ele>
        <time>2020-12-20T09:28:24Z</time>
      </trkpt>
      <trkpt lat="49.27713" lon="-0.2386">
        <ele>3.3</ele>
        <time>2020-12-20T09:28:25Z</time>
      </trkpt>
      <trkpt lat="49.27716" lon="-0.23864">
        <ele>3.3</ele>
        <time>2020-12-20T09:28:27Z</time>
      </trkpt>
      <trkpt lat="49.27719" lon="-0.23867">
        <ele>3.3</ele>
        <time>2020-12-20T09:28:28Z</time>
      </trkpt>
      <trkpt lat="49.2772" lon="-0.23869">
        <ele>3.3</ele>
        <time>2020-12-20T09:28:29Z</time>
      </trkpt>
      <trkpt lat="49.27721" lon="-0.23871">
        <ele>3.3</ele>
        <time>2020-12-20T09:28:31Z</time>
      </trkpt>
      <trkpt lat="49.27722" lon="-0.23873">
        <ele>3.3</ele>
        <time>2020-12-20T09:28:32Z</time>
      </trkpt>
      <trkpt lat="49.27723" lon="-0.23875">
        <ele>3.3</ele>
        <time>2020-12-20T09:28:33Z</time>
      </trkpt>
      <trkpt lat="49.27725" lon="-0.23878">
        <ele>3.3</ele>
        <time>2020-12-20T09:28:35Z</time>
      </trkpt>
      <trkpt lat="49.27727" lon="-0.23882">
        <ele>3.3</ele>
        <time>2020-12-20T09:28:36Z</time>
      </trkpt>
      <trkpt lat="49.2773" lon="-0.23885">
        <ele>3.2</ele>
        <time>2020-12-20T09:28:38Z</time>
      </trkpt>
      <trkpt lat="49.27732" lon="-0.23889">
        <ele>3.2</ele>
        <time>2020-12-20T09:28:39Z</time>
      </trkpt>
      <trkpt lat="49.27735" lon="-0.23893">
        <ele>3.2</ele>
        <time>2020-12-20T09:28:41Z</time>
      </trkpt>
      <trkpt lat="49.27736" lon="-0.23894">
        <ele>3.2</ele>
        <time>2020-12-20T09:28:42Z</time>
      </trkpt>
      <trkpt lat="49.27738" lon="-0.23899">
        <ele>3.2</ele>
        <time>2020-12-20T09:28:43Z</time>
      </trkpt>
      <trkpt lat="49.27738" lon="-0.239">
        <ele>3.2</ele>
        <time>2020-12-20T09:28:44Z</time>
      </trkpt>
      <trkpt lat="49.2774" lon="-0.23905">
        <ele>3.2</ele>
        <time>2020-12-20T09:28:46Z</time>
      </trkpt>
      <trkpt lat="49.27742" lon="-0.2391">
        <ele>3.2</ele>
        <time>2020-12-20T09:28:48Z</time>
      </trkpt>
      <trkpt lat="49.27744" lon="-0.23915">
        <ele>3.2</ele>
        <time>2020-12-20T09:28:49Z</time>
      </trkpt>
      <trkpt lat="49.27745" lon="-0.23919">
        <ele>3.2</ele>
        <time>2020-12-20T09:28:51Z</time>
      </trkpt>
      <trkpt lat="49.27747" lon="-0.23923">
        <ele>3.1</ele>
        <time>2020-12-20T09:28:52Z</time>
      </trkpt>
      <trkpt lat="49.27747" lon="-0.23926">
        <ele>3.1</ele>
        <time>2020-12-20T09:28:53Z</time>
      </trkpt>
      <trkpt lat="49.27749" lon="-0.23932">
        <ele>3.1</ele>
        <time>2020-12-20T09:28:55Z</time>
      </trkpt>
      <trkpt lat="49.2775" lon="-0.23937">
        <ele>3.1</ele>
        <time>2020-12-20T09:28:56Z</time>
      </trkpt>
      <trkpt lat="49.2775" lon="-0.23938">
        <ele>3.1</ele>
        <time>2020-12-20T09:28:57Z</time>
      </trkpt>
      <trkpt lat="49.27752" lon="-0.23945">
        <ele>3.1</ele>
        <time>2020-12-20T09:28:59Z</time>
      </trkpt>
      <trkpt lat="49.27752" lon="-0.23948">
        <ele>3.1</ele>
        <time>2020-12-20T09:29:00Z</time>
      </trkpt>
      <trkpt lat="49.27752" lon="-0.2395">
        <ele>3.1</ele>
        <time>2020-12-20T09:29:01Z</time>
      </trkpt>
      <trkpt lat="49.27753" lon="-0.23958">
        <ele>3.1</ele>
        <time>2020-12-20T09:29:03Z</time>
      </trkpt>
      <trkpt lat="49.27754" lon="-0.2396">
        <ele>3.1</ele>
        <time>2020-12-20T09:29:04Z</time>
      </trkpt>
      <trkpt lat="49.27754" lon="-0.23963">
        <ele>3.1</ele>
        <time>2020-12-20T09:29:05Z</time>
      </trkpt>
      <trkpt lat="49.27754" lon="-0.23966">
        <ele>3.1</ele>
        <time>2020-12-20T09:29:06Z</time>
      </trkpt>
      <trkpt lat="49.27755" lon="-0.23971">
        <ele>3.1</ele>
        <time>2020-12-20T09:29:08Z</time>
      </trkpt>
      <trkpt lat="49.27756" lon="-0.23976">
        <ele>3.1</ele>
        <time>2020-12-20T09:29:10Z</time>
      </trkpt>
      <trkpt lat="49.27756" lon="-0.2398">
        <ele>3.1</ele>
        <time>2020-12-20T09:29:11Z</time>
      </trkpt>
      <trkpt lat="49.27757" lon="-0.23984">
        <ele>3.1</ele>
        <time>2020-12-20T09:29:13Z</time>
      </trkpt>
      <trkpt lat="49.27757" lon="-0.23987">
        <ele>3.1</ele>
        <time>2020-12-20T09:29:15Z</time>
      </trkpt>
      <trkpt lat="49.27758" lon="-0.23991">
        <ele>3.1</ele>
        <time>2020-12-20T09:29:16Z</time>
      </trkpt>
      <trkpt lat="49.27759" lon="-0.23996">
        <ele>3.2</ele>
        <time>2020-12-20T09:29:18Z</time>
      </trkpt>
      <trkpt lat="49.27759" lon="-0.24001">
        <ele>3.2</ele>
        <time>2020-12-20T09:29:19Z</time>
      </trkpt>
      <trkpt lat="49.2776" lon="-0.24006">
        <ele>3.2</ele>
        <time>2020-12-20T09:29:21Z</time>
      </trkpt>
      <trkpt lat="49.2776" lon="-0.24012">
        <ele>3.2</ele>
        <time>2020-12-20T09:29:23Z</time>
      </trkpt>
      <trkpt lat="49.27761" lon="-0.24018">
        <ele>3.2</ele>
        <time>2020-12-20T09:29:24Z</time>
      </trkpt>
      <trkpt lat="49.27761" lon="-0.2402">
        <ele>3.2</ele>
        <time>2020-12-20T09:29:25Z</time>
      </trkpt>
      <trkpt lat="49.27762" lon="-0.24024">
        <ele>3.2</ele>
        <time>2020-12-20T09:29:27Z</time>
      </trkpt>
      <trkpt lat="49.27762" lon="-0.24029">
        <ele>3.2</ele>
        <time>2020-12-20T09:29:28Z</time>
      </trkpt>
      <trkpt lat="49.27763" lon="-0.24035">
        <ele>3.2</ele>
        <time>2020-12-20T09:29:29Z</time>
      </trkpt>
      <trkpt lat="49.27762" lon="-0.24041">
        <ele>3.1</ele>
        <time>2020-12-20T09:29:31Z</time>
      </trkpt>
      <trkpt lat="49.27761" lon="-0.24043">
        <ele>3.1</ele>
        <time>2020-12-20T09:29:32Z</time>
      </trkpt>
      <trkpt lat="49.2776" lon="-0.24045">
        <ele>3.1</ele>
        <time>2020-12-20T09:29:33Z</time>
      </trkpt>
      <trkpt lat="49.27758" lon="-0.24048">
        <ele>3.1</ele>
        <time>2020-12-20T09:29:35Z</time>
      </trkpt>
      <trkpt lat="49.27757" lon="-0.24047">
        <ele>3.1</ele>
        <time>2020-12-20T09:29:36Z</time>
      </trkpt>
      <trkpt lat="49.27756" lon="-0.24047">
        <ele>3.1</ele>
        <time>2020-12-20T09:29:38Z</time>
      </trkpt>
      <trkpt lat="49.27756" lon="-0.24046">
        <ele>3.1</ele>
        <time>2020-12-20T09:29:39Z</time>
      </trkpt>
      <trkpt lat="49.27756" lon="-0.24044">
        <ele>3.1</ele>
        <time>2020-12-20T09:29:40Z</time>
      </trkpt>
      <trkpt lat="49.27756" lon="-0.24042">
        <ele>3.1</ele>
        <time>2020-12-20T09:29:43Z</time>
      </trkpt>
      <trkpt lat="49.27756" lon="-0.24041">
        <ele>3.1</ele>
        <time>2020-12-20T09:29:45Z</time>
      </trkpt>
      <trkpt lat="49.27756" lon="-0.24041">
        <ele>3.1</ele>
        <time>2020-12-20T09:29:46Z</time>
      </trkpt>
      <trkpt lat="49.27755" lon="-0.24041">
        <ele>3.1</ele>
        <time>2020-12-20T09:29:47Z</time>
      </trkpt>
      <trkpt lat="49.27754" lon="-0.24043">
        <ele>3.1</ele>
        <time>2020-12-20T09:29:49Z</time>
      </trkpt>
      <trkpt lat="49.27755" lon="-0.24048">
        <ele>3</ele>
        <time>2020-12-20T09:29:50Z</time>
      </trkpt>
      <trkpt lat="49.27755" lon="-0.24053">
        <ele>3</ele>
        <time>2020-12-20T09:29:52Z</time>
      </trkpt>
      <trkpt lat="49.27755" lon="-0.24055">
        <ele>3</ele>
        <time>2020-12-20T09:29:53Z</time>
      </trkpt>
      <trkpt lat="49.27755" lon="-0.2406">
        <ele>3</ele>
        <time>2020-12-20T09:29:55Z</time>
      </trkpt>
      <trkpt lat="49.27755" lon="-0.24064">
        <ele>3</ele>
        <time>2020-12-20T09:29:57Z</time>
      </trkpt>
      <trkpt lat="49.27755" lon="-0.24066">
        <ele>3</ele>
        <time>2020-12-20T09:29:58Z</time>
      </trkpt>
      <trkpt lat="49.27755" lon="-0.24069">
        <ele>3</ele>
        <time>2020-12-20T09:29:59Z</time>
      </trkpt>
      <trkpt lat="49.27755" lon="-0.24071">
        <ele>3</ele>
        <time>2020-12-20T09:30:00Z</time>
      </trkpt>
      <trkpt lat="49.27756" lon="-0.24076">
        <ele>2.9</ele>
        <time>2020-12-20T09:30:02Z</time>
      </trkpt>
      <trkpt lat="49.27756" lon="-0.24078">
        <ele>2.9</ele>
        <time>2020-12-20T09:30:03Z</time>
      </trkpt>
      <trkpt lat="49.27757" lon="-0.2408">
        <ele>2.9</ele>
        <time>2020-12-20T09:30:04Z</time>
      </trkpt>
      <trkpt lat="49.27757" lon="-0.24083">
        <ele>2.9</ele>
        <time>2020-12-20T09:30:05Z</time>
      </trkpt>
      <trkpt lat="49.27758" lon="-0.24086">
        <ele>2.9</ele>
        <time>2020-12-20T09:30:07Z</time>
      </trkpt>
      <trkpt lat="49.27759" lon="-0.24091">
        <ele>2.9</ele>
        <time>2020-12-20T09:30:09Z</time>
      </trkpt>
      <trkpt lat="49.27759" lon="-0.24093">
        <ele>2.9</ele>
        <time>2020-12-20T09:30:10Z</time>
      </trkpt>
      <trkpt lat="49.2776" lon="-0.24097">
        <ele>2.9</ele>
        <time>2020-12-20T09:30:12Z</time>
      </trkpt>
      <trkpt lat="49.2776" lon="-0.24099">
        <ele>2.8</ele>
        <time>2020-12-20T09:30:13Z</time>
      </trkpt>
      <trkpt lat="49.2776" lon="-0.24101">
        <ele>2.8</ele>
        <time>2020-12-20T09:30:14Z</time>
      </trkpt>
      <trkpt lat="49.2776" lon="-0.24106">
        <ele>2.8</ele>
        <time>2020-12-20T09:30:16Z</time>
      </trkpt>
      <trkpt lat="49.27759" lon="-0.24107">
        <ele>2.8</ele>
        <time>2020-12-20T09:30:17Z</time>
      </trkpt>
      <trkpt lat="49.27759" lon="-0.24109">
        <ele>2.8</ele>
        <time>2020-12-20T09:30:18Z</time>
      </trkpt>
      <trkpt lat="49.27759" lon="-0.2411">
        <ele>2.8</ele>
        <time>2020-12-20T09:30:20Z</time>
      </trkpt>
      <trkpt lat="49.27759" lon="-0.24112">
        <ele>2.8</ele>
        <time>2020-12-20T09:30:21Z</time>
      </trkpt>
      <trkpt lat="49.27759" lon="-0.24113">
        <ele>2.8</ele>
        <time>2020-12-20T09:30:22Z</time>
      </trkpt>
      <trkpt lat="49.27759" lon="-0.24119">
        <ele>2.8</ele>
        <time>2020-12-20T09:30:24Z</time>
      </trkpt>
      <trkpt lat="49.2776" lon="-0.24124">
        <ele>2.8</ele>
        <time>2020-12-20T09:30:26Z</time>
      </trkpt>
      <trkpt lat="49.27761" lon="-0.24129">
        <ele>2.8</ele>
        <time>2020-12-20T09:30:27Z</time>
      </trkpt>
      <trkpt lat="49.27761" lon="-0.24133">
        <ele>2.8</ele>
        <time>2020-12-20T09:30:29Z</time>
      </trkpt>
      <trkpt lat="49.27761" lon="-0.24134">
        <ele>2.8</ele>
        <time>2020-12-20T09:30:30Z</time>
      </trkpt>
      <trkpt lat="49.27762" lon="-0.24136">
        <ele>2.8</ele>
        <time>2020-12-20T09:30:32Z</time>
      </trkpt>
      <trkpt lat="49.27762" lon="-0.2414">
        <ele>2.8</ele>
        <time>2020-12-20T09:30:33Z</time>
      </trkpt>
      <trkpt lat="49.27762" lon="-0.24146">
        <ele>2.8</ele>
        <time>2020-12-20T09:30:34Z</time>
      </trkpt>
      <trkpt lat="49.27763" lon="-0.24148">
        <ele>2.8</ele>
        <time>2020-12-20T09:30:35Z</time>
      </trkpt>
      <trkpt lat="49.27764" lon="-0.24154">
        <ele>2.8</ele>
        <time>2020-12-20T09:30:36Z</time>
      </trkpt>
      <trkpt lat="49.27764" lon="-0.24159">
        <ele>2.8</ele>
        <time>2020-12-20T09:30:38Z</time>
      </trkpt>
      <trkpt lat="49.27764" lon="-0.24161">
        <ele>2.9</ele>
        <time>2020-12-20T09:30:39Z</time>
      </trkpt>
      <trkpt lat="49.27765" lon="-0.24165">
        <ele>2.9</ele>
        <time>2020-12-20T09:30:40Z</time>
      </trkpt>
      <trkpt lat="49.27765" lon="-0.24171">
        <ele>2.9</ele>
        <time>2020-12-20T09:30:41Z</time>
      </trkpt>
      <trkpt lat="49.27766" lon="-0.24177">
        <ele>2.9</ele>
        <time>2020-12-20T09:30:43Z</time>
      </trkpt>
      <trkpt lat="49.27767" lon="-0.24183">
        <ele>2.9</ele>
        <time>2020-12-20T09:30:44Z</time>
      </trkpt>
      <trkpt lat="49.27767" lon="-0.24185">
        <ele>2.9</ele>
        <time>2020-12-20T09:30:45Z</time>
      </trkpt>
      <trkpt lat="49.27768" lon="-0.24191">
        <ele>2.9</ele>
        <time>2020-12-20T09:30:47Z</time>
      </trkpt>
      <trkpt lat="49.27769" lon="-0.24196">
        <ele>2.9</ele>
        <time>2020-12-20T09:30:48Z</time>
      </trkpt>
      <trkpt lat="49.2777" lon="-0.24201">
        <ele>2.9</ele>
        <time>2020-12-20T09:30:50Z</time>
      </trkpt>
      <trkpt lat="49.2777" lon="-0.24202">
        <ele>2.9</ele>
        <time>2020-12-20T09:30:51Z</time>
      </trkpt>
      <trkpt lat="49.27771" lon="-0.24205">
        <ele>2.9</ele>
        <time>2020-12-20T09:30:52Z</time>
      </trkpt>
      <trkpt lat="49.27772" lon="-0.24209">
        <ele>3</ele>
        <time>2020-12-20T09:30:54Z</time>
      </trkpt>
      <trkpt lat="49.27773" lon="-0.24213">
        <ele>3</ele>
        <time>2020-12-20T09:30:56Z</time>
      </trkpt>
      <trkpt lat="49.27774" lon="-0.24217">
        <ele>3</ele>
        <time>2020-12-20T09:30:58Z</time>
      </trkpt>
      <trkpt lat="49.27775" lon="-0.24222">
        <ele>3</ele>
        <time>2020-12-20T09:30:59Z</time>
      </trkpt>
      <trkpt lat="49.27775" lon="-0.24225">
        <ele>3</ele>
        <time>2020-12-20T09:31:00Z</time>
      </trkpt>
      <trkpt lat="49.27776" lon="-0.24228">
        <ele>3</ele>
        <time>2020-12-20T09:31:02Z</time>
      </trkpt>
      <trkpt lat="49.27777" lon="-0.24235">
        <ele>3</ele>
        <time>2020-12-20T09:31:03Z</time>
      </trkpt>
      <trkpt lat="49.27777" lon="-0.24238">
        <ele>3</ele>
        <time>2020-12-20T09:31:04Z</time>
      </trkpt>
      <trkpt lat="49.27778" lon="-0.24241">
        <ele>3</ele>
        <time>2020-12-20T09:31:05Z</time>
      </trkpt>
      <trkpt lat="49.27779" lon="-0.24247">
        <ele>3</ele>
        <time>2020-12-20T09:31:07Z</time>
      </trkpt>
      <trkpt lat="49.27781" lon="-0.24254">
        <ele>3</ele>
        <time>2020-12-20T09:31:08Z</time>
      </trkpt>
      <trkpt lat="49.27782" lon="-0.24258">
        <ele>3</ele>
        <time>2020-12-20T09:31:10Z</time>
      </trkpt>
      <trkpt lat="49.27783" lon="-0.24262">
        <ele>3</ele>
        <time>2020-12-20T09:31:11Z</time>
      </trkpt>
      <trkpt lat="49.27784" lon="-0.24266">
        <ele>3</ele>
        <time>2020-12-20T09:31:13Z</time>
      </trkpt>
      <trkpt lat="49.27785" lon="-0.24271">
        <ele>3</ele>
        <time>2020-12-20T09:31:14Z</time>
      </trkpt>
      <trkpt lat="49.27786" lon="-0.24273">
        <ele>3</ele>
        <time>2020-12-20T09:31:15Z</time>
      </trkpt>
      <trkpt lat="49.27787" lon="-0.24277">
        <ele>3</ele>
        <time>2020-12-20T09:31:16Z</time>
      </trkpt>
      <trkpt lat="49.27788" lon="-0.24281">
        <ele>3</ele>
        <time>2020-12-20T09:31:17Z</time>
      </trkpt>
      <trkpt lat="49.27788" lon="-0.24284">
        <ele>2.9</ele>
        <time>2020-12-20T09:31:18Z</time>
      </trkpt>
      <trkpt lat="49.27789" lon="-0.24289">
        <ele>2.9</ele>
        <time>2020-12-20T09:31:20Z</time>
      </trkpt>
      <trkpt lat="49.27791" lon="-0.24294">
        <ele>2.9</ele>
        <time>2020-12-20T09:31:22Z</time>
      </trkpt>
      <trkpt lat="49.27791" lon="-0.24297">
        <ele>2.9</ele>
        <time>2020-12-20T09:31:23Z</time>
      </trkpt>
      <trkpt lat="49.27792" lon="-0.24301">
        <ele>2.9</ele>
        <time>2020-12-20T09:31:25Z</time>
      </trkpt>
      <trkpt lat="49.27793" lon="-0.24306">
        <ele>2.9</ele>
        <time>2020-12-20T09:31:26Z</time>
      </trkpt>
      <trkpt lat="49.27793" lon="-0.24308">
        <ele>2.9</ele>
        <time>2020-12-20T09:31:28Z</time>
      </trkpt>
      <trkpt lat="49.27794" lon="-0.24311">
        <ele>2.9</ele>
        <time>2020-12-20T09:31:29Z</time>
      </trkpt>
      <trkpt lat="49.27795" lon="-0.24314">
        <ele>3</ele>
        <time>2020-12-20T09:31:30Z</time>
      </trkpt>
      <trkpt lat="49.27795" lon="-0.24319">
        <ele>3</ele>
        <time>2020-12-20T09:31:32Z</time>
      </trkpt>
      <trkpt lat="49.27796" lon="-0.24322">
        <ele>3</ele>
        <time>2020-12-20T09:31:33Z</time>
      </trkpt>
      <trkpt lat="49.27796" lon="-0.24326">
        <ele>3</ele>
        <time>2020-12-20T09:31:35Z</time>
      </trkpt>
      <trkpt lat="49.27797" lon="-0.2433">
        <ele>3</ele>
        <time>2020-12-20T09:31:36Z</time>
      </trkpt>
      <trkpt lat="49.27798" lon="-0.24335">
        <ele>3.1</ele>
        <time>2020-12-20T09:31:37Z</time>
      </trkpt>
      <trkpt lat="49.27798" lon="-0.24336">
        <ele>3.1</ele>
        <time>2020-12-20T09:31:38Z</time>
      </trkpt>
      <trkpt lat="49.27799" lon="-0.2434">
        <ele>3.1</ele>
        <time>2020-12-20T09:31:40Z</time>
      </trkpt>
      <trkpt lat="49.278" lon="-0.24346">
        <ele>3.1</ele>
        <time>2020-12-20T09:31:42Z</time>
      </trkpt>
      <trkpt lat="49.27801" lon="-0.24349">
        <ele>3.1</ele>
        <time>2020-12-20T09:31:43Z</time>
      </trkpt>
      <trkpt lat="49.27801" lon="-0.24353">
        <ele>3.1</ele>
        <time>2020-12-20T09:31:45Z</time>
      </trkpt>
      <trkpt lat="49.27802" lon="-0.24357">
        <ele>3.1</ele>
        <time>2020-12-20T09:31:46Z</time>
      </trkpt>
      <trkpt lat="49.27802" lon="-0.24361">
        <ele>3.1</ele>
        <time>2020-12-20T09:31:48Z</time>
      </trkpt>
      <trkpt lat="49.27803" lon="-0.24366">
        <ele>3.1</ele>
        <time>2020-12-20T09:31:49Z</time>
      </trkpt>
      <trkpt lat="49.27803" lon="-0.24367">
        <ele>3.1</ele>
        <time>2020-12-20T09:31:50Z</time>
      </trkpt>
      <trkpt lat="49.27803" lon="-0.2437">
        <ele>3.1</ele>
        <time>2020-12-20T09:31:51Z</time>
      </trkpt>
      <trkpt lat="49.27804" lon="-0.24375">
        <ele>3.1</ele>
        <time>2020-12-20T09:31:53Z</time>
      </trkpt>
      <trkpt lat="49.27804" lon="-0.24382">
        <ele>3.1</ele>
        <time>2020-12-20T09:31:54Z</time>
      </trkpt>
      <trkpt lat="49.27804" lon="-0.24384">
        <ele>3.1</ele>
        <time>2020-12-20T09:31:55Z</time>
      </trkpt>
      <trkpt lat="49.27804" lon="-0.24389">
        <ele>3.1</ele>
        <time>2020-12-20T09:31:56Z</time>
      </trkpt>
      <trkpt lat="49.27805" lon="-0.24394">
        <ele>3.1</ele>
        <time>2020-12-20T09:31:58Z</time>
      </trkpt>
      <trkpt lat="49.27805" lon="-0.24401">
        <ele>3.1</ele>
        <time>2020-12-20T09:32:00Z</time>
      </trkpt>
      <trkpt lat="49.27805" lon="-0.24404">
        <ele>3.1</ele>
        <time>2020-12-20T09:32:01Z</time>
      </trkpt>
      <trkpt lat="49.27805" lon="-0.24406">
        <ele>3.1</ele>
        <time>2020-12-20T09:32:02Z</time>
      </trkpt>
      <trkpt lat="49.27805" lon="-0.24411">
        <ele>3.1</ele>
        <time>2020-12-20T09:32:03Z</time>
      </trkpt>
      <trkpt lat="49.27805" lon="-0.24412">
        <ele>3.1</ele>
        <time>2020-12-20T09:32:04Z</time>
      </trkpt>
      <trkpt lat="49.27806" lon="-0.2442">
        <ele>3.1</ele>
        <time>2020-12-20T09:32:06Z</time>
      </trkpt>
      <trkpt lat="49.27806" lon="-0.24423">
        <ele>3.1</ele>
        <time>2020-12-20T09:32:07Z</time>
      </trkpt>
      <trkpt lat="49.27806" lon="-0.24425">
        <ele>3.1</ele>
        <time>2020-12-20T09:32:08Z</time>
      </trkpt>
      <trkpt lat="49.27807" lon="-0.24432">
        <ele>3.1</ele>
        <time>2020-12-20T09:32:10Z</time>
      </trkpt>
      <trkpt lat="49.27807" lon="-0.24438">
        <ele>3.1</ele>
        <time>2020-12-20T09:32:12Z</time>
      </trkpt>
      <trkpt lat="49.27808" lon="-0.24443">
        <ele>3.1</ele>
        <time>2020-12-20T09:32:13Z</time>
      </trkpt>
      <trkpt lat="49.27808" lon="-0.24449">
        <ele>3.1</ele>
        <time>2020-12-20T09:32:15Z</time>
      </trkpt>
      <trkpt lat="49.27809" lon="-0.24452">
        <ele>3.1</ele>
        <time>2020-12-20T09:32:16Z</time>
      </trkpt>
      <trkpt lat="49.27809" lon="-0.24456">
        <ele>3.1</ele>
        <time>2020-12-20T09:32:18Z</time>
      </trkpt>
      <trkpt lat="49.27809" lon="-0.24458">
        <ele>3.1</ele>
        <time>2020-12-20T09:32:19Z</time>
      </trkpt>
      <trkpt lat="49.27809" lon="-0.24461">
        <ele>3.1</ele>
        <time>2020-12-20T09:32:20Z</time>
      </trkpt>
      <trkpt lat="49.2781" lon="-0.24464">
        <ele>3.1</ele>
        <time>2020-12-20T09:32:21Z</time>
      </trkpt>
      <trkpt lat="49.2781" lon="-0.24466">
        <ele>3.1</ele>
        <time>2020-12-20T09:32:23Z</time>
      </trkpt>
      <trkpt lat="49.2781" lon="-0.24471">
        <ele>3.1</ele>
        <time>2020-12-20T09:32:24Z</time>
      </trkpt>
      <trkpt lat="49.2781" lon="-0.24473">
        <ele>3.1</ele>
        <time>2020-12-20T09:32:25Z</time>
      </trkpt>
      <trkpt lat="49.27811" lon="-0.24476">
        <ele>3.1</ele>
        <time>2020-12-20T09:32:26Z</time>
      </trkpt>
      <trkpt lat="49.27811" lon="-0.24481">
        <ele>3.1</ele>
        <time>2020-12-20T09:32:28Z</time>
      </trkpt>
      <trkpt lat="49.27811" lon="-0.24487">
        <ele>3.1</ele>
        <time>2020-12-20T09:32:29Z</time>
      </trkpt>
      <trkpt lat="49.27811" lon="-0.24488">
        <ele>3.1</ele>
        <time>2020-12-20T09:32:30Z</time>
      </trkpt>
      <trkpt lat="49.27812" lon="-0.24495">
        <ele>3.1</ele>
        <time>2020-12-20T09:32:32Z</time>
      </trkpt>
      <trkpt lat="49.27812" lon="-0.24497">
        <ele>3.1</ele>
        <time>2020-12-20T09:32:33Z</time>
      </trkpt>
      <trkpt lat="49.27813" lon="-0.24499">
        <ele>3.1</ele>
        <time>2020-12-20T09:32:34Z</time>
      </trkpt>
      <trkpt lat="49.27813" lon="-0.24502">
        <ele>3.1</ele>
        <time>2020-12-20T09:32:35Z</time>
      </trkpt>
      <trkpt lat="49.27813" lon="-0.24504">
        <ele>3.1</ele>
        <time>2020-12-20T09:32:37Z</time>
      </trkpt>
      <trkpt lat="49.27813" lon="-0.24506">
        <ele>3.1</ele>
        <time>2020-12-20T09:32:38Z</time>
      </trkpt>
      <trkpt lat="49.27814" lon="-0.24509">
        <ele>3.1</ele>
        <time>2020-12-20T09:32:39Z</time>
      </trkpt>
      <trkpt lat="49.27814" lon="-0.24512">
        <ele>3.1</ele>
        <time>2020-12-20T09:32:40Z</time>
      </trkpt>
      <trkpt lat="49.27814" lon="-0.24517">
        <ele>3.1</ele>
        <time>2020-12-20T09:32:42Z</time>
      </trkpt>
      <trkpt lat="49.27815" lon="-0.24522">
        <ele>3.1</ele>
        <time>2020-12-20T09:32:44Z</time>
      </trkpt>
      <trkpt lat="49.27815" lon="-0.24528">
        <ele>3.1</ele>
        <time>2020-12-20T09:32:45Z</time>
      </trkpt>
      <trkpt lat="49.27816" lon="-0.24533">
        <ele>3.1</ele>
        <time>2020-12-20T09:32:46Z</time>
      </trkpt>
      <trkpt lat="49.27816" lon="-0.24539">
        <ele>3.1</ele>
        <time>2020-12-20T09:32:48Z</time>
      </trkpt>
      <trkpt lat="49.27817" lon="-0.24543">
        <ele>3.1</ele>
        <time>2020-12-20T09:32:49Z</time>
      </trkpt>
      <trkpt lat="49.27817" lon="-0.24545">
        <ele>3.1</ele>
        <time>2020-12-20T09:32:50Z</time>
      </trkpt>
      <trkpt lat="49.27818" lon="-0.24552">
        <ele>3.1</ele>
        <time>2020-12-20T09:32:52Z</time>
      </trkpt>
      <trkpt lat="49.27818" lon="-0.24554">
        <ele>3.2</ele>
        <time>2020-12-20T09:32:53Z</time>
      </trkpt>
      <trkpt lat="49.27818" lon="-0.24556">
        <ele>3.2</ele>
        <time>2020-12-20T09:32:54Z</time>
      </trkpt>
      <trkpt lat="49.27819" lon="-0.24562">
        <ele>3.2</ele>
        <time>2020-12-20T09:32:55Z</time>
      </trkpt>
      <trkpt lat="49.27819" lon="-0.24564">
        <ele>3.2</ele>
        <time>2020-12-20T09:32:56Z</time>
      </trkpt>
      <trkpt lat="49.2782" lon="-0.24568">
        <ele>3.2</ele>
        <time>2020-12-20T09:32:58Z</time>
      </trkpt>
      <trkpt lat="49.2782" lon="-0.2457">
        <ele>3.2</ele>
        <time>2020-12-20T09:32:59Z</time>
      </trkpt>
      <trkpt lat="49.2782" lon="-0.24574">
        <ele>3.2</ele>
        <time>2020-12-20T09:33:00Z</time>
      </trkpt>
      <trkpt lat="49.27821" lon="-0.24579">
        <ele>3.2</ele>
        <time>2020-12-20T09:33:02Z</time>
      </trkpt>
      <trkpt lat="49.27822" lon="-0.24584">
        <ele>3.2</ele>
        <time>2020-12-20T09:33:03Z</time>
      </trkpt>
      <trkpt lat="49.27822" lon="-0.2459">
        <ele>3.3</ele>
        <time>2020-12-20T09:33:05Z</time>
      </trkpt>
      <trkpt lat="49.27823" lon="-0.24595">
        <ele>3.3</ele>
        <time>2020-12-20T09:33:06Z</time>
      </trkpt>
      <trkpt lat="49.27824" lon="-0.24598">
        <ele>3.3</ele>
        <time>2020-12-20T09:33:07Z</time>
      </trkpt>
      <trkpt lat="49.27824" lon="-0.24602">
        <ele>3.3</ele>
        <time>2020-12-20T09:33:09Z</time>
      </trkpt>
      <trkpt lat="49.27825" lon="-0.24607">
        <ele>3.4</ele>
        <time>2020-12-20T09:33:10Z</time>
      </trkpt>
      <trkpt lat="49.27825" lon="-0.2461">
        <ele>3.4</ele>
        <time>2020-12-20T09:33:11Z</time>
      </trkpt>
      <trkpt lat="49.27826" lon="-0.24615">
        <ele>3.4</ele>
        <time>2020-12-20T09:33:13Z</time>
      </trkpt>
      <trkpt lat="49.27827" lon="-0.24621">
        <ele>3.4</ele>
        <time>2020-12-20T09:33:14Z</time>
      </trkpt>
      <trkpt lat="49.27828" lon="-0.24623">
        <ele>3.4</ele>
        <time>2020-12-20T09:33:15Z</time>
      </trkpt>
      <trkpt lat="49.27829" lon="-0.24628">
        <ele>3.5</ele>
        <time>2020-12-20T09:33:17Z</time>
      </trkpt>
      <trkpt lat="49.2783" lon="-0.24633">
        <ele>3.5</ele>
        <time>2020-12-20T09:33:18Z</time>
      </trkpt>
      <trkpt lat="49.27832" lon="-0.24638">
        <ele>3.5</ele>
        <time>2020-12-20T09:33:20Z</time>
      </trkpt>
      <trkpt lat="49.27833" lon="-0.24642">
        <ele>3.5</ele>
        <time>2020-12-20T09:33:21Z</time>
      </trkpt>
      <trkpt lat="49.27834" lon="-0.24646">
        <ele>3.5</ele>
        <time>2020-12-20T09:33:23Z</time>
      </trkpt>
      <trkpt lat="49.27835" lon="-0.2465">
        <ele>3.6</ele>
        <time>2020-12-20T09:33:25Z</time>
      </trkpt>
      <trkpt lat="49.27836" lon="-0.24654">
        <ele>3.6</ele>
        <time>2020-12-20T09:33:26Z</time>
      </trkpt>
      <trkpt lat="49.27838" lon="-0.24658">
        <ele>3.6</ele>
        <time>2020-12-20T09:33:28Z</time>
      </trkpt>
      <trkpt lat="49.27839" lon="-0.24661">
        <ele>3.6</ele>
        <time>2020-12-20T09:33:29Z</time>
      </trkpt>
      <trkpt lat="49.2784" lon="-0.24665">
        <ele>3.7</ele>
        <time>2020-12-20T09:33:31Z</time>
      </trkpt>
      <trkpt lat="49.27842" lon="-0.24668">
        <ele>3.7</ele>
        <time>2020-12-20T09:33:32Z</time>
      </trkpt>
      <trkpt lat="49.27843" lon="-0.24673">
        <ele>3.7</ele>
        <time>2020-12-20T09:33:33Z</time>
      </trkpt>
      <trkpt lat="49.27844" lon="-0.24675">
        <ele>3.7</ele>
        <time>2020-12-20T09:33:34Z</time>
      </trkpt>
      <trkpt lat="49.27845" lon="-0.24679">
        <ele>3.7</ele>
        <time>2020-12-20T09:33:35Z</time>
      </trkpt>
      <trkpt lat="49.27847" lon="-0.24683">
        <ele>3.8</ele>
        <time>2020-12-20T09:33:37Z</time>
      </trkpt>
      <trkpt lat="49.27849" lon="-0.24688">
        <ele>3.8</ele>
        <time>2020-12-20T09:33:38Z</time>
      </trkpt>
      <trkpt lat="49.2785" lon="-0.24691">
        <ele>3.8</ele>
        <time>2020-12-20T09:33:40Z</time>
      </trkpt>
      <trkpt lat="49.27852" lon="-0.24695">
        <ele>3.9</ele>
        <time>2020-12-20T09:33:42Z</time>
      </trkpt>
      <trkpt lat="49.27853" lon="-0.24699">
        <ele>3.9</ele>
        <time>2020-12-20T09:33:43Z</time>
      </trkpt>
      <trkpt lat="49.27854" lon="-0.24701">
        <ele>3.9</ele>
        <time>2020-12-20T09:33:44Z</time>
      </trkpt>
      <trkpt lat="49.27855" lon="-0.24703">
        <ele>4</ele>
        <time>2020-12-20T09:33:45Z</time>
      </trkpt>
      <trkpt lat="49.27857" lon="-0.24707">
        <ele>4</ele>
        <time>2020-12-20T09:33:47Z</time>
      </trkpt>
      <trkpt lat="49.27859" lon="-0.24711">
        <ele>4.1</ele>
        <time>2020-12-20T09:33:49Z</time>
      </trkpt>
      <trkpt lat="49.27859" lon="-0.24714">
        <ele>4.1</ele>
        <time>2020-12-20T09:33:50Z</time>
      </trkpt>
      <trkpt lat="49.27861" lon="-0.24717">
        <ele>4.2</ele>
        <time>2020-12-20T09:33:52Z</time>
      </trkpt>
      <trkpt lat="49.27862" lon="-0.24722">
        <ele>4.2</ele>
        <time>2020-12-20T09:33:54Z</time>
      </trkpt>
      <trkpt lat="49.27864" lon="-0.24726">
        <ele>4.3</ele>
        <time>2020-12-20T09:33:55Z</time>
      </trkpt>
      <trkpt lat="49.27865" lon="-0.24729">
        <ele>4.3</ele>
        <time>2020-12-20T09:33:56Z</time>
      </trkpt>
      <trkpt lat="49.27867" lon="-0.24735">
        <ele>4.4</ele>
        <time>2020-12-20T09:33:58Z</time>
      </trkpt>
      <trkpt lat="49.27869" lon="-0.24739">
        <ele>4.5</ele>
        <time>2020-12-20T09:33:59Z</time>
      </trkpt>
      <trkpt lat="49.27871" lon="-0.24744">
        <ele>4.6</ele>
        <time>2020-12-20T09:34:01Z</time>
      </trkpt>
      <trkpt lat="49.27873" lon="-0.24749">
        <ele>4.7</ele>
        <time>2020-12-20T09:34:02Z</time>
      </trkpt>
      <trkpt lat="49.27874" lon="-0.24754">
        <ele>4.8</ele>
        <time>2020-12-20T09:34:04Z</time>
      </trkpt>
      <trkpt lat="49.27875" lon="-0.24757">
        <ele>4.9</ele>
        <time>2020-12-20T09:34:05Z</time>
      </trkpt>
      <trkpt lat="49.27877" lon="-0.2476">
        <ele>5</ele>
        <time>2020-12-20T09:34:07Z</time>
      </trkpt>
      <trkpt lat="49.27879" lon="-0.24763">
        <ele>5.1</ele>
        <time>2020-12-20T09:34:08Z</time>
      </trkpt>
      <trkpt lat="49.2788" lon="-0.24765">
        <ele>5.2</ele>
        <time>2020-12-20T09:34:09Z</time>
      </trkpt>
      <trkpt lat="49.27882" lon="-0.24768">
        <ele>5.3</ele>
        <time>2020-12-20T09:34:10Z</time>
      </trkpt>
      <trkpt lat="49.27882" lon="-0.24769">
        <ele>5.5</ele>
        <time>2020-12-20T09:34:11Z</time>
      </trkpt>
      <trkpt lat="49.27883" lon="-0.24771">
        <ele>5.5</ele>
        <time>2020-12-20T09:34:12Z</time>
      </trkpt>
      <trkpt lat="49.27885" lon="-0.24774">
        <ele>5.4</ele>
        <time>2020-12-20T09:34:14Z</time>
      </trkpt>
      <trkpt lat="49.27886" lon="-0.24776">
        <ele>5.4</ele>
        <time>2020-12-20T09:34:15Z</time>
      </trkpt>
      <trkpt lat="49.27887" lon="-0.24778">
        <ele>5.4</ele>
        <time>2020-12-20T09:34:16Z</time>
      </trkpt>
      <trkpt lat="49.27889" lon="-0.2478">
        <ele>5.4</ele>
        <time>2020-12-20T09:34:17Z</time>
      </trkpt>
      <trkpt lat="49.27891" lon="-0.24781">
        <ele>5.4</ele>
        <time>2020-12-20T09:34:19Z</time>
      </trkpt>
      <trkpt lat="49.27893" lon="-0.24783">
        <ele>5.3</ele>
        <time>2020-12-20T09:34:20Z</time>
      </trkpt>
      <trkpt lat="49.27895" lon="-0.24783">
        <ele>5.3</ele>
        <time>2020-12-20T09:34:21Z</time>
      </trkpt>
      <trkpt lat="49.27896" lon="-0.24783">
        <ele>5.3</ele>
        <time>2020-12-20T09:34:22Z</time>
      </trkpt>
      <trkpt lat="49.27898" lon="-0.24783">
        <ele>5.3</ele>
        <time>2020-12-20T09:34:24Z</time>
      </trkpt>
      <trkpt lat="49.279" lon="-0.24783">
        <ele>5.3</ele>
        <time>2020-12-20T09:34:25Z</time>
      </trkpt>
      <trkpt lat="49.27903" lon="-0.24782">
        <ele>5.3</ele>
        <time>2020-12-20T09:34:27Z</time>
      </trkpt>
      <trkpt lat="49.27906" lon="-0.24781">
        <ele>5.3</ele>
        <time>2020-12-20T09:34:28Z</time>
      </trkpt>
      <trkpt lat="49.27907" lon="-0.24781">
        <ele>5.3</ele>
        <time>2020-12-20T09:34:29Z</time>
      </trkpt>
      <trkpt lat="49.27911" lon="-0.24779">
        <ele>5.3</ele>
        <time>2020-12-20T09:34:31Z</time>
      </trkpt>
      <trkpt lat="49.27912" lon="-0.24778">
        <ele>5.3</ele>
        <time>2020-12-20T09:34:32Z</time>
      </trkpt>
      <trkpt lat="49.27915" lon="-0.24777">
        <ele>5.4</ele>
        <time>2020-12-20T09:34:33Z</time>
      </trkpt>
      <trkpt lat="49.27916" lon="-0.24776">
        <ele>5.4</ele>
        <time>2020-12-20T09:34:34Z</time>
      </trkpt>
      <trkpt lat="49.2792" lon="-0.24774">
        <ele>5.4</ele>
        <time>2020-12-20T09:34:36Z</time>
      </trkpt>
      <trkpt lat="49.27921" lon="-0.24773">
        <ele>5.4</ele>
        <time>2020-12-20T09:34:37Z</time>
      </trkpt>
      <trkpt lat="49.27924" lon="-0.24772">
        <ele>5.4</ele>
        <time>2020-12-20T09:34:39Z</time>
      </trkpt>
      <trkpt lat="49.27927" lon="-0.24771">
        <ele>5.4</ele>
        <time>2020-12-20T09:34:41Z</time>
      </trkpt>
      <trkpt lat="49.2793" lon="-0.24769">
        <ele>5.4</ele>
        <time>2020-12-20T09:34:42Z</time>
      </trkpt>
      <trkpt lat="49.27933" lon="-0.24767">
        <ele>5.4</ele>
        <time>2020-12-20T09:34:44Z</time>
      </trkpt>
      <trkpt lat="49.27936" lon="-0.24765">
        <ele>5.4</ele>
        <time>2020-12-20T09:34:45Z</time>
      </trkpt>
      <trkpt lat="49.27939" lon="-0.24764">
        <ele>5.4</ele>
        <time>2020-12-20T09:34:46Z</time>
      </trkpt>
      <trkpt lat="49.27942" lon="-0.24763">
        <ele>5.4</ele>
        <time>2020-12-20T09:34:47Z</time>
      </trkpt>
      <trkpt lat="49.27943" lon="-0.24762">
        <ele>5.4</ele>
        <time>2020-12-20T09:34:48Z</time>
      </trkpt>
      <trkpt lat="49.27946" lon="-0.24759">
        <ele>5.4</ele>
        <time>2020-12-20T09:34:50Z</time>
      </trkpt>
      <trkpt lat="49.27947" lon="-0.24758">
        <ele>5.4</ele>
        <time>2020-12-20T09:34:51Z</time>
      </trkpt>
      <trkpt lat="49.27951" lon="-0.24756">
        <ele>5.3</ele>
        <time>2020-12-20T09:34:52Z</time>
      </trkpt>
      <trkpt lat="49.27952" lon="-0.24756">
        <ele>5.3</ele>
        <time>2020-12-20T09:34:53Z</time>
      </trkpt>
      <trkpt lat="49.27955" lon="-0.24754">
        <ele>5.3</ele>
        <time>2020-12-20T09:34:55Z</time>
      </trkpt>
      <trkpt lat="49.27957" lon="-0.24753">
        <ele>5.3</ele>
        <time>2020-12-20T09:34:56Z</time>
      </trkpt>
      <trkpt lat="49.2796" lon="-0.24752">
        <ele>5.3</ele>
        <time>2020-12-20T09:34:58Z</time>
      </trkpt>
      <trkpt lat="49.27962" lon="-0.24751">
        <ele>5.3</ele>
        <time>2020-12-20T09:34:59Z</time>
      </trkpt>
      <trkpt lat="49.27964" lon="-0.2475">
        <ele>5.3</ele>
        <time>2020-12-20T09:35:01Z</time>
      </trkpt>
      <trkpt lat="49.27967" lon="-0.24748">
        <ele>5.3</ele>
        <time>2020-12-20T09:35:02Z</time>
      </trkpt>
      <trkpt lat="49.27968" lon="-0.24747">
        <ele>5.3</ele>
        <time>2020-12-20T09:35:03Z</time>
      </trkpt>
      <trkpt lat="49.27971" lon="-0.24746">
        <ele>5.3</ele>
        <time>2020-12-20T09:35:05Z</time>
      </trkpt>
      <trkpt lat="49.27975" lon="-0.24744">
        <ele>5.2</ele>
        <time>2020-12-20T09:35:06Z</time>
      </trkpt>
      <trkpt lat="49.27978" lon="-0.24742">
        <ele>5.2</ele>
        <time>2020-12-20T09:35:08Z</time>
      </trkpt>
      <trkpt lat="49.27981" lon="-0.24741">
        <ele>5.2</ele>
        <time>2020-12-20T09:35:09Z</time>
      </trkpt>
      <trkpt lat="49.27984" lon="-0.24739">
        <ele>5.2</ele>
        <time>2020-12-20T09:35:11Z</time>
      </trkpt>
      <trkpt lat="49.27989" lon="-0.24738">
        <ele>5.2</ele>
        <time>2020-12-20T09:35:13Z</time>
      </trkpt>
      <trkpt lat="49.27991" lon="-0.24737">
        <ele>5.2</ele>
        <time>2020-12-20T09:35:14Z</time>
      </trkpt>
      <trkpt lat="49.27992" lon="-0.24737">
        <ele>5.2</ele>
        <time>2020-12-20T09:35:15Z</time>
      </trkpt>
      <trkpt lat="49.27996" lon="-0.24736">
        <ele>5.2</ele>
        <time>2020-12-20T09:35:16Z</time>
      </trkpt>
      <trkpt lat="49.27998" lon="-0.24736">
        <ele>5.2</ele>
        <time>2020-12-20T09:35:17Z</time>
      </trkpt>
      <trkpt lat="49.28001" lon="-0.24736">
        <ele>5.2</ele>
        <time>2020-12-20T09:35:19Z</time>
      </trkpt>
      <trkpt lat="49.28003" lon="-0.24737">
        <ele>5.2</ele>
        <time>2020-12-20T09:35:20Z</time>
      </trkpt>
      <trkpt lat="49.28005" lon="-0.24739">
        <ele>5.2</ele>
        <time>2020-12-20T09:35:22Z</time>
      </trkpt>
      <trkpt lat="49.28007" lon="-0.24742">
        <ele>5.1</ele>
        <time>2020-12-20T09:35:23Z</time>
      </trkpt>
      <trkpt lat="49.28009" lon="-0.24747">
        <ele>5</ele>
        <time>2020-12-20T09:35:25Z</time>
      </trkpt>
      <trkpt lat="49.2801" lon="-0.2475">
        <ele>5</ele>
        <time>2020-12-20T09:35:26Z</time>
      </trkpt>
      <trkpt lat="49.28011" lon="-0.24753">
        <ele>4.9</ele>
        <time>2020-12-20T09:35:27Z</time>
      </trkpt>
      <trkpt lat="49.28013" lon="-0.24756">
        <ele>4.9</ele>
        <time>2020-12-20T09:35:29Z</time>
      </trkpt>
      <trkpt lat="49.28014" lon="-0.2476">
        <ele>4.8</ele>
        <time>2020-12-20T09:35:30Z</time>
      </trkpt>
      <trkpt lat="49.28015" lon="-0.24764">
        <ele>4.7</ele>
        <time>2020-12-20T09:35:31Z</time>
      </trkpt>
      <trkpt lat="49.28017" lon="-0.24769">
        <ele>4.6</ele>
        <time>2020-12-20T09:35:33Z</time>
      </trkpt>
      <trkpt lat="49.28018" lon="-0.24772">
        <ele>4.6</ele>
        <time>2020-12-20T09:35:34Z</time>
      </trkpt>
      <trkpt lat="49.2802" lon="-0.24776">
        <ele>4.5</ele>
        <time>2020-12-20T09:35:35Z</time>
      </trkpt>
      <trkpt lat="49.28022" lon="-0.24782">
        <ele>4.5</ele>
        <time>2020-12-20T09:35:37Z</time>
      </trkpt>
      <trkpt lat="49.28023" lon="-0.24784">
        <ele>4.4</ele>
        <time>2020-12-20T09:35:39Z</time>
      </trkpt>
      <trkpt lat="49.28023" lon="-0.24786">
        <ele>4.4</ele>
        <time>2020-12-20T09:35:40Z</time>
      </trkpt>
      <trkpt lat="49.28024" lon="-0.24788">
        <ele>4.4</ele>
        <time>2020-12-20T09:35:41Z</time>
      </trkpt>
      <trkpt lat="49.28025" lon="-0.2479">
        <ele>4.4</ele>
        <time>2020-12-20T09:35:42Z</time>
      </trkpt>
      <trkpt lat="49.28025" lon="-0.24793">
        <ele>4.4</ele>
        <time>2020-12-20T09:35:44Z</time>
      </trkpt>
      <trkpt lat="49.28026" lon="-0.24795">
        <ele>4.4</ele>
        <time>2020-12-20T09:35:45Z</time>
      </trkpt>
      <trkpt lat="49.28026" lon="-0.24799">
        <ele>4.3</ele>
        <time>2020-12-20T09:35:46Z</time>
      </trkpt>
      <trkpt lat="49.28026" lon="-0.24801">
        <ele>4.3</ele>
        <time>2020-12-20T09:35:47Z</time>
      </trkpt>
      <trkpt lat="49.28027" lon="-0.24804">
        <ele>4.3</ele>
        <time>2020-12-20T09:35:48Z</time>
      </trkpt>
      <trkpt lat="49.28028" lon="-0.24807">
        <ele>4.3</ele>
        <time>2020-12-20T09:35:50Z</time>
      </trkpt>
      <trkpt lat="49.2803" lon="-0.24811">
        <ele>4.3</ele>
        <time>2020-12-20T09:35:51Z</time>
      </trkpt>
      <trkpt lat="49.28032" lon="-0.24817">
        <ele>4.3</ele>
        <time>2020-12-20T09:35:53Z</time>
      </trkpt>
      <trkpt lat="49.28032" lon="-0.24819">
        <ele>4.3</ele>
        <time>2020-12-20T09:35:54Z</time>
      </trkpt>
      <trkpt lat="49.28033" lon="-0.24821">
        <ele>4.3</ele>
        <time>2020-12-20T09:35:55Z</time>
      </trkpt>
      <trkpt lat="49.28033" lon="-0.24823">
        <ele>4.3</ele>
        <time>2020-12-20T09:35:57Z</time>
      </trkpt>
      <trkpt lat="49.28033" lon="-0.24826">
        <ele>4.3</ele>
        <time>2020-12-20T09:35:58Z</time>
      </trkpt>
      <trkpt lat="49.28034" lon="-0.24829">
        <ele>4.3</ele>
        <time>2020-12-20T09:35:59Z</time>
      </trkpt>
      <trkpt lat="49.28034" lon="-0.24833">
        <ele>4.3</ele>
        <time>2020-12-20T09:36:01Z</time>
      </trkpt>
      <trkpt lat="49.28035" lon="-0.2484">
        <ele>4.3</ele>
        <time>2020-12-20T09:36:02Z</time>
      </trkpt>
      <trkpt lat="49.28035" lon="-0.24845">
        <ele>4.3</ele>
        <time>2020-12-20T09:36:04Z</time>
      </trkpt>
      <trkpt lat="49.28035" lon="-0.24849">
        <ele>4.3</ele>
        <time>2020-12-20T09:36:05Z</time>
      </trkpt>
      <trkpt lat="49.28036" lon="-0.24854">
        <ele>4.3</ele>
        <time>2020-12-20T09:36:06Z</time>
      </trkpt>
      <trkpt lat="49.28036" lon="-0.24855">
        <ele>4.3</ele>
        <time>2020-12-20T09:36:07Z</time>
      </trkpt>
      <trkpt lat="49.28036" lon="-0.24861">
        <ele>4.3</ele>
        <time>2020-12-20T09:36:09Z</time>
      </trkpt>
      <trkpt lat="49.28037" lon="-0.24867">
        <ele>4.3</ele>
        <time>2020-12-20T09:36:11Z</time>
      </trkpt>
      <trkpt lat="49.28037" lon="-0.24869">
        <ele>4.3</ele>
        <time>2020-12-20T09:36:12Z</time>
      </trkpt>
      <trkpt lat="49.28037" lon="-0.24872">
        <ele>4.3</ele>
        <time>2020-12-20T09:36:13Z</time>
      </trkpt>
      <trkpt lat="49.28037" lon="-0.24874">
        <ele>4.3</ele>
        <time>2020-12-20T09:36:15Z</time>
      </trkpt>
      <trkpt lat="49.28037" lon="-0.24879">
        <ele>4.3</ele>
        <time>2020-12-20T09:36:16Z</time>
      </trkpt>
      <trkpt lat="49.28037" lon="-0.2488">
        <ele>4.3</ele>
        <time>2020-12-20T09:36:17Z</time>
      </trkpt>
      <trkpt lat="49.28037" lon="-0.24886">
        <ele>4.3</ele>
        <time>2020-12-20T09:36:18Z</time>
      </trkpt>
      <trkpt lat="49.28037" lon="-0.24887">
        <ele>4.3</ele>
        <time>2020-12-20T09:36:19Z</time>
      </trkpt>
      <trkpt lat="49.28037" lon="-0.24894">
        <ele>4.3</ele>
        <time>2020-12-20T09:36:21Z</time>
      </trkpt>
      <trkpt lat="49.28036" lon="-0.24897">
        <ele>4.3</ele>
        <time>2020-12-20T09:36:22Z</time>
      </trkpt>
      <trkpt lat="49.28037" lon="-0.24903">
        <ele>4.3</ele>
        <time>2020-12-20T09:36:24Z</time>
      </trkpt>
      <trkpt lat="49.28038" lon="-0.24905">
        <ele>4.3</ele>
        <time>2020-12-20T09:36:25Z</time>
      </trkpt>
      <trkpt lat="49.28038" lon="-0.24907">
        <ele>4.3</ele>
        <time>2020-12-20T09:36:26Z</time>
      </trkpt>
      <trkpt lat="49.28038" lon="-0.24912">
        <ele>4.3</ele>
        <time>2020-12-20T09:36:28Z</time>
      </trkpt>
      <trkpt lat="49.28039" lon="-0.24914">
        <ele>4.3</ele>
        <time>2020-12-20T09:36:29Z</time>
      </trkpt>
      <trkpt lat="49.28039" lon="-0.24916">
        <ele>4.3</ele>
        <time>2020-12-20T09:36:30Z</time>
      </trkpt>
      <trkpt lat="49.2804" lon="-0.24919">
        <ele>4.3</ele>
        <time>2020-12-20T09:36:31Z</time>
      </trkpt>
      <trkpt lat="49.2804" lon="-0.24923">
        <ele>4.3</ele>
        <time>2020-12-20T09:36:33Z</time>
      </trkpt>
      <trkpt lat="49.2804" lon="-0.24926">
        <ele>4.3</ele>
        <time>2020-12-20T09:36:35Z</time>
      </trkpt>
      <trkpt lat="49.2804" lon="-0.24931">
        <ele>4.3</ele>
        <time>2020-12-20T09:36:36Z</time>
      </trkpt>
      <trkpt lat="49.2804" lon="-0.24933">
        <ele>4.3</ele>
        <time>2020-12-20T09:36:37Z</time>
      </trkpt>
      <trkpt lat="49.28041" lon="-0.24938">
        <ele>4.3</ele>
        <time>2020-12-20T09:36:39Z</time>
      </trkpt>
      <trkpt lat="49.28041" lon="-0.24942">
        <ele>4.3</ele>
        <time>2020-12-20T09:36:41Z</time>
      </trkpt>
      <trkpt lat="49.2804" lon="-0.24946">
        <ele>4.3</ele>
        <time>2020-12-20T09:36:43Z</time>
      </trkpt>
      <trkpt lat="49.28039" lon="-0.2495">
        <ele>4.2</ele>
        <time>2020-12-20T09:36:44Z</time>
      </trkpt>
      <trkpt lat="49.28038" lon="-0.24954">
        <ele>4.1</ele>
        <time>2020-12-20T09:36:45Z</time>
      </trkpt>
      <trkpt lat="49.28037" lon="-0.24957">
        <ele>4</ele>
        <time>2020-12-20T09:36:47Z</time>
      </trkpt>
      <trkpt lat="49.28036" lon="-0.24963">
        <ele>3.8</ele>
        <time>2020-12-20T09:36:48Z</time>
      </trkpt>
      <trkpt lat="49.28035" lon="-0.24965">
        <ele>3.6</ele>
        <time>2020-12-20T09:36:49Z</time>
      </trkpt>
      <trkpt lat="49.28034" lon="-0.24968">
        <ele>3.4</ele>
        <time>2020-12-20T09:36:50Z</time>
      </trkpt>
      <trkpt lat="49.28033" lon="-0.24973">
        <ele>3.3</ele>
        <time>2020-12-20T09:36:52Z</time>
      </trkpt>
      <trkpt lat="49.28032" lon="-0.24979">
        <ele>3.3</ele>
        <time>2020-12-20T09:36:54Z</time>
      </trkpt>
      <trkpt lat="49.28031" lon="-0.2498">
        <ele>3.2</ele>
        <time>2020-12-20T09:36:55Z</time>
      </trkpt>
      <trkpt lat="49.2803" lon="-0.24984">
        <ele>3.3</ele>
        <time>2020-12-20T09:36:56Z</time>
      </trkpt>
      <trkpt lat="49.28029" lon="-0.24985">
        <ele>3.3</ele>
        <time>2020-12-20T09:36:57Z</time>
      </trkpt>
      <trkpt lat="49.28028" lon="-0.24987">
        <ele>3.6</ele>
        <time>2020-12-20T09:36:59Z</time>
      </trkpt>
      <trkpt lat="49.28027" lon="-0.24989">
        <ele>3.5</ele>
        <time>2020-12-20T09:37:00Z</time>
      </trkpt>
      <trkpt lat="49.28024" lon="-0.24993">
        <ele>4</ele>
        <time>2020-12-20T09:37:02Z</time>
      </trkpt>
      <trkpt lat="49.28022" lon="-0.24994">
        <ele>4</ele>
        <time>2020-12-20T09:37:03Z</time>
      </trkpt>
      <trkpt lat="49.2802" lon="-0.24996">
        <ele>4.6</ele>
        <time>2020-12-20T09:37:05Z</time>
      </trkpt>
      <trkpt lat="49.28019" lon="-0.24996">
        <ele>4.6</ele>
        <time>2020-12-20T09:37:06Z</time>
      </trkpt>
      <trkpt lat="49.28017" lon="-0.24998">
        <ele>5.4</ele>
        <time>2020-12-20T09:37:07Z</time>
      </trkpt>
      <trkpt lat="49.28016" lon="-0.25001">
        <ele>5.3</ele>
        <time>2020-12-20T09:37:09Z</time>
      </trkpt>
      <trkpt lat="49.28015" lon="-0.25005">
        <ele>6.1</ele>
        <time>2020-12-20T09:37:10Z</time>
      </trkpt>
      <trkpt lat="49.28015" lon="-0.25006">
        <ele>6</ele>
        <time>2020-12-20T09:37:11Z</time>
      </trkpt>
      <trkpt lat="49.28013" lon="-0.25008">
        <ele>6.7</ele>
        <time>2020-12-20T09:37:12Z</time>
      </trkpt>
      <trkpt lat="49.28011" lon="-0.2501">
        <ele>6.7</ele>
        <time>2020-12-20T09:37:14Z</time>
      </trkpt>
      <trkpt lat="49.28008" lon="-0.25013">
        <ele>7.2</ele>
        <time>2020-12-20T09:37:15Z</time>
      </trkpt>
      <trkpt lat="49.28007" lon="-0.25014">
        <ele>7.2</ele>
        <time>2020-12-20T09:37:16Z</time>
      </trkpt>
      <trkpt lat="49.28005" lon="-0.25017">
        <ele>7.6</ele>
        <time>2020-12-20T09:37:17Z</time>
      </trkpt>
      <trkpt lat="49.28004" lon="-0.25017">
        <ele>7.5</ele>
        <time>2020-12-20T09:37:18Z</time>
      </trkpt>
      <trkpt lat="49.28001" lon="-0.25021">
        <ele>7.8</ele>
        <time>2020-12-20T09:37:20Z</time>
      </trkpt>
      <trkpt lat="49.28" lon="-0.25022">
        <ele>7.7</ele>
        <time>2020-12-20T09:37:21Z</time>
      </trkpt>
      <trkpt lat="49.27998" lon="-0.25026">
        <ele>7.8</ele>
        <time>2020-12-20T09:37:22Z</time>
      </trkpt>
      <trkpt lat="49.27995" lon="-0.25029">
        <ele>7.8</ele>
        <time>2020-12-20T09:37:23Z</time>
      </trkpt>
      <trkpt lat="49.27992" lon="-0.25033">
        <ele>7.7</ele>
        <time>2020-12-20T09:37:25Z</time>
      </trkpt>
      <trkpt lat="49.27991" lon="-0.25035">
        <ele>7.6</ele>
        <time>2020-12-20T09:37:26Z</time>
      </trkpt>
      <trkpt lat="49.27989" lon="-0.25038">
        <ele>7.5</ele>
        <time>2020-12-20T09:37:27Z</time>
      </trkpt>
      <trkpt lat="49.27986" lon="-0.25041">
        <ele>7.4</ele>
        <time>2020-12-20T09:37:28Z</time>
      </trkpt>
      <trkpt lat="49.27984" lon="-0.25044">
        <ele>7.4</ele>
        <time>2020-12-20T09:37:29Z</time>
      </trkpt>
      <trkpt lat="49.27982" lon="-0.25047">
        <ele>7.3</ele>
        <time>2020-12-20T09:37:31Z</time>
      </trkpt>
      <trkpt lat="49.2798" lon="-0.2505">
        <ele>7.2</ele>
        <time>2020-12-20T09:37:32Z</time>
      </trkpt>
      <trkpt lat="49.27978" lon="-0.25053">
        <ele>7.1</ele>
        <time>2020-12-20T09:37:33Z</time>
      </trkpt>
      <trkpt lat="49.27977" lon="-0.25054">
        <ele>7.1</ele>
        <time>2020-12-20T09:37:34Z</time>
      </trkpt>
      <trkpt lat="49.27975" lon="-0.25058">
        <ele>7</ele>
        <time>2020-12-20T09:37:36Z</time>
      </trkpt>
      <trkpt lat="49.27974" lon="-0.25059">
        <ele>7</ele>
        <time>2020-12-20T09:37:37Z</time>
      </trkpt>
      <trkpt lat="49.27972" lon="-0.25063">
        <ele>7</ele>
        <time>2020-12-20T09:37:39Z</time>
      </trkpt>
      <trkpt lat="49.27971" lon="-0.25064">
        <ele>7</ele>
        <time>2020-12-20T09:37:40Z</time>
      </trkpt>
      <trkpt lat="49.27968" lon="-0.25068">
        <ele>7</ele>
        <time>2020-12-20T09:37:42Z</time>
      </trkpt>
      <trkpt lat="49.27967" lon="-0.25069">
        <ele>6.9</ele>
        <time>2020-12-20T09:37:43Z</time>
      </trkpt>
      <trkpt lat="49.27965" lon="-0.25073">
        <ele>6.9</ele>
        <time>2020-12-20T09:37:44Z</time>
      </trkpt>
      <trkpt lat="49.27964" lon="-0.25074">
        <ele>6.8</ele>
        <time>2020-12-20T09:37:45Z</time>
      </trkpt>
      <trkpt lat="49.27962" lon="-0.25076">
        <ele>6.7</ele>
        <time>2020-12-20T09:37:46Z</time>
      </trkpt>
      <trkpt lat="49.27961" lon="-0.25077">
        <ele>6.7</ele>
        <time>2020-12-20T09:37:47Z</time>
      </trkpt>
      <trkpt lat="49.27958" lon="-0.2508">
        <ele>6.6</ele>
        <time>2020-12-20T09:37:49Z</time>
      </trkpt>
      <trkpt lat="49.27957" lon="-0.25081">
        <ele>6.5</ele>
        <time>2020-12-20T09:37:50Z</time>
      </trkpt>
      <trkpt lat="49.27954" lon="-0.25083">
        <ele>6.4</ele>
        <time>2020-12-20T09:37:51Z</time>
      </trkpt>
      <trkpt lat="49.27953" lon="-0.25084">
        <ele>6.3</ele>
        <time>2020-12-20T09:37:52Z</time>
      </trkpt>
      <trkpt lat="49.2795" lon="-0.25086">
        <ele>6.2</ele>
        <time>2020-12-20T09:37:54Z</time>
      </trkpt>
      <trkpt lat="49.27949" lon="-0.25087">
        <ele>6.1</ele>
        <time>2020-12-20T09:37:55Z</time>
      </trkpt>
      <trkpt lat="49.27946" lon="-0.2509">
        <ele>6</ele>
        <time>2020-12-20T09:37:57Z</time>
      </trkpt>
      <trkpt lat="49.27944" lon="-0.25091">
        <ele>5.9</ele>
        <time>2020-12-20T09:37:58Z</time>
      </trkpt>
      <trkpt lat="49.27941" lon="-0.25093">
        <ele>5.8</ele>
        <time>2020-12-20T09:38:00Z</time>
      </trkpt>
      <trkpt lat="49.27936" lon="-0.25095">
        <ele>5.6</ele>
        <time>2020-12-20T09:38:02Z</time>
      </trkpt>
      <trkpt lat="49.27935" lon="-0.25095">
        <ele>5.6</ele>
        <time>2020-12-20T09:38:03Z</time>
      </trkpt>
      <trkpt lat="49.27933" lon="-0.25096">
        <ele>5.4</ele>
        <time>2020-12-20T09:38:04Z</time>
      </trkpt>
      <trkpt lat="49.2793" lon="-0.25097">
        <ele>5.4</ele>
        <time>2020-12-20T09:38:06Z</time>
      </trkpt>
      <trkpt lat="49.27928" lon="-0.25098">
        <ele>5.3</ele>
        <time>2020-12-20T09:38:07Z</time>
      </trkpt>
      <trkpt lat="49.27924" lon="-0.251">
        <ele>5.1</ele>
        <time>2020-12-20T09:38:08Z</time>
      </trkpt>
      <trkpt lat="49.27921" lon="-0.25101">
        <ele>5</ele>
        <time>2020-12-20T09:38:09Z</time>
      </trkpt>
      <trkpt lat="49.2792" lon="-0.25101">
        <ele>5</ele>
        <time>2020-12-20T09:38:10Z</time>
      </trkpt>
      <trkpt lat="49.27917" lon="-0.25103">
        <ele>4.9</ele>
        <time>2020-12-20T09:38:12Z</time>
      </trkpt>
      <trkpt lat="49.27916" lon="-0.25104">
        <ele>4.8</ele>
        <time>2020-12-20T09:38:13Z</time>
      </trkpt>
      <trkpt lat="49.27911" lon="-0.25106">
        <ele>4.7</ele>
        <time>2020-12-20T09:38:16Z</time>
      </trkpt>
      <trkpt lat="49.27908" lon="-0.25109">
        <ele>4.6</ele>
        <time>2020-12-20T09:38:18Z</time>
      </trkpt>
      <trkpt lat="49.27905" lon="-0.25111">
        <ele>4.5</ele>
        <time>2020-12-20T09:38:20Z</time>
      </trkpt>
      <trkpt lat="49.27904" lon="-0.25113">
        <ele>4.5</ele>
        <time>2020-12-20T09:38:22Z</time>
      </trkpt>
      <trkpt lat="49.27903" lon="-0.25114">
        <ele>4.5</ele>
        <time>2020-12-20T09:38:23Z</time>
      </trkpt>
      <trkpt lat="49.27899" lon="-0.25121">
        <ele>4.4</ele>
        <time>2020-12-20T09:38:25Z</time>
      </trkpt>
      <trkpt lat="49.27898" lon="-0.25123">
        <ele>4.4</ele>
        <time>2020-12-20T09:38:27Z</time>
      </trkpt>
      <trkpt lat="49.27896" lon="-0.25126">
        <ele>4.4</ele>
        <time>2020-12-20T09:38:28Z</time>
      </trkpt>
      <trkpt lat="49.27895" lon="-0.25128">
        <ele>4.4</ele>
        <time>2020-12-20T09:38:29Z</time>
      </trkpt>
      <trkpt lat="49.27893" lon="-0.25131">
        <ele>4.4</ele>
        <time>2020-12-20T09:38:30Z</time>
      </trkpt>
      <trkpt lat="49.27891" lon="-0.25134">
        <ele>4.3</ele>
        <time>2020-12-20T09:38:32Z</time>
      </trkpt>
      <trkpt lat="49.2789" lon="-0.25138">
        <ele>4.3</ele>
        <time>2020-12-20T09:38:33Z</time>
      </trkpt>
      <trkpt lat="49.27889" lon="-0.25139">
        <ele>4.3</ele>
        <time>2020-12-20T09:38:34Z</time>
      </trkpt>
      <trkpt lat="49.27887" lon="-0.25144">
        <ele>4.3</ele>
        <time>2020-12-20T09:38:36Z</time>
      </trkpt>
      <trkpt lat="49.27885" lon="-0.25146">
        <ele>4.3</ele>
        <time>2020-12-20T09:38:37Z</time>
      </trkpt>
      <trkpt lat="49.27885" lon="-0.25149">
        <ele>4.2</ele>
        <time>2020-12-20T09:38:38Z</time>
      </trkpt>
      <trkpt lat="49.27885" lon="-0.2515">
        <ele>4.2</ele>
        <time>2020-12-20T09:38:40Z</time>
      </trkpt>
      <trkpt lat="49.27884" lon="-0.25151">
        <ele>4.2</ele>
        <time>2020-12-20T09:38:41Z</time>
      </trkpt>
      <trkpt lat="49.27883" lon="-0.25153">
        <ele>4.2</ele>
        <time>2020-12-20T09:38:42Z</time>
      </trkpt>
      <trkpt lat="49.27882" lon="-0.25155">
        <ele>4.2</ele>
        <time>2020-12-20T09:38:43Z</time>
      </trkpt>
      <trkpt lat="49.27882" lon="-0.25158">
        <ele>4.2</ele>
        <time>2020-12-20T09:38:44Z</time>
      </trkpt>
      <trkpt lat="49.27881" lon="-0.25159">
        <ele>4.2</ele>
        <time>2020-12-20T09:38:46Z</time>
      </trkpt>
      <trkpt lat="49.27881" lon="-0.25161">
        <ele>4.2</ele>
        <time>2020-12-20T09:38:47Z</time>
      </trkpt>
      <trkpt lat="49.27878" lon="-0.25166">
        <ele>4.2</ele>
        <time>2020-12-20T09:38:49Z</time>
      </trkpt>
      <trkpt lat="49.27877" lon="-0.25172">
        <ele>4.1</ele>
        <time>2020-12-20T09:38:51Z</time>
      </trkpt>
      <trkpt lat="49.27875" lon="-0.25177">
        <ele>4.1</ele>
        <time>2020-12-20T09:38:52Z</time>
      </trkpt>
      <trkpt lat="49.27874" lon="-0.25179">
        <ele>4.1</ele>
        <time>2020-12-20T09:38:53Z</time>
      </trkpt>
      <trkpt lat="49.27871" lon="-0.25184">
        <ele>4.1</ele>
        <time>2020-12-20T09:38:55Z</time>
      </trkpt>
      <trkpt lat="49.2787" lon="-0.25188">
        <ele>4.1</ele>
        <time>2020-12-20T09:38:56Z</time>
      </trkpt>
      <trkpt lat="49.27868" lon="-0.25192">
        <ele>4</ele>
        <time>2020-12-20T09:38:58Z</time>
      </trkpt>
      <trkpt lat="49.27866" lon="-0.25195">
        <ele>4</ele>
        <time>2020-12-20T09:38:59Z</time>
      </trkpt>
      <trkpt lat="49.27864" lon="-0.252">
        <ele>4</ele>
        <time>2020-12-20T09:39:00Z</time>
      </trkpt>
      <trkpt lat="49.27862" lon="-0.25204">
        <ele>4</ele>
        <time>2020-12-20T09:39:02Z</time>
      </trkpt>
      <trkpt lat="49.2786" lon="-0.25209">
        <ele>4</ele>
        <time>2020-12-20T09:39:04Z</time>
      </trkpt>
      <trkpt lat="49.27857" lon="-0.25213">
        <ele>3.9</ele>
        <time>2020-12-20T09:39:05Z</time>
      </trkpt>
      <trkpt lat="49.27857" lon="-0.25215">
        <ele>3.9</ele>
        <time>2020-12-20T09:39:06Z</time>
      </trkpt>
      <trkpt lat="49.27855" lon="-0.25219">
        <ele>3.9</ele>
        <time>2020-12-20T09:39:08Z</time>
      </trkpt>
      <trkpt lat="49.27853" lon="-0.25224">
        <ele>3.9</ele>
        <time>2020-12-20T09:39:09Z</time>
      </trkpt>
      <trkpt lat="49.27851" lon="-0.25229">
        <ele>3.9</ele>
        <time>2020-12-20T09:39:11Z</time>
      </trkpt>
      <trkpt lat="49.27849" lon="-0.25234">
        <ele>3.9</ele>
        <time>2020-12-20T09:39:13Z</time>
      </trkpt>
      <trkpt lat="49.27847" lon="-0.25238">
        <ele>3.9</ele>
        <time>2020-12-20T09:39:14Z</time>
      </trkpt>
      <trkpt lat="49.27845" lon="-0.25243">
        <ele>3.9</ele>
        <time>2020-12-20T09:39:15Z</time>
      </trkpt>
      <trkpt lat="49.27845" lon="-0.25244">
        <ele>3.9</ele>
        <time>2020-12-20T09:39:16Z</time>
      </trkpt>
      <trkpt lat="49.27844" lon="-0.25248">
        <ele>3.9</ele>
        <time>2020-12-20T09:39:18Z</time>
      </trkpt>
      <trkpt lat="49.27843" lon="-0.25253">
        <ele>3.9</ele>
        <time>2020-12-20T09:39:20Z</time>
      </trkpt>
      <trkpt lat="49.27842" lon="-0.25255">
        <ele>3.8</ele>
        <time>2020-12-20T09:39:21Z</time>
      </trkpt>
      <trkpt lat="49.27841" lon="-0.25257">
        <ele>3.8</ele>
        <time>2020-12-20T09:39:22Z</time>
      </trkpt>
      <trkpt lat="49.27839" lon="-0.25262">
        <ele>3.8</ele>
        <time>2020-12-20T09:39:23Z</time>
      </trkpt>
      <trkpt lat="49.27839" lon="-0.25263">
        <ele>3.8</ele>
        <time>2020-12-20T09:39:24Z</time>
      </trkpt>
      <trkpt lat="49.27837" lon="-0.25268">
        <ele>3.8</ele>
        <time>2020-12-20T09:39:26Z</time>
      </trkpt>
      <trkpt lat="49.27835" lon="-0.25272">
        <ele>3.8</ele>
        <time>2020-12-20T09:39:28Z</time>
      </trkpt>
      <trkpt lat="49.27834" lon="-0.25276">
        <ele>3.8</ele>
        <time>2020-12-20T09:39:29Z</time>
      </trkpt>
      <trkpt lat="49.27832" lon="-0.25281">
        <ele>3.8</ele>
        <time>2020-12-20T09:39:31Z</time>
      </trkpt>
      <trkpt lat="49.27832" lon="-0.25282">
        <ele>3.8</ele>
        <time>2020-12-20T09:39:32Z</time>
      </trkpt>
      <trkpt lat="49.27831" lon="-0.25285">
        <ele>3.8</ele>
        <time>2020-12-20T09:39:33Z</time>
      </trkpt>
      <trkpt lat="49.27829" lon="-0.25288">
        <ele>3.8</ele>
        <time>2020-12-20T09:39:35Z</time>
      </trkpt>
      <trkpt lat="49.27828" lon="-0.25291">
        <ele>3.8</ele>
        <time>2020-12-20T09:39:36Z</time>
      </trkpt>
      <trkpt lat="49.27827" lon="-0.25296">
        <ele>3.8</ele>
        <time>2020-12-20T09:39:37Z</time>
      </trkpt>
      <trkpt lat="49.27825" lon="-0.25299">
        <ele>3.8</ele>
        <time>2020-12-20T09:39:38Z</time>
      </trkpt>
      <trkpt lat="49.27824" lon="-0.25302">
        <ele>3.8</ele>
        <time>2020-12-20T09:39:40Z</time>
      </trkpt>
      <trkpt lat="49.27822" lon="-0.25307">
        <ele>3.8</ele>
        <time>2020-12-20T09:39:41Z</time>
      </trkpt>
      <trkpt lat="49.27821" lon="-0.25309">
        <ele>3.8</ele>
        <time>2020-12-20T09:39:42Z</time>
      </trkpt>
      <trkpt lat="49.27819" lon="-0.25313">
        <ele>3.8</ele>
        <time>2020-12-20T09:39:44Z</time>
      </trkpt>
      <trkpt lat="49.27818" lon="-0.25316">
        <ele>3.8</ele>
        <time>2020-12-20T09:39:45Z</time>
      </trkpt>
      <trkpt lat="49.27816" lon="-0.25319">
        <ele>3.8</ele>
        <time>2020-12-20T09:39:47Z</time>
      </trkpt>
      <trkpt lat="49.27815" lon="-0.25322">
        <ele>3.8</ele>
        <time>2020-12-20T09:39:48Z</time>
      </trkpt>
      <trkpt lat="49.27813" lon="-0.25326">
        <ele>3.7</ele>
        <time>2020-12-20T09:39:50Z</time>
      </trkpt>
      <trkpt lat="49.27815" lon="-0.25331">
        <ele>3.7</ele>
        <time>2020-12-20T09:39:51Z</time>
      </trkpt>
      <trkpt lat="49.27814" lon="-0.25333">
        <ele>3.7</ele>
        <time>2020-12-20T09:39:53Z</time>
      </trkpt>
      <trkpt lat="49.27815" lon="-0.25334">
        <ele>3.7</ele>
        <time>2020-12-20T09:39:54Z</time>
      </trkpt>
      <trkpt lat="49.27816" lon="-0.25334">
        <ele>3.7</ele>
        <time>2020-12-20T09:39:55Z</time>
      </trkpt>
      <trkpt lat="49.27817" lon="-0.25334">
        <ele>3.7</ele>
        <time>2020-12-20T09:39:56Z</time>
      </trkpt>
      <trkpt lat="49.27817" lon="-0.25332">
        <ele>3.7</ele>
        <time>2020-12-20T09:39:57Z</time>
      </trkpt>
      <trkpt lat="49.27817" lon="-0.25332">
        <ele>3.7</ele>
        <time>2020-12-20T09:39:58Z</time>
      </trkpt>
      <trkpt lat="49.27816" lon="-0.25333">
        <ele>3.7</ele>
        <time>2020-12-20T09:39:59Z</time>
      </trkpt>
      <trkpt lat="49.27815" lon="-0.25333">
        <ele>3.7</ele>
        <time>2020-12-20T09:40:01Z</time>
      </trkpt>
      <trkpt lat="49.27814" lon="-0.25333">
        <ele>3.7</ele>
        <time>2020-12-20T09:40:02Z</time>
      </trkpt>
      <trkpt lat="49.27813" lon="-0.25332">
        <ele>3.7</ele>
        <time>2020-12-20T09:40:03Z</time>
      </trkpt>
      <trkpt lat="49.27811" lon="-0.25333">
        <ele>3.7</ele>
        <time>2020-12-20T09:40:05Z</time>
      </trkpt>
      <trkpt lat="49.27812" lon="-0.25332">
        <ele>3.7</ele>
        <time>2020-12-20T09:40:07Z</time>
      </trkpt>
      <trkpt lat="49.27813" lon="-0.2533">
        <ele>3.7</ele>
        <time>2020-12-20T09:40:08Z</time>
      </trkpt>
      <trkpt lat="49.27813" lon="-0.2533">
        <ele>3.7</ele>
        <time>2020-12-20T09:40:10Z</time>
      </trkpt>
      <trkpt lat="49.27814" lon="-0.25329">
        <ele>3.7</ele>
        <time>2020-12-20T09:40:11Z</time>
      </trkpt>
      <trkpt lat="49.27815" lon="-0.25329">
        <ele>3.7</ele>
        <time>2020-12-20T09:40:13Z</time>
      </trkpt>
      <trkpt lat="49.27815" lon="-0.25329">
        <ele>3.7</ele>
        <time>2020-12-20T09:40:15Z</time>
      </trkpt>
      <trkpt lat="49.27816" lon="-0.2533">
        <ele>3.7</ele>
        <time>2020-12-20T09:40:16Z</time>
      </trkpt>
      <trkpt lat="49.27816" lon="-0.25331">
        <ele>3.7</ele>
        <time>2020-12-20T09:40:18Z</time>
      </trkpt>
      <trkpt lat="49.27816" lon="-0.25331">
        <ele>3.7</ele>
        <time>2020-12-20T09:40:20Z</time>
      </trkpt>
      <trkpt lat="49.27816" lon="-0.25331">
        <ele>3.7</ele>
        <time>2020-12-20T09:40:21Z</time>
      </trkpt>
      <trkpt lat="49.27816" lon="-0.25333">
        <ele>3.7</ele>
        <time>2020-12-20T09:40:24Z</time>
      </trkpt>
      <trkpt lat="49.27816" lon="-0.25335">
        <ele>3.7</ele>
        <time>2020-12-20T09:40:25Z</time>
      </trkpt>
      <trkpt lat="49.27816" lon="-0.25335">
        <ele>3.7</ele>
        <time>2020-12-20T09:40:27Z</time>
      </trkpt>
      <trkpt lat="49.27816" lon="-0.25335">
        <ele>3.7</ele>
        <time>2020-12-20T09:40:28Z</time>
      </trkpt>
      <trkpt lat="49.27816" lon="-0.25335">
        <ele>3.7</ele>
        <time>2020-12-20T09:40:30Z</time>
      </trkpt>
      <trkpt lat="49.27816" lon="-0.25335">
        <ele>3.7</ele>
        <time>2020-12-20T09:40:31Z</time>
      </trkpt>
      <trkpt lat="49.27816" lon="-0.25335">
        <ele>3.7</ele>
        <time>2020-12-20T09:40:32Z</time>
      </trkpt>
      <trkpt lat="49.27816" lon="-0.25335">
        <ele>3.7</ele>
        <time>2020-12-20T09:40:33Z</time>
      </trkpt>
      <trkpt lat="49.27816" lon="-0.25335">
        <ele>3.7</ele>
        <time>2020-12-20T09:40:35Z</time>
      </trkpt>
      <trkpt lat="49.27816" lon="-0.25335">
        <ele>3.7</ele>
        <time>2020-12-20T09:40:37Z</time>
      </trkpt>
      <trkpt lat="49.27816" lon="-0.25335">
        <ele>3.7</ele>
        <time>2020-12-20T09:40:39Z</time>
      </trkpt>
      <trkpt lat="49.27816" lon="-0.25335">
        <ele>3.7</ele>
        <time>2020-12-20T09:40:41Z</time>
      </trkpt>
      <trkpt lat="49.27816" lon="-0.25335">
        <ele>3.7</ele>
        <time>2020-12-20T09:40:43Z</time>
      </trkpt>
      <trkpt lat="49.27816" lon="-0.25335">
        <ele>3.7</ele>
        <time>2020-12-20T09:40:44Z</time>
      </trkpt>
      <trkpt lat="49.27816" lon="-0.25335">
        <ele>3.7</ele>
        <time>2020-12-20T09:40:47Z</time>
      </trkpt>
      <trkpt lat="49.27816" lon="-0.25335">
        <ele>3.7</ele>
        <time>2020-12-20T09:40:48Z</time>
      </trkpt>
      <trkpt lat="49.27816" lon="-0.25335">
        <ele>3.7</ele>
        <time>2020-12-20T09:40:50Z</time>
      </trkpt>
      <trkpt lat="49.27816" lon="-0.25335">
        <ele>3.7</ele>
        <time>2020-12-20T09:40:51Z</time>
      </trkpt>
      <trkpt lat="49.27816" lon="-0.25335">
        <ele>3.7</ele>
        <time>2020-12-20T09:40:53Z</time>
      </trkpt>
      <trkpt lat="49.27816" lon="-0.25335">
        <ele>3.7</ele>
        <time>2020-12-20T09:40:54Z</time>
      </trkpt>
      <trkpt lat="49.27816" lon="-0.25335">
        <ele>3.7</ele>
        <time>2020-12-20T09:40:56Z</time>
      </trkpt>
      <trkpt lat="49.27816" lon="-0.25335">
        <ele>3.7</ele>
        <time>2020-12-20T09:40:57Z</time>
      </trkpt>
      <trkpt lat="49.27816" lon="-0.25335">
        <ele>3.7</ele>
        <time>2020-12-20T09:41:00Z</time>
      </trkpt>
      <trkpt lat="49.27816" lon="-0.25335">
        <ele>3.7</ele>
        <time>2020-12-20T09:41:02Z</time>
      </trkpt>
      <trkpt lat="49.27816" lon="-0.25335">
        <ele>3.7</ele>
        <time>2020-12-20T09:41:04Z</time>
      </trkpt>
      <trkpt lat="49.27816" lon="-0.25335">
        <ele>3.7</ele>
        <time>2020-12-20T09:41:05Z</time>
      </trkpt>
      <trkpt lat="49.27816" lon="-0.25335">
        <ele>3.7</ele>
        <time>2020-12-20T09:41:07Z</time>
      </trkpt>
      <trkpt lat="49.27816" lon="-0.25335">
        <ele>3.7</ele>
        <time>2020-12-20T09:41:08Z</time>
      </trkpt>
      <trkpt lat="49.27816" lon="-0.25335">
        <ele>3.7</ele>
        <time>2020-12-20T09:41:09Z</time>
      </trkpt>
      <trkpt lat="49.27816" lon="-0.25335">
        <ele>3.7</ele>
        <time>2020-12-20T09:41:10Z</time>
      </trkpt>
      <trkpt lat="49.27816" lon="-0.25335">
        <ele>3.7</ele>
        <time>2020-12-20T09:41:12Z</time>
      </trkpt>
      <trkpt lat="49.27816" lon="-0.25335">
        <ele>3.7</ele>
        <time>2020-12-20T09:41:13Z</time>
      </trkpt>
      <trkpt lat="49.27816" lon="-0.25335">
        <ele>3.7</ele>
        <time>2020-12-20T09:41:15Z</time>
      </trkpt>
      <trkpt lat="49.27816" lon="-0.25335">
        <ele>3.7</ele>
        <time>2020-12-20T09:41:17Z</time>
      </trkpt>
      <trkpt lat="49.27816" lon="-0.25335">
        <ele>3.7</ele>
        <time>2020-12-20T09:41:19Z</time>
      </trkpt>
      <trkpt lat="49.27816" lon="-0.25335">
        <ele>3.7</ele>
        <time>2020-12-20T09:41:20Z</time>
      </trkpt>
      <trkpt lat="49.27816" lon="-0.25335">
        <ele>3.7</ele>
        <time>2020-12-20T09:41:21Z</time>
      </trkpt>
      <trkpt lat="49.27816" lon="-0.25335">
        <ele>3.7</ele>
        <time>2020-12-20T09:41:22Z</time>
      </trkpt>
      <trkpt lat="49.27816" lon="-0.25335">
        <ele>3.7</ele>
        <time>2020-12-20T09:41:23Z</time>
      </trkpt>
      <trkpt lat="49.27816" lon="-0.25335">
        <ele>3.7</ele>
        <time>2020-12-20T09:41:25Z</time>
      </trkpt>
      <trkpt lat="49.27816" lon="-0.25335">
        <ele>3.7</ele>
        <time>2020-12-20T09:41:26Z</time>
      </trkpt>
      <trkpt lat="49.27816" lon="-0.25335">
        <ele>3.7</ele>
        <time>2020-12-20T09:41:28Z</time>
      </trkpt>
      <trkpt lat="49.27816" lon="-0.25335">
        <ele>3.7</ele>
        <time>2020-12-20T09:41:29Z</time>
      </trkpt>
      <trkpt lat="49.27816" lon="-0.25335">
        <ele>3.7</ele>
        <time>2020-12-20T09:41:31Z</time>
      </trkpt>
      <trkpt lat="49.27816" lon="-0.25335">
        <ele>3.7</ele>
        <time>2020-12-20T09:41:33Z</time>
      </trkpt>
      <trkpt lat="49.27816" lon="-0.25335">
        <ele>3.7</ele>
        <time>2020-12-20T09:41:34Z</time>
      </trkpt>
      <trkpt lat="49.27816" lon="-0.25335">
        <ele>3.7</ele>
        <time>2020-12-20T09:41:36Z</time>
      </trkpt>
      <trkpt lat="49.27816" lon="-0.25335">
        <ele>3.7</ele>
        <time>2020-12-20T09:41:38Z</time>
      </trkpt>
      <trkpt lat="49.27816" lon="-0.25335">
        <ele>3.7</ele>
        <time>2020-12-20T09:41:39Z</time>
      </trkpt>
      <trkpt lat="49.27816" lon="-0.25335">
        <ele>3.7</ele>
        <time>2020-12-20T09:41:40Z</time>
      </trkpt>
      <trkpt lat="49.27816" lon="-0.25335">
        <ele>3.7</ele>
        <time>2020-12-20T09:41:41Z</time>
      </trkpt>
      <trkpt lat="49.27816" lon="-0.25335">
        <ele>3.7</ele>
        <time>2020-12-20T09:41:43Z</time>
      </trkpt>
      <trkpt lat="49.27816" lon="-0.25335">
        <ele>3.7</ele>
        <time>2020-12-20T09:41:44Z</time>
      </trkpt>
      <trkpt lat="49.27816" lon="-0.25335">
        <ele>3.7</ele>
        <time>2020-12-20T09:41:46Z</time>
      </trkpt>
      <trkpt lat="49.27816" lon="-0.25335">
        <ele>3.7</ele>
        <time>2020-12-20T09:41:48Z</time>
      </trkpt>
      <trkpt lat="49.27816" lon="-0.25335">
        <ele>3.7</ele>
        <time>2020-12-20T09:41:50Z</time>
      </trkpt>
      <trkpt lat="49.27816" lon="-0.25335">
        <ele>3.7</ele>
        <time>2020-12-20T09:41:51Z</time>
      </trkpt>
      <trkpt lat="49.27816" lon="-0.25335">
        <ele>3.7</ele>
        <time>2020-12-20T09:41:52Z</time>
      </trkpt>
      <trkpt lat="49.27816" lon="-0.25335">
        <ele>3.7</ele>
        <time>2020-12-20T09:41:54Z</time>
      </trkpt>
      <trkpt lat="49.27816" lon="-0.25335">
        <ele>3.7</ele>
        <time>2020-12-20T09:41:55Z</time>
      </trkpt>
      <trkpt lat="49.27816" lon="-0.25335">
        <ele>3.7</ele>
        <time>2020-12-20T09:41:56Z</time>
      </trkpt>
      <trkpt lat="49.27816" lon="-0.25335">
        <ele>3.7</ele>
        <time>2020-12-20T09:41:57Z</time>
      </trkpt>
      <trkpt lat="49.27816" lon="-0.25335">
        <ele>3.7</ele>
        <time>2020-12-20T09:41:59Z</time>
      </trkpt>
      <trkpt lat="49.27816" lon="-0.25335">
        <ele>3.7</ele>
        <time>2020-12-20T09:42:01Z</time>
      </trkpt>
      <trkpt lat="49.27816" lon="-0.25335">
        <ele>3.7</ele>
        <time>2020-12-20T09:42:02Z</time>
      </trkpt>
      <trkpt lat="49.27816" lon="-0.25335">
        <ele>3.7</ele>
        <time>2020-12-20T09:42:03Z</time>
      </trkpt>
      <trkpt lat="49.27816" lon="-0.25335">
        <ele>3.7</ele>
        <time>2020-12-20T09:42:05Z</time>
      </trkpt>
      <trkpt lat="49.27816" lon="-0.25335">
        <ele>3.7</ele>
        <time>2020-12-20T09:42:06Z</time>
      </trkpt>
      <trkpt lat="49.27817" lon="-0.25338">
        <ele>3.7</ele>
        <time>2020-12-20T09:42:08Z</time>
      </trkpt>
      <trkpt lat="49.27819" lon="-0.2534">
        <ele>3.7</ele>
        <time>2020-12-20T09:42:09Z</time>
      </trkpt>
      <trkpt lat="49.27819" lon="-0.25342">
        <ele>3.7</ele>
        <time>2020-12-20T09:42:10Z</time>
      </trkpt>
      <trkpt lat="49.27819" lon="-0.25343">
        <ele>3.7</ele>
        <time>2020-12-20T09:42:11Z</time>
      </trkpt>
      <trkpt lat="49.27814" lon="-0.25335">
        <ele>3.7</ele>
        <time>2020-12-20T09:42:13Z</time>
      </trkpt>
      <trkpt lat="49.27816" lon="-0.25338">
        <ele>3.7</ele>
        <time>2020-12-20T09:42:15Z</time>
      </trkpt>
      <trkpt lat="49.27817" lon="-0.2534">
        <ele>3.7</ele>
        <time>2020-12-20T09:42:16Z</time>
      </trkpt>
      <trkpt lat="49.27817" lon="-0.25342">
        <ele>3.7</ele>
        <time>2020-12-20T09:42:17Z</time>
      </trkpt>
      <trkpt lat="49.27816" lon="-0.25342">
        <ele>3.7</ele>
        <time>2020-12-20T09:42:18Z</time>
      </trkpt>
      <trkpt lat="49.27815" lon="-0.25342">
        <ele>3.7</ele>
        <time>2020-12-20T09:42:19Z</time>
      </trkpt>
      <trkpt lat="49.27814" lon="-0.25343">
        <ele>3.7</ele>
        <time>2020-12-20T09:42:21Z</time>
      </trkpt>
      <trkpt lat="49.27812" lon="-0.25343">
        <ele>3.7</ele>
        <time>2020-12-20T09:42:22Z</time>
      </trkpt>
      <trkpt lat="49.2781" lon="-0.25347">
        <ele>3.7</ele>
        <time>2020-12-20T09:42:24Z</time>
      </trkpt>
      <trkpt lat="49.27809" lon="-0.25349">
        <ele>3.7</ele>
        <time>2020-12-20T09:42:25Z</time>
      </trkpt>
      <trkpt lat="49.27809" lon="-0.25351">
        <ele>3.7</ele>
        <time>2020-12-20T09:42:26Z</time>
      </trkpt>
      <trkpt lat="49.27807" lon="-0.25355">
        <ele>3.7</ele>
        <time>2020-12-20T09:42:27Z</time>
      </trkpt>
      <trkpt lat="49.27807" lon="-0.25356">
        <ele>3.7</ele>
        <time>2020-12-20T09:42:28Z</time>
      </trkpt>
      <trkpt lat="49.27806" lon="-0.25358">
        <ele>3.7</ele>
        <time>2020-12-20T09:42:29Z</time>
      </trkpt>
      <trkpt lat="49.27805" lon="-0.2536">
        <ele>3.7</ele>
        <time>2020-12-20T09:42:30Z</time>
      </trkpt>
      <trkpt lat="49.27803" lon="-0.25364">
        <ele>3.6</ele>
        <time>2020-12-20T09:42:32Z</time>
      </trkpt>
      <trkpt lat="49.27802" lon="-0.25365">
        <ele>3.6</ele>
        <time>2020-12-20T09:42:33Z</time>
      </trkpt>
      <trkpt lat="49.278" lon="-0.25368">
        <ele>3.6</ele>
        <time>2020-12-20T09:42:34Z</time>
      </trkpt>
      <trkpt lat="49.27798" lon="-0.25371">
        <ele>3.6</ele>
        <time>2020-12-20T09:42:35Z</time>
      </trkpt>
      <trkpt lat="49.27797" lon="-0.25374">
        <ele>3.6</ele>
        <time>2020-12-20T09:42:37Z</time>
      </trkpt>
      <trkpt lat="49.27794" lon="-0.25379">
        <ele>3.6</ele>
        <time>2020-12-20T09:42:38Z</time>
      </trkpt>
      <trkpt lat="49.27793" lon="-0.25382">
        <ele>3.6</ele>
        <time>2020-12-20T09:42:39Z</time>
      </trkpt>
      <trkpt lat="49.27792" lon="-0.25384">
        <ele>3.6</ele>
        <time>2020-12-20T09:42:40Z</time>
      </trkpt>
      <trkpt lat="49.27791" lon="-0.25386">
        <ele>3.6</ele>
        <time>2020-12-20T09:42:42Z</time>
      </trkpt>
      <trkpt lat="49.27789" lon="-0.25389">
        <ele>3.6</ele>
        <time>2020-12-20T09:42:44Z</time>
      </trkpt>
      <trkpt lat="49.27788" lon="-0.25394">
        <ele>3.6</ele>
        <time>2020-12-20T09:42:45Z</time>
      </trkpt>
      <trkpt lat="49.27785" lon="-0.25401">
        <ele>3.6</ele>
        <time>2020-12-20T09:42:47Z</time>
      </trkpt>
      <trkpt lat="49.27784" lon="-0.25403">
        <ele>3.6</ele>
        <time>2020-12-20T09:42:49Z</time>
      </trkpt>
      <trkpt lat="49.27783" lon="-0.25405">
        <ele>3.6</ele>
        <time>2020-12-20T09:42:50Z</time>
      </trkpt>
      <trkpt lat="49.27782" lon="-0.25408">
        <ele>3.6</ele>
        <time>2020-12-20T09:42:51Z</time>
      </trkpt>
      <trkpt lat="49.2778" lon="-0.25411">
        <ele>3.6</ele>
        <time>2020-12-20T09:42:53Z</time>
      </trkpt>
      <trkpt lat="49.27779" lon="-0.25413">
        <ele>3.6</ele>
        <time>2020-12-20T09:42:54Z</time>
      </trkpt>
      <trkpt lat="49.27776" lon="-0.2542">
        <ele>3.6</ele>
        <time>2020-12-20T09:42:56Z</time>
      </trkpt>
      <trkpt lat="49.27775" lon="-0.25425">
        <ele>3.6</ele>
        <time>2020-12-20T09:42:57Z</time>
      </trkpt>
      <trkpt lat="49.27774" lon="-0.25427">
        <ele>3.6</ele>
        <time>2020-12-20T09:42:58Z</time>
      </trkpt>
      <trkpt lat="49.27772" lon="-0.25432">
        <ele>3.6</ele>
        <time>2020-12-20T09:43:00Z</time>
      </trkpt>
      <trkpt lat="49.27771" lon="-0.25438">
        <ele>3.6</ele>
        <time>2020-12-20T09:43:02Z</time>
      </trkpt>
      <trkpt lat="49.27768" lon="-0.25444">
        <ele>3.6</ele>
        <time>2020-12-20T09:43:04Z</time>
      </trkpt>
      <trkpt lat="49.27766" lon="-0.25448">
        <ele>3.6</ele>
        <time>2020-12-20T09:43:06Z</time>
      </trkpt>
      <trkpt lat="49.27765" lon="-0.2545">
        <ele>3.6</ele>
        <time>2020-12-20T09:43:07Z</time>
      </trkpt>
      <trkpt lat="49.27764" lon="-0.25454">
        <ele>3.6</ele>
        <time>2020-12-20T09:43:09Z</time>
      </trkpt>
      <trkpt lat="49.27762" lon="-0.25457">
        <ele>3.6</ele>
        <time>2020-12-20T09:43:10Z</time>
      </trkpt>
      <trkpt lat="49.27762" lon="-0.25459">
        <ele>3.6</ele>
        <time>2020-12-20T09:43:11Z</time>
      </trkpt>
      <trkpt lat="49.27759" lon="-0.25465">
        <ele>3.6</ele>
        <time>2020-12-20T09:43:13Z</time>
      </trkpt>
      <trkpt lat="49.27758" lon="-0.25471">
        <ele>3.6</ele>
        <time>2020-12-20T09:43:15Z</time>
      </trkpt>
      <trkpt lat="49.27756" lon="-0.25476">
        <ele>3.6</ele>
        <time>2020-12-20T09:43:17Z</time>
      </trkpt>
      <trkpt lat="49.27755" lon="-0.25477">
        <ele>3.6</ele>
        <time>2020-12-20T09:43:18Z</time>
      </trkpt>
      <trkpt lat="49.27754" lon="-0.25483">
        <ele>3.6</ele>
        <time>2020-12-20T09:43:19Z</time>
      </trkpt>
      <trkpt lat="49.27752" lon="-0.25487">
        <ele>3.6</ele>
        <time>2020-12-20T09:43:21Z</time>
      </trkpt>
      <trkpt lat="49.27751" lon="-0.25489">
        <ele>3.7</ele>
        <time>2020-12-20T09:43:22Z</time>
      </trkpt>
      <trkpt lat="49.2775" lon="-0.25491">
        <ele>3.7</ele>
        <time>2020-12-20T09:43:23Z</time>
      </trkpt>
      <trkpt lat="49.27749" lon="-0.25493">
        <ele>3.7</ele>
        <time>2020-12-20T09:43:24Z</time>
      </trkpt>
      <trkpt lat="49.27746" lon="-0.25498">
        <ele>3.7</ele>
        <time>2020-12-20T09:43:26Z</time>
      </trkpt>
      <trkpt lat="49.27744" lon="-0.25503">
        <ele>3.7</ele>
        <time>2020-12-20T09:43:29Z</time>
      </trkpt>
      <trkpt lat="49.27742" lon="-0.25508">
        <ele>3.7</ele>
        <time>2020-12-20T09:43:30Z</time>
      </trkpt>
      <trkpt lat="49.2774" lon="-0.25513">
        <ele>3.7</ele>
        <time>2020-12-20T09:43:32Z</time>
      </trkpt>
      <trkpt lat="49.2774" lon="-0.25515">
        <ele>3.7</ele>
        <time>2020-12-20T09:43:33Z</time>
      </trkpt>
      <trkpt lat="49.27738" lon="-0.2552">
        <ele>3.7</ele>
        <time>2020-12-20T09:43:35Z</time>
      </trkpt>
      <trkpt lat="49.27737" lon="-0.25523">
        <ele>3.7</ele>
        <time>2020-12-20T09:43:36Z</time>
      </trkpt>
      <trkpt lat="49.27736" lon="-0.25525">
        <ele>3.7</ele>
        <time>2020-12-20T09:43:38Z</time>
      </trkpt>
      <trkpt lat="49.27733" lon="-0.2553">
        <ele>3.7</ele>
        <time>2020-12-20T09:43:40Z</time>
      </trkpt>
      <trkpt lat="49.27731" lon="-0.25535">
        <ele>3.7</ele>
        <time>2020-12-20T09:43:41Z</time>
      </trkpt>
      <trkpt lat="49.27729" lon="-0.2554">
        <ele>3.7</ele>
        <time>2020-12-20T09:43:43Z</time>
      </trkpt>
      <trkpt lat="49.27728" lon="-0.25542">
        <ele>3.7</ele>
        <time>2020-12-20T09:43:44Z</time>
      </trkpt>
      <trkpt lat="49.27726" lon="-0.25547">
        <ele>3.8</ele>
        <time>2020-12-20T09:43:46Z</time>
      </trkpt>
      <trkpt lat="49.27724" lon="-0.25551">
        <ele>3.8</ele>
        <time>2020-12-20T09:43:48Z</time>
      </trkpt>
      <trkpt lat="49.27723" lon="-0.25553">
        <ele>3.8</ele>
        <time>2020-12-20T09:43:49Z</time>
      </trkpt>
      <trkpt lat="49.27724" lon="-0.25557">
        <ele>3.8</ele>
        <time>2020-12-20T09:43:51Z</time>
      </trkpt>
      <trkpt lat="49.27722" lon="-0.2556">
        <ele>3.8</ele>
        <time>2020-12-20T09:43:52Z</time>
      </trkpt>
      <trkpt lat="49.27722" lon="-0.25561">
        <ele>3.8</ele>
        <time>2020-12-20T09:43:53Z</time>
      </trkpt>
      <trkpt lat="49.27721" lon="-0.25563">
        <ele>3.8</ele>
        <time>2020-12-20T09:43:55Z</time>
      </trkpt>
      <trkpt lat="49.27721" lon="-0.25564">
        <ele>3.8</ele>
        <time>2020-12-20T09:43:56Z</time>
      </trkpt>
      <trkpt lat="49.2772" lon="-0.25566">
        <ele>3.8</ele>
        <time>2020-12-20T09:43:57Z</time>
      </trkpt>
      <trkpt lat="49.2772" lon="-0.25568">
        <ele>3.8</ele>
        <time>2020-12-20T09:43:58Z</time>
      </trkpt>
      <trkpt lat="49.27718" lon="-0.25573">
        <ele>3.9</ele>
        <time>2020-12-20T09:44:00Z</time>
      </trkpt>
      <trkpt lat="49.27717" lon="-0.25575">
        <ele>3.9</ele>
        <time>2020-12-20T09:44:01Z</time>
      </trkpt>
      <trkpt lat="49.27716" lon="-0.25579">
        <ele>3.9</ele>
        <time>2020-12-20T09:44:03Z</time>
      </trkpt>
      <trkpt lat="49.27716" lon="-0.2558">
        <ele>3.9</ele>
        <time>2020-12-20T09:44:04Z</time>
      </trkpt>
      <trkpt lat="49.27714" lon="-0.25585">
        <ele>3.9</ele>
        <time>2020-12-20T09:44:05Z</time>
      </trkpt>
      <trkpt lat="49.27714" lon="-0.25587">
        <ele>3.9</ele>
        <time>2020-12-20T09:44:06Z</time>
      </trkpt>
      <trkpt lat="49.27713" lon="-0.2559">
        <ele>4</ele>
        <time>2020-12-20T09:44:07Z</time>
      </trkpt>
      <trkpt lat="49.27711" lon="-0.25596">
        <ele>4</ele>
        <time>2020-12-20T09:44:09Z</time>
      </trkpt>
      <trkpt lat="49.2771" lon="-0.25601">
        <ele>4</ele>
        <time>2020-12-20T09:44:10Z</time>
      </trkpt>
      <trkpt lat="49.2771" lon="-0.25603">
        <ele>4</ele>
        <time>2020-12-20T09:44:11Z</time>
      </trkpt>
      <trkpt lat="49.27708" lon="-0.25609">
        <ele>4</ele>
        <time>2020-12-20T09:44:13Z</time>
      </trkpt>
      <trkpt lat="49.27707" lon="-0.25614">
        <ele>4</ele>
        <time>2020-12-20T09:44:14Z</time>
      </trkpt>
      <trkpt lat="49.27706" lon="-0.25619">
        <ele>4.1</ele>
        <time>2020-12-20T09:44:16Z</time>
      </trkpt>
      <trkpt lat="49.27705" lon="-0.25621">
        <ele>4.1</ele>
        <time>2020-12-20T09:44:17Z</time>
      </trkpt>
      <trkpt lat="49.27703" lon="-0.25625">
        <ele>4.1</ele>
        <time>2020-12-20T09:44:18Z</time>
      </trkpt>
      <trkpt lat="49.27701" lon="-0.2563">
        <ele>4.1</ele>
        <time>2020-12-20T09:44:19Z</time>
      </trkpt>
      <trkpt lat="49.27699" lon="-0.25635">
        <ele>4.1</ele>
        <time>2020-12-20T09:44:21Z</time>
      </trkpt>
      <trkpt lat="49.27696" lon="-0.2564">
        <ele>4.1</ele>
        <time>2020-12-20T09:44:23Z</time>
      </trkpt>
      <trkpt lat="49.27693" lon="-0.25645">
        <ele>4.2</ele>
        <time>2020-12-20T09:44:24Z</time>
      </trkpt>
      <trkpt lat="49.27691" lon="-0.25649">
        <ele>4.2</ele>
        <time>2020-12-20T09:44:26Z</time>
      </trkpt>
      <trkpt lat="49.27689" lon="-0.25654">
        <ele>4.2</ele>
        <time>2020-12-20T09:44:27Z</time>
      </trkpt>
      <trkpt lat="49.27687" lon="-0.25658">
        <ele>4.2</ele>
        <time>2020-12-20T09:44:29Z</time>
      </trkpt>
      <trkpt lat="49.27686" lon="-0.25661">
        <ele>4.2</ele>
        <time>2020-12-20T09:44:30Z</time>
      </trkpt>
      <trkpt lat="49.27685" lon="-0.25666">
        <ele>3.9</ele>
        <time>2020-12-20T09:44:32Z</time>
      </trkpt>
      <trkpt lat="49.27684" lon="-0.2567">
        <ele>3.9</ele>
        <time>2020-12-20T09:44:33Z</time>
      </trkpt>
      <trkpt lat="49.27682" lon="-0.25676">
        <ele>4.2</ele>
        <time>2020-12-20T09:44:35Z</time>
      </trkpt>
      <trkpt lat="49.27681" lon="-0.25678">
        <ele>4.3</ele>
        <time>2020-12-20T09:44:37Z</time>
      </trkpt>
      <trkpt lat="49.2768" lon="-0.25681">
        <ele>4.4</ele>
        <time>2020-12-20T09:44:38Z</time>
      </trkpt>
      <trkpt lat="49.27678" lon="-0.25684">
        <ele>4.6</ele>
        <time>2020-12-20T09:44:39Z</time>
      </trkpt>
      <trkpt lat="49.27678" lon="-0.25686">
        <ele>4.6</ele>
        <time>2020-12-20T09:44:40Z</time>
      </trkpt>
      <trkpt lat="49.27676" lon="-0.25691">
        <ele>4.8</ele>
        <time>2020-12-20T09:44:42Z</time>
      </trkpt>
      <trkpt lat="49.27676" lon="-0.25694">
        <ele>5</ele>
        <time>2020-12-20T09:44:43Z</time>
      </trkpt>
      <trkpt lat="49.27675" lon="-0.25698">
        <ele>5.1</ele>
        <time>2020-12-20T09:44:45Z</time>
      </trkpt>
      <trkpt lat="49.27674" lon="-0.25702">
        <ele>5.2</ele>
        <time>2020-12-20T09:44:46Z</time>
      </trkpt>
      <trkpt lat="49.27673" lon="-0.25706">
        <ele>5.2</ele>
        <time>2020-12-20T09:44:47Z</time>
      </trkpt>
      <trkpt lat="49.27672" lon="-0.2571">
        <ele>5.3</ele>
        <time>2020-12-20T09:44:49Z</time>
      </trkpt>
      <trkpt lat="49.2767" lon="-0.25716">
        <ele>5.4</ele>
        <time>2020-12-20T09:44:50Z</time>
      </trkpt>
      <trkpt lat="49.27669" lon="-0.25718">
        <ele>5.4</ele>
        <time>2020-12-20T09:44:51Z</time>
      </trkpt>
      <trkpt lat="49.27668" lon="-0.25721">
        <ele>5.5</ele>
        <time>2020-12-20T09:44:52Z</time>
      </trkpt>
      <trkpt lat="49.27667" lon="-0.25725">
        <ele>5.5</ele>
        <time>2020-12-20T09:44:54Z</time>
      </trkpt>
      <trkpt lat="49.27665" lon="-0.25728">
        <ele>5.6</ele>
        <time>2020-12-20T09:44:55Z</time>
      </trkpt>
      <trkpt lat="49.27663" lon="-0.25732">
        <ele>5.8</ele>
        <time>2020-12-20T09:44:56Z</time>
      </trkpt>
      <trkpt lat="49.27661" lon="-0.25736">
        <ele>5.9</ele>
        <time>2020-12-20T09:44:58Z</time>
      </trkpt>
      <trkpt lat="49.27658" lon="-0.25739">
        <ele>6.1</ele>
        <time>2020-12-20T09:45:00Z</time>
      </trkpt>
      <trkpt lat="49.27656" lon="-0.25741">
        <ele>6.2</ele>
        <time>2020-12-20T09:45:01Z</time>
      </trkpt>
      <trkpt lat="49.27653" lon="-0.25745">
        <ele>6.4</ele>
        <time>2020-12-20T09:45:03Z</time>
      </trkpt>
      <trkpt lat="49.27653" lon="-0.25746">
        <ele>6.5</ele>
        <time>2020-12-20T09:45:04Z</time>
      </trkpt>
      <trkpt lat="49.2765" lon="-0.25749">
        <ele>6.7</ele>
        <time>2020-12-20T09:45:06Z</time>
      </trkpt>
      <trkpt lat="49.27648" lon="-0.25751">
        <ele>6.8</ele>
        <time>2020-12-20T09:45:08Z</time>
      </trkpt>
      <trkpt lat="49.27645" lon="-0.25754">
        <ele>7</ele>
        <time>2020-12-20T09:45:09Z</time>
      </trkpt>
      <trkpt lat="49.27642" lon="-0.25756">
        <ele>7.1</ele>
        <time>2020-12-20T09:45:10Z</time>
      </trkpt>
      <trkpt lat="49.27642" lon="-0.25756">
        <ele>7.2</ele>
        <time>2020-12-20T09:45:11Z</time>
      </trkpt>
      <trkpt lat="49.27639" lon="-0.25758">
        <ele>7.3</ele>
        <time>2020-12-20T09:45:13Z</time>
      </trkpt>
      <trkpt lat="49.27637" lon="-0.2576">
        <ele>7.5</ele>
        <time>2020-12-20T09:45:15Z</time>
      </trkpt>
      <trkpt lat="49.27633" lon="-0.25761">
        <ele>7.7</ele>
        <time>2020-12-20T09:45:16Z</time>
      </trkpt>
      <trkpt lat="49.2763" lon="-0.25762">
        <ele>7.8</ele>
        <time>2020-12-20T09:45:17Z</time>
      </trkpt>
      <trkpt lat="49.27627" lon="-0.25765">
        <ele>8</ele>
        <time>2020-12-20T09:45:19Z</time>
      </trkpt>
      <trkpt lat="49.27624" lon="-0.25767">
        <ele>8.1</ele>
        <time>2020-12-20T09:45:20Z</time>
      </trkpt>
      <trkpt lat="49.27622" lon="-0.25768">
        <ele>8.3</ele>
        <time>2020-12-20T09:45:21Z</time>
      </trkpt>
      <trkpt lat="49.27619" lon="-0.2577">
        <ele>8.4</ele>
        <time>2020-12-20T09:45:23Z</time>
      </trkpt>
      <trkpt lat="49.27616" lon="-0.25774">
        <ele>8.6</ele>
        <time>2020-12-20T09:45:25Z</time>
      </trkpt>
      <trkpt lat="49.27613" lon="-0.25777">
        <ele>8.7</ele>
        <time>2020-12-20T09:45:26Z</time>
      </trkpt>
      <trkpt lat="49.27613" lon="-0.25778">
        <ele>8.8</ele>
        <time>2020-12-20T09:45:27Z</time>
      </trkpt>
      <trkpt lat="49.27611" lon="-0.25782">
        <ele>8.9</ele>
        <time>2020-12-20T09:45:28Z</time>
      </trkpt>
      <trkpt lat="49.2761" lon="-0.25783">
        <ele>9</ele>
        <time>2020-12-20T09:45:29Z</time>
      </trkpt>
      <trkpt lat="49.27608" lon="-0.25791">
        <ele>9.5</ele>
        <time>2020-12-20T09:45:31Z</time>
      </trkpt>
      <trkpt lat="49.27607" lon="-0.25794">
        <ele>9.6</ele>
        <time>2020-12-20T09:45:33Z</time>
      </trkpt>
      <trkpt lat="49.27606" lon="-0.25797">
        <ele>9.6</ele>
        <time>2020-12-20T09:45:35Z</time>
      </trkpt>
      <trkpt lat="49.27606" lon="-0.258">
        <ele>9.7</ele>
        <time>2020-12-20T09:45:36Z</time>
      </trkpt>
      <trkpt lat="49.27606" lon="-0.25805">
        <ele>9.8</ele>
        <time>2020-12-20T09:45:37Z</time>
      </trkpt>
      <trkpt lat="49.27606" lon="-0.25811">
        <ele>9.9</ele>
        <time>2020-12-20T09:45:39Z</time>
      </trkpt>
      <trkpt lat="49.27606" lon="-0.25813">
        <ele>9.9</ele>
        <time>2020-12-20T09:45:40Z</time>
      </trkpt>
      <trkpt lat="49.27605" lon="-0.25817">
        <ele>10</ele>
        <time>2020-12-20T09:45:41Z</time>
      </trkpt>
      <trkpt lat="49.27604" lon="-0.2582">
        <ele>10</ele>
        <time>2020-12-20T09:45:42Z</time>
      </trkpt>
      <trkpt lat="49.27602" lon="-0.25825">
        <ele>10.1</ele>
        <time>2020-12-20T09:45:44Z</time>
      </trkpt>
      <trkpt lat="49.27601" lon="-0.2583">
        <ele>10.2</ele>
        <time>2020-12-20T09:45:46Z</time>
      </trkpt>
      <trkpt lat="49.276" lon="-0.25833">
        <ele>10.3</ele>
        <time>2020-12-20T09:45:47Z</time>
      </trkpt>
      <trkpt lat="49.27598" lon="-0.25835">
        <ele>10.3</ele>
        <time>2020-12-20T09:45:49Z</time>
      </trkpt>
      <trkpt lat="49.27595" lon="-0.25837">
        <ele>10.2</ele>
        <time>2020-12-20T09:45:51Z</time>
      </trkpt>
      <trkpt lat="49.27592" lon="-0.25837">
        <ele>10.2</ele>
        <time>2020-12-20T09:45:52Z</time>
      </trkpt>
      <trkpt lat="49.2759" lon="-0.25837">
        <ele>10.2</ele>
        <time>2020-12-20T09:45:53Z</time>
      </trkpt>
      <trkpt lat="49.27588" lon="-0.25838">
        <ele>10.2</ele>
        <time>2020-12-20T09:45:55Z</time>
      </trkpt>
      <trkpt lat="49.27585" lon="-0.25839">
        <ele>10.1</ele>
        <time>2020-12-20T09:45:56Z</time>
      </trkpt>
      <trkpt lat="49.27582" lon="-0.25839">
        <ele>10.1</ele>
        <time>2020-12-20T09:45:58Z</time>
      </trkpt>
      <trkpt lat="49.27581" lon="-0.25839">
        <ele>10.1</ele>
        <time>2020-12-20T09:45:59Z</time>
      </trkpt>
      <trkpt lat="49.27577" lon="-0.25838">
        <ele>10</ele>
        <time>2020-12-20T09:46:00Z</time>
      </trkpt>
      <trkpt lat="49.27574" lon="-0.25839">
        <ele>9.9</ele>
        <time>2020-12-20T09:46:03Z</time>
      </trkpt>
      <trkpt lat="49.2757" lon="-0.25839">
        <ele>9.9</ele>
        <time>2020-12-20T09:46:05Z</time>
      </trkpt>
      <trkpt lat="49.27568" lon="-0.25838">
        <ele>9.8</ele>
        <time>2020-12-20T09:46:06Z</time>
      </trkpt>
      <trkpt lat="49.27564" lon="-0.25837">
        <ele>9.8</ele>
        <time>2020-12-20T09:46:09Z</time>
      </trkpt>
      <trkpt lat="49.2756" lon="-0.25837">
        <ele>9.7</ele>
        <time>2020-12-20T09:46:11Z</time>
      </trkpt>
      <trkpt lat="49.27556" lon="-0.25837">
        <ele>9.6</ele>
        <time>2020-12-20T09:46:12Z</time>
      </trkpt>
      <trkpt lat="49.27553" lon="-0.25837">
        <ele>9.6</ele>
        <time>2020-12-20T09:46:14Z</time>
      </trkpt>
      <trkpt lat="49.27551" lon="-0.25837">
        <ele>9.6</ele>
        <time>2020-12-20T09:46:15Z</time>
      </trkpt>
      <trkpt lat="49.27548" lon="-0.25837">
        <ele>9.5</ele>
        <time>2020-12-20T09:46:16Z</time>
      </trkpt>
      <trkpt lat="49.27544" lon="-0.25836">
        <ele>9.5</ele>
        <time>2020-12-20T09:46:17Z</time>
      </trkpt>
      <trkpt lat="49.27541" lon="-0.25835">
        <ele>9.4</ele>
        <time>2020-12-20T09:46:19Z</time>
      </trkpt>
      <trkpt lat="49.27537" lon="-0.25834">
        <ele>9.4</ele>
        <time>2020-12-20T09:46:20Z</time>
      </trkpt>
      <trkpt lat="49.27534" lon="-0.25833">
        <ele>9.3</ele>
        <time>2020-12-20T09:46:22Z</time>
      </trkpt>
      <trkpt lat="49.27531" lon="-0.25833">
        <ele>9.3</ele>
        <time>2020-12-20T09:46:23Z</time>
      </trkpt>
      <trkpt lat="49.27528" lon="-0.25833">
        <ele>9.2</ele>
        <time>2020-12-20T09:46:25Z</time>
      </trkpt>
      <trkpt lat="49.27524" lon="-0.25832">
        <ele>9.2</ele>
        <time>2020-12-20T09:46:27Z</time>
      </trkpt>
      <trkpt lat="49.27522" lon="-0.25833">
        <ele>9.2</ele>
        <time>2020-12-20T09:46:29Z</time>
      </trkpt>
      <trkpt lat="49.27519" lon="-0.25834">
        <ele>9.1</ele>
        <time>2020-12-20T09:46:30Z</time>
      </trkpt>
      <trkpt lat="49.27516" lon="-0.25835">
        <ele>9.1</ele>
        <time>2020-12-20T09:46:32Z</time>
      </trkpt>
      <trkpt lat="49.27515" lon="-0.25836">
        <ele>9.1</ele>
        <time>2020-12-20T09:46:33Z</time>
      </trkpt>
      <trkpt lat="49.27514" lon="-0.25836">
        <ele>9.1</ele>
        <time>2020-12-20T09:46:34Z</time>
      </trkpt>
      <trkpt lat="49.27513" lon="-0.25841">
        <ele>9.1</ele>
        <time>2020-12-20T09:46:36Z</time>
      </trkpt>
      <trkpt lat="49.27511" lon="-0.25846">
        <ele>9.2</ele>
        <time>2020-12-20T09:46:38Z</time>
      </trkpt>
      <trkpt lat="49.27509" lon="-0.25851">
        <ele>9.2</ele>
        <time>2020-12-20T09:46:39Z</time>
      </trkpt>
      <trkpt lat="49.27508" lon="-0.25857">
        <ele>9.3</ele>
        <time>2020-12-20T09:46:41Z</time>
      </trkpt>
      <trkpt lat="49.27506" lon="-0.25864">
        <ele>9.3</ele>
        <time>2020-12-20T09:46:43Z</time>
      </trkpt>
      <trkpt lat="49.27505" lon="-0.25868">
        <ele>9.3</ele>
        <time>2020-12-20T09:46:44Z</time>
      </trkpt>
      <trkpt lat="49.27504" lon="-0.25874">
        <ele>9.4</ele>
        <time>2020-12-20T09:46:45Z</time>
      </trkpt>
      <trkpt lat="49.27504" lon="-0.25876">
        <ele>9.4</ele>
        <time>2020-12-20T09:46:46Z</time>
      </trkpt>
      <trkpt lat="49.27503" lon="-0.25881">
        <ele>9.5</ele>
        <time>2020-12-20T09:46:48Z</time>
      </trkpt>
      <trkpt lat="49.27503" lon="-0.25883">
        <ele>9.5</ele>
        <time>2020-12-20T09:46:49Z</time>
      </trkpt>
      <trkpt lat="49.27503" lon="-0.25889">
        <ele>9.5</ele>
        <time>2020-12-20T09:46:50Z</time>
      </trkpt>
      <trkpt lat="49.27504" lon="-0.25891">
        <ele>9.6</ele>
        <time>2020-12-20T09:46:51Z</time>
      </trkpt>
      <trkpt lat="49.27504" lon="-0.25893">
        <ele>9.6</ele>
        <time>2020-12-20T09:46:52Z</time>
      </trkpt>
      <trkpt lat="49.27505" lon="-0.25896">
        <ele>9.6</ele>
        <time>2020-12-20T09:46:54Z</time>
      </trkpt>
      <trkpt lat="49.27505" lon="-0.25899">
        <ele>9.6</ele>
        <time>2020-12-20T09:46:55Z</time>
      </trkpt>
      <trkpt lat="49.27506" lon="-0.25902">
        <ele>9.6</ele>
        <time>2020-12-20T09:46:57Z</time>
      </trkpt>
      <trkpt lat="49.27505" lon="-0.25904">
        <ele>9.7</ele>
        <time>2020-12-20T09:46:59Z</time>
      </trkpt>
      <trkpt lat="49.27505" lon="-0.25907">
        <ele>9.7</ele>
        <time>2020-12-20T09:47:00Z</time>
      </trkpt>
      <trkpt lat="49.27504" lon="-0.2591">
        <ele>9.7</ele>
        <time>2020-12-20T09:47:02Z</time>
      </trkpt>
      <trkpt lat="49.27504" lon="-0.25915">
        <ele>9.8</ele>
        <time>2020-12-20T09:47:04Z</time>
      </trkpt>
      <trkpt lat="49.27503" lon="-0.25922">
        <ele>9.9</ele>
        <time>2020-12-20T09:47:05Z</time>
      </trkpt>
      <trkpt lat="49.27501" lon="-0.25927">
        <ele>9.9</ele>
        <time>2020-12-20T09:47:07Z</time>
      </trkpt>
      <trkpt lat="49.27498" lon="-0.25932">
        <ele>10</ele>
        <time>2020-12-20T09:47:09Z</time>
      </trkpt>
      <trkpt lat="49.27495" lon="-0.25937">
        <ele>10.1</ele>
        <time>2020-12-20T09:47:10Z</time>
      </trkpt>
      <trkpt lat="49.27492" lon="-0.25941">
        <ele>10</ele>
        <time>2020-12-20T09:47:11Z</time>
      </trkpt>
      <trkpt lat="49.27488" lon="-0.25944">
        <ele>10</ele>
        <time>2020-12-20T09:47:13Z</time>
      </trkpt>
      <trkpt lat="49.27486" lon="-0.25945">
        <ele>10</ele>
        <time>2020-12-20T09:47:14Z</time>
      </trkpt>
      <trkpt lat="49.27484" lon="-0.25945">
        <ele>10</ele>
        <time>2020-12-20T09:47:15Z</time>
      </trkpt>
      <trkpt lat="49.27481" lon="-0.25946">
        <ele>10</ele>
        <time>2020-12-20T09:47:16Z</time>
      </trkpt>
      <trkpt lat="49.27477" lon="-0.25947">
        <ele>9.9</ele>
        <time>2020-12-20T09:47:18Z</time>
      </trkpt>
      <trkpt lat="49.27476" lon="-0.25948">
        <ele>9.9</ele>
        <time>2020-12-20T09:47:19Z</time>
      </trkpt>
      <trkpt lat="49.27472" lon="-0.25949">
        <ele>9.9</ele>
        <time>2020-12-20T09:47:20Z</time>
      </trkpt>
      <trkpt lat="49.27468" lon="-0.25949">
        <ele>9.9</ele>
        <time>2020-12-20T09:47:22Z</time>
      </trkpt>
      <trkpt lat="49.27465" lon="-0.25951">
        <ele>9.8</ele>
        <time>2020-12-20T09:47:23Z</time>
      </trkpt>
      <trkpt lat="49.27462" lon="-0.25952">
        <ele>9.8</ele>
        <time>2020-12-20T09:47:25Z</time>
      </trkpt>
      <trkpt lat="49.27461" lon="-0.25953">
        <ele>9.8</ele>
        <time>2020-12-20T09:47:26Z</time>
      </trkpt>
      <trkpt lat="49.27457" lon="-0.25954">
        <ele>9.8</ele>
        <time>2020-12-20T09:47:27Z</time>
      </trkpt>
      <trkpt lat="49.27456" lon="-0.25954">
        <ele>9.8</ele>
        <time>2020-12-20T09:47:28Z</time>
      </trkpt>
      <trkpt lat="49.27453" lon="-0.25955">
        <ele>9.8</ele>
        <time>2020-12-20T09:47:29Z</time>
      </trkpt>
      <trkpt lat="49.27451" lon="-0.25956">
        <ele>9.8</ele>
        <time>2020-12-20T09:47:31Z</time>
      </trkpt>
      <trkpt lat="49.27447" lon="-0.25957">
        <ele>9.8</ele>
        <time>2020-12-20T09:47:32Z</time>
      </trkpt>
      <trkpt lat="49.27446" lon="-0.25958">
        <ele>9.8</ele>
        <time>2020-12-20T09:47:33Z</time>
      </trkpt>
      <trkpt lat="49.27442" lon="-0.25959">
        <ele>9.8</ele>
        <time>2020-12-20T09:47:34Z</time>
      </trkpt>
      <trkpt lat="49.27441" lon="-0.25959">
        <ele>9.8</ele>
        <time>2020-12-20T09:47:35Z</time>
      </trkpt>
      <trkpt lat="49.27437" lon="-0.25962">
        <ele>9.8</ele>
        <time>2020-12-20T09:47:37Z</time>
      </trkpt>
      <trkpt lat="49.27435" lon="-0.25962">
        <ele>9.8</ele>
        <time>2020-12-20T09:47:38Z</time>
      </trkpt>
      <trkpt lat="49.27434" lon="-0.25963">
        <ele>9.8</ele>
        <time>2020-12-20T09:47:39Z</time>
      </trkpt>
      <trkpt lat="49.27432" lon="-0.25964">
        <ele>9.8</ele>
        <time>2020-12-20T09:47:40Z</time>
      </trkpt>
      <trkpt lat="49.27429" lon="-0.25966">
        <ele>9.8</ele>
        <time>2020-12-20T09:47:42Z</time>
      </trkpt>
      <trkpt lat="49.27425" lon="-0.25968">
        <ele>9.8</ele>
        <time>2020-12-20T09:47:43Z</time>
      </trkpt>
      <trkpt lat="49.27424" lon="-0.25968">
        <ele>9.8</ele>
        <time>2020-12-20T09:47:44Z</time>
      </trkpt>
      <trkpt lat="49.27421" lon="-0.2597">
        <ele>9.8</ele>
        <time>2020-12-20T09:47:46Z</time>
      </trkpt>
      <trkpt lat="49.27418" lon="-0.25972">
        <ele>9.8</ele>
        <time>2020-12-20T09:47:47Z</time>
      </trkpt>
      <trkpt lat="49.27416" lon="-0.25975">
        <ele>9.8</ele>
        <time>2020-12-20T09:47:49Z</time>
      </trkpt>
      <trkpt lat="49.27415" lon="-0.25975">
        <ele>9.8</ele>
        <time>2020-12-20T09:47:50Z</time>
      </trkpt>
      <trkpt lat="49.27411" lon="-0.25978">
        <ele>9.8</ele>
        <time>2020-12-20T09:47:51Z</time>
      </trkpt>
      <trkpt lat="49.2741" lon="-0.25979">
        <ele>9.8</ele>
        <time>2020-12-20T09:47:52Z</time>
      </trkpt>
      <trkpt lat="49.27408" lon="-0.2598">
        <ele>9.8</ele>
        <time>2020-12-20T09:47:53Z</time>
      </trkpt>
      <trkpt lat="49.27405" lon="-0.25981">
        <ele>9.8</ele>
        <time>2020-12-20T09:47:55Z</time>
      </trkpt>
      <trkpt lat="49.27402" lon="-0.25983">
        <ele>9.8</ele>
        <time>2020-12-20T09:47:56Z</time>
      </trkpt>
      <trkpt lat="49.27401" lon="-0.25983">
        <ele>9.8</ele>
        <time>2020-12-20T09:47:57Z</time>
      </trkpt>
      <trkpt lat="49.27396" lon="-0.25985">
        <ele>9.8</ele>
        <time>2020-12-20T09:47:59Z</time>
      </trkpt>
      <trkpt lat="49.27395" lon="-0.25986">
        <ele>9.8</ele>
        <time>2020-12-20T09:48:01Z</time>
      </trkpt>
      <trkpt lat="49.27393" lon="-0.25987">
        <ele>9.8</ele>
        <time>2020-12-20T09:48:02Z</time>
      </trkpt>
      <trkpt lat="49.27391" lon="-0.2599">
        <ele>9.8</ele>
        <time>2020-12-20T09:48:03Z</time>
      </trkpt>
      <trkpt lat="49.27389" lon="-0.25991">
        <ele>9.8</ele>
        <time>2020-12-20T09:48:05Z</time>
      </trkpt>
      <trkpt lat="49.27387" lon="-0.25995">
        <ele>9.8</ele>
        <time>2020-12-20T09:48:07Z</time>
      </trkpt>
      <trkpt lat="49.27385" lon="-0.25998">
        <ele>9.8</ele>
        <time>2020-12-20T09:48:08Z</time>
      </trkpt>
      <trkpt lat="49.27383" lon="-0.26002">
        <ele>9.9</ele>
        <time>2020-12-20T09:48:11Z</time>
      </trkpt>
      <trkpt lat="49.27382" lon="-0.26007">
        <ele>9.9</ele>
        <time>2020-12-20T09:48:13Z</time>
      </trkpt>
      <trkpt lat="49.27381" lon="-0.26012">
        <ele>9.9</ele>
        <time>2020-12-20T09:48:15Z</time>
      </trkpt>
      <trkpt lat="49.2738" lon="-0.26017">
        <ele>10.1</ele>
        <time>2020-12-20T09:48:17Z</time>
      </trkpt>
      <trkpt lat="49.27378" lon="-0.26021">
        <ele>10.1</ele>
        <time>2020-12-20T09:48:18Z</time>
      </trkpt>
      <trkpt lat="49.27377" lon="-0.26025">
        <ele>10.1</ele>
        <time>2020-12-20T09:48:20Z</time>
      </trkpt>
      <trkpt lat="49.27377" lon="-0.26026">
        <ele>10.1</ele>
        <time>2020-12-20T09:48:21Z</time>
      </trkpt>
      <trkpt lat="49.27377" lon="-0.2603">
        <ele>10.2</ele>
        <time>2020-12-20T09:48:23Z</time>
      </trkpt>
      <trkpt lat="49.27378" lon="-0.26032">
        <ele>10.2</ele>
        <time>2020-12-20T09:48:24Z</time>
      </trkpt>
      <trkpt lat="49.27377" lon="-0.26036">
        <ele>10.2</ele>
        <time>2020-12-20T09:48:25Z</time>
      </trkpt>
      <trkpt lat="49.27377" lon="-0.26037">
        <ele>10.2</ele>
        <time>2020-12-20T09:48:26Z</time>
      </trkpt>
      <trkpt lat="49.27377" lon="-0.26043">
        <ele>10.2</ele>
        <time>2020-12-20T09:48:27Z</time>
      </trkpt>
      <trkpt lat="49.27378" lon="-0.26046">
        <ele>10.3</ele>
        <time>2020-12-20T09:48:29Z</time>
      </trkpt>
      <trkpt lat="49.27378" lon="-0.2605">
        <ele>10.3</ele>
        <time>2020-12-20T09:48:30Z</time>
      </trkpt>
      <trkpt lat="49.27378" lon="-0.26053">
        <ele>10.3</ele>
        <time>2020-12-20T09:48:31Z</time>
      </trkpt>
      <trkpt lat="49.27378" lon="-0.26059">
        <ele>10.3</ele>
        <time>2020-12-20T09:48:33Z</time>
      </trkpt>
      <trkpt lat="49.27378" lon="-0.26065">
        <ele>10.4</ele>
        <time>2020-12-20T09:48:35Z</time>
      </trkpt>
      <trkpt lat="49.27378" lon="-0.26068">
        <ele>10.4</ele>
        <time>2020-12-20T09:48:36Z</time>
      </trkpt>
      <trkpt lat="49.27379" lon="-0.26072">
        <ele>10.4</ele>
        <time>2020-12-20T09:48:38Z</time>
      </trkpt>
      <trkpt lat="49.27379" lon="-0.26074">
        <ele>10.5</ele>
        <time>2020-12-20T09:48:39Z</time>
      </trkpt>
      <trkpt lat="49.27379" lon="-0.26077">
        <ele>10.5</ele>
        <time>2020-12-20T09:48:40Z</time>
      </trkpt>
      <trkpt lat="49.2738" lon="-0.26084">
        <ele>10.5</ele>
        <time>2020-12-20T09:48:42Z</time>
      </trkpt>
      <trkpt lat="49.2738" lon="-0.26086">
        <ele>10.5</ele>
        <time>2020-12-20T09:48:43Z</time>
      </trkpt>
      <trkpt lat="49.2738" lon="-0.26088">
        <ele>10.6</ele>
        <time>2020-12-20T09:48:44Z</time>
      </trkpt>
      <trkpt lat="49.27381" lon="-0.26095">
        <ele>10.6</ele>
        <time>2020-12-20T09:48:46Z</time>
      </trkpt>
      <trkpt lat="49.27381" lon="-0.26098">
        <ele>10.6</ele>
        <time>2020-12-20T09:48:48Z</time>
      </trkpt>
      <trkpt lat="49.27381" lon="-0.261">
        <ele>10.6</ele>
        <time>2020-12-20T09:48:49Z</time>
      </trkpt>
      <trkpt lat="49.27381" lon="-0.26103">
        <ele>10.7</ele>
        <time>2020-12-20T09:48:50Z</time>
      </trkpt>
      <trkpt lat="49.27382" lon="-0.26105">
        <ele>10.7</ele>
        <time>2020-12-20T09:48:52Z</time>
      </trkpt>
      <trkpt lat="49.27382" lon="-0.2611">
        <ele>10.7</ele>
        <time>2020-12-20T09:48:53Z</time>
      </trkpt>
      <trkpt lat="49.27382" lon="-0.26114">
        <ele>10.7</ele>
        <time>2020-12-20T09:48:55Z</time>
      </trkpt>
      <trkpt lat="49.27382" lon="-0.26116">
        <ele>10.8</ele>
        <time>2020-12-20T09:48:56Z</time>
      </trkpt>
      <trkpt lat="49.27382" lon="-0.26119">
        <ele>10.8</ele>
        <time>2020-12-20T09:48:57Z</time>
      </trkpt>
      <trkpt lat="49.27383" lon="-0.26122">
        <ele>10.8</ele>
        <time>2020-12-20T09:48:59Z</time>
      </trkpt>
      <trkpt lat="49.27384" lon="-0.26123">
        <ele>10.8</ele>
        <time>2020-12-20T09:49:00Z</time>
      </trkpt>
      <trkpt lat="49.27385" lon="-0.26126">
        <ele>10.8</ele>
        <time>2020-12-20T09:49:02Z</time>
      </trkpt>
      <trkpt lat="49.27386" lon="-0.26127">
        <ele>10.9</ele>
        <time>2020-12-20T09:49:03Z</time>
      </trkpt>
      <trkpt lat="49.27387" lon="-0.26131">
        <ele>10.9</ele>
        <time>2020-12-20T09:49:04Z</time>
      </trkpt>
      <trkpt lat="49.27389" lon="-0.26135">
        <ele>10.9</ele>
        <time>2020-12-20T09:49:06Z</time>
      </trkpt>
      <trkpt lat="49.27389" lon="-0.26136">
        <ele>10.9</ele>
        <time>2020-12-20T09:49:07Z</time>
      </trkpt>
      <trkpt lat="49.2739" lon="-0.26139">
        <ele>10.9</ele>
        <time>2020-12-20T09:49:08Z</time>
      </trkpt>
      <trkpt lat="49.27391" lon="-0.26142">
        <ele>11</ele>
        <time>2020-12-20T09:49:10Z</time>
      </trkpt>
      <trkpt lat="49.27391" lon="-0.26145">
        <ele>11</ele>
        <time>2020-12-20T09:49:12Z</time>
      </trkpt>
      <trkpt lat="49.27392" lon="-0.26147">
        <ele>11</ele>
        <time>2020-12-20T09:49:13Z</time>
      </trkpt>
      <trkpt lat="49.27393" lon="-0.26153">
        <ele>11</ele>
        <time>2020-12-20T09:49:14Z</time>
      </trkpt>
      <trkpt lat="49.27394" lon="-0.26156">
        <ele>11</ele>
        <time>2020-12-20T09:49:15Z</time>
      </trkpt>
      <trkpt lat="49.27395" lon="-0.2616">
        <ele>11.1</ele>
        <time>2020-12-20T09:49:17Z</time>
      </trkpt>
      <trkpt lat="49.27396" lon="-0.26164">
        <ele>11.1</ele>
        <time>2020-12-20T09:49:18Z</time>
      </trkpt>
      <trkpt lat="49.27397" lon="-0.26169">
        <ele>11.1</ele>
        <time>2020-12-20T09:49:19Z</time>
      </trkpt>
      <trkpt lat="49.27398" lon="-0.26173">
        <ele>11.1</ele>
        <time>2020-12-20T09:49:20Z</time>
      </trkpt>
      <trkpt lat="49.27399" lon="-0.26178">
        <ele>11.2</ele>
        <time>2020-12-20T09:49:21Z</time>
      </trkpt>
      <trkpt lat="49.274" lon="-0.26183">
        <ele>11.2</ele>
        <time>2020-12-20T09:49:23Z</time>
      </trkpt>
      <trkpt lat="49.27401" lon="-0.26188">
        <ele>11.2</ele>
        <time>2020-12-20T09:49:24Z</time>
      </trkpt>
      <trkpt lat="49.27401" lon="-0.26193">
        <ele>11.2</ele>
        <time>2020-12-20T09:49:25Z</time>
      </trkpt>
      <trkpt lat="49.27402" lon="-0.26198">
        <ele>11.2</ele>
        <time>2020-12-20T09:49:26Z</time>
      </trkpt>
      <trkpt lat="49.27403" lon="-0.26202">
        <ele>11.2</ele>
        <time>2020-12-20T09:49:28Z</time>
      </trkpt>
      <trkpt lat="49.27404" lon="-0.26207">
        <ele>11.3</ele>
        <time>2020-12-20T09:49:29Z</time>
      </trkpt>
      <trkpt lat="49.27405" lon="-0.26212">
        <ele>11.3</ele>
        <time>2020-12-20T09:49:31Z</time>
      </trkpt>
      <trkpt lat="49.27406" lon="-0.26216">
        <ele>11.3</ele>
        <time>2020-12-20T09:49:32Z</time>
      </trkpt>
      <trkpt lat="49.27407" lon="-0.2622">
        <ele>11.3</ele>
        <time>2020-12-20T09:49:34Z</time>
      </trkpt>
      <trkpt lat="49.27407" lon="-0.26222">
        <ele>11.3</ele>
        <time>2020-12-20T09:49:35Z</time>
      </trkpt>
      <trkpt lat="49.27408" lon="-0.26227">
        <ele>11.3</ele>
        <time>2020-12-20T09:49:36Z</time>
      </trkpt>
      <trkpt lat="49.27408" lon="-0.26229">
        <ele>11.3</ele>
        <time>2020-12-20T09:49:37Z</time>
      </trkpt>
      <trkpt lat="49.27408" lon="-0.26233">
        <ele>11.3</ele>
        <time>2020-12-20T09:49:38Z</time>
      </trkpt>
      <trkpt lat="49.27409" lon="-0.26236">
        <ele>11.3</ele>
        <time>2020-12-20T09:49:40Z</time>
      </trkpt>
      <trkpt lat="49.27408" lon="-0.26239">
        <ele>11.3</ele>
        <time>2020-12-20T09:49:41Z</time>
      </trkpt>
      <trkpt lat="49.27408" lon="-0.26243">
        <ele>11.3</ele>
        <time>2020-12-20T09:49:43Z</time>
      </trkpt>
      <trkpt lat="49.27408" lon="-0.26249">
        <ele>11.3</ele>
        <time>2020-12-20T09:49:45Z</time>
      </trkpt>
      <trkpt lat="49.27408" lon="-0.26251">
        <ele>11.3</ele>
        <time>2020-12-20T09:49:46Z</time>
      </trkpt>
      <trkpt lat="49.27408" lon="-0.26255">
        <ele>11.3</ele>
        <time>2020-12-20T09:49:48Z</time>
      </trkpt>
      <trkpt lat="49.27408" lon="-0.26257">
        <ele>11.3</ele>
        <time>2020-12-20T09:49:49Z</time>
      </trkpt>
      <trkpt lat="49.27407" lon="-0.26262">
        <ele>11.3</ele>
        <time>2020-12-20T09:49:51Z</time>
      </trkpt>
      <trkpt lat="49.27405" lon="-0.26267">
        <ele>11.4</ele>
        <time>2020-12-20T09:49:54Z</time>
      </trkpt>
      <trkpt lat="49.27404" lon="-0.26273">
        <ele>11.4</ele>
        <time>2020-12-20T09:49:56Z</time>
      </trkpt>
      <trkpt lat="49.27403" lon="-0.26278">
        <ele>11.4</ele>
        <time>2020-12-20T09:49:57Z</time>
      </trkpt>
      <trkpt lat="49.27402" lon="-0.26281">
        <ele>11.4</ele>
        <time>2020-12-20T09:49:58Z</time>
      </trkpt>
      <trkpt lat="49.27402" lon="-0.26283">
        <ele>11.4</ele>
        <time>2020-12-20T09:49:59Z</time>
      </trkpt>
      <trkpt lat="49.27402" lon="-0.26286">
        <ele>11.4</ele>
        <time>2020-12-20T09:50:00Z</time>
      </trkpt>
      <trkpt lat="49.27402" lon="-0.26294">
        <ele>11.4</ele>
        <time>2020-12-20T09:50:03Z</time>
      </trkpt>
      <trkpt lat="49.27403" lon="-0.26303">
        <ele>11.5</ele>
        <time>2020-12-20T09:50:06Z</time>
      </trkpt>
      <trkpt lat="49.27404" lon="-0.26311">
        <ele>11.5</ele>
        <time>2020-12-20T09:50:07Z</time>
      </trkpt>
      <trkpt lat="49.27404" lon="-0.26318">
        <ele>11.5</ele>
        <time>2020-12-20T09:50:09Z</time>
      </trkpt>
      <trkpt lat="49.27405" lon="-0.26327">
        <ele>11.5</ele>
        <time>2020-12-20T09:50:11Z</time>
      </trkpt>
      <trkpt lat="49.27405" lon="-0.2633">
        <ele>11.5</ele>
        <time>2020-12-20T09:50:13Z</time>
      </trkpt>
      <trkpt lat="49.27406" lon="-0.26332">
        <ele>11.5</ele>
        <time>2020-12-20T09:50:14Z</time>
      </trkpt>
      <trkpt lat="49.27406" lon="-0.26335">
        <ele>11.5</ele>
        <time>2020-12-20T09:50:15Z</time>
      </trkpt>
      <trkpt lat="49.27406" lon="-0.2634">
        <ele>11.4</ele>
        <time>2020-12-20T09:50:16Z</time>
      </trkpt>
      <trkpt lat="49.27406" lon="-0.26341">
        <ele>11.4</ele>
        <time>2020-12-20T09:50:17Z</time>
      </trkpt>
      <trkpt lat="49.27406" lon="-0.26344">
        <ele>11.4</ele>
        <time>2020-12-20T09:50:18Z</time>
      </trkpt>
      <trkpt lat="49.27406" lon="-0.26345">
        <ele>11.4</ele>
        <time>2020-12-20T09:50:20Z</time>
      </trkpt>
      <trkpt lat="49.27407" lon="-0.26346">
        <ele>11.4</ele>
        <time>2020-12-20T09:50:21Z</time>
      </trkpt>
      <trkpt lat="49.27407" lon="-0.26347">
        <ele>11.4</ele>
        <time>2020-12-20T09:50:22Z</time>
      </trkpt>
      <trkpt lat="49.27407" lon="-0.26351">
        <ele>11.4</ele>
        <time>2020-12-20T09:50:23Z</time>
      </trkpt>
      <trkpt lat="49.27407" lon="-0.26354">
        <ele>11.4</ele>
        <time>2020-12-20T09:50:25Z</time>
      </trkpt>
      <trkpt lat="49.27408" lon="-0.26359">
        <ele>11.4</ele>
        <time>2020-12-20T09:50:26Z</time>
      </trkpt>
      <trkpt lat="49.27408" lon="-0.2636">
        <ele>11.4</ele>
        <time>2020-12-20T09:50:27Z</time>
      </trkpt>
      <trkpt lat="49.27408" lon="-0.26363">
        <ele>11.4</ele>
        <time>2020-12-20T09:50:28Z</time>
      </trkpt>
      <trkpt lat="49.27409" lon="-0.26367">
        <ele>11.5</ele>
        <time>2020-12-20T09:50:30Z</time>
      </trkpt>
      <trkpt lat="49.2741" lon="-0.26372">
        <ele>11.5</ele>
        <time>2020-12-20T09:50:31Z</time>
      </trkpt>
      <trkpt lat="49.2741" lon="-0.26379">
        <ele>11.5</ele>
        <time>2020-12-20T09:50:33Z</time>
      </trkpt>
      <trkpt lat="49.27411" lon="-0.26385">
        <ele>11.5</ele>
        <time>2020-12-20T09:50:35Z</time>
      </trkpt>
      <trkpt lat="49.27412" lon="-0.2639">
        <ele>11.5</ele>
        <time>2020-12-20T09:50:36Z</time>
      </trkpt>
      <trkpt lat="49.27412" lon="-0.26395">
        <ele>11.6</ele>
        <time>2020-12-20T09:50:37Z</time>
      </trkpt>
      <trkpt lat="49.27413" lon="-0.264">
        <ele>11.6</ele>
        <time>2020-12-20T09:50:39Z</time>
      </trkpt>
      <trkpt lat="49.27413" lon="-0.26402">
        <ele>11.6</ele>
        <time>2020-12-20T09:50:40Z</time>
      </trkpt>
      <trkpt lat="49.27413" lon="-0.26407">
        <ele>11.6</ele>
        <time>2020-12-20T09:50:41Z</time>
      </trkpt>
      <trkpt lat="49.27413" lon="-0.26408">
        <ele>11.6</ele>
        <time>2020-12-20T09:50:42Z</time>
      </trkpt>
      <trkpt lat="49.27414" lon="-0.26413">
        <ele>11.6</ele>
        <time>2020-12-20T09:50:44Z</time>
      </trkpt>
      <trkpt lat="49.27414" lon="-0.26414">
        <ele>11.6</ele>
        <time>2020-12-20T09:50:45Z</time>
      </trkpt>
      <trkpt lat="49.27414" lon="-0.2642">
        <ele>11.7</ele>
        <time>2020-12-20T09:50:46Z</time>
      </trkpt>
      <trkpt lat="49.27414" lon="-0.26421">
        <ele>11.7</ele>
        <time>2020-12-20T09:50:47Z</time>
      </trkpt>
      <trkpt lat="49.27415" lon="-0.26426">
        <ele>11.7</ele>
        <time>2020-12-20T09:50:49Z</time>
      </trkpt>
      <trkpt lat="49.27415" lon="-0.26428">
        <ele>11.7</ele>
        <time>2020-12-20T09:50:50Z</time>
      </trkpt>
      <trkpt lat="49.27416" lon="-0.26435">
        <ele>11.8</ele>
        <time>2020-12-20T09:50:51Z</time>
      </trkpt>
      <trkpt lat="49.27416" lon="-0.2644">
        <ele>11.8</ele>
        <time>2020-12-20T09:50:53Z</time>
      </trkpt>
      <trkpt lat="49.27417" lon="-0.26445">
        <ele>11.8</ele>
        <time>2020-12-20T09:50:54Z</time>
      </trkpt>
      <trkpt lat="49.27417" lon="-0.26448">
        <ele>11.8</ele>
        <time>2020-12-20T09:50:55Z</time>
      </trkpt>
      <trkpt lat="49.27417" lon="-0.26452">
        <ele>11.8</ele>
        <time>2020-12-20T09:50:57Z</time>
      </trkpt>
      <trkpt lat="49.27417" lon="-0.26456">
        <ele>11.8</ele>
        <time>2020-12-20T09:50:58Z</time>
      </trkpt>
      <trkpt lat="49.27417" lon="-0.26459">
        <ele>11.8</ele>
        <time>2020-12-20T09:51:00Z</time>
      </trkpt>
      <trkpt lat="49.27417" lon="-0.26465">
        <ele>11.8</ele>
        <time>2020-12-20T09:51:01Z</time>
      </trkpt>
      <trkpt lat="49.27418" lon="-0.26467">
        <ele>11.9</ele>
        <time>2020-12-20T09:51:02Z</time>
      </trkpt>
      <trkpt lat="49.27418" lon="-0.26471">
        <ele>11.9</ele>
        <time>2020-12-20T09:51:04Z</time>
      </trkpt>
      <trkpt lat="49.27418" lon="-0.26476">
        <ele>11.9</ele>
        <time>2020-12-20T09:51:06Z</time>
      </trkpt>
      <trkpt lat="49.27418" lon="-0.26483">
        <ele>11.9</ele>
        <time>2020-12-20T09:51:07Z</time>
      </trkpt>
      <trkpt lat="49.27418" lon="-0.26488">
        <ele>11.9</ele>
        <time>2020-12-20T09:51:09Z</time>
      </trkpt>
      <trkpt lat="49.27418" lon="-0.26492">
        <ele>11.9</ele>
        <time>2020-12-20T09:51:10Z</time>
      </trkpt>
      <trkpt lat="49.27418" lon="-0.26498">
        <ele>12</ele>
        <time>2020-12-20T09:51:11Z</time>
      </trkpt>
      <trkpt lat="49.27418" lon="-0.265">
        <ele>12</ele>
        <time>2020-12-20T09:51:12Z</time>
      </trkpt>
      <trkpt lat="49.27418" lon="-0.26504">
        <ele>12</ele>
        <time>2020-12-20T09:51:13Z</time>
      </trkpt>
      <trkpt lat="49.27419" lon="-0.26506">
        <ele>12</ele>
        <time>2020-12-20T09:51:15Z</time>
      </trkpt>
      <trkpt lat="49.27419" lon="-0.26508">
        <ele>12</ele>
        <time>2020-12-20T09:51:16Z</time>
      </trkpt>
      <trkpt lat="49.27419" lon="-0.2651">
        <ele>12</ele>
        <time>2020-12-20T09:51:17Z</time>
      </trkpt>
      <trkpt lat="49.27419" lon="-0.26513">
        <ele>12</ele>
        <time>2020-12-20T09:51:18Z</time>
      </trkpt>
      <trkpt lat="49.2742" lon="-0.26517">
        <ele>12</ele>
        <time>2020-12-20T09:51:20Z</time>
      </trkpt>
      <trkpt lat="49.2742" lon="-0.26521">
        <ele>12</ele>
        <time>2020-12-20T09:51:22Z</time>
      </trkpt>
      <trkpt lat="49.2742" lon="-0.26522">
        <ele>12</ele>
        <time>2020-12-20T09:51:23Z</time>
      </trkpt>
      <trkpt lat="49.2742" lon="-0.26525">
        <ele>12</ele>
        <time>2020-12-20T09:51:24Z</time>
      </trkpt>
      <trkpt lat="49.27421" lon="-0.26528">
        <ele>12.1</ele>
        <time>2020-12-20T09:51:25Z</time>
      </trkpt>
      <trkpt lat="49.27421" lon="-0.2653">
        <ele>12.1</ele>
        <time>2020-12-20T09:51:26Z</time>
      </trkpt>
      <trkpt lat="49.27423" lon="-0.26534">
        <ele>12.1</ele>
        <time>2020-12-20T09:51:28Z</time>
      </trkpt>
      <trkpt lat="49.27425" lon="-0.26539">
        <ele>12.1</ele>
        <time>2020-12-20T09:51:30Z</time>
      </trkpt>
      <trkpt lat="49.27425" lon="-0.26544">
        <ele>12.1</ele>
        <time>2020-12-20T09:51:31Z</time>
      </trkpt>
      <trkpt lat="49.27427" lon="-0.26553">
        <ele>12.1</ele>
        <time>2020-12-20T09:51:33Z</time>
      </trkpt>
      <trkpt lat="49.27428" lon="-0.26556">
        <ele>12.1</ele>
        <time>2020-12-20T09:51:34Z</time>
      </trkpt>
      <trkpt lat="49.27428" lon="-0.2656">
        <ele>12.1</ele>
        <time>2020-12-20T09:51:36Z</time>
      </trkpt>
      <trkpt lat="49.27429" lon="-0.26564">
        <ele>12.1</ele>
        <time>2020-12-20T09:51:37Z</time>
      </trkpt>
      <trkpt lat="49.2743" lon="-0.26571">
        <ele>12.1</ele>
        <time>2020-12-20T09:51:39Z</time>
      </trkpt>
      <trkpt lat="49.27431" lon="-0.26573">
        <ele>12.1</ele>
        <time>2020-12-20T09:51:41Z</time>
      </trkpt>
      <trkpt lat="49.27431" lon="-0.26575">
        <ele>12.1</ele>
        <time>2020-12-20T09:51:42Z</time>
      </trkpt>
      <trkpt lat="49.27432" lon="-0.2658">
        <ele>12.1</ele>
        <time>2020-12-20T09:51:43Z</time>
      </trkpt>
      <trkpt lat="49.27432" lon="-0.26582">
        <ele>12.1</ele>
        <time>2020-12-20T09:51:44Z</time>
      </trkpt>
      <trkpt lat="49.27433" lon="-0.26585">
        <ele>12.1</ele>
        <time>2020-12-20T09:51:45Z</time>
      </trkpt>
      <trkpt lat="49.27434" lon="-0.26592">
        <ele>12.1</ele>
        <time>2020-12-20T09:51:47Z</time>
      </trkpt>
      <trkpt lat="49.27434" lon="-0.26596">
        <ele>12.1</ele>
        <time>2020-12-20T09:51:49Z</time>
      </trkpt>
      <trkpt lat="49.27435" lon="-0.266">
        <ele>12.1</ele>
        <time>2020-12-20T09:51:51Z</time>
      </trkpt>
      <trkpt lat="49.27435" lon="-0.26605">
        <ele>12.1</ele>
        <time>2020-12-20T09:51:52Z</time>
      </trkpt>
      <trkpt lat="49.27435" lon="-0.26608">
        <ele>12.2</ele>
        <time>2020-12-20T09:51:53Z</time>
      </trkpt>
      <trkpt lat="49.27436" lon="-0.26614">
        <ele>12.2</ele>
        <time>2020-12-20T09:51:55Z</time>
      </trkpt>
      <trkpt lat="49.27437" lon="-0.26618">
        <ele>12.2</ele>
        <time>2020-12-20T09:51:56Z</time>
      </trkpt>
      <trkpt lat="49.27436" lon="-0.26622">
        <ele>12.2</ele>
        <time>2020-12-20T09:51:58Z</time>
      </trkpt>
      <trkpt lat="49.27436" lon="-0.26628">
        <ele>12.2</ele>
        <time>2020-12-20T09:51:59Z</time>
      </trkpt>
      <trkpt lat="49.27436" lon="-0.2663">
        <ele>12.2</ele>
        <time>2020-12-20T09:52:00Z</time>
      </trkpt>
      <trkpt lat="49.27436" lon="-0.26635">
        <ele>12.2</ele>
        <time>2020-12-20T09:52:02Z</time>
      </trkpt>
      <trkpt lat="49.27436" lon="-0.26637">
        <ele>12.2</ele>
        <time>2020-12-20T09:52:03Z</time>
      </trkpt>
      <trkpt lat="49.27436" lon="-0.26643">
        <ele>12.2</ele>
        <time>2020-12-20T09:52:05Z</time>
      </trkpt>
      <trkpt lat="49.27437" lon="-0.26645">
        <ele>12.2</ele>
        <time>2020-12-20T09:52:06Z</time>
      </trkpt>
      <trkpt lat="49.27437" lon="-0.26649">
        <ele>12.2</ele>
        <time>2020-12-20T09:52:08Z</time>
      </trkpt>
      <trkpt lat="49.27437" lon="-0.26651">
        <ele>12.2</ele>
        <time>2020-12-20T09:52:09Z</time>
      </trkpt>
      <trkpt lat="49.27438" lon="-0.26656">
        <ele>12.2</ele>
        <time>2020-12-20T09:52:10Z</time>
      </trkpt>
      <trkpt lat="49.27438" lon="-0.26657">
        <ele>12.2</ele>
        <time>2020-12-20T09:52:11Z</time>
      </trkpt>
      <trkpt lat="49.27439" lon="-0.26662">
        <ele>12.2</ele>
        <time>2020-12-20T09:52:13Z</time>
      </trkpt>
      <trkpt lat="49.27439" lon="-0.26666">
        <ele>12.2</ele>
        <time>2020-12-20T09:52:14Z</time>
      </trkpt>
      <trkpt lat="49.2744" lon="-0.2667">
        <ele>12.2</ele>
        <time>2020-12-20T09:52:16Z</time>
      </trkpt>
      <trkpt lat="49.27441" lon="-0.26676">
        <ele>12.2</ele>
        <time>2020-12-20T09:52:18Z</time>
      </trkpt>
      <trkpt lat="49.27441" lon="-0.26679">
        <ele>12.3</ele>
        <time>2020-12-20T09:52:19Z</time>
      </trkpt>
      <trkpt lat="49.27441" lon="-0.26681">
        <ele>12.3</ele>
        <time>2020-12-20T09:52:20Z</time>
      </trkpt>
      <trkpt lat="49.27442" lon="-0.26684">
        <ele>12.3</ele>
        <time>2020-12-20T09:52:21Z</time>
      </trkpt>
      <trkpt lat="49.27442" lon="-0.26688">
        <ele>12.3</ele>
        <time>2020-12-20T09:52:23Z</time>
      </trkpt>
      <trkpt lat="49.27443" lon="-0.26692">
        <ele>12.3</ele>
        <time>2020-12-20T09:52:24Z</time>
      </trkpt>
      <trkpt lat="49.27444" lon="-0.26697">
        <ele>12.3</ele>
        <time>2020-12-20T09:52:25Z</time>
      </trkpt>
      <trkpt lat="49.27444" lon="-0.26699">
        <ele>12.3</ele>
        <time>2020-12-20T09:52:26Z</time>
      </trkpt>
      <trkpt lat="49.27445" lon="-0.26703">
        <ele>12.3</ele>
        <time>2020-12-20T09:52:28Z</time>
      </trkpt>
      <trkpt lat="49.27446" lon="-0.26705">
        <ele>12.3</ele>
        <time>2020-12-20T09:52:29Z</time>
      </trkpt>
      <trkpt lat="49.27446" lon="-0.26709">
        <ele>12.3</ele>
        <time>2020-12-20T09:52:30Z</time>
      </trkpt>
      <trkpt lat="49.27447" lon="-0.26714">
        <ele>12.4</ele>
        <time>2020-12-20T09:52:31Z</time>
      </trkpt>
      <trkpt lat="49.27448" lon="-0.26715">
        <ele>12.4</ele>
        <time>2020-12-20T09:52:32Z</time>
      </trkpt>
      <trkpt lat="49.27449" lon="-0.2672">
        <ele>12.4</ele>
        <time>2020-12-20T09:52:34Z</time>
      </trkpt>
      <trkpt lat="49.27449" lon="-0.26722">
        <ele>12.4</ele>
        <time>2020-12-20T09:52:35Z</time>
      </trkpt>
      <trkpt lat="49.2745" lon="-0.26728">
        <ele>12.4</ele>
        <time>2020-12-20T09:52:36Z</time>
      </trkpt>
      <trkpt lat="49.27451" lon="-0.2673">
        <ele>12.4</ele>
        <time>2020-12-20T09:52:37Z</time>
      </trkpt>
      <trkpt lat="49.27452" lon="-0.26735">
        <ele>12.4</ele>
        <time>2020-12-20T09:52:39Z</time>
      </trkpt>
      <trkpt lat="49.27452" lon="-0.26737">
        <ele>12.4</ele>
        <time>2020-12-20T09:52:40Z</time>
      </trkpt>
      <trkpt lat="49.27452" lon="-0.2674">
        <ele>12.4</ele>
        <time>2020-12-20T09:52:41Z</time>
      </trkpt>
      <trkpt lat="49.27453" lon="-0.26743">
        <ele>12.4</ele>
        <time>2020-12-20T09:52:43Z</time>
      </trkpt>
      <trkpt lat="49.27453" lon="-0.26748">
        <ele>12.4</ele>
        <time>2020-12-20T09:52:44Z</time>
      </trkpt>
      <trkpt lat="49.27454" lon="-0.2675">
        <ele>12.4</ele>
        <time>2020-12-20T09:52:45Z</time>
      </trkpt>
      <trkpt lat="49.27454" lon="-0.26753">
        <ele>12.4</ele>
        <time>2020-12-20T09:52:47Z</time>
      </trkpt>
      <trkpt lat="49.27455" lon="-0.26757">
        <ele>12.4</ele>
        <time>2020-12-20T09:52:49Z</time>
      </trkpt>
      <trkpt lat="49.27456" lon="-0.26762">
        <ele>12.4</ele>
        <time>2020-12-20T09:52:50Z</time>
      </trkpt>
      <trkpt lat="49.27457" lon="-0.26766">
        <ele>12.4</ele>
        <time>2020-12-20T09:52:52Z</time>
      </trkpt>
      <trkpt lat="49.27458" lon="-0.26771">
        <ele>12.4</ele>
        <time>2020-12-20T09:52:54Z</time>
      </trkpt>
      <trkpt lat="49.27458" lon="-0.26775">
        <ele>12.4</ele>
        <time>2020-12-20T09:52:55Z</time>
      </trkpt>
      <trkpt lat="49.27457" lon="-0.26777">
        <ele>12.4</ele>
        <time>2020-12-20T09:52:56Z</time>
      </trkpt>
      <trkpt lat="49.27457" lon="-0.26779">
        <ele>12.4</ele>
        <time>2020-12-20T09:52:58Z</time>
      </trkpt>
      <trkpt lat="49.27456" lon="-0.26785">
        <ele>12.4</ele>
        <time>2020-12-20T09:53:00Z</time>
      </trkpt>
      <trkpt lat="49.27455" lon="-0.26791">
        <ele>12.4</ele>
        <time>2020-12-20T09:53:01Z</time>
      </trkpt>
      <trkpt lat="49.27455" lon="-0.26793">
        <ele>12.3</ele>
        <time>2020-12-20T09:53:03Z</time>
      </trkpt>
      <trkpt lat="49.27455" lon="-0.26794">
        <ele>12.3</ele>
        <time>2020-12-20T09:53:04Z</time>
      </trkpt>
      <trkpt lat="49.27455" lon="-0.26796">
        <ele>12.3</ele>
        <time>2020-12-20T09:53:07Z</time>
      </trkpt>
      <trkpt lat="49.27455" lon="-0.26798">
        <ele>12.3</ele>
        <time>2020-12-20T09:53:08Z</time>
      </trkpt>
      <trkpt lat="49.27455" lon="-0.268">
        <ele>12.3</ele>
        <time>2020-12-20T09:53:10Z</time>
      </trkpt>
      <trkpt lat="49.27455" lon="-0.26802">
        <ele>12.3</ele>
        <time>2020-12-20T09:53:12Z</time>
      </trkpt>
      <trkpt lat="49.27454" lon="-0.26804">
        <ele>12.3</ele>
        <time>2020-12-20T09:53:13Z</time>
      </trkpt>
      <trkpt lat="49.27454" lon="-0.26806">
        <ele>12.2</ele>
        <time>2020-12-20T09:53:15Z</time>
      </trkpt>
      <trkpt lat="49.27454" lon="-0.26808">
        <ele>12.2</ele>
        <time>2020-12-20T09:53:16Z</time>
      </trkpt>
      <trkpt lat="49.27454" lon="-0.26809">
        <ele>12.2</ele>
        <time>2020-12-20T09:53:17Z</time>
      </trkpt>
      <trkpt lat="49.27454" lon="-0.26812">
        <ele>12.2</ele>
        <time>2020-12-20T09:53:18Z</time>
      </trkpt>
      <trkpt lat="49.27455" lon="-0.26815">
        <ele>12.2</ele>
        <time>2020-12-20T09:53:20Z</time>
      </trkpt>
      <trkpt lat="49.27455" lon="-0.26821">
        <ele>12.2</ele>
        <time>2020-12-20T09:53:21Z</time>
      </trkpt>
      <trkpt lat="49.27455" lon="-0.26823">
        <ele>12.1</ele>
        <time>2020-12-20T09:53:22Z</time>
      </trkpt>
      <trkpt lat="49.27456" lon="-0.26828">
        <ele>12.1</ele>
        <time>2020-12-20T09:53:23Z</time>
      </trkpt>
      <trkpt lat="49.27456" lon="-0.26833">
        <ele>12.1</ele>
        <time>2020-12-20T09:53:24Z</time>
      </trkpt>
      <trkpt lat="49.27456" lon="-0.26837">
        <ele>12.1</ele>
        <time>2020-12-20T09:53:26Z</time>
      </trkpt>
      <trkpt lat="49.27457" lon="-0.26841">
        <ele>12</ele>
        <time>2020-12-20T09:53:28Z</time>
      </trkpt>
      <trkpt lat="49.27458" lon="-0.26846">
        <ele>12</ele>
        <time>2020-12-20T09:53:29Z</time>
      </trkpt>
      <trkpt lat="49.27458" lon="-0.26849">
        <ele>12</ele>
        <time>2020-12-20T09:53:30Z</time>
      </trkpt>
      <trkpt lat="49.27458" lon="-0.26851">
        <ele>12</ele>
        <time>2020-12-20T09:53:31Z</time>
      </trkpt>
      <trkpt lat="49.27459" lon="-0.26857">
        <ele>12</ele>
        <time>2020-12-20T09:53:33Z</time>
      </trkpt>
      <trkpt lat="49.27459" lon="-0.26858">
        <ele>12</ele>
        <time>2020-12-20T09:53:34Z</time>
      </trkpt>
      <trkpt lat="49.27459" lon="-0.26864">
        <ele>12</ele>
        <time>2020-12-20T09:53:35Z</time>
      </trkpt>
      <trkpt lat="49.2746" lon="-0.26865">
        <ele>12</ele>
        <time>2020-12-20T09:53:36Z</time>
      </trkpt>
      <trkpt lat="49.2746" lon="-0.26869">
        <ele>11.9</ele>
        <time>2020-12-20T09:53:38Z</time>
      </trkpt>
      <trkpt lat="49.2746" lon="-0.26871">
        <ele>11.9</ele>
        <time>2020-12-20T09:53:39Z</time>
      </trkpt>
      <trkpt lat="49.27461" lon="-0.26876">
        <ele>12</ele>
        <time>2020-12-20T09:53:40Z</time>
      </trkpt>
      <trkpt lat="49.27461" lon="-0.26878">
        <ele>12</ele>
        <time>2020-12-20T09:53:41Z</time>
      </trkpt>
      <trkpt lat="49.27461" lon="-0.2688">
        <ele>11.9</ele>
        <time>2020-12-20T09:53:42Z</time>
      </trkpt>
      <trkpt lat="49.27462" lon="-0.26882">
        <ele>11.9</ele>
        <time>2020-12-20T09:53:43Z</time>
      </trkpt>
      <trkpt lat="49.27462" lon="-0.26886">
        <ele>11.9</ele>
        <time>2020-12-20T09:53:44Z</time>
      </trkpt>
      <trkpt lat="49.27462" lon="-0.26887">
        <ele>11.9</ele>
        <time>2020-12-20T09:53:46Z</time>
      </trkpt>
      <trkpt lat="49.27462" lon="-0.26889">
        <ele>11.9</ele>
        <time>2020-12-20T09:53:47Z</time>
      </trkpt>
      <trkpt lat="49.27461" lon="-0.26894">
        <ele>11.9</ele>
        <time>2020-12-20T09:53:48Z</time>
      </trkpt>
      <trkpt lat="49.27461" lon="-0.26895">
        <ele>12</ele>
        <time>2020-12-20T09:53:49Z</time>
      </trkpt>
      <trkpt lat="49.27461" lon="-0.26901">
        <ele>12</ele>
        <time>2020-12-20T09:53:51Z</time>
      </trkpt>
      <trkpt lat="49.27461" lon="-0.26903">
        <ele>12</ele>
        <time>2020-12-20T09:53:52Z</time>
      </trkpt>
      <trkpt lat="49.27461" lon="-0.26906">
        <ele>12</ele>
        <time>2020-12-20T09:53:53Z</time>
      </trkpt>
      <trkpt lat="49.27462" lon="-0.26911">
        <ele>12</ele>
        <time>2020-12-20T09:53:55Z</time>
      </trkpt>
      <trkpt lat="49.27462" lon="-0.26915">
        <ele>12</ele>
        <time>2020-12-20T09:53:56Z</time>
      </trkpt>
      <trkpt lat="49.27463" lon="-0.26921">
        <ele>12.1</ele>
        <time>2020-12-20T09:53:58Z</time>
      </trkpt>
      <trkpt lat="49.27463" lon="-0.26923">
        <ele>12.1</ele>
        <time>2020-12-20T09:53:59Z</time>
      </trkpt>
      <trkpt lat="49.27463" lon="-0.26929">
        <ele>12.1</ele>
        <time>2020-12-20T09:54:00Z</time>
      </trkpt>
      <trkpt lat="49.27463" lon="-0.26935">
        <ele>12.2</ele>
        <time>2020-12-20T09:54:01Z</time>
      </trkpt>
      <trkpt lat="49.27463" lon="-0.26937">
        <ele>12.2</ele>
        <time>2020-12-20T09:54:02Z</time>
      </trkpt>
      <trkpt lat="49.27463" lon="-0.26942">
        <ele>12.3</ele>
        <time>2020-12-20T09:54:04Z</time>
      </trkpt>
      <trkpt lat="49.27463" lon="-0.26947">
        <ele>12.4</ele>
        <time>2020-12-20T09:54:05Z</time>
      </trkpt>
      <trkpt lat="49.27463" lon="-0.26953">
        <ele>12.4</ele>
        <time>2020-12-20T09:54:07Z</time>
      </trkpt>
      <trkpt lat="49.27461" lon="-0.2696">
        <ele>12.5</ele>
        <time>2020-12-20T09:54:08Z</time>
      </trkpt>
      <trkpt lat="49.2746" lon="-0.26963">
        <ele>12.5</ele>
        <time>2020-12-20T09:54:09Z</time>
      </trkpt>
      <trkpt lat="49.27459" lon="-0.2697">
        <ele>12.7</ele>
        <time>2020-12-20T09:54:11Z</time>
      </trkpt>
      <trkpt lat="49.2746" lon="-0.26975">
        <ele>12.7</ele>
        <time>2020-12-20T09:54:13Z</time>
      </trkpt>
      <trkpt lat="49.27459" lon="-0.26979">
        <ele>12.8</ele>
        <time>2020-12-20T09:54:14Z</time>
      </trkpt>
      <trkpt lat="49.27459" lon="-0.26983">
        <ele>12.8</ele>
        <time>2020-12-20T09:54:15Z</time>
      </trkpt>
      <trkpt lat="49.27459" lon="-0.26985">
        <ele>12.9</ele>
        <time>2020-12-20T09:54:17Z</time>
      </trkpt>
      <trkpt lat="49.27458" lon="-0.26988">
        <ele>12.9</ele>
        <time>2020-12-20T09:54:18Z</time>
      </trkpt>
      <trkpt lat="49.27458" lon="-0.26992">
        <ele>13</ele>
        <time>2020-12-20T09:54:19Z</time>
      </trkpt>
      <trkpt lat="49.27457" lon="-0.26995">
        <ele>13</ele>
        <time>2020-12-20T09:54:21Z</time>
      </trkpt>
      <trkpt lat="49.27457" lon="-0.26999">
        <ele>13.1</ele>
        <time>2020-12-20T09:54:22Z</time>
      </trkpt>
      <trkpt lat="49.27456" lon="-0.27004">
        <ele>13.2</ele>
        <time>2020-12-20T09:54:24Z</time>
      </trkpt>
      <trkpt lat="49.27456" lon="-0.27006">
        <ele>13.2</ele>
        <time>2020-12-20T09:54:25Z</time>
      </trkpt>
      <trkpt lat="49.27456" lon="-0.2701">
        <ele>13.3</ele>
        <time>2020-12-20T09:54:27Z</time>
      </trkpt>
      <trkpt lat="49.27456" lon="-0.27016">
        <ele>13.4</ele>
        <time>2020-12-20T09:54:28Z</time>
      </trkpt>
      <trkpt lat="49.27456" lon="-0.27021">
        <ele>13.5</ele>
        <time>2020-12-20T09:54:30Z</time>
      </trkpt>
      <trkpt lat="49.27455" lon="-0.27026">
        <ele>13.5</ele>
        <time>2020-12-20T09:54:32Z</time>
      </trkpt>
      <trkpt lat="49.27455" lon="-0.2703">
        <ele>13.6</ele>
        <time>2020-12-20T09:54:33Z</time>
      </trkpt>
      <trkpt lat="49.27455" lon="-0.27034">
        <ele>13.7</ele>
        <time>2020-12-20T09:54:34Z</time>
      </trkpt>
      <trkpt lat="49.27455" lon="-0.27039">
        <ele>13.7</ele>
        <time>2020-12-20T09:54:36Z</time>
      </trkpt>
      <trkpt lat="49.27455" lon="-0.27044">
        <ele>13.8</ele>
        <time>2020-12-20T09:54:38Z</time>
      </trkpt>
      <trkpt lat="49.27454" lon="-0.27048">
        <ele>13.9</ele>
        <time>2020-12-20T09:54:39Z</time>
      </trkpt>
      <trkpt lat="49.27453" lon="-0.27052">
        <ele>13.9</ele>
        <time>2020-12-20T09:54:40Z</time>
      </trkpt>
      <trkpt lat="49.27453" lon="-0.27056">
        <ele>14</ele>
        <time>2020-12-20T09:54:42Z</time>
      </trkpt>
      <trkpt lat="49.27452" lon="-0.27062">
        <ele>14</ele>
        <time>2020-12-20T09:54:43Z</time>
      </trkpt>
      <trkpt lat="49.27452" lon="-0.27064">
        <ele>14.1</ele>
        <time>2020-12-20T09:54:44Z</time>
      </trkpt>
      <trkpt lat="49.27452" lon="-0.27067">
        <ele>14.1</ele>
        <time>2020-12-20T09:54:45Z</time>
      </trkpt>
      <trkpt lat="49.27451" lon="-0.27072">
        <ele>14.1</ele>
        <time>2020-12-20T09:54:47Z</time>
      </trkpt>
      <trkpt lat="49.2745" lon="-0.27077">
        <ele>14.2</ele>
        <time>2020-12-20T09:54:49Z</time>
      </trkpt>
      <trkpt lat="49.2745" lon="-0.27078">
        <ele>14.2</ele>
        <time>2020-12-20T09:54:50Z</time>
      </trkpt>
      <trkpt lat="49.2745" lon="-0.27083">
        <ele>14.2</ele>
        <time>2020-12-20T09:54:52Z</time>
      </trkpt>
      <trkpt lat="49.27449" lon="-0.27085">
        <ele>14.2</ele>
        <time>2020-12-20T09:54:53Z</time>
      </trkpt>
      <trkpt lat="49.27449" lon="-0.27089">
        <ele>14.2</ele>
        <time>2020-12-20T09:54:55Z</time>
      </trkpt>
      <trkpt lat="49.27448" lon="-0.27091">
        <ele>14.2</ele>
        <time>2020-12-20T09:54:56Z</time>
      </trkpt>
      <trkpt lat="49.27448" lon="-0.27094">
        <ele>14.2</ele>
        <time>2020-12-20T09:54:57Z</time>
      </trkpt>
      <trkpt lat="49.27448" lon="-0.27099">
        <ele>14.2</ele>
        <time>2020-12-20T09:54:59Z</time>
      </trkpt>
      <trkpt lat="49.27448" lon="-0.27106">
        <ele>14.2</ele>
        <time>2020-12-20T09:55:01Z</time>
      </trkpt>
      <trkpt lat="49.27448" lon="-0.27108">
        <ele>14.2</ele>
        <time>2020-12-20T09:55:02Z</time>
      </trkpt>
      <trkpt lat="49.27448" lon="-0.2711">
        <ele>14.3</ele>
        <time>2020-12-20T09:55:03Z</time>
      </trkpt>
      <trkpt lat="49.27448" lon="-0.27113">
        <ele>14.3</ele>
        <time>2020-12-20T09:55:05Z</time>
      </trkpt>
      <trkpt lat="49.27448" lon="-0.27115">
        <ele>14.3</ele>
        <time>2020-12-20T09:55:06Z</time>
      </trkpt>
      <trkpt lat="49.27447" lon="-0.27118">
        <ele>14.3</ele>
        <time>2020-12-20T09:55:07Z</time>
      </trkpt>
      <trkpt lat="49.27447" lon="-0.2712">
        <ele>14.3</ele>
        <time>2020-12-20T09:55:08Z</time>
      </trkpt>
      <trkpt lat="49.27447" lon="-0.27125">
        <ele>14.3</ele>
        <time>2020-12-20T09:55:09Z</time>
      </trkpt>
      <trkpt lat="49.27447" lon="-0.27127">
        <ele>14.3</ele>
        <time>2020-12-20T09:55:10Z</time>
      </trkpt>
      <trkpt lat="49.27447" lon="-0.27129">
        <ele>14.3</ele>
        <time>2020-12-20T09:55:11Z</time>
      </trkpt>
      <trkpt lat="49.27447" lon="-0.27132">
        <ele>14.2</ele>
        <time>2020-12-20T09:55:13Z</time>
      </trkpt>
      <trkpt lat="49.27447" lon="-0.27138">
        <ele>14.2</ele>
        <time>2020-12-20T09:55:14Z</time>
      </trkpt>
      <trkpt lat="49.27447" lon="-0.2714">
        <ele>14.3</ele>
        <time>2020-12-20T09:55:15Z</time>
      </trkpt>
      <trkpt lat="49.27446" lon="-0.27145">
        <ele>14.3</ele>
        <time>2020-12-20T09:55:16Z</time>
      </trkpt>
      <trkpt lat="49.27446" lon="-0.27148">
        <ele>14.3</ele>
        <time>2020-12-20T09:55:17Z</time>
      </trkpt>
      <trkpt lat="49.27446" lon="-0.27152">
        <ele>14.3</ele>
        <time>2020-12-20T09:55:19Z</time>
      </trkpt>
      <trkpt lat="49.27446" lon="-0.27156">
        <ele>14.3</ele>
        <time>2020-12-20T09:55:20Z</time>
      </trkpt>
      <trkpt lat="49.27446" lon="-0.27158">
        <ele>14.4</ele>
        <time>2020-12-20T09:55:21Z</time>
      </trkpt>
      <trkpt lat="49.27446" lon="-0.27162">
        <ele>14.4</ele>
        <time>2020-12-20T09:55:22Z</time>
      </trkpt>
      <trkpt lat="49.27446" lon="-0.27168">
        <ele>14.4</ele>
        <time>2020-12-20T09:55:23Z</time>
      </trkpt>
      <trkpt lat="49.27446" lon="-0.2717">
        <ele>14.5</ele>
        <time>2020-12-20T09:55:24Z</time>
      </trkpt>
      <trkpt lat="49.27446" lon="-0.27175">
        <ele>14.5</ele>
        <time>2020-12-20T09:55:26Z</time>
      </trkpt>
      <trkpt lat="49.27446" lon="-0.27178">
        <ele>14.5</ele>
        <time>2020-12-20T09:55:27Z</time>
      </trkpt>
      <trkpt lat="49.27445" lon="-0.27183">
        <ele>14.6</ele>
        <time>2020-12-20T09:55:29Z</time>
      </trkpt>
      <trkpt lat="49.27445" lon="-0.27186">
        <ele>14.6</ele>
        <time>2020-12-20T09:55:30Z</time>
      </trkpt>
      <trkpt lat="49.27445" lon="-0.2719">
        <ele>14.7</ele>
        <time>2020-12-20T09:55:32Z</time>
      </trkpt>
      <trkpt lat="49.27445" lon="-0.27195">
        <ele>14.7</ele>
        <time>2020-12-20T09:55:33Z</time>
      </trkpt>
      <trkpt lat="49.27444" lon="-0.27196">
        <ele>14.8</ele>
        <time>2020-12-20T09:55:34Z</time>
      </trkpt>
      <trkpt lat="49.27444" lon="-0.272">
        <ele>14.8</ele>
        <time>2020-12-20T09:55:36Z</time>
      </trkpt>
      <trkpt lat="49.27444" lon="-0.27203">
        <ele>14.8</ele>
        <time>2020-12-20T09:55:38Z</time>
      </trkpt>
      <trkpt lat="49.27444" lon="-0.27205">
        <ele>14.8</ele>
        <time>2020-12-20T09:55:39Z</time>
      </trkpt>
      <trkpt lat="49.27443" lon="-0.27208">
        <ele>14.8</ele>
        <time>2020-12-20T09:55:40Z</time>
      </trkpt>
      <trkpt lat="49.27443" lon="-0.27213">
        <ele>15</ele>
        <time>2020-12-20T09:55:41Z</time>
      </trkpt>
      <trkpt lat="49.27443" lon="-0.27215">
        <ele>15</ele>
        <time>2020-12-20T09:55:42Z</time>
      </trkpt>
      <trkpt lat="49.27443" lon="-0.27218">
        <ele>15</ele>
        <time>2020-12-20T09:55:44Z</time>
      </trkpt>
      <trkpt lat="49.27443" lon="-0.2722">
        <ele>15</ele>
        <time>2020-12-20T09:55:45Z</time>
      </trkpt>
      <trkpt lat="49.27443" lon="-0.27225">
        <ele>15.1</ele>
        <time>2020-12-20T09:55:46Z</time>
      </trkpt>
      <trkpt lat="49.27443" lon="-0.27229">
        <ele>15.1</ele>
        <time>2020-12-20T09:55:47Z</time>
      </trkpt>
      <trkpt lat="49.27443" lon="-0.27234">
        <ele>15.2</ele>
        <time>2020-12-20T09:55:48Z</time>
      </trkpt>
      <trkpt lat="49.27443" lon="-0.27238">
        <ele>15.3</ele>
        <time>2020-12-20T09:55:50Z</time>
      </trkpt>
      <trkpt lat="49.27442" lon="-0.27243">
        <ele>15.3</ele>
        <time>2020-12-20T09:55:51Z</time>
      </trkpt>
      <trkpt lat="49.27442" lon="-0.27247">
        <ele>15.5</ele>
        <time>2020-12-20T09:55:53Z</time>
      </trkpt>
      <trkpt lat="49.27442" lon="-0.27251">
        <ele>15.5</ele>
        <time>2020-12-20T09:55:54Z</time>
      </trkpt>
      <trkpt lat="49.27441" lon="-0.27253">
        <ele>15.6</ele>
        <time>2020-12-20T09:55:56Z</time>
      </trkpt>
      <trkpt lat="49.27441" lon="-0.27257">
        <ele>15.6</ele>
        <time>2020-12-20T09:55:57Z</time>
      </trkpt>
      <trkpt lat="49.2744" lon="-0.27259">
        <ele>15.6</ele>
        <time>2020-12-20T09:55:58Z</time>
      </trkpt>
      <trkpt lat="49.27438" lon="-0.27264">
        <ele>15.8</ele>
        <time>2020-12-20T09:56:01Z</time>
      </trkpt>
      <trkpt lat="49.27435" lon="-0.27271">
        <ele>15.9</ele>
        <time>2020-12-20T09:56:03Z</time>
      </trkpt>
      <trkpt lat="49.27434" lon="-0.27276">
        <ele>16</ele>
        <time>2020-12-20T09:56:04Z</time>
      </trkpt>
      <trkpt lat="49.27433" lon="-0.2728">
        <ele>16.1</ele>
        <time>2020-12-20T09:56:05Z</time>
      </trkpt>
      <trkpt lat="49.27432" lon="-0.27282">
        <ele>16.2</ele>
        <time>2020-12-20T09:56:06Z</time>
      </trkpt>
      <trkpt lat="49.2743" lon="-0.27289">
        <ele>16.3</ele>
        <time>2020-12-20T09:56:08Z</time>
      </trkpt>
      <trkpt lat="49.2743" lon="-0.27293">
        <ele>16.4</ele>
        <time>2020-12-20T09:56:09Z</time>
      </trkpt>
      <trkpt lat="49.27428" lon="-0.273">
        <ele>16.6</ele>
        <time>2020-12-20T09:56:11Z</time>
      </trkpt>
      <trkpt lat="49.27428" lon="-0.27305">
        <ele>16.7</ele>
        <time>2020-12-20T09:56:13Z</time>
      </trkpt>
      <trkpt lat="49.27429" lon="-0.27308">
        <ele>16.8</ele>
        <time>2020-12-20T09:56:14Z</time>
      </trkpt>
      <trkpt lat="49.27429" lon="-0.27313">
        <ele>16.9</ele>
        <time>2020-12-20T09:56:16Z</time>
      </trkpt>
      <trkpt lat="49.27429" lon="-0.27318">
        <ele>16.9</ele>
        <time>2020-12-20T09:56:18Z</time>
      </trkpt>
      <trkpt lat="49.27429" lon="-0.2732">
        <ele>16.9</ele>
        <time>2020-12-20T09:56:19Z</time>
      </trkpt>
      <trkpt lat="49.27429" lon="-0.27323">
        <ele>17</ele>
        <time>2020-12-20T09:56:20Z</time>
      </trkpt>
      <trkpt lat="49.2743" lon="-0.27326">
        <ele>17</ele>
        <time>2020-12-20T09:56:22Z</time>
      </trkpt>
      <trkpt lat="49.2743" lon="-0.27326">
        <ele>17</ele>
        <time>2020-12-20T09:56:24Z</time>
      </trkpt>
      <trkpt lat="49.2743" lon="-0.27327">
        <ele>17</ele>
        <time>2020-12-20T09:56:25Z</time>
      </trkpt>
      <trkpt lat="49.2743" lon="-0.27327">
        <ele>17</ele>
        <time>2020-12-20T09:56:26Z</time>
      </trkpt>
      <trkpt lat="49.2743" lon="-0.27327">
        <ele>17</ele>
        <time>2020-12-20T09:56:28Z</time>
      </trkpt>
      <trkpt lat="49.2743" lon="-0.27328">
        <ele>17</ele>
        <time>2020-12-20T09:56:29Z</time>
      </trkpt>
      <trkpt lat="49.27431" lon="-0.27328">
        <ele>17</ele>
        <time>2020-12-20T09:56:31Z</time>
      </trkpt>
      <trkpt lat="49.27431" lon="-0.27329">
        <ele>17</ele>
        <time>2020-12-20T09:56:33Z</time>
      </trkpt>
      <trkpt lat="49.27431" lon="-0.27329">
        <ele>17</ele>
        <time>2020-12-20T09:56:35Z</time>
      </trkpt>
      <trkpt lat="49.27431" lon="-0.27329">
        <ele>17</ele>
        <time>2020-12-20T09:56:36Z</time>
      </trkpt>
      <trkpt lat="49.27431" lon="-0.2733">
        <ele>17</ele>
        <time>2020-12-20T09:56:37Z</time>
      </trkpt>
      <trkpt lat="49.27431" lon="-0.2733">
        <ele>17</ele>
        <time>2020-12-20T09:56:38Z</time>
      </trkpt>
      <trkpt lat="49.27431" lon="-0.27331">
        <ele>17</ele>
        <time>2020-12-20T09:56:40Z</time>
      </trkpt>
      <trkpt lat="49.27431" lon="-0.27331">
        <ele>17</ele>
        <time>2020-12-20T09:56:42Z</time>
      </trkpt>
      <trkpt lat="49.27431" lon="-0.27331">
        <ele>17</ele>
        <time>2020-12-20T09:56:43Z</time>
      </trkpt>
      <trkpt lat="49.27431" lon="-0.27332">
        <ele>17</ele>
        <time>2020-12-20T09:56:44Z</time>
      </trkpt>
      <trkpt lat="49.27431" lon="-0.27332">
        <ele>17</ele>
        <time>2020-12-20T09:56:45Z</time>
      </trkpt>
      <trkpt lat="49.27432" lon="-0.27333">
        <ele>17</ele>
        <time>2020-12-20T09:56:47Z</time>
      </trkpt>
      <trkpt lat="49.27432" lon="-0.27333">
        <ele>17</ele>
        <time>2020-12-20T09:56:49Z</time>
      </trkpt>
      <trkpt lat="49.27432" lon="-0.27333">
        <ele>17</ele>
        <time>2020-12-20T09:56:50Z</time>
      </trkpt>
      <trkpt lat="49.27432" lon="-0.27334">
        <ele>17</ele>
        <time>2020-12-20T09:56:52Z</time>
      </trkpt>
      <trkpt lat="49.27432" lon="-0.27334">
        <ele>17</ele>
        <time>2020-12-20T09:56:53Z</time>
      </trkpt>
      <trkpt lat="49.27431" lon="-0.27336">
        <ele>16.9</ele>
        <time>2020-12-20T09:56:55Z</time>
      </trkpt>
      <trkpt lat="49.27432" lon="-0.27338">
        <ele>16.9</ele>
        <time>2020-12-20T09:56:56Z</time>
      </trkpt>
      <trkpt lat="49.27432" lon="-0.2734">
        <ele>16.9</ele>
        <time>2020-12-20T09:56:57Z</time>
      </trkpt>
      <trkpt lat="49.27431" lon="-0.27346">
        <ele>16.9</ele>
        <time>2020-12-20T09:56:59Z</time>
      </trkpt>
      <trkpt lat="49.27431" lon="-0.27347">
        <ele>16.9</ele>
        <time>2020-12-20T09:57:00Z</time>
      </trkpt>
      <trkpt lat="49.27431" lon="-0.27349">
        <ele>16.9</ele>
        <time>2020-12-20T09:57:01Z</time>
      </trkpt>
      <trkpt lat="49.27431" lon="-0.27349">
        <ele>16.9</ele>
        <time>2020-12-20T09:57:03Z</time>
      </trkpt>
      <trkpt lat="49.2743" lon="-0.2735">
        <ele>16.9</ele>
        <time>2020-12-20T09:57:04Z</time>
      </trkpt>
      <trkpt lat="49.2743" lon="-0.27352">
        <ele>16.9</ele>
        <time>2020-12-20T09:57:05Z</time>
      </trkpt>
      <trkpt lat="49.2743" lon="-0.27354">
        <ele>16.9</ele>
        <time>2020-12-20T09:57:06Z</time>
      </trkpt>
      <trkpt lat="49.27431" lon="-0.27357">
        <ele>16.9</ele>
        <time>2020-12-20T09:57:08Z</time>
      </trkpt>
      <trkpt lat="49.27432" lon="-0.27361">
        <ele>16.9</ele>
        <time>2020-12-20T09:57:09Z</time>
      </trkpt>
      <trkpt lat="49.27432" lon="-0.27362">
        <ele>16.9</ele>
        <time>2020-12-20T09:57:10Z</time>
      </trkpt>
      <trkpt lat="49.27432" lon="-0.27365">
        <ele>16.9</ele>
        <time>2020-12-20T09:57:11Z</time>
      </trkpt>
      <trkpt lat="49.27433" lon="-0.27367">
        <ele>16.9</ele>
        <time>2020-12-20T09:57:13Z</time>
      </trkpt>
      <trkpt lat="49.27434" lon="-0.27369">
        <ele>16.9</ele>
        <time>2020-12-20T09:57:14Z</time>
      </trkpt>
      <trkpt lat="49.27435" lon="-0.27373">
        <ele>16.9</ele>
        <time>2020-12-20T09:57:16Z</time>
      </trkpt>
      <trkpt lat="49.27435" lon="-0.27376">
        <ele>16.9</ele>
        <time>2020-12-20T09:57:17Z</time>
      </trkpt>
      <trkpt lat="49.27436" lon="-0.27379">
        <ele>16.9</ele>
        <time>2020-12-20T09:57:19Z</time>
      </trkpt>
      <trkpt lat="49.27437" lon="-0.27383">
        <ele>16.9</ele>
        <time>2020-12-20T09:57:20Z</time>
      </trkpt>
      <trkpt lat="49.27438" lon="-0.27388">
        <ele>16.9</ele>
        <time>2020-12-20T09:57:22Z</time>
      </trkpt>
      <trkpt lat="49.27439" lon="-0.27392">
        <ele>16.9</ele>
        <time>2020-12-20T09:57:23Z</time>
      </trkpt>
      <trkpt lat="49.2744" lon="-0.27396">
        <ele>17</ele>
        <time>2020-12-20T09:57:25Z</time>
      </trkpt>
      <trkpt lat="49.27441" lon="-0.27401">
        <ele>17</ele>
        <time>2020-12-20T09:57:26Z</time>
      </trkpt>
      <trkpt lat="49.27443" lon="-0.27406">
        <ele>17</ele>
        <time>2020-12-20T09:57:28Z</time>
      </trkpt>
      <trkpt lat="49.27445" lon="-0.2741">
        <ele>17</ele>
        <time>2020-12-20T09:57:29Z</time>
      </trkpt>
      <trkpt lat="49.27447" lon="-0.27416">
        <ele>17</ele>
        <time>2020-12-20T09:57:31Z</time>
      </trkpt>
      <trkpt lat="49.27448" lon="-0.27421">
        <ele>17.1</ele>
        <time>2020-12-20T09:57:32Z</time>
      </trkpt>
      <trkpt lat="49.2745" lon="-0.27427">
        <ele>17.1</ele>
        <time>2020-12-20T09:57:34Z</time>
      </trkpt>
      <trkpt lat="49.27451" lon="-0.27431">
        <ele>17.1</ele>
        <time>2020-12-20T09:57:36Z</time>
      </trkpt>
      <trkpt lat="49.27452" lon="-0.27435">
        <ele>17.2</ele>
        <time>2020-12-20T09:57:37Z</time>
      </trkpt>
      <trkpt lat="49.27454" lon="-0.2744">
        <ele>17.2</ele>
        <time>2020-12-20T09:57:38Z</time>
      </trkpt>
      <trkpt lat="49.27454" lon="-0.27441">
        <ele>17.2</ele>
        <time>2020-12-20T09:57:39Z</time>
      </trkpt>
      <trkpt lat="49.27456" lon="-0.27447">
        <ele>17.2</ele>
        <time>2020-12-20T09:57:41Z</time>
      </trkpt>
      <trkpt lat="49.27458" lon="-0.27453">
        <ele>17.3</ele>
        <time>2020-12-20T09:57:43Z</time>
      </trkpt>
      <trkpt lat="49.27458" lon="-0.27456">
        <ele>17.3</ele>
        <time>2020-12-20T09:57:44Z</time>
      </trkpt>
      <trkpt lat="49.27459" lon="-0.27459">
        <ele>17.3</ele>
        <time>2020-12-20T09:57:45Z</time>
      </trkpt>
      <trkpt lat="49.27459" lon="-0.27461">
        <ele>17.4</ele>
        <time>2020-12-20T09:57:46Z</time>
      </trkpt>
      <trkpt lat="49.27459" lon="-0.27465">
        <ele>17.4</ele>
        <time>2020-12-20T09:57:48Z</time>
      </trkpt>
      <trkpt lat="49.2746" lon="-0.2747">
        <ele>17.4</ele>
        <time>2020-12-20T09:57:49Z</time>
      </trkpt>
      <trkpt lat="49.2746" lon="-0.27472">
        <ele>17.5</ele>
        <time>2020-12-20T09:57:50Z</time>
      </trkpt>
      <trkpt lat="49.27461" lon="-0.27475">
        <ele>17.5</ele>
        <time>2020-12-20T09:57:51Z</time>
      </trkpt>
      <trkpt lat="49.27461" lon="-0.27478">
        <ele>17.5</ele>
        <time>2020-12-20T09:57:53Z</time>
      </trkpt>
      <trkpt lat="49.27462" lon="-0.2748">
        <ele>17.5</ele>
        <time>2020-12-20T09:57:54Z</time>
      </trkpt>
      <trkpt lat="49.27463" lon="-0.27485">
        <ele>17.6</ele>
        <time>2020-12-20T09:57:56Z</time>
      </trkpt>
      <trkpt lat="49.27463" lon="-0.27489">
        <ele>17.6</ele>
        <time>2020-12-20T09:57:57Z</time>
      </trkpt>
      <trkpt lat="49.27464" lon="-0.27491">
        <ele>17.6</ele>
        <time>2020-12-20T09:57:58Z</time>
      </trkpt>
      <trkpt lat="49.27465" lon="-0.27495">
        <ele>17.7</ele>
        <time>2020-12-20T09:58:00Z</time>
      </trkpt>
      <trkpt lat="49.27466" lon="-0.27499">
        <ele>17.7</ele>
        <time>2020-12-20T09:58:01Z</time>
      </trkpt>
      <trkpt lat="49.27467" lon="-0.27502">
        <ele>17.7</ele>
        <time>2020-12-20T09:58:02Z</time>
      </trkpt>
      <trkpt lat="49.27468" lon="-0.27506">
        <ele>17.8</ele>
        <time>2020-12-20T09:58:04Z</time>
      </trkpt>
      <trkpt lat="49.2747" lon="-0.27511">
        <ele>17.8</ele>
        <time>2020-12-20T09:58:06Z</time>
      </trkpt>
      <trkpt lat="49.27473" lon="-0.27514">
        <ele>17.9</ele>
        <time>2020-12-20T09:58:08Z</time>
      </trkpt>
      <trkpt lat="49.27475" lon="-0.27517">
        <ele>18</ele>
        <time>2020-12-20T09:58:10Z</time>
      </trkpt>
      <trkpt lat="49.27478" lon="-0.27521">
        <ele>18</ele>
        <time>2020-12-20T09:58:13Z</time>
      </trkpt>
      <trkpt lat="49.27478" lon="-0.27526">
        <ele>18.1</ele>
        <time>2020-12-20T09:58:16Z</time>
      </trkpt>
      <trkpt lat="49.27478" lon="-0.27531">
        <ele>18.2</ele>
        <time>2020-12-20T09:58:17Z</time>
      </trkpt>
      <trkpt lat="49.27478" lon="-0.27535">
        <ele>18.3</ele>
        <time>2020-12-20T09:58:18Z</time>
      </trkpt>
      <trkpt lat="49.27479" lon="-0.27539">
        <ele>18.3</ele>
        <time>2020-12-20T09:58:20Z</time>
      </trkpt>
      <trkpt lat="49.2748" lon="-0.27542">
        <ele>18.4</ele>
        <time>2020-12-20T09:58:21Z</time>
      </trkpt>
      <trkpt lat="49.27481" lon="-0.27547">
        <ele>18.5</ele>
        <time>2020-12-20T09:58:23Z</time>
      </trkpt>
      <trkpt lat="49.27483" lon="-0.27554">
        <ele>18.6</ele>
        <time>2020-12-20T09:58:25Z</time>
      </trkpt>
      <trkpt lat="49.27485" lon="-0.27557">
        <ele>18.7</ele>
        <time>2020-12-20T09:58:27Z</time>
      </trkpt>
      <trkpt lat="49.27486" lon="-0.27562">
        <ele>18.7</ele>
        <time>2020-12-20T09:58:29Z</time>
      </trkpt>
      <trkpt lat="49.27486" lon="-0.27563">
        <ele>18.8</ele>
        <time>2020-12-20T09:58:30Z</time>
      </trkpt>
      <trkpt lat="49.27487" lon="-0.27565">
        <ele>18.8</ele>
        <time>2020-12-20T09:58:31Z</time>
      </trkpt>
      <trkpt lat="49.27487" lon="-0.27569">
        <ele>18.8</ele>
        <time>2020-12-20T09:58:33Z</time>
      </trkpt>
      <trkpt lat="49.27489" lon="-0.27574">
        <ele>18.9</ele>
        <time>2020-12-20T09:58:35Z</time>
      </trkpt>
      <trkpt lat="49.27489" lon="-0.27576">
        <ele>18.9</ele>
        <time>2020-12-20T09:58:36Z</time>
      </trkpt>
      <trkpt lat="49.2749" lon="-0.27579">
        <ele>19</ele>
        <time>2020-12-20T09:58:37Z</time>
      </trkpt>
      <trkpt lat="49.27491" lon="-0.27583">
        <ele>19</ele>
        <time>2020-12-20T09:58:39Z</time>
      </trkpt>
      <trkpt lat="49.27493" lon="-0.27587">
        <ele>19.1</ele>
        <time>2020-12-20T09:58:41Z</time>
      </trkpt>
      <trkpt lat="49.27494" lon="-0.27591">
        <ele>19.1</ele>
        <time>2020-12-20T09:58:42Z</time>
      </trkpt>
      <trkpt lat="49.27495" lon="-0.27595">
        <ele>19.1</ele>
        <time>2020-12-20T09:58:43Z</time>
      </trkpt>
      <trkpt lat="49.27496" lon="-0.276">
        <ele>19.2</ele>
        <time>2020-12-20T09:58:45Z</time>
      </trkpt>
      <trkpt lat="49.27498" lon="-0.27607">
        <ele>19.2</ele>
        <time>2020-12-20T09:58:47Z</time>
      </trkpt>
      <trkpt lat="49.27499" lon="-0.27612">
        <ele>19.3</ele>
        <time>2020-12-20T09:58:48Z</time>
      </trkpt>
      <trkpt lat="49.27501" lon="-0.27616">
        <ele>19.3</ele>
        <time>2020-12-20T09:58:49Z</time>
      </trkpt>
      <trkpt lat="49.27503" lon="-0.27621">
        <ele>19.4</ele>
        <time>2020-12-20T09:58:51Z</time>
      </trkpt>
      <trkpt lat="49.27505" lon="-0.27626">
        <ele>19.4</ele>
        <time>2020-12-20T09:58:53Z</time>
      </trkpt>
      <trkpt lat="49.27506" lon="-0.27631">
        <ele>19.5</ele>
        <time>2020-12-20T09:58:54Z</time>
      </trkpt>
      <trkpt lat="49.27506" lon="-0.27632">
        <ele>19.5</ele>
        <time>2020-12-20T09:58:55Z</time>
      </trkpt>
      <trkpt lat="49.27508" lon="-0.27636">
        <ele>19.6</ele>
        <time>2020-12-20T09:58:57Z</time>
      </trkpt>
      <trkpt lat="49.27509" lon="-0.2764">
        <ele>19.6</ele>
        <time>2020-12-20T09:58:58Z</time>
      </trkpt>
      <trkpt lat="49.2751" lon="-0.27645">
        <ele>19.7</ele>
        <time>2020-12-20T09:58:59Z</time>
      </trkpt>
      <trkpt lat="49.27511" lon="-0.27647">
        <ele>19.7</ele>
        <time>2020-12-20T09:59:00Z</time>
      </trkpt>
      <trkpt lat="49.27512" lon="-0.27652">
        <ele>19.8</ele>
        <time>2020-12-20T09:59:01Z</time>
      </trkpt>
      <trkpt lat="49.27512" lon="-0.27653">
        <ele>19.8</ele>
        <time>2020-12-20T09:59:02Z</time>
      </trkpt>
      <trkpt lat="49.27514" lon="-0.27658">
        <ele>19.8</ele>
        <time>2020-12-20T09:59:04Z</time>
      </trkpt>
      <trkpt lat="49.27515" lon="-0.2766">
        <ele>19.9</ele>
        <time>2020-12-20T09:59:05Z</time>
      </trkpt>
      <trkpt lat="49.27516" lon="-0.27665">
        <ele>19.9</ele>
        <time>2020-12-20T09:59:06Z</time>
      </trkpt>
      <trkpt lat="49.27517" lon="-0.27668">
        <ele>20</ele>
        <time>2020-12-20T09:59:07Z</time>
      </trkpt>
      <trkpt lat="49.27518" lon="-0.27673">
        <ele>20</ele>
        <time>2020-12-20T09:59:09Z</time>
      </trkpt>
      <trkpt lat="49.27519" lon="-0.27677">
        <ele>20.1</ele>
        <time>2020-12-20T09:59:10Z</time>
      </trkpt>
      <trkpt lat="49.27519" lon="-0.27679">
        <ele>20.1</ele>
        <time>2020-12-20T09:59:12Z</time>
      </trkpt>
      <trkpt lat="49.2752" lon="-0.27685">
        <ele>20.1</ele>
        <time>2020-12-20T09:59:13Z</time>
      </trkpt>
      <trkpt lat="49.27521" lon="-0.27687">
        <ele>20.2</ele>
        <time>2020-12-20T09:59:14Z</time>
      </trkpt>
      <trkpt lat="49.27521" lon="-0.2769">
        <ele>20.2</ele>
        <time>2020-12-20T09:59:15Z</time>
      </trkpt>
      <trkpt lat="49.27522" lon="-0.27694">
        <ele>20.2</ele>
        <time>2020-12-20T09:59:17Z</time>
      </trkpt>
      <trkpt lat="49.27523" lon="-0.27697">
        <ele>20.3</ele>
        <time>2020-12-20T09:59:18Z</time>
      </trkpt>
      <trkpt lat="49.27524" lon="-0.277">
        <ele>20.3</ele>
        <time>2020-12-20T09:59:20Z</time>
      </trkpt>
      <trkpt lat="49.27524" lon="-0.27706">
        <ele>20.4</ele>
        <time>2020-12-20T09:59:21Z</time>
      </trkpt>
      <trkpt lat="49.27524" lon="-0.27707">
        <ele>20.4</ele>
        <time>2020-12-20T09:59:22Z</time>
      </trkpt>
      <trkpt lat="49.27526" lon="-0.27712">
        <ele>20.5</ele>
        <time>2020-12-20T09:59:24Z</time>
      </trkpt>
      <trkpt lat="49.27526" lon="-0.27715">
        <ele>20.5</ele>
        <time>2020-12-20T09:59:25Z</time>
      </trkpt>
      <trkpt lat="49.27527" lon="-0.27722">
        <ele>20.6</ele>
        <time>2020-12-20T09:59:27Z</time>
      </trkpt>
      <trkpt lat="49.27527" lon="-0.27725">
        <ele>20.6</ele>
        <time>2020-12-20T09:59:29Z</time>
      </trkpt>
      <trkpt lat="49.27527" lon="-0.27727">
        <ele>20.7</ele>
        <time>2020-12-20T09:59:30Z</time>
      </trkpt>
      <trkpt lat="49.27529" lon="-0.27735">
        <ele>20.8</ele>
        <time>2020-12-20T09:59:32Z</time>
      </trkpt>
      <trkpt lat="49.27529" lon="-0.27737">
        <ele>20.8</ele>
        <time>2020-12-20T09:59:34Z</time>
      </trkpt>
      <trkpt lat="49.2753" lon="-0.2774">
        <ele>20.8</ele>
        <time>2020-12-20T09:59:35Z</time>
      </trkpt>
      <trkpt lat="49.27531" lon="-0.27742">
        <ele>20.8</ele>
        <time>2020-12-20T09:59:36Z</time>
      </trkpt>
      <trkpt lat="49.27532" lon="-0.27747">
        <ele>20.9</ele>
        <time>2020-12-20T09:59:38Z</time>
      </trkpt>
      <trkpt lat="49.27532" lon="-0.27749">
        <ele>20.9</ele>
        <time>2020-12-20T09:59:39Z</time>
      </trkpt>
      <trkpt lat="49.27534" lon="-0.27754">
        <ele>21</ele>
        <time>2020-12-20T09:59:40Z</time>
      </trkpt>
      <trkpt lat="49.27534" lon="-0.27755">
        <ele>21</ele>
        <time>2020-12-20T09:59:41Z</time>
      </trkpt>
      <trkpt lat="49.27536" lon="-0.27759">
        <ele>21</ele>
        <time>2020-12-20T09:59:43Z</time>
      </trkpt>
      <trkpt lat="49.27537" lon="-0.27763">
        <ele>21.1</ele>
        <time>2020-12-20T09:59:44Z</time>
      </trkpt>
      <trkpt lat="49.27539" lon="-0.27767">
        <ele>21.1</ele>
        <time>2020-12-20T09:59:45Z</time>
      </trkpt>
      <trkpt lat="49.27541" lon="-0.27771">
        <ele>21.1</ele>
        <time>2020-12-20T09:59:46Z</time>
      </trkpt>
      <trkpt lat="49.27543" lon="-0.27775">
        <ele>21.2</ele>
        <time>2020-12-20T09:59:48Z</time>
      </trkpt>
      <trkpt lat="49.27544" lon="-0.2778">
        <ele>21.2</ele>
        <time>2020-12-20T09:59:49Z</time>
      </trkpt>
      <trkpt lat="49.27545" lon="-0.27782">
        <ele>21.2</ele>
        <time>2020-12-20T09:59:50Z</time>
      </trkpt>
      <trkpt lat="49.27546" lon="-0.27787">
        <ele>21.3</ele>
        <time>2020-12-20T09:59:52Z</time>
      </trkpt>
      <trkpt lat="49.27548" lon="-0.27791">
        <ele>21.3</ele>
        <time>2020-12-20T09:59:54Z</time>
      </trkpt>
      <trkpt lat="49.27549" lon="-0.27794">
        <ele>21.3</ele>
        <time>2020-12-20T09:59:55Z</time>
      </trkpt>
      <trkpt lat="49.27551" lon="-0.278">
        <ele>21.4</ele>
        <time>2020-12-20T09:59:57Z</time>
      </trkpt>
      <trkpt lat="49.27553" lon="-0.27804">
        <ele>21.4</ele>
        <time>2020-12-20T09:59:59Z</time>
      </trkpt>
      <trkpt lat="49.27553" lon="-0.27809">
        <ele>21.4</ele>
        <time>2020-12-20T10:00:01Z</time>
      </trkpt>
      <trkpt lat="49.27554" lon="-0.27811">
        <ele>21.4</ele>
        <time>2020-12-20T10:00:02Z</time>
      </trkpt>
      <trkpt lat="49.27554" lon="-0.27815">
        <ele>21.5</ele>
        <time>2020-12-20T10:00:04Z</time>
      </trkpt>
      <trkpt lat="49.27555" lon="-0.27818">
        <ele>21.5</ele>
        <time>2020-12-20T10:00:05Z</time>
      </trkpt>
      <trkpt lat="49.27555" lon="-0.2782">
        <ele>21.5</ele>
        <time>2020-12-20T10:00:06Z</time>
      </trkpt>
      <trkpt lat="49.27556" lon="-0.27824">
        <ele>21.5</ele>
        <time>2020-12-20T10:00:07Z</time>
      </trkpt>
      <trkpt lat="49.27555" lon="-0.27827">
        <ele>21.6</ele>
        <time>2020-12-20T10:00:09Z</time>
      </trkpt>
      <trkpt lat="49.27555" lon="-0.27833">
        <ele>21.6</ele>
        <time>2020-12-20T10:00:11Z</time>
      </trkpt>
      <trkpt lat="49.27555" lon="-0.27835">
        <ele>21.6</ele>
        <time>2020-12-20T10:00:12Z</time>
      </trkpt>
      <trkpt lat="49.27557" lon="-0.2784">
        <ele>21.6</ele>
        <time>2020-12-20T10:00:13Z</time>
      </trkpt>
      <trkpt lat="49.27557" lon="-0.27841">
        <ele>21.6</ele>
        <time>2020-12-20T10:00:14Z</time>
      </trkpt>
      <trkpt lat="49.27558" lon="-0.27845">
        <ele>21.7</ele>
        <time>2020-12-20T10:00:16Z</time>
      </trkpt>
      <trkpt lat="49.27558" lon="-0.27847">
        <ele>21.7</ele>
        <time>2020-12-20T10:00:17Z</time>
      </trkpt>
      <trkpt lat="49.2756" lon="-0.27852">
        <ele>21.7</ele>
        <time>2020-12-20T10:00:19Z</time>
      </trkpt>
      <trkpt lat="49.2756" lon="-0.27853">
        <ele>21.7</ele>
        <time>2020-12-20T10:00:20Z</time>
      </trkpt>
      <trkpt lat="49.27561" lon="-0.27855">
        <ele>21.7</ele>
        <time>2020-12-20T10:00:22Z</time>
      </trkpt>
      <trkpt lat="49.27562" lon="-0.27857">
        <ele>21.7</ele>
        <time>2020-12-20T10:00:23Z</time>
      </trkpt>
      <trkpt lat="49.27565" lon="-0.27861">
        <ele>21.7</ele>
        <time>2020-12-20T10:00:26Z</time>
      </trkpt>
      <trkpt lat="49.27564" lon="-0.27862">
        <ele>21.8</ele>
        <time>2020-12-20T10:00:28Z</time>
      </trkpt>
      <trkpt lat="49.27563" lon="-0.27863">
        <ele>21.8</ele>
        <time>2020-12-20T10:00:30Z</time>
      </trkpt>
      <trkpt lat="49.27563" lon="-0.27864">
        <ele>21.8</ele>
        <time>2020-12-20T10:00:31Z</time>
      </trkpt>
      <trkpt lat="49.27562" lon="-0.27865">
        <ele>21.8</ele>
        <time>2020-12-20T10:00:33Z</time>
      </trkpt>
      <trkpt lat="49.27562" lon="-0.27866">
        <ele>21.8</ele>
        <time>2020-12-20T10:00:34Z</time>
      </trkpt>
      <trkpt lat="49.27562" lon="-0.27867">
        <ele>21.8</ele>
        <time>2020-12-20T10:00:35Z</time>
      </trkpt>
      <trkpt lat="49.27561" lon="-0.27869">
        <ele>21.8</ele>
        <time>2020-12-20T10:00:37Z</time>
      </trkpt>
      <trkpt lat="49.27559" lon="-0.27871">
        <ele>21.8</ele>
        <time>2020-12-20T10:00:38Z</time>
      </trkpt>
      <trkpt lat="49.27558" lon="-0.27874">
        <ele>21.8</ele>
        <time>2020-12-20T10:00:40Z</time>
      </trkpt>
      <trkpt lat="49.27558" lon="-0.27877">
        <ele>21.8</ele>
        <time>2020-12-20T10:00:41Z</time>
      </trkpt>
      <trkpt lat="49.27558" lon="-0.27879">
        <ele>21.9</ele>
        <time>2020-12-20T10:00:42Z</time>
      </trkpt>
      <trkpt lat="49.27557" lon="-0.27884">
        <ele>22</ele>
        <time>2020-12-20T10:00:44Z</time>
      </trkpt>
      <trkpt lat="49.27556" lon="-0.27885">
        <ele>22</ele>
        <time>2020-12-20T10:00:45Z</time>
      </trkpt>
      <trkpt lat="49.27555" lon="-0.27886">
        <ele>22</ele>
        <time>2020-12-20T10:00:47Z</time>
      </trkpt>
      <trkpt lat="49.27553" lon="-0.27886">
        <ele>22.1</ele>
        <time>2020-12-20T10:00:48Z</time>
      </trkpt>
      <trkpt lat="49.27551" lon="-0.27885">
        <ele>22.1</ele>
        <time>2020-12-20T10:00:49Z</time>
      </trkpt>
      <trkpt lat="49.2755" lon="-0.27886">
        <ele>22.1</ele>
        <time>2020-12-20T10:00:50Z</time>
      </trkpt>
      <trkpt lat="49.27548" lon="-0.27887">
        <ele>22.1</ele>
        <time>2020-12-20T10:00:52Z</time>
      </trkpt>
      <trkpt lat="49.27547" lon="-0.27891">
        <ele>22.1</ele>
        <time>2020-12-20T10:00:54Z</time>
      </trkpt>
      <trkpt lat="49.27546" lon="-0.27895">
        <ele>22.2</ele>
        <time>2020-12-20T10:00:55Z</time>
      </trkpt>
      <trkpt lat="49.27545" lon="-0.27896">
        <ele>22.2</ele>
        <time>2020-12-20T10:00:56Z</time>
      </trkpt>
      <trkpt lat="49.27545" lon="-0.27902">
        <ele>22.2</ele>
        <time>2020-12-20T10:00:58Z</time>
      </trkpt>
      <trkpt lat="49.27545" lon="-0.27903">
        <ele>22.2</ele>
        <time>2020-12-20T10:00:59Z</time>
      </trkpt>
      <trkpt lat="49.27543" lon="-0.27905">
        <ele>22.2</ele>
        <time>2020-12-20T10:01:01Z</time>
      </trkpt>
      <trkpt lat="49.27541" lon="-0.27908">
        <ele>22.2</ele>
        <time>2020-12-20T10:01:03Z</time>
      </trkpt>
      <trkpt lat="49.27538" lon="-0.27911">
        <ele>22.3</ele>
        <time>2020-12-20T10:01:04Z</time>
      </trkpt>
      <trkpt lat="49.27538" lon="-0.27912">
        <ele>22.3</ele>
        <time>2020-12-20T10:01:05Z</time>
      </trkpt>
      <trkpt lat="49.27536" lon="-0.27913">
        <ele>22.3</ele>
        <time>2020-12-20T10:01:06Z</time>
      </trkpt>
      <trkpt lat="49.27535" lon="-0.27915">
        <ele>22.3</ele>
        <time>2020-12-20T10:01:07Z</time>
      </trkpt>
      <trkpt lat="49.27533" lon="-0.27916">
        <ele>22.3</ele>
        <time>2020-12-20T10:01:08Z</time>
      </trkpt>
      <trkpt lat="49.27532" lon="-0.27917">
        <ele>22.4</ele>
        <time>2020-12-20T10:01:10Z</time>
      </trkpt>
      <trkpt lat="49.2753" lon="-0.27919">
        <ele>22.4</ele>
        <time>2020-12-20T10:01:11Z</time>
      </trkpt>
      <trkpt lat="49.27527" lon="-0.27921">
        <ele>22.4</ele>
        <time>2020-12-20T10:01:14Z</time>
      </trkpt>
      <trkpt lat="49.27523" lon="-0.27923">
        <ele>22.5</ele>
        <time>2020-12-20T10:01:15Z</time>
      </trkpt>
      <trkpt lat="49.2752" lon="-0.27925">
        <ele>22.5</ele>
        <time>2020-12-20T10:01:17Z</time>
      </trkpt>
      <trkpt lat="49.27519" lon="-0.27926">
        <ele>22.5</ele>
        <time>2020-12-20T10:01:18Z</time>
      </trkpt>
      <trkpt lat="49.27516" lon="-0.27926">
        <ele>22.5</ele>
        <time>2020-12-20T10:01:20Z</time>
      </trkpt>
      <trkpt lat="49.27514" lon="-0.27928">
        <ele>22.6</ele>
        <time>2020-12-20T10:01:21Z</time>
      </trkpt>
      <trkpt lat="49.27512" lon="-0.27931">
        <ele>22.6</ele>
        <time>2020-12-20T10:01:23Z</time>
      </trkpt>
      <trkpt lat="49.27511" lon="-0.27933">
        <ele>22.6</ele>
        <time>2020-12-20T10:01:24Z</time>
      </trkpt>
      <trkpt lat="49.27508" lon="-0.27935">
        <ele>22.6</ele>
        <time>2020-12-20T10:01:26Z</time>
      </trkpt>
      <trkpt lat="49.27505" lon="-0.27937">
        <ele>22.6</ele>
        <time>2020-12-20T10:01:29Z</time>
      </trkpt>
      <trkpt lat="49.27502" lon="-0.27939">
        <ele>22.6</ele>
        <time>2020-12-20T10:01:30Z</time>
      </trkpt>
      <trkpt lat="49.27498" lon="-0.27941">
        <ele>22.6</ele>
        <time>2020-12-20T10:01:32Z</time>
      </trkpt>
      <trkpt lat="49.27496" lon="-0.27942">
        <ele>22.6</ele>
        <time>2020-12-20T10:01:33Z</time>
      </trkpt>
      <trkpt lat="49.27495" lon="-0.27943">
        <ele>22.6</ele>
        <time>2020-12-20T10:01:34Z</time>
      </trkpt>
      <trkpt lat="49.27493" lon="-0.27944">
        <ele>22.6</ele>
        <time>2020-12-20T10:01:35Z</time>
      </trkpt>
      <trkpt lat="49.2749" lon="-0.27946">
        <ele>22.6</ele>
        <time>2020-12-20T10:01:37Z</time>
      </trkpt>
      <trkpt lat="49.27486" lon="-0.27948">
        <ele>22.6</ele>
        <time>2020-12-20T10:01:40Z</time>
      </trkpt>
      <trkpt lat="49.27482" lon="-0.2795">
        <ele>22.7</ele>
        <time>2020-12-20T10:01:43Z</time>
      </trkpt>
      <trkpt lat="49.27479" lon="-0.27953">
        <ele>22.7</ele>
        <time>2020-12-20T10:01:44Z</time>
      </trkpt>
      <trkpt lat="49.27478" lon="-0.27953">
        <ele>22.7</ele>
        <time>2020-12-20T10:01:45Z</time>
      </trkpt>
      <trkpt lat="49.27476" lon="-0.27956">
        <ele>22.7</ele>
        <time>2020-12-20T10:01:47Z</time>
      </trkpt>
      <trkpt lat="49.27473" lon="-0.27958">
        <ele>22.7</ele>
        <time>2020-12-20T10:01:49Z</time>
      </trkpt>
      <trkpt lat="49.27469" lon="-0.2796">
        <ele>22.8</ele>
        <time>2020-12-20T10:01:51Z</time>
      </trkpt>
      <trkpt lat="49.27466" lon="-0.27962">
        <ele>22.8</ele>
        <time>2020-12-20T10:01:53Z</time>
      </trkpt>
      <trkpt lat="49.27464" lon="-0.27964">
        <ele>22.9</ele>
        <time>2020-12-20T10:01:54Z</time>
      </trkpt>
      <trkpt lat="49.27461" lon="-0.27965">
        <ele>22.9</ele>
        <time>2020-12-20T10:01:56Z</time>
      </trkpt>
      <trkpt lat="49.2746" lon="-0.27967">
        <ele>22.9</ele>
        <time>2020-12-20T10:01:57Z</time>
      </trkpt>
      <trkpt lat="49.27458" lon="-0.27968">
        <ele>23</ele>
        <time>2020-12-20T10:01:58Z</time>
      </trkpt>
      <trkpt lat="49.27457" lon="-0.27969">
        <ele>23</ele>
        <time>2020-12-20T10:01:59Z</time>
      </trkpt>
      <trkpt lat="49.27456" lon="-0.2797">
        <ele>23</ele>
        <time>2020-12-20T10:02:00Z</time>
      </trkpt>
      <trkpt lat="49.27453" lon="-0.27972">
        <ele>23.1</ele>
        <time>2020-12-20T10:02:02Z</time>
      </trkpt>
      <trkpt lat="49.27451" lon="-0.27973">
        <ele>23.1</ele>
        <time>2020-12-20T10:02:03Z</time>
      </trkpt>
      <trkpt lat="49.27449" lon="-0.27976">
        <ele>23.1</ele>
        <time>2020-12-20T10:02:05Z</time>
      </trkpt>
      <trkpt lat="49.27448" lon="-0.27978">
        <ele>23.1</ele>
        <time>2020-12-20T10:02:06Z</time>
      </trkpt>
      <trkpt lat="49.27445" lon="-0.2798">
        <ele>23.2</ele>
        <time>2020-12-20T10:02:08Z</time>
      </trkpt>
      <trkpt lat="49.27442" lon="-0.27982">
        <ele>23.2</ele>
        <time>2020-12-20T10:02:10Z</time>
      </trkpt>
      <trkpt lat="49.2744" lon="-0.27983">
        <ele>23.2</ele>
        <time>2020-12-20T10:02:11Z</time>
      </trkpt>
      <trkpt lat="49.27437" lon="-0.27985">
        <ele>23.3</ele>
        <time>2020-12-20T10:02:13Z</time>
      </trkpt>
      <trkpt lat="49.27434" lon="-0.27987">
        <ele>23.3</ele>
        <time>2020-12-20T10:02:14Z</time>
      </trkpt>
      <trkpt lat="49.27433" lon="-0.27988">
        <ele>23.4</ele>
        <time>2020-12-20T10:02:15Z</time>
      </trkpt>
      <trkpt lat="49.2743" lon="-0.27991">
        <ele>23.4</ele>
        <time>2020-12-20T10:02:17Z</time>
      </trkpt>
      <trkpt lat="49.27427" lon="-0.27993">
        <ele>23.5</ele>
        <time>2020-12-20T10:02:19Z</time>
      </trkpt>
      <trkpt lat="49.27425" lon="-0.27993">
        <ele>23.5</ele>
        <time>2020-12-20T10:02:20Z</time>
      </trkpt>
      <trkpt lat="49.27423" lon="-0.27992">
        <ele>23.5</ele>
        <time>2020-12-20T10:02:22Z</time>
      </trkpt>
      <trkpt lat="49.2742" lon="-0.2799">
        <ele>23.6</ele>
        <time>2020-12-20T10:02:24Z</time>
      </trkpt>
      <trkpt lat="49.27419" lon="-0.27989">
        <ele>23.6</ele>
        <time>2020-12-20T10:02:25Z</time>
      </trkpt>
      <trkpt lat="49.27416" lon="-0.27987">
        <ele>23.6</ele>
        <time>2020-12-20T10:02:27Z</time>
      </trkpt>
      <trkpt lat="49.27415" lon="-0.27986">
        <ele>23.6</ele>
        <time>2020-12-20T10:02:28Z</time>
      </trkpt>
      <trkpt lat="49.27413" lon="-0.27984">
        <ele>23.7</ele>
        <time>2020-12-20T10:02:30Z</time>
      </trkpt>
      <trkpt lat="49.27412" lon="-0.27983">
        <ele>23.7</ele>
        <time>2020-12-20T10:02:31Z</time>
      </trkpt>
      <trkpt lat="49.27411" lon="-0.27982">
        <ele>23.7</ele>
        <time>2020-12-20T10:02:32Z</time>
      </trkpt>
      <trkpt lat="49.27409" lon="-0.27979">
        <ele>23.7</ele>
        <time>2020-12-20T10:02:34Z</time>
      </trkpt>
      <trkpt lat="49.27407" lon="-0.27976">
        <ele>23.7</ele>
        <time>2020-12-20T10:02:35Z</time>
      </trkpt>
      <trkpt lat="49.27407" lon="-0.27975">
        <ele>23.7</ele>
        <time>2020-12-20T10:02:36Z</time>
      </trkpt>
      <trkpt lat="49.27406" lon="-0.27973">
        <ele>23.7</ele>
        <time>2020-12-20T10:02:38Z</time>
      </trkpt>
      <trkpt lat="49.27405" lon="-0.27971">
        <ele>23.7</ele>
        <time>2020-12-20T10:02:39Z</time>
      </trkpt>
      <trkpt lat="49.27404" lon="-0.27969">
        <ele>23.7</ele>
        <time>2020-12-20T10:02:41Z</time>
      </trkpt>
      <trkpt lat="49.27403" lon="-0.27967">
        <ele>23.7</ele>
        <time>2020-12-20T10:02:43Z</time>
      </trkpt>
      <trkpt lat="49.27403" lon="-0.27965">
        <ele>23.7</ele>
        <time>2020-12-20T10:02:44Z</time>
      </trkpt>
      <trkpt lat="49.27402" lon="-0.27963">
        <ele>23.7</ele>
        <time>2020-12-20T10:02:45Z</time>
      </trkpt>
      <trkpt lat="49.27399" lon="-0.27957">
        <ele>23.7</ele>
        <time>2020-12-20T10:02:47Z</time>
      </trkpt>
      <trkpt lat="49.27397" lon="-0.27952">
        <ele>23.8</ele>
        <time>2020-12-20T10:02:49Z</time>
      </trkpt>
      <trkpt lat="49.27395" lon="-0.27947">
        <ele>23.8</ele>
        <time>2020-12-20T10:02:52Z</time>
      </trkpt>
      <trkpt lat="49.27393" lon="-0.27943">
        <ele>23.8</ele>
        <time>2020-12-20T10:02:53Z</time>
      </trkpt>
      <trkpt lat="49.27392" lon="-0.27942">
        <ele>23.8</ele>
        <time>2020-12-20T10:02:54Z</time>
      </trkpt>
      <trkpt lat="49.27391" lon="-0.2794">
        <ele>23.8</ele>
        <time>2020-12-20T10:02:55Z</time>
      </trkpt>
      <trkpt lat="49.2739" lon="-0.27937">
        <ele>23.9</ele>
        <time>2020-12-20T10:02:57Z</time>
      </trkpt>
      <trkpt lat="49.27388" lon="-0.27935">
        <ele>23.9</ele>
        <time>2020-12-20T10:02:59Z</time>
      </trkpt>
      <trkpt lat="49.27386" lon="-0.27934">
        <ele>23.9</ele>
        <time>2020-12-20T10:03:01Z</time>
      </trkpt>
      <trkpt lat="49.27384" lon="-0.27933">
        <ele>23.9</ele>
        <time>2020-12-20T10:03:02Z</time>
      </trkpt>
      <trkpt lat="49.27381" lon="-0.27932">
        <ele>23.9</ele>
        <time>2020-12-20T10:03:04Z</time>
      </trkpt>
      <trkpt lat="49.27379" lon="-0.27931">
        <ele>24</ele>
        <time>2020-12-20T10:03:06Z</time>
      </trkpt>
      <trkpt lat="49.27376" lon="-0.27931">
        <ele>24</ele>
        <time>2020-12-20T10:03:08Z</time>
      </trkpt>
      <trkpt lat="49.27373" lon="-0.27932">
        <ele>24</ele>
        <time>2020-12-20T10:03:10Z</time>
      </trkpt>
      <trkpt lat="49.2737" lon="-0.27933">
        <ele>24.1</ele>
        <time>2020-12-20T10:03:12Z</time>
      </trkpt>
      <trkpt lat="49.27369" lon="-0.27933">
        <ele>24.1</ele>
        <time>2020-12-20T10:03:13Z</time>
      </trkpt>
      <trkpt lat="49.27367" lon="-0.27934">
        <ele>24.1</ele>
        <time>2020-12-20T10:03:14Z</time>
      </trkpt>
      <trkpt lat="49.27363" lon="-0.27936">
        <ele>24.1</ele>
        <time>2020-12-20T10:03:16Z</time>
      </trkpt>
      <trkpt lat="49.27361" lon="-0.27936">
        <ele>24.1</ele>
        <time>2020-12-20T10:03:17Z</time>
      </trkpt>
      <trkpt lat="49.2736" lon="-0.27935">
        <ele>24.2</ele>
        <time>2020-12-20T10:03:19Z</time>
      </trkpt>
      <trkpt lat="49.27359" lon="-0.27935">
        <ele>24.2</ele>
        <time>2020-12-20T10:03:20Z</time>
      </trkpt>
      <trkpt lat="49.27358" lon="-0.27933">
        <ele>24.2</ele>
        <time>2020-12-20T10:03:23Z</time>
      </trkpt>
      <trkpt lat="49.27357" lon="-0.27934">
        <ele>24.2</ele>
        <time>2020-12-20T10:03:24Z</time>
      </trkpt>
      <trkpt lat="49.27355" lon="-0.27935">
        <ele>24.2</ele>
        <time>2020-12-20T10:03:26Z</time>
      </trkpt>
      <trkpt lat="49.27353" lon="-0.27937">
        <ele>24.2</ele>
        <time>2020-12-20T10:03:27Z</time>
      </trkpt>
      <trkpt lat="49.27352" lon="-0.27939">
        <ele>24.2</ele>
        <time>2020-12-20T10:03:30Z</time>
      </trkpt>
      <trkpt lat="49.2735" lon="-0.2794">
        <ele>24.2</ele>
        <time>2020-12-20T10:03:31Z</time>
      </trkpt>
      <trkpt lat="49.27349" lon="-0.27941">
        <ele>24.2</ele>
        <time>2020-12-20T10:03:33Z</time>
      </trkpt>
      <trkpt lat="49.27345" lon="-0.27944">
        <ele>24.2</ele>
        <time>2020-12-20T10:03:35Z</time>
      </trkpt>
      <trkpt lat="49.27342" lon="-0.27947">
        <ele>24.2</ele>
        <time>2020-12-20T10:03:36Z</time>
      </trkpt>
      <trkpt lat="49.27339" lon="-0.27949">
        <ele>24.2</ele>
        <time>2020-12-20T10:03:38Z</time>
      </trkpt>
      <trkpt lat="49.27337" lon="-0.27951">
        <ele>24.3</ele>
        <time>2020-12-20T10:03:39Z</time>
      </trkpt>
      <trkpt lat="49.27334" lon="-0.27953">
        <ele>24.3</ele>
        <time>2020-12-20T10:03:41Z</time>
      </trkpt>
      <trkpt lat="49.27331" lon="-0.27955">
        <ele>24.3</ele>
        <time>2020-12-20T10:03:43Z</time>
      </trkpt>
      <trkpt lat="49.27328" lon="-0.27958">
        <ele>24.3</ele>
        <time>2020-12-20T10:03:45Z</time>
      </trkpt>
      <trkpt lat="49.27326" lon="-0.27959">
        <ele>24.3</ele>
        <time>2020-12-20T10:03:46Z</time>
      </trkpt>
      <trkpt lat="49.27323" lon="-0.27962">
        <ele>24.3</ele>
        <time>2020-12-20T10:03:48Z</time>
      </trkpt>
      <trkpt lat="49.27321" lon="-0.27964">
        <ele>24.3</ele>
        <time>2020-12-20T10:03:50Z</time>
      </trkpt>
      <trkpt lat="49.2732" lon="-0.27965">
        <ele>24.3</ele>
        <time>2020-12-20T10:03:51Z</time>
      </trkpt>
      <trkpt lat="49.27319" lon="-0.27966">
        <ele>24.3</ele>
        <time>2020-12-20T10:03:52Z</time>
      </trkpt>
      <trkpt lat="49.27318" lon="-0.27968">
        <ele>24.3</ele>
        <time>2020-12-20T10:03:54Z</time>
      </trkpt>
      <trkpt lat="49.27314" lon="-0.27971">
        <ele>24.3</ele>
        <time>2020-12-20T10:03:56Z</time>
      </trkpt>
      <trkpt lat="49.2731" lon="-0.27976">
        <ele>24.4</ele>
        <time>2020-12-20T10:03:57Z</time>
      </trkpt>
      <trkpt lat="49.27306" lon="-0.2798">
        <ele>24.4</ele>
        <time>2020-12-20T10:03:59Z</time>
      </trkpt>
      <trkpt lat="49.27303" lon="-0.27983">
        <ele>24.5</ele>
        <time>2020-12-20T10:04:01Z</time>
      </trkpt>
      <trkpt lat="49.273" lon="-0.27986">
        <ele>24.5</ele>
        <time>2020-12-20T10:04:02Z</time>
      </trkpt>
      <trkpt lat="49.27299" lon="-0.27987">
        <ele>24.5</ele>
        <time>2020-12-20T10:04:03Z</time>
      </trkpt>
      <trkpt lat="49.27297" lon="-0.27989">
        <ele>24.6</ele>
        <time>2020-12-20T10:04:05Z</time>
      </trkpt>
      <trkpt lat="49.27293" lon="-0.27992">
        <ele>24.6</ele>
        <time>2020-12-20T10:04:07Z</time>
      </trkpt>
      <trkpt lat="49.27291" lon="-0.27995">
        <ele>24.7</ele>
        <time>2020-12-20T10:04:08Z</time>
      </trkpt>
      <trkpt lat="49.2729" lon="-0.27996">
        <ele>24.7</ele>
        <time>2020-12-20T10:04:09Z</time>
      </trkpt>
      <trkpt lat="49.27286" lon="-0.27999">
        <ele>24.8</ele>
        <time>2020-12-20T10:04:11Z</time>
      </trkpt>
      <trkpt lat="49.27284" lon="-0.28001">
        <ele>24.8</ele>
        <time>2020-12-20T10:04:12Z</time>
      </trkpt>
      <trkpt lat="49.27281" lon="-0.28004">
        <ele>24.8</ele>
        <time>2020-12-20T10:04:14Z</time>
      </trkpt>
      <trkpt lat="49.2728" lon="-0.28006">
        <ele>24.8</ele>
        <time>2020-12-20T10:04:15Z</time>
      </trkpt>
      <trkpt lat="49.27278" lon="-0.28008">
        <ele>24.8</ele>
        <time>2020-12-20T10:04:17Z</time>
      </trkpt>
      <trkpt lat="49.27275" lon="-0.28011">
        <ele>24.9</ele>
        <time>2020-12-20T10:04:18Z</time>
      </trkpt>
      <trkpt lat="49.27272" lon="-0.28014">
        <ele>24.9</ele>
        <time>2020-12-20T10:04:20Z</time>
      </trkpt>
      <trkpt lat="49.27271" lon="-0.28016">
        <ele>24.9</ele>
        <time>2020-12-20T10:04:21Z</time>
      </trkpt>
      <trkpt lat="49.27269" lon="-0.28018">
        <ele>24.9</ele>
        <time>2020-12-20T10:04:23Z</time>
      </trkpt>
      <trkpt lat="49.27266" lon="-0.28022">
        <ele>24.9</ele>
        <time>2020-12-20T10:04:26Z</time>
      </trkpt>
      <trkpt lat="49.27265" lon="-0.28024">
        <ele>24.9</ele>
        <time>2020-12-20T10:04:27Z</time>
      </trkpt>
      <trkpt lat="49.27264" lon="-0.28026">
        <ele>24.9</ele>
        <time>2020-12-20T10:04:30Z</time>
      </trkpt>
      <trkpt lat="49.27264" lon="-0.28028">
        <ele>24.9</ele>
        <time>2020-12-20T10:04:31Z</time>
      </trkpt>
      <trkpt lat="49.27263" lon="-0.2803">
        <ele>25</ele>
        <time>2020-12-20T10:04:33Z</time>
      </trkpt>
      <trkpt lat="49.27262" lon="-0.28033">
        <ele>25</ele>
        <time>2020-12-20T10:04:34Z</time>
      </trkpt>
      <trkpt lat="49.27261" lon="-0.28037">
        <ele>25</ele>
        <time>2020-12-20T10:04:35Z</time>
      </trkpt>
      <trkpt lat="49.27258" lon="-0.28041">
        <ele>25</ele>
        <time>2020-12-20T10:04:37Z</time>
      </trkpt>
      <trkpt lat="49.27256" lon="-0.28045">
        <ele>25</ele>
        <time>2020-12-20T10:04:38Z</time>
      </trkpt>
      <trkpt lat="49.27254" lon="-0.28047">
        <ele>25</ele>
        <time>2020-12-20T10:04:39Z</time>
      </trkpt>
      <trkpt lat="49.27253" lon="-0.2805">
        <ele>25</ele>
        <time>2020-12-20T10:04:41Z</time>
      </trkpt>
      <trkpt lat="49.27251" lon="-0.28052">
        <ele>25</ele>
        <time>2020-12-20T10:04:42Z</time>
      </trkpt>
      <trkpt lat="49.27251" lon="-0.28054">
        <ele>25</ele>
        <time>2020-12-20T10:04:43Z</time>
      </trkpt>
      <trkpt lat="49.2725" lon="-0.28057">
        <ele>24.9</ele>
        <time>2020-12-20T10:04:44Z</time>
      </trkpt>
      <trkpt lat="49.2725" lon="-0.28059">
        <ele>24.9</ele>
        <time>2020-12-20T10:04:45Z</time>
      </trkpt>
      <trkpt lat="49.2725" lon="-0.28064">
        <ele>24.9</ele>
        <time>2020-12-20T10:04:46Z</time>
      </trkpt>
      <trkpt lat="49.2725" lon="-0.28066">
        <ele>24.8</ele>
        <time>2020-12-20T10:04:48Z</time>
      </trkpt>
      <trkpt lat="49.2725" lon="-0.28069">
        <ele>24.8</ele>
        <time>2020-12-20T10:04:50Z</time>
      </trkpt>
      <trkpt lat="49.2725" lon="-0.28071">
        <ele>24.8</ele>
        <time>2020-12-20T10:04:51Z</time>
      </trkpt>
      <trkpt lat="49.27251" lon="-0.28074">
        <ele>24.7</ele>
        <time>2020-12-20T10:04:53Z</time>
      </trkpt>
      <trkpt lat="49.27251" lon="-0.28077">
        <ele>24.7</ele>
        <time>2020-12-20T10:04:54Z</time>
      </trkpt>
      <trkpt lat="49.27251" lon="-0.28082">
        <ele>24.6</ele>
        <time>2020-12-20T10:04:56Z</time>
      </trkpt>
      <trkpt lat="49.27252" lon="-0.28086">
        <ele>24.6</ele>
        <time>2020-12-20T10:04:57Z</time>
      </trkpt>
      <trkpt lat="49.27253" lon="-0.28091">
        <ele>24.5</ele>
        <time>2020-12-20T10:04:58Z</time>
      </trkpt>
      <trkpt lat="49.27253" lon="-0.28093">
        <ele>24.5</ele>
        <time>2020-12-20T10:05:00Z</time>
      </trkpt>
      <trkpt lat="49.27254" lon="-0.28095">
        <ele>24.4</ele>
        <time>2020-12-20T10:05:01Z</time>
      </trkpt>
      <trkpt lat="49.27254" lon="-0.28097">
        <ele>24.4</ele>
        <time>2020-12-20T10:05:02Z</time>
      </trkpt>
      <trkpt lat="49.27255" lon="-0.28103">
        <ele>24.3</ele>
        <time>2020-12-20T10:05:04Z</time>
      </trkpt>
      <trkpt lat="49.27255" lon="-0.28106">
        <ele>24.2</ele>
        <time>2020-12-20T10:05:05Z</time>
      </trkpt>
      <trkpt lat="49.27255" lon="-0.28109">
        <ele>24.2</ele>
        <time>2020-12-20T10:05:06Z</time>
      </trkpt>
      <trkpt lat="49.27256" lon="-0.28115">
        <ele>24.1</ele>
        <time>2020-12-20T10:05:08Z</time>
      </trkpt>
      <trkpt lat="49.27256" lon="-0.28117">
        <ele>24</ele>
        <time>2020-12-20T10:05:09Z</time>
      </trkpt>
      <trkpt lat="49.27257" lon="-0.28122">
        <ele>23.9</ele>
        <time>2020-12-20T10:05:11Z</time>
      </trkpt>
      <trkpt lat="49.27257" lon="-0.28125">
        <ele>23.8</ele>
        <time>2020-12-20T10:05:12Z</time>
      </trkpt>
      <trkpt lat="49.27258" lon="-0.2813">
        <ele>23.7</ele>
        <time>2020-12-20T10:05:14Z</time>
      </trkpt>
      <trkpt lat="49.27259" lon="-0.28134">
        <ele>23.6</ele>
        <time>2020-12-20T10:05:15Z</time>
      </trkpt>
      <trkpt lat="49.27259" lon="-0.28136">
        <ele>23.6</ele>
        <time>2020-12-20T10:05:16Z</time>
      </trkpt>
      <trkpt lat="49.2726" lon="-0.28144">
        <ele>23.4</ele>
        <time>2020-12-20T10:05:19Z</time>
      </trkpt>
      <trkpt lat="49.27261" lon="-0.28149">
        <ele>23.2</ele>
        <time>2020-12-20T10:05:20Z</time>
      </trkpt>
      <trkpt lat="49.27262" lon="-0.28151">
        <ele>23.1</ele>
        <time>2020-12-20T10:05:21Z</time>
      </trkpt>
      <trkpt lat="49.27262" lon="-0.28155">
        <ele>23</ele>
        <time>2020-12-20T10:05:23Z</time>
      </trkpt>
      <trkpt lat="49.27263" lon="-0.28158">
        <ele>23</ele>
        <time>2020-12-20T10:05:24Z</time>
      </trkpt>
      <trkpt lat="49.27264" lon="-0.28161">
        <ele>22.9</ele>
        <time>2020-12-20T10:05:26Z</time>
      </trkpt>
      <trkpt lat="49.27265" lon="-0.28166">
        <ele>22.8</ele>
        <time>2020-12-20T10:05:27Z</time>
      </trkpt>
      <trkpt lat="49.27266" lon="-0.28167">
        <ele>22.7</ele>
        <time>2020-12-20T10:05:28Z</time>
      </trkpt>
      <trkpt lat="49.27266" lon="-0.28172">
        <ele>22.6</ele>
        <time>2020-12-20T10:05:30Z</time>
      </trkpt>
      <trkpt lat="49.27267" lon="-0.28173">
        <ele>22.6</ele>
        <time>2020-12-20T10:05:31Z</time>
      </trkpt>
      <trkpt lat="49.27268" lon="-0.28177">
        <ele>22.5</ele>
        <time>2020-12-20T10:05:33Z</time>
      </trkpt>
      <trkpt lat="49.27269" lon="-0.28178">
        <ele>22.5</ele>
        <time>2020-12-20T10:05:34Z</time>
      </trkpt>
      <trkpt lat="49.2727" lon="-0.28181">
        <ele>22.4</ele>
        <time>2020-12-20T10:05:35Z</time>
      </trkpt>
      <trkpt lat="49.27271" lon="-0.28183">
        <ele>22.4</ele>
        <time>2020-12-20T10:05:37Z</time>
      </trkpt>
      <trkpt lat="49.27273" lon="-0.28188">
        <ele>22.2</ele>
        <time>2020-12-20T10:05:38Z</time>
      </trkpt>
      <trkpt lat="49.27274" lon="-0.28189">
        <ele>22.2</ele>
        <time>2020-12-20T10:05:39Z</time>
      </trkpt>
      <trkpt lat="49.27275" lon="-0.28194">
        <ele>22.1</ele>
        <time>2020-12-20T10:05:40Z</time>
      </trkpt>
      <trkpt lat="49.27276" lon="-0.28195">
        <ele>22.1</ele>
        <time>2020-12-20T10:05:41Z</time>
      </trkpt>
      <trkpt lat="49.27277" lon="-0.282">
        <ele>22</ele>
        <time>2020-12-20T10:05:43Z</time>
      </trkpt>
      <trkpt lat="49.27278" lon="-0.28205">
        <ele>21.8</ele>
        <time>2020-12-20T10:05:44Z</time>
      </trkpt>
      <trkpt lat="49.2728" lon="-0.28211">
        <ele>21.7</ele>
        <time>2020-12-20T10:05:46Z</time>
      </trkpt>
      <trkpt lat="49.27282" lon="-0.28218">
        <ele>21.5</ele>
        <time>2020-12-20T10:05:48Z</time>
      </trkpt>
      <trkpt lat="49.27283" lon="-0.28222">
        <ele>21.4</ele>
        <time>2020-12-20T10:05:49Z</time>
      </trkpt>
      <trkpt lat="49.27284" lon="-0.28227">
        <ele>21.3</ele>
        <time>2020-12-20T10:05:50Z</time>
      </trkpt>
      <trkpt lat="49.27285" lon="-0.28232">
        <ele>21.1</ele>
        <time>2020-12-20T10:05:51Z</time>
      </trkpt>
      <trkpt lat="49.27286" lon="-0.28236">
        <ele>21</ele>
        <time>2020-12-20T10:05:52Z</time>
      </trkpt>
      <trkpt lat="49.27286" lon="-0.28241">
        <ele>21</ele>
        <time>2020-12-20T10:05:53Z</time>
      </trkpt>
      <trkpt lat="49.27287" lon="-0.28244">
        <ele>20.9</ele>
        <time>2020-12-20T10:05:54Z</time>
      </trkpt>
      <trkpt lat="49.27288" lon="-0.28249">
        <ele>20.8</ele>
        <time>2020-12-20T10:05:56Z</time>
      </trkpt>
      <trkpt lat="49.27289" lon="-0.28256">
        <ele>20.6</ele>
        <time>2020-12-20T10:05:58Z</time>
      </trkpt>
      <trkpt lat="49.27289" lon="-0.28258">
        <ele>20.6</ele>
        <time>2020-12-20T10:05:59Z</time>
      </trkpt>
      <trkpt lat="49.2729" lon="-0.28261">
        <ele>20.6</ele>
        <time>2020-12-20T10:06:00Z</time>
      </trkpt>
      <trkpt lat="49.2729" lon="-0.28263">
        <ele>20.5</ele>
        <time>2020-12-20T10:06:01Z</time>
      </trkpt>
      <trkpt lat="49.27291" lon="-0.28266">
        <ele>20.5</ele>
        <time>2020-12-20T10:06:03Z</time>
      </trkpt>
      <trkpt lat="49.27292" lon="-0.28271">
        <ele>20.4</ele>
        <time>2020-12-20T10:06:04Z</time>
      </trkpt>
      <trkpt lat="49.27292" lon="-0.28273">
        <ele>20.3</ele>
        <time>2020-12-20T10:06:05Z</time>
      </trkpt>
      <trkpt lat="49.27293" lon="-0.28278">
        <ele>20.2</ele>
        <time>2020-12-20T10:06:07Z</time>
      </trkpt>
      <trkpt lat="49.27293" lon="-0.28279">
        <ele>20.2</ele>
        <time>2020-12-20T10:06:08Z</time>
      </trkpt>
      <trkpt lat="49.27294" lon="-0.28284">
        <ele>20.1</ele>
        <time>2020-12-20T10:06:10Z</time>
      </trkpt>
      <trkpt lat="49.27295" lon="-0.28288">
        <ele>20</ele>
        <time>2020-12-20T10:06:11Z</time>
      </trkpt>
      <trkpt lat="49.27295" lon="-0.28292">
        <ele>19.9</ele>
        <time>2020-12-20T10:06:13Z</time>
      </trkpt>
      <trkpt lat="49.27295" lon="-0.28298">
        <ele>19.8</ele>
        <time>2020-12-20T10:06:14Z</time>
      </trkpt>
      <trkpt lat="49.27295" lon="-0.28299">
        <ele>19.8</ele>
        <time>2020-12-20T10:06:15Z</time>
      </trkpt>
      <trkpt lat="49.27296" lon="-0.28305">
        <ele>19.7</ele>
        <time>2020-12-20T10:06:17Z</time>
      </trkpt>
      <trkpt lat="49.27296" lon="-0.2831">
        <ele>19.1</ele>
        <time>2020-12-20T10:06:18Z</time>
      </trkpt>
      <trkpt lat="49.27295" lon="-0.28315">
        <ele>19</ele>
        <time>2020-12-20T10:06:19Z</time>
      </trkpt>
      <trkpt lat="49.27295" lon="-0.28317">
        <ele>19</ele>
        <time>2020-12-20T10:06:20Z</time>
      </trkpt>
      <trkpt lat="49.27294" lon="-0.28324">
        <ele>18.9</ele>
        <time>2020-12-20T10:06:22Z</time>
      </trkpt>
      <trkpt lat="49.27293" lon="-0.28327">
        <ele>18.9</ele>
        <time>2020-12-20T10:06:23Z</time>
      </trkpt>
      <trkpt lat="49.27293" lon="-0.2833">
        <ele>18.9</ele>
        <time>2020-12-20T10:06:24Z</time>
      </trkpt>
      <trkpt lat="49.27294" lon="-0.28335">
        <ele>18.8</ele>
        <time>2020-12-20T10:06:26Z</time>
      </trkpt>
      <trkpt lat="49.27294" lon="-0.28337">
        <ele>18.8</ele>
        <time>2020-12-20T10:06:27Z</time>
      </trkpt>
      <trkpt lat="49.27294" lon="-0.28341">
        <ele>18.8</ele>
        <time>2020-12-20T10:06:28Z</time>
      </trkpt>
      <trkpt lat="49.27294" lon="-0.28345">
        <ele>18.7</ele>
        <time>2020-12-20T10:06:29Z</time>
      </trkpt>
      <trkpt lat="49.27295" lon="-0.28349">
        <ele>18.7</ele>
        <time>2020-12-20T10:06:31Z</time>
      </trkpt>
      <trkpt lat="49.27295" lon="-0.28353">
        <ele>18.6</ele>
        <time>2020-12-20T10:06:32Z</time>
      </trkpt>
      <trkpt lat="49.27296" lon="-0.28358">
        <ele>18.5</ele>
        <time>2020-12-20T10:06:34Z</time>
      </trkpt>
      <trkpt lat="49.27297" lon="-0.28362">
        <ele>18.5</ele>
        <time>2020-12-20T10:06:35Z</time>
      </trkpt>
      <trkpt lat="49.27299" lon="-0.28366">
        <ele>18.4</ele>
        <time>2020-12-20T10:06:36Z</time>
      </trkpt>
      <trkpt lat="49.273" lon="-0.28371">
        <ele>18.3</ele>
        <time>2020-12-20T10:06:37Z</time>
      </trkpt>
      <trkpt lat="49.27301" lon="-0.28375">
        <ele>18.3</ele>
        <time>2020-12-20T10:06:39Z</time>
      </trkpt>
      <trkpt lat="49.27301" lon="-0.28376">
        <ele>18.3</ele>
        <time>2020-12-20T10:06:40Z</time>
      </trkpt>
      <trkpt lat="49.27302" lon="-0.28379">
        <ele>18.2</ele>
        <time>2020-12-20T10:06:41Z</time>
      </trkpt>
      <trkpt lat="49.27303" lon="-0.28383">
        <ele>18.1</ele>
        <time>2020-12-20T10:06:43Z</time>
      </trkpt>
      <trkpt lat="49.27304" lon="-0.28388">
        <ele>18</ele>
        <time>2020-12-20T10:06:44Z</time>
      </trkpt>
      <trkpt lat="49.27306" lon="-0.28393">
        <ele>18</ele>
        <time>2020-12-20T10:06:46Z</time>
      </trkpt>
      <trkpt lat="49.27306" lon="-0.28395">
        <ele>17.9</ele>
        <time>2020-12-20T10:06:47Z</time>
      </trkpt>
      <trkpt lat="49.27307" lon="-0.28399">
        <ele>17.9</ele>
        <time>2020-12-20T10:06:49Z</time>
      </trkpt>
      <trkpt lat="49.27308" lon="-0.28403">
        <ele>17.8</ele>
        <time>2020-12-20T10:06:50Z</time>
      </trkpt>
      <trkpt lat="49.27309" lon="-0.28407">
        <ele>17.8</ele>
        <time>2020-12-20T10:06:52Z</time>
      </trkpt>
      <trkpt lat="49.2731" lon="-0.28411">
        <ele>17.7</ele>
        <time>2020-12-20T10:06:53Z</time>
      </trkpt>
      <trkpt lat="49.27311" lon="-0.28414">
        <ele>17.6</ele>
        <time>2020-12-20T10:06:54Z</time>
      </trkpt>
      <trkpt lat="49.27311" lon="-0.28418">
        <ele>17.6</ele>
        <time>2020-12-20T10:06:56Z</time>
      </trkpt>
      <trkpt lat="49.27313" lon="-0.28423">
        <ele>17.5</ele>
        <time>2020-12-20T10:06:58Z</time>
      </trkpt>
      <trkpt lat="49.27313" lon="-0.28425">
        <ele>17.5</ele>
        <time>2020-12-20T10:06:59Z</time>
      </trkpt>
      <trkpt lat="49.27313" lon="-0.28428">
        <ele>17.4</ele>
        <time>2020-12-20T10:07:00Z</time>
      </trkpt>
      <trkpt lat="49.27315" lon="-0.28433">
        <ele>17.3</ele>
        <time>2020-12-20T10:07:02Z</time>
      </trkpt>
      <trkpt lat="49.27316" lon="-0.28438">
        <ele>17.3</ele>
        <time>2020-12-20T10:07:04Z</time>
      </trkpt>
      <trkpt lat="49.27317" lon="-0.28442">
        <ele>17.2</ele>
        <time>2020-12-20T10:07:05Z</time>
      </trkpt>
      <trkpt lat="49.27318" lon="-0.28446">
        <ele>17.1</ele>
        <time>2020-12-20T10:07:07Z</time>
      </trkpt>
      <trkpt lat="49.27319" lon="-0.2845">
        <ele>17.1</ele>
        <time>2020-12-20T10:07:08Z</time>
      </trkpt>
      <trkpt lat="49.2732" lon="-0.28455">
        <ele>17</ele>
        <time>2020-12-20T10:07:10Z</time>
      </trkpt>
      <trkpt lat="49.2732" lon="-0.28456">
        <ele>16.9</ele>
        <time>2020-12-20T10:07:11Z</time>
      </trkpt>
      <trkpt lat="49.2732" lon="-0.28463">
        <ele>16.8</ele>
        <time>2020-12-20T10:07:13Z</time>
      </trkpt>
      <trkpt lat="49.2732" lon="-0.28465">
        <ele>16.8</ele>
        <time>2020-12-20T10:07:14Z</time>
      </trkpt>
      <trkpt lat="49.27321" lon="-0.28467">
        <ele>16.8</ele>
        <time>2020-12-20T10:07:15Z</time>
      </trkpt>
      <trkpt lat="49.27321" lon="-0.28471">
        <ele>16.7</ele>
        <time>2020-12-20T10:07:17Z</time>
      </trkpt>
      <trkpt lat="49.27321" lon="-0.28476">
        <ele>16.6</ele>
        <time>2020-12-20T10:07:19Z</time>
      </trkpt>
      <trkpt lat="49.27322" lon="-0.28481">
        <ele>16.5</ele>
        <time>2020-12-20T10:07:21Z</time>
      </trkpt>
      <trkpt lat="49.27323" lon="-0.28484">
        <ele>16.5</ele>
        <time>2020-12-20T10:07:22Z</time>
      </trkpt>
      <trkpt lat="49.27323" lon="-0.28488">
        <ele>16.4</ele>
        <time>2020-12-20T10:07:24Z</time>
      </trkpt>
      <trkpt lat="49.27324" lon="-0.28492">
        <ele>16.3</ele>
        <time>2020-12-20T10:07:25Z</time>
      </trkpt>
      <trkpt lat="49.27325" lon="-0.28497">
        <ele>16.3</ele>
        <time>2020-12-20T10:07:27Z</time>
      </trkpt>
      <trkpt lat="49.27325" lon="-0.28502">
        <ele>16.2</ele>
        <time>2020-12-20T10:07:28Z</time>
      </trkpt>
      <trkpt lat="49.27326" lon="-0.28507">
        <ele>16.1</ele>
        <time>2020-12-20T10:07:30Z</time>
      </trkpt>
      <trkpt lat="49.27327" lon="-0.28514">
        <ele>15.9</ele>
        <time>2020-12-20T10:07:32Z</time>
      </trkpt>
      <trkpt lat="49.27328" lon="-0.2852">
        <ele>15.8</ele>
        <time>2020-12-20T10:07:34Z</time>
      </trkpt>
      <trkpt lat="49.27329" lon="-0.28525">
        <ele>15.7</ele>
        <time>2020-12-20T10:07:35Z</time>
      </trkpt>
      <trkpt lat="49.2733" lon="-0.28531">
        <ele>15.6</ele>
        <time>2020-12-20T10:07:37Z</time>
      </trkpt>
      <trkpt lat="49.2733" lon="-0.28534">
        <ele>15.6</ele>
        <time>2020-12-20T10:07:38Z</time>
      </trkpt>
      <trkpt lat="49.27331" lon="-0.28541">
        <ele>15.4</ele>
        <time>2020-12-20T10:07:40Z</time>
      </trkpt>
      <trkpt lat="49.27331" lon="-0.28543">
        <ele>15.4</ele>
        <time>2020-12-20T10:07:42Z</time>
      </trkpt>
      <trkpt lat="49.27332" lon="-0.28546">
        <ele>15.3</ele>
        <time>2020-12-20T10:07:43Z</time>
      </trkpt>
      <trkpt lat="49.27333" lon="-0.28551">
        <ele>15.2</ele>
        <time>2020-12-20T10:07:44Z</time>
      </trkpt>
      <trkpt lat="49.27333" lon="-0.28553">
        <ele>15.2</ele>
        <time>2020-12-20T10:07:45Z</time>
      </trkpt>
      <trkpt lat="49.27334" lon="-0.28557">
        <ele>15.1</ele>
        <time>2020-12-20T10:07:46Z</time>
      </trkpt>
      <trkpt lat="49.27334" lon="-0.28562">
        <ele>15</ele>
        <time>2020-12-20T10:07:48Z</time>
      </trkpt>
      <trkpt lat="49.27335" lon="-0.28567">
        <ele>14.9</ele>
        <time>2020-12-20T10:07:50Z</time>
      </trkpt>
      <trkpt lat="49.27336" lon="-0.28572">
        <ele>14.8</ele>
        <time>2020-12-20T10:07:51Z</time>
      </trkpt>
      <trkpt lat="49.27337" lon="-0.28579">
        <ele>14.7</ele>
        <time>2020-12-20T10:07:53Z</time>
      </trkpt>
      <trkpt lat="49.27338" lon="-0.28582">
        <ele>14.6</ele>
        <time>2020-12-20T10:07:54Z</time>
      </trkpt>
      <trkpt lat="49.27339" lon="-0.28584">
        <ele>14.6</ele>
        <time>2020-12-20T10:07:55Z</time>
      </trkpt>
      <trkpt lat="49.2734" lon="-0.2859">
        <ele>14.5</ele>
        <time>2020-12-20T10:07:57Z</time>
      </trkpt>
      <trkpt lat="49.27341" lon="-0.28593">
        <ele>14.4</ele>
        <time>2020-12-20T10:07:58Z</time>
      </trkpt>
      <trkpt lat="49.27342" lon="-0.28595">
        <ele>14.4</ele>
        <time>2020-12-20T10:08:00Z</time>
      </trkpt>
      <trkpt lat="49.27343" lon="-0.28599">
        <ele>14.3</ele>
        <time>2020-12-20T10:08:02Z</time>
      </trkpt>
      <trkpt lat="49.27344" lon="-0.28603">
        <ele>14.2</ele>
        <time>2020-12-20T10:08:03Z</time>
      </trkpt>
      <trkpt lat="49.27345" lon="-0.28608">
        <ele>14.1</ele>
        <time>2020-12-20T10:08:04Z</time>
      </trkpt>
      <trkpt lat="49.27346" lon="-0.28611">
        <ele>14.1</ele>
        <time>2020-12-20T10:08:05Z</time>
      </trkpt>
      <trkpt lat="49.27347" lon="-0.28614">
        <ele>14</ele>
        <time>2020-12-20T10:08:07Z</time>
      </trkpt>
      <trkpt lat="49.27348" lon="-0.28618">
        <ele>14</ele>
        <time>2020-12-20T10:08:08Z</time>
      </trkpt>
      <trkpt lat="49.27348" lon="-0.2862">
        <ele>14</ele>
        <time>2020-12-20T10:08:09Z</time>
      </trkpt>
      <trkpt lat="49.2735" lon="-0.28626">
        <ele>13.9</ele>
        <time>2020-12-20T10:08:11Z</time>
      </trkpt>
      <trkpt lat="49.2735" lon="-0.28628">
        <ele>13.9</ele>
        <time>2020-12-20T10:08:12Z</time>
      </trkpt>
      <trkpt lat="49.27351" lon="-0.28631">
        <ele>13.8</ele>
        <time>2020-12-20T10:08:13Z</time>
      </trkpt>
      <trkpt lat="49.27352" lon="-0.28635">
        <ele>13.8</ele>
        <time>2020-12-20T10:08:15Z</time>
      </trkpt>
      <trkpt lat="49.27353" lon="-0.2864">
        <ele>13.8</ele>
        <time>2020-12-20T10:08:16Z</time>
      </trkpt>
      <trkpt lat="49.27353" lon="-0.28642">
        <ele>13.7</ele>
        <time>2020-12-20T10:08:17Z</time>
      </trkpt>
      <trkpt lat="49.27354" lon="-0.28646">
        <ele>13.7</ele>
        <time>2020-12-20T10:08:19Z</time>
      </trkpt>
      <trkpt lat="49.27355" lon="-0.28648">
        <ele>13.7</ele>
        <time>2020-12-20T10:08:20Z</time>
      </trkpt>
      <trkpt lat="49.27355" lon="-0.28651">
        <ele>13.7</ele>
        <time>2020-12-20T10:08:21Z</time>
      </trkpt>
      <trkpt lat="49.27356" lon="-0.28657">
        <ele>13.6</ele>
        <time>2020-12-20T10:08:23Z</time>
      </trkpt>
      <trkpt lat="49.27357" lon="-0.28659">
        <ele>13.6</ele>
        <time>2020-12-20T10:08:24Z</time>
      </trkpt>
      <trkpt lat="49.27357" lon="-0.28664">
        <ele>13.6</ele>
        <time>2020-12-20T10:08:26Z</time>
      </trkpt>
      <trkpt lat="49.27359" lon="-0.28671">
        <ele>13.6</ele>
        <time>2020-12-20T10:08:28Z</time>
      </trkpt>
      <trkpt lat="49.2736" lon="-0.28674">
        <ele>13.5</ele>
        <time>2020-12-20T10:08:30Z</time>
      </trkpt>
      <trkpt lat="49.27361" lon="-0.28679">
        <ele>13.5</ele>
        <time>2020-12-20T10:08:31Z</time>
      </trkpt>
      <trkpt lat="49.27361" lon="-0.28681">
        <ele>13.5</ele>
        <time>2020-12-20T10:08:32Z</time>
      </trkpt>
      <trkpt lat="49.27362" lon="-0.28685">
        <ele>13.5</ele>
        <time>2020-12-20T10:08:33Z</time>
      </trkpt>
      <trkpt lat="49.27362" lon="-0.28687">
        <ele>13.5</ele>
        <time>2020-12-20T10:08:35Z</time>
      </trkpt>
      <trkpt lat="49.27363" lon="-0.28692">
        <ele>13.5</ele>
        <time>2020-12-20T10:08:36Z</time>
      </trkpt>
      <trkpt lat="49.27364" lon="-0.28697">
        <ele>13.4</ele>
        <time>2020-12-20T10:08:37Z</time>
      </trkpt>
      <trkpt lat="49.27364" lon="-0.28699">
        <ele>13.4</ele>
        <time>2020-12-20T10:08:38Z</time>
      </trkpt>
      <trkpt lat="49.27365" lon="-0.28705">
        <ele>13.4</ele>
        <time>2020-12-20T10:08:40Z</time>
      </trkpt>
      <trkpt lat="49.27366" lon="-0.28708">
        <ele>13.4</ele>
        <time>2020-12-20T10:08:41Z</time>
      </trkpt>
      <trkpt lat="49.27366" lon="-0.28715">
        <ele>13.4</ele>
        <time>2020-12-20T10:08:43Z</time>
      </trkpt>
      <trkpt lat="49.27366" lon="-0.28718">
        <ele>13.4</ele>
        <time>2020-12-20T10:08:44Z</time>
      </trkpt>
      <trkpt lat="49.27366" lon="-0.2872">
        <ele>13.4</ele>
        <time>2020-12-20T10:08:45Z</time>
      </trkpt>
      <trkpt lat="49.27366" lon="-0.28724">
        <ele>13.4</ele>
        <time>2020-12-20T10:08:46Z</time>
      </trkpt>
      <trkpt lat="49.27366" lon="-0.28728">
        <ele>13.4</ele>
        <time>2020-12-20T10:08:48Z</time>
      </trkpt>
      <trkpt lat="49.27366" lon="-0.28733">
        <ele>13.4</ele>
        <time>2020-12-20T10:08:49Z</time>
      </trkpt>
      <trkpt lat="49.27367" lon="-0.28739">
        <ele>13.5</ele>
        <time>2020-12-20T10:08:50Z</time>
      </trkpt>
      <trkpt lat="49.27367" lon="-0.28742">
        <ele>13.5</ele>
        <time>2020-12-20T10:08:51Z</time>
      </trkpt>
      <trkpt lat="49.27367" lon="-0.28747">
        <ele>13.5</ele>
        <time>2020-12-20T10:08:53Z</time>
      </trkpt>
      <trkpt lat="49.27367" lon="-0.28751">
        <ele>13.5</ele>
        <time>2020-12-20T10:08:54Z</time>
      </trkpt>
      <trkpt lat="49.27368" lon="-0.28754">
        <ele>13.5</ele>
        <time>2020-12-20T10:08:56Z</time>
      </trkpt>
      <trkpt lat="49.27368" lon="-0.28756">
        <ele>13.6</ele>
        <time>2020-12-20T10:08:57Z</time>
      </trkpt>
      <trkpt lat="49.27368" lon="-0.28758">
        <ele>13.6</ele>
        <time>2020-12-20T10:08:58Z</time>
      </trkpt>
      <trkpt lat="49.27368" lon="-0.28762">
        <ele>13.6</ele>
        <time>2020-12-20T10:09:00Z</time>
      </trkpt>
      <trkpt lat="49.27368" lon="-0.28766">
        <ele>13.7</ele>
        <time>2020-12-20T10:09:02Z</time>
      </trkpt>
      <trkpt lat="49.27369" lon="-0.28771">
        <ele>13.7</ele>
        <time>2020-12-20T10:09:03Z</time>
      </trkpt>
      <trkpt lat="49.27369" lon="-0.28776">
        <ele>13.8</ele>
        <time>2020-12-20T10:09:04Z</time>
      </trkpt>
      <trkpt lat="49.27369" lon="-0.28778">
        <ele>13.8</ele>
        <time>2020-12-20T10:09:05Z</time>
      </trkpt>
      <trkpt lat="49.2737" lon="-0.28782">
        <ele>13.8</ele>
        <time>2020-12-20T10:09:07Z</time>
      </trkpt>
      <trkpt lat="49.2737" lon="-0.28784">
        <ele>13.9</ele>
        <time>2020-12-20T10:09:08Z</time>
      </trkpt>
      <trkpt lat="49.2737" lon="-0.2879">
        <ele>13.9</ele>
        <time>2020-12-20T10:09:09Z</time>
      </trkpt>
      <trkpt lat="49.2737" lon="-0.28792">
        <ele>14</ele>
        <time>2020-12-20T10:09:10Z</time>
      </trkpt>
      <trkpt lat="49.2737" lon="-0.28796">
        <ele>14</ele>
        <time>2020-12-20T10:09:11Z</time>
      </trkpt>
      <trkpt lat="49.27371" lon="-0.288">
        <ele>14.1</ele>
        <time>2020-12-20T10:09:13Z</time>
      </trkpt>
      <trkpt lat="49.27371" lon="-0.28805">
        <ele>14.2</ele>
        <time>2020-12-20T10:09:14Z</time>
      </trkpt>
      <trkpt lat="49.27372" lon="-0.28809">
        <ele>14.2</ele>
        <time>2020-12-20T10:09:15Z</time>
      </trkpt>
      <trkpt lat="49.27372" lon="-0.28814">
        <ele>14.3</ele>
        <time>2020-12-20T10:09:17Z</time>
      </trkpt>
      <trkpt lat="49.27373" lon="-0.28818">
        <ele>14.4</ele>
        <time>2020-12-20T10:09:19Z</time>
      </trkpt>
      <trkpt lat="49.27374" lon="-0.28822">
        <ele>14.4</ele>
        <time>2020-12-20T10:09:20Z</time>
      </trkpt>
      <trkpt lat="49.27374" lon="-0.28826">
        <ele>14.5</ele>
        <time>2020-12-20T10:09:22Z</time>
      </trkpt>
      <trkpt lat="49.27375" lon="-0.28829">
        <ele>14.6</ele>
        <time>2020-12-20T10:09:23Z</time>
      </trkpt>
      <trkpt lat="49.27376" lon="-0.28833">
        <ele>14.6</ele>
        <time>2020-12-20T10:09:25Z</time>
      </trkpt>
      <trkpt lat="49.27376" lon="-0.28835">
        <ele>14.6</ele>
        <time>2020-12-20T10:09:26Z</time>
      </trkpt>
      <trkpt lat="49.27377" lon="-0.28838">
        <ele>14.7</ele>
        <time>2020-12-20T10:09:27Z</time>
      </trkpt>
      <trkpt lat="49.27378" lon="-0.28843">
        <ele>14.7</ele>
        <time>2020-12-20T10:09:28Z</time>
      </trkpt>
      <trkpt lat="49.27378" lon="-0.28845">
        <ele>14.7</ele>
        <time>2020-12-20T10:09:29Z</time>
      </trkpt>
      <trkpt lat="49.2738" lon="-0.28851">
        <ele>14.8</ele>
        <time>2020-12-20T10:09:31Z</time>
      </trkpt>
      <trkpt lat="49.27381" lon="-0.28853">
        <ele>14.8</ele>
        <time>2020-12-20T10:09:33Z</time>
      </trkpt>
      <trkpt lat="49.27382" lon="-0.28859">
        <ele>14.9</ele>
        <time>2020-12-20T10:09:35Z</time>
      </trkpt>
      <trkpt lat="49.27383" lon="-0.28864">
        <ele>14.9</ele>
        <time>2020-12-20T10:09:37Z</time>
      </trkpt>
      <trkpt lat="49.27384" lon="-0.28868">
        <ele>14.9</ele>
        <time>2020-12-20T10:09:38Z</time>
      </trkpt>
      <trkpt lat="49.27385" lon="-0.28874">
        <ele>15</ele>
        <time>2020-12-20T10:09:40Z</time>
      </trkpt>
      <trkpt lat="49.27386" lon="-0.28877">
        <ele>15</ele>
        <time>2020-12-20T10:09:41Z</time>
      </trkpt>
      <trkpt lat="49.27387" lon="-0.28879">
        <ele>15</ele>
        <time>2020-12-20T10:09:42Z</time>
      </trkpt>
      <trkpt lat="49.27387" lon="-0.28882">
        <ele>15</ele>
        <time>2020-12-20T10:09:44Z</time>
      </trkpt>
      <trkpt lat="49.27388" lon="-0.28886">
        <ele>15</ele>
        <time>2020-12-20T10:09:46Z</time>
      </trkpt>
      <trkpt lat="49.27388" lon="-0.28889">
        <ele>15</ele>
        <time>2020-12-20T10:09:47Z</time>
      </trkpt>
      <trkpt lat="49.27388" lon="-0.28893">
        <ele>15</ele>
        <time>2020-12-20T10:09:49Z</time>
      </trkpt>
      <trkpt lat="49.27389" lon="-0.28898">
        <ele>15</ele>
        <time>2020-12-20T10:09:51Z</time>
      </trkpt>
      <trkpt lat="49.27389" lon="-0.28899">
        <ele>15</ele>
        <time>2020-12-20T10:09:52Z</time>
      </trkpt>
      <trkpt lat="49.2739" lon="-0.28905">
        <ele>15</ele>
        <time>2020-12-20T10:09:54Z</time>
      </trkpt>
      <trkpt lat="49.27391" lon="-0.28907">
        <ele>15</ele>
        <time>2020-12-20T10:09:55Z</time>
      </trkpt>
      <trkpt lat="49.27391" lon="-0.28912">
        <ele>15</ele>
        <time>2020-12-20T10:09:57Z</time>
      </trkpt>
      <trkpt lat="49.27391" lon="-0.28914">
        <ele>15</ele>
        <time>2020-12-20T10:09:58Z</time>
      </trkpt>
      <trkpt lat="49.2739" lon="-0.28919">
        <ele>15</ele>
        <time>2020-12-20T10:10:00Z</time>
      </trkpt>
      <trkpt lat="49.2739" lon="-0.28922">
        <ele>15</ele>
        <time>2020-12-20T10:10:01Z</time>
      </trkpt>
      <trkpt lat="49.27394" lon="-0.28927">
        <ele>15</ele>
        <time>2020-12-20T10:10:02Z</time>
      </trkpt>
      <trkpt lat="49.27397" lon="-0.28932">
        <ele>15</ele>
        <time>2020-12-20T10:10:04Z</time>
      </trkpt>
      <trkpt lat="49.27398" lon="-0.28935">
        <ele>14.9</ele>
        <time>2020-12-20T10:10:05Z</time>
      </trkpt>
      <trkpt lat="49.274" lon="-0.28938">
        <ele>14.9</ele>
        <time>2020-12-20T10:10:07Z</time>
      </trkpt>
      <trkpt lat="49.27401" lon="-0.2894">
        <ele>14.9</ele>
        <time>2020-12-20T10:10:08Z</time>
      </trkpt>
      <trkpt lat="49.27403" lon="-0.28944">
        <ele>14.8</ele>
        <time>2020-12-20T10:10:09Z</time>
      </trkpt>
      <trkpt lat="49.27405" lon="-0.28949">
        <ele>14.8</ele>
        <time>2020-12-20T10:10:11Z</time>
      </trkpt>
      <trkpt lat="49.27405" lon="-0.28952">
        <ele>14.8</ele>
        <time>2020-12-20T10:10:12Z</time>
      </trkpt>
      <trkpt lat="49.27407" lon="-0.28956">
        <ele>14.7</ele>
        <time>2020-12-20T10:10:13Z</time>
      </trkpt>
      <trkpt lat="49.27407" lon="-0.28957">
        <ele>14.7</ele>
        <time>2020-12-20T10:10:14Z</time>
      </trkpt>
      <trkpt lat="49.27409" lon="-0.28963">
        <ele>14.6</ele>
        <time>2020-12-20T10:10:16Z</time>
      </trkpt>
      <trkpt lat="49.27411" lon="-0.28967">
        <ele>14.5</ele>
        <time>2020-12-20T10:10:18Z</time>
      </trkpt>
      <trkpt lat="49.27411" lon="-0.28969">
        <ele>14.5</ele>
        <time>2020-12-20T10:10:19Z</time>
      </trkpt>
      <trkpt lat="49.27412" lon="-0.28973">
        <ele>14.5</ele>
        <time>2020-12-20T10:10:21Z</time>
      </trkpt>
      <trkpt lat="49.27413" lon="-0.28975">
        <ele>14.4</ele>
        <time>2020-12-20T10:10:23Z</time>
      </trkpt>
      <trkpt lat="49.27414" lon="-0.2898">
        <ele>14.3</ele>
        <time>2020-12-20T10:10:24Z</time>
      </trkpt>
      <trkpt lat="49.27416" lon="-0.28985">
        <ele>14.3</ele>
        <time>2020-12-20T10:10:26Z</time>
      </trkpt>
      <trkpt lat="49.27416" lon="-0.28988">
        <ele>14.2</ele>
        <time>2020-12-20T10:10:27Z</time>
      </trkpt>
      <trkpt lat="49.27418" lon="-0.28993">
        <ele>14.1</ele>
        <time>2020-12-20T10:10:29Z</time>
      </trkpt>
      <trkpt lat="49.27418" lon="-0.28995">
        <ele>14.1</ele>
        <time>2020-12-20T10:10:31Z</time>
      </trkpt>
      <trkpt lat="49.2742" lon="-0.29002">
        <ele>13.9</ele>
        <time>2020-12-20T10:10:33Z</time>
      </trkpt>
      <trkpt lat="49.27422" lon="-0.29007">
        <ele>13.9</ele>
        <time>2020-12-20T10:10:35Z</time>
      </trkpt>
      <trkpt lat="49.27423" lon="-0.29011">
        <ele>13.8</ele>
        <time>2020-12-20T10:10:37Z</time>
      </trkpt>
      <trkpt lat="49.27425" lon="-0.29016">
        <ele>13.7</ele>
        <time>2020-12-20T10:10:39Z</time>
      </trkpt>
      <trkpt lat="49.27426" lon="-0.2902">
        <ele>13.6</ele>
        <time>2020-12-20T10:10:41Z</time>
      </trkpt>
      <trkpt lat="49.27426" lon="-0.29022">
        <ele>13.6</ele>
        <time>2020-12-20T10:10:42Z</time>
      </trkpt>
      <trkpt lat="49.27428" lon="-0.29026">
        <ele>13.5</ele>
        <time>2020-12-20T10:10:44Z</time>
      </trkpt>
      <trkpt lat="49.27429" lon="-0.2903">
        <ele>13.4</ele>
        <time>2020-12-20T10:10:45Z</time>
      </trkpt>
      <trkpt lat="49.27429" lon="-0.29033">
        <ele>13.3</ele>
        <time>2020-12-20T10:10:48Z</time>
      </trkpt>
      <trkpt lat="49.2743" lon="-0.29036">
        <ele>13.3</ele>
        <time>2020-12-20T10:10:49Z</time>
      </trkpt>
      <trkpt lat="49.2743" lon="-0.29039">
        <ele>13.2</ele>
        <time>2020-12-20T10:10:50Z</time>
      </trkpt>
      <trkpt lat="49.27431" lon="-0.29041">
        <ele>13.2</ele>
        <time>2020-12-20T10:10:51Z</time>
      </trkpt>
      <trkpt lat="49.27432" lon="-0.29041">
        <ele>13.2</ele>
        <time>2020-12-20T10:10:53Z</time>
      </trkpt>
      <trkpt lat="49.27431" lon="-0.29041">
        <ele>13.2</ele>
        <time>2020-12-20T10:10:54Z</time>
      </trkpt>
      <trkpt lat="49.27431" lon="-0.29044">
        <ele>13.1</ele>
        <time>2020-12-20T10:10:55Z</time>
      </trkpt>
      <trkpt lat="49.27433" lon="-0.29046">
        <ele>13</ele>
        <time>2020-12-20T10:10:56Z</time>
      </trkpt>
      <trkpt lat="49.27435" lon="-0.29049">
        <ele>13</ele>
        <time>2020-12-20T10:10:58Z</time>
      </trkpt>
      <trkpt lat="49.27437" lon="-0.29054">
        <ele>12.9</ele>
        <time>2020-12-20T10:10:59Z</time>
      </trkpt>
      <trkpt lat="49.2744" lon="-0.29059">
        <ele>12.8</ele>
        <time>2020-12-20T10:11:01Z</time>
      </trkpt>
      <trkpt lat="49.2744" lon="-0.2906">
        <ele>12.8</ele>
        <time>2020-12-20T10:11:02Z</time>
      </trkpt>
      <trkpt lat="49.27442" lon="-0.29064">
        <ele>12.7</ele>
        <time>2020-12-20T10:11:04Z</time>
      </trkpt>
      <trkpt lat="49.27444" lon="-0.29068">
        <ele>12.6</ele>
        <time>2020-12-20T10:11:05Z</time>
      </trkpt>
      <trkpt lat="49.27445" lon="-0.29073">
        <ele>12.5</ele>
        <time>2020-12-20T10:11:07Z</time>
      </trkpt>
      <trkpt lat="49.27447" lon="-0.29077">
        <ele>12.5</ele>
        <time>2020-12-20T10:11:08Z</time>
      </trkpt>
      <trkpt lat="49.27449" lon="-0.29082">
        <ele>12.5</ele>
        <time>2020-12-20T10:11:10Z</time>
      </trkpt>
      <trkpt lat="49.2745" lon="-0.29085">
        <ele>12.4</ele>
        <time>2020-12-20T10:11:11Z</time>
      </trkpt>
      <trkpt lat="49.27452" lon="-0.29091">
        <ele>12.4</ele>
        <time>2020-12-20T10:11:13Z</time>
      </trkpt>
      <trkpt lat="49.27454" lon="-0.29096">
        <ele>12.3</ele>
        <time>2020-12-20T10:11:15Z</time>
      </trkpt>
      <trkpt lat="49.27457" lon="-0.29102">
        <ele>12.3</ele>
        <time>2020-12-20T10:11:16Z</time>
      </trkpt>
      <trkpt lat="49.27459" lon="-0.29107">
        <ele>12.3</ele>
        <time>2020-12-20T10:11:18Z</time>
      </trkpt>
      <trkpt lat="49.27461" lon="-0.29111">
        <ele>12.2</ele>
        <time>2020-12-20T10:11:19Z</time>
      </trkpt>
      <trkpt lat="49.27463" lon="-0.29117">
        <ele>12.2</ele>
        <time>2020-12-20T10:11:20Z</time>
      </trkpt>
      <trkpt lat="49.27463" lon="-0.29119">
        <ele>12.2</ele>
        <time>2020-12-20T10:11:21Z</time>
      </trkpt>
      <trkpt lat="49.27464" lon="-0.29122">
        <ele>12.1</ele>
        <time>2020-12-20T10:11:23Z</time>
      </trkpt>
      <trkpt lat="49.27466" lon="-0.29126">
        <ele>12.1</ele>
        <time>2020-12-20T10:11:25Z</time>
      </trkpt>
      <trkpt lat="49.27467" lon="-0.2913">
        <ele>12.1</ele>
        <time>2020-12-20T10:11:26Z</time>
      </trkpt>
      <trkpt lat="49.27469" lon="-0.29135">
        <ele>12.1</ele>
        <time>2020-12-20T10:11:27Z</time>
      </trkpt>
      <trkpt lat="49.2747" lon="-0.29136">
        <ele>12.1</ele>
        <time>2020-12-20T10:11:28Z</time>
      </trkpt>
      <trkpt lat="49.27472" lon="-0.2914">
        <ele>12</ele>
        <time>2020-12-20T10:11:30Z</time>
      </trkpt>
      <trkpt lat="49.27472" lon="-0.29142">
        <ele>12</ele>
        <time>2020-12-20T10:11:31Z</time>
      </trkpt>
      <trkpt lat="49.27474" lon="-0.29147">
        <ele>12</ele>
        <time>2020-12-20T10:11:32Z</time>
      </trkpt>
      <trkpt lat="49.27474" lon="-0.29149">
        <ele>12</ele>
        <time>2020-12-20T10:11:33Z</time>
      </trkpt>
      <trkpt lat="49.27476" lon="-0.29152">
        <ele>12</ele>
        <time>2020-12-20T10:11:34Z</time>
      </trkpt>
      <trkpt lat="49.27477" lon="-0.29154">
        <ele>12</ele>
        <time>2020-12-20T10:11:36Z</time>
      </trkpt>
      <trkpt lat="49.27478" lon="-0.29159">
        <ele>12</ele>
        <time>2020-12-20T10:11:37Z</time>
      </trkpt>
      <trkpt lat="49.27479" lon="-0.2916">
        <ele>12</ele>
        <time>2020-12-20T10:11:38Z</time>
      </trkpt>
      <trkpt lat="49.2748" lon="-0.29164">
        <ele>12</ele>
        <time>2020-12-20T10:11:39Z</time>
      </trkpt>
      <trkpt lat="49.27482" lon="-0.29169">
        <ele>12</ele>
        <time>2020-12-20T10:11:41Z</time>
      </trkpt>
      <trkpt lat="49.27482" lon="-0.2917">
        <ele>12</ele>
        <time>2020-12-20T10:11:42Z</time>
      </trkpt>
      <trkpt lat="49.27483" lon="-0.29173">
        <ele>12</ele>
        <time>2020-12-20T10:11:43Z</time>
      </trkpt>
      <trkpt lat="49.27485" lon="-0.29177">
        <ele>12</ele>
        <time>2020-12-20T10:11:45Z</time>
      </trkpt>
      <trkpt lat="49.27486" lon="-0.29182">
        <ele>12</ele>
        <time>2020-12-20T10:11:46Z</time>
      </trkpt>
      <trkpt lat="49.27487" lon="-0.29187">
        <ele>12</ele>
        <time>2020-12-20T10:11:48Z</time>
      </trkpt>
      <trkpt lat="49.27489" lon="-0.29191">
        <ele>12</ele>
        <time>2020-12-20T10:11:50Z</time>
      </trkpt>
      <trkpt lat="49.2749" lon="-0.29193">
        <ele>12</ele>
        <time>2020-12-20T10:11:51Z</time>
      </trkpt>
      <trkpt lat="49.27491" lon="-0.29198">
        <ele>12</ele>
        <time>2020-12-20T10:11:52Z</time>
      </trkpt>
      <trkpt lat="49.27493" lon="-0.29203">
        <ele>12.1</ele>
        <time>2020-12-20T10:11:54Z</time>
      </trkpt>
      <trkpt lat="49.27494" lon="-0.29207">
        <ele>12.1</ele>
        <time>2020-12-20T10:11:55Z</time>
      </trkpt>
      <trkpt lat="49.27495" lon="-0.2921">
        <ele>12.1</ele>
        <time>2020-12-20T10:11:57Z</time>
      </trkpt>
      <trkpt lat="49.27497" lon="-0.29216">
        <ele>12.1</ele>
        <time>2020-12-20T10:11:58Z</time>
      </trkpt>
      <trkpt lat="49.27498" lon="-0.29221">
        <ele>12.2</ele>
        <time>2020-12-20T10:12:00Z</time>
      </trkpt>
      <trkpt lat="49.275" lon="-0.29225">
        <ele>12.2</ele>
        <time>2020-12-20T10:12:01Z</time>
      </trkpt>
      <trkpt lat="49.275" lon="-0.29227">
        <ele>12.2</ele>
        <time>2020-12-20T10:12:03Z</time>
      </trkpt>
      <trkpt lat="49.27501" lon="-0.2923">
        <ele>12.2</ele>
        <time>2020-12-20T10:12:04Z</time>
      </trkpt>
      <trkpt lat="49.27501" lon="-0.29232">
        <ele>12.2</ele>
        <time>2020-12-20T10:12:05Z</time>
      </trkpt>
      <trkpt lat="49.27502" lon="-0.29235">
        <ele>12.2</ele>
        <time>2020-12-20T10:12:06Z</time>
      </trkpt>
      <trkpt lat="49.27503" lon="-0.29238">
        <ele>12.2</ele>
        <time>2020-12-20T10:12:08Z</time>
      </trkpt>
      <trkpt lat="49.27505" lon="-0.29243">
        <ele>12.2</ele>
        <time>2020-12-20T10:12:09Z</time>
      </trkpt>
      <trkpt lat="49.27505" lon="-0.29245">
        <ele>12.2</ele>
        <time>2020-12-20T10:12:10Z</time>
      </trkpt>
      <trkpt lat="49.27506" lon="-0.29248">
        <ele>12.2</ele>
        <time>2020-12-20T10:12:11Z</time>
      </trkpt>
      <trkpt lat="49.27507" lon="-0.29251">
        <ele>12.3</ele>
        <time>2020-12-20T10:12:13Z</time>
      </trkpt>
      <trkpt lat="49.27508" lon="-0.29255">
        <ele>12.3</ele>
        <time>2020-12-20T10:12:14Z</time>
      </trkpt>
      <trkpt lat="49.27509" lon="-0.29256">
        <ele>12.3</ele>
        <time>2020-12-20T10:12:15Z</time>
      </trkpt>
      <trkpt lat="49.2751" lon="-0.29261">
        <ele>12.2</ele>
        <time>2020-12-20T10:12:16Z</time>
      </trkpt>
      <trkpt lat="49.2751" lon="-0.29262">
        <ele>12.2</ele>
        <time>2020-12-20T10:12:17Z</time>
      </trkpt>
      <trkpt lat="49.27511" lon="-0.29265">
        <ele>12.2</ele>
        <time>2020-12-20T10:12:18Z</time>
      </trkpt>
      <trkpt lat="49.27512" lon="-0.29268">
        <ele>12.2</ele>
        <time>2020-12-20T10:12:20Z</time>
      </trkpt>
      <trkpt lat="49.27513" lon="-0.29272">
        <ele>12.2</ele>
        <time>2020-12-20T10:12:21Z</time>
      </trkpt>
      <trkpt lat="49.27513" lon="-0.29274">
        <ele>12.2</ele>
        <time>2020-12-20T10:12:22Z</time>
      </trkpt>
      <trkpt lat="49.27514" lon="-0.29277">
        <ele>12.2</ele>
        <time>2020-12-20T10:12:23Z</time>
      </trkpt>
      <trkpt lat="49.27515" lon="-0.2928">
        <ele>12.1</ele>
        <time>2020-12-20T10:12:25Z</time>
      </trkpt>
      <trkpt lat="49.27516" lon="-0.29284">
        <ele>12.1</ele>
        <time>2020-12-20T10:12:26Z</time>
      </trkpt>
      <trkpt lat="49.27518" lon="-0.29292">
        <ele>12.1</ele>
        <time>2020-12-20T10:12:28Z</time>
      </trkpt>
      <trkpt lat="49.27519" lon="-0.29294">
        <ele>12</ele>
        <time>2020-12-20T10:12:30Z</time>
      </trkpt>
      <trkpt lat="49.2752" lon="-0.29297">
        <ele>12</ele>
        <time>2020-12-20T10:12:31Z</time>
      </trkpt>
      <trkpt lat="49.27521" lon="-0.29301">
        <ele>12</ele>
        <time>2020-12-20T10:12:32Z</time>
      </trkpt>
      <trkpt lat="49.27522" lon="-0.29305">
        <ele>12</ele>
        <time>2020-12-20T10:12:34Z</time>
      </trkpt>
      <trkpt lat="49.27525" lon="-0.29312">
        <ele>11.9</ele>
        <time>2020-12-20T10:12:36Z</time>
      </trkpt>
      <trkpt lat="49.27526" lon="-0.29316">
        <ele>11.9</ele>
        <time>2020-12-20T10:12:38Z</time>
      </trkpt>
      <trkpt lat="49.27528" lon="-0.29321">
        <ele>11.9</ele>
        <time>2020-12-20T10:12:40Z</time>
      </trkpt>
      <trkpt lat="49.27528" lon="-0.29322">
        <ele>11.9</ele>
        <time>2020-12-20T10:12:41Z</time>
      </trkpt>
      <trkpt lat="49.27529" lon="-0.29327">
        <ele>11.8</ele>
        <time>2020-12-20T10:12:43Z</time>
      </trkpt>
      <trkpt lat="49.27531" lon="-0.2933">
        <ele>11.8</ele>
        <time>2020-12-20T10:12:44Z</time>
      </trkpt>
      <trkpt lat="49.27532" lon="-0.29333">
        <ele>11.8</ele>
        <time>2020-12-20T10:12:46Z</time>
      </trkpt>
      <trkpt lat="49.27534" lon="-0.29337">
        <ele>11.8</ele>
        <time>2020-12-20T10:12:48Z</time>
      </trkpt>
      <trkpt lat="49.27535" lon="-0.29341">
        <ele>11.8</ele>
        <time>2020-12-20T10:12:49Z</time>
      </trkpt>
      <trkpt lat="49.27537" lon="-0.29345">
        <ele>11.7</ele>
        <time>2020-12-20T10:12:50Z</time>
      </trkpt>
      <trkpt lat="49.27537" lon="-0.29346">
        <ele>11.7</ele>
        <time>2020-12-20T10:12:51Z</time>
      </trkpt>
      <trkpt lat="49.27539" lon="-0.29351">
        <ele>11.7</ele>
        <time>2020-12-20T10:12:53Z</time>
      </trkpt>
      <trkpt lat="49.27539" lon="-0.29353">
        <ele>11.7</ele>
        <time>2020-12-20T10:12:54Z</time>
      </trkpt>
      <trkpt lat="49.27541" lon="-0.29357">
        <ele>11.7</ele>
        <time>2020-12-20T10:12:55Z</time>
      </trkpt>
      <trkpt lat="49.27542" lon="-0.29361">
        <ele>11.7</ele>
        <time>2020-12-20T10:12:57Z</time>
      </trkpt>
      <trkpt lat="49.27543" lon="-0.29363">
        <ele>11.7</ele>
        <time>2020-12-20T10:12:58Z</time>
      </trkpt>
      <trkpt lat="49.27544" lon="-0.29366">
        <ele>11.6</ele>
        <time>2020-12-20T10:12:59Z</time>
      </trkpt>
      <trkpt lat="49.27544" lon="-0.29368">
        <ele>11.6</ele>
        <time>2020-12-20T10:13:00Z</time>
      </trkpt>
      <trkpt lat="49.27546" lon="-0.29372">
        <ele>11.6</ele>
        <time>2020-12-20T10:13:02Z</time>
      </trkpt>
      <trkpt lat="49.27547" lon="-0.29374">
        <ele>11.6</ele>
        <time>2020-12-20T10:13:03Z</time>
      </trkpt>
      <trkpt lat="49.27548" lon="-0.29377">
        <ele>11.6</ele>
        <time>2020-12-20T10:13:04Z</time>
      </trkpt>
      <trkpt lat="49.27548" lon="-0.2938">
        <ele>11.6</ele>
        <time>2020-12-20T10:13:06Z</time>
      </trkpt>
      <trkpt lat="49.2755" lon="-0.29385">
        <ele>11.5</ele>
        <time>2020-12-20T10:13:07Z</time>
      </trkpt>
      <trkpt lat="49.27551" lon="-0.29387">
        <ele>11.5</ele>
        <time>2020-12-20T10:13:08Z</time>
      </trkpt>
      <trkpt lat="49.27551" lon="-0.29393">
        <ele>11.6</ele>
        <time>2020-12-20T10:13:10Z</time>
      </trkpt>
      <trkpt lat="49.2755" lon="-0.29396">
        <ele>11.6</ele>
        <time>2020-12-20T10:13:11Z</time>
      </trkpt>
      <trkpt lat="49.27549" lon="-0.29398">
        <ele>11.6</ele>
        <time>2020-12-20T10:13:13Z</time>
      </trkpt>
      <trkpt lat="49.27549" lon="-0.29403">
        <ele>11.7</ele>
        <time>2020-12-20T10:13:14Z</time>
      </trkpt>
      <trkpt lat="49.27549" lon="-0.29407">
        <ele>11.7</ele>
        <time>2020-12-20T10:13:15Z</time>
      </trkpt>
      <trkpt lat="49.27549" lon="-0.29409">
        <ele>11.7</ele>
        <time>2020-12-20T10:13:16Z</time>
      </trkpt>
      <trkpt lat="49.27551" lon="-0.29415">
        <ele>11.7</ele>
        <time>2020-12-20T10:13:18Z</time>
      </trkpt>
      <trkpt lat="49.27551" lon="-0.29417">
        <ele>11.7</ele>
        <time>2020-12-20T10:13:20Z</time>
      </trkpt>
      <trkpt lat="49.27552" lon="-0.2942">
        <ele>11.7</ele>
        <time>2020-12-20T10:13:21Z</time>
      </trkpt>
      <trkpt lat="49.27552" lon="-0.29424">
        <ele>11.7</ele>
        <time>2020-12-20T10:13:22Z</time>
      </trkpt>
      <trkpt lat="49.27552" lon="-0.29426">
        <ele>11.7</ele>
        <time>2020-12-20T10:13:23Z</time>
      </trkpt>
      <trkpt lat="49.27553" lon="-0.29432">
        <ele>11.7</ele>
        <time>2020-12-20T10:13:25Z</time>
      </trkpt>
      <trkpt lat="49.27553" lon="-0.29434">
        <ele>11.7</ele>
        <time>2020-12-20T10:13:26Z</time>
      </trkpt>
      <trkpt lat="49.27554" lon="-0.29437">
        <ele>11.7</ele>
        <time>2020-12-20T10:13:27Z</time>
      </trkpt>
      <trkpt lat="49.27555" lon="-0.29442">
        <ele>11.7</ele>
        <time>2020-12-20T10:13:29Z</time>
      </trkpt>
      <trkpt lat="49.27556" lon="-0.29448">
        <ele>11.7</ele>
        <time>2020-12-20T10:13:31Z</time>
      </trkpt>
      <trkpt lat="49.27558" lon="-0.29453">
        <ele>11.7</ele>
        <time>2020-12-20T10:13:32Z</time>
      </trkpt>
      <trkpt lat="49.27559" lon="-0.29458">
        <ele>11.7</ele>
        <time>2020-12-20T10:13:34Z</time>
      </trkpt>
      <trkpt lat="49.27559" lon="-0.29459">
        <ele>11.7</ele>
        <time>2020-12-20T10:13:35Z</time>
      </trkpt>
      <trkpt lat="49.2756" lon="-0.29461">
        <ele>11.7</ele>
        <time>2020-12-20T10:13:36Z</time>
      </trkpt>
      <trkpt lat="49.27561" lon="-0.29463">
        <ele>11.7</ele>
        <time>2020-12-20T10:13:37Z</time>
      </trkpt>
      <trkpt lat="49.27563" lon="-0.29469">
        <ele>11.7</ele>
        <time>2020-12-20T10:13:39Z</time>
      </trkpt>
      <trkpt lat="49.27563" lon="-0.29471">
        <ele>11.7</ele>
        <time>2020-12-20T10:13:41Z</time>
      </trkpt>
      <trkpt lat="49.27564" lon="-0.29473">
        <ele>11.6</ele>
        <time>2020-12-20T10:13:42Z</time>
      </trkpt>
      <trkpt lat="49.27565" lon="-0.29476">
        <ele>11.6</ele>
        <time>2020-12-20T10:13:43Z</time>
      </trkpt>
      <trkpt lat="49.27566" lon="-0.29483">
        <ele>11.6</ele>
        <time>2020-12-20T10:13:45Z</time>
      </trkpt>
      <trkpt lat="49.27567" lon="-0.29487">
        <ele>11.5</ele>
        <time>2020-12-20T10:13:47Z</time>
      </trkpt>
      <trkpt lat="49.27567" lon="-0.29493">
        <ele>11.5</ele>
        <time>2020-12-20T10:13:48Z</time>
      </trkpt>
      <trkpt lat="49.27568" lon="-0.29494">
        <ele>11.5</ele>
        <time>2020-12-20T10:13:49Z</time>
      </trkpt>
      <trkpt lat="49.27569" lon="-0.295">
        <ele>11.4</ele>
        <time>2020-12-20T10:13:51Z</time>
      </trkpt>
      <trkpt lat="49.27569" lon="-0.29503">
        <ele>11.4</ele>
        <time>2020-12-20T10:13:52Z</time>
      </trkpt>
      <trkpt lat="49.2757" lon="-0.29507">
        <ele>11.4</ele>
        <time>2020-12-20T10:13:54Z</time>
      </trkpt>
      <trkpt lat="49.2757" lon="-0.29508">
        <ele>11.4</ele>
        <time>2020-12-20T10:13:55Z</time>
      </trkpt>
      <trkpt lat="49.27572" lon="-0.29513">
        <ele>11.3</ele>
        <time>2020-12-20T10:13:56Z</time>
      </trkpt>
      <trkpt lat="49.27572" lon="-0.29515">
        <ele>11.3</ele>
        <time>2020-12-20T10:13:57Z</time>
      </trkpt>
      <trkpt lat="49.27573" lon="-0.29519">
        <ele>11.3</ele>
        <time>2020-12-20T10:13:59Z</time>
      </trkpt>
      <trkpt lat="49.27575" lon="-0.29523">
        <ele>11.2</ele>
        <time>2020-12-20T10:14:00Z</time>
      </trkpt>
      <trkpt lat="49.27577" lon="-0.2953">
        <ele>11.2</ele>
        <time>2020-12-20T10:14:02Z</time>
      </trkpt>
      <trkpt lat="49.27578" lon="-0.29532">
        <ele>11.2</ele>
        <time>2020-12-20T10:14:03Z</time>
      </trkpt>
      <trkpt lat="49.27578" lon="-0.29534">
        <ele>11.2</ele>
        <time>2020-12-20T10:14:04Z</time>
      </trkpt>
      <trkpt lat="49.27581" lon="-0.2954">
        <ele>11.1</ele>
        <time>2020-12-20T10:14:06Z</time>
      </trkpt>
      <trkpt lat="49.27581" lon="-0.29542">
        <ele>11.1</ele>
        <time>2020-12-20T10:14:07Z</time>
      </trkpt>
      <trkpt lat="49.27582" lon="-0.29544">
        <ele>11.1</ele>
        <time>2020-12-20T10:14:08Z</time>
      </trkpt>
      <trkpt lat="49.27584" lon="-0.29549">
        <ele>11.1</ele>
        <time>2020-12-20T10:14:10Z</time>
      </trkpt>
      <trkpt lat="49.27584" lon="-0.29551">
        <ele>11</ele>
        <time>2020-12-20T10:14:11Z</time>
      </trkpt>
      <trkpt lat="49.27586" lon="-0.29555">
        <ele>11</ele>
        <time>2020-12-20T10:14:12Z</time>
      </trkpt>
      <trkpt lat="49.27586" lon="-0.29558">
        <ele>11</ele>
        <time>2020-12-20T10:14:13Z</time>
      </trkpt>
      <trkpt lat="49.27588" lon="-0.29564">
        <ele>10.9</ele>
        <time>2020-12-20T10:14:15Z</time>
      </trkpt>
      <trkpt lat="49.27589" lon="-0.29568">
        <ele>10.9</ele>
        <time>2020-12-20T10:14:16Z</time>
      </trkpt>
      <trkpt lat="49.2759" lon="-0.29573">
        <ele>10.8</ele>
        <time>2020-12-20T10:14:18Z</time>
      </trkpt>
      <trkpt lat="49.27591" lon="-0.29574">
        <ele>10.8</ele>
        <time>2020-12-20T10:14:19Z</time>
      </trkpt>
      <trkpt lat="49.27592" lon="-0.29578">
        <ele>10.8</ele>
        <time>2020-12-20T10:14:20Z</time>
      </trkpt>
      <trkpt lat="49.27593" lon="-0.29583">
        <ele>10.7</ele>
        <time>2020-12-20T10:14:22Z</time>
      </trkpt>
      <trkpt lat="49.27594" lon="-0.29585">
        <ele>10.7</ele>
        <time>2020-12-20T10:14:23Z</time>
      </trkpt>
      <trkpt lat="49.27594" lon="-0.29587">
        <ele>10.7</ele>
        <time>2020-12-20T10:14:24Z</time>
      </trkpt>
      <trkpt lat="49.27594" lon="-0.29592">
        <ele>10.6</ele>
        <time>2020-12-20T10:14:26Z</time>
      </trkpt>
      <trkpt lat="49.27594" lon="-0.29594">
        <ele>10.6</ele>
        <time>2020-12-20T10:14:27Z</time>
      </trkpt>
      <trkpt lat="49.27593" lon="-0.29597">
        <ele>10.6</ele>
        <time>2020-12-20T10:14:29Z</time>
      </trkpt>
      <trkpt lat="49.27593" lon="-0.29598">
        <ele>10.6</ele>
        <time>2020-12-20T10:14:30Z</time>
      </trkpt>
      <trkpt lat="49.27593" lon="-0.296">
        <ele>10.5</ele>
        <time>2020-12-20T10:14:31Z</time>
      </trkpt>
      <trkpt lat="49.27593" lon="-0.29602">
        <ele>10.5</ele>
        <time>2020-12-20T10:14:32Z</time>
      </trkpt>
      <trkpt lat="49.27594" lon="-0.29604">
        <ele>10.5</ele>
        <time>2020-12-20T10:14:34Z</time>
      </trkpt>
      <trkpt lat="49.27594" lon="-0.29608">
        <ele>10.5</ele>
        <time>2020-12-20T10:14:36Z</time>
      </trkpt>
      <trkpt lat="49.27595" lon="-0.29612">
        <ele>10.4</ele>
        <time>2020-12-20T10:14:37Z</time>
      </trkpt>
      <trkpt lat="49.27596" lon="-0.29616">
        <ele>10.4</ele>
        <time>2020-12-20T10:14:39Z</time>
      </trkpt>
      <trkpt lat="49.27597" lon="-0.29618">
        <ele>10.4</ele>
        <time>2020-12-20T10:14:41Z</time>
      </trkpt>
      <trkpt lat="49.27598" lon="-0.29624">
        <ele>10.3</ele>
        <time>2020-12-20T10:14:43Z</time>
      </trkpt>
      <trkpt lat="49.27599" lon="-0.29629">
        <ele>10.3</ele>
        <time>2020-12-20T10:14:44Z</time>
      </trkpt>
      <trkpt lat="49.276" lon="-0.29636">
        <ele>10.2</ele>
        <time>2020-12-20T10:14:46Z</time>
      </trkpt>
      <trkpt lat="49.27601" lon="-0.29641">
        <ele>10.1</ele>
        <time>2020-12-20T10:14:47Z</time>
      </trkpt>
      <trkpt lat="49.27602" lon="-0.29644">
        <ele>10.1</ele>
        <time>2020-12-20T10:14:48Z</time>
      </trkpt>
      <trkpt lat="49.27602" lon="-0.2965">
        <ele>10</ele>
        <time>2020-12-20T10:14:50Z</time>
      </trkpt>
      <trkpt lat="49.27604" lon="-0.29655">
        <ele>9.9</ele>
        <time>2020-12-20T10:14:52Z</time>
      </trkpt>
      <trkpt lat="49.27605" lon="-0.29657">
        <ele>9.9</ele>
        <time>2020-12-20T10:14:54Z</time>
      </trkpt>
      <trkpt lat="49.27605" lon="-0.29659">
        <ele>9.9</ele>
        <time>2020-12-20T10:14:55Z</time>
      </trkpt>
      <trkpt lat="49.27607" lon="-0.29661">
        <ele>9.8</ele>
        <time>2020-12-20T10:14:56Z</time>
      </trkpt>
      <trkpt lat="49.27608" lon="-0.29663">
        <ele>9.8</ele>
        <time>2020-12-20T10:14:58Z</time>
      </trkpt>
      <trkpt lat="49.27609" lon="-0.29664">
        <ele>9.8</ele>
        <time>2020-12-20T10:14:59Z</time>
      </trkpt>
      <trkpt lat="49.2761" lon="-0.29666">
        <ele>9.7</ele>
        <time>2020-12-20T10:15:00Z</time>
      </trkpt>
      <trkpt lat="49.27611" lon="-0.29669">
        <ele>9.7</ele>
        <time>2020-12-20T10:15:01Z</time>
      </trkpt>
      <trkpt lat="49.27611" lon="-0.2967">
        <ele>9.7</ele>
        <time>2020-12-20T10:15:02Z</time>
      </trkpt>
      <trkpt lat="49.27612" lon="-0.29671">
        <ele>9.7</ele>
        <time>2020-12-20T10:15:03Z</time>
      </trkpt>
      <trkpt lat="49.27612" lon="-0.29674">
        <ele>9.6</ele>
        <time>2020-12-20T10:15:05Z</time>
      </trkpt>
      <trkpt lat="49.27613" lon="-0.29676">
        <ele>9.6</ele>
        <time>2020-12-20T10:15:06Z</time>
      </trkpt>
      <trkpt lat="49.27615" lon="-0.29682">
        <ele>9.5</ele>
        <time>2020-12-20T10:15:08Z</time>
      </trkpt>
      <trkpt lat="49.27615" lon="-0.29684">
        <ele>9.5</ele>
        <time>2020-12-20T10:15:09Z</time>
      </trkpt>
      <trkpt lat="49.27618" lon="-0.29692">
        <ele>9.4</ele>
        <time>2020-12-20T10:15:11Z</time>
      </trkpt>
      <trkpt lat="49.2762" lon="-0.29696">
        <ele>9.4</ele>
        <time>2020-12-20T10:15:12Z</time>
      </trkpt>
      <trkpt lat="49.27622" lon="-0.29699">
        <ele>9.3</ele>
        <time>2020-12-20T10:15:13Z</time>
      </trkpt>
      <trkpt lat="49.27624" lon="-0.297">
        <ele>9.3</ele>
        <time>2020-12-20T10:15:15Z</time>
      </trkpt>
      <trkpt lat="49.27627" lon="-0.29703">
        <ele>9.2</ele>
        <time>2020-12-20T10:15:16Z</time>
      </trkpt>
      <trkpt lat="49.27628" lon="-0.29703">
        <ele>9.2</ele>
        <time>2020-12-20T10:15:17Z</time>
      </trkpt>
      <trkpt lat="49.2763" lon="-0.29704">
        <ele>9.2</ele>
        <time>2020-12-20T10:15:19Z</time>
      </trkpt>
      <trkpt lat="49.27631" lon="-0.29705">
        <ele>9.1</ele>
        <time>2020-12-20T10:15:20Z</time>
      </trkpt>
      <trkpt lat="49.27635" lon="-0.29705">
        <ele>9.1</ele>
        <time>2020-12-20T10:15:22Z</time>
      </trkpt>
      <trkpt lat="49.27636" lon="-0.29705">
        <ele>9</ele>
        <time>2020-12-20T10:15:23Z</time>
      </trkpt>
      <trkpt lat="49.27637" lon="-0.29706">
        <ele>9</ele>
        <time>2020-12-20T10:15:24Z</time>
      </trkpt>
      <trkpt lat="49.27641" lon="-0.29706">
        <ele>8.9</ele>
        <time>2020-12-20T10:15:26Z</time>
      </trkpt>
      <trkpt lat="49.27642" lon="-0.29708">
        <ele>8.9</ele>
        <time>2020-12-20T10:15:28Z</time>
      </trkpt>
      <trkpt lat="49.27643" lon="-0.29709">
        <ele>8.9</ele>
        <time>2020-12-20T10:15:29Z</time>
      </trkpt>
      <trkpt lat="49.27644" lon="-0.29709">
        <ele>8.8</ele>
        <time>2020-12-20T10:15:30Z</time>
      </trkpt>
      <trkpt lat="49.27645" lon="-0.29712">
        <ele>8.8</ele>
        <time>2020-12-20T10:15:31Z</time>
      </trkpt>
      <trkpt lat="49.27646" lon="-0.29715">
        <ele>8.7</ele>
        <time>2020-12-20T10:15:33Z</time>
      </trkpt>
      <trkpt lat="49.27647" lon="-0.29718">
        <ele>8.7</ele>
        <time>2020-12-20T10:15:34Z</time>
      </trkpt>
      <trkpt lat="49.27648" lon="-0.2972">
        <ele>8.7</ele>
        <time>2020-12-20T10:15:35Z</time>
      </trkpt>
      <trkpt lat="49.2765" lon="-0.29723">
        <ele>8.6</ele>
        <time>2020-12-20T10:15:36Z</time>
      </trkpt>
      <trkpt lat="49.27651" lon="-0.29724">
        <ele>8.6</ele>
        <time>2020-12-20T10:15:37Z</time>
      </trkpt>
      <trkpt lat="49.27654" lon="-0.29729">
        <ele>8.5</ele>
        <time>2020-12-20T10:15:39Z</time>
      </trkpt>
      <trkpt lat="49.27655" lon="-0.29731">
        <ele>8.2</ele>
        <time>2020-12-20T10:15:40Z</time>
      </trkpt>
      <trkpt lat="49.27656" lon="-0.29732">
        <ele>8.2</ele>
        <time>2020-12-20T10:15:41Z</time>
      </trkpt>
      <trkpt lat="49.27657" lon="-0.29736">
        <ele>8.2</ele>
        <time>2020-12-20T10:15:43Z</time>
      </trkpt>
      <trkpt lat="49.27659" lon="-0.29738">
        <ele>8.2</ele>
        <time>2020-12-20T10:15:44Z</time>
      </trkpt>
      <trkpt lat="49.27661" lon="-0.29738">
        <ele>8.2</ele>
        <time>2020-12-20T10:15:46Z</time>
      </trkpt>
      <trkpt lat="49.27664" lon="-0.29739">
        <ele>8</ele>
        <time>2020-12-20T10:15:47Z</time>
      </trkpt>
      <trkpt lat="49.27665" lon="-0.29739">
        <ele>8</ele>
        <time>2020-12-20T10:15:48Z</time>
      </trkpt>
      <trkpt lat="49.27666" lon="-0.2974">
        <ele>8</ele>
        <time>2020-12-20T10:15:49Z</time>
      </trkpt>
      <trkpt lat="49.27668" lon="-0.29743">
        <ele>8</ele>
        <time>2020-12-20T10:15:51Z</time>
      </trkpt>
      <trkpt lat="49.27671" lon="-0.29745">
        <ele>8</ele>
        <time>2020-12-20T10:15:53Z</time>
      </trkpt>
      <trkpt lat="49.27672" lon="-0.29745">
        <ele>7.9</ele>
        <time>2020-12-20T10:15:54Z</time>
      </trkpt>
      <trkpt lat="49.27674" lon="-0.29745">
        <ele>7.9</ele>
        <time>2020-12-20T10:15:55Z</time>
      </trkpt>
      <trkpt lat="49.27677" lon="-0.29745">
        <ele>7.8</ele>
        <time>2020-12-20T10:15:57Z</time>
      </trkpt>
      <trkpt lat="49.27678" lon="-0.29745">
        <ele>7.8</ele>
        <time>2020-12-20T10:15:58Z</time>
      </trkpt>
      <trkpt lat="49.27681" lon="-0.29745">
        <ele>7.8</ele>
        <time>2020-12-20T10:16:00Z</time>
      </trkpt>
      <trkpt lat="49.27683" lon="-0.29744">
        <ele>7.8</ele>
        <time>2020-12-20T10:16:01Z</time>
      </trkpt>
      <trkpt lat="49.27686" lon="-0.29744">
        <ele>7.7</ele>
        <time>2020-12-20T10:16:03Z</time>
      </trkpt>
      <trkpt lat="49.27687" lon="-0.29744">
        <ele>7.7</ele>
        <time>2020-12-20T10:16:04Z</time>
      </trkpt>
      <trkpt lat="49.2769" lon="-0.29744">
        <ele>7.6</ele>
        <time>2020-12-20T10:16:06Z</time>
      </trkpt>
      <trkpt lat="49.27692" lon="-0.29743">
        <ele>7.6</ele>
        <time>2020-12-20T10:16:07Z</time>
      </trkpt>
      <trkpt lat="49.27695" lon="-0.29743">
        <ele>7.6</ele>
        <time>2020-12-20T10:16:09Z</time>
      </trkpt>
      <trkpt lat="49.27698" lon="-0.29743">
        <ele>7.5</ele>
        <time>2020-12-20T10:16:10Z</time>
      </trkpt>
      <trkpt lat="49.27701" lon="-0.29742">
        <ele>7.5</ele>
        <time>2020-12-20T10:16:12Z</time>
      </trkpt>
      <trkpt lat="49.27704" lon="-0.29741">
        <ele>7.5</ele>
        <time>2020-12-20T10:16:13Z</time>
      </trkpt>
      <trkpt lat="49.27707" lon="-0.2974">
        <ele>7.4</ele>
        <time>2020-12-20T10:16:14Z</time>
      </trkpt>
      <trkpt lat="49.27711" lon="-0.29738">
        <ele>7.4</ele>
        <time>2020-12-20T10:16:16Z</time>
      </trkpt>
      <trkpt lat="49.27713" lon="-0.29738">
        <ele>7.4</ele>
        <time>2020-12-20T10:16:17Z</time>
      </trkpt>
      <trkpt lat="49.27717" lon="-0.29736">
        <ele>7.3</ele>
        <time>2020-12-20T10:16:19Z</time>
      </trkpt>
      <trkpt lat="49.27719" lon="-0.29735">
        <ele>7.3</ele>
        <time>2020-12-20T10:16:20Z</time>
      </trkpt>
      <trkpt lat="49.2772" lon="-0.29734">
        <ele>7.3</ele>
        <time>2020-12-20T10:16:21Z</time>
      </trkpt>
      <trkpt lat="49.27725" lon="-0.29734">
        <ele>7.3</ele>
        <time>2020-12-20T10:16:23Z</time>
      </trkpt>
      <trkpt lat="49.27726" lon="-0.29734">
        <ele>7.3</ele>
        <time>2020-12-20T10:16:24Z</time>
      </trkpt>
      <trkpt lat="49.27728" lon="-0.29734">
        <ele>7.3</ele>
        <time>2020-12-20T10:16:25Z</time>
      </trkpt>
      <trkpt lat="49.2773" lon="-0.29738">
        <ele>7.2</ele>
        <time>2020-12-20T10:16:27Z</time>
      </trkpt>
      <trkpt lat="49.2773" lon="-0.29739">
        <ele>7.2</ele>
        <time>2020-12-20T10:16:28Z</time>
      </trkpt>
      <trkpt lat="49.27731" lon="-0.29743">
        <ele>7.2</ele>
        <time>2020-12-20T10:16:30Z</time>
      </trkpt>
      <trkpt lat="49.27733" lon="-0.29747">
        <ele>7.2</ele>
        <time>2020-12-20T10:16:31Z</time>
      </trkpt>
      <trkpt lat="49.27733" lon="-0.29748">
        <ele>7.2</ele>
        <time>2020-12-20T10:16:32Z</time>
      </trkpt>
      <trkpt lat="49.27734" lon="-0.2975">
        <ele>7.2</ele>
        <time>2020-12-20T10:16:34Z</time>
      </trkpt>
      <trkpt lat="49.27734" lon="-0.29752">
        <ele>7.2</ele>
        <time>2020-12-20T10:16:35Z</time>
      </trkpt>
      <trkpt lat="49.27735" lon="-0.29759">
        <ele>7.2</ele>
        <time>2020-12-20T10:16:37Z</time>
      </trkpt>
      <trkpt lat="49.27735" lon="-0.29762">
        <ele>7.2</ele>
        <time>2020-12-20T10:16:38Z</time>
      </trkpt>
      <trkpt lat="49.27736" lon="-0.29764">
        <ele>7.2</ele>
        <time>2020-12-20T10:16:39Z</time>
      </trkpt>
      <trkpt lat="49.27736" lon="-0.29768">
        <ele>7.2</ele>
        <time>2020-12-20T10:16:41Z</time>
      </trkpt>
      <trkpt lat="49.27736" lon="-0.29775">
        <ele>7.3</ele>
        <time>2020-12-20T10:16:43Z</time>
      </trkpt>
      <trkpt lat="49.27736" lon="-0.29782">
        <ele>7.3</ele>
        <time>2020-12-20T10:16:44Z</time>
      </trkpt>
      <trkpt lat="49.27737" lon="-0.29785">
        <ele>7.3</ele>
        <time>2020-12-20T10:16:45Z</time>
      </trkpt>
      <trkpt lat="49.27737" lon="-0.29788">
        <ele>7.3</ele>
        <time>2020-12-20T10:16:47Z</time>
      </trkpt>
      <trkpt lat="49.27739" lon="-0.29795">
        <ele>7.3</ele>
        <time>2020-12-20T10:16:48Z</time>
      </trkpt>
      <trkpt lat="49.27743" lon="-0.29804">
        <ele>7.4</ele>
        <time>2020-12-20T10:16:50Z</time>
      </trkpt>
      <trkpt lat="49.27744" lon="-0.29811">
        <ele>7.4</ele>
        <time>2020-12-20T10:16:52Z</time>
      </trkpt>
      <trkpt lat="49.27745" lon="-0.29817">
        <ele>7.5</ele>
        <time>2020-12-20T10:16:55Z</time>
      </trkpt>
      <trkpt lat="49.27746" lon="-0.29823">
        <ele>7.5</ele>
        <time>2020-12-20T10:16:57Z</time>
      </trkpt>
      <trkpt lat="49.27747" lon="-0.29828">
        <ele>7.5</ele>
        <time>2020-12-20T10:16:59Z</time>
      </trkpt>
      <trkpt lat="49.27748" lon="-0.29833">
        <ele>7.6</ele>
        <time>2020-12-20T10:17:00Z</time>
      </trkpt>
      <trkpt lat="49.27749" lon="-0.29837">
        <ele>7.6</ele>
        <time>2020-12-20T10:17:03Z</time>
      </trkpt>
      <trkpt lat="49.2775" lon="-0.29841">
        <ele>7.7</ele>
        <time>2020-12-20T10:17:05Z</time>
      </trkpt>
      <trkpt lat="49.27751" lon="-0.29845">
        <ele>7.7</ele>
        <time>2020-12-20T10:17:06Z</time>
      </trkpt>
      <trkpt lat="49.27753" lon="-0.29849">
        <ele>7.8</ele>
        <time>2020-12-20T10:17:08Z</time>
      </trkpt>
      <trkpt lat="49.27754" lon="-0.29852">
        <ele>7.8</ele>
        <time>2020-12-20T10:17:09Z</time>
      </trkpt>
      <trkpt lat="49.27755" lon="-0.29857">
        <ele>7.9</ele>
        <time>2020-12-20T10:17:11Z</time>
      </trkpt>
      <trkpt lat="49.27756" lon="-0.29863">
        <ele>7.9</ele>
        <time>2020-12-20T10:17:13Z</time>
      </trkpt>
      <trkpt lat="49.27758" lon="-0.29868">
        <ele>8</ele>
        <time>2020-12-20T10:17:15Z</time>
      </trkpt>
      <trkpt lat="49.27759" lon="-0.29873">
        <ele>8</ele>
        <time>2020-12-20T10:17:17Z</time>
      </trkpt>
      <trkpt lat="49.2776" lon="-0.29875">
        <ele>8.1</ele>
        <time>2020-12-20T10:17:19Z</time>
      </trkpt>
      <trkpt lat="49.2776" lon="-0.29877">
        <ele>8.1</ele>
        <time>2020-12-20T10:17:20Z</time>
      </trkpt>
      <trkpt lat="49.2776" lon="-0.29878">
        <ele>8.1</ele>
        <time>2020-12-20T10:17:22Z</time>
      </trkpt>
      <trkpt lat="49.27761" lon="-0.29881">
        <ele>8.2</ele>
        <time>2020-12-20T10:17:23Z</time>
      </trkpt>
      <trkpt lat="49.27761" lon="-0.29884">
        <ele>8.2</ele>
        <time>2020-12-20T10:17:24Z</time>
      </trkpt>
      <trkpt lat="49.27762" lon="-0.29886">
        <ele>8.2</ele>
        <time>2020-12-20T10:17:25Z</time>
      </trkpt>
      <trkpt lat="49.27763" lon="-0.29891">
        <ele>8.3</ele>
        <time>2020-12-20T10:17:27Z</time>
      </trkpt>
      <trkpt lat="49.27763" lon="-0.29892">
        <ele>8.3</ele>
        <time>2020-12-20T10:17:28Z</time>
      </trkpt>
      <trkpt lat="49.27764" lon="-0.29897">
        <ele>8.3</ele>
        <time>2020-12-20T10:17:29Z</time>
      </trkpt>
      <trkpt lat="49.27764" lon="-0.29898">
        <ele>8.3</ele>
        <time>2020-12-20T10:17:30Z</time>
      </trkpt>
      <trkpt lat="49.27766" lon="-0.29904">
        <ele>8.4</ele>
        <time>2020-12-20T10:17:32Z</time>
      </trkpt>
      <trkpt lat="49.27767" lon="-0.29911">
        <ele>8.5</ele>
        <time>2020-12-20T10:17:34Z</time>
      </trkpt>
      <trkpt lat="49.27768" lon="-0.29917">
        <ele>8.5</ele>
        <time>2020-12-20T10:17:36Z</time>
      </trkpt>
      <trkpt lat="49.2777" lon="-0.29923">
        <ele>8.6</ele>
        <time>2020-12-20T10:17:37Z</time>
      </trkpt>
      <trkpt lat="49.27771" lon="-0.29928">
        <ele>8.7</ele>
        <time>2020-12-20T10:17:39Z</time>
      </trkpt>
      <trkpt lat="49.27772" lon="-0.29932">
        <ele>8.7</ele>
        <time>2020-12-20T10:17:40Z</time>
      </trkpt>
      <trkpt lat="49.27773" lon="-0.29939">
        <ele>8.8</ele>
        <time>2020-12-20T10:17:42Z</time>
      </trkpt>
      <trkpt lat="49.27773" lon="-0.29941">
        <ele>8.8</ele>
        <time>2020-12-20T10:17:43Z</time>
      </trkpt>
      <trkpt lat="49.27776" lon="-0.29945">
        <ele>8.9</ele>
        <time>2020-12-20T10:17:45Z</time>
      </trkpt>
      <trkpt lat="49.27777" lon="-0.29946">
        <ele>8.9</ele>
        <time>2020-12-20T10:17:46Z</time>
      </trkpt>
      <trkpt lat="49.27778" lon="-0.2995">
        <ele>9</ele>
        <time>2020-12-20T10:17:48Z</time>
      </trkpt>
      <trkpt lat="49.27779" lon="-0.29951">
        <ele>9</ele>
        <time>2020-12-20T10:17:50Z</time>
      </trkpt>
      <trkpt lat="49.2778" lon="-0.29954">
        <ele>9</ele>
        <time>2020-12-20T10:17:51Z</time>
      </trkpt>
      <trkpt lat="49.27781" lon="-0.29958">
        <ele>9.1</ele>
        <time>2020-12-20T10:17:52Z</time>
      </trkpt>
      <trkpt lat="49.27782" lon="-0.29961">
        <ele>9.1</ele>
        <time>2020-12-20T10:17:53Z</time>
      </trkpt>
      <trkpt lat="49.27784" lon="-0.29965">
        <ele>9.1</ele>
        <time>2020-12-20T10:17:55Z</time>
      </trkpt>
      <trkpt lat="49.27785" lon="-0.29969">
        <ele>9.2</ele>
        <time>2020-12-20T10:17:57Z</time>
      </trkpt>
      <trkpt lat="49.27787" lon="-0.29972">
        <ele>9.2</ele>
        <time>2020-12-20T10:17:58Z</time>
      </trkpt>
      <trkpt lat="49.27788" lon="-0.29977">
        <ele>9.3</ele>
        <time>2020-12-20T10:18:00Z</time>
      </trkpt>
      <trkpt lat="49.2779" lon="-0.29982">
        <ele>9.3</ele>
        <time>2020-12-20T10:18:02Z</time>
      </trkpt>
      <trkpt lat="49.27791" lon="-0.29986">
        <ele>9.3</ele>
        <time>2020-12-20T10:18:03Z</time>
      </trkpt>
      <trkpt lat="49.27793" lon="-0.29992">
        <ele>9.4</ele>
        <time>2020-12-20T10:18:05Z</time>
      </trkpt>
      <trkpt lat="49.27794" lon="-0.29997">
        <ele>9.4</ele>
        <time>2020-12-20T10:18:07Z</time>
      </trkpt>
      <trkpt lat="49.27795" lon="-0.29999">
        <ele>9.4</ele>
        <time>2020-12-20T10:18:08Z</time>
      </trkpt>
      <trkpt lat="49.27796" lon="-0.30003">
        <ele>9.4</ele>
        <time>2020-12-20T10:18:09Z</time>
      </trkpt>
      <trkpt lat="49.27797" lon="-0.30008">
        <ele>9.5</ele>
        <time>2020-12-20T10:18:11Z</time>
      </trkpt>
      <trkpt lat="49.27797" lon="-0.30011">
        <ele>9.5</ele>
        <time>2020-12-20T10:18:12Z</time>
      </trkpt>
      <trkpt lat="49.27798" lon="-0.30015">
        <ele>9.6</ele>
        <time>2020-12-20T10:18:14Z</time>
      </trkpt>
      <trkpt lat="49.27799" lon="-0.30018">
        <ele>9.6</ele>
        <time>2020-12-20T10:18:15Z</time>
      </trkpt>
      <trkpt lat="49.27799" lon="-0.30021">
        <ele>9.6</ele>
        <time>2020-12-20T10:18:17Z</time>
      </trkpt>
      <trkpt lat="49.27801" lon="-0.30027">
        <ele>9.7</ele>
        <time>2020-12-20T10:18:18Z</time>
      </trkpt>
      <trkpt lat="49.27801" lon="-0.30029">
        <ele>9.7</ele>
        <time>2020-12-20T10:18:19Z</time>
      </trkpt>
      <trkpt lat="49.27803" lon="-0.30036">
        <ele>9.7</ele>
        <time>2020-12-20T10:18:21Z</time>
      </trkpt>
      <trkpt lat="49.27804" lon="-0.30038">
        <ele>9.8</ele>
        <time>2020-12-20T10:18:22Z</time>
      </trkpt>
      <trkpt lat="49.27804" lon="-0.3004">
        <ele>9.8</ele>
        <time>2020-12-20T10:18:23Z</time>
      </trkpt>
      <trkpt lat="49.27806" lon="-0.30044">
        <ele>9.8</ele>
        <time>2020-12-20T10:18:25Z</time>
      </trkpt>
      <trkpt lat="49.27806" lon="-0.30046">
        <ele>9.8</ele>
        <time>2020-12-20T10:18:26Z</time>
      </trkpt>
      <trkpt lat="49.27807" lon="-0.3005">
        <ele>9.9</ele>
        <time>2020-12-20T10:18:27Z</time>
      </trkpt>
      <trkpt lat="49.27809" lon="-0.30053">
        <ele>9.9</ele>
        <time>2020-12-20T10:18:28Z</time>
      </trkpt>
      <trkpt lat="49.2781" lon="-0.30057">
        <ele>10</ele>
        <time>2020-12-20T10:18:30Z</time>
      </trkpt>
      <trkpt lat="49.27811" lon="-0.30058">
        <ele>10</ele>
        <time>2020-12-20T10:18:31Z</time>
      </trkpt>
      <trkpt lat="49.27812" lon="-0.30063">
        <ele>10</ele>
        <time>2020-12-20T10:18:32Z</time>
      </trkpt>
      <trkpt lat="49.27813" lon="-0.30064">
        <ele>10</ele>
        <time>2020-12-20T10:18:33Z</time>
      </trkpt>
      <trkpt lat="49.27814" lon="-0.30068">
        <ele>10.1</ele>
        <time>2020-12-20T10:18:34Z</time>
      </trkpt>
      <trkpt lat="49.27815" lon="-0.3007">
        <ele>10.1</ele>
        <time>2020-12-20T10:18:36Z</time>
      </trkpt>
      <trkpt lat="49.27817" lon="-0.30074">
        <ele>10.2</ele>
        <time>2020-12-20T10:18:37Z</time>
      </trkpt>
      <trkpt lat="49.27819" lon="-0.30078">
        <ele>10.2</ele>
        <time>2020-12-20T10:18:39Z</time>
      </trkpt>
      <trkpt lat="49.2782" lon="-0.30081">
        <ele>10.3</ele>
        <time>2020-12-20T10:18:40Z</time>
      </trkpt>
      <trkpt lat="49.27822" lon="-0.30085">
        <ele>10.3</ele>
        <time>2020-12-20T10:18:42Z</time>
      </trkpt>
      <trkpt lat="49.27823" lon="-0.30087">
        <ele>10.3</ele>
        <time>2020-12-20T10:18:43Z</time>
      </trkpt>
      <trkpt lat="49.27823" lon="-0.3009">
        <ele>10.4</ele>
        <time>2020-12-20T10:18:45Z</time>
      </trkpt>
      <trkpt lat="49.27825" lon="-0.30094">
        <ele>10.4</ele>
        <time>2020-12-20T10:18:46Z</time>
      </trkpt>
      <trkpt lat="49.27826" lon="-0.30097">
        <ele>10.4</ele>
        <time>2020-12-20T10:18:48Z</time>
      </trkpt>
      <trkpt lat="49.27828" lon="-0.30101">
        <ele>10.4</ele>
        <time>2020-12-20T10:18:50Z</time>
      </trkpt>
      <trkpt lat="49.27829" lon="-0.30105">
        <ele>10.4</ele>
        <time>2020-12-20T10:18:51Z</time>
      </trkpt>
      <trkpt lat="49.27831" lon="-0.30112">
        <ele>10.4</ele>
        <time>2020-12-20T10:18:53Z</time>
      </trkpt>
      <trkpt lat="49.27832" lon="-0.30114">
        <ele>10.4</ele>
        <time>2020-12-20T10:18:55Z</time>
      </trkpt>
      <trkpt lat="49.27833" lon="-0.30117">
        <ele>10.4</ele>
        <time>2020-12-20T10:18:56Z</time>
      </trkpt>
      <trkpt lat="49.27834" lon="-0.3012">
        <ele>10.5</ele>
        <time>2020-12-20T10:18:57Z</time>
      </trkpt>
      <trkpt lat="49.27835" lon="-0.30124">
        <ele>10.5</ele>
        <time>2020-12-20T10:18:59Z</time>
      </trkpt>
      <trkpt lat="49.27837" lon="-0.30128">
        <ele>10.5</ele>
        <time>2020-12-20T10:19:00Z</time>
      </trkpt>
      <trkpt lat="49.27837" lon="-0.30129">
        <ele>10.5</ele>
        <time>2020-12-20T10:19:01Z</time>
      </trkpt>
      <trkpt lat="49.27838" lon="-0.30131">
        <ele>10.5</ele>
        <time>2020-12-20T10:19:03Z</time>
      </trkpt>
      <trkpt lat="49.27839" lon="-0.30134">
        <ele>10.5</ele>
        <time>2020-12-20T10:19:04Z</time>
      </trkpt>
      <trkpt lat="49.27841" lon="-0.30139">
        <ele>10.5</ele>
        <time>2020-12-20T10:19:05Z</time>
      </trkpt>
      <trkpt lat="49.27842" lon="-0.3014">
        <ele>10.5</ele>
        <time>2020-12-20T10:19:06Z</time>
      </trkpt>
      <trkpt lat="49.27844" lon="-0.30146">
        <ele>10.6</ele>
        <time>2020-12-20T10:19:08Z</time>
      </trkpt>
      <trkpt lat="49.27844" lon="-0.30148">
        <ele>10.6</ele>
        <time>2020-12-20T10:19:09Z</time>
      </trkpt>
      <trkpt lat="49.27846" lon="-0.30153">
        <ele>10.6</ele>
        <time>2020-12-20T10:19:11Z</time>
      </trkpt>
      <trkpt lat="49.27846" lon="-0.30158">
        <ele>10.7</ele>
        <time>2020-12-20T10:19:12Z</time>
      </trkpt>
      <trkpt lat="49.27848" lon="-0.30163">
        <ele>10.7</ele>
        <time>2020-12-20T10:19:14Z</time>
      </trkpt>
      <trkpt lat="49.27848" lon="-0.30165">
        <ele>10.7</ele>
        <time>2020-12-20T10:19:15Z</time>
      </trkpt>
      <trkpt lat="49.2785" lon="-0.3017">
        <ele>10.8</ele>
        <time>2020-12-20T10:19:17Z</time>
      </trkpt>
      <trkpt lat="49.27852" lon="-0.30174">
        <ele>10.8</ele>
        <time>2020-12-20T10:19:18Z</time>
      </trkpt>
      <trkpt lat="49.27854" lon="-0.30179">
        <ele>10.9</ele>
        <time>2020-12-20T10:19:20Z</time>
      </trkpt>
      <trkpt lat="49.27855" lon="-0.30181">
        <ele>10.9</ele>
        <time>2020-12-20T10:19:21Z</time>
      </trkpt>
      <trkpt lat="49.27857" lon="-0.30186">
        <ele>10.9</ele>
        <time>2020-12-20T10:19:23Z</time>
      </trkpt>
      <trkpt lat="49.27857" lon="-0.30187">
        <ele>10.9</ele>
        <time>2020-12-20T10:19:24Z</time>
      </trkpt>
      <trkpt lat="49.27858" lon="-0.30191">
        <ele>11</ele>
        <time>2020-12-20T10:19:25Z</time>
      </trkpt>
      <trkpt lat="49.27859" lon="-0.30194">
        <ele>11</ele>
        <time>2020-12-20T10:19:27Z</time>
      </trkpt>
      <trkpt lat="49.27861" lon="-0.30198">
        <ele>11</ele>
        <time>2020-12-20T10:19:28Z</time>
      </trkpt>
      <trkpt lat="49.27861" lon="-0.302">
        <ele>11.1</ele>
        <time>2020-12-20T10:19:29Z</time>
      </trkpt>
      <trkpt lat="49.27863" lon="-0.30206">
        <ele>11.1</ele>
        <time>2020-12-20T10:19:31Z</time>
      </trkpt>
      <trkpt lat="49.27864" lon="-0.30208">
        <ele>11.1</ele>
        <time>2020-12-20T10:19:32Z</time>
      </trkpt>
      <trkpt lat="49.27865" lon="-0.3021">
        <ele>11.1</ele>
        <time>2020-12-20T10:19:33Z</time>
      </trkpt>
      <trkpt lat="49.27865" lon="-0.30213">
        <ele>11.2</ele>
        <time>2020-12-20T10:19:34Z</time>
      </trkpt>
      <trkpt lat="49.27867" lon="-0.30218">
        <ele>11.2</ele>
        <time>2020-12-20T10:19:36Z</time>
      </trkpt>
      <trkpt lat="49.27869" lon="-0.30223">
        <ele>11.2</ele>
        <time>2020-12-20T10:19:37Z</time>
      </trkpt>
      <trkpt lat="49.27869" lon="-0.30224">
        <ele>11.2</ele>
        <time>2020-12-20T10:19:38Z</time>
      </trkpt>
      <trkpt lat="49.2787" lon="-0.30228">
        <ele>11.2</ele>
        <time>2020-12-20T10:19:40Z</time>
      </trkpt>
      <trkpt lat="49.27871" lon="-0.3023">
        <ele>11.2</ele>
        <time>2020-12-20T10:19:41Z</time>
      </trkpt>
      <trkpt lat="49.27872" lon="-0.30234">
        <ele>11.2</ele>
        <time>2020-12-20T10:19:42Z</time>
      </trkpt>
      <trkpt lat="49.27873" lon="-0.30237">
        <ele>11.2</ele>
        <time>2020-12-20T10:19:43Z</time>
      </trkpt>
      <trkpt lat="49.27874" lon="-0.30241">
        <ele>11.2</ele>
        <time>2020-12-20T10:19:45Z</time>
      </trkpt>
      <trkpt lat="49.27875" lon="-0.30245">
        <ele>11.2</ele>
        <time>2020-12-20T10:19:46Z</time>
      </trkpt>
      <trkpt lat="49.27876" lon="-0.30249">
        <ele>11.2</ele>
        <time>2020-12-20T10:19:48Z</time>
      </trkpt>
      <trkpt lat="49.27877" lon="-0.30253">
        <ele>11.2</ele>
        <time>2020-12-20T10:19:49Z</time>
      </trkpt>
      <trkpt lat="49.27878" lon="-0.30255">
        <ele>11.2</ele>
        <time>2020-12-20T10:19:50Z</time>
      </trkpt>
      <trkpt lat="49.27879" lon="-0.30257">
        <ele>11.2</ele>
        <time>2020-12-20T10:19:51Z</time>
      </trkpt>
      <trkpt lat="49.2788" lon="-0.3026">
        <ele>11.2</ele>
        <time>2020-12-20T10:19:53Z</time>
      </trkpt>
      <trkpt lat="49.27881" lon="-0.30263">
        <ele>11.2</ele>
        <time>2020-12-20T10:19:54Z</time>
      </trkpt>
      <trkpt lat="49.27883" lon="-0.30266">
        <ele>11.2</ele>
        <time>2020-12-20T10:19:56Z</time>
      </trkpt>
      <trkpt lat="49.27884" lon="-0.30269">
        <ele>11.2</ele>
        <time>2020-12-20T10:19:57Z</time>
      </trkpt>
      <trkpt lat="49.27885" lon="-0.30272">
        <ele>11.2</ele>
        <time>2020-12-20T10:19:59Z</time>
      </trkpt>
      <trkpt lat="49.27887" lon="-0.30277">
        <ele>11.2</ele>
        <time>2020-12-20T10:20:00Z</time>
      </trkpt>
      <trkpt lat="49.27887" lon="-0.30278">
        <ele>11.2</ele>
        <time>2020-12-20T10:20:01Z</time>
      </trkpt>
      <trkpt lat="49.27889" lon="-0.30282">
        <ele>11.2</ele>
        <time>2020-12-20T10:20:02Z</time>
      </trkpt>
      <trkpt lat="49.27889" lon="-0.30283">
        <ele>11.2</ele>
        <time>2020-12-20T10:20:03Z</time>
      </trkpt>
      <trkpt lat="49.27891" lon="-0.30288">
        <ele>11.2</ele>
        <time>2020-12-20T10:20:05Z</time>
      </trkpt>
      <trkpt lat="49.27892" lon="-0.3029">
        <ele>11.2</ele>
        <time>2020-12-20T10:20:06Z</time>
      </trkpt>
      <trkpt lat="49.27893" lon="-0.30295">
        <ele>11.2</ele>
        <time>2020-12-20T10:20:08Z</time>
      </trkpt>
      <trkpt lat="49.27893" lon="-0.30296">
        <ele>11.2</ele>
        <time>2020-12-20T10:20:09Z</time>
      </trkpt>
      <trkpt lat="49.27895" lon="-0.303">
        <ele>11.2</ele>
        <time>2020-12-20T10:20:12Z</time>
      </trkpt>
      <trkpt lat="49.27896" lon="-0.30304">
        <ele>11.1</ele>
        <time>2020-12-20T10:20:14Z</time>
      </trkpt>
      <trkpt lat="49.27897" lon="-0.30308">
        <ele>11.1</ele>
        <time>2020-12-20T10:20:15Z</time>
      </trkpt>
      <trkpt lat="49.27897" lon="-0.3031">
        <ele>11.1</ele>
        <time>2020-12-20T10:20:17Z</time>
      </trkpt>
      <trkpt lat="49.27898" lon="-0.30314">
        <ele>11.1</ele>
        <time>2020-12-20T10:20:18Z</time>
      </trkpt>
      <trkpt lat="49.27898" lon="-0.30318">
        <ele>11.1</ele>
        <time>2020-12-20T10:20:20Z</time>
      </trkpt>
      <trkpt lat="49.279" lon="-0.30322">
        <ele>11.1</ele>
        <time>2020-12-20T10:20:22Z</time>
      </trkpt>
      <trkpt lat="49.279" lon="-0.30323">
        <ele>11.1</ele>
        <time>2020-12-20T10:20:23Z</time>
      </trkpt>
      <trkpt lat="49.27901" lon="-0.30325">
        <ele>11.1</ele>
        <time>2020-12-20T10:20:24Z</time>
      </trkpt>
      <trkpt lat="49.27903" lon="-0.3033">
        <ele>11.1</ele>
        <time>2020-12-20T10:20:26Z</time>
      </trkpt>
      <trkpt lat="49.27904" lon="-0.30335">
        <ele>11.1</ele>
        <time>2020-12-20T10:20:27Z</time>
      </trkpt>
      <trkpt lat="49.27904" lon="-0.30337">
        <ele>11.1</ele>
        <time>2020-12-20T10:20:28Z</time>
      </trkpt>
      <trkpt lat="49.27908" lon="-0.30345">
        <ele>11.1</ele>
        <time>2020-12-20T10:20:31Z</time>
      </trkpt>
      <trkpt lat="49.27911" lon="-0.3035">
        <ele>11.1</ele>
        <time>2020-12-20T10:20:33Z</time>
      </trkpt>
      <trkpt lat="49.27913" lon="-0.30355">
        <ele>11.1</ele>
        <time>2020-12-20T10:20:34Z</time>
      </trkpt>
      <trkpt lat="49.27913" lon="-0.30357">
        <ele>11.1</ele>
        <time>2020-12-20T10:20:35Z</time>
      </trkpt>
      <trkpt lat="49.27915" lon="-0.3036">
        <ele>11.1</ele>
        <time>2020-12-20T10:20:37Z</time>
      </trkpt>
      <trkpt lat="49.27915" lon="-0.30362">
        <ele>11.1</ele>
        <time>2020-12-20T10:20:38Z</time>
      </trkpt>
      <trkpt lat="49.27916" lon="-0.30365">
        <ele>11.1</ele>
        <time>2020-12-20T10:20:40Z</time>
      </trkpt>
      <trkpt lat="49.27917" lon="-0.30369">
        <ele>11.1</ele>
        <time>2020-12-20T10:20:41Z</time>
      </trkpt>
      <trkpt lat="49.27919" lon="-0.30371">
        <ele>11.1</ele>
        <time>2020-12-20T10:20:43Z</time>
      </trkpt>
      <trkpt lat="49.2792" lon="-0.30375">
        <ele>11.1</ele>
        <time>2020-12-20T10:20:44Z</time>
      </trkpt>
      <trkpt lat="49.27921" lon="-0.30378">
        <ele>11.2</ele>
        <time>2020-12-20T10:20:45Z</time>
      </trkpt>
      <trkpt lat="49.27923" lon="-0.30382">
        <ele>11.2</ele>
        <time>2020-12-20T10:20:47Z</time>
      </trkpt>
      <trkpt lat="49.27924" lon="-0.30384">
        <ele>11.2</ele>
        <time>2020-12-20T10:20:48Z</time>
      </trkpt>
      <trkpt lat="49.27926" lon="-0.30386">
        <ele>11.2</ele>
        <time>2020-12-20T10:20:50Z</time>
      </trkpt>
      <trkpt lat="49.27928" lon="-0.30391">
        <ele>11.2</ele>
        <time>2020-12-20T10:20:51Z</time>
      </trkpt>
      <trkpt lat="49.27928" lon="-0.30392">
        <ele>11.2</ele>
        <time>2020-12-20T10:20:52Z</time>
      </trkpt>
      <trkpt lat="49.2793" lon="-0.30396">
        <ele>11.2</ele>
        <time>2020-12-20T10:20:53Z</time>
      </trkpt>
      <trkpt lat="49.27931" lon="-0.30399">
        <ele>11.2</ele>
        <time>2020-12-20T10:20:54Z</time>
      </trkpt>
      <trkpt lat="49.27933" lon="-0.30403">
        <ele>11.2</ele>
        <time>2020-12-20T10:20:56Z</time>
      </trkpt>
      <trkpt lat="49.27934" lon="-0.30406">
        <ele>11.2</ele>
        <time>2020-12-20T10:20:57Z</time>
      </trkpt>
      <trkpt lat="49.27936" lon="-0.30409">
        <ele>11.2</ele>
        <time>2020-12-20T10:20:59Z</time>
      </trkpt>
      <trkpt lat="49.27937" lon="-0.30412">
        <ele>11.2</ele>
        <time>2020-12-20T10:21:00Z</time>
      </trkpt>
      <trkpt lat="49.27938" lon="-0.30416">
        <ele>11.2</ele>
        <time>2020-12-20T10:21:02Z</time>
      </trkpt>
      <trkpt lat="49.2794" lon="-0.3042">
        <ele>11.2</ele>
        <time>2020-12-20T10:21:03Z</time>
      </trkpt>
      <trkpt lat="49.27941" lon="-0.30422">
        <ele>11.2</ele>
        <time>2020-12-20T10:21:04Z</time>
      </trkpt>
      <trkpt lat="49.27942" lon="-0.30427">
        <ele>11.2</ele>
        <time>2020-12-20T10:21:06Z</time>
      </trkpt>
      <trkpt lat="49.27943" lon="-0.30431">
        <ele>11.2</ele>
        <time>2020-12-20T10:21:08Z</time>
      </trkpt>
      <trkpt lat="49.27944" lon="-0.30436">
        <ele>11.1</ele>
        <time>2020-12-20T10:21:09Z</time>
      </trkpt>
      <trkpt lat="49.27946" lon="-0.30444">
        <ele>11.1</ele>
        <time>2020-12-20T10:21:11Z</time>
      </trkpt>
      <trkpt lat="49.27946" lon="-0.30446">
        <ele>11.1</ele>
        <time>2020-12-20T10:21:12Z</time>
      </trkpt>
      <trkpt lat="49.27946" lon="-0.30449">
        <ele>11.1</ele>
        <time>2020-12-20T10:21:13Z</time>
      </trkpt>
      <trkpt lat="49.27948" lon="-0.30455">
        <ele>11</ele>
        <time>2020-12-20T10:21:15Z</time>
      </trkpt>
      <trkpt lat="49.27948" lon="-0.30457">
        <ele>11</ele>
        <time>2020-12-20T10:21:16Z</time>
      </trkpt>
      <trkpt lat="49.27949" lon="-0.30459">
        <ele>11</ele>
        <time>2020-12-20T10:21:17Z</time>
      </trkpt>
      <trkpt lat="49.2795" lon="-0.30463">
        <ele>11</ele>
        <time>2020-12-20T10:21:19Z</time>
      </trkpt>
      <trkpt lat="49.2795" lon="-0.30464">
        <ele>11</ele>
        <time>2020-12-20T10:21:20Z</time>
      </trkpt>
      <trkpt lat="49.27952" lon="-0.30468">
        <ele>11</ele>
        <time>2020-12-20T10:21:21Z</time>
      </trkpt>
      <trkpt lat="49.27952" lon="-0.3047">
        <ele>10.9</ele>
        <time>2020-12-20T10:21:22Z</time>
      </trkpt>
      <trkpt lat="49.27954" lon="-0.30475">
        <ele>10.9</ele>
        <time>2020-12-20T10:21:23Z</time>
      </trkpt>
      <trkpt lat="49.27956" lon="-0.30481">
        <ele>10.8</ele>
        <time>2020-12-20T10:21:25Z</time>
      </trkpt>
      <trkpt lat="49.27957" lon="-0.30483">
        <ele>10.8</ele>
        <time>2020-12-20T10:21:27Z</time>
      </trkpt>
      <trkpt lat="49.27958" lon="-0.30485">
        <ele>10.8</ele>
        <time>2020-12-20T10:21:28Z</time>
      </trkpt>
      <trkpt lat="49.27959" lon="-0.30489">
        <ele>10.8</ele>
        <time>2020-12-20T10:21:29Z</time>
      </trkpt>
      <trkpt lat="49.27961" lon="-0.30494">
        <ele>10.7</ele>
        <time>2020-12-20T10:21:31Z</time>
      </trkpt>
      <trkpt lat="49.27962" lon="-0.30499">
        <ele>10.7</ele>
        <time>2020-12-20T10:21:33Z</time>
      </trkpt>
      <trkpt lat="49.27963" lon="-0.30502">
        <ele>10.6</ele>
        <time>2020-12-20T10:21:34Z</time>
      </trkpt>
      <trkpt lat="49.27965" lon="-0.30508">
        <ele>10.6</ele>
        <time>2020-12-20T10:21:36Z</time>
      </trkpt>
      <trkpt lat="49.27966" lon="-0.30513">
        <ele>10.5</ele>
        <time>2020-12-20T10:21:38Z</time>
      </trkpt>
      <trkpt lat="49.27966" lon="-0.30514">
        <ele>10.5</ele>
        <time>2020-12-20T10:21:39Z</time>
      </trkpt>
      <trkpt lat="49.27967" lon="-0.30516">
        <ele>10.5</ele>
        <time>2020-12-20T10:21:40Z</time>
      </trkpt>
      <trkpt lat="49.27968" lon="-0.30519">
        <ele>10.4</ele>
        <time>2020-12-20T10:21:41Z</time>
      </trkpt>
      <trkpt lat="49.27969" lon="-0.30524">
        <ele>10.4</ele>
        <time>2020-12-20T10:21:42Z</time>
      </trkpt>
      <trkpt lat="49.27969" lon="-0.30526">
        <ele>10.3</ele>
        <time>2020-12-20T10:21:43Z</time>
      </trkpt>
      <trkpt lat="49.2797" lon="-0.30529">
        <ele>10.3</ele>
        <time>2020-12-20T10:21:44Z</time>
      </trkpt>
      <trkpt lat="49.27971" lon="-0.30531">
        <ele>10.3</ele>
        <time>2020-12-20T10:21:45Z</time>
      </trkpt>
      <trkpt lat="49.27972" lon="-0.30535">
        <ele>10.2</ele>
        <time>2020-12-20T10:21:47Z</time>
      </trkpt>
      <trkpt lat="49.27973" lon="-0.30537">
        <ele>10.2</ele>
        <time>2020-12-20T10:21:48Z</time>
      </trkpt>
      <trkpt lat="49.27975" lon="-0.30541">
        <ele>10.1</ele>
        <time>2020-12-20T10:21:50Z</time>
      </trkpt>
      <trkpt lat="49.27977" lon="-0.30545">
        <ele>10</ele>
        <time>2020-12-20T10:21:51Z</time>
      </trkpt>
      <trkpt lat="49.27979" lon="-0.3055">
        <ele>9.9</ele>
        <time>2020-12-20T10:21:53Z</time>
      </trkpt>
      <trkpt lat="49.27979" lon="-0.30552">
        <ele>9.9</ele>
        <time>2020-12-20T10:21:54Z</time>
      </trkpt>
      <trkpt lat="49.27981" lon="-0.30556">
        <ele>9.8</ele>
        <time>2020-12-20T10:21:56Z</time>
      </trkpt>
      <trkpt lat="49.27985" lon="-0.30563">
        <ele>9.7</ele>
        <time>2020-12-20T10:21:58Z</time>
      </trkpt>
      <trkpt lat="49.27986" lon="-0.30566">
        <ele>9.7</ele>
        <time>2020-12-20T10:22:00Z</time>
      </trkpt>
      <trkpt lat="49.27988" lon="-0.3057">
        <ele>9.6</ele>
        <time>2020-12-20T10:22:01Z</time>
      </trkpt>
      <trkpt lat="49.2799" lon="-0.30573">
        <ele>9.6</ele>
        <time>2020-12-20T10:22:02Z</time>
      </trkpt>
      <trkpt lat="49.27991" lon="-0.30577">
        <ele>9.5</ele>
        <time>2020-12-20T10:22:03Z</time>
      </trkpt>
      <trkpt lat="49.27992" lon="-0.30578">
        <ele>9.5</ele>
        <time>2020-12-20T10:22:04Z</time>
      </trkpt>
      <trkpt lat="49.27994" lon="-0.30582">
        <ele>9.5</ele>
        <time>2020-12-20T10:22:06Z</time>
      </trkpt>
      <trkpt lat="49.27995" lon="-0.30584">
        <ele>9.4</ele>
        <time>2020-12-20T10:22:07Z</time>
      </trkpt>
      <trkpt lat="49.27997" lon="-0.30589">
        <ele>9.4</ele>
        <time>2020-12-20T10:22:09Z</time>
      </trkpt>
      <trkpt lat="49.27998" lon="-0.30591">
        <ele>9.4</ele>
        <time>2020-12-20T10:22:10Z</time>
      </trkpt>
      <trkpt lat="49.28" lon="-0.30594">
        <ele>9.4</ele>
        <time>2020-12-20T10:22:12Z</time>
      </trkpt>
      <trkpt lat="49.28002" lon="-0.30599">
        <ele>9.3</ele>
        <time>2020-12-20T10:22:13Z</time>
      </trkpt>
      <trkpt lat="49.28005" lon="-0.30604">
        <ele>9.3</ele>
        <time>2020-12-20T10:22:15Z</time>
      </trkpt>
      <trkpt lat="49.28006" lon="-0.30606">
        <ele>9.3</ele>
        <time>2020-12-20T10:22:16Z</time>
      </trkpt>
      <trkpt lat="49.28008" lon="-0.3061">
        <ele>9.2</ele>
        <time>2020-12-20T10:22:18Z</time>
      </trkpt>
      <trkpt lat="49.28009" lon="-0.30612">
        <ele>9.2</ele>
        <time>2020-12-20T10:22:19Z</time>
      </trkpt>
      <trkpt lat="49.28012" lon="-0.30615">
        <ele>9.1</ele>
        <time>2020-12-20T10:22:21Z</time>
      </trkpt>
      <trkpt lat="49.28012" lon="-0.30617">
        <ele>9.1</ele>
        <time>2020-12-20T10:22:22Z</time>
      </trkpt>
      <trkpt lat="49.28013" lon="-0.30618">
        <ele>9.1</ele>
        <time>2020-12-20T10:22:24Z</time>
      </trkpt>
      <trkpt lat="49.28015" lon="-0.3062">
        <ele>9.1</ele>
        <time>2020-12-20T10:22:25Z</time>
      </trkpt>
      <trkpt lat="49.28016" lon="-0.30621">
        <ele>9.1</ele>
        <time>2020-12-20T10:22:27Z</time>
      </trkpt>
      <trkpt lat="49.28019" lon="-0.30622">
        <ele>9.1</ele>
        <time>2020-12-20T10:22:29Z</time>
      </trkpt>
      <trkpt lat="49.28022" lon="-0.30624">
        <ele>9.1</ele>
        <time>2020-12-20T10:22:30Z</time>
      </trkpt>
      <trkpt lat="49.28022" lon="-0.30624">
        <ele>9</ele>
        <time>2020-12-20T10:22:31Z</time>
      </trkpt>
      <trkpt lat="49.28025" lon="-0.30625">
        <ele>9</ele>
        <time>2020-12-20T10:22:34Z</time>
      </trkpt>
      <trkpt lat="49.28028" lon="-0.30626">
        <ele>9</ele>
        <time>2020-12-20T10:22:35Z</time>
      </trkpt>
      <trkpt lat="49.2803" lon="-0.30626">
        <ele>9</ele>
        <time>2020-12-20T10:22:37Z</time>
      </trkpt>
      <trkpt lat="49.28031" lon="-0.30625">
        <ele>9</ele>
        <time>2020-12-20T10:22:38Z</time>
      </trkpt>
      <trkpt lat="49.28035" lon="-0.30624">
        <ele>9</ele>
        <time>2020-12-20T10:22:39Z</time>
      </trkpt>
      <trkpt lat="49.28037" lon="-0.30624">
        <ele>8.9</ele>
        <time>2020-12-20T10:22:40Z</time>
      </trkpt>
      <trkpt lat="49.2804" lon="-0.30626">
        <ele>8.9</ele>
        <time>2020-12-20T10:22:42Z</time>
      </trkpt>
      <trkpt lat="49.28041" lon="-0.30626">
        <ele>8.9</ele>
        <time>2020-12-20T10:22:43Z</time>
      </trkpt>
      <trkpt lat="49.28044" lon="-0.30627">
        <ele>8.8</ele>
        <time>2020-12-20T10:22:44Z</time>
      </trkpt>
      <trkpt lat="49.28049" lon="-0.30628">
        <ele>8.7</ele>
        <time>2020-12-20T10:22:46Z</time>
      </trkpt>
      <trkpt lat="49.28051" lon="-0.30629">
        <ele>8.7</ele>
        <time>2020-12-20T10:22:47Z</time>
      </trkpt>
      <trkpt lat="49.28053" lon="-0.30629">
        <ele>8.7</ele>
        <time>2020-12-20T10:22:49Z</time>
      </trkpt>
      <trkpt lat="49.28054" lon="-0.3063">
        <ele>8.7</ele>
        <time>2020-12-20T10:22:50Z</time>
      </trkpt>
      <trkpt lat="49.28056" lon="-0.3063">
        <ele>8.6</ele>
        <time>2020-12-20T10:22:51Z</time>
      </trkpt>
      <trkpt lat="49.2806" lon="-0.30632">
        <ele>8.6</ele>
        <time>2020-12-20T10:22:53Z</time>
      </trkpt>
      <trkpt lat="49.28062" lon="-0.30633">
        <ele>8.6</ele>
        <time>2020-12-20T10:22:54Z</time>
      </trkpt>
      <trkpt lat="49.28068" lon="-0.30634">
        <ele>8.5</ele>
        <time>2020-12-20T10:22:56Z</time>
      </trkpt>
      <trkpt lat="49.28069" lon="-0.30635">
        <ele>8.5</ele>
        <time>2020-12-20T10:22:59Z</time>
      </trkpt>
      <trkpt lat="49.28071" lon="-0.30635">
        <ele>8.5</ele>
        <time>2020-12-20T10:23:00Z</time>
      </trkpt>
      <trkpt lat="49.28073" lon="-0.30636">
        <ele>8.5</ele>
        <time>2020-12-20T10:23:01Z</time>
      </trkpt>
      <trkpt lat="49.28076" lon="-0.30637">
        <ele>8.5</ele>
        <time>2020-12-20T10:23:03Z</time>
      </trkpt>
      <trkpt lat="49.28078" lon="-0.30637">
        <ele>8.5</ele>
        <time>2020-12-20T10:23:04Z</time>
      </trkpt>
      <trkpt lat="49.2808" lon="-0.30637">
        <ele>8.5</ele>
        <time>2020-12-20T10:23:06Z</time>
      </trkpt>
      <trkpt lat="49.28081" lon="-0.30637">
        <ele>8.4</ele>
        <time>2020-12-20T10:23:07Z</time>
      </trkpt>
      <trkpt lat="49.28083" lon="-0.30637">
        <ele>8.4</ele>
        <time>2020-12-20T10:23:08Z</time>
      </trkpt>
      <trkpt lat="49.28085" lon="-0.30637">
        <ele>8.4</ele>
        <time>2020-12-20T10:23:09Z</time>
      </trkpt>
      <trkpt lat="49.28086" lon="-0.30637">
        <ele>8.4</ele>
        <time>2020-12-20T10:23:11Z</time>
      </trkpt>
      <trkpt lat="49.28087" lon="-0.30637">
        <ele>8.4</ele>
        <time>2020-12-20T10:23:12Z</time>
      </trkpt>
      <trkpt lat="49.28088" lon="-0.30637">
        <ele>8.4</ele>
        <time>2020-12-20T10:23:13Z</time>
      </trkpt>
      <trkpt lat="49.28091" lon="-0.30637">
        <ele>8.4</ele>
        <time>2020-12-20T10:23:15Z</time>
      </trkpt>
      <trkpt lat="49.28094" lon="-0.30637">
        <ele>8.4</ele>
        <time>2020-12-20T10:23:16Z</time>
      </trkpt>
      <trkpt lat="49.28097" lon="-0.30637">
        <ele>8.3</ele>
        <time>2020-12-20T10:23:18Z</time>
      </trkpt>
      <trkpt lat="49.28098" lon="-0.30637">
        <ele>8.3</ele>
        <time>2020-12-20T10:23:19Z</time>
      </trkpt>
      <trkpt lat="49.28102" lon="-0.30637">
        <ele>8.3</ele>
        <time>2020-12-20T10:23:20Z</time>
      </trkpt>
      <trkpt lat="49.28103" lon="-0.30637">
        <ele>8.3</ele>
        <time>2020-12-20T10:23:21Z</time>
      </trkpt>
      <trkpt lat="49.28107" lon="-0.30637">
        <ele>8.3</ele>
        <time>2020-12-20T10:23:23Z</time>
      </trkpt>
      <trkpt lat="49.28111" lon="-0.30637">
        <ele>8.3</ele>
        <time>2020-12-20T10:23:24Z</time>
      </trkpt>
      <trkpt lat="49.28115" lon="-0.30637">
        <ele>8.3</ele>
        <time>2020-12-20T10:23:26Z</time>
      </trkpt>
      <trkpt lat="49.28118" lon="-0.30636">
        <ele>8.3</ele>
        <time>2020-12-20T10:23:28Z</time>
      </trkpt>
      <trkpt lat="49.2812" lon="-0.30636">
        <ele>8.3</ele>
        <time>2020-12-20T10:23:29Z</time>
      </trkpt>
      <trkpt lat="49.28122" lon="-0.30636">
        <ele>8.3</ele>
        <time>2020-12-20T10:23:30Z</time>
      </trkpt>
      <trkpt lat="49.28125" lon="-0.30636">
        <ele>8.3</ele>
        <time>2020-12-20T10:23:32Z</time>
      </trkpt>
      <trkpt lat="49.28128" lon="-0.30636">
        <ele>8.3</ele>
        <time>2020-12-20T10:23:33Z</time>
      </trkpt>
      <trkpt lat="49.28129" lon="-0.30637">
        <ele>8.3</ele>
        <time>2020-12-20T10:23:34Z</time>
      </trkpt>
      <trkpt lat="49.28133" lon="-0.30637">
        <ele>8.3</ele>
        <time>2020-12-20T10:23:36Z</time>
      </trkpt>
      <trkpt lat="49.28134" lon="-0.30637">
        <ele>8.3</ele>
        <time>2020-12-20T10:23:37Z</time>
      </trkpt>
      <trkpt lat="49.28137" lon="-0.30637">
        <ele>8.3</ele>
        <time>2020-12-20T10:23:38Z</time>
      </trkpt>
      <trkpt lat="49.28138" lon="-0.30637">
        <ele>8.3</ele>
        <time>2020-12-20T10:23:39Z</time>
      </trkpt>
      <trkpt lat="49.28141" lon="-0.30638">
        <ele>8.3</ele>
        <time>2020-12-20T10:23:41Z</time>
      </trkpt>
      <trkpt lat="49.28143" lon="-0.30638">
        <ele>8.3</ele>
        <time>2020-12-20T10:23:42Z</time>
      </trkpt>
      <trkpt lat="49.28147" lon="-0.30639">
        <ele>8.3</ele>
        <time>2020-12-20T10:23:44Z</time>
      </trkpt>
      <trkpt lat="49.28149" lon="-0.3064">
        <ele>8.3</ele>
        <time>2020-12-20T10:23:46Z</time>
      </trkpt>
      <trkpt lat="49.2815" lon="-0.30641">
        <ele>8.3</ele>
        <time>2020-12-20T10:23:47Z</time>
      </trkpt>
      <trkpt lat="49.28152" lon="-0.30641">
        <ele>8.3</ele>
        <time>2020-12-20T10:23:48Z</time>
      </trkpt>
      <trkpt lat="49.28155" lon="-0.30641">
        <ele>8.3</ele>
        <time>2020-12-20T10:23:50Z</time>
      </trkpt>
      <trkpt lat="49.28159" lon="-0.30642">
        <ele>8.3</ele>
        <time>2020-12-20T10:23:52Z</time>
      </trkpt>
      <trkpt lat="49.28161" lon="-0.30642">
        <ele>8.3</ele>
        <time>2020-12-20T10:23:53Z</time>
      </trkpt>
      <trkpt lat="49.28162" lon="-0.30642">
        <ele>8.3</ele>
        <time>2020-12-20T10:23:54Z</time>
      </trkpt>
      <trkpt lat="49.28165" lon="-0.30643">
        <ele>8.3</ele>
        <time>2020-12-20T10:23:56Z</time>
      </trkpt>
      <trkpt lat="49.28169" lon="-0.30644">
        <ele>8.3</ele>
        <time>2020-12-20T10:23:58Z</time>
      </trkpt>
      <trkpt lat="49.28174" lon="-0.30646">
        <ele>8.3</ele>
        <time>2020-12-20T10:24:00Z</time>
      </trkpt>
      <trkpt lat="49.28177" lon="-0.30647">
        <ele>8.3</ele>
        <time>2020-12-20T10:24:02Z</time>
      </trkpt>
      <trkpt lat="49.28181" lon="-0.30649">
        <ele>8.3</ele>
        <time>2020-12-20T10:24:04Z</time>
      </trkpt>
      <trkpt lat="49.28184" lon="-0.3065">
        <ele>8.4</ele>
        <time>2020-12-20T10:24:05Z</time>
      </trkpt>
      <trkpt lat="49.28187" lon="-0.30651">
        <ele>8.4</ele>
        <time>2020-12-20T10:24:07Z</time>
      </trkpt>
      <trkpt lat="49.2819" lon="-0.30651">
        <ele>8.4</ele>
        <time>2020-12-20T10:24:08Z</time>
      </trkpt>
      <trkpt lat="49.28193" lon="-0.30652">
        <ele>8.4</ele>
        <time>2020-12-20T10:24:10Z</time>
      </trkpt>
      <trkpt lat="49.28194" lon="-0.30652">
        <ele>8.4</ele>
        <time>2020-12-20T10:24:11Z</time>
      </trkpt>
      <trkpt lat="49.28198" lon="-0.30653">
        <ele>8.4</ele>
        <time>2020-12-20T10:24:12Z</time>
      </trkpt>
      <trkpt lat="49.28198" lon="-0.30653">
        <ele>8.4</ele>
        <time>2020-12-20T10:24:13Z</time>
      </trkpt>
      <trkpt lat="49.282" lon="-0.3065">
        <ele>8.4</ele>
        <time>2020-12-20T10:24:15Z</time>
      </trkpt>
      <trkpt lat="49.28201" lon="-0.3065">
        <ele>8.4</ele>
        <time>2020-12-20T10:24:16Z</time>
      </trkpt>
      <trkpt lat="49.28202" lon="-0.30651">
        <ele>8.5</ele>
        <time>2020-12-20T10:24:17Z</time>
      </trkpt>
      <trkpt lat="49.28206" lon="-0.30652">
        <ele>8.5</ele>
        <time>2020-12-20T10:24:19Z</time>
      </trkpt>
      <trkpt lat="49.28209" lon="-0.30653">
        <ele>8.5</ele>
        <time>2020-12-20T10:24:20Z</time>
      </trkpt>
      <trkpt lat="49.2821" lon="-0.30654">
        <ele>8.5</ele>
        <time>2020-12-20T10:24:21Z</time>
      </trkpt>
      <trkpt lat="49.28214" lon="-0.30655">
        <ele>8.5</ele>
        <time>2020-12-20T10:24:23Z</time>
      </trkpt>
      <trkpt lat="49.28218" lon="-0.30656">
        <ele>8.6</ele>
        <time>2020-12-20T10:24:25Z</time>
      </trkpt>
      <trkpt lat="49.2822" lon="-0.30656">
        <ele>8.6</ele>
        <time>2020-12-20T10:24:26Z</time>
      </trkpt>
      <trkpt lat="49.28222" lon="-0.30657">
        <ele>8.6</ele>
        <time>2020-12-20T10:24:27Z</time>
      </trkpt>
      <trkpt lat="49.28224" lon="-0.30657">
        <ele>8.6</ele>
        <time>2020-12-20T10:24:29Z</time>
      </trkpt>
      <trkpt lat="49.28227" lon="-0.30658">
        <ele>8.7</ele>
        <time>2020-12-20T10:24:30Z</time>
      </trkpt>
      <trkpt lat="49.28228" lon="-0.30658">
        <ele>8.7</ele>
        <time>2020-12-20T10:24:31Z</time>
      </trkpt>
      <trkpt lat="49.2823" lon="-0.30659">
        <ele>8.7</ele>
        <time>2020-12-20T10:24:32Z</time>
      </trkpt>
      <trkpt lat="49.28231" lon="-0.3066">
        <ele>8.8</ele>
        <time>2020-12-20T10:24:33Z</time>
      </trkpt>
      <trkpt lat="49.28234" lon="-0.30661">
        <ele>8.8</ele>
        <time>2020-12-20T10:24:35Z</time>
      </trkpt>
      <trkpt lat="49.28235" lon="-0.30661">
        <ele>8.8</ele>
        <time>2020-12-20T10:24:36Z</time>
      </trkpt>
      <trkpt lat="49.28238" lon="-0.30662">
        <ele>8.9</ele>
        <time>2020-12-20T10:24:37Z</time>
      </trkpt>
      <trkpt lat="49.28242" lon="-0.30663">
        <ele>9</ele>
        <time>2020-12-20T10:24:39Z</time>
      </trkpt>
      <trkpt lat="49.28243" lon="-0.30663">
        <ele>9</ele>
        <time>2020-12-20T10:24:40Z</time>
      </trkpt>
      <trkpt lat="49.28247" lon="-0.30663">
        <ele>9.1</ele>
        <time>2020-12-20T10:24:41Z</time>
      </trkpt>
      <trkpt lat="49.28251" lon="-0.30664">
        <ele>9.2</ele>
        <time>2020-12-20T10:24:43Z</time>
      </trkpt>
      <trkpt lat="49.28254" lon="-0.30664">
        <ele>9.3</ele>
        <time>2020-12-20T10:24:45Z</time>
      </trkpt>
      <trkpt lat="49.28258" lon="-0.30665">
        <ele>9.3</ele>
        <time>2020-12-20T10:24:46Z</time>
      </trkpt>
      <trkpt lat="49.28261" lon="-0.30666">
        <ele>9.4</ele>
        <time>2020-12-20T10:24:47Z</time>
      </trkpt>
      <trkpt lat="49.28265" lon="-0.30666">
        <ele>9.5</ele>
        <time>2020-12-20T10:24:49Z</time>
      </trkpt>
      <trkpt lat="49.28267" lon="-0.30667">
        <ele>9.5</ele>
        <time>2020-12-20T10:24:50Z</time>
      </trkpt>
      <trkpt lat="49.28269" lon="-0.30667">
        <ele>9.6</ele>
        <time>2020-12-20T10:24:52Z</time>
      </trkpt>
      <trkpt lat="49.28272" lon="-0.30667">
        <ele>9.6</ele>
        <time>2020-12-20T10:24:53Z</time>
      </trkpt>
      <trkpt lat="49.28274" lon="-0.30667">
        <ele>9.7</ele>
        <time>2020-12-20T10:24:55Z</time>
      </trkpt>
      <trkpt lat="49.28277" lon="-0.30665">
        <ele>9.7</ele>
        <time>2020-12-20T10:24:56Z</time>
      </trkpt>
      <trkpt lat="49.28278" lon="-0.30665">
        <ele>9.8</ele>
        <time>2020-12-20T10:24:57Z</time>
      </trkpt>
      <trkpt lat="49.28281" lon="-0.30662">
        <ele>9.8</ele>
        <time>2020-12-20T10:24:59Z</time>
      </trkpt>
      <trkpt lat="49.28282" lon="-0.30662">
        <ele>9.8</ele>
        <time>2020-12-20T10:25:00Z</time>
      </trkpt>
      <trkpt lat="49.28284" lon="-0.30659">
        <ele>9.8</ele>
        <time>2020-12-20T10:25:01Z</time>
      </trkpt>
      <trkpt lat="49.28286" lon="-0.30656">
        <ele>9.8</ele>
        <time>2020-12-20T10:25:03Z</time>
      </trkpt>
      <trkpt lat="49.28287" lon="-0.30655">
        <ele>9.8</ele>
        <time>2020-12-20T10:25:04Z</time>
      </trkpt>
      <trkpt lat="49.28289" lon="-0.30652">
        <ele>9.9</ele>
        <time>2020-12-20T10:25:06Z</time>
      </trkpt>
      <trkpt lat="49.2829" lon="-0.30651">
        <ele>9.9</ele>
        <time>2020-12-20T10:25:07Z</time>
      </trkpt>
      <trkpt lat="49.28291" lon="-0.3065">
        <ele>9.9</ele>
        <time>2020-12-20T10:25:09Z</time>
      </trkpt>
      <trkpt lat="49.28293" lon="-0.30648">
        <ele>9.9</ele>
        <time>2020-12-20T10:25:10Z</time>
      </trkpt>
      <trkpt lat="49.28295" lon="-0.30645">
        <ele>9.9</ele>
        <time>2020-12-20T10:25:11Z</time>
      </trkpt>
      <trkpt lat="49.28296" lon="-0.30644">
        <ele>9.9</ele>
        <time>2020-12-20T10:25:12Z</time>
      </trkpt>
      <trkpt lat="49.28299" lon="-0.30642">
        <ele>9.9</ele>
        <time>2020-12-20T10:25:14Z</time>
      </trkpt>
      <trkpt lat="49.28302" lon="-0.30639">
        <ele>9.9</ele>
        <time>2020-12-20T10:25:15Z</time>
      </trkpt>
      <trkpt lat="49.28305" lon="-0.30636">
        <ele>9.9</ele>
        <time>2020-12-20T10:25:17Z</time>
      </trkpt>
      <trkpt lat="49.28308" lon="-0.30633">
        <ele>9.9</ele>
        <time>2020-12-20T10:25:18Z</time>
      </trkpt>
      <trkpt lat="49.2831" lon="-0.3063">
        <ele>9.9</ele>
        <time>2020-12-20T10:25:19Z</time>
      </trkpt>
      <trkpt lat="49.28314" lon="-0.30628">
        <ele>9.9</ele>
        <time>2020-12-20T10:25:21Z</time>
      </trkpt>
      <trkpt lat="49.28315" lon="-0.30628">
        <ele>9.9</ele>
        <time>2020-12-20T10:25:22Z</time>
      </trkpt>
      <trkpt lat="49.28318" lon="-0.30626">
        <ele>9.9</ele>
        <time>2020-12-20T10:25:23Z</time>
      </trkpt>
      <trkpt lat="49.28321" lon="-0.30626">
        <ele>9.9</ele>
        <time>2020-12-20T10:25:24Z</time>
      </trkpt>
      <trkpt lat="49.28325" lon="-0.30625">
        <ele>9.9</ele>
        <time>2020-12-20T10:25:26Z</time>
      </trkpt>
      <trkpt lat="49.28327" lon="-0.30625">
        <ele>9.9</ele>
        <time>2020-12-20T10:25:27Z</time>
      </trkpt>
      <trkpt lat="49.28329" lon="-0.30624">
        <ele>9.9</ele>
        <time>2020-12-20T10:25:28Z</time>
      </trkpt>
      <trkpt lat="49.28333" lon="-0.30624">
        <ele>9.9</ele>
        <time>2020-12-20T10:25:30Z</time>
      </trkpt>
      <trkpt lat="49.28335" lon="-0.30624">
        <ele>9.9</ele>
        <time>2020-12-20T10:25:31Z</time>
      </trkpt>
      <trkpt lat="49.28339" lon="-0.30625">
        <ele>9.9</ele>
        <time>2020-12-20T10:25:33Z</time>
      </trkpt>
      <trkpt lat="49.28342" lon="-0.30626">
        <ele>9.9</ele>
        <time>2020-12-20T10:25:34Z</time>
      </trkpt>
      <trkpt lat="49.28344" lon="-0.30626">
        <ele>9.9</ele>
        <time>2020-12-20T10:25:35Z</time>
      </trkpt>
      <trkpt lat="49.28348" lon="-0.30627">
        <ele>9.9</ele>
        <time>2020-12-20T10:25:37Z</time>
      </trkpt>
      <trkpt lat="49.2835" lon="-0.30627">
        <ele>9.9</ele>
        <time>2020-12-20T10:25:38Z</time>
      </trkpt>
      <trkpt lat="49.28352" lon="-0.30628">
        <ele>9.9</ele>
        <time>2020-12-20T10:25:39Z</time>
      </trkpt>
      <trkpt lat="49.28355" lon="-0.3063">
        <ele>10</ele>
        <time>2020-12-20T10:25:41Z</time>
      </trkpt>
      <trkpt lat="49.28358" lon="-0.30631">
        <ele>10</ele>
        <time>2020-12-20T10:25:42Z</time>
      </trkpt>
      <trkpt lat="49.2836" lon="-0.30633">
        <ele>10</ele>
        <time>2020-12-20T10:25:44Z</time>
      </trkpt>
      <trkpt lat="49.28362" lon="-0.30635">
        <ele>10</ele>
        <time>2020-12-20T10:25:45Z</time>
      </trkpt>
      <trkpt lat="49.28363" lon="-0.30636">
        <ele>10</ele>
        <time>2020-12-20T10:25:46Z</time>
      </trkpt>
      <trkpt lat="49.28365" lon="-0.30637">
        <ele>10</ele>
        <time>2020-12-20T10:25:47Z</time>
      </trkpt>
      <trkpt lat="49.28366" lon="-0.30638">
        <ele>10</ele>
        <time>2020-12-20T10:25:48Z</time>
      </trkpt>
      <trkpt lat="49.28367" lon="-0.30639">
        <ele>10</ele>
        <time>2020-12-20T10:25:50Z</time>
      </trkpt>
      <trkpt lat="49.28369" lon="-0.3064">
        <ele>10</ele>
        <time>2020-12-20T10:25:51Z</time>
      </trkpt>
      <trkpt lat="49.2837" lon="-0.30643">
        <ele>10.1</ele>
        <time>2020-12-20T10:25:52Z</time>
      </trkpt>
      <trkpt lat="49.28373" lon="-0.30645">
        <ele>10.1</ele>
        <time>2020-12-20T10:25:54Z</time>
      </trkpt>
      <trkpt lat="49.28375" lon="-0.30647">
        <ele>10.1</ele>
        <time>2020-12-20T10:25:55Z</time>
      </trkpt>
      <trkpt lat="49.28377" lon="-0.3065">
        <ele>10.1</ele>
        <time>2020-12-20T10:25:57Z</time>
      </trkpt>
      <trkpt lat="49.28379" lon="-0.30652">
        <ele>10.1</ele>
        <time>2020-12-20T10:25:58Z</time>
      </trkpt>
      <trkpt lat="49.2838" lon="-0.30653">
        <ele>10.1</ele>
        <time>2020-12-20T10:26:00Z</time>
      </trkpt>
      <trkpt lat="49.28382" lon="-0.30656">
        <ele>10.1</ele>
        <time>2020-12-20T10:26:01Z</time>
      </trkpt>
      <trkpt lat="49.28382" lon="-0.30657">
        <ele>10.1</ele>
        <time>2020-12-20T10:26:03Z</time>
      </trkpt>
      <trkpt lat="49.28386" lon="-0.3066">
        <ele>10.1</ele>
        <time>2020-12-20T10:26:04Z</time>
      </trkpt>
      <trkpt lat="49.28387" lon="-0.30661">
        <ele>10.1</ele>
        <time>2020-12-20T10:26:06Z</time>
      </trkpt>
      <trkpt lat="49.28388" lon="-0.30662">
        <ele>10.1</ele>
        <time>2020-12-20T10:26:07Z</time>
      </trkpt>
      <trkpt lat="49.28389" lon="-0.30664">
        <ele>10.2</ele>
        <time>2020-12-20T10:26:09Z</time>
      </trkpt>
      <trkpt lat="49.28391" lon="-0.30665">
        <ele>10.2</ele>
        <time>2020-12-20T10:26:10Z</time>
      </trkpt>
      <trkpt lat="49.28392" lon="-0.30666">
        <ele>10.2</ele>
        <time>2020-12-20T10:26:11Z</time>
      </trkpt>
      <trkpt lat="49.28393" lon="-0.30667">
        <ele>10.2</ele>
        <time>2020-12-20T10:26:12Z</time>
      </trkpt>
      <trkpt lat="49.28394" lon="-0.30669">
        <ele>10.2</ele>
        <time>2020-12-20T10:26:13Z</time>
      </trkpt>
      <trkpt lat="49.28397" lon="-0.30671">
        <ele>10.2</ele>
        <time>2020-12-20T10:26:15Z</time>
      </trkpt>
      <trkpt lat="49.28399" lon="-0.30675">
        <ele>10.3</ele>
        <time>2020-12-20T10:26:17Z</time>
      </trkpt>
      <trkpt lat="49.28402" lon="-0.30677">
        <ele>10.3</ele>
        <time>2020-12-20T10:26:19Z</time>
      </trkpt>
      <trkpt lat="49.28404" lon="-0.3068">
        <ele>10.3</ele>
        <time>2020-12-20T10:26:20Z</time>
      </trkpt>
      <trkpt lat="49.28407" lon="-0.30683">
        <ele>10.4</ele>
        <time>2020-12-20T10:26:21Z</time>
      </trkpt>
      <trkpt lat="49.2841" lon="-0.30687">
        <ele>10.4</ele>
        <time>2020-12-20T10:26:23Z</time>
      </trkpt>
      <trkpt lat="49.28412" lon="-0.30688">
        <ele>10.5</ele>
        <time>2020-12-20T10:26:24Z</time>
      </trkpt>
      <trkpt lat="49.28413" lon="-0.30689">
        <ele>10.5</ele>
        <time>2020-12-20T10:26:25Z</time>
      </trkpt>
      <trkpt lat="49.28416" lon="-0.30692">
        <ele>10.6</ele>
        <time>2020-12-20T10:26:27Z</time>
      </trkpt>
      <trkpt lat="49.28418" lon="-0.30694">
        <ele>10.6</ele>
        <time>2020-12-20T10:26:28Z</time>
      </trkpt>
      <trkpt lat="49.28421" lon="-0.30698">
        <ele>10.7</ele>
        <time>2020-12-20T10:26:30Z</time>
      </trkpt>
      <trkpt lat="49.28424" lon="-0.30702">
        <ele>10.8</ele>
        <time>2020-12-20T10:26:32Z</time>
      </trkpt>
      <trkpt lat="49.28427" lon="-0.30706">
        <ele>10.9</ele>
        <time>2020-12-20T10:26:33Z</time>
      </trkpt>
      <trkpt lat="49.28428" lon="-0.30707">
        <ele>10.9</ele>
        <time>2020-12-20T10:26:34Z</time>
      </trkpt>
      <trkpt lat="49.28431" lon="-0.30711">
        <ele>11</ele>
        <time>2020-12-20T10:26:35Z</time>
      </trkpt>
      <trkpt lat="49.28432" lon="-0.30712">
        <ele>11</ele>
        <time>2020-12-20T10:26:36Z</time>
      </trkpt>
      <trkpt lat="49.28434" lon="-0.30716">
        <ele>11.1</ele>
        <time>2020-12-20T10:26:37Z</time>
      </trkpt>
      <trkpt lat="49.28436" lon="-0.30719">
        <ele>11.2</ele>
        <time>2020-12-20T10:26:39Z</time>
      </trkpt>
      <trkpt lat="49.28437" lon="-0.3072">
        <ele>11.2</ele>
        <time>2020-12-20T10:26:40Z</time>
      </trkpt>
      <trkpt lat="49.28439" lon="-0.30723">
        <ele>11.2</ele>
        <time>2020-12-20T10:26:41Z</time>
      </trkpt>
      <trkpt lat="49.2844" lon="-0.30725">
        <ele>11.3</ele>
        <time>2020-12-20T10:26:42Z</time>
      </trkpt>
      <trkpt lat="49.28443" lon="-0.30728">
        <ele>11.3</ele>
        <time>2020-12-20T10:26:44Z</time>
      </trkpt>
      <trkpt lat="49.28445" lon="-0.3073">
        <ele>11.4</ele>
        <time>2020-12-20T10:26:45Z</time>
      </trkpt>
      <trkpt lat="49.28447" lon="-0.30731">
        <ele>11.4</ele>
        <time>2020-12-20T10:26:46Z</time>
      </trkpt>
      <trkpt lat="49.28448" lon="-0.30732">
        <ele>11.4</ele>
        <time>2020-12-20T10:26:47Z</time>
      </trkpt>
      <trkpt lat="49.28451" lon="-0.30733">
        <ele>11.4</ele>
        <time>2020-12-20T10:26:49Z</time>
      </trkpt>
      <trkpt lat="49.28452" lon="-0.30734">
        <ele>11.4</ele>
        <time>2020-12-20T10:26:50Z</time>
      </trkpt>
      <trkpt lat="49.28453" lon="-0.30735">
        <ele>11.4</ele>
        <time>2020-12-20T10:26:52Z</time>
      </trkpt>
      <trkpt lat="49.28455" lon="-0.30736">
        <ele>11.5</ele>
        <time>2020-12-20T10:26:53Z</time>
      </trkpt>
      <trkpt lat="49.28458" lon="-0.30738">
        <ele>11.5</ele>
        <time>2020-12-20T10:26:54Z</time>
      </trkpt>
      <trkpt lat="49.28459" lon="-0.30739">
        <ele>11.5</ele>
        <time>2020-12-20T10:26:55Z</time>
      </trkpt>
      <trkpt lat="49.28462" lon="-0.30741">
        <ele>11.5</ele>
        <time>2020-12-20T10:26:56Z</time>
      </trkpt>
      <trkpt lat="49.28466" lon="-0.30744">
        <ele>11.5</ele>
        <time>2020-12-20T10:26:58Z</time>
      </trkpt>
      <trkpt lat="49.28469" lon="-0.30746">
        <ele>11.5</ele>
        <time>2020-12-20T10:27:00Z</time>
      </trkpt>
      <trkpt lat="49.28471" lon="-0.30748">
        <ele>11.5</ele>
        <time>2020-12-20T10:27:01Z</time>
      </trkpt>
      <trkpt lat="49.28474" lon="-0.3075">
        <ele>11.5</ele>
        <time>2020-12-20T10:27:03Z</time>
      </trkpt>
      <trkpt lat="49.28475" lon="-0.30751">
        <ele>11.5</ele>
        <time>2020-12-20T10:27:04Z</time>
      </trkpt>
      <trkpt lat="49.28477" lon="-0.30752">
        <ele>11.5</ele>
        <time>2020-12-20T10:27:05Z</time>
      </trkpt>
      <trkpt lat="49.2848" lon="-0.30755">
        <ele>11.5</ele>
        <time>2020-12-20T10:27:07Z</time>
      </trkpt>
      <trkpt lat="49.28483" lon="-0.30757">
        <ele>11.5</ele>
        <time>2020-12-20T10:27:09Z</time>
      </trkpt>
      <trkpt lat="49.28486" lon="-0.3076">
        <ele>11.4</ele>
        <time>2020-12-20T10:27:10Z</time>
      </trkpt>
      <trkpt lat="49.28489" lon="-0.30762">
        <ele>11.4</ele>
        <time>2020-12-20T10:27:12Z</time>
      </trkpt>
      <trkpt lat="49.2849" lon="-0.30763">
        <ele>11.4</ele>
        <time>2020-12-20T10:27:13Z</time>
      </trkpt>
      <trkpt lat="49.28492" lon="-0.30765">
        <ele>11.4</ele>
        <time>2020-12-20T10:27:14Z</time>
      </trkpt>
      <trkpt lat="49.28494" lon="-0.30766">
        <ele>11.4</ele>
        <time>2020-12-20T10:27:15Z</time>
      </trkpt>
      <trkpt lat="49.28496" lon="-0.30767">
        <ele>11.4</ele>
        <time>2020-12-20T10:27:17Z</time>
      </trkpt>
      <trkpt lat="49.28497" lon="-0.30768">
        <ele>11.4</ele>
        <time>2020-12-20T10:27:18Z</time>
      </trkpt>
      <trkpt lat="49.28499" lon="-0.30769">
        <ele>11.4</ele>
        <time>2020-12-20T10:27:19Z</time>
      </trkpt>
      <trkpt lat="49.28503" lon="-0.30771">
        <ele>11.3</ele>
        <time>2020-12-20T10:27:20Z</time>
      </trkpt>
      <trkpt lat="49.28503" lon="-0.30771">
        <ele>11.3</ele>
        <time>2020-12-20T10:27:21Z</time>
      </trkpt>
      <trkpt lat="49.28511" lon="-0.30775">
        <ele>11.3</ele>
        <time>2020-12-20T10:27:25Z</time>
      </trkpt>
      <trkpt lat="49.28513" lon="-0.30776">
        <ele>11.3</ele>
        <time>2020-12-20T10:27:26Z</time>
      </trkpt>
      <trkpt lat="49.28515" lon="-0.30777">
        <ele>11.2</ele>
        <time>2020-12-20T10:27:27Z</time>
      </trkpt>
      <trkpt lat="49.2852" lon="-0.30779">
        <ele>11.2</ele>
        <time>2020-12-20T10:27:29Z</time>
      </trkpt>
      <trkpt lat="49.28522" lon="-0.30779">
        <ele>11.2</ele>
        <time>2020-12-20T10:27:30Z</time>
      </trkpt>
      <trkpt lat="49.28523" lon="-0.3078">
        <ele>11.2</ele>
        <time>2020-12-20T10:27:31Z</time>
      </trkpt>
      <trkpt lat="49.28526" lon="-0.30781">
        <ele>11.1</ele>
        <time>2020-12-20T10:27:33Z</time>
      </trkpt>
      <trkpt lat="49.28527" lon="-0.30782">
        <ele>11.1</ele>
        <time>2020-12-20T10:27:34Z</time>
      </trkpt>
      <trkpt lat="49.28531" lon="-0.30784">
        <ele>11.1</ele>
        <time>2020-12-20T10:27:35Z</time>
      </trkpt>
      <trkpt lat="49.28531" lon="-0.30785">
        <ele>11.1</ele>
        <time>2020-12-20T10:27:36Z</time>
      </trkpt>
      <trkpt lat="49.28535" lon="-0.30787">
        <ele>11.1</ele>
        <time>2020-12-20T10:27:38Z</time>
      </trkpt>
      <trkpt lat="49.28535" lon="-0.30787">
        <ele>11.1</ele>
        <time>2020-12-20T10:27:39Z</time>
      </trkpt>
      <trkpt lat="49.28537" lon="-0.30788">
        <ele>11</ele>
        <time>2020-12-20T10:27:41Z</time>
      </trkpt>
      <trkpt lat="49.28539" lon="-0.30789">
        <ele>11</ele>
        <time>2020-12-20T10:27:42Z</time>
      </trkpt>
      <trkpt lat="49.28541" lon="-0.3079">
        <ele>11</ele>
        <time>2020-12-20T10:27:43Z</time>
      </trkpt>
      <trkpt lat="49.28545" lon="-0.30791">
        <ele>11</ele>
        <time>2020-12-20T10:27:45Z</time>
      </trkpt>
      <trkpt lat="49.28548" lon="-0.30791">
        <ele>10.9</ele>
        <time>2020-12-20T10:27:47Z</time>
      </trkpt>
      <trkpt lat="49.28549" lon="-0.30791">
        <ele>10.9</ele>
        <time>2020-12-20T10:27:48Z</time>
      </trkpt>
      <trkpt lat="49.28551" lon="-0.30791">
        <ele>10.9</ele>
        <time>2020-12-20T10:27:49Z</time>
      </trkpt>
      <trkpt lat="49.28552" lon="-0.30791">
        <ele>10.9</ele>
        <time>2020-12-20T10:27:51Z</time>
      </trkpt>
      <trkpt lat="49.28555" lon="-0.30792">
        <ele>10.9</ele>
        <time>2020-12-20T10:27:52Z</time>
      </trkpt>
      <trkpt lat="49.28557" lon="-0.30793">
        <ele>10.9</ele>
        <time>2020-12-20T10:27:54Z</time>
      </trkpt>
      <trkpt lat="49.28559" lon="-0.30796">
        <ele>10.8</ele>
        <time>2020-12-20T10:27:55Z</time>
      </trkpt>
      <trkpt lat="49.2856" lon="-0.30798">
        <ele>10.8</ele>
        <time>2020-12-20T10:27:56Z</time>
      </trkpt>
      <trkpt lat="49.28562" lon="-0.30799">
        <ele>10.8</ele>
        <time>2020-12-20T10:27:57Z</time>
      </trkpt>
      <trkpt lat="49.28563" lon="-0.308">
        <ele>10.8</ele>
        <time>2020-12-20T10:27:59Z</time>
      </trkpt>
      <trkpt lat="49.28564" lon="-0.30802">
        <ele>10.8</ele>
        <time>2020-12-20T10:28:00Z</time>
      </trkpt>
      <trkpt lat="49.28566" lon="-0.30804">
        <ele>10.8</ele>
        <time>2020-12-20T10:28:02Z</time>
      </trkpt>
      <trkpt lat="49.28569" lon="-0.30808">
        <ele>10.7</ele>
        <time>2020-12-20T10:28:03Z</time>
      </trkpt>
      <trkpt lat="49.2857" lon="-0.30809">
        <ele>10.7</ele>
        <time>2020-12-20T10:28:04Z</time>
      </trkpt>
      <trkpt lat="49.28573" lon="-0.30813">
        <ele>10.7</ele>
        <time>2020-12-20T10:28:06Z</time>
      </trkpt>
      <trkpt lat="49.28574" lon="-0.30814">
        <ele>10.6</ele>
        <time>2020-12-20T10:28:07Z</time>
      </trkpt>
      <trkpt lat="49.28576" lon="-0.30816">
        <ele>10.6</ele>
        <time>2020-12-20T10:28:08Z</time>
      </trkpt>
      <trkpt lat="49.28578" lon="-0.30819">
        <ele>10.6</ele>
        <time>2020-12-20T10:28:10Z</time>
      </trkpt>
      <trkpt lat="49.2858" lon="-0.30821">
        <ele>10.5</ele>
        <time>2020-12-20T10:28:11Z</time>
      </trkpt>
      <trkpt lat="49.28582" lon="-0.30824">
        <ele>10.5</ele>
        <time>2020-12-20T10:28:12Z</time>
      </trkpt>
      <trkpt lat="49.28586" lon="-0.30828">
        <ele>10.4</ele>
        <time>2020-12-20T10:28:14Z</time>
      </trkpt>
      <trkpt lat="49.28588" lon="-0.30829">
        <ele>10.4</ele>
        <time>2020-12-20T10:28:15Z</time>
      </trkpt>
      <trkpt lat="49.28589" lon="-0.3083">
        <ele>10.3</ele>
        <time>2020-12-20T10:28:16Z</time>
      </trkpt>
      <trkpt lat="49.28592" lon="-0.30833">
        <ele>10.3</ele>
        <time>2020-12-20T10:28:18Z</time>
      </trkpt>
      <trkpt lat="49.28594" lon="-0.30834">
        <ele>10.2</ele>
        <time>2020-12-20T10:28:19Z</time>
      </trkpt>
      <trkpt lat="49.28596" lon="-0.30836">
        <ele>10.2</ele>
        <time>2020-12-20T10:28:21Z</time>
      </trkpt>
      <trkpt lat="49.28599" lon="-0.30838">
        <ele>10.1</ele>
        <time>2020-12-20T10:28:22Z</time>
      </trkpt>
      <trkpt lat="49.28603" lon="-0.3084">
        <ele>10.1</ele>
        <time>2020-12-20T10:28:24Z</time>
      </trkpt>
      <trkpt lat="49.28604" lon="-0.3084">
        <ele>10</ele>
        <time>2020-12-20T10:28:25Z</time>
      </trkpt>
      <trkpt lat="49.28607" lon="-0.30842">
        <ele>10</ele>
        <time>2020-12-20T10:28:26Z</time>
      </trkpt>
      <trkpt lat="49.28609" lon="-0.30843">
        <ele>10</ele>
        <time>2020-12-20T10:28:27Z</time>
      </trkpt>
      <trkpt lat="49.28612" lon="-0.30845">
        <ele>9.9</ele>
        <time>2020-12-20T10:28:29Z</time>
      </trkpt>
      <trkpt lat="49.28614" lon="-0.30847">
        <ele>9.9</ele>
        <time>2020-12-20T10:28:31Z</time>
      </trkpt>
      <trkpt lat="49.28615" lon="-0.30847">
        <ele>9.9</ele>
        <time>2020-12-20T10:28:32Z</time>
      </trkpt>
      <trkpt lat="49.28619" lon="-0.30849">
        <ele>9.8</ele>
        <time>2020-12-20T10:28:33Z</time>
      </trkpt>
      <trkpt lat="49.2862" lon="-0.3085">
        <ele>9.8</ele>
        <time>2020-12-20T10:28:34Z</time>
      </trkpt>
      <trkpt lat="49.28623" lon="-0.30851">
        <ele>9.7</ele>
        <time>2020-12-20T10:28:36Z</time>
      </trkpt>
      <trkpt lat="49.28624" lon="-0.30852">
        <ele>9.7</ele>
        <time>2020-12-20T10:28:37Z</time>
      </trkpt>
      <trkpt lat="49.28626" lon="-0.30853">
        <ele>9.7</ele>
        <time>2020-12-20T10:28:38Z</time>
      </trkpt>
      <trkpt lat="49.28628" lon="-0.30853">
        <ele>9.7</ele>
        <time>2020-12-20T10:28:40Z</time>
      </trkpt>
      <trkpt lat="49.28631" lon="-0.30855">
        <ele>9.6</ele>
        <time>2020-12-20T10:28:41Z</time>
      </trkpt>
      <trkpt lat="49.28632" lon="-0.30855">
        <ele>9.6</ele>
        <time>2020-12-20T10:28:42Z</time>
      </trkpt>
      <trkpt lat="49.28635" lon="-0.30856">
        <ele>9.5</ele>
        <time>2020-12-20T10:28:44Z</time>
      </trkpt>
      <trkpt lat="49.28636" lon="-0.30856">
        <ele>9.5</ele>
        <time>2020-12-20T10:28:45Z</time>
      </trkpt>
      <trkpt lat="49.28638" lon="-0.30857">
        <ele>9.5</ele>
        <time>2020-12-20T10:28:46Z</time>
      </trkpt>
      <trkpt lat="49.28641" lon="-0.30857">
        <ele>9.4</ele>
        <time>2020-12-20T10:28:48Z</time>
      </trkpt>
      <trkpt lat="49.28642" lon="-0.30857">
        <ele>9.4</ele>
        <time>2020-12-20T10:28:49Z</time>
      </trkpt>
      <trkpt lat="49.28646" lon="-0.30858">
        <ele>9.3</ele>
        <time>2020-12-20T10:28:51Z</time>
      </trkpt>
      <trkpt lat="49.28648" lon="-0.30859">
        <ele>9.3</ele>
        <time>2020-12-20T10:28:54Z</time>
      </trkpt>
      <trkpt lat="49.28649" lon="-0.3086">
        <ele>9.3</ele>
        <time>2020-12-20T10:28:55Z</time>
      </trkpt>
      <trkpt lat="49.28649" lon="-0.30862">
        <ele>9.2</ele>
        <time>2020-12-20T10:28:56Z</time>
      </trkpt>
      <trkpt lat="49.28649" lon="-0.30863">
        <ele>9.2</ele>
        <time>2020-12-20T10:28:58Z</time>
      </trkpt>
      <trkpt lat="49.2865" lon="-0.30866">
        <ele>9.2</ele>
        <time>2020-12-20T10:28:59Z</time>
      </trkpt>
      <trkpt lat="49.28651" lon="-0.30867">
        <ele>9.2</ele>
        <time>2020-12-20T10:29:00Z</time>
      </trkpt>
      <trkpt lat="49.28651" lon="-0.30869">
        <ele>9.2</ele>
        <time>2020-12-20T10:29:02Z</time>
      </trkpt>
      <trkpt lat="49.28651" lon="-0.30871">
        <ele>9.1</ele>
        <time>2020-12-20T10:29:03Z</time>
      </trkpt>
      <trkpt lat="49.28649" lon="-0.30881">
        <ele>9.1</ele>
        <time>2020-12-20T10:29:05Z</time>
      </trkpt>
      <trkpt lat="49.28649" lon="-0.30883">
        <ele>9</ele>
        <time>2020-12-20T10:29:06Z</time>
      </trkpt>
      <trkpt lat="49.28651" lon="-0.30888">
        <ele>9</ele>
        <time>2020-12-20T10:29:08Z</time>
      </trkpt>
      <trkpt lat="49.28651" lon="-0.30889">
        <ele>9</ele>
        <time>2020-12-20T10:29:09Z</time>
      </trkpt>
      <trkpt lat="49.28652" lon="-0.3089">
        <ele>9</ele>
        <time>2020-12-20T10:29:10Z</time>
      </trkpt>
      <trkpt lat="49.28655" lon="-0.30894">
        <ele>8.9</ele>
        <time>2020-12-20T10:29:12Z</time>
      </trkpt>
      <trkpt lat="49.28657" lon="-0.30899">
        <ele>8.8</ele>
        <time>2020-12-20T10:29:13Z</time>
      </trkpt>
      <trkpt lat="49.28659" lon="-0.30903">
        <ele>8.8</ele>
        <time>2020-12-20T10:29:15Z</time>
      </trkpt>
      <trkpt lat="49.28659" lon="-0.30904">
        <ele>8.7</ele>
        <time>2020-12-20T10:29:16Z</time>
      </trkpt>
      <trkpt lat="49.28662" lon="-0.30909">
        <ele>8.7</ele>
        <time>2020-12-20T10:29:18Z</time>
      </trkpt>
      <trkpt lat="49.28663" lon="-0.30913">
        <ele>8.6</ele>
        <time>2020-12-20T10:29:19Z</time>
      </trkpt>
      <trkpt lat="49.28664" lon="-0.30915">
        <ele>8.6</ele>
        <time>2020-12-20T10:29:20Z</time>
      </trkpt>
      <trkpt lat="49.28665" lon="-0.30917">
        <ele>8.5</ele>
        <time>2020-12-20T10:29:22Z</time>
      </trkpt>
      <trkpt lat="49.28665" lon="-0.30919">
        <ele>8.5</ele>
        <time>2020-12-20T10:29:23Z</time>
      </trkpt>
      <trkpt lat="49.28665" lon="-0.30922">
        <ele>8.4</ele>
        <time>2020-12-20T10:29:24Z</time>
      </trkpt>
      <trkpt lat="49.28665" lon="-0.30925">
        <ele>8.4</ele>
        <time>2020-12-20T10:29:25Z</time>
      </trkpt>
      <trkpt lat="49.28666" lon="-0.30927">
        <ele>8.4</ele>
        <time>2020-12-20T10:29:26Z</time>
      </trkpt>
      <trkpt lat="49.28667" lon="-0.30931">
        <ele>8.3</ele>
        <time>2020-12-20T10:29:27Z</time>
      </trkpt>
      <trkpt lat="49.28668" lon="-0.30932">
        <ele>8.2</ele>
        <time>2020-12-20T10:29:29Z</time>
      </trkpt>
      <trkpt lat="49.2867" lon="-0.30934">
        <ele>8.2</ele>
        <time>2020-12-20T10:29:30Z</time>
      </trkpt>
      <trkpt lat="49.28671" lon="-0.30935">
        <ele>8.2</ele>
        <time>2020-12-20T10:29:31Z</time>
      </trkpt>
      <trkpt lat="49.28671" lon="-0.30935">
        <ele>8.2</ele>
        <time>2020-12-20T10:29:33Z</time>
      </trkpt>
      <trkpt lat="49.28673" lon="-0.30936">
        <ele>8.1</ele>
        <time>2020-12-20T10:29:34Z</time>
      </trkpt>
      <trkpt lat="49.28675" lon="-0.30938">
        <ele>8</ele>
        <time>2020-12-20T10:29:35Z</time>
      </trkpt>
      <trkpt lat="49.28679" lon="-0.30943">
        <ele>7.9</ele>
        <time>2020-12-20T10:29:37Z</time>
      </trkpt>
      <trkpt lat="49.28681" lon="-0.30947">
        <ele>7.8</ele>
        <time>2020-12-20T10:29:38Z</time>
      </trkpt>
      <trkpt lat="49.28683" lon="-0.30951">
        <ele>7.8</ele>
        <time>2020-12-20T10:29:40Z</time>
      </trkpt>
      <trkpt lat="49.28683" lon="-0.30952">
        <ele>7.7</ele>
        <time>2020-12-20T10:29:41Z</time>
      </trkpt>
      <trkpt lat="49.28685" lon="-0.30956">
        <ele>7.7</ele>
        <time>2020-12-20T10:29:42Z</time>
      </trkpt>
      <trkpt lat="49.28685" lon="-0.30958">
        <ele>7.6</ele>
        <time>2020-12-20T10:29:43Z</time>
      </trkpt>
      <trkpt lat="49.28687" lon="-0.30963">
        <ele>7.5</ele>
        <time>2020-12-20T10:29:44Z</time>
      </trkpt>
      <trkpt lat="49.28688" lon="-0.30965">
        <ele>7.5</ele>
        <time>2020-12-20T10:29:45Z</time>
      </trkpt>
      <trkpt lat="49.28689" lon="-0.30968">
        <ele>7.5</ele>
        <time>2020-12-20T10:29:47Z</time>
      </trkpt>
      <trkpt lat="49.28691" lon="-0.30973">
        <ele>7.4</ele>
        <time>2020-12-20T10:29:49Z</time>
      </trkpt>
      <trkpt lat="49.28694" lon="-0.3098">
        <ele>7.2</ele>
        <time>2020-12-20T10:29:50Z</time>
      </trkpt>
      <trkpt lat="49.28697" lon="-0.30985">
        <ele>7.1</ele>
        <time>2020-12-20T10:29:52Z</time>
      </trkpt>
      <trkpt lat="49.28699" lon="-0.3099">
        <ele>7</ele>
        <time>2020-12-20T10:29:53Z</time>
      </trkpt>
      <trkpt lat="49.28702" lon="-0.30998">
        <ele>6.9</ele>
        <time>2020-12-20T10:29:55Z</time>
      </trkpt>
      <trkpt lat="49.28704" lon="-0.31004">
        <ele>6.8</ele>
        <time>2020-12-20T10:29:57Z</time>
      </trkpt>
      <trkpt lat="49.28706" lon="-0.3101">
        <ele>6.7</ele>
        <time>2020-12-20T10:29:59Z</time>
      </trkpt>
      <trkpt lat="49.28708" lon="-0.31013">
        <ele>6.7</ele>
        <time>2020-12-20T10:30:00Z</time>
      </trkpt>
      <trkpt lat="49.28709" lon="-0.31016">
        <ele>6.6</ele>
        <time>2020-12-20T10:30:02Z</time>
      </trkpt>
      <trkpt lat="49.2871" lon="-0.3102">
        <ele>6.6</ele>
        <time>2020-12-20T10:30:03Z</time>
      </trkpt>
      <trkpt lat="49.28711" lon="-0.31022">
        <ele>6.6</ele>
        <time>2020-12-20T10:30:04Z</time>
      </trkpt>
      <trkpt lat="49.28712" lon="-0.31026">
        <ele>6.5</ele>
        <time>2020-12-20T10:30:05Z</time>
      </trkpt>
      <trkpt lat="49.28713" lon="-0.3103">
        <ele>6.5</ele>
        <time>2020-12-20T10:30:07Z</time>
      </trkpt>
      <trkpt lat="49.28714" lon="-0.31032">
        <ele>6.5</ele>
        <time>2020-12-20T10:30:08Z</time>
      </trkpt>
      <trkpt lat="49.28716" lon="-0.31036">
        <ele>6.4</ele>
        <time>2020-12-20T10:30:09Z</time>
      </trkpt>
      <trkpt lat="49.28717" lon="-0.31038">
        <ele>6.4</ele>
        <time>2020-12-20T10:30:10Z</time>
      </trkpt>
      <trkpt lat="49.28718" lon="-0.3104">
        <ele>6.3</ele>
        <time>2020-12-20T10:30:11Z</time>
      </trkpt>
      <trkpt lat="49.2872" lon="-0.31045">
        <ele>6.3</ele>
        <time>2020-12-20T10:30:13Z</time>
      </trkpt>
      <trkpt lat="49.28723" lon="-0.31051">
        <ele>6.2</ele>
        <time>2020-12-20T10:30:15Z</time>
      </trkpt>
      <trkpt lat="49.28723" lon="-0.31053">
        <ele>6.2</ele>
        <time>2020-12-20T10:30:16Z</time>
      </trkpt>
      <trkpt lat="49.28724" lon="-0.31054">
        <ele>6.2</ele>
        <time>2020-12-20T10:30:17Z</time>
      </trkpt>
      <trkpt lat="49.28726" lon="-0.31057">
        <ele>6.1</ele>
        <time>2020-12-20T10:30:18Z</time>
      </trkpt>
      <trkpt lat="49.28728" lon="-0.31063">
        <ele>6.1</ele>
        <time>2020-12-20T10:30:20Z</time>
      </trkpt>
      <trkpt lat="49.2873" lon="-0.31067">
        <ele>6.1</ele>
        <time>2020-12-20T10:30:22Z</time>
      </trkpt>
      <trkpt lat="49.28731" lon="-0.31069">
        <ele>6.1</ele>
        <time>2020-12-20T10:30:23Z</time>
      </trkpt>
      <trkpt lat="49.28732" lon="-0.31071">
        <ele>6</ele>
        <time>2020-12-20T10:30:24Z</time>
      </trkpt>
      <trkpt lat="49.28734" lon="-0.31073">
        <ele>6</ele>
        <time>2020-12-20T10:30:26Z</time>
      </trkpt>
      <trkpt lat="49.28736" lon="-0.31077">
        <ele>6</ele>
        <time>2020-12-20T10:30:27Z</time>
      </trkpt>
      <trkpt lat="49.28736" lon="-0.31078">
        <ele>6</ele>
        <time>2020-12-20T10:30:28Z</time>
      </trkpt>
      <trkpt lat="49.28738" lon="-0.31082">
        <ele>6</ele>
        <time>2020-12-20T10:30:30Z</time>
      </trkpt>
      <trkpt lat="49.28739" lon="-0.31084">
        <ele>6</ele>
        <time>2020-12-20T10:30:31Z</time>
      </trkpt>
      <trkpt lat="49.2874" lon="-0.31087">
        <ele>6</ele>
        <time>2020-12-20T10:30:32Z</time>
      </trkpt>
      <trkpt lat="49.28742" lon="-0.31091">
        <ele>6</ele>
        <time>2020-12-20T10:30:34Z</time>
      </trkpt>
      <trkpt lat="49.28743" lon="-0.31094">
        <ele>6</ele>
        <time>2020-12-20T10:30:35Z</time>
      </trkpt>
      <trkpt lat="49.28744" lon="-0.31096">
        <ele>6</ele>
        <time>2020-12-20T10:30:37Z</time>
      </trkpt>
      <trkpt lat="49.28746" lon="-0.311">
        <ele>6</ele>
        <time>2020-12-20T10:30:38Z</time>
      </trkpt>
      <trkpt lat="49.28747" lon="-0.31104">
        <ele>6</ele>
        <time>2020-12-20T10:30:40Z</time>
      </trkpt>
      <trkpt lat="49.28748" lon="-0.31105">
        <ele>6</ele>
        <time>2020-12-20T10:30:41Z</time>
      </trkpt>
      <trkpt lat="49.2875" lon="-0.3111">
        <ele>5.9</ele>
        <time>2020-12-20T10:30:43Z</time>
      </trkpt>
      <trkpt lat="49.2875" lon="-0.31112">
        <ele>5.9</ele>
        <time>2020-12-20T10:30:44Z</time>
      </trkpt>
      <trkpt lat="49.28751" lon="-0.31115">
        <ele>5.9</ele>
        <time>2020-12-20T10:30:45Z</time>
      </trkpt>
      <trkpt lat="49.28753" lon="-0.31118">
        <ele>5.9</ele>
        <time>2020-12-20T10:30:47Z</time>
      </trkpt>
      <trkpt lat="49.28754" lon="-0.31122">
        <ele>5.9</ele>
        <time>2020-12-20T10:30:49Z</time>
      </trkpt>
      <trkpt lat="49.28755" lon="-0.31127">
        <ele>5.9</ele>
        <time>2020-12-20T10:30:50Z</time>
      </trkpt>
      <trkpt lat="49.28756" lon="-0.31131">
        <ele>5.9</ele>
        <time>2020-12-20T10:30:52Z</time>
      </trkpt>
      <trkpt lat="49.28757" lon="-0.31134">
        <ele>5.8</ele>
        <time>2020-12-20T10:30:53Z</time>
      </trkpt>
      <trkpt lat="49.28758" lon="-0.3114">
        <ele>5.8</ele>
        <time>2020-12-20T10:30:55Z</time>
      </trkpt>
      <trkpt lat="49.2876" lon="-0.31147">
        <ele>5.8</ele>
        <time>2020-12-20T10:30:57Z</time>
      </trkpt>
      <trkpt lat="49.2876" lon="-0.31149">
        <ele>5.8</ele>
        <time>2020-12-20T10:30:58Z</time>
      </trkpt>
      <trkpt lat="49.28761" lon="-0.31152">
        <ele>5.8</ele>
        <time>2020-12-20T10:30:59Z</time>
      </trkpt>
      <trkpt lat="49.28762" lon="-0.31156">
        <ele>5.9</ele>
        <time>2020-12-20T10:31:00Z</time>
      </trkpt>
      <trkpt lat="49.28763" lon="-0.3116">
        <ele>5.9</ele>
        <time>2020-12-20T10:31:01Z</time>
      </trkpt>
      <trkpt lat="49.28763" lon="-0.31164">
        <ele>5.9</ele>
        <time>2020-12-20T10:31:02Z</time>
      </trkpt>
      <trkpt lat="49.28764" lon="-0.31168">
        <ele>5.9</ele>
        <time>2020-12-20T10:31:04Z</time>
      </trkpt>
      <trkpt lat="49.28764" lon="-0.31173">
        <ele>5.9</ele>
        <time>2020-12-20T10:31:05Z</time>
      </trkpt>
      <trkpt lat="49.28765" lon="-0.31175">
        <ele>5.9</ele>
        <time>2020-12-20T10:31:06Z</time>
      </trkpt>
      <trkpt lat="49.28765" lon="-0.31178">
        <ele>5.9</ele>
        <time>2020-12-20T10:31:07Z</time>
      </trkpt>
      <trkpt lat="49.28766" lon="-0.3118">
        <ele>5.9</ele>
        <time>2020-12-20T10:31:09Z</time>
      </trkpt>
      <trkpt lat="49.28766" lon="-0.31183">
        <ele>5.9</ele>
        <time>2020-12-20T10:31:10Z</time>
      </trkpt>
      <trkpt lat="49.28767" lon="-0.31187">
        <ele>6</ele>
        <time>2020-12-20T10:31:12Z</time>
      </trkpt>
      <trkpt lat="49.28768" lon="-0.3119">
        <ele>6</ele>
        <time>2020-12-20T10:31:13Z</time>
      </trkpt>
      <trkpt lat="49.28769" lon="-0.31194">
        <ele>6</ele>
        <time>2020-12-20T10:31:15Z</time>
      </trkpt>
      <trkpt lat="49.2877" lon="-0.31198">
        <ele>6</ele>
        <time>2020-12-20T10:31:16Z</time>
      </trkpt>
      <trkpt lat="49.28771" lon="-0.31202">
        <ele>6.1</ele>
        <time>2020-12-20T10:31:18Z</time>
      </trkpt>
      <trkpt lat="49.28771" lon="-0.31204">
        <ele>6.1</ele>
        <time>2020-12-20T10:31:19Z</time>
      </trkpt>
      <trkpt lat="49.28771" lon="-0.31208">
        <ele>6.1</ele>
        <time>2020-12-20T10:31:21Z</time>
      </trkpt>
      <trkpt lat="49.28772" lon="-0.31212">
        <ele>6.1</ele>
        <time>2020-12-20T10:31:22Z</time>
      </trkpt>
      <trkpt lat="49.28772" lon="-0.31213">
        <ele>6.1</ele>
        <time>2020-12-20T10:31:23Z</time>
      </trkpt>
      <trkpt lat="49.28773" lon="-0.31218">
        <ele>6.1</ele>
        <time>2020-12-20T10:31:24Z</time>
      </trkpt>
      <trkpt lat="49.28774" lon="-0.31222">
        <ele>6.1</ele>
        <time>2020-12-20T10:31:26Z</time>
      </trkpt>
      <trkpt lat="49.28775" lon="-0.31223">
        <ele>6.1</ele>
        <time>2020-12-20T10:31:27Z</time>
      </trkpt>
      <trkpt lat="49.28776" lon="-0.31226">
        <ele>6.2</ele>
        <time>2020-12-20T10:31:28Z</time>
      </trkpt>
      <trkpt lat="49.28777" lon="-0.31228">
        <ele>6.1</ele>
        <time>2020-12-20T10:31:29Z</time>
      </trkpt>
      <trkpt lat="49.28779" lon="-0.3123">
        <ele>6.1</ele>
        <time>2020-12-20T10:31:30Z</time>
      </trkpt>
      <trkpt lat="49.28781" lon="-0.3123">
        <ele>6</ele>
        <time>2020-12-20T10:31:32Z</time>
      </trkpt>
      <trkpt lat="49.28782" lon="-0.3123">
        <ele>6</ele>
        <time>2020-12-20T10:31:33Z</time>
      </trkpt>
      <trkpt lat="49.28783" lon="-0.31229">
        <ele>6</ele>
        <time>2020-12-20T10:31:34Z</time>
      </trkpt>
      <trkpt lat="49.28785" lon="-0.31229">
        <ele>6</ele>
        <time>2020-12-20T10:31:35Z</time>
      </trkpt>
      <trkpt lat="49.28788" lon="-0.31228">
        <ele>6</ele>
        <time>2020-12-20T10:31:37Z</time>
      </trkpt>
      <trkpt lat="49.2879" lon="-0.31228">
        <ele>6</ele>
        <time>2020-12-20T10:31:38Z</time>
      </trkpt>
      <trkpt lat="49.28793" lon="-0.31227">
        <ele>6</ele>
        <time>2020-12-20T10:31:40Z</time>
      </trkpt>
      <trkpt lat="49.28797" lon="-0.31226">
        <ele>5.9</ele>
        <time>2020-12-20T10:31:41Z</time>
      </trkpt>
      <trkpt lat="49.288" lon="-0.31225">
        <ele>5.9</ele>
        <time>2020-12-20T10:31:44Z</time>
      </trkpt>
      <trkpt lat="49.28802" lon="-0.31225">
        <ele>5.9</ele>
        <time>2020-12-20T10:31:46Z</time>
      </trkpt>
      <trkpt lat="49.28804" lon="-0.31224">
        <ele>5.9</ele>
        <time>2020-12-20T10:31:49Z</time>
      </trkpt>
      <trkpt lat="49.28806" lon="-0.31223">
        <ele>5.9</ele>
        <time>2020-12-20T10:31:50Z</time>
      </trkpt>
      <trkpt lat="49.28809" lon="-0.31223">
        <ele>5.9</ele>
        <time>2020-12-20T10:31:52Z</time>
      </trkpt>
      <trkpt lat="49.2881" lon="-0.31223">
        <ele>5.9</ele>
        <time>2020-12-20T10:31:53Z</time>
      </trkpt>
      <trkpt lat="49.28811" lon="-0.31223">
        <ele>5.9</ele>
        <time>2020-12-20T10:31:55Z</time>
      </trkpt>
      <trkpt lat="49.28813" lon="-0.31222">
        <ele>5.9</ele>
        <time>2020-12-20T10:31:56Z</time>
      </trkpt>
      <trkpt lat="49.28816" lon="-0.31222">
        <ele>5.9</ele>
        <time>2020-12-20T10:31:57Z</time>
      </trkpt>
      <trkpt lat="49.28817" lon="-0.31222">
        <ele>5.9</ele>
        <time>2020-12-20T10:31:58Z</time>
      </trkpt>
      <trkpt lat="49.2882" lon="-0.31222">
        <ele>5.9</ele>
        <time>2020-12-20T10:32:01Z</time>
      </trkpt>
      <trkpt lat="49.28824" lon="-0.31223">
        <ele>5.9</ele>
        <time>2020-12-20T10:32:02Z</time>
      </trkpt>
      <trkpt lat="49.28825" lon="-0.31224">
        <ele>5.9</ele>
        <time>2020-12-20T10:32:04Z</time>
      </trkpt>
      <trkpt lat="49.28827" lon="-0.31225">
        <ele>5.9</ele>
        <time>2020-12-20T10:32:05Z</time>
      </trkpt>
      <trkpt lat="49.2883" lon="-0.31226">
        <ele>5.9</ele>
        <time>2020-12-20T10:32:07Z</time>
      </trkpt>
      <trkpt lat="49.28834" lon="-0.31227">
        <ele>5.9</ele>
        <time>2020-12-20T10:32:08Z</time>
      </trkpt>
      <trkpt lat="49.28837" lon="-0.31229">
        <ele>6</ele>
        <time>2020-12-20T10:32:10Z</time>
      </trkpt>
      <trkpt lat="49.28839" lon="-0.31229">
        <ele>6</ele>
        <time>2020-12-20T10:32:11Z</time>
      </trkpt>
      <trkpt lat="49.28843" lon="-0.31231">
        <ele>6</ele>
        <time>2020-12-20T10:32:14Z</time>
      </trkpt>
      <trkpt lat="49.28846" lon="-0.31232">
        <ele>6</ele>
        <time>2020-12-20T10:32:15Z</time>
      </trkpt>
      <trkpt lat="49.2885" lon="-0.31233">
        <ele>6</ele>
        <time>2020-12-20T10:32:17Z</time>
      </trkpt>
      <trkpt lat="49.28853" lon="-0.31234">
        <ele>6.1</ele>
        <time>2020-12-20T10:32:18Z</time>
      </trkpt>
      <trkpt lat="49.28856" lon="-0.31235">
        <ele>6.1</ele>
        <time>2020-12-20T10:32:19Z</time>
      </trkpt>
      <trkpt lat="49.28858" lon="-0.31235">
        <ele>6.1</ele>
        <time>2020-12-20T10:32:21Z</time>
      </trkpt>
      <trkpt lat="49.2886" lon="-0.31236">
        <ele>6.1</ele>
        <time>2020-12-20T10:32:22Z</time>
      </trkpt>
      <trkpt lat="49.28865" lon="-0.31237">
        <ele>6.1</ele>
        <time>2020-12-20T10:32:24Z</time>
      </trkpt>
      <trkpt lat="49.28868" lon="-0.31237">
        <ele>6.1</ele>
        <time>2020-12-20T10:32:26Z</time>
      </trkpt>
      <trkpt lat="49.28872" lon="-0.31237">
        <ele>6.2</ele>
        <time>2020-12-20T10:32:28Z</time>
      </trkpt>
      <trkpt lat="49.28874" lon="-0.31237">
        <ele>6.2</ele>
        <time>2020-12-20T10:32:29Z</time>
      </trkpt>
      <trkpt lat="49.28878" lon="-0.31237">
        <ele>6.2</ele>
        <time>2020-12-20T10:32:31Z</time>
      </trkpt>
      <trkpt lat="49.28882" lon="-0.31236">
        <ele>6.2</ele>
        <time>2020-12-20T10:32:33Z</time>
      </trkpt>
      <trkpt lat="49.28886" lon="-0.31236">
        <ele>6.2</ele>
        <time>2020-12-20T10:32:35Z</time>
      </trkpt>
      <trkpt lat="49.28888" lon="-0.31235">
        <ele>6.2</ele>
        <time>2020-12-20T10:32:36Z</time>
      </trkpt>
      <trkpt lat="49.28891" lon="-0.31234">
        <ele>6.3</ele>
        <time>2020-12-20T10:32:38Z</time>
      </trkpt>
      <trkpt lat="49.28896" lon="-0.31232">
        <ele>6.3</ele>
        <time>2020-12-20T10:32:40Z</time>
      </trkpt>
      <trkpt lat="49.28897" lon="-0.31231">
        <ele>6.3</ele>
        <time>2020-12-20T10:32:42Z</time>
      </trkpt>
      <trkpt lat="49.28899" lon="-0.31231">
        <ele>6.3</ele>
        <time>2020-12-20T10:32:43Z</time>
      </trkpt>
      <trkpt lat="49.28901" lon="-0.31228">
        <ele>6.4</ele>
        <time>2020-12-20T10:32:45Z</time>
      </trkpt>
      <trkpt lat="49.28903" lon="-0.31227">
        <ele>6.4</ele>
        <time>2020-12-20T10:32:46Z</time>
      </trkpt>
      <trkpt lat="49.28906" lon="-0.31225">
        <ele>6.4</ele>
        <time>2020-12-20T10:32:48Z</time>
      </trkpt>
      <trkpt lat="49.28909" lon="-0.31223">
        <ele>6.4</ele>
        <time>2020-12-20T10:32:49Z</time>
      </trkpt>
      <trkpt lat="49.28913" lon="-0.3122">
        <ele>6.4</ele>
        <time>2020-12-20T10:32:51Z</time>
      </trkpt>
      <trkpt lat="49.28914" lon="-0.31219">
        <ele>6.4</ele>
        <time>2020-12-20T10:32:52Z</time>
      </trkpt>
      <trkpt lat="49.28916" lon="-0.31218">
        <ele>6.4</ele>
        <time>2020-12-20T10:32:53Z</time>
      </trkpt>
      <trkpt lat="49.28917" lon="-0.31217">
        <ele>6.4</ele>
        <time>2020-12-20T10:32:55Z</time>
      </trkpt>
      <trkpt lat="49.2892" lon="-0.31216">
        <ele>6.4</ele>
        <time>2020-12-20T10:32:56Z</time>
      </trkpt>
      <trkpt lat="49.28923" lon="-0.31214">
        <ele>6.4</ele>
        <time>2020-12-20T10:32:58Z</time>
      </trkpt>
      <trkpt lat="49.28925" lon="-0.31213">
        <ele>6.5</ele>
        <time>2020-12-20T10:32:59Z</time>
      </trkpt>
      <trkpt lat="49.28927" lon="-0.31212">
        <ele>6.5</ele>
        <time>2020-12-20T10:33:01Z</time>
      </trkpt>
      <trkpt lat="49.28929" lon="-0.3121">
        <ele>6.5</ele>
        <time>2020-12-20T10:33:02Z</time>
      </trkpt>
      <trkpt lat="49.2893" lon="-0.31209">
        <ele>6.5</ele>
        <time>2020-12-20T10:33:04Z</time>
      </trkpt>
      <trkpt lat="49.28932" lon="-0.31207">
        <ele>6.5</ele>
        <time>2020-12-20T10:33:05Z</time>
      </trkpt>
      <trkpt lat="49.28934" lon="-0.31205">
        <ele>6.5</ele>
        <time>2020-12-20T10:33:07Z</time>
      </trkpt>
      <trkpt lat="49.28936" lon="-0.31204">
        <ele>6.5</ele>
        <time>2020-12-20T10:33:08Z</time>
      </trkpt>
      <trkpt lat="49.28937" lon="-0.31205">
        <ele>6.5</ele>
        <time>2020-12-20T10:33:10Z</time>
      </trkpt>
      <trkpt lat="49.28938" lon="-0.31205">
        <ele>6.6</ele>
        <time>2020-12-20T10:33:11Z</time>
      </trkpt>
      <trkpt lat="49.28938" lon="-0.31206">
        <ele>6.6</ele>
        <time>2020-12-20T10:33:13Z</time>
      </trkpt>
      <trkpt lat="49.28939" lon="-0.31208">
        <ele>6.6</ele>
        <time>2020-12-20T10:33:14Z</time>
      </trkpt>
      <trkpt lat="49.2894" lon="-0.3121">
        <ele>6.7</ele>
        <time>2020-12-20T10:33:15Z</time>
      </trkpt>
      <trkpt lat="49.28941" lon="-0.31211">
        <ele>6.7</ele>
        <time>2020-12-20T10:33:17Z</time>
      </trkpt>
      <trkpt lat="49.28942" lon="-0.31212">
        <ele>6.7</ele>
        <time>2020-12-20T10:33:19Z</time>
      </trkpt>
      <trkpt lat="49.28945" lon="-0.31216">
        <ele>6.8</ele>
        <time>2020-12-20T10:33:20Z</time>
      </trkpt>
      <trkpt lat="49.28946" lon="-0.31218">
        <ele>6.8</ele>
        <time>2020-12-20T10:33:21Z</time>
      </trkpt>
      <trkpt lat="49.28948" lon="-0.31221">
        <ele>6.8</ele>
        <time>2020-12-20T10:33:23Z</time>
      </trkpt>
      <trkpt lat="49.2895" lon="-0.31225">
        <ele>6.9</ele>
        <time>2020-12-20T10:33:24Z</time>
      </trkpt>
      <trkpt lat="49.28951" lon="-0.31228">
        <ele>6.9</ele>
        <time>2020-12-20T10:33:25Z</time>
      </trkpt>
      <trkpt lat="49.28954" lon="-0.31233">
        <ele>6.9</ele>
        <time>2020-12-20T10:33:26Z</time>
      </trkpt>
      <trkpt lat="49.28956" lon="-0.31237">
        <ele>7</ele>
        <time>2020-12-20T10:33:28Z</time>
      </trkpt>
      <trkpt lat="49.28958" lon="-0.31242">
        <ele>7</ele>
        <time>2020-12-20T10:33:29Z</time>
      </trkpt>
      <trkpt lat="49.28959" lon="-0.31244">
        <ele>7</ele>
        <time>2020-12-20T10:33:30Z</time>
      </trkpt>
      <trkpt lat="49.28961" lon="-0.31249">
        <ele>7</ele>
        <time>2020-12-20T10:33:32Z</time>
      </trkpt>
      <trkpt lat="49.28962" lon="-0.31252">
        <ele>7</ele>
        <time>2020-12-20T10:33:34Z</time>
      </trkpt>
      <trkpt lat="49.28963" lon="-0.31256">
        <ele>7</ele>
        <time>2020-12-20T10:33:35Z</time>
      </trkpt>
      <trkpt lat="49.28965" lon="-0.3126">
        <ele>7.1</ele>
        <time>2020-12-20T10:33:37Z</time>
      </trkpt>
      <trkpt lat="49.28967" lon="-0.31265">
        <ele>7.1</ele>
        <time>2020-12-20T10:33:38Z</time>
      </trkpt>
      <trkpt lat="49.28968" lon="-0.31269">
        <ele>7.1</ele>
        <time>2020-12-20T10:33:39Z</time>
      </trkpt>
      <trkpt lat="49.28969" lon="-0.31272">
        <ele>7.1</ele>
        <time>2020-12-20T10:33:40Z</time>
      </trkpt>
      <trkpt lat="49.28971" lon="-0.31276">
        <ele>7.2</ele>
        <time>2020-12-20T10:33:42Z</time>
      </trkpt>
      <trkpt lat="49.28973" lon="-0.31281">
        <ele>7.2</ele>
        <time>2020-12-20T10:33:44Z</time>
      </trkpt>
      <trkpt lat="49.28974" lon="-0.31284">
        <ele>7.3</ele>
        <time>2020-12-20T10:33:45Z</time>
      </trkpt>
      <trkpt lat="49.28975" lon="-0.31287">
        <ele>7.3</ele>
        <time>2020-12-20T10:33:47Z</time>
      </trkpt>
      <trkpt lat="49.28977" lon="-0.31291">
        <ele>7.3</ele>
        <time>2020-12-20T10:33:48Z</time>
      </trkpt>
      <trkpt lat="49.28978" lon="-0.31295">
        <ele>7.4</ele>
        <time>2020-12-20T10:33:49Z</time>
      </trkpt>
      <trkpt lat="49.28979" lon="-0.31299">
        <ele>7.4</ele>
        <time>2020-12-20T10:33:51Z</time>
      </trkpt>
      <trkpt lat="49.2898" lon="-0.31301">
        <ele>7.5</ele>
        <time>2020-12-20T10:33:53Z</time>
      </trkpt>
      <trkpt lat="49.28981" lon="-0.31304">
        <ele>7.5</ele>
        <time>2020-12-20T10:33:54Z</time>
      </trkpt>
      <trkpt lat="49.28982" lon="-0.31307">
        <ele>7.5</ele>
        <time>2020-12-20T10:33:55Z</time>
      </trkpt>
      <trkpt lat="49.28983" lon="-0.3131">
        <ele>7.6</ele>
        <time>2020-12-20T10:33:57Z</time>
      </trkpt>
      <trkpt lat="49.28984" lon="-0.31313">
        <ele>7.6</ele>
        <time>2020-12-20T10:33:58Z</time>
      </trkpt>
      <trkpt lat="49.28985" lon="-0.31316">
        <ele>7.7</ele>
        <time>2020-12-20T10:34:00Z</time>
      </trkpt>
      <trkpt lat="49.28987" lon="-0.3132">
        <ele>7.7</ele>
        <time>2020-12-20T10:34:01Z</time>
      </trkpt>
      <trkpt lat="49.28989" lon="-0.31324">
        <ele>7.8</ele>
        <time>2020-12-20T10:34:03Z</time>
      </trkpt>
      <trkpt lat="49.2899" lon="-0.31325">
        <ele>7.8</ele>
        <time>2020-12-20T10:34:04Z</time>
      </trkpt>
      <trkpt lat="49.28992" lon="-0.31328">
        <ele>7.9</ele>
        <time>2020-12-20T10:34:06Z</time>
      </trkpt>
      <trkpt lat="49.28994" lon="-0.31331">
        <ele>7.9</ele>
        <time>2020-12-20T10:34:07Z</time>
      </trkpt>
      <trkpt lat="49.28995" lon="-0.31333">
        <ele>7.9</ele>
        <time>2020-12-20T10:34:09Z</time>
      </trkpt>
      <trkpt lat="49.28997" lon="-0.31336">
        <ele>7.8</ele>
        <time>2020-12-20T10:34:10Z</time>
      </trkpt>
      <trkpt lat="49.28998" lon="-0.31337">
        <ele>7.8</ele>
        <time>2020-12-20T10:34:11Z</time>
      </trkpt>
      <trkpt lat="49.29" lon="-0.3134">
        <ele>7.8</ele>
        <time>2020-12-20T10:34:13Z</time>
      </trkpt>
      <trkpt lat="49.29001" lon="-0.31342">
        <ele>7.8</ele>
        <time>2020-12-20T10:34:14Z</time>
      </trkpt>
      <trkpt lat="49.29003" lon="-0.31346">
        <ele>7.7</ele>
        <time>2020-12-20T10:34:15Z</time>
      </trkpt>
      <trkpt lat="49.29004" lon="-0.31347">
        <ele>7.7</ele>
        <time>2020-12-20T10:34:16Z</time>
      </trkpt>
      <trkpt lat="49.29007" lon="-0.3135">
        <ele>7.7</ele>
        <time>2020-12-20T10:34:18Z</time>
      </trkpt>
      <trkpt lat="49.2901" lon="-0.31353">
        <ele>7.6</ele>
        <time>2020-12-20T10:34:19Z</time>
      </trkpt>
      <trkpt lat="49.29014" lon="-0.31356">
        <ele>7.6</ele>
        <time>2020-12-20T10:34:21Z</time>
      </trkpt>
      <trkpt lat="49.29015" lon="-0.31357">
        <ele>7.6</ele>
        <time>2020-12-20T10:34:22Z</time>
      </trkpt>
      <trkpt lat="49.29018" lon="-0.31361">
        <ele>7.5</ele>
        <time>2020-12-20T10:34:24Z</time>
      </trkpt>
      <trkpt lat="49.29019" lon="-0.31362">
        <ele>7.5</ele>
        <time>2020-12-20T10:34:25Z</time>
      </trkpt>
      <trkpt lat="49.2902" lon="-0.31363">
        <ele>7.5</ele>
        <time>2020-12-20T10:34:26Z</time>
      </trkpt>
      <trkpt lat="49.29022" lon="-0.31364">
        <ele>7.5</ele>
        <time>2020-12-20T10:34:27Z</time>
      </trkpt>
      <trkpt lat="49.29025" lon="-0.31366">
        <ele>7.5</ele>
        <time>2020-12-20T10:34:29Z</time>
      </trkpt>
      <trkpt lat="49.29026" lon="-0.31367">
        <ele>7.4</ele>
        <time>2020-12-20T10:34:30Z</time>
      </trkpt>
      <trkpt lat="49.29028" lon="-0.31367">
        <ele>7.4</ele>
        <time>2020-12-20T10:34:31Z</time>
      </trkpt>
      <trkpt lat="49.2903" lon="-0.31367">
        <ele>7.4</ele>
        <time>2020-12-20T10:34:32Z</time>
      </trkpt>
      <trkpt lat="49.29032" lon="-0.31366">
        <ele>7.4</ele>
        <time>2020-12-20T10:34:34Z</time>
      </trkpt>
      <trkpt lat="49.29036" lon="-0.31364">
        <ele>7.4</ele>
        <time>2020-12-20T10:34:36Z</time>
      </trkpt>
      <trkpt lat="49.29037" lon="-0.31364">
        <ele>7.4</ele>
        <time>2020-12-20T10:34:37Z</time>
      </trkpt>
      <trkpt lat="49.29039" lon="-0.31362">
        <ele>7.4</ele>
        <time>2020-12-20T10:34:38Z</time>
      </trkpt>
      <trkpt lat="49.29041" lon="-0.31359">
        <ele>7.4</ele>
        <time>2020-12-20T10:34:40Z</time>
      </trkpt>
      <trkpt lat="49.29043" lon="-0.31357">
        <ele>7.4</ele>
        <time>2020-12-20T10:34:41Z</time>
      </trkpt>
      <trkpt lat="49.29045" lon="-0.31355">
        <ele>7.4</ele>
        <time>2020-12-20T10:34:42Z</time>
      </trkpt>
      <trkpt lat="49.29047" lon="-0.31353">
        <ele>7.4</ele>
        <time>2020-12-20T10:34:44Z</time>
      </trkpt>
      <trkpt lat="49.2905" lon="-0.3135">
        <ele>7.5</ele>
        <time>2020-12-20T10:34:45Z</time>
      </trkpt>
      <trkpt lat="49.29052" lon="-0.31348">
        <ele>7.5</ele>
        <time>2020-12-20T10:34:46Z</time>
      </trkpt>
      <trkpt lat="49.29055" lon="-0.31344">
        <ele>7.5</ele>
        <time>2020-12-20T10:34:48Z</time>
      </trkpt>
      <trkpt lat="49.29058" lon="-0.31341">
        <ele>7.5</ele>
        <time>2020-12-20T10:34:50Z</time>
      </trkpt>
      <trkpt lat="49.2906" lon="-0.31338">
        <ele>7.5</ele>
        <time>2020-12-20T10:34:51Z</time>
      </trkpt>
      <trkpt lat="49.29062" lon="-0.31335">
        <ele>7.6</ele>
        <time>2020-12-20T10:34:53Z</time>
      </trkpt>
      <trkpt lat="49.29064" lon="-0.31333">
        <ele>7.6</ele>
        <time>2020-12-20T10:34:55Z</time>
      </trkpt>
      <trkpt lat="49.29065" lon="-0.31332">
        <ele>7.6</ele>
        <time>2020-12-20T10:34:56Z</time>
      </trkpt>
      <trkpt lat="49.29067" lon="-0.31328">
        <ele>7.6</ele>
        <time>2020-12-20T10:34:57Z</time>
      </trkpt>
      <trkpt lat="49.29068" lon="-0.31327">
        <ele>7.6</ele>
        <time>2020-12-20T10:34:58Z</time>
      </trkpt>
      <trkpt lat="49.2907" lon="-0.31324">
        <ele>7.6</ele>
        <time>2020-12-20T10:34:59Z</time>
      </trkpt>
      <trkpt lat="49.29072" lon="-0.31322">
        <ele>7.7</ele>
        <time>2020-12-20T10:35:01Z</time>
      </trkpt>
      <trkpt lat="49.29076" lon="-0.31319">
        <ele>7.7</ele>
        <time>2020-12-20T10:35:02Z</time>
      </trkpt>
      <trkpt lat="49.29077" lon="-0.31318">
        <ele>7.7</ele>
        <time>2020-12-20T10:35:03Z</time>
      </trkpt>
      <trkpt lat="49.29079" lon="-0.31316">
        <ele>7.7</ele>
        <time>2020-12-20T10:35:04Z</time>
      </trkpt>
      <trkpt lat="49.29083" lon="-0.31314">
        <ele>7.8</ele>
        <time>2020-12-20T10:35:06Z</time>
      </trkpt>
      <trkpt lat="49.29084" lon="-0.31313">
        <ele>7.8</ele>
        <time>2020-12-20T10:35:07Z</time>
      </trkpt>
      <trkpt lat="49.29089" lon="-0.31315">
        <ele>7.8</ele>
        <time>2020-12-20T10:35:09Z</time>
      </trkpt>
      <trkpt lat="49.2909" lon="-0.31316">
        <ele>7.8</ele>
        <time>2020-12-20T10:35:10Z</time>
      </trkpt>
      <trkpt lat="49.29091" lon="-0.31318">
        <ele>7.8</ele>
        <time>2020-12-20T10:35:11Z</time>
      </trkpt>
      <trkpt lat="49.29092" lon="-0.31319">
        <ele>7.8</ele>
        <time>2020-12-20T10:35:12Z</time>
      </trkpt>
      <trkpt lat="49.29095" lon="-0.31323">
        <ele>7.9</ele>
        <time>2020-12-20T10:35:14Z</time>
      </trkpt>
      <trkpt lat="49.29097" lon="-0.31327">
        <ele>7.9</ele>
        <time>2020-12-20T10:35:16Z</time>
      </trkpt>
      <trkpt lat="49.29098" lon="-0.31328">
        <ele>7.9</ele>
        <time>2020-12-20T10:35:17Z</time>
      </trkpt>
      <trkpt lat="49.291" lon="-0.31331">
        <ele>7.9</ele>
        <time>2020-12-20T10:35:19Z</time>
      </trkpt>
      <trkpt lat="49.29103" lon="-0.31334">
        <ele>7.9</ele>
        <time>2020-12-20T10:35:20Z</time>
      </trkpt>
      <trkpt lat="49.29106" lon="-0.31338">
        <ele>7.9</ele>
        <time>2020-12-20T10:35:22Z</time>
      </trkpt>
      <trkpt lat="49.29108" lon="-0.3134">
        <ele>7.9</ele>
        <time>2020-12-20T10:35:23Z</time>
      </trkpt>
      <trkpt lat="49.2911" lon="-0.31342">
        <ele>7.9</ele>
        <time>2020-12-20T10:35:25Z</time>
      </trkpt>
      <trkpt lat="49.29112" lon="-0.31345">
        <ele>8</ele>
        <time>2020-12-20T10:35:26Z</time>
      </trkpt>
      <trkpt lat="49.29114" lon="-0.31347">
        <ele>8</ele>
        <time>2020-12-20T10:35:27Z</time>
      </trkpt>
      <trkpt lat="49.29116" lon="-0.3135">
        <ele>8</ele>
        <time>2020-12-20T10:35:29Z</time>
      </trkpt>
      <trkpt lat="49.29119" lon="-0.31352">
        <ele>8</ele>
        <time>2020-12-20T10:35:30Z</time>
      </trkpt>
      <trkpt lat="49.29121" lon="-0.31354">
        <ele>8</ele>
        <time>2020-12-20T10:35:32Z</time>
      </trkpt>
      <trkpt lat="49.29123" lon="-0.31357">
        <ele>8</ele>
        <time>2020-12-20T10:35:34Z</time>
      </trkpt>
      <trkpt lat="49.29126" lon="-0.31361">
        <ele>8</ele>
        <time>2020-12-20T10:35:35Z</time>
      </trkpt>
      <trkpt lat="49.29128" lon="-0.31363">
        <ele>8</ele>
        <time>2020-12-20T10:35:36Z</time>
      </trkpt>
      <trkpt lat="49.29129" lon="-0.31366">
        <ele>8</ele>
        <time>2020-12-20T10:35:38Z</time>
      </trkpt>
      <trkpt lat="49.29132" lon="-0.31369">
        <ele>8</ele>
        <time>2020-12-20T10:35:39Z</time>
      </trkpt>
      <trkpt lat="49.29133" lon="-0.31371">
        <ele>8</ele>
        <time>2020-12-20T10:35:40Z</time>
      </trkpt>
      <trkpt lat="49.29135" lon="-0.31374">
        <ele>8</ele>
        <time>2020-12-20T10:35:42Z</time>
      </trkpt>
      <trkpt lat="49.29138" lon="-0.31378">
        <ele>8</ele>
        <time>2020-12-20T10:35:44Z</time>
      </trkpt>
      <trkpt lat="49.2914" lon="-0.3138">
        <ele>8</ele>
        <time>2020-12-20T10:35:45Z</time>
      </trkpt>
      <trkpt lat="49.29141" lon="-0.31382">
        <ele>8</ele>
        <time>2020-12-20T10:35:46Z</time>
      </trkpt>
      <trkpt lat="49.29143" lon="-0.31385">
        <ele>8</ele>
        <time>2020-12-20T10:35:48Z</time>
      </trkpt>
      <trkpt lat="49.29146" lon="-0.31387">
        <ele>8</ele>
        <time>2020-12-20T10:35:49Z</time>
      </trkpt>
      <trkpt lat="49.29146" lon="-0.31388">
        <ele>8</ele>
        <time>2020-12-20T10:35:50Z</time>
      </trkpt>
      <trkpt lat="49.2915" lon="-0.31392">
        <ele>7.9</ele>
        <time>2020-12-20T10:35:52Z</time>
      </trkpt>
      <trkpt lat="49.29151" lon="-0.31394">
        <ele>7.9</ele>
        <time>2020-12-20T10:35:54Z</time>
      </trkpt>
      <trkpt lat="49.29152" lon="-0.31395">
        <ele>7.9</ele>
        <time>2020-12-20T10:35:55Z</time>
      </trkpt>
      <trkpt lat="49.29155" lon="-0.31397">
        <ele>7.9</ele>
        <time>2020-12-20T10:35:56Z</time>
      </trkpt>
      <trkpt lat="49.29158" lon="-0.314">
        <ele>7.9</ele>
        <time>2020-12-20T10:35:58Z</time>
      </trkpt>
      <trkpt lat="49.2916" lon="-0.31402">
        <ele>7.9</ele>
        <time>2020-12-20T10:35:59Z</time>
      </trkpt>
      <trkpt lat="49.29162" lon="-0.31403">
        <ele>7.9</ele>
        <time>2020-12-20T10:36:01Z</time>
      </trkpt>
      <trkpt lat="49.29163" lon="-0.31405">
        <ele>7.9</ele>
        <time>2020-12-20T10:36:02Z</time>
      </trkpt>
      <trkpt lat="49.29164" lon="-0.31406">
        <ele>7.9</ele>
        <time>2020-12-20T10:36:03Z</time>
      </trkpt>
      <trkpt lat="49.29167" lon="-0.31409">
        <ele>7.9</ele>
        <time>2020-12-20T10:36:05Z</time>
      </trkpt>
      <trkpt lat="49.29168" lon="-0.31409">
        <ele>7.9</ele>
        <time>2020-12-20T10:36:06Z</time>
      </trkpt>
      <trkpt lat="49.29171" lon="-0.31412">
        <ele>7.9</ele>
        <time>2020-12-20T10:36:08Z</time>
      </trkpt>
      <trkpt lat="49.29172" lon="-0.31413">
        <ele>7.9</ele>
        <time>2020-12-20T10:36:09Z</time>
      </trkpt>
      <trkpt lat="49.29176" lon="-0.31416">
        <ele>7.9</ele>
        <time>2020-12-20T10:36:11Z</time>
      </trkpt>
      <trkpt lat="49.29177" lon="-0.31417">
        <ele>7.9</ele>
        <time>2020-12-20T10:36:13Z</time>
      </trkpt>
      <trkpt lat="49.29179" lon="-0.31419">
        <ele>7.9</ele>
        <time>2020-12-20T10:36:14Z</time>
      </trkpt>
      <trkpt lat="49.29182" lon="-0.31421">
        <ele>7.9</ele>
        <time>2020-12-20T10:36:16Z</time>
      </trkpt>
      <trkpt lat="49.29183" lon="-0.31422">
        <ele>7.9</ele>
        <time>2020-12-20T10:36:17Z</time>
      </trkpt>
      <trkpt lat="49.29186" lon="-0.31425">
        <ele>7.9</ele>
        <time>2020-12-20T10:36:18Z</time>
      </trkpt>
      <trkpt lat="49.29188" lon="-0.31426">
        <ele>7.9</ele>
        <time>2020-12-20T10:36:19Z</time>
      </trkpt>
      <trkpt lat="49.29191" lon="-0.31428">
        <ele>7.9</ele>
        <time>2020-12-20T10:36:21Z</time>
      </trkpt>
      <trkpt lat="49.29192" lon="-0.31429">
        <ele>7.9</ele>
        <time>2020-12-20T10:36:22Z</time>
      </trkpt>
      <trkpt lat="49.29194" lon="-0.31431">
        <ele>7.9</ele>
        <time>2020-12-20T10:36:23Z</time>
      </trkpt>
      <trkpt lat="49.29197" lon="-0.31433">
        <ele>7.9</ele>
        <time>2020-12-20T10:36:24Z</time>
      </trkpt>
      <trkpt lat="49.29199" lon="-0.31435">
        <ele>7.9</ele>
        <time>2020-12-20T10:36:26Z</time>
      </trkpt>
      <trkpt lat="49.29201" lon="-0.31436">
        <ele>7.9</ele>
        <time>2020-12-20T10:36:27Z</time>
      </trkpt>
      <trkpt lat="49.29204" lon="-0.31438">
        <ele>7.9</ele>
        <time>2020-12-20T10:36:29Z</time>
      </trkpt>
      <trkpt lat="49.29209" lon="-0.3144">
        <ele>8</ele>
        <time>2020-12-20T10:36:31Z</time>
      </trkpt>
      <trkpt lat="49.2921" lon="-0.3144">
        <ele>8</ele>
        <time>2020-12-20T10:36:32Z</time>
      </trkpt>
      <trkpt lat="49.29212" lon="-0.31441">
        <ele>8</ele>
        <time>2020-12-20T10:36:33Z</time>
      </trkpt>
      <trkpt lat="49.29214" lon="-0.31442">
        <ele>8</ele>
        <time>2020-12-20T10:36:34Z</time>
      </trkpt>
      <trkpt lat="49.29217" lon="-0.31443">
        <ele>8</ele>
        <time>2020-12-20T10:36:36Z</time>
      </trkpt>
      <trkpt lat="49.2922" lon="-0.31444">
        <ele>8</ele>
        <time>2020-12-20T10:36:37Z</time>
      </trkpt>
      <trkpt lat="49.29221" lon="-0.31445">
        <ele>8</ele>
        <time>2020-12-20T10:36:38Z</time>
      </trkpt>
      <trkpt lat="49.29224" lon="-0.31445">
        <ele>8</ele>
        <time>2020-12-20T10:36:39Z</time>
      </trkpt>
      <trkpt lat="49.29226" lon="-0.31446">
        <ele>8</ele>
        <time>2020-12-20T10:36:41Z</time>
      </trkpt>
      <trkpt lat="49.29229" lon="-0.31447">
        <ele>8</ele>
        <time>2020-12-20T10:36:42Z</time>
      </trkpt>
      <trkpt lat="49.29233" lon="-0.31448">
        <ele>8</ele>
        <time>2020-12-20T10:36:43Z</time>
      </trkpt>
      <trkpt lat="49.29234" lon="-0.31448">
        <ele>8</ele>
        <time>2020-12-20T10:36:44Z</time>
      </trkpt>
      <trkpt lat="49.29237" lon="-0.31449">
        <ele>8</ele>
        <time>2020-12-20T10:36:46Z</time>
      </trkpt>
      <trkpt lat="49.29238" lon="-0.3145">
        <ele>8</ele>
        <time>2020-12-20T10:36:47Z</time>
      </trkpt>
      <trkpt lat="49.2924" lon="-0.31451">
        <ele>8</ele>
        <time>2020-12-20T10:36:48Z</time>
      </trkpt>
      <trkpt lat="49.29244" lon="-0.31452">
        <ele>8</ele>
        <time>2020-12-20T10:36:50Z</time>
      </trkpt>
      <trkpt lat="49.29246" lon="-0.31453">
        <ele>8.1</ele>
        <time>2020-12-20T10:36:51Z</time>
      </trkpt>
      <trkpt lat="49.29247" lon="-0.31454">
        <ele>8.1</ele>
        <time>2020-12-20T10:36:53Z</time>
      </trkpt>
      <trkpt lat="49.2925" lon="-0.31456">
        <ele>8.1</ele>
        <time>2020-12-20T10:36:54Z</time>
      </trkpt>
      <trkpt lat="49.29252" lon="-0.31457">
        <ele>8.1</ele>
        <time>2020-12-20T10:36:55Z</time>
      </trkpt>
      <trkpt lat="49.29254" lon="-0.31458">
        <ele>8.1</ele>
        <time>2020-12-20T10:36:56Z</time>
      </trkpt>
      <trkpt lat="49.29256" lon="-0.3146">
        <ele>8.1</ele>
        <time>2020-12-20T10:36:58Z</time>
      </trkpt>
      <trkpt lat="49.29259" lon="-0.31461">
        <ele>8.1</ele>
        <time>2020-12-20T10:36:59Z</time>
      </trkpt>
      <trkpt lat="49.29262" lon="-0.31464">
        <ele>8.1</ele>
        <time>2020-12-20T10:37:01Z</time>
      </trkpt>
      <trkpt lat="49.29263" lon="-0.31465">
        <ele>8.1</ele>
        <time>2020-12-20T10:37:02Z</time>
      </trkpt>
      <trkpt lat="49.29267" lon="-0.31467">
        <ele>8.1</ele>
        <time>2020-12-20T10:37:04Z</time>
      </trkpt>
      <trkpt lat="49.29268" lon="-0.31467">
        <ele>8.2</ele>
        <time>2020-12-20T10:37:05Z</time>
      </trkpt>
      <trkpt lat="49.2927" lon="-0.31469">
        <ele>8.2</ele>
        <time>2020-12-20T10:37:06Z</time>
      </trkpt>
      <trkpt lat="49.29273" lon="-0.31471">
        <ele>8.2</ele>
        <time>2020-12-20T10:37:08Z</time>
      </trkpt>
      <trkpt lat="49.29275" lon="-0.31472">
        <ele>8.2</ele>
        <time>2020-12-20T10:37:09Z</time>
      </trkpt>
      <trkpt lat="49.29278" lon="-0.31474">
        <ele>8.2</ele>
        <time>2020-12-20T10:37:11Z</time>
      </trkpt>
      <trkpt lat="49.29281" lon="-0.31477">
        <ele>8.2</ele>
        <time>2020-12-20T10:37:12Z</time>
      </trkpt>
      <trkpt lat="49.29285" lon="-0.31479">
        <ele>8.3</ele>
        <time>2020-12-20T10:37:14Z</time>
      </trkpt>
      <trkpt lat="49.29286" lon="-0.3148">
        <ele>8.3</ele>
        <time>2020-12-20T10:37:15Z</time>
      </trkpt>
      <trkpt lat="49.29287" lon="-0.31481">
        <ele>8.3</ele>
        <time>2020-12-20T10:37:16Z</time>
      </trkpt>
      <trkpt lat="49.2929" lon="-0.31483">
        <ele>8.3</ele>
        <time>2020-12-20T10:37:17Z</time>
      </trkpt>
      <trkpt lat="49.29291" lon="-0.31484">
        <ele>8.3</ele>
        <time>2020-12-20T10:37:19Z</time>
      </trkpt>
      <trkpt lat="49.29293" lon="-0.31485">
        <ele>8.3</ele>
        <time>2020-12-20T10:37:20Z</time>
      </trkpt>
      <trkpt lat="49.29294" lon="-0.31486">
        <ele>8.3</ele>
        <time>2020-12-20T10:37:21Z</time>
      </trkpt>
      <trkpt lat="49.29296" lon="-0.31487">
        <ele>8.3</ele>
        <time>2020-12-20T10:37:22Z</time>
      </trkpt>
      <trkpt lat="49.29299" lon="-0.31489">
        <ele>8.3</ele>
        <time>2020-12-20T10:37:24Z</time>
      </trkpt>
      <trkpt lat="49.29302" lon="-0.31491">
        <ele>8.4</ele>
        <time>2020-12-20T10:37:25Z</time>
      </trkpt>
      <trkpt lat="49.29303" lon="-0.31492">
        <ele>8.4</ele>
        <time>2020-12-20T10:37:26Z</time>
      </trkpt>
      <trkpt lat="49.29307" lon="-0.31494">
        <ele>8.4</ele>
        <time>2020-12-20T10:37:27Z</time>
      </trkpt>
      <trkpt lat="49.29308" lon="-0.31495">
        <ele>8.4</ele>
        <time>2020-12-20T10:37:28Z</time>
      </trkpt>
      <trkpt lat="49.29311" lon="-0.31497">
        <ele>8.4</ele>
        <time>2020-12-20T10:37:30Z</time>
      </trkpt>
      <trkpt lat="49.29312" lon="-0.31498">
        <ele>8.4</ele>
        <time>2020-12-20T10:37:31Z</time>
      </trkpt>
      <trkpt lat="49.29314" lon="-0.31499">
        <ele>8.5</ele>
        <time>2020-12-20T10:37:32Z</time>
      </trkpt>
      <trkpt lat="49.29317" lon="-0.31501">
        <ele>8.5</ele>
        <time>2020-12-20T10:37:34Z</time>
      </trkpt>
      <trkpt lat="49.29318" lon="-0.31502">
        <ele>8.5</ele>
        <time>2020-12-20T10:37:35Z</time>
      </trkpt>
      <trkpt lat="49.2932" lon="-0.31503">
        <ele>8.5</ele>
        <time>2020-12-20T10:37:36Z</time>
      </trkpt>
      <trkpt lat="49.29322" lon="-0.31504">
        <ele>8.5</ele>
        <time>2020-12-20T10:37:38Z</time>
      </trkpt>
      <trkpt lat="49.29326" lon="-0.31507">
        <ele>8.6</ele>
        <time>2020-12-20T10:37:40Z</time>
      </trkpt>
      <trkpt lat="49.29328" lon="-0.31508">
        <ele>8.6</ele>
        <time>2020-12-20T10:37:41Z</time>
      </trkpt>
      <trkpt lat="49.29331" lon="-0.31509">
        <ele>8.6</ele>
        <time>2020-12-20T10:37:42Z</time>
      </trkpt>
      <trkpt lat="49.29334" lon="-0.31511">
        <ele>8.7</ele>
        <time>2020-12-20T10:37:44Z</time>
      </trkpt>
      <trkpt lat="49.29337" lon="-0.31513">
        <ele>8.7</ele>
        <time>2020-12-20T10:37:45Z</time>
      </trkpt>
      <trkpt lat="49.29339" lon="-0.31514">
        <ele>8.7</ele>
        <time>2020-12-20T10:37:47Z</time>
      </trkpt>
      <trkpt lat="49.29342" lon="-0.31515">
        <ele>8.8</ele>
        <time>2020-12-20T10:37:48Z</time>
      </trkpt>
      <trkpt lat="49.29343" lon="-0.31515">
        <ele>8.8</ele>
        <time>2020-12-20T10:37:49Z</time>
      </trkpt>
      <trkpt lat="49.29346" lon="-0.31517">
        <ele>8.8</ele>
        <time>2020-12-20T10:37:51Z</time>
      </trkpt>
      <trkpt lat="49.29347" lon="-0.31518">
        <ele>8.8</ele>
        <time>2020-12-20T10:37:52Z</time>
      </trkpt>
      <trkpt lat="49.29349" lon="-0.31519">
        <ele>8.8</ele>
        <time>2020-12-20T10:37:53Z</time>
      </trkpt>
      <trkpt lat="49.29352" lon="-0.31521">
        <ele>8.9</ele>
        <time>2020-12-20T10:37:55Z</time>
      </trkpt>
      <trkpt lat="49.29356" lon="-0.31523">
        <ele>8.9</ele>
        <time>2020-12-20T10:37:56Z</time>
      </trkpt>
      <trkpt lat="49.29359" lon="-0.31525">
        <ele>8.9</ele>
        <time>2020-12-20T10:37:58Z</time>
      </trkpt>
      <trkpt lat="49.29362" lon="-0.31527">
        <ele>9</ele>
        <time>2020-12-20T10:37:59Z</time>
      </trkpt>
      <trkpt lat="49.29365" lon="-0.31529">
        <ele>9</ele>
        <time>2020-12-20T10:38:01Z</time>
      </trkpt>
      <trkpt lat="49.29366" lon="-0.3153">
        <ele>9</ele>
        <time>2020-12-20T10:38:02Z</time>
      </trkpt>
      <trkpt lat="49.29368" lon="-0.31532">
        <ele>9</ele>
        <time>2020-12-20T10:38:03Z</time>
      </trkpt>
      <trkpt lat="49.2937" lon="-0.31532">
        <ele>9</ele>
        <time>2020-12-20T10:38:05Z</time>
      </trkpt>
      <trkpt lat="49.29372" lon="-0.31534">
        <ele>9.1</ele>
        <time>2020-12-20T10:38:06Z</time>
      </trkpt>
      <trkpt lat="49.29373" lon="-0.31535">
        <ele>9.1</ele>
        <time>2020-12-20T10:38:07Z</time>
      </trkpt>
      <trkpt lat="49.29375" lon="-0.31536">
        <ele>9.1</ele>
        <time>2020-12-20T10:38:09Z</time>
      </trkpt>
      <trkpt lat="49.29379" lon="-0.31538">
        <ele>9.1</ele>
        <time>2020-12-20T10:38:11Z</time>
      </trkpt>
      <trkpt lat="49.29381" lon="-0.31539">
        <ele>9.1</ele>
        <time>2020-12-20T10:38:13Z</time>
      </trkpt>
      <trkpt lat="49.29383" lon="-0.31541">
        <ele>9.1</ele>
        <time>2020-12-20T10:38:14Z</time>
      </trkpt>
      <trkpt lat="49.29385" lon="-0.31542">
        <ele>9.2</ele>
        <time>2020-12-20T10:38:16Z</time>
      </trkpt>
      <trkpt lat="49.29389" lon="-0.31543">
        <ele>9.2</ele>
        <time>2020-12-20T10:38:17Z</time>
      </trkpt>
      <trkpt lat="49.29392" lon="-0.31544">
        <ele>9.2</ele>
        <time>2020-12-20T10:38:18Z</time>
      </trkpt>
      <trkpt lat="49.29396" lon="-0.31545">
        <ele>9.2</ele>
        <time>2020-12-20T10:38:20Z</time>
      </trkpt>
      <trkpt lat="49.29399" lon="-0.31547">
        <ele>9.3</ele>
        <time>2020-12-20T10:38:21Z</time>
      </trkpt>
      <trkpt lat="49.29404" lon="-0.31548">
        <ele>9.3</ele>
        <time>2020-12-20T10:38:23Z</time>
      </trkpt>
      <trkpt lat="49.29406" lon="-0.31548">
        <ele>9.4</ele>
        <time>2020-12-20T10:38:25Z</time>
      </trkpt>
      <trkpt lat="49.29409" lon="-0.31549">
        <ele>9.4</ele>
        <time>2020-12-20T10:38:26Z</time>
      </trkpt>
      <trkpt lat="49.29413" lon="-0.3155">
        <ele>9.4</ele>
        <time>2020-12-20T10:38:27Z</time>
      </trkpt>
      <trkpt lat="49.29416" lon="-0.31551">
        <ele>9.5</ele>
        <time>2020-12-20T10:38:29Z</time>
      </trkpt>
      <trkpt lat="49.29419" lon="-0.31551">
        <ele>9.5</ele>
        <time>2020-12-20T10:38:30Z</time>
      </trkpt>
      <trkpt lat="49.29421" lon="-0.31551">
        <ele>9.6</ele>
        <time>2020-12-20T10:38:32Z</time>
      </trkpt>
      <trkpt lat="49.29424" lon="-0.31552">
        <ele>9.6</ele>
        <time>2020-12-20T10:38:34Z</time>
      </trkpt>
      <trkpt lat="49.29426" lon="-0.31553">
        <ele>9.6</ele>
        <time>2020-12-20T10:38:35Z</time>
      </trkpt>
      <trkpt lat="49.29428" lon="-0.31553">
        <ele>9.7</ele>
        <time>2020-12-20T10:38:36Z</time>
      </trkpt>
      <trkpt lat="49.29429" lon="-0.31553">
        <ele>9.7</ele>
        <time>2020-12-20T10:38:38Z</time>
      </trkpt>
      <trkpt lat="49.2943" lon="-0.31554">
        <ele>9.7</ele>
        <time>2020-12-20T10:38:40Z</time>
      </trkpt>
      <trkpt lat="49.29432" lon="-0.31554">
        <ele>9.7</ele>
        <time>2020-12-20T10:38:41Z</time>
      </trkpt>
      <trkpt lat="49.29434" lon="-0.31555">
        <ele>9.8</ele>
        <time>2020-12-20T10:38:42Z</time>
      </trkpt>
      <trkpt lat="49.29435" lon="-0.31555">
        <ele>9.8</ele>
        <time>2020-12-20T10:38:43Z</time>
      </trkpt>
      <trkpt lat="49.29438" lon="-0.31556">
        <ele>9.8</ele>
        <time>2020-12-20T10:38:45Z</time>
      </trkpt>
      <trkpt lat="49.29441" lon="-0.31556">
        <ele>9.9</ele>
        <time>2020-12-20T10:38:47Z</time>
      </trkpt>
      <trkpt lat="49.29443" lon="-0.31557">
        <ele>9.9</ele>
        <time>2020-12-20T10:38:48Z</time>
      </trkpt>
      <trkpt lat="49.29447" lon="-0.31557">
        <ele>9.9</ele>
        <time>2020-12-20T10:38:50Z</time>
      </trkpt>
      <trkpt lat="49.29451" lon="-0.31558">
        <ele>10</ele>
        <time>2020-12-20T10:38:51Z</time>
      </trkpt>
      <trkpt lat="49.29453" lon="-0.31558">
        <ele>10</ele>
        <time>2020-12-20T10:38:52Z</time>
      </trkpt>
      <trkpt lat="49.29456" lon="-0.31559">
        <ele>10</ele>
        <time>2020-12-20T10:38:53Z</time>
      </trkpt>
      <trkpt lat="49.29459" lon="-0.3156">
        <ele>10.1</ele>
        <time>2020-12-20T10:38:54Z</time>
      </trkpt>
      <trkpt lat="49.29462" lon="-0.3156">
        <ele>10.1</ele>
        <time>2020-12-20T10:38:56Z</time>
      </trkpt>
      <trkpt lat="49.29463" lon="-0.3156">
        <ele>10.1</ele>
        <time>2020-12-20T10:38:57Z</time>
      </trkpt>
      <trkpt lat="49.29466" lon="-0.3156">
        <ele>10.2</ele>
        <time>2020-12-20T10:38:58Z</time>
      </trkpt>
      <trkpt lat="49.29468" lon="-0.3156">
        <ele>10.2</ele>
        <time>2020-12-20T10:38:59Z</time>
      </trkpt>
      <trkpt lat="49.2947" lon="-0.3156">
        <ele>10.2</ele>
        <time>2020-12-20T10:39:00Z</time>
      </trkpt>
      <trkpt lat="49.29473" lon="-0.31561">
        <ele>10.2</ele>
        <time>2020-12-20T10:39:02Z</time>
      </trkpt>
      <trkpt lat="49.29474" lon="-0.31561">
        <ele>10.3</ele>
        <time>2020-12-20T10:39:03Z</time>
      </trkpt>
      <trkpt lat="49.29476" lon="-0.31561">
        <ele>10.3</ele>
        <time>2020-12-20T10:39:04Z</time>
      </trkpt>
      <trkpt lat="49.29479" lon="-0.31561">
        <ele>10.3</ele>
        <time>2020-12-20T10:39:05Z</time>
      </trkpt>
      <trkpt lat="49.2948" lon="-0.31562">
        <ele>10.3</ele>
        <time>2020-12-20T10:39:06Z</time>
      </trkpt>
      <trkpt lat="49.29485" lon="-0.31563">
        <ele>10.3</ele>
        <time>2020-12-20T10:39:08Z</time>
      </trkpt>
      <trkpt lat="49.29486" lon="-0.31564">
        <ele>10.3</ele>
        <time>2020-12-20T10:39:10Z</time>
      </trkpt>
      <trkpt lat="49.29487" lon="-0.31564">
        <ele>10.3</ele>
        <time>2020-12-20T10:39:11Z</time>
      </trkpt>
      <trkpt lat="49.2949" lon="-0.31565">
        <ele>10.4</ele>
        <time>2020-12-20T10:39:12Z</time>
      </trkpt>
      <trkpt lat="49.29491" lon="-0.31566">
        <ele>10.4</ele>
        <time>2020-12-20T10:39:13Z</time>
      </trkpt>
      <trkpt lat="49.29494" lon="-0.31567">
        <ele>10.4</ele>
        <time>2020-12-20T10:39:14Z</time>
      </trkpt>
      <trkpt lat="49.29497" lon="-0.31567">
        <ele>10.4</ele>
        <time>2020-12-20T10:39:16Z</time>
      </trkpt>
      <trkpt lat="49.295" lon="-0.31568">
        <ele>10.4</ele>
        <time>2020-12-20T10:39:18Z</time>
      </trkpt>
      <trkpt lat="49.29503" lon="-0.31569">
        <ele>10.4</ele>
        <time>2020-12-20T10:39:19Z</time>
      </trkpt>
      <trkpt lat="49.29505" lon="-0.31571">
        <ele>10.4</ele>
        <time>2020-12-20T10:39:20Z</time>
      </trkpt>
      <trkpt lat="49.29507" lon="-0.3157">
        <ele>10.4</ele>
        <time>2020-12-20T10:39:22Z</time>
      </trkpt>
      <trkpt lat="49.29508" lon="-0.31569">
        <ele>10.4</ele>
        <time>2020-12-20T10:39:23Z</time>
      </trkpt>
      <trkpt lat="49.2951" lon="-0.31569">
        <ele>10.4</ele>
        <time>2020-12-20T10:39:24Z</time>
      </trkpt>
      <trkpt lat="49.29512" lon="-0.31569">
        <ele>10.4</ele>
        <time>2020-12-20T10:39:26Z</time>
      </trkpt>
      <trkpt lat="49.29513" lon="-0.31568">
        <ele>10.4</ele>
        <time>2020-12-20T10:39:27Z</time>
      </trkpt>
      <trkpt lat="49.29514" lon="-0.31568">
        <ele>10.4</ele>
        <time>2020-12-20T10:39:28Z</time>
      </trkpt>
      <trkpt lat="49.29516" lon="-0.31568">
        <ele>10.4</ele>
        <time>2020-12-20T10:39:29Z</time>
      </trkpt>
      <trkpt lat="49.29518" lon="-0.31569">
        <ele>10.4</ele>
        <time>2020-12-20T10:39:31Z</time>
      </trkpt>
      <trkpt lat="49.29522" lon="-0.3157">
        <ele>10.4</ele>
        <time>2020-12-20T10:39:33Z</time>
      </trkpt>
      <trkpt lat="49.29527" lon="-0.31571">
        <ele>10.5</ele>
        <time>2020-12-20T10:39:34Z</time>
      </trkpt>
      <trkpt lat="49.29531" lon="-0.31572">
        <ele>10.5</ele>
        <time>2020-12-20T10:39:36Z</time>
      </trkpt>
      <trkpt lat="49.29535" lon="-0.31573">
        <ele>10.5</ele>
        <time>2020-12-20T10:39:37Z</time>
      </trkpt>
      <trkpt lat="49.29538" lon="-0.31574">
        <ele>10.5</ele>
        <time>2020-12-20T10:39:38Z</time>
      </trkpt>
      <trkpt lat="49.29541" lon="-0.31575">
        <ele>10.5</ele>
        <time>2020-12-20T10:39:40Z</time>
      </trkpt>
      <trkpt lat="49.29545" lon="-0.31576">
        <ele>10.5</ele>
        <time>2020-12-20T10:39:42Z</time>
      </trkpt>
      <trkpt lat="49.29548" lon="-0.31576">
        <ele>10.5</ele>
        <time>2020-12-20T10:39:43Z</time>
      </trkpt>
      <trkpt lat="49.29552" lon="-0.31577">
        <ele>10.5</ele>
        <time>2020-12-20T10:39:45Z</time>
      </trkpt>
      <trkpt lat="49.29553" lon="-0.31577">
        <ele>10.5</ele>
        <time>2020-12-20T10:39:46Z</time>
      </trkpt>
      <trkpt lat="49.29556" lon="-0.31577">
        <ele>10.6</ele>
        <time>2020-12-20T10:39:47Z</time>
      </trkpt>
      <trkpt lat="49.29559" lon="-0.31578">
        <ele>10.6</ele>
        <time>2020-12-20T10:39:49Z</time>
      </trkpt>
      <trkpt lat="49.2956" lon="-0.31578">
        <ele>10.6</ele>
        <time>2020-12-20T10:39:50Z</time>
      </trkpt>
      <trkpt lat="49.29563" lon="-0.31579">
        <ele>10.6</ele>
        <time>2020-12-20T10:39:51Z</time>
      </trkpt>
      <trkpt lat="49.29568" lon="-0.31581">
        <ele>10.6</ele>
        <time>2020-12-20T10:39:53Z</time>
      </trkpt>
      <trkpt lat="49.2957" lon="-0.31581">
        <ele>10.6</ele>
        <time>2020-12-20T10:39:55Z</time>
      </trkpt>
      <trkpt lat="49.29572" lon="-0.31582">
        <ele>10.6</ele>
        <time>2020-12-20T10:39:56Z</time>
      </trkpt>
      <trkpt lat="49.29574" lon="-0.31582">
        <ele>10.6</ele>
        <time>2020-12-20T10:39:57Z</time>
      </trkpt>
      <trkpt lat="49.29577" lon="-0.31583">
        <ele>10.6</ele>
        <time>2020-12-20T10:39:58Z</time>
      </trkpt>
      <trkpt lat="49.29578" lon="-0.31583">
        <ele>10.6</ele>
        <time>2020-12-20T10:39:59Z</time>
      </trkpt>
      <trkpt lat="49.29581" lon="-0.31584">
        <ele>10.7</ele>
        <time>2020-12-20T10:40:01Z</time>
      </trkpt>
      <trkpt lat="49.29582" lon="-0.31585">
        <ele>10.7</ele>
        <time>2020-12-20T10:40:02Z</time>
      </trkpt>
      <trkpt lat="49.29585" lon="-0.31586">
        <ele>10.7</ele>
        <time>2020-12-20T10:40:04Z</time>
      </trkpt>
      <trkpt lat="49.29589" lon="-0.31588">
        <ele>10.7</ele>
        <time>2020-12-20T10:40:05Z</time>
      </trkpt>
      <trkpt lat="49.29592" lon="-0.3159">
        <ele>10.7</ele>
        <time>2020-12-20T10:40:07Z</time>
      </trkpt>
      <trkpt lat="49.29594" lon="-0.31591">
        <ele>10.7</ele>
        <time>2020-12-20T10:40:08Z</time>
      </trkpt>
      <trkpt lat="49.29597" lon="-0.31592">
        <ele>10.7</ele>
        <time>2020-12-20T10:40:09Z</time>
      </trkpt>
      <trkpt lat="49.29598" lon="-0.31593">
        <ele>10.7</ele>
        <time>2020-12-20T10:40:10Z</time>
      </trkpt>
      <trkpt lat="49.29601" lon="-0.31594">
        <ele>10.8</ele>
        <time>2020-12-20T10:40:12Z</time>
      </trkpt>
      <trkpt lat="49.29604" lon="-0.31596">
        <ele>10.8</ele>
        <time>2020-12-20T10:40:14Z</time>
      </trkpt>
      <trkpt lat="49.29607" lon="-0.31598">
        <ele>10.8</ele>
        <time>2020-12-20T10:40:15Z</time>
      </trkpt>
      <trkpt lat="49.2961" lon="-0.31599">
        <ele>10.8</ele>
        <time>2020-12-20T10:40:16Z</time>
      </trkpt>
      <trkpt lat="49.29611" lon="-0.316">
        <ele>10.8</ele>
        <time>2020-12-20T10:40:17Z</time>
      </trkpt>
      <trkpt lat="49.29614" lon="-0.31601">
        <ele>10.8</ele>
        <time>2020-12-20T10:40:19Z</time>
      </trkpt>
      <trkpt lat="49.29616" lon="-0.31603">
        <ele>10.8</ele>
        <time>2020-12-20T10:40:20Z</time>
      </trkpt>
      <trkpt lat="49.29618" lon="-0.31603">
        <ele>10.8</ele>
        <time>2020-12-20T10:40:22Z</time>
      </trkpt>
      <trkpt lat="49.29621" lon="-0.31605">
        <ele>10.8</ele>
        <time>2020-12-20T10:40:23Z</time>
      </trkpt>
      <trkpt lat="49.29623" lon="-0.31607">
        <ele>10.8</ele>
        <time>2020-12-20T10:40:24Z</time>
      </trkpt>
      <trkpt lat="49.29626" lon="-0.31608">
        <ele>10.8</ele>
        <time>2020-12-20T10:40:26Z</time>
      </trkpt>
      <trkpt lat="49.29628" lon="-0.31609">
        <ele>10.9</ele>
        <time>2020-12-20T10:40:27Z</time>
      </trkpt>
      <trkpt lat="49.2963" lon="-0.3161">
        <ele>10.9</ele>
        <time>2020-12-20T10:40:29Z</time>
      </trkpt>
      <trkpt lat="49.29634" lon="-0.31612">
        <ele>10.9</ele>
        <time>2020-12-20T10:40:30Z</time>
      </trkpt>
      <trkpt lat="49.29635" lon="-0.31613">
        <ele>10.9</ele>
        <time>2020-12-20T10:40:32Z</time>
      </trkpt>
      <trkpt lat="49.29638" lon="-0.31614">
        <ele>10.9</ele>
        <time>2020-12-20T10:40:34Z</time>
      </trkpt>
      <trkpt lat="49.29638" lon="-0.31614">
        <ele>10.9</ele>
        <time>2020-12-20T10:40:35Z</time>
      </trkpt>
      <trkpt lat="49.29641" lon="-0.31615">
        <ele>10.9</ele>
        <time>2020-12-20T10:40:37Z</time>
      </trkpt>
      <trkpt lat="49.29642" lon="-0.31615">
        <ele>10.9</ele>
        <time>2020-12-20T10:40:38Z</time>
      </trkpt>
      <trkpt lat="49.29643" lon="-0.31616">
        <ele>10.9</ele>
        <time>2020-12-20T10:40:39Z</time>
      </trkpt>
      <trkpt lat="49.29646" lon="-0.31616">
        <ele>10.9</ele>
        <time>2020-12-20T10:40:41Z</time>
      </trkpt>
      <trkpt lat="49.29647" lon="-0.31617">
        <ele>10.9</ele>
        <time>2020-12-20T10:40:42Z</time>
      </trkpt>
    </trkseg>
  </trk>
</gpx>